<?xml version="1.0" encoding="UTF-8" standalone="no" ?>
<gpx xmlns="http://www.topografix.com/GPX/1/1" xmlns:xsi="http://www.w3.org/2001/XMLSchema-instance" xsi:schemaLocation="http://www.topografix.com/GPX/1/1 http://www.topografix.com/GPX/1/1/gpx.xsd" version="1.1" creator="VisuGPX - https://www.visugpx.com">
  <metadata>
    <name>Gentelles </name>
    <desc><![CDATA[36 pax]]></desc>
  </metadata>
  <trk>
    <name><![CDATA[Gentelles _1]]></name>
    <trkseg>
      <trkpt lat="49.8444" lon="2.45688">
        <ele>106</ele>
        <time>2024-01-24T12:58:57Z</time>
      </trkpt>
      <trkpt lat="49.8444" lon="2.45687">
        <ele>106</ele>
        <time>2024-01-24T12:58:59Z</time>
      </trkpt>
      <trkpt lat="49.84439" lon="2.45688">
        <ele>106</ele>
        <time>2024-01-24T12:59:00Z</time>
      </trkpt>
      <trkpt lat="49.84439" lon="2.45687">
        <ele>106</ele>
        <time>2024-01-24T12:59:01Z</time>
      </trkpt>
      <trkpt lat="49.84439" lon="2.45686">
        <ele>106</ele>
        <time>2024-01-24T12:59:02Z</time>
      </trkpt>
      <trkpt lat="49.8444" lon="2.45686">
        <ele>106</ele>
        <time>2024-01-24T12:59:03Z</time>
      </trkpt>
      <trkpt lat="49.8444" lon="2.45686">
        <ele>106</ele>
        <time>2024-01-24T12:59:04Z</time>
      </trkpt>
      <trkpt lat="49.84441" lon="2.45685">
        <ele>106</ele>
        <time>2024-01-24T12:59:06Z</time>
      </trkpt>
      <trkpt lat="49.84442" lon="2.45683">
        <ele>106</ele>
        <time>2024-01-24T12:59:08Z</time>
      </trkpt>
      <trkpt lat="49.84444" lon="2.45679">
        <ele>106</ele>
        <time>2024-01-24T12:59:09Z</time>
      </trkpt>
      <trkpt lat="49.84444" lon="2.45678">
        <ele>106</ele>
        <time>2024-01-24T12:59:10Z</time>
      </trkpt>
      <trkpt lat="49.84446" lon="2.45673">
        <ele>106.1</ele>
        <time>2024-01-24T12:59:12Z</time>
      </trkpt>
      <trkpt lat="49.84446" lon="2.45672">
        <ele>106.1</ele>
        <time>2024-01-24T12:59:13Z</time>
      </trkpt>
      <trkpt lat="49.84448" lon="2.45671">
        <ele>106.1</ele>
        <time>2024-01-24T12:59:14Z</time>
      </trkpt>
      <trkpt lat="49.84449" lon="2.45669">
        <ele>106.1</ele>
        <time>2024-01-24T12:59:15Z</time>
      </trkpt>
      <trkpt lat="49.8445" lon="2.45668">
        <ele>106.1</ele>
        <time>2024-01-24T12:59:16Z</time>
      </trkpt>
      <trkpt lat="49.84451" lon="2.45668">
        <ele>106.1</ele>
        <time>2024-01-24T12:59:17Z</time>
      </trkpt>
      <trkpt lat="49.84452" lon="2.45667">
        <ele>106.1</ele>
        <time>2024-01-24T12:59:19Z</time>
      </trkpt>
      <trkpt lat="49.84453" lon="2.45667">
        <ele>106.1</ele>
        <time>2024-01-24T12:59:20Z</time>
      </trkpt>
      <trkpt lat="49.84454" lon="2.45666">
        <ele>106.1</ele>
        <time>2024-01-24T12:59:21Z</time>
      </trkpt>
      <trkpt lat="49.84455" lon="2.45666">
        <ele>106.1</ele>
        <time>2024-01-24T12:59:22Z</time>
      </trkpt>
      <trkpt lat="49.84456" lon="2.45665">
        <ele>106.2</ele>
        <time>2024-01-24T12:59:23Z</time>
      </trkpt>
      <trkpt lat="49.84458" lon="2.45665">
        <ele>106.2</ele>
        <time>2024-01-24T12:59:24Z</time>
      </trkpt>
      <trkpt lat="49.84459" lon="2.45665">
        <ele>106.2</ele>
        <time>2024-01-24T12:59:26Z</time>
      </trkpt>
      <trkpt lat="49.8446" lon="2.45665">
        <ele>106.2</ele>
        <time>2024-01-24T12:59:27Z</time>
      </trkpt>
      <trkpt lat="49.84462" lon="2.45666">
        <ele>106.2</ele>
        <time>2024-01-24T12:59:28Z</time>
      </trkpt>
      <trkpt lat="49.84462" lon="2.45666">
        <ele>106.2</ele>
        <time>2024-01-24T12:59:29Z</time>
      </trkpt>
      <trkpt lat="49.84464" lon="2.45666">
        <ele>106.2</ele>
        <time>2024-01-24T12:59:30Z</time>
      </trkpt>
      <trkpt lat="49.84465" lon="2.45666">
        <ele>106.2</ele>
        <time>2024-01-24T12:59:31Z</time>
      </trkpt>
      <trkpt lat="49.84466" lon="2.45666">
        <ele>106.3</ele>
        <time>2024-01-24T12:59:33Z</time>
      </trkpt>
      <trkpt lat="49.84468" lon="2.45665">
        <ele>106.3</ele>
        <time>2024-01-24T12:59:34Z</time>
      </trkpt>
      <trkpt lat="49.84469" lon="2.45665">
        <ele>106.3</ele>
        <time>2024-01-24T12:59:35Z</time>
      </trkpt>
      <trkpt lat="49.8447" lon="2.45664">
        <ele>106.3</ele>
        <time>2024-01-24T12:59:37Z</time>
      </trkpt>
      <trkpt lat="49.84471" lon="2.45663">
        <ele>106.3</ele>
        <time>2024-01-24T12:59:38Z</time>
      </trkpt>
      <trkpt lat="49.84472" lon="2.45662">
        <ele>106.3</ele>
        <time>2024-01-24T12:59:39Z</time>
      </trkpt>
      <trkpt lat="49.84473" lon="2.45661">
        <ele>106.4</ele>
        <time>2024-01-24T12:59:40Z</time>
      </trkpt>
      <trkpt lat="49.84474" lon="2.45659">
        <ele>106.4</ele>
        <time>2024-01-24T12:59:41Z</time>
      </trkpt>
      <trkpt lat="49.84475" lon="2.45658">
        <ele>106.4</ele>
        <time>2024-01-24T12:59:42Z</time>
      </trkpt>
      <trkpt lat="49.84476" lon="2.45657">
        <ele>106.4</ele>
        <time>2024-01-24T12:59:44Z</time>
      </trkpt>
      <trkpt lat="49.84477" lon="2.45656">
        <ele>106.4</ele>
        <time>2024-01-24T12:59:45Z</time>
      </trkpt>
      <trkpt lat="49.84477" lon="2.45655">
        <ele>106.4</ele>
        <time>2024-01-24T12:59:46Z</time>
      </trkpt>
      <trkpt lat="49.84477" lon="2.45654">
        <ele>106.5</ele>
        <time>2024-01-24T12:59:47Z</time>
      </trkpt>
      <trkpt lat="49.84478" lon="2.45652">
        <ele>106.5</ele>
        <time>2024-01-24T12:59:48Z</time>
      </trkpt>
      <trkpt lat="49.8448" lon="2.45651">
        <ele>106.5</ele>
        <time>2024-01-24T12:59:49Z</time>
      </trkpt>
      <trkpt lat="49.84481" lon="2.45651">
        <ele>106.5</ele>
        <time>2024-01-24T12:59:50Z</time>
      </trkpt>
      <trkpt lat="49.84481" lon="2.4565">
        <ele>106.5</ele>
        <time>2024-01-24T12:59:51Z</time>
      </trkpt>
      <trkpt lat="49.84483" lon="2.45649">
        <ele>106.5</ele>
        <time>2024-01-24T12:59:52Z</time>
      </trkpt>
      <trkpt lat="49.84484" lon="2.45647">
        <ele>106.5</ele>
        <time>2024-01-24T12:59:54Z</time>
      </trkpt>
      <trkpt lat="49.84486" lon="2.45645">
        <ele>106.6</ele>
        <time>2024-01-24T12:59:55Z</time>
      </trkpt>
      <trkpt lat="49.84487" lon="2.45644">
        <ele>106.6</ele>
        <time>2024-01-24T12:59:56Z</time>
      </trkpt>
      <trkpt lat="49.84488" lon="2.45643">
        <ele>106.6</ele>
        <time>2024-01-24T12:59:58Z</time>
      </trkpt>
      <trkpt lat="49.84489" lon="2.45641">
        <ele>106.6</ele>
        <time>2024-01-24T12:59:59Z</time>
      </trkpt>
      <trkpt lat="49.84489" lon="2.4564">
        <ele>106.6</ele>
        <time>2024-01-24T13:00:00Z</time>
      </trkpt>
      <trkpt lat="49.8449" lon="2.45639">
        <ele>106.6</ele>
        <time>2024-01-24T13:00:01Z</time>
      </trkpt>
      <trkpt lat="49.8449" lon="2.45638">
        <ele>106.6</ele>
        <time>2024-01-24T13:00:02Z</time>
      </trkpt>
      <trkpt lat="49.8449" lon="2.45637">
        <ele>106.6</ele>
        <time>2024-01-24T13:00:03Z</time>
      </trkpt>
      <trkpt lat="49.84491" lon="2.45635">
        <ele>106.6</ele>
        <time>2024-01-24T13:00:05Z</time>
      </trkpt>
      <trkpt lat="49.84492" lon="2.45632">
        <ele>106.7</ele>
        <time>2024-01-24T13:00:06Z</time>
      </trkpt>
      <trkpt lat="49.84492" lon="2.45631">
        <ele>106.7</ele>
        <time>2024-01-24T13:00:07Z</time>
      </trkpt>
      <trkpt lat="49.84492" lon="2.45629">
        <ele>106.7</ele>
        <time>2024-01-24T13:00:08Z</time>
      </trkpt>
      <trkpt lat="49.84493" lon="2.45627">
        <ele>106.7</ele>
        <time>2024-01-24T13:00:09Z</time>
      </trkpt>
      <trkpt lat="49.84493" lon="2.45625">
        <ele>106.7</ele>
        <time>2024-01-24T13:00:10Z</time>
      </trkpt>
      <trkpt lat="49.84493" lon="2.45625">
        <ele>106.7</ele>
        <time>2024-01-24T13:00:11Z</time>
      </trkpt>
      <trkpt lat="49.84494" lon="2.45625">
        <ele>106.7</ele>
        <time>2024-01-24T13:00:12Z</time>
      </trkpt>
      <trkpt lat="49.84494" lon="2.45624">
        <ele>106.7</ele>
        <time>2024-01-24T13:00:14Z</time>
      </trkpt>
      <trkpt lat="49.84494" lon="2.45624">
        <ele>106.7</ele>
        <time>2024-01-24T13:00:15Z</time>
      </trkpt>
      <trkpt lat="49.84494" lon="2.45623">
        <ele>106.7</ele>
        <time>2024-01-24T13:00:16Z</time>
      </trkpt>
      <trkpt lat="49.84494" lon="2.45622">
        <ele>106.7</ele>
        <time>2024-01-24T13:00:17Z</time>
      </trkpt>
      <trkpt lat="49.84494" lon="2.4562">
        <ele>106.8</ele>
        <time>2024-01-24T13:00:18Z</time>
      </trkpt>
      <trkpt lat="49.84495" lon="2.45619">
        <ele>106.8</ele>
        <time>2024-01-24T13:00:19Z</time>
      </trkpt>
      <trkpt lat="49.84495" lon="2.45617">
        <ele>106.8</ele>
        <time>2024-01-24T13:00:20Z</time>
      </trkpt>
      <trkpt lat="49.84495" lon="2.45616">
        <ele>106.8</ele>
        <time>2024-01-24T13:00:21Z</time>
      </trkpt>
      <trkpt lat="49.84495" lon="2.45615">
        <ele>106.8</ele>
        <time>2024-01-24T13:00:23Z</time>
      </trkpt>
      <trkpt lat="49.84496" lon="2.45614">
        <ele>106.8</ele>
        <time>2024-01-24T13:00:24Z</time>
      </trkpt>
      <trkpt lat="49.84496" lon="2.45612">
        <ele>106.8</ele>
        <time>2024-01-24T13:00:25Z</time>
      </trkpt>
      <trkpt lat="49.84496" lon="2.4561">
        <ele>106.8</ele>
        <time>2024-01-24T13:00:26Z</time>
      </trkpt>
      <trkpt lat="49.84496" lon="2.45608">
        <ele>106.9</ele>
        <time>2024-01-24T13:00:27Z</time>
      </trkpt>
      <trkpt lat="49.84496" lon="2.45606">
        <ele>106.9</ele>
        <time>2024-01-24T13:00:28Z</time>
      </trkpt>
      <trkpt lat="49.84497" lon="2.45604">
        <ele>106.9</ele>
        <time>2024-01-24T13:00:30Z</time>
      </trkpt>
      <trkpt lat="49.84497" lon="2.45603">
        <ele>106.9</ele>
        <time>2024-01-24T13:00:31Z</time>
      </trkpt>
      <trkpt lat="49.84497" lon="2.45601">
        <ele>106.9</ele>
        <time>2024-01-24T13:00:32Z</time>
      </trkpt>
      <trkpt lat="49.84497" lon="2.456">
        <ele>106.9</ele>
        <time>2024-01-24T13:00:33Z</time>
      </trkpt>
      <trkpt lat="49.84498" lon="2.45598">
        <ele>106.9</ele>
        <time>2024-01-24T13:00:34Z</time>
      </trkpt>
      <trkpt lat="49.84498" lon="2.45597">
        <ele>106.9</ele>
        <time>2024-01-24T13:00:35Z</time>
      </trkpt>
      <trkpt lat="49.84499" lon="2.45597">
        <ele>106.9</ele>
        <time>2024-01-24T13:00:36Z</time>
      </trkpt>
      <trkpt lat="49.84498" lon="2.45597">
        <ele>106.9</ele>
        <time>2024-01-24T13:00:37Z</time>
      </trkpt>
      <trkpt lat="49.84499" lon="2.45596">
        <ele>106.9</ele>
        <time>2024-01-24T13:00:38Z</time>
      </trkpt>
      <trkpt lat="49.845" lon="2.45595">
        <ele>106.9</ele>
        <time>2024-01-24T13:00:40Z</time>
      </trkpt>
      <trkpt lat="49.84501" lon="2.45593">
        <ele>106.9</ele>
        <time>2024-01-24T13:00:41Z</time>
      </trkpt>
      <trkpt lat="49.84501" lon="2.45593">
        <ele>106.9</ele>
        <time>2024-01-24T13:00:42Z</time>
      </trkpt>
      <trkpt lat="49.84501" lon="2.45592">
        <ele>106.9</ele>
        <time>2024-01-24T13:00:43Z</time>
      </trkpt>
      <trkpt lat="49.84502" lon="2.45591">
        <ele>106.9</ele>
        <time>2024-01-24T13:00:44Z</time>
      </trkpt>
      <trkpt lat="49.84503" lon="2.45589">
        <ele>107</ele>
        <time>2024-01-24T13:00:45Z</time>
      </trkpt>
      <trkpt lat="49.84504" lon="2.45587">
        <ele>107</ele>
        <time>2024-01-24T13:00:47Z</time>
      </trkpt>
      <trkpt lat="49.84505" lon="2.45585">
        <ele>107</ele>
        <time>2024-01-24T13:00:48Z</time>
      </trkpt>
      <trkpt lat="49.84506" lon="2.45583">
        <ele>107.1</ele>
        <time>2024-01-24T13:00:49Z</time>
      </trkpt>
      <trkpt lat="49.84507" lon="2.45582">
        <ele>107.1</ele>
        <time>2024-01-24T13:00:50Z</time>
      </trkpt>
      <trkpt lat="49.84507" lon="2.45581">
        <ele>107.1</ele>
        <time>2024-01-24T13:00:51Z</time>
      </trkpt>
      <trkpt lat="49.84508" lon="2.45578">
        <ele>107.2</ele>
        <time>2024-01-24T13:00:52Z</time>
      </trkpt>
      <trkpt lat="49.84509" lon="2.45577">
        <ele>107.2</ele>
        <time>2024-01-24T13:00:54Z</time>
      </trkpt>
      <trkpt lat="49.84509" lon="2.45576">
        <ele>107.3</ele>
        <time>2024-01-24T13:00:55Z</time>
      </trkpt>
      <trkpt lat="49.8451" lon="2.45575">
        <ele>107.3</ele>
        <time>2024-01-24T13:00:56Z</time>
      </trkpt>
      <trkpt lat="49.84511" lon="2.45573">
        <ele>107.3</ele>
        <time>2024-01-24T13:00:57Z</time>
      </trkpt>
      <trkpt lat="49.84511" lon="2.45572">
        <ele>107.4</ele>
        <time>2024-01-24T13:00:58Z</time>
      </trkpt>
      <trkpt lat="49.84512" lon="2.45571">
        <ele>107.4</ele>
        <time>2024-01-24T13:00:59Z</time>
      </trkpt>
      <trkpt lat="49.84513" lon="2.45569">
        <ele>107.5</ele>
        <time>2024-01-24T13:01:01Z</time>
      </trkpt>
      <trkpt lat="49.84514" lon="2.45568">
        <ele>107.5</ele>
        <time>2024-01-24T13:01:02Z</time>
      </trkpt>
      <trkpt lat="49.84514" lon="2.45566">
        <ele>107.6</ele>
        <time>2024-01-24T13:01:03Z</time>
      </trkpt>
      <trkpt lat="49.84515" lon="2.45565">
        <ele>107.6</ele>
        <time>2024-01-24T13:01:04Z</time>
      </trkpt>
      <trkpt lat="49.84516" lon="2.45565">
        <ele>107.7</ele>
        <time>2024-01-24T13:01:05Z</time>
      </trkpt>
      <trkpt lat="49.84517" lon="2.45563">
        <ele>107.8</ele>
        <time>2024-01-24T13:01:06Z</time>
      </trkpt>
      <trkpt lat="49.84518" lon="2.45562">
        <ele>107.8</ele>
        <time>2024-01-24T13:01:07Z</time>
      </trkpt>
      <trkpt lat="49.84519" lon="2.45561">
        <ele>107.9</ele>
        <time>2024-01-24T13:01:08Z</time>
      </trkpt>
      <trkpt lat="49.8452" lon="2.4556">
        <ele>107.9</ele>
        <time>2024-01-24T13:01:10Z</time>
      </trkpt>
      <trkpt lat="49.84521" lon="2.45559">
        <ele>108</ele>
        <time>2024-01-24T13:01:11Z</time>
      </trkpt>
      <trkpt lat="49.84522" lon="2.45558">
        <ele>108</ele>
        <time>2024-01-24T13:01:12Z</time>
      </trkpt>
      <trkpt lat="49.84525" lon="2.45555">
        <ele>108.2</ele>
        <time>2024-01-24T13:01:13Z</time>
      </trkpt>
      <trkpt lat="49.84526" lon="2.45554">
        <ele>108.3</ele>
        <time>2024-01-24T13:01:14Z</time>
      </trkpt>
      <trkpt lat="49.84528" lon="2.45552">
        <ele>108.3</ele>
        <time>2024-01-24T13:01:15Z</time>
      </trkpt>
      <trkpt lat="49.84529" lon="2.45551">
        <ele>108.4</ele>
        <time>2024-01-24T13:01:16Z</time>
      </trkpt>
      <trkpt lat="49.84531" lon="2.4555">
        <ele>108.5</ele>
        <time>2024-01-24T13:01:17Z</time>
      </trkpt>
      <trkpt lat="49.84532" lon="2.45548">
        <ele>108.5</ele>
        <time>2024-01-24T13:01:18Z</time>
      </trkpt>
      <trkpt lat="49.84533" lon="2.45547">
        <ele>108.6</ele>
        <time>2024-01-24T13:01:19Z</time>
      </trkpt>
      <trkpt lat="49.84534" lon="2.45545">
        <ele>108.7</ele>
        <time>2024-01-24T13:01:21Z</time>
      </trkpt>
      <trkpt lat="49.84536" lon="2.45544">
        <ele>108.7</ele>
        <time>2024-01-24T13:01:22Z</time>
      </trkpt>
      <trkpt lat="49.84537" lon="2.45543">
        <ele>108.8</ele>
        <time>2024-01-24T13:01:23Z</time>
      </trkpt>
      <trkpt lat="49.84539" lon="2.45542">
        <ele>108.8</ele>
        <time>2024-01-24T13:01:24Z</time>
      </trkpt>
      <trkpt lat="49.8454" lon="2.45541">
        <ele>108.9</ele>
        <time>2024-01-24T13:01:25Z</time>
      </trkpt>
      <trkpt lat="49.84542" lon="2.45541">
        <ele>108.9</ele>
        <time>2024-01-24T13:01:26Z</time>
      </trkpt>
      <trkpt lat="49.84544" lon="2.45541">
        <ele>109</ele>
        <time>2024-01-24T13:01:27Z</time>
      </trkpt>
      <trkpt lat="49.84545" lon="2.45541">
        <ele>109.1</ele>
        <time>2024-01-24T13:01:28Z</time>
      </trkpt>
      <trkpt lat="49.84547" lon="2.45542">
        <ele>109.2</ele>
        <time>2024-01-24T13:01:29Z</time>
      </trkpt>
      <trkpt lat="49.84548" lon="2.45542">
        <ele>109.2</ele>
        <time>2024-01-24T13:01:30Z</time>
      </trkpt>
      <trkpt lat="49.8455" lon="2.45542">
        <ele>109.3</ele>
        <time>2024-01-24T13:01:32Z</time>
      </trkpt>
      <trkpt lat="49.84552" lon="2.45542">
        <ele>109.3</ele>
        <time>2024-01-24T13:01:33Z</time>
      </trkpt>
      <trkpt lat="49.84553" lon="2.45542">
        <ele>109.4</ele>
        <time>2024-01-24T13:01:34Z</time>
      </trkpt>
      <trkpt lat="49.84555" lon="2.45542">
        <ele>109.4</ele>
        <time>2024-01-24T13:01:35Z</time>
      </trkpt>
      <trkpt lat="49.84557" lon="2.45542">
        <ele>109.5</ele>
        <time>2024-01-24T13:01:36Z</time>
      </trkpt>
      <trkpt lat="49.84558" lon="2.45542">
        <ele>109.5</ele>
        <time>2024-01-24T13:01:37Z</time>
      </trkpt>
      <trkpt lat="49.8456" lon="2.45542">
        <ele>109.6</ele>
        <time>2024-01-24T13:01:39Z</time>
      </trkpt>
      <trkpt lat="49.84561" lon="2.45542">
        <ele>109.6</ele>
        <time>2024-01-24T13:01:40Z</time>
      </trkpt>
      <trkpt lat="49.84563" lon="2.45542">
        <ele>109.7</ele>
        <time>2024-01-24T13:01:41Z</time>
      </trkpt>
      <trkpt lat="49.84564" lon="2.45542">
        <ele>109.7</ele>
        <time>2024-01-24T13:01:42Z</time>
      </trkpt>
      <trkpt lat="49.84566" lon="2.45542">
        <ele>109.8</ele>
        <time>2024-01-24T13:01:43Z</time>
      </trkpt>
      <trkpt lat="49.84567" lon="2.45542">
        <ele>109.8</ele>
        <time>2024-01-24T13:01:44Z</time>
      </trkpt>
      <trkpt lat="49.84569" lon="2.45541">
        <ele>109.9</ele>
        <time>2024-01-24T13:01:45Z</time>
      </trkpt>
      <trkpt lat="49.84571" lon="2.45541">
        <ele>110</ele>
        <time>2024-01-24T13:01:47Z</time>
      </trkpt>
      <trkpt lat="49.84572" lon="2.45541">
        <ele>110</ele>
        <time>2024-01-24T13:01:48Z</time>
      </trkpt>
      <trkpt lat="49.84574" lon="2.45541">
        <ele>110</ele>
        <time>2024-01-24T13:01:49Z</time>
      </trkpt>
      <trkpt lat="49.84575" lon="2.45541">
        <ele>110.1</ele>
        <time>2024-01-24T13:01:50Z</time>
      </trkpt>
      <trkpt lat="49.84577" lon="2.45542">
        <ele>110.1</ele>
        <time>2024-01-24T13:01:51Z</time>
      </trkpt>
      <trkpt lat="49.84578" lon="2.45542">
        <ele>110.1</ele>
        <time>2024-01-24T13:01:52Z</time>
      </trkpt>
      <trkpt lat="49.8458" lon="2.45542">
        <ele>110.2</ele>
        <time>2024-01-24T13:01:53Z</time>
      </trkpt>
      <trkpt lat="49.84581" lon="2.45541">
        <ele>110.2</ele>
        <time>2024-01-24T13:01:54Z</time>
      </trkpt>
      <trkpt lat="49.84582" lon="2.45541">
        <ele>110.2</ele>
        <time>2024-01-24T13:01:56Z</time>
      </trkpt>
      <trkpt lat="49.84583" lon="2.45541">
        <ele>110.3</ele>
        <time>2024-01-24T13:01:57Z</time>
      </trkpt>
      <trkpt lat="49.84584" lon="2.45541">
        <ele>110.3</ele>
        <time>2024-01-24T13:01:58Z</time>
      </trkpt>
      <trkpt lat="49.84585" lon="2.45541">
        <ele>110.3</ele>
        <time>2024-01-24T13:01:59Z</time>
      </trkpt>
      <trkpt lat="49.84586" lon="2.45541">
        <ele>110.3</ele>
        <time>2024-01-24T13:02:00Z</time>
      </trkpt>
      <trkpt lat="49.84588" lon="2.45541">
        <ele>110.4</ele>
        <time>2024-01-24T13:02:01Z</time>
      </trkpt>
      <trkpt lat="49.8459" lon="2.4554">
        <ele>110.4</ele>
        <time>2024-01-24T13:02:03Z</time>
      </trkpt>
      <trkpt lat="49.84591" lon="2.4554">
        <ele>110.4</ele>
        <time>2024-01-24T13:02:04Z</time>
      </trkpt>
      <trkpt lat="49.84592" lon="2.4554">
        <ele>110.4</ele>
        <time>2024-01-24T13:02:05Z</time>
      </trkpt>
      <trkpt lat="49.84594" lon="2.45539">
        <ele>110.5</ele>
        <time>2024-01-24T13:02:06Z</time>
      </trkpt>
      <trkpt lat="49.84595" lon="2.45539">
        <ele>110.5</ele>
        <time>2024-01-24T13:02:07Z</time>
      </trkpt>
      <trkpt lat="49.84595" lon="2.45539">
        <ele>110.5</ele>
        <time>2024-01-24T13:02:08Z</time>
      </trkpt>
      <trkpt lat="49.84598" lon="2.45538">
        <ele>110.6</ele>
        <time>2024-01-24T13:02:09Z</time>
      </trkpt>
      <trkpt lat="49.84598" lon="2.45538">
        <ele>110.6</ele>
        <time>2024-01-24T13:02:10Z</time>
      </trkpt>
      <trkpt lat="49.84599" lon="2.45538">
        <ele>110.6</ele>
        <time>2024-01-24T13:02:11Z</time>
      </trkpt>
      <trkpt lat="49.84601" lon="2.45537">
        <ele>110.6</ele>
        <time>2024-01-24T13:02:12Z</time>
      </trkpt>
      <trkpt lat="49.84602" lon="2.45537">
        <ele>110.6</ele>
        <time>2024-01-24T13:02:13Z</time>
      </trkpt>
      <trkpt lat="49.84604" lon="2.45536">
        <ele>110.7</ele>
        <time>2024-01-24T13:02:15Z</time>
      </trkpt>
      <trkpt lat="49.84605" lon="2.45535">
        <ele>110.7</ele>
        <time>2024-01-24T13:02:16Z</time>
      </trkpt>
      <trkpt lat="49.84606" lon="2.45535">
        <ele>110.7</ele>
        <time>2024-01-24T13:02:17Z</time>
      </trkpt>
      <trkpt lat="49.84607" lon="2.45535">
        <ele>110.8</ele>
        <time>2024-01-24T13:02:18Z</time>
      </trkpt>
      <trkpt lat="49.8461" lon="2.45534">
        <ele>110.9</ele>
        <time>2024-01-24T13:02:20Z</time>
      </trkpt>
      <trkpt lat="49.84612" lon="2.45534">
        <ele>110.9</ele>
        <time>2024-01-24T13:02:22Z</time>
      </trkpt>
      <trkpt lat="49.84613" lon="2.45533">
        <ele>110.9</ele>
        <time>2024-01-24T13:02:23Z</time>
      </trkpt>
      <trkpt lat="49.84614" lon="2.45533">
        <ele>111</ele>
        <time>2024-01-24T13:02:24Z</time>
      </trkpt>
      <trkpt lat="49.84616" lon="2.45532">
        <ele>111</ele>
        <time>2024-01-24T13:02:25Z</time>
      </trkpt>
      <trkpt lat="49.84617" lon="2.45532">
        <ele>111.1</ele>
        <time>2024-01-24T13:02:26Z</time>
      </trkpt>
      <trkpt lat="49.84619" lon="2.45531">
        <ele>111.1</ele>
        <time>2024-01-24T13:02:27Z</time>
      </trkpt>
      <trkpt lat="49.8462" lon="2.4553">
        <ele>111.2</ele>
        <time>2024-01-24T13:02:29Z</time>
      </trkpt>
      <trkpt lat="49.84621" lon="2.4553">
        <ele>111.3</ele>
        <time>2024-01-24T13:02:30Z</time>
      </trkpt>
      <trkpt lat="49.84623" lon="2.45529">
        <ele>111.3</ele>
        <time>2024-01-24T13:02:31Z</time>
      </trkpt>
      <trkpt lat="49.84625" lon="2.45528">
        <ele>111.4</ele>
        <time>2024-01-24T13:02:32Z</time>
      </trkpt>
      <trkpt lat="49.84626" lon="2.45528">
        <ele>111.4</ele>
        <time>2024-01-24T13:02:33Z</time>
      </trkpt>
      <trkpt lat="49.84626" lon="2.45528">
        <ele>111.5</ele>
        <time>2024-01-24T13:02:34Z</time>
      </trkpt>
      <trkpt lat="49.84628" lon="2.45528">
        <ele>111.5</ele>
        <time>2024-01-24T13:02:35Z</time>
      </trkpt>
      <trkpt lat="49.84629" lon="2.45527">
        <ele>111.6</ele>
        <time>2024-01-24T13:02:37Z</time>
      </trkpt>
      <trkpt lat="49.84631" lon="2.45527">
        <ele>111.6</ele>
        <time>2024-01-24T13:02:38Z</time>
      </trkpt>
      <trkpt lat="49.84632" lon="2.45527">
        <ele>111.7</ele>
        <time>2024-01-24T13:02:39Z</time>
      </trkpt>
      <trkpt lat="49.84634" lon="2.45526">
        <ele>111.8</ele>
        <time>2024-01-24T13:02:40Z</time>
      </trkpt>
      <trkpt lat="49.84635" lon="2.45525">
        <ele>111.8</ele>
        <time>2024-01-24T13:02:41Z</time>
      </trkpt>
      <trkpt lat="49.84636" lon="2.45525">
        <ele>111.8</ele>
        <time>2024-01-24T13:02:42Z</time>
      </trkpt>
      <trkpt lat="49.84636" lon="2.45522">
        <ele>111.8</ele>
        <time>2024-01-24T13:02:43Z</time>
      </trkpt>
      <trkpt lat="49.84637" lon="2.45521">
        <ele>111.8</ele>
        <time>2024-01-24T13:02:45Z</time>
      </trkpt>
      <trkpt lat="49.84637" lon="2.45519">
        <ele>111.8</ele>
        <time>2024-01-24T13:02:46Z</time>
      </trkpt>
      <trkpt lat="49.84637" lon="2.45516">
        <ele>111.9</ele>
        <time>2024-01-24T13:02:47Z</time>
      </trkpt>
      <trkpt lat="49.84637" lon="2.45515">
        <ele>111.9</ele>
        <time>2024-01-24T13:02:48Z</time>
      </trkpt>
      <trkpt lat="49.84637" lon="2.45514">
        <ele>111.9</ele>
        <time>2024-01-24T13:02:49Z</time>
      </trkpt>
      <trkpt lat="49.84637" lon="2.45512">
        <ele>111.9</ele>
        <time>2024-01-24T13:02:50Z</time>
      </trkpt>
      <trkpt lat="49.84637" lon="2.4551">
        <ele>111.9</ele>
        <time>2024-01-24T13:02:51Z</time>
      </trkpt>
      <trkpt lat="49.84636" lon="2.45508">
        <ele>111.9</ele>
        <time>2024-01-24T13:02:53Z</time>
      </trkpt>
      <trkpt lat="49.84637" lon="2.45506">
        <ele>111.9</ele>
        <time>2024-01-24T13:02:54Z</time>
      </trkpt>
      <trkpt lat="49.84637" lon="2.45505">
        <ele>111.9</ele>
        <time>2024-01-24T13:02:55Z</time>
      </trkpt>
      <trkpt lat="49.84638" lon="2.45504">
        <ele>111.9</ele>
        <time>2024-01-24T13:02:56Z</time>
      </trkpt>
      <trkpt lat="49.8464" lon="2.45501">
        <ele>112</ele>
        <time>2024-01-24T13:02:57Z</time>
      </trkpt>
      <trkpt lat="49.8464" lon="2.45501">
        <ele>112</ele>
        <time>2024-01-24T13:02:58Z</time>
      </trkpt>
      <trkpt lat="49.84641" lon="2.455">
        <ele>112</ele>
        <time>2024-01-24T13:02:59Z</time>
      </trkpt>
      <trkpt lat="49.84641" lon="2.45498">
        <ele>112</ele>
        <time>2024-01-24T13:03:00Z</time>
      </trkpt>
      <trkpt lat="49.84642" lon="2.45497">
        <ele>112</ele>
        <time>2024-01-24T13:03:01Z</time>
      </trkpt>
      <trkpt lat="49.84642" lon="2.45496">
        <ele>112</ele>
        <time>2024-01-24T13:03:02Z</time>
      </trkpt>
      <trkpt lat="49.84643" lon="2.45493">
        <ele>112</ele>
        <time>2024-01-24T13:03:04Z</time>
      </trkpt>
      <trkpt lat="49.84644" lon="2.45491">
        <ele>112</ele>
        <time>2024-01-24T13:03:05Z</time>
      </trkpt>
      <trkpt lat="49.84644" lon="2.4549">
        <ele>112</ele>
        <time>2024-01-24T13:03:06Z</time>
      </trkpt>
      <trkpt lat="49.84645" lon="2.45488">
        <ele>112.1</ele>
        <time>2024-01-24T13:03:07Z</time>
      </trkpt>
      <trkpt lat="49.84646" lon="2.45487">
        <ele>112.1</ele>
        <time>2024-01-24T13:03:08Z</time>
      </trkpt>
      <trkpt lat="49.84647" lon="2.45485">
        <ele>112.1</ele>
        <time>2024-01-24T13:03:09Z</time>
      </trkpt>
      <trkpt lat="49.84648" lon="2.45484">
        <ele>112.1</ele>
        <time>2024-01-24T13:03:10Z</time>
      </trkpt>
      <trkpt lat="49.84649" lon="2.45481">
        <ele>112.2</ele>
        <time>2024-01-24T13:03:11Z</time>
      </trkpt>
      <trkpt lat="49.84649" lon="2.4548">
        <ele>112.2</ele>
        <time>2024-01-24T13:03:12Z</time>
      </trkpt>
      <trkpt lat="49.8465" lon="2.45479">
        <ele>112.2</ele>
        <time>2024-01-24T13:03:13Z</time>
      </trkpt>
      <trkpt lat="49.8465" lon="2.45477">
        <ele>112.2</ele>
        <time>2024-01-24T13:03:15Z</time>
      </trkpt>
      <trkpt lat="49.84651" lon="2.45475">
        <ele>112.3</ele>
        <time>2024-01-24T13:03:16Z</time>
      </trkpt>
      <trkpt lat="49.84653" lon="2.45472">
        <ele>112.3</ele>
        <time>2024-01-24T13:03:17Z</time>
      </trkpt>
      <trkpt lat="49.84653" lon="2.45471">
        <ele>112.3</ele>
        <time>2024-01-24T13:03:18Z</time>
      </trkpt>
      <trkpt lat="49.84654" lon="2.4547">
        <ele>112.3</ele>
        <time>2024-01-24T13:03:19Z</time>
      </trkpt>
      <trkpt lat="49.84654" lon="2.45469">
        <ele>112.4</ele>
        <time>2024-01-24T13:03:20Z</time>
      </trkpt>
      <trkpt lat="49.84655" lon="2.45468">
        <ele>112.4</ele>
        <time>2024-01-24T13:03:21Z</time>
      </trkpt>
      <trkpt lat="49.84656" lon="2.45466">
        <ele>112.4</ele>
        <time>2024-01-24T13:03:22Z</time>
      </trkpt>
      <trkpt lat="49.84657" lon="2.45464">
        <ele>112.4</ele>
        <time>2024-01-24T13:03:24Z</time>
      </trkpt>
      <trkpt lat="49.84658" lon="2.45463">
        <ele>112.4</ele>
        <time>2024-01-24T13:03:25Z</time>
      </trkpt>
      <trkpt lat="49.84658" lon="2.45462">
        <ele>112.5</ele>
        <time>2024-01-24T13:03:26Z</time>
      </trkpt>
      <trkpt lat="49.8466" lon="2.45459">
        <ele>112.5</ele>
        <time>2024-01-24T13:03:27Z</time>
      </trkpt>
      <trkpt lat="49.8466" lon="2.45458">
        <ele>112.5</ele>
        <time>2024-01-24T13:03:28Z</time>
      </trkpt>
      <trkpt lat="49.84661" lon="2.45457">
        <ele>112.5</ele>
        <time>2024-01-24T13:03:29Z</time>
      </trkpt>
      <trkpt lat="49.84662" lon="2.45454">
        <ele>112.5</ele>
        <time>2024-01-24T13:03:30Z</time>
      </trkpt>
      <trkpt lat="49.84662" lon="2.45453">
        <ele>112.5</ele>
        <time>2024-01-24T13:03:31Z</time>
      </trkpt>
      <trkpt lat="49.84663" lon="2.45452">
        <ele>112.5</ele>
        <time>2024-01-24T13:03:32Z</time>
      </trkpt>
      <trkpt lat="49.84664" lon="2.45451">
        <ele>112.5</ele>
        <time>2024-01-24T13:03:33Z</time>
      </trkpt>
      <trkpt lat="49.84665" lon="2.4545">
        <ele>112.5</ele>
        <time>2024-01-24T13:03:34Z</time>
      </trkpt>
      <trkpt lat="49.84666" lon="2.45448">
        <ele>112.6</ele>
        <time>2024-01-24T13:03:36Z</time>
      </trkpt>
      <trkpt lat="49.84667" lon="2.45445">
        <ele>112.6</ele>
        <time>2024-01-24T13:03:37Z</time>
      </trkpt>
      <trkpt lat="49.84668" lon="2.45444">
        <ele>112.6</ele>
        <time>2024-01-24T13:03:38Z</time>
      </trkpt>
      <trkpt lat="49.84668" lon="2.45443">
        <ele>112.6</ele>
        <time>2024-01-24T13:03:39Z</time>
      </trkpt>
      <trkpt lat="49.84669" lon="2.45441">
        <ele>112.6</ele>
        <time>2024-01-24T13:03:40Z</time>
      </trkpt>
      <trkpt lat="49.8467" lon="2.45439">
        <ele>112.6</ele>
        <time>2024-01-24T13:03:41Z</time>
      </trkpt>
      <trkpt lat="49.8467" lon="2.45437">
        <ele>112.6</ele>
        <time>2024-01-24T13:03:42Z</time>
      </trkpt>
      <trkpt lat="49.84671" lon="2.45435">
        <ele>112.7</ele>
        <time>2024-01-24T13:03:44Z</time>
      </trkpt>
      <trkpt lat="49.84672" lon="2.45433">
        <ele>112.7</ele>
        <time>2024-01-24T13:03:45Z</time>
      </trkpt>
      <trkpt lat="49.84672" lon="2.45431">
        <ele>112.7</ele>
        <time>2024-01-24T13:03:46Z</time>
      </trkpt>
      <trkpt lat="49.84674" lon="2.45429">
        <ele>112.7</ele>
        <time>2024-01-24T13:03:47Z</time>
      </trkpt>
      <trkpt lat="49.84674" lon="2.45427">
        <ele>112.7</ele>
        <time>2024-01-24T13:03:48Z</time>
      </trkpt>
      <trkpt lat="49.84675" lon="2.45426">
        <ele>112.8</ele>
        <time>2024-01-24T13:03:49Z</time>
      </trkpt>
      <trkpt lat="49.84675" lon="2.45424">
        <ele>112.8</ele>
        <time>2024-01-24T13:03:50Z</time>
      </trkpt>
      <trkpt lat="49.84676" lon="2.45423">
        <ele>112.8</ele>
        <time>2024-01-24T13:03:51Z</time>
      </trkpt>
      <trkpt lat="49.84677" lon="2.45421">
        <ele>112.8</ele>
        <time>2024-01-24T13:03:52Z</time>
      </trkpt>
      <trkpt lat="49.84678" lon="2.45418">
        <ele>112.9</ele>
        <time>2024-01-24T13:03:54Z</time>
      </trkpt>
      <trkpt lat="49.84679" lon="2.45415">
        <ele>112.9</ele>
        <time>2024-01-24T13:03:55Z</time>
      </trkpt>
      <trkpt lat="49.84679" lon="2.45414">
        <ele>112.9</ele>
        <time>2024-01-24T13:03:57Z</time>
      </trkpt>
      <trkpt lat="49.8468" lon="2.45412">
        <ele>112.9</ele>
        <time>2024-01-24T13:03:58Z</time>
      </trkpt>
      <trkpt lat="49.8468" lon="2.4541">
        <ele>112.9</ele>
        <time>2024-01-24T13:03:59Z</time>
      </trkpt>
      <trkpt lat="49.84681" lon="2.45408">
        <ele>113</ele>
        <time>2024-01-24T13:04:00Z</time>
      </trkpt>
      <trkpt lat="49.84681" lon="2.45406">
        <ele>113</ele>
        <time>2024-01-24T13:04:01Z</time>
      </trkpt>
      <trkpt lat="49.84682" lon="2.45405">
        <ele>113</ele>
        <time>2024-01-24T13:04:02Z</time>
      </trkpt>
      <trkpt lat="49.84683" lon="2.45403">
        <ele>113</ele>
        <time>2024-01-24T13:04:03Z</time>
      </trkpt>
      <trkpt lat="49.84683" lon="2.45401">
        <ele>113.1</ele>
        <time>2024-01-24T13:04:04Z</time>
      </trkpt>
      <trkpt lat="49.84684" lon="2.45399">
        <ele>113.1</ele>
        <time>2024-01-24T13:04:06Z</time>
      </trkpt>
      <trkpt lat="49.84684" lon="2.45398">
        <ele>113.1</ele>
        <time>2024-01-24T13:04:07Z</time>
      </trkpt>
      <trkpt lat="49.84684" lon="2.45396">
        <ele>113.1</ele>
        <time>2024-01-24T13:04:08Z</time>
      </trkpt>
      <trkpt lat="49.84685" lon="2.45395">
        <ele>113.2</ele>
        <time>2024-01-24T13:04:09Z</time>
      </trkpt>
      <trkpt lat="49.84685" lon="2.45392">
        <ele>113.2</ele>
        <time>2024-01-24T13:04:10Z</time>
      </trkpt>
      <trkpt lat="49.84686" lon="2.45391">
        <ele>113.2</ele>
        <time>2024-01-24T13:04:11Z</time>
      </trkpt>
      <trkpt lat="49.84686" lon="2.4539">
        <ele>113.2</ele>
        <time>2024-01-24T13:04:12Z</time>
      </trkpt>
      <trkpt lat="49.84687" lon="2.45388">
        <ele>113.3</ele>
        <time>2024-01-24T13:04:13Z</time>
      </trkpt>
      <trkpt lat="49.84688" lon="2.45386">
        <ele>113.3</ele>
        <time>2024-01-24T13:04:14Z</time>
      </trkpt>
      <trkpt lat="49.84689" lon="2.45384">
        <ele>113.3</ele>
        <time>2024-01-24T13:04:16Z</time>
      </trkpt>
      <trkpt lat="49.84689" lon="2.45383">
        <ele>113.4</ele>
        <time>2024-01-24T13:04:17Z</time>
      </trkpt>
      <trkpt lat="49.8469" lon="2.45382">
        <ele>113.4</ele>
        <time>2024-01-24T13:04:18Z</time>
      </trkpt>
      <trkpt lat="49.84691" lon="2.45381">
        <ele>113.4</ele>
        <time>2024-01-24T13:04:19Z</time>
      </trkpt>
      <trkpt lat="49.84692" lon="2.45378">
        <ele>113.4</ele>
        <time>2024-01-24T13:04:20Z</time>
      </trkpt>
      <trkpt lat="49.84692" lon="2.45377">
        <ele>113.5</ele>
        <time>2024-01-24T13:04:21Z</time>
      </trkpt>
      <trkpt lat="49.84693" lon="2.45376">
        <ele>113.5</ele>
        <time>2024-01-24T13:04:22Z</time>
      </trkpt>
      <trkpt lat="49.84694" lon="2.45374">
        <ele>113.5</ele>
        <time>2024-01-24T13:04:23Z</time>
      </trkpt>
      <trkpt lat="49.84694" lon="2.45373">
        <ele>113.5</ele>
        <time>2024-01-24T13:04:24Z</time>
      </trkpt>
      <trkpt lat="49.84696" lon="2.4537">
        <ele>113.5</ele>
        <time>2024-01-24T13:04:26Z</time>
      </trkpt>
      <trkpt lat="49.84696" lon="2.45369">
        <ele>113.6</ele>
        <time>2024-01-24T13:04:27Z</time>
      </trkpt>
      <trkpt lat="49.84697" lon="2.45368">
        <ele>113.6</ele>
        <time>2024-01-24T13:04:28Z</time>
      </trkpt>
      <trkpt lat="49.84698" lon="2.45367">
        <ele>113.6</ele>
        <time>2024-01-24T13:04:29Z</time>
      </trkpt>
      <trkpt lat="49.84699" lon="2.45365">
        <ele>113.6</ele>
        <time>2024-01-24T13:04:31Z</time>
      </trkpt>
      <trkpt lat="49.84701" lon="2.45365">
        <ele>113.6</ele>
        <time>2024-01-24T13:04:32Z</time>
      </trkpt>
      <trkpt lat="49.84702" lon="2.45364">
        <ele>113.6</ele>
        <time>2024-01-24T13:04:33Z</time>
      </trkpt>
      <trkpt lat="49.84703" lon="2.45364">
        <ele>113.6</ele>
        <time>2024-01-24T13:04:34Z</time>
      </trkpt>
      <trkpt lat="49.84705" lon="2.45363">
        <ele>113.6</ele>
        <time>2024-01-24T13:04:35Z</time>
      </trkpt>
      <trkpt lat="49.84706" lon="2.45363">
        <ele>113.6</ele>
        <time>2024-01-24T13:04:36Z</time>
      </trkpt>
      <trkpt lat="49.84707" lon="2.45362">
        <ele>113.6</ele>
        <time>2024-01-24T13:04:37Z</time>
      </trkpt>
      <trkpt lat="49.84709" lon="2.45362">
        <ele>113.6</ele>
        <time>2024-01-24T13:04:38Z</time>
      </trkpt>
      <trkpt lat="49.8471" lon="2.45362">
        <ele>113.6</ele>
        <time>2024-01-24T13:04:39Z</time>
      </trkpt>
      <trkpt lat="49.84712" lon="2.45362">
        <ele>113.6</ele>
        <time>2024-01-24T13:04:41Z</time>
      </trkpt>
      <trkpt lat="49.84713" lon="2.45362">
        <ele>113.6</ele>
        <time>2024-01-24T13:04:42Z</time>
      </trkpt>
      <trkpt lat="49.84715" lon="2.45361">
        <ele>113.6</ele>
        <time>2024-01-24T13:04:43Z</time>
      </trkpt>
      <trkpt lat="49.84717" lon="2.45361">
        <ele>113.6</ele>
        <time>2024-01-24T13:04:44Z</time>
      </trkpt>
      <trkpt lat="49.84718" lon="2.45361">
        <ele>113.6</ele>
        <time>2024-01-24T13:04:45Z</time>
      </trkpt>
      <trkpt lat="49.84719" lon="2.45361">
        <ele>113.6</ele>
        <time>2024-01-24T13:04:46Z</time>
      </trkpt>
      <trkpt lat="49.84721" lon="2.45361">
        <ele>113.6</ele>
        <time>2024-01-24T13:04:47Z</time>
      </trkpt>
      <trkpt lat="49.84721" lon="2.45361">
        <ele>113.7</ele>
        <time>2024-01-24T13:04:48Z</time>
      </trkpt>
      <trkpt lat="49.84722" lon="2.45361">
        <ele>113.7</ele>
        <time>2024-01-24T13:04:49Z</time>
      </trkpt>
      <trkpt lat="49.84724" lon="2.45361">
        <ele>113.7</ele>
        <time>2024-01-24T13:04:51Z</time>
      </trkpt>
      <trkpt lat="49.84725" lon="2.4536">
        <ele>113.7</ele>
        <time>2024-01-24T13:04:52Z</time>
      </trkpt>
      <trkpt lat="49.84726" lon="2.4536">
        <ele>113.7</ele>
        <time>2024-01-24T13:04:53Z</time>
      </trkpt>
      <trkpt lat="49.84728" lon="2.4536">
        <ele>113.7</ele>
        <time>2024-01-24T13:04:54Z</time>
      </trkpt>
      <trkpt lat="49.84729" lon="2.45359">
        <ele>113.7</ele>
        <time>2024-01-24T13:04:55Z</time>
      </trkpt>
      <trkpt lat="49.84731" lon="2.45359">
        <ele>113.7</ele>
        <time>2024-01-24T13:04:56Z</time>
      </trkpt>
      <trkpt lat="49.84732" lon="2.45358">
        <ele>113.7</ele>
        <time>2024-01-24T13:04:57Z</time>
      </trkpt>
      <trkpt lat="49.84733" lon="2.45358">
        <ele>113.7</ele>
        <time>2024-01-24T13:04:58Z</time>
      </trkpt>
      <trkpt lat="49.84734" lon="2.45358">
        <ele>113.7</ele>
        <time>2024-01-24T13:04:59Z</time>
      </trkpt>
      <trkpt lat="49.84735" lon="2.45357">
        <ele>113.7</ele>
        <time>2024-01-24T13:05:01Z</time>
      </trkpt>
      <trkpt lat="49.84737" lon="2.45357">
        <ele>113.7</ele>
        <time>2024-01-24T13:05:02Z</time>
      </trkpt>
      <trkpt lat="49.84738" lon="2.45356">
        <ele>113.7</ele>
        <time>2024-01-24T13:05:03Z</time>
      </trkpt>
      <trkpt lat="49.84739" lon="2.45356">
        <ele>113.7</ele>
        <time>2024-01-24T13:05:04Z</time>
      </trkpt>
      <trkpt lat="49.84741" lon="2.45356">
        <ele>113.7</ele>
        <time>2024-01-24T13:05:06Z</time>
      </trkpt>
      <trkpt lat="49.84743" lon="2.45355">
        <ele>113.7</ele>
        <time>2024-01-24T13:05:07Z</time>
      </trkpt>
      <trkpt lat="49.84744" lon="2.45355">
        <ele>113.7</ele>
        <time>2024-01-24T13:05:08Z</time>
      </trkpt>
      <trkpt lat="49.84745" lon="2.45355">
        <ele>113.7</ele>
        <time>2024-01-24T13:05:09Z</time>
      </trkpt>
      <trkpt lat="49.84747" lon="2.45354">
        <ele>113.7</ele>
        <time>2024-01-24T13:05:10Z</time>
      </trkpt>
      <trkpt lat="49.84748" lon="2.45353">
        <ele>113.7</ele>
        <time>2024-01-24T13:05:11Z</time>
      </trkpt>
      <trkpt lat="49.84749" lon="2.45353">
        <ele>113.7</ele>
        <time>2024-01-24T13:05:12Z</time>
      </trkpt>
      <trkpt lat="49.8475" lon="2.45352">
        <ele>113.7</ele>
        <time>2024-01-24T13:05:13Z</time>
      </trkpt>
      <trkpt lat="49.84752" lon="2.45352">
        <ele>113.7</ele>
        <time>2024-01-24T13:05:14Z</time>
      </trkpt>
      <trkpt lat="49.84754" lon="2.45351">
        <ele>113.7</ele>
        <time>2024-01-24T13:05:16Z</time>
      </trkpt>
      <trkpt lat="49.84755" lon="2.4535">
        <ele>113.7</ele>
        <time>2024-01-24T13:05:17Z</time>
      </trkpt>
      <trkpt lat="49.84756" lon="2.4535">
        <ele>113.7</ele>
        <time>2024-01-24T13:05:18Z</time>
      </trkpt>
      <trkpt lat="49.84758" lon="2.45349">
        <ele>113.7</ele>
        <time>2024-01-24T13:05:19Z</time>
      </trkpt>
      <trkpt lat="49.84759" lon="2.45349">
        <ele>113.7</ele>
        <time>2024-01-24T13:05:21Z</time>
      </trkpt>
      <trkpt lat="49.8476" lon="2.45348">
        <ele>113.7</ele>
        <time>2024-01-24T13:05:22Z</time>
      </trkpt>
      <trkpt lat="49.84762" lon="2.45348">
        <ele>113.7</ele>
        <time>2024-01-24T13:05:23Z</time>
      </trkpt>
      <trkpt lat="49.84763" lon="2.45347">
        <ele>113.7</ele>
        <time>2024-01-24T13:05:24Z</time>
      </trkpt>
      <trkpt lat="49.84765" lon="2.45347">
        <ele>113.7</ele>
        <time>2024-01-24T13:05:25Z</time>
      </trkpt>
      <trkpt lat="49.84767" lon="2.45347">
        <ele>113.7</ele>
        <time>2024-01-24T13:05:26Z</time>
      </trkpt>
      <trkpt lat="49.84768" lon="2.45347">
        <ele>113.7</ele>
        <time>2024-01-24T13:05:27Z</time>
      </trkpt>
      <trkpt lat="49.84769" lon="2.45347">
        <ele>113.7</ele>
        <time>2024-01-24T13:05:28Z</time>
      </trkpt>
      <trkpt lat="49.8477" lon="2.45346">
        <ele>113.7</ele>
        <time>2024-01-24T13:05:29Z</time>
      </trkpt>
      <trkpt lat="49.84771" lon="2.45346">
        <ele>113.7</ele>
        <time>2024-01-24T13:05:30Z</time>
      </trkpt>
      <trkpt lat="49.84772" lon="2.45345">
        <ele>113.7</ele>
        <time>2024-01-24T13:05:32Z</time>
      </trkpt>
      <trkpt lat="49.84774" lon="2.45345">
        <ele>113.7</ele>
        <time>2024-01-24T13:05:33Z</time>
      </trkpt>
      <trkpt lat="49.84775" lon="2.45345">
        <ele>113.7</ele>
        <time>2024-01-24T13:05:34Z</time>
      </trkpt>
      <trkpt lat="49.84776" lon="2.45344">
        <ele>113.7</ele>
        <time>2024-01-24T13:05:35Z</time>
      </trkpt>
      <trkpt lat="49.84777" lon="2.45344">
        <ele>113.7</ele>
        <time>2024-01-24T13:05:36Z</time>
      </trkpt>
      <trkpt lat="49.84778" lon="2.45344">
        <ele>113.7</ele>
        <time>2024-01-24T13:05:37Z</time>
      </trkpt>
      <trkpt lat="49.84779" lon="2.45344">
        <ele>113.7</ele>
        <time>2024-01-24T13:05:38Z</time>
      </trkpt>
      <trkpt lat="49.8478" lon="2.45343">
        <ele>113.7</ele>
        <time>2024-01-24T13:05:39Z</time>
      </trkpt>
      <trkpt lat="49.84781" lon="2.45344">
        <ele>113.7</ele>
        <time>2024-01-24T13:05:40Z</time>
      </trkpt>
      <trkpt lat="49.84783" lon="2.45344">
        <ele>113.7</ele>
        <time>2024-01-24T13:05:42Z</time>
      </trkpt>
      <trkpt lat="49.84785" lon="2.45344">
        <ele>113.7</ele>
        <time>2024-01-24T13:05:43Z</time>
      </trkpt>
      <trkpt lat="49.84786" lon="2.45344">
        <ele>113.7</ele>
        <time>2024-01-24T13:05:44Z</time>
      </trkpt>
      <trkpt lat="49.84787" lon="2.45344">
        <ele>113.7</ele>
        <time>2024-01-24T13:05:45Z</time>
      </trkpt>
      <trkpt lat="49.84788" lon="2.45345">
        <ele>113.7</ele>
        <time>2024-01-24T13:05:46Z</time>
      </trkpt>
      <trkpt lat="49.8479" lon="2.45345">
        <ele>113.7</ele>
        <time>2024-01-24T13:05:48Z</time>
      </trkpt>
      <trkpt lat="49.84791" lon="2.45345">
        <ele>113.7</ele>
        <time>2024-01-24T13:05:49Z</time>
      </trkpt>
      <trkpt lat="49.84792" lon="2.45345">
        <ele>113.7</ele>
        <time>2024-01-24T13:05:50Z</time>
      </trkpt>
      <trkpt lat="49.84794" lon="2.45345">
        <ele>113.7</ele>
        <time>2024-01-24T13:05:52Z</time>
      </trkpt>
      <trkpt lat="49.84796" lon="2.45344">
        <ele>113.7</ele>
        <time>2024-01-24T13:05:53Z</time>
      </trkpt>
      <trkpt lat="49.84797" lon="2.45344">
        <ele>113.7</ele>
        <time>2024-01-24T13:05:54Z</time>
      </trkpt>
      <trkpt lat="49.84798" lon="2.45344">
        <ele>113.7</ele>
        <time>2024-01-24T13:05:55Z</time>
      </trkpt>
      <trkpt lat="49.84799" lon="2.45343">
        <ele>113.7</ele>
        <time>2024-01-24T13:05:56Z</time>
      </trkpt>
      <trkpt lat="49.848" lon="2.45343">
        <ele>113.7</ele>
        <time>2024-01-24T13:05:57Z</time>
      </trkpt>
      <trkpt lat="49.84801" lon="2.45343">
        <ele>113.7</ele>
        <time>2024-01-24T13:05:58Z</time>
      </trkpt>
      <trkpt lat="49.84802" lon="2.45343">
        <ele>113.7</ele>
        <time>2024-01-24T13:05:59Z</time>
      </trkpt>
      <trkpt lat="49.84804" lon="2.45342">
        <ele>113.7</ele>
        <time>2024-01-24T13:06:01Z</time>
      </trkpt>
      <trkpt lat="49.84805" lon="2.45341">
        <ele>113.7</ele>
        <time>2024-01-24T13:06:02Z</time>
      </trkpt>
      <trkpt lat="49.84806" lon="2.45341">
        <ele>113.7</ele>
        <time>2024-01-24T13:06:03Z</time>
      </trkpt>
      <trkpt lat="49.84807" lon="2.4534">
        <ele>113.7</ele>
        <time>2024-01-24T13:06:04Z</time>
      </trkpt>
      <trkpt lat="49.84808" lon="2.4534">
        <ele>113.7</ele>
        <time>2024-01-24T13:06:05Z</time>
      </trkpt>
      <trkpt lat="49.84809" lon="2.4534">
        <ele>113.7</ele>
        <time>2024-01-24T13:06:06Z</time>
      </trkpt>
      <trkpt lat="49.8481" lon="2.45339">
        <ele>113.7</ele>
        <time>2024-01-24T13:06:08Z</time>
      </trkpt>
      <trkpt lat="49.84811" lon="2.45339">
        <ele>113.7</ele>
        <time>2024-01-24T13:06:09Z</time>
      </trkpt>
      <trkpt lat="49.84813" lon="2.45338">
        <ele>113.7</ele>
        <time>2024-01-24T13:06:10Z</time>
      </trkpt>
      <trkpt lat="49.84814" lon="2.45338">
        <ele>113.7</ele>
        <time>2024-01-24T13:06:11Z</time>
      </trkpt>
      <trkpt lat="49.84815" lon="2.45337">
        <ele>113.7</ele>
        <time>2024-01-24T13:06:12Z</time>
      </trkpt>
      <trkpt lat="49.84816" lon="2.45337">
        <ele>113.7</ele>
        <time>2024-01-24T13:06:13Z</time>
      </trkpt>
      <trkpt lat="49.84817" lon="2.45336">
        <ele>113.7</ele>
        <time>2024-01-24T13:06:14Z</time>
      </trkpt>
      <trkpt lat="49.84819" lon="2.45335">
        <ele>113.7</ele>
        <time>2024-01-24T13:06:15Z</time>
      </trkpt>
      <trkpt lat="49.8482" lon="2.45334">
        <ele>113.7</ele>
        <time>2024-01-24T13:06:16Z</time>
      </trkpt>
      <trkpt lat="49.84821" lon="2.45334">
        <ele>113.7</ele>
        <time>2024-01-24T13:06:17Z</time>
      </trkpt>
      <trkpt lat="49.84823" lon="2.45333">
        <ele>113.7</ele>
        <time>2024-01-24T13:06:19Z</time>
      </trkpt>
      <trkpt lat="49.84824" lon="2.45332">
        <ele>113.7</ele>
        <time>2024-01-24T13:06:20Z</time>
      </trkpt>
      <trkpt lat="49.84825" lon="2.45332">
        <ele>113.7</ele>
        <time>2024-01-24T13:06:21Z</time>
      </trkpt>
      <trkpt lat="49.84827" lon="2.45331">
        <ele>113.7</ele>
        <time>2024-01-24T13:06:22Z</time>
      </trkpt>
      <trkpt lat="49.84828" lon="2.45331">
        <ele>113.7</ele>
        <time>2024-01-24T13:06:23Z</time>
      </trkpt>
      <trkpt lat="49.84828" lon="2.45331">
        <ele>113.7</ele>
        <time>2024-01-24T13:06:24Z</time>
      </trkpt>
      <trkpt lat="49.8483" lon="2.4533">
        <ele>113.7</ele>
        <time>2024-01-24T13:06:25Z</time>
      </trkpt>
      <trkpt lat="49.84831" lon="2.4533">
        <ele>113.7</ele>
        <time>2024-01-24T13:06:26Z</time>
      </trkpt>
      <trkpt lat="49.84832" lon="2.4533">
        <ele>113.7</ele>
        <time>2024-01-24T13:06:27Z</time>
      </trkpt>
      <trkpt lat="49.84833" lon="2.45329">
        <ele>113.7</ele>
        <time>2024-01-24T13:06:28Z</time>
      </trkpt>
      <trkpt lat="49.84834" lon="2.45329">
        <ele>113.7</ele>
        <time>2024-01-24T13:06:29Z</time>
      </trkpt>
      <trkpt lat="49.84836" lon="2.45329">
        <ele>113.7</ele>
        <time>2024-01-24T13:06:31Z</time>
      </trkpt>
      <trkpt lat="49.84838" lon="2.45328">
        <ele>113.8</ele>
        <time>2024-01-24T13:06:32Z</time>
      </trkpt>
      <trkpt lat="49.84839" lon="2.45328">
        <ele>113.8</ele>
        <time>2024-01-24T13:06:33Z</time>
      </trkpt>
      <trkpt lat="49.8484" lon="2.45328">
        <ele>113.8</ele>
        <time>2024-01-24T13:06:34Z</time>
      </trkpt>
      <trkpt lat="49.84841" lon="2.45327">
        <ele>113.8</ele>
        <time>2024-01-24T13:06:35Z</time>
      </trkpt>
      <trkpt lat="49.84842" lon="2.45327">
        <ele>113.8</ele>
        <time>2024-01-24T13:06:36Z</time>
      </trkpt>
      <trkpt lat="49.84843" lon="2.45327">
        <ele>113.8</ele>
        <time>2024-01-24T13:06:38Z</time>
      </trkpt>
      <trkpt lat="49.84845" lon="2.45326">
        <ele>113.8</ele>
        <time>2024-01-24T13:06:39Z</time>
      </trkpt>
      <trkpt lat="49.84846" lon="2.45325">
        <ele>113.8</ele>
        <time>2024-01-24T13:06:40Z</time>
      </trkpt>
      <trkpt lat="49.84847" lon="2.45325">
        <ele>113.8</ele>
        <time>2024-01-24T13:06:41Z</time>
      </trkpt>
      <trkpt lat="49.84848" lon="2.45324">
        <ele>113.8</ele>
        <time>2024-01-24T13:06:42Z</time>
      </trkpt>
      <trkpt lat="49.84849" lon="2.45324">
        <ele>113.8</ele>
        <time>2024-01-24T13:06:43Z</time>
      </trkpt>
      <trkpt lat="49.84851" lon="2.45323">
        <ele>113.8</ele>
        <time>2024-01-24T13:06:44Z</time>
      </trkpt>
      <trkpt lat="49.84852" lon="2.45323">
        <ele>113.8</ele>
        <time>2024-01-24T13:06:45Z</time>
      </trkpt>
      <trkpt lat="49.84854" lon="2.45322">
        <ele>113.8</ele>
        <time>2024-01-24T13:06:47Z</time>
      </trkpt>
      <trkpt lat="49.84856" lon="2.45321">
        <ele>113.8</ele>
        <time>2024-01-24T13:06:48Z</time>
      </trkpt>
      <trkpt lat="49.84857" lon="2.4532">
        <ele>113.8</ele>
        <time>2024-01-24T13:06:49Z</time>
      </trkpt>
      <trkpt lat="49.84857" lon="2.4532">
        <ele>113.8</ele>
        <time>2024-01-24T13:06:50Z</time>
      </trkpt>
      <trkpt lat="49.84859" lon="2.45319">
        <ele>113.8</ele>
        <time>2024-01-24T13:06:52Z</time>
      </trkpt>
      <trkpt lat="49.8486" lon="2.45318">
        <ele>113.8</ele>
        <time>2024-01-24T13:06:53Z</time>
      </trkpt>
      <trkpt lat="49.84861" lon="2.45318">
        <ele>113.8</ele>
        <time>2024-01-24T13:06:54Z</time>
      </trkpt>
      <trkpt lat="49.84863" lon="2.45317">
        <ele>113.8</ele>
        <time>2024-01-24T13:06:55Z</time>
      </trkpt>
      <trkpt lat="49.84864" lon="2.45316">
        <ele>113.8</ele>
        <time>2024-01-24T13:06:56Z</time>
      </trkpt>
      <trkpt lat="49.84865" lon="2.45316">
        <ele>113.8</ele>
        <time>2024-01-24T13:06:57Z</time>
      </trkpt>
      <trkpt lat="49.84866" lon="2.45315">
        <ele>113.8</ele>
        <time>2024-01-24T13:06:58Z</time>
      </trkpt>
      <trkpt lat="49.84867" lon="2.45314">
        <ele>113.8</ele>
        <time>2024-01-24T13:06:59Z</time>
      </trkpt>
      <trkpt lat="49.84868" lon="2.45313">
        <ele>113.8</ele>
        <time>2024-01-24T13:07:00Z</time>
      </trkpt>
      <trkpt lat="49.84869" lon="2.45313">
        <ele>113.8</ele>
        <time>2024-01-24T13:07:01Z</time>
      </trkpt>
      <trkpt lat="49.8487" lon="2.45312">
        <ele>113.8</ele>
        <time>2024-01-24T13:07:02Z</time>
      </trkpt>
      <trkpt lat="49.84872" lon="2.45312">
        <ele>113.8</ele>
        <time>2024-01-24T13:07:04Z</time>
      </trkpt>
      <trkpt lat="49.84874" lon="2.45311">
        <ele>113.8</ele>
        <time>2024-01-24T13:07:05Z</time>
      </trkpt>
      <trkpt lat="49.84875" lon="2.4531">
        <ele>113.8</ele>
        <time>2024-01-24T13:07:06Z</time>
      </trkpt>
      <trkpt lat="49.84876" lon="2.4531">
        <ele>113.8</ele>
        <time>2024-01-24T13:07:07Z</time>
      </trkpt>
      <trkpt lat="49.84877" lon="2.45309">
        <ele>113.8</ele>
        <time>2024-01-24T13:07:08Z</time>
      </trkpt>
      <trkpt lat="49.84878" lon="2.45309">
        <ele>113.8</ele>
        <time>2024-01-24T13:07:09Z</time>
      </trkpt>
      <trkpt lat="49.8488" lon="2.45308">
        <ele>113.8</ele>
        <time>2024-01-24T13:07:11Z</time>
      </trkpt>
      <trkpt lat="49.84881" lon="2.45308">
        <ele>113.8</ele>
        <time>2024-01-24T13:07:12Z</time>
      </trkpt>
      <trkpt lat="49.84882" lon="2.45307">
        <ele>113.8</ele>
        <time>2024-01-24T13:07:13Z</time>
      </trkpt>
      <trkpt lat="49.84884" lon="2.45306">
        <ele>113.7</ele>
        <time>2024-01-24T13:07:14Z</time>
      </trkpt>
      <trkpt lat="49.84885" lon="2.45305">
        <ele>113.7</ele>
        <time>2024-01-24T13:07:15Z</time>
      </trkpt>
      <trkpt lat="49.84886" lon="2.45304">
        <ele>113.7</ele>
        <time>2024-01-24T13:07:16Z</time>
      </trkpt>
      <trkpt lat="49.84888" lon="2.45303">
        <ele>113.7</ele>
        <time>2024-01-24T13:07:18Z</time>
      </trkpt>
      <trkpt lat="49.84889" lon="2.45303">
        <ele>113.7</ele>
        <time>2024-01-24T13:07:19Z</time>
      </trkpt>
      <trkpt lat="49.84891" lon="2.45302">
        <ele>113.7</ele>
        <time>2024-01-24T13:07:20Z</time>
      </trkpt>
      <trkpt lat="49.84892" lon="2.45301">
        <ele>113.7</ele>
        <time>2024-01-24T13:07:21Z</time>
      </trkpt>
      <trkpt lat="49.84893" lon="2.453">
        <ele>113.7</ele>
        <time>2024-01-24T13:07:22Z</time>
      </trkpt>
      <trkpt lat="49.84895" lon="2.45299">
        <ele>113.7</ele>
        <time>2024-01-24T13:07:23Z</time>
      </trkpt>
      <trkpt lat="49.84896" lon="2.45298">
        <ele>113.7</ele>
        <time>2024-01-24T13:07:24Z</time>
      </trkpt>
      <trkpt lat="49.84897" lon="2.45298">
        <ele>113.7</ele>
        <time>2024-01-24T13:07:25Z</time>
      </trkpt>
      <trkpt lat="49.84898" lon="2.45297">
        <ele>113.7</ele>
        <time>2024-01-24T13:07:26Z</time>
      </trkpt>
      <trkpt lat="49.849" lon="2.45296">
        <ele>113.7</ele>
        <time>2024-01-24T13:07:28Z</time>
      </trkpt>
      <trkpt lat="49.84901" lon="2.45296">
        <ele>113.6</ele>
        <time>2024-01-24T13:07:29Z</time>
      </trkpt>
      <trkpt lat="49.84902" lon="2.45296">
        <ele>113.6</ele>
        <time>2024-01-24T13:07:30Z</time>
      </trkpt>
      <trkpt lat="49.84904" lon="2.45294">
        <ele>113.6</ele>
        <time>2024-01-24T13:07:31Z</time>
      </trkpt>
      <trkpt lat="49.84905" lon="2.45294">
        <ele>113.6</ele>
        <time>2024-01-24T13:07:32Z</time>
      </trkpt>
      <trkpt lat="49.84905" lon="2.45293">
        <ele>113.6</ele>
        <time>2024-01-24T13:07:33Z</time>
      </trkpt>
      <trkpt lat="49.84907" lon="2.45292">
        <ele>113.6</ele>
        <time>2024-01-24T13:07:34Z</time>
      </trkpt>
      <trkpt lat="49.84908" lon="2.45292">
        <ele>113.6</ele>
        <time>2024-01-24T13:07:35Z</time>
      </trkpt>
      <trkpt lat="49.84909" lon="2.45292">
        <ele>113.6</ele>
        <time>2024-01-24T13:07:36Z</time>
      </trkpt>
      <trkpt lat="49.84911" lon="2.45291">
        <ele>113.6</ele>
        <time>2024-01-24T13:07:38Z</time>
      </trkpt>
      <trkpt lat="49.84912" lon="2.4529">
        <ele>113.6</ele>
        <time>2024-01-24T13:07:39Z</time>
      </trkpt>
      <trkpt lat="49.84913" lon="2.4529">
        <ele>113.6</ele>
        <time>2024-01-24T13:07:40Z</time>
      </trkpt>
      <trkpt lat="49.84915" lon="2.45289">
        <ele>113.6</ele>
        <time>2024-01-24T13:07:41Z</time>
      </trkpt>
      <trkpt lat="49.84915" lon="2.45288">
        <ele>113.6</ele>
        <time>2024-01-24T13:07:42Z</time>
      </trkpt>
      <trkpt lat="49.84916" lon="2.45288">
        <ele>113.6</ele>
        <time>2024-01-24T13:07:43Z</time>
      </trkpt>
      <trkpt lat="49.84917" lon="2.45287">
        <ele>113.6</ele>
        <time>2024-01-24T13:07:45Z</time>
      </trkpt>
      <trkpt lat="49.84919" lon="2.45286">
        <ele>113.6</ele>
        <time>2024-01-24T13:07:46Z</time>
      </trkpt>
      <trkpt lat="49.84921" lon="2.45285">
        <ele>113.5</ele>
        <time>2024-01-24T13:07:47Z</time>
      </trkpt>
      <trkpt lat="49.84922" lon="2.45284">
        <ele>113.5</ele>
        <time>2024-01-24T13:07:48Z</time>
      </trkpt>
      <trkpt lat="49.84923" lon="2.45284">
        <ele>113.5</ele>
        <time>2024-01-24T13:07:49Z</time>
      </trkpt>
      <trkpt lat="49.84924" lon="2.45283">
        <ele>113.5</ele>
        <time>2024-01-24T13:07:50Z</time>
      </trkpt>
      <trkpt lat="49.84925" lon="2.45282">
        <ele>113.5</ele>
        <time>2024-01-24T13:07:51Z</time>
      </trkpt>
      <trkpt lat="49.84926" lon="2.4528">
        <ele>113.5</ele>
        <time>2024-01-24T13:07:53Z</time>
      </trkpt>
      <trkpt lat="49.84928" lon="2.4528">
        <ele>113.5</ele>
        <time>2024-01-24T13:07:54Z</time>
      </trkpt>
      <trkpt lat="49.84929" lon="2.45278">
        <ele>113.5</ele>
        <time>2024-01-24T13:07:55Z</time>
      </trkpt>
      <trkpt lat="49.8493" lon="2.45277">
        <ele>113.5</ele>
        <time>2024-01-24T13:07:56Z</time>
      </trkpt>
      <trkpt lat="49.84931" lon="2.45276">
        <ele>113.5</ele>
        <time>2024-01-24T13:07:57Z</time>
      </trkpt>
      <trkpt lat="49.84933" lon="2.45275">
        <ele>113.5</ele>
        <time>2024-01-24T13:07:58Z</time>
      </trkpt>
      <trkpt lat="49.84934" lon="2.45274">
        <ele>113.5</ele>
        <time>2024-01-24T13:08:00Z</time>
      </trkpt>
      <trkpt lat="49.84935" lon="2.45273">
        <ele>113.5</ele>
        <time>2024-01-24T13:08:01Z</time>
      </trkpt>
      <trkpt lat="49.84936" lon="2.45273">
        <ele>113.5</ele>
        <time>2024-01-24T13:08:02Z</time>
      </trkpt>
      <trkpt lat="49.84939" lon="2.45271">
        <ele>113.5</ele>
        <time>2024-01-24T13:08:03Z</time>
      </trkpt>
      <trkpt lat="49.84939" lon="2.45271">
        <ele>113.4</ele>
        <time>2024-01-24T13:08:04Z</time>
      </trkpt>
      <trkpt lat="49.8494" lon="2.4527">
        <ele>113.4</ele>
        <time>2024-01-24T13:08:05Z</time>
      </trkpt>
      <trkpt lat="49.84942" lon="2.45269">
        <ele>113.4</ele>
        <time>2024-01-24T13:08:06Z</time>
      </trkpt>
      <trkpt lat="49.84943" lon="2.45268">
        <ele>113.4</ele>
        <time>2024-01-24T13:08:07Z</time>
      </trkpt>
      <trkpt lat="49.84944" lon="2.45267">
        <ele>113.4</ele>
        <time>2024-01-24T13:08:08Z</time>
      </trkpt>
      <trkpt lat="49.84945" lon="2.45267">
        <ele>113.4</ele>
        <time>2024-01-24T13:08:09Z</time>
      </trkpt>
      <trkpt lat="49.84946" lon="2.45266">
        <ele>113.4</ele>
        <time>2024-01-24T13:08:11Z</time>
      </trkpt>
      <trkpt lat="49.84948" lon="2.45265">
        <ele>113.4</ele>
        <time>2024-01-24T13:08:12Z</time>
      </trkpt>
      <trkpt lat="49.84949" lon="2.45264">
        <ele>113.4</ele>
        <time>2024-01-24T13:08:13Z</time>
      </trkpt>
      <trkpt lat="49.8495" lon="2.45263">
        <ele>113.4</ele>
        <time>2024-01-24T13:08:14Z</time>
      </trkpt>
      <trkpt lat="49.84951" lon="2.45263">
        <ele>113.4</ele>
        <time>2024-01-24T13:08:15Z</time>
      </trkpt>
      <trkpt lat="49.84953" lon="2.45262">
        <ele>113.4</ele>
        <time>2024-01-24T13:08:16Z</time>
      </trkpt>
      <trkpt lat="49.84954" lon="2.45261">
        <ele>113.4</ele>
        <time>2024-01-24T13:08:17Z</time>
      </trkpt>
      <trkpt lat="49.84956" lon="2.4526">
        <ele>113.4</ele>
        <time>2024-01-24T13:08:18Z</time>
      </trkpt>
      <trkpt lat="49.84957" lon="2.45259">
        <ele>113.4</ele>
        <time>2024-01-24T13:08:19Z</time>
      </trkpt>
      <trkpt lat="49.84958" lon="2.45259">
        <ele>113.4</ele>
        <time>2024-01-24T13:08:20Z</time>
      </trkpt>
      <trkpt lat="49.84959" lon="2.45258">
        <ele>113.4</ele>
        <time>2024-01-24T13:08:21Z</time>
      </trkpt>
      <trkpt lat="49.84961" lon="2.45257">
        <ele>113.4</ele>
        <time>2024-01-24T13:08:23Z</time>
      </trkpt>
      <trkpt lat="49.84962" lon="2.45256">
        <ele>113.4</ele>
        <time>2024-01-24T13:08:24Z</time>
      </trkpt>
      <trkpt lat="49.84963" lon="2.45256">
        <ele>113.4</ele>
        <time>2024-01-24T13:08:25Z</time>
      </trkpt>
      <trkpt lat="49.84965" lon="2.45255">
        <ele>113.4</ele>
        <time>2024-01-24T13:08:26Z</time>
      </trkpt>
      <trkpt lat="49.84966" lon="2.45254">
        <ele>113.4</ele>
        <time>2024-01-24T13:08:27Z</time>
      </trkpt>
      <trkpt lat="49.84966" lon="2.45254">
        <ele>113.4</ele>
        <time>2024-01-24T13:08:28Z</time>
      </trkpt>
      <trkpt lat="49.84968" lon="2.45253">
        <ele>113.4</ele>
        <time>2024-01-24T13:08:29Z</time>
      </trkpt>
      <trkpt lat="49.84969" lon="2.45253">
        <ele>113.4</ele>
        <time>2024-01-24T13:08:30Z</time>
      </trkpt>
      <trkpt lat="49.8497" lon="2.45252">
        <ele>113.4</ele>
        <time>2024-01-24T13:08:31Z</time>
      </trkpt>
      <trkpt lat="49.84972" lon="2.45251">
        <ele>113.5</ele>
        <time>2024-01-24T13:08:32Z</time>
      </trkpt>
      <trkpt lat="49.84972" lon="2.45251">
        <ele>113.5</ele>
        <time>2024-01-24T13:08:34Z</time>
      </trkpt>
      <trkpt lat="49.84973" lon="2.4525">
        <ele>113.5</ele>
        <time>2024-01-24T13:08:35Z</time>
      </trkpt>
      <trkpt lat="49.84975" lon="2.45249">
        <ele>113.5</ele>
        <time>2024-01-24T13:08:36Z</time>
      </trkpt>
      <trkpt lat="49.84976" lon="2.45248">
        <ele>113.5</ele>
        <time>2024-01-24T13:08:37Z</time>
      </trkpt>
      <trkpt lat="49.84977" lon="2.45247">
        <ele>113.5</ele>
        <time>2024-01-24T13:08:38Z</time>
      </trkpt>
      <trkpt lat="49.84978" lon="2.45247">
        <ele>113.5</ele>
        <time>2024-01-24T13:08:39Z</time>
      </trkpt>
      <trkpt lat="49.8498" lon="2.45246">
        <ele>113.5</ele>
        <time>2024-01-24T13:08:41Z</time>
      </trkpt>
      <trkpt lat="49.84982" lon="2.45245">
        <ele>113.5</ele>
        <time>2024-01-24T13:08:42Z</time>
      </trkpt>
      <trkpt lat="49.84983" lon="2.45244">
        <ele>113.5</ele>
        <time>2024-01-24T13:08:43Z</time>
      </trkpt>
      <trkpt lat="49.84983" lon="2.45244">
        <ele>113.5</ele>
        <time>2024-01-24T13:08:44Z</time>
      </trkpt>
      <trkpt lat="49.84984" lon="2.45243">
        <ele>113.5</ele>
        <time>2024-01-24T13:08:45Z</time>
      </trkpt>
      <trkpt lat="49.84986" lon="2.45242">
        <ele>113.5</ele>
        <time>2024-01-24T13:08:46Z</time>
      </trkpt>
      <trkpt lat="49.84987" lon="2.45242">
        <ele>113.5</ele>
        <time>2024-01-24T13:08:48Z</time>
      </trkpt>
      <trkpt lat="49.84987" lon="2.45241">
        <ele>113.6</ele>
        <time>2024-01-24T13:08:49Z</time>
      </trkpt>
      <trkpt lat="49.8499" lon="2.4524">
        <ele>113.6</ele>
        <time>2024-01-24T13:08:50Z</time>
      </trkpt>
      <trkpt lat="49.84991" lon="2.45239">
        <ele>113.6</ele>
        <time>2024-01-24T13:08:51Z</time>
      </trkpt>
      <trkpt lat="49.84992" lon="2.45239">
        <ele>113.6</ele>
        <time>2024-01-24T13:08:52Z</time>
      </trkpt>
      <trkpt lat="49.84993" lon="2.45238">
        <ele>113.6</ele>
        <time>2024-01-24T13:08:53Z</time>
      </trkpt>
      <trkpt lat="49.84994" lon="2.45238">
        <ele>113.6</ele>
        <time>2024-01-24T13:08:54Z</time>
      </trkpt>
      <trkpt lat="49.84995" lon="2.45237">
        <ele>113.6</ele>
        <time>2024-01-24T13:08:55Z</time>
      </trkpt>
      <trkpt lat="49.84996" lon="2.45237">
        <ele>113.6</ele>
        <time>2024-01-24T13:08:56Z</time>
      </trkpt>
      <trkpt lat="49.84997" lon="2.45236">
        <ele>113.6</ele>
        <time>2024-01-24T13:08:57Z</time>
      </trkpt>
      <trkpt lat="49.84999" lon="2.45236">
        <ele>113.6</ele>
        <time>2024-01-24T13:08:58Z</time>
      </trkpt>
      <trkpt lat="49.85" lon="2.45235">
        <ele>113.6</ele>
        <time>2024-01-24T13:09:00Z</time>
      </trkpt>
      <trkpt lat="49.85002" lon="2.45235">
        <ele>113.6</ele>
        <time>2024-01-24T13:09:01Z</time>
      </trkpt>
      <trkpt lat="49.85003" lon="2.45234">
        <ele>113.6</ele>
        <time>2024-01-24T13:09:02Z</time>
      </trkpt>
      <trkpt lat="49.85003" lon="2.45234">
        <ele>113.6</ele>
        <time>2024-01-24T13:09:03Z</time>
      </trkpt>
      <trkpt lat="49.85005" lon="2.45233">
        <ele>113.6</ele>
        <time>2024-01-24T13:09:04Z</time>
      </trkpt>
      <trkpt lat="49.85006" lon="2.45232">
        <ele>113.6</ele>
        <time>2024-01-24T13:09:05Z</time>
      </trkpt>
      <trkpt lat="49.85007" lon="2.45232">
        <ele>113.6</ele>
        <time>2024-01-24T13:09:06Z</time>
      </trkpt>
      <trkpt lat="49.85009" lon="2.45231">
        <ele>113.6</ele>
        <time>2024-01-24T13:09:07Z</time>
      </trkpt>
      <trkpt lat="49.8501" lon="2.45231">
        <ele>113.7</ele>
        <time>2024-01-24T13:09:08Z</time>
      </trkpt>
      <trkpt lat="49.85011" lon="2.4523">
        <ele>113.7</ele>
        <time>2024-01-24T13:09:09Z</time>
      </trkpt>
      <trkpt lat="49.85013" lon="2.45229">
        <ele>113.7</ele>
        <time>2024-01-24T13:09:11Z</time>
      </trkpt>
      <trkpt lat="49.85014" lon="2.45229">
        <ele>113.7</ele>
        <time>2024-01-24T13:09:12Z</time>
      </trkpt>
      <trkpt lat="49.85014" lon="2.45229">
        <ele>113.7</ele>
        <time>2024-01-24T13:09:13Z</time>
      </trkpt>
      <trkpt lat="49.85016" lon="2.45228">
        <ele>113.7</ele>
        <time>2024-01-24T13:09:14Z</time>
      </trkpt>
      <trkpt lat="49.85017" lon="2.45227">
        <ele>113.7</ele>
        <time>2024-01-24T13:09:15Z</time>
      </trkpt>
      <trkpt lat="49.85018" lon="2.45227">
        <ele>113.7</ele>
        <time>2024-01-24T13:09:16Z</time>
      </trkpt>
      <trkpt lat="49.8502" lon="2.45226">
        <ele>113.7</ele>
        <time>2024-01-24T13:09:17Z</time>
      </trkpt>
      <trkpt lat="49.85021" lon="2.45225">
        <ele>113.7</ele>
        <time>2024-01-24T13:09:18Z</time>
      </trkpt>
      <trkpt lat="49.85022" lon="2.45225">
        <ele>113.7</ele>
        <time>2024-01-24T13:09:19Z</time>
      </trkpt>
      <trkpt lat="49.85023" lon="2.45224">
        <ele>113.7</ele>
        <time>2024-01-24T13:09:20Z</time>
      </trkpt>
      <trkpt lat="49.85024" lon="2.45224">
        <ele>113.7</ele>
        <time>2024-01-24T13:09:21Z</time>
      </trkpt>
      <trkpt lat="49.85025" lon="2.45223">
        <ele>113.7</ele>
        <time>2024-01-24T13:09:23Z</time>
      </trkpt>
      <trkpt lat="49.85026" lon="2.45222">
        <ele>113.7</ele>
        <time>2024-01-24T13:09:24Z</time>
      </trkpt>
      <trkpt lat="49.85029" lon="2.45221">
        <ele>113.7</ele>
        <time>2024-01-24T13:09:25Z</time>
      </trkpt>
      <trkpt lat="49.85031" lon="2.45219">
        <ele>113.7</ele>
        <time>2024-01-24T13:09:26Z</time>
      </trkpt>
      <trkpt lat="49.85031" lon="2.45218">
        <ele>113.7</ele>
        <time>2024-01-24T13:09:27Z</time>
      </trkpt>
      <trkpt lat="49.85032" lon="2.45218">
        <ele>113.7</ele>
        <time>2024-01-24T13:09:28Z</time>
      </trkpt>
      <trkpt lat="49.85034" lon="2.45217">
        <ele>113.7</ele>
        <time>2024-01-24T13:09:30Z</time>
      </trkpt>
      <trkpt lat="49.85035" lon="2.45216">
        <ele>113.7</ele>
        <time>2024-01-24T13:09:31Z</time>
      </trkpt>
      <trkpt lat="49.85036" lon="2.45215">
        <ele>113.8</ele>
        <time>2024-01-24T13:09:32Z</time>
      </trkpt>
      <trkpt lat="49.85037" lon="2.45214">
        <ele>113.8</ele>
        <time>2024-01-24T13:09:33Z</time>
      </trkpt>
      <trkpt lat="49.85038" lon="2.45213">
        <ele>113.8</ele>
        <time>2024-01-24T13:09:34Z</time>
      </trkpt>
      <trkpt lat="49.8504" lon="2.45212">
        <ele>113.8</ele>
        <time>2024-01-24T13:09:35Z</time>
      </trkpt>
      <trkpt lat="49.85041" lon="2.45211">
        <ele>113.8</ele>
        <time>2024-01-24T13:09:36Z</time>
      </trkpt>
      <trkpt lat="49.85042" lon="2.45211">
        <ele>113.8</ele>
        <time>2024-01-24T13:09:37Z</time>
      </trkpt>
      <trkpt lat="49.85043" lon="2.4521">
        <ele>113.8</ele>
        <time>2024-01-24T13:09:38Z</time>
      </trkpt>
      <trkpt lat="49.85044" lon="2.45209">
        <ele>113.8</ele>
        <time>2024-01-24T13:09:39Z</time>
      </trkpt>
      <trkpt lat="49.85047" lon="2.45208">
        <ele>113.8</ele>
        <time>2024-01-24T13:09:40Z</time>
      </trkpt>
      <trkpt lat="49.85048" lon="2.45208">
        <ele>113.8</ele>
        <time>2024-01-24T13:09:42Z</time>
      </trkpt>
      <trkpt lat="49.85049" lon="2.45207">
        <ele>113.8</ele>
        <time>2024-01-24T13:09:43Z</time>
      </trkpt>
      <trkpt lat="49.85049" lon="2.45207">
        <ele>113.8</ele>
        <time>2024-01-24T13:09:44Z</time>
      </trkpt>
      <trkpt lat="49.85052" lon="2.45206">
        <ele>113.8</ele>
        <time>2024-01-24T13:09:45Z</time>
      </trkpt>
      <trkpt lat="49.85053" lon="2.45206">
        <ele>113.8</ele>
        <time>2024-01-24T13:09:46Z</time>
      </trkpt>
      <trkpt lat="49.85054" lon="2.45205">
        <ele>113.8</ele>
        <time>2024-01-24T13:09:48Z</time>
      </trkpt>
      <trkpt lat="49.85055" lon="2.45204">
        <ele>113.8</ele>
        <time>2024-01-24T13:09:49Z</time>
      </trkpt>
      <trkpt lat="49.85057" lon="2.45203">
        <ele>113.8</ele>
        <time>2024-01-24T13:09:50Z</time>
      </trkpt>
      <trkpt lat="49.85058" lon="2.45203">
        <ele>113.8</ele>
        <time>2024-01-24T13:09:51Z</time>
      </trkpt>
      <trkpt lat="49.85059" lon="2.45202">
        <ele>113.8</ele>
        <time>2024-01-24T13:09:52Z</time>
      </trkpt>
      <trkpt lat="49.85061" lon="2.45201">
        <ele>113.8</ele>
        <time>2024-01-24T13:09:53Z</time>
      </trkpt>
      <trkpt lat="49.85062" lon="2.45201">
        <ele>113.7</ele>
        <time>2024-01-24T13:09:54Z</time>
      </trkpt>
      <trkpt lat="49.85062" lon="2.45201">
        <ele>113.7</ele>
        <time>2024-01-24T13:09:55Z</time>
      </trkpt>
      <trkpt lat="49.85064" lon="2.452">
        <ele>113.7</ele>
        <time>2024-01-24T13:09:56Z</time>
      </trkpt>
      <trkpt lat="49.85065" lon="2.452">
        <ele>113.7</ele>
        <time>2024-01-24T13:09:57Z</time>
      </trkpt>
      <trkpt lat="49.85066" lon="2.45199">
        <ele>113.7</ele>
        <time>2024-01-24T13:09:58Z</time>
      </trkpt>
      <trkpt lat="49.85068" lon="2.45199">
        <ele>113.7</ele>
        <time>2024-01-24T13:10:00Z</time>
      </trkpt>
      <trkpt lat="49.85069" lon="2.45199">
        <ele>113.7</ele>
        <time>2024-01-24T13:10:01Z</time>
      </trkpt>
      <trkpt lat="49.8507" lon="2.45198">
        <ele>113.7</ele>
        <time>2024-01-24T13:10:02Z</time>
      </trkpt>
      <trkpt lat="49.85071" lon="2.45198">
        <ele>113.6</ele>
        <time>2024-01-24T13:10:03Z</time>
      </trkpt>
      <trkpt lat="49.85072" lon="2.45197">
        <ele>113.6</ele>
        <time>2024-01-24T13:10:04Z</time>
      </trkpt>
      <trkpt lat="49.85074" lon="2.45196">
        <ele>113.6</ele>
        <time>2024-01-24T13:10:05Z</time>
      </trkpt>
      <trkpt lat="49.85075" lon="2.45195">
        <ele>113.6</ele>
        <time>2024-01-24T13:10:06Z</time>
      </trkpt>
      <trkpt lat="49.85076" lon="2.45194">
        <ele>113.6</ele>
        <time>2024-01-24T13:10:08Z</time>
      </trkpt>
      <trkpt lat="49.85078" lon="2.45193">
        <ele>113.6</ele>
        <time>2024-01-24T13:10:09Z</time>
      </trkpt>
      <trkpt lat="49.85079" lon="2.45192">
        <ele>113.6</ele>
        <time>2024-01-24T13:10:10Z</time>
      </trkpt>
      <trkpt lat="49.8508" lon="2.45192">
        <ele>113.6</ele>
        <time>2024-01-24T13:10:11Z</time>
      </trkpt>
      <trkpt lat="49.85081" lon="2.45191">
        <ele>113.6</ele>
        <time>2024-01-24T13:10:12Z</time>
      </trkpt>
      <trkpt lat="49.85082" lon="2.4519">
        <ele>113.6</ele>
        <time>2024-01-24T13:10:13Z</time>
      </trkpt>
      <trkpt lat="49.85084" lon="2.45189">
        <ele>113.6</ele>
        <time>2024-01-24T13:10:14Z</time>
      </trkpt>
      <trkpt lat="49.85085" lon="2.45188">
        <ele>113.6</ele>
        <time>2024-01-24T13:10:15Z</time>
      </trkpt>
      <trkpt lat="49.85086" lon="2.45187">
        <ele>113.6</ele>
        <time>2024-01-24T13:10:16Z</time>
      </trkpt>
      <trkpt lat="49.85087" lon="2.45186">
        <ele>113.6</ele>
        <time>2024-01-24T13:10:17Z</time>
      </trkpt>
      <trkpt lat="49.85089" lon="2.45184">
        <ele>113.6</ele>
        <time>2024-01-24T13:10:18Z</time>
      </trkpt>
      <trkpt lat="49.8509" lon="2.45184">
        <ele>113.5</ele>
        <time>2024-01-24T13:10:20Z</time>
      </trkpt>
      <trkpt lat="49.85091" lon="2.45183">
        <ele>113.5</ele>
        <time>2024-01-24T13:10:21Z</time>
      </trkpt>
      <trkpt lat="49.85093" lon="2.45182">
        <ele>113.5</ele>
        <time>2024-01-24T13:10:22Z</time>
      </trkpt>
      <trkpt lat="49.85094" lon="2.45181">
        <ele>113.5</ele>
        <time>2024-01-24T13:10:23Z</time>
      </trkpt>
      <trkpt lat="49.85094" lon="2.45181">
        <ele>113.5</ele>
        <time>2024-01-24T13:10:24Z</time>
      </trkpt>
      <trkpt lat="49.85096" lon="2.45179">
        <ele>113.5</ele>
        <time>2024-01-24T13:10:25Z</time>
      </trkpt>
      <trkpt lat="49.85097" lon="2.45178">
        <ele>113.5</ele>
        <time>2024-01-24T13:10:26Z</time>
      </trkpt>
      <trkpt lat="49.85098" lon="2.45178">
        <ele>113.5</ele>
        <time>2024-01-24T13:10:27Z</time>
      </trkpt>
      <trkpt lat="49.85099" lon="2.45177">
        <ele>113.5</ele>
        <time>2024-01-24T13:10:28Z</time>
      </trkpt>
      <trkpt lat="49.851" lon="2.45176">
        <ele>113.5</ele>
        <time>2024-01-24T13:10:29Z</time>
      </trkpt>
      <trkpt lat="49.85101" lon="2.45175">
        <ele>113.5</ele>
        <time>2024-01-24T13:10:30Z</time>
      </trkpt>
      <trkpt lat="49.85102" lon="2.45174">
        <ele>113.5</ele>
        <time>2024-01-24T13:10:32Z</time>
      </trkpt>
      <trkpt lat="49.85103" lon="2.45173">
        <ele>113.5</ele>
        <time>2024-01-24T13:10:33Z</time>
      </trkpt>
      <trkpt lat="49.85105" lon="2.45172">
        <ele>113.5</ele>
        <time>2024-01-24T13:10:34Z</time>
      </trkpt>
      <trkpt lat="49.85106" lon="2.45171">
        <ele>113.5</ele>
        <time>2024-01-24T13:10:35Z</time>
      </trkpt>
      <trkpt lat="49.85107" lon="2.45171">
        <ele>113.5</ele>
        <time>2024-01-24T13:10:36Z</time>
      </trkpt>
      <trkpt lat="49.85108" lon="2.4517">
        <ele>113.5</ele>
        <time>2024-01-24T13:10:37Z</time>
      </trkpt>
      <trkpt lat="49.85109" lon="2.4517">
        <ele>113.5</ele>
        <time>2024-01-24T13:10:38Z</time>
      </trkpt>
      <trkpt lat="49.85109" lon="2.45169">
        <ele>113.5</ele>
        <time>2024-01-24T13:10:40Z</time>
      </trkpt>
      <trkpt lat="49.85112" lon="2.45168">
        <ele>113.6</ele>
        <time>2024-01-24T13:10:41Z</time>
      </trkpt>
      <trkpt lat="49.85113" lon="2.45167">
        <ele>113.6</ele>
        <time>2024-01-24T13:10:42Z</time>
      </trkpt>
      <trkpt lat="49.85114" lon="2.45166">
        <ele>113.6</ele>
        <time>2024-01-24T13:10:43Z</time>
      </trkpt>
      <trkpt lat="49.85115" lon="2.45166">
        <ele>113.6</ele>
        <time>2024-01-24T13:10:44Z</time>
      </trkpt>
      <trkpt lat="49.85116" lon="2.45166">
        <ele>113.6</ele>
        <time>2024-01-24T13:10:45Z</time>
      </trkpt>
      <trkpt lat="49.85117" lon="2.45165">
        <ele>113.6</ele>
        <time>2024-01-24T13:10:46Z</time>
      </trkpt>
      <trkpt lat="49.85119" lon="2.45165">
        <ele>113.6</ele>
        <time>2024-01-24T13:10:47Z</time>
      </trkpt>
      <trkpt lat="49.85121" lon="2.45163">
        <ele>113.6</ele>
        <time>2024-01-24T13:10:49Z</time>
      </trkpt>
      <trkpt lat="49.85122" lon="2.45162">
        <ele>113.6</ele>
        <time>2024-01-24T13:10:50Z</time>
      </trkpt>
      <trkpt lat="49.85123" lon="2.45162">
        <ele>113.6</ele>
        <time>2024-01-24T13:10:51Z</time>
      </trkpt>
      <trkpt lat="49.85124" lon="2.45161">
        <ele>113.6</ele>
        <time>2024-01-24T13:10:52Z</time>
      </trkpt>
      <trkpt lat="49.85125" lon="2.45161">
        <ele>113.6</ele>
        <time>2024-01-24T13:10:53Z</time>
      </trkpt>
      <trkpt lat="49.85126" lon="2.4516">
        <ele>113.6</ele>
        <time>2024-01-24T13:10:54Z</time>
      </trkpt>
      <trkpt lat="49.85127" lon="2.45159">
        <ele>113.7</ele>
        <time>2024-01-24T13:10:55Z</time>
      </trkpt>
      <trkpt lat="49.85128" lon="2.45158">
        <ele>113.7</ele>
        <time>2024-01-24T13:10:56Z</time>
      </trkpt>
      <trkpt lat="49.85129" lon="2.45157">
        <ele>113.7</ele>
        <time>2024-01-24T13:10:57Z</time>
      </trkpt>
      <trkpt lat="49.85131" lon="2.45156">
        <ele>113.7</ele>
        <time>2024-01-24T13:10:58Z</time>
      </trkpt>
      <trkpt lat="49.85131" lon="2.45155">
        <ele>113.7</ele>
        <time>2024-01-24T13:11:00Z</time>
      </trkpt>
      <trkpt lat="49.85132" lon="2.45155">
        <ele>113.7</ele>
        <time>2024-01-24T13:11:01Z</time>
      </trkpt>
      <trkpt lat="49.85133" lon="2.45154">
        <ele>113.7</ele>
        <time>2024-01-24T13:11:02Z</time>
      </trkpt>
      <trkpt lat="49.85135" lon="2.45153">
        <ele>113.6</ele>
        <time>2024-01-24T13:11:03Z</time>
      </trkpt>
      <trkpt lat="49.85136" lon="2.45152">
        <ele>113.6</ele>
        <time>2024-01-24T13:11:04Z</time>
      </trkpt>
      <trkpt lat="49.85138" lon="2.45151">
        <ele>113.6</ele>
        <time>2024-01-24T13:11:06Z</time>
      </trkpt>
      <trkpt lat="49.85139" lon="2.4515">
        <ele>113.6</ele>
        <time>2024-01-24T13:11:07Z</time>
      </trkpt>
      <trkpt lat="49.8514" lon="2.45149">
        <ele>113.6</ele>
        <time>2024-01-24T13:11:08Z</time>
      </trkpt>
      <trkpt lat="49.85142" lon="2.45148">
        <ele>113.6</ele>
        <time>2024-01-24T13:11:09Z</time>
      </trkpt>
      <trkpt lat="49.85143" lon="2.45147">
        <ele>113.6</ele>
        <time>2024-01-24T13:11:10Z</time>
      </trkpt>
      <trkpt lat="49.85144" lon="2.45146">
        <ele>113.6</ele>
        <time>2024-01-24T13:11:11Z</time>
      </trkpt>
      <trkpt lat="49.85146" lon="2.45145">
        <ele>113.6</ele>
        <time>2024-01-24T13:11:12Z</time>
      </trkpt>
      <trkpt lat="49.85147" lon="2.45145">
        <ele>113.6</ele>
        <time>2024-01-24T13:11:14Z</time>
      </trkpt>
      <trkpt lat="49.85148" lon="2.45144">
        <ele>113.6</ele>
        <time>2024-01-24T13:11:15Z</time>
      </trkpt>
      <trkpt lat="49.8515" lon="2.45143">
        <ele>113.6</ele>
        <time>2024-01-24T13:11:16Z</time>
      </trkpt>
      <trkpt lat="49.85151" lon="2.45143">
        <ele>113.6</ele>
        <time>2024-01-24T13:11:17Z</time>
      </trkpt>
      <trkpt lat="49.85151" lon="2.45143">
        <ele>113.6</ele>
        <time>2024-01-24T13:11:18Z</time>
      </trkpt>
      <trkpt lat="49.85153" lon="2.45142">
        <ele>113.6</ele>
        <time>2024-01-24T13:11:19Z</time>
      </trkpt>
      <trkpt lat="49.85154" lon="2.45142">
        <ele>113.6</ele>
        <time>2024-01-24T13:11:20Z</time>
      </trkpt>
      <trkpt lat="49.85155" lon="2.45141">
        <ele>113.6</ele>
        <time>2024-01-24T13:11:21Z</time>
      </trkpt>
      <trkpt lat="49.85156" lon="2.45141">
        <ele>113.6</ele>
        <time>2024-01-24T13:11:23Z</time>
      </trkpt>
      <trkpt lat="49.85157" lon="2.45141">
        <ele>113.6</ele>
        <time>2024-01-24T13:11:24Z</time>
      </trkpt>
      <trkpt lat="49.85158" lon="2.4514">
        <ele>113.6</ele>
        <time>2024-01-24T13:11:25Z</time>
      </trkpt>
      <trkpt lat="49.8516" lon="2.45139">
        <ele>113.6</ele>
        <time>2024-01-24T13:11:26Z</time>
      </trkpt>
      <trkpt lat="49.8516" lon="2.45139">
        <ele>113.6</ele>
        <time>2024-01-24T13:11:27Z</time>
      </trkpt>
      <trkpt lat="49.85162" lon="2.45137">
        <ele>113.6</ele>
        <time>2024-01-24T13:11:28Z</time>
      </trkpt>
      <trkpt lat="49.85163" lon="2.45136">
        <ele>113.6</ele>
        <time>2024-01-24T13:11:29Z</time>
      </trkpt>
      <trkpt lat="49.85164" lon="2.45136">
        <ele>113.6</ele>
        <time>2024-01-24T13:11:31Z</time>
      </trkpt>
      <trkpt lat="49.85165" lon="2.45135">
        <ele>113.6</ele>
        <time>2024-01-24T13:11:32Z</time>
      </trkpt>
      <trkpt lat="49.85166" lon="2.45134">
        <ele>113.6</ele>
        <time>2024-01-24T13:11:33Z</time>
      </trkpt>
      <trkpt lat="49.85167" lon="2.45134">
        <ele>113.6</ele>
        <time>2024-01-24T13:11:34Z</time>
      </trkpt>
      <trkpt lat="49.85169" lon="2.45132">
        <ele>113.6</ele>
        <time>2024-01-24T13:11:35Z</time>
      </trkpt>
      <trkpt lat="49.8517" lon="2.45131">
        <ele>113.6</ele>
        <time>2024-01-24T13:11:36Z</time>
      </trkpt>
      <trkpt lat="49.8517" lon="2.45131">
        <ele>113.6</ele>
        <time>2024-01-24T13:11:37Z</time>
      </trkpt>
      <trkpt lat="49.85172" lon="2.4513">
        <ele>113.6</ele>
        <time>2024-01-24T13:11:38Z</time>
      </trkpt>
      <trkpt lat="49.85173" lon="2.45129">
        <ele>113.6</ele>
        <time>2024-01-24T13:11:39Z</time>
      </trkpt>
      <trkpt lat="49.85174" lon="2.45128">
        <ele>113.6</ele>
        <time>2024-01-24T13:11:40Z</time>
      </trkpt>
      <trkpt lat="49.85176" lon="2.45127">
        <ele>113.6</ele>
        <time>2024-01-24T13:11:41Z</time>
      </trkpt>
      <trkpt lat="49.85177" lon="2.45126">
        <ele>113.6</ele>
        <time>2024-01-24T13:11:43Z</time>
      </trkpt>
      <trkpt lat="49.85178" lon="2.45126">
        <ele>113.6</ele>
        <time>2024-01-24T13:11:44Z</time>
      </trkpt>
      <trkpt lat="49.8518" lon="2.45124">
        <ele>113.6</ele>
        <time>2024-01-24T13:11:45Z</time>
      </trkpt>
      <trkpt lat="49.85181" lon="2.45123">
        <ele>113.6</ele>
        <time>2024-01-24T13:11:46Z</time>
      </trkpt>
      <trkpt lat="49.85182" lon="2.45123">
        <ele>113.6</ele>
        <time>2024-01-24T13:11:47Z</time>
      </trkpt>
      <trkpt lat="49.85184" lon="2.45121">
        <ele>113.6</ele>
        <time>2024-01-24T13:11:48Z</time>
      </trkpt>
      <trkpt lat="49.85184" lon="2.45121">
        <ele>113.6</ele>
        <time>2024-01-24T13:11:49Z</time>
      </trkpt>
      <trkpt lat="49.85185" lon="2.4512">
        <ele>113.6</ele>
        <time>2024-01-24T13:11:50Z</time>
      </trkpt>
      <trkpt lat="49.85186" lon="2.4512">
        <ele>113.6</ele>
        <time>2024-01-24T13:11:51Z</time>
      </trkpt>
      <trkpt lat="49.85188" lon="2.45119">
        <ele>113.6</ele>
        <time>2024-01-24T13:11:52Z</time>
      </trkpt>
      <trkpt lat="49.85189" lon="2.45118">
        <ele>113.6</ele>
        <time>2024-01-24T13:11:54Z</time>
      </trkpt>
      <trkpt lat="49.85191" lon="2.45117">
        <ele>113.6</ele>
        <time>2024-01-24T13:11:55Z</time>
      </trkpt>
      <trkpt lat="49.85192" lon="2.45117">
        <ele>113.6</ele>
        <time>2024-01-24T13:11:56Z</time>
      </trkpt>
      <trkpt lat="49.85192" lon="2.45116">
        <ele>113.6</ele>
        <time>2024-01-24T13:11:57Z</time>
      </trkpt>
      <trkpt lat="49.85195" lon="2.45115">
        <ele>113.6</ele>
        <time>2024-01-24T13:11:58Z</time>
      </trkpt>
      <trkpt lat="49.85195" lon="2.45115">
        <ele>113.6</ele>
        <time>2024-01-24T13:11:59Z</time>
      </trkpt>
      <trkpt lat="49.85196" lon="2.45114">
        <ele>113.6</ele>
        <time>2024-01-24T13:12:00Z</time>
      </trkpt>
      <trkpt lat="49.85198" lon="2.45113">
        <ele>113.6</ele>
        <time>2024-01-24T13:12:01Z</time>
      </trkpt>
      <trkpt lat="49.852" lon="2.45112">
        <ele>113.6</ele>
        <time>2024-01-24T13:12:03Z</time>
      </trkpt>
      <trkpt lat="49.85201" lon="2.45111">
        <ele>113.7</ele>
        <time>2024-01-24T13:12:04Z</time>
      </trkpt>
      <trkpt lat="49.85202" lon="2.4511">
        <ele>113.7</ele>
        <time>2024-01-24T13:12:05Z</time>
      </trkpt>
      <trkpt lat="49.85203" lon="2.45109">
        <ele>113.7</ele>
        <time>2024-01-24T13:12:06Z</time>
      </trkpt>
      <trkpt lat="49.85203" lon="2.45109">
        <ele>113.7</ele>
        <time>2024-01-24T13:12:07Z</time>
      </trkpt>
      <trkpt lat="49.85204" lon="2.45109">
        <ele>113.7</ele>
        <time>2024-01-24T13:12:08Z</time>
      </trkpt>
      <trkpt lat="49.85205" lon="2.45108">
        <ele>113.7</ele>
        <time>2024-01-24T13:12:10Z</time>
      </trkpt>
      <trkpt lat="49.85206" lon="2.45107">
        <ele>113.7</ele>
        <time>2024-01-24T13:12:11Z</time>
      </trkpt>
      <trkpt lat="49.85208" lon="2.45106">
        <ele>113.8</ele>
        <time>2024-01-24T13:12:12Z</time>
      </trkpt>
      <trkpt lat="49.85209" lon="2.45106">
        <ele>113.8</ele>
        <time>2024-01-24T13:12:13Z</time>
      </trkpt>
      <trkpt lat="49.8521" lon="2.45105">
        <ele>113.8</ele>
        <time>2024-01-24T13:12:14Z</time>
      </trkpt>
      <trkpt lat="49.85211" lon="2.45104">
        <ele>113.8</ele>
        <time>2024-01-24T13:12:15Z</time>
      </trkpt>
      <trkpt lat="49.85213" lon="2.45103">
        <ele>113.9</ele>
        <time>2024-01-24T13:12:16Z</time>
      </trkpt>
      <trkpt lat="49.85214" lon="2.45102">
        <ele>113.9</ele>
        <time>2024-01-24T13:12:17Z</time>
      </trkpt>
      <trkpt lat="49.85215" lon="2.45101">
        <ele>113.9</ele>
        <time>2024-01-24T13:12:18Z</time>
      </trkpt>
      <trkpt lat="49.85216" lon="2.451">
        <ele>114</ele>
        <time>2024-01-24T13:12:20Z</time>
      </trkpt>
      <trkpt lat="49.85217" lon="2.451">
        <ele>114</ele>
        <time>2024-01-24T13:12:21Z</time>
      </trkpt>
      <trkpt lat="49.85218" lon="2.45099">
        <ele>114</ele>
        <time>2024-01-24T13:12:22Z</time>
      </trkpt>
      <trkpt lat="49.85219" lon="2.45098">
        <ele>114</ele>
        <time>2024-01-24T13:12:23Z</time>
      </trkpt>
      <trkpt lat="49.85221" lon="2.45097">
        <ele>114.1</ele>
        <time>2024-01-24T13:12:24Z</time>
      </trkpt>
      <trkpt lat="49.85221" lon="2.45097">
        <ele>114.1</ele>
        <time>2024-01-24T13:12:25Z</time>
      </trkpt>
      <trkpt lat="49.85222" lon="2.45096">
        <ele>114.1</ele>
        <time>2024-01-24T13:12:26Z</time>
      </trkpt>
      <trkpt lat="49.85224" lon="2.45095">
        <ele>114.2</ele>
        <time>2024-01-24T13:12:27Z</time>
      </trkpt>
      <trkpt lat="49.85225" lon="2.45095">
        <ele>114.2</ele>
        <time>2024-01-24T13:12:28Z</time>
      </trkpt>
      <trkpt lat="49.85226" lon="2.45095">
        <ele>114.2</ele>
        <time>2024-01-24T13:12:30Z</time>
      </trkpt>
      <trkpt lat="49.85227" lon="2.45094">
        <ele>114.2</ele>
        <time>2024-01-24T13:12:31Z</time>
      </trkpt>
      <trkpt lat="49.85228" lon="2.45094">
        <ele>114.2</ele>
        <time>2024-01-24T13:12:32Z</time>
      </trkpt>
      <trkpt lat="49.85229" lon="2.45094">
        <ele>114.3</ele>
        <time>2024-01-24T13:12:33Z</time>
      </trkpt>
      <trkpt lat="49.85231" lon="2.45093">
        <ele>114.3</ele>
        <time>2024-01-24T13:12:34Z</time>
      </trkpt>
      <trkpt lat="49.85232" lon="2.45092">
        <ele>114.3</ele>
        <time>2024-01-24T13:12:35Z</time>
      </trkpt>
      <trkpt lat="49.85233" lon="2.45092">
        <ele>114.4</ele>
        <time>2024-01-24T13:12:36Z</time>
      </trkpt>
      <trkpt lat="49.85235" lon="2.45091">
        <ele>114.4</ele>
        <time>2024-01-24T13:12:37Z</time>
      </trkpt>
      <trkpt lat="49.85236" lon="2.45091">
        <ele>114.4</ele>
        <time>2024-01-24T13:12:38Z</time>
      </trkpt>
      <trkpt lat="49.85237" lon="2.4509">
        <ele>114.4</ele>
        <time>2024-01-24T13:12:40Z</time>
      </trkpt>
      <trkpt lat="49.85238" lon="2.4509">
        <ele>114.5</ele>
        <time>2024-01-24T13:12:41Z</time>
      </trkpt>
      <trkpt lat="49.85238" lon="2.45089">
        <ele>114.5</ele>
        <time>2024-01-24T13:12:42Z</time>
      </trkpt>
      <trkpt lat="49.85239" lon="2.45089">
        <ele>114.5</ele>
        <time>2024-01-24T13:12:43Z</time>
      </trkpt>
      <trkpt lat="49.8524" lon="2.45088">
        <ele>114.5</ele>
        <time>2024-01-24T13:12:44Z</time>
      </trkpt>
      <trkpt lat="49.85242" lon="2.45088">
        <ele>114.5</ele>
        <time>2024-01-24T13:12:45Z</time>
      </trkpt>
      <trkpt lat="49.85242" lon="2.45088">
        <ele>114.5</ele>
        <time>2024-01-24T13:12:46Z</time>
      </trkpt>
      <trkpt lat="49.85243" lon="2.45087">
        <ele>114.6</ele>
        <time>2024-01-24T13:12:47Z</time>
      </trkpt>
      <trkpt lat="49.85245" lon="2.45086">
        <ele>114.6</ele>
        <time>2024-01-24T13:12:49Z</time>
      </trkpt>
      <trkpt lat="49.85246" lon="2.45086">
        <ele>114.6</ele>
        <time>2024-01-24T13:12:50Z</time>
      </trkpt>
      <trkpt lat="49.85247" lon="2.45085">
        <ele>114.6</ele>
        <time>2024-01-24T13:12:51Z</time>
      </trkpt>
      <trkpt lat="49.85248" lon="2.45085">
        <ele>114.7</ele>
        <time>2024-01-24T13:12:52Z</time>
      </trkpt>
      <trkpt lat="49.85249" lon="2.45084">
        <ele>114.7</ele>
        <time>2024-01-24T13:12:53Z</time>
      </trkpt>
      <trkpt lat="49.8525" lon="2.45083">
        <ele>114.7</ele>
        <time>2024-01-24T13:12:54Z</time>
      </trkpt>
      <trkpt lat="49.85251" lon="2.45083">
        <ele>114.7</ele>
        <time>2024-01-24T13:12:55Z</time>
      </trkpt>
      <trkpt lat="49.85252" lon="2.45083">
        <ele>114.7</ele>
        <time>2024-01-24T13:12:56Z</time>
      </trkpt>
      <trkpt lat="49.85253" lon="2.45083">
        <ele>114.8</ele>
        <time>2024-01-24T13:12:57Z</time>
      </trkpt>
      <trkpt lat="49.85254" lon="2.45082">
        <ele>114.8</ele>
        <time>2024-01-24T13:12:59Z</time>
      </trkpt>
      <trkpt lat="49.85255" lon="2.45081">
        <ele>114.8</ele>
        <time>2024-01-24T13:13:00Z</time>
      </trkpt>
      <trkpt lat="49.85257" lon="2.4508">
        <ele>114.9</ele>
        <time>2024-01-24T13:13:01Z</time>
      </trkpt>
      <trkpt lat="49.85258" lon="2.4508">
        <ele>114.9</ele>
        <time>2024-01-24T13:13:02Z</time>
      </trkpt>
      <trkpt lat="49.85259" lon="2.45079">
        <ele>114.9</ele>
        <time>2024-01-24T13:13:03Z</time>
      </trkpt>
      <trkpt lat="49.85261" lon="2.45078">
        <ele>114.9</ele>
        <time>2024-01-24T13:13:04Z</time>
      </trkpt>
      <trkpt lat="49.85262" lon="2.45077">
        <ele>115</ele>
        <time>2024-01-24T13:13:05Z</time>
      </trkpt>
      <trkpt lat="49.85262" lon="2.45077">
        <ele>115</ele>
        <time>2024-01-24T13:13:06Z</time>
      </trkpt>
      <trkpt lat="49.85264" lon="2.45076">
        <ele>115</ele>
        <time>2024-01-24T13:13:07Z</time>
      </trkpt>
      <trkpt lat="49.85265" lon="2.45075">
        <ele>115</ele>
        <time>2024-01-24T13:13:08Z</time>
      </trkpt>
      <trkpt lat="49.85266" lon="2.45074">
        <ele>115.1</ele>
        <time>2024-01-24T13:13:10Z</time>
      </trkpt>
      <trkpt lat="49.85267" lon="2.45074">
        <ele>115.1</ele>
        <time>2024-01-24T13:13:11Z</time>
      </trkpt>
      <trkpt lat="49.85268" lon="2.45073">
        <ele>115.1</ele>
        <time>2024-01-24T13:13:12Z</time>
      </trkpt>
      <trkpt lat="49.85269" lon="2.45072">
        <ele>115.1</ele>
        <time>2024-01-24T13:13:13Z</time>
      </trkpt>
      <trkpt lat="49.85271" lon="2.45071">
        <ele>115.1</ele>
        <time>2024-01-24T13:13:14Z</time>
      </trkpt>
      <trkpt lat="49.85272" lon="2.4507">
        <ele>115.2</ele>
        <time>2024-01-24T13:13:15Z</time>
      </trkpt>
      <trkpt lat="49.85273" lon="2.45069">
        <ele>115.2</ele>
        <time>2024-01-24T13:13:16Z</time>
      </trkpt>
      <trkpt lat="49.85274" lon="2.45068">
        <ele>115.2</ele>
        <time>2024-01-24T13:13:17Z</time>
      </trkpt>
      <trkpt lat="49.85275" lon="2.45066">
        <ele>115.2</ele>
        <time>2024-01-24T13:13:18Z</time>
      </trkpt>
      <trkpt lat="49.85276" lon="2.45065">
        <ele>115.2</ele>
        <time>2024-01-24T13:13:19Z</time>
      </trkpt>
      <trkpt lat="49.85277" lon="2.45063">
        <ele>115.2</ele>
        <time>2024-01-24T13:13:20Z</time>
      </trkpt>
      <trkpt lat="49.85278" lon="2.45061">
        <ele>115.2</ele>
        <time>2024-01-24T13:13:22Z</time>
      </trkpt>
      <trkpt lat="49.85279" lon="2.45059">
        <ele>115.2</ele>
        <time>2024-01-24T13:13:23Z</time>
      </trkpt>
      <trkpt lat="49.85279" lon="2.45057">
        <ele>115.2</ele>
        <time>2024-01-24T13:13:24Z</time>
      </trkpt>
      <trkpt lat="49.8528" lon="2.45055">
        <ele>115.2</ele>
        <time>2024-01-24T13:13:25Z</time>
      </trkpt>
      <trkpt lat="49.8528" lon="2.45052">
        <ele>115.2</ele>
        <time>2024-01-24T13:13:26Z</time>
      </trkpt>
      <trkpt lat="49.8528" lon="2.4505">
        <ele>115.1</ele>
        <time>2024-01-24T13:13:27Z</time>
      </trkpt>
      <trkpt lat="49.8528" lon="2.45048">
        <ele>115.1</ele>
        <time>2024-01-24T13:13:28Z</time>
      </trkpt>
      <trkpt lat="49.8528" lon="2.45045">
        <ele>115.1</ele>
        <time>2024-01-24T13:13:30Z</time>
      </trkpt>
      <trkpt lat="49.85279" lon="2.45043">
        <ele>115</ele>
        <time>2024-01-24T13:13:31Z</time>
      </trkpt>
      <trkpt lat="49.85279" lon="2.4504">
        <ele>115</ele>
        <time>2024-01-24T13:13:32Z</time>
      </trkpt>
      <trkpt lat="49.85278" lon="2.45038">
        <ele>114.9</ele>
        <time>2024-01-24T13:13:33Z</time>
      </trkpt>
      <trkpt lat="49.85277" lon="2.45036">
        <ele>114.9</ele>
        <time>2024-01-24T13:13:34Z</time>
      </trkpt>
      <trkpt lat="49.85277" lon="2.45034">
        <ele>114.9</ele>
        <time>2024-01-24T13:13:35Z</time>
      </trkpt>
      <trkpt lat="49.85276" lon="2.45032">
        <ele>114.8</ele>
        <time>2024-01-24T13:13:36Z</time>
      </trkpt>
      <trkpt lat="49.85275" lon="2.45029">
        <ele>114.8</ele>
        <time>2024-01-24T13:13:38Z</time>
      </trkpt>
      <trkpt lat="49.85274" lon="2.45026">
        <ele>114.7</ele>
        <time>2024-01-24T13:13:39Z</time>
      </trkpt>
      <trkpt lat="49.85273" lon="2.45024">
        <ele>114.7</ele>
        <time>2024-01-24T13:13:40Z</time>
      </trkpt>
      <trkpt lat="49.85272" lon="2.45022">
        <ele>114.7</ele>
        <time>2024-01-24T13:13:41Z</time>
      </trkpt>
      <trkpt lat="49.85271" lon="2.4502">
        <ele>114.6</ele>
        <time>2024-01-24T13:13:42Z</time>
      </trkpt>
      <trkpt lat="49.8527" lon="2.45016">
        <ele>114.5</ele>
        <time>2024-01-24T13:13:44Z</time>
      </trkpt>
      <trkpt lat="49.85269" lon="2.45015">
        <ele>114.5</ele>
        <time>2024-01-24T13:13:45Z</time>
      </trkpt>
      <trkpt lat="49.85268" lon="2.45013">
        <ele>114.5</ele>
        <time>2024-01-24T13:13:46Z</time>
      </trkpt>
      <trkpt lat="49.85267" lon="2.45011">
        <ele>114.5</ele>
        <time>2024-01-24T13:13:47Z</time>
      </trkpt>
      <trkpt lat="49.85267" lon="2.45009">
        <ele>114.4</ele>
        <time>2024-01-24T13:13:48Z</time>
      </trkpt>
      <trkpt lat="49.85266" lon="2.45007">
        <ele>114.4</ele>
        <time>2024-01-24T13:13:49Z</time>
      </trkpt>
      <trkpt lat="49.85264" lon="2.45005">
        <ele>114.3</ele>
        <time>2024-01-24T13:13:51Z</time>
      </trkpt>
      <trkpt lat="49.85262" lon="2.45006">
        <ele>114.3</ele>
        <time>2024-01-24T13:13:52Z</time>
      </trkpt>
      <trkpt lat="49.85262" lon="2.45008">
        <ele>114.3</ele>
        <time>2024-01-24T13:13:53Z</time>
      </trkpt>
      <trkpt lat="49.85262" lon="2.4501">
        <ele>114.2</ele>
        <time>2024-01-24T13:13:55Z</time>
      </trkpt>
      <trkpt lat="49.85263" lon="2.45011">
        <ele>114.2</ele>
        <time>2024-01-24T13:13:56Z</time>
      </trkpt>
      <trkpt lat="49.85263" lon="2.45011">
        <ele>114.2</ele>
        <time>2024-01-24T13:13:58Z</time>
      </trkpt>
      <trkpt lat="49.85263" lon="2.45011">
        <ele>114.2</ele>
        <time>2024-01-24T13:13:59Z</time>
      </trkpt>
      <trkpt lat="49.85263" lon="2.45011">
        <ele>114.2</ele>
        <time>2024-01-24T13:14:01Z</time>
      </trkpt>
      <trkpt lat="49.85263" lon="2.45011">
        <ele>114.2</ele>
        <time>2024-01-24T13:14:02Z</time>
      </trkpt>
      <trkpt lat="49.85263" lon="2.45011">
        <ele>114.2</ele>
        <time>2024-01-24T13:14:03Z</time>
      </trkpt>
      <trkpt lat="49.85263" lon="2.45011">
        <ele>114.2</ele>
        <time>2024-01-24T13:14:05Z</time>
      </trkpt>
      <trkpt lat="49.85263" lon="2.45011">
        <ele>114.2</ele>
        <time>2024-01-24T13:14:06Z</time>
      </trkpt>
      <trkpt lat="49.85264" lon="2.45007">
        <ele>114.2</ele>
        <time>2024-01-24T13:15:13Z</time>
      </trkpt>
      <trkpt lat="49.85264" lon="2.45005">
        <ele>114.1</ele>
        <time>2024-01-24T13:15:14Z</time>
      </trkpt>
      <trkpt lat="49.85264" lon="2.45004">
        <ele>114.1</ele>
        <time>2024-01-24T13:15:15Z</time>
      </trkpt>
      <trkpt lat="49.85264" lon="2.45002">
        <ele>114.1</ele>
        <time>2024-01-24T13:15:17Z</time>
      </trkpt>
      <trkpt lat="49.85264" lon="2.45001">
        <ele>114.1</ele>
        <time>2024-01-24T13:15:18Z</time>
      </trkpt>
      <trkpt lat="49.85264" lon="2.44999">
        <ele>114</ele>
        <time>2024-01-24T13:15:19Z</time>
      </trkpt>
      <trkpt lat="49.85263" lon="2.44998">
        <ele>114</ele>
        <time>2024-01-24T13:15:20Z</time>
      </trkpt>
      <trkpt lat="49.85262" lon="2.44995">
        <ele>114</ele>
        <time>2024-01-24T13:15:21Z</time>
      </trkpt>
      <trkpt lat="49.85262" lon="2.44993">
        <ele>113.9</ele>
        <time>2024-01-24T13:15:22Z</time>
      </trkpt>
      <trkpt lat="49.85261" lon="2.4499">
        <ele>113.9</ele>
        <time>2024-01-24T13:15:23Z</time>
      </trkpt>
      <trkpt lat="49.8526" lon="2.44988">
        <ele>113.9</ele>
        <time>2024-01-24T13:15:25Z</time>
      </trkpt>
      <trkpt lat="49.85257" lon="2.44985">
        <ele>113.8</ele>
        <time>2024-01-24T13:15:26Z</time>
      </trkpt>
      <trkpt lat="49.85256" lon="2.44984">
        <ele>113.7</ele>
        <time>2024-01-24T13:15:27Z</time>
      </trkpt>
      <trkpt lat="49.85255" lon="2.44982">
        <ele>113.7</ele>
        <time>2024-01-24T13:15:28Z</time>
      </trkpt>
      <trkpt lat="49.85254" lon="2.4498">
        <ele>113.7</ele>
        <time>2024-01-24T13:15:29Z</time>
      </trkpt>
      <trkpt lat="49.85253" lon="2.44979">
        <ele>113.6</ele>
        <time>2024-01-24T13:15:30Z</time>
      </trkpt>
      <trkpt lat="49.85252" lon="2.44977">
        <ele>113.6</ele>
        <time>2024-01-24T13:15:31Z</time>
      </trkpt>
      <trkpt lat="49.85251" lon="2.44973">
        <ele>113.5</ele>
        <time>2024-01-24T13:15:32Z</time>
      </trkpt>
      <trkpt lat="49.8525" lon="2.44972">
        <ele>113.5</ele>
        <time>2024-01-24T13:15:33Z</time>
      </trkpt>
      <trkpt lat="49.8525" lon="2.44971">
        <ele>113.5</ele>
        <time>2024-01-24T13:15:35Z</time>
      </trkpt>
      <trkpt lat="49.8525" lon="2.44969">
        <ele>113.5</ele>
        <time>2024-01-24T13:15:36Z</time>
      </trkpt>
      <trkpt lat="49.85249" lon="2.44968">
        <ele>113.4</ele>
        <time>2024-01-24T13:15:37Z</time>
      </trkpt>
      <trkpt lat="49.85249" lon="2.44966">
        <ele>113.4</ele>
        <time>2024-01-24T13:15:38Z</time>
      </trkpt>
      <trkpt lat="49.85248" lon="2.44965">
        <ele>113.4</ele>
        <time>2024-01-24T13:15:39Z</time>
      </trkpt>
      <trkpt lat="49.85247" lon="2.44965">
        <ele>113.4</ele>
        <time>2024-01-24T13:15:40Z</time>
      </trkpt>
      <trkpt lat="49.85246" lon="2.44965">
        <ele>113.4</ele>
        <time>2024-01-24T13:15:41Z</time>
      </trkpt>
      <trkpt lat="49.85245" lon="2.44965">
        <ele>113.3</ele>
        <time>2024-01-24T13:15:43Z</time>
      </trkpt>
      <trkpt lat="49.85244" lon="2.44964">
        <ele>113.3</ele>
        <time>2024-01-24T13:15:44Z</time>
      </trkpt>
      <trkpt lat="49.85244" lon="2.44963">
        <ele>113.3</ele>
        <time>2024-01-24T13:15:45Z</time>
      </trkpt>
      <trkpt lat="49.85244" lon="2.44963">
        <ele>113.3</ele>
        <time>2024-01-24T13:15:47Z</time>
      </trkpt>
      <trkpt lat="49.85243" lon="2.44962">
        <ele>113.3</ele>
        <time>2024-01-24T13:15:48Z</time>
      </trkpt>
      <trkpt lat="49.85243" lon="2.44962">
        <ele>113.3</ele>
        <time>2024-01-24T13:15:50Z</time>
      </trkpt>
      <trkpt lat="49.85242" lon="2.44961">
        <ele>113.2</ele>
        <time>2024-01-24T13:15:51Z</time>
      </trkpt>
      <trkpt lat="49.85242" lon="2.44961">
        <ele>113.2</ele>
        <time>2024-01-24T13:15:52Z</time>
      </trkpt>
      <trkpt lat="49.85241" lon="2.4496">
        <ele>113.2</ele>
        <time>2024-01-24T13:15:54Z</time>
      </trkpt>
      <trkpt lat="49.85241" lon="2.44961">
        <ele>113.2</ele>
        <time>2024-01-24T13:15:55Z</time>
      </trkpt>
      <trkpt lat="49.85241" lon="2.44961">
        <ele>113.2</ele>
        <time>2024-01-24T13:15:57Z</time>
      </trkpt>
      <trkpt lat="49.85241" lon="2.44961">
        <ele>113.2</ele>
        <time>2024-01-24T13:15:58Z</time>
      </trkpt>
      <trkpt lat="49.85241" lon="2.44961">
        <ele>113.2</ele>
        <time>2024-01-24T13:16:00Z</time>
      </trkpt>
      <trkpt lat="49.85241" lon="2.44961">
        <ele>113.2</ele>
        <time>2024-01-24T13:16:01Z</time>
      </trkpt>
      <trkpt lat="49.85241" lon="2.44961">
        <ele>113.2</ele>
        <time>2024-01-24T13:16:02Z</time>
      </trkpt>
      <trkpt lat="49.85242" lon="2.44961">
        <ele>113.2</ele>
        <time>2024-01-24T13:16:04Z</time>
      </trkpt>
      <trkpt lat="49.85242" lon="2.44961">
        <ele>113.2</ele>
        <time>2024-01-24T13:16:05Z</time>
      </trkpt>
      <trkpt lat="49.85243" lon="2.44961">
        <ele>113.2</ele>
        <time>2024-01-24T13:16:06Z</time>
      </trkpt>
      <trkpt lat="49.85243" lon="2.44957">
        <ele>113.1</ele>
        <time>2024-01-24T13:16:13Z</time>
      </trkpt>
      <trkpt lat="49.85244" lon="2.44955">
        <ele>113.1</ele>
        <time>2024-01-24T13:16:14Z</time>
      </trkpt>
      <trkpt lat="49.85244" lon="2.44954">
        <ele>113</ele>
        <time>2024-01-24T13:16:15Z</time>
      </trkpt>
      <trkpt lat="49.85244" lon="2.44952">
        <ele>113</ele>
        <time>2024-01-24T13:16:16Z</time>
      </trkpt>
      <trkpt lat="49.85245" lon="2.44949">
        <ele>113</ele>
        <time>2024-01-24T13:16:17Z</time>
      </trkpt>
      <trkpt lat="49.85244" lon="2.44947">
        <ele>112.9</ele>
        <time>2024-01-24T13:16:18Z</time>
      </trkpt>
      <trkpt lat="49.85244" lon="2.44946">
        <ele>112.9</ele>
        <time>2024-01-24T13:16:19Z</time>
      </trkpt>
      <trkpt lat="49.85244" lon="2.44944">
        <ele>112.9</ele>
        <time>2024-01-24T13:16:21Z</time>
      </trkpt>
      <trkpt lat="49.85244" lon="2.44941">
        <ele>112.9</ele>
        <time>2024-01-24T13:16:22Z</time>
      </trkpt>
      <trkpt lat="49.85243" lon="2.44938">
        <ele>112.8</ele>
        <time>2024-01-24T13:16:23Z</time>
      </trkpt>
      <trkpt lat="49.85243" lon="2.44937">
        <ele>112.8</ele>
        <time>2024-01-24T13:16:24Z</time>
      </trkpt>
      <trkpt lat="49.85242" lon="2.44936">
        <ele>112.8</ele>
        <time>2024-01-24T13:16:25Z</time>
      </trkpt>
      <trkpt lat="49.85242" lon="2.44934">
        <ele>112.7</ele>
        <time>2024-01-24T13:16:26Z</time>
      </trkpt>
      <trkpt lat="49.85241" lon="2.44932">
        <ele>112.7</ele>
        <time>2024-01-24T13:16:27Z</time>
      </trkpt>
      <trkpt lat="49.8524" lon="2.44928">
        <ele>112.7</ele>
        <time>2024-01-24T13:16:28Z</time>
      </trkpt>
      <trkpt lat="49.8524" lon="2.44927">
        <ele>112.6</ele>
        <time>2024-01-24T13:16:30Z</time>
      </trkpt>
      <trkpt lat="49.85239" lon="2.44925">
        <ele>112.6</ele>
        <time>2024-01-24T13:16:31Z</time>
      </trkpt>
      <trkpt lat="49.85239" lon="2.44924">
        <ele>112.6</ele>
        <time>2024-01-24T13:16:32Z</time>
      </trkpt>
      <trkpt lat="49.85238" lon="2.44922">
        <ele>112.6</ele>
        <time>2024-01-24T13:16:33Z</time>
      </trkpt>
      <trkpt lat="49.85238" lon="2.44919">
        <ele>112.5</ele>
        <time>2024-01-24T13:16:34Z</time>
      </trkpt>
      <trkpt lat="49.85237" lon="2.44918">
        <ele>112.5</ele>
        <time>2024-01-24T13:16:35Z</time>
      </trkpt>
      <trkpt lat="49.85237" lon="2.44916">
        <ele>112.5</ele>
        <time>2024-01-24T13:16:36Z</time>
      </trkpt>
      <trkpt lat="49.85236" lon="2.44914">
        <ele>112.4</ele>
        <time>2024-01-24T13:16:37Z</time>
      </trkpt>
      <trkpt lat="49.85236" lon="2.44912">
        <ele>112.4</ele>
        <time>2024-01-24T13:16:39Z</time>
      </trkpt>
      <trkpt lat="49.85235" lon="2.44911">
        <ele>112.4</ele>
        <time>2024-01-24T13:16:40Z</time>
      </trkpt>
      <trkpt lat="49.85235" lon="2.44909">
        <ele>112.4</ele>
        <time>2024-01-24T13:16:41Z</time>
      </trkpt>
      <trkpt lat="49.85235" lon="2.44908">
        <ele>112.4</ele>
        <time>2024-01-24T13:16:42Z</time>
      </trkpt>
      <trkpt lat="49.85234" lon="2.44906">
        <ele>112.3</ele>
        <time>2024-01-24T13:16:43Z</time>
      </trkpt>
      <trkpt lat="49.85233" lon="2.44903">
        <ele>112.3</ele>
        <time>2024-01-24T13:16:44Z</time>
      </trkpt>
      <trkpt lat="49.85233" lon="2.44902">
        <ele>112.3</ele>
        <time>2024-01-24T13:16:45Z</time>
      </trkpt>
      <trkpt lat="49.85233" lon="2.44901">
        <ele>112.3</ele>
        <time>2024-01-24T13:16:46Z</time>
      </trkpt>
      <trkpt lat="49.85232" lon="2.44896">
        <ele>112.2</ele>
        <time>2024-01-24T13:16:48Z</time>
      </trkpt>
      <trkpt lat="49.85231" lon="2.44895">
        <ele>112.2</ele>
        <time>2024-01-24T13:16:49Z</time>
      </trkpt>
      <trkpt lat="49.85231" lon="2.44893">
        <ele>112.1</ele>
        <time>2024-01-24T13:16:50Z</time>
      </trkpt>
      <trkpt lat="49.8523" lon="2.44891">
        <ele>112.1</ele>
        <time>2024-01-24T13:16:51Z</time>
      </trkpt>
      <trkpt lat="49.85229" lon="2.44889">
        <ele>112.1</ele>
        <time>2024-01-24T13:16:52Z</time>
      </trkpt>
      <trkpt lat="49.85229" lon="2.44888">
        <ele>112.1</ele>
        <time>2024-01-24T13:16:53Z</time>
      </trkpt>
      <trkpt lat="49.85228" lon="2.44885">
        <ele>112</ele>
        <time>2024-01-24T13:16:55Z</time>
      </trkpt>
      <trkpt lat="49.85227" lon="2.44884">
        <ele>112</ele>
        <time>2024-01-24T13:16:56Z</time>
      </trkpt>
      <trkpt lat="49.85227" lon="2.44883">
        <ele>112</ele>
        <time>2024-01-24T13:16:57Z</time>
      </trkpt>
      <trkpt lat="49.85226" lon="2.4488">
        <ele>111.9</ele>
        <time>2024-01-24T13:16:58Z</time>
      </trkpt>
      <trkpt lat="49.85226" lon="2.44879">
        <ele>111.9</ele>
        <time>2024-01-24T13:16:59Z</time>
      </trkpt>
      <trkpt lat="49.85225" lon="2.44877">
        <ele>111.9</ele>
        <time>2024-01-24T13:17:00Z</time>
      </trkpt>
      <trkpt lat="49.85225" lon="2.44875">
        <ele>111.8</ele>
        <time>2024-01-24T13:17:01Z</time>
      </trkpt>
      <trkpt lat="49.85224" lon="2.44873">
        <ele>111.8</ele>
        <time>2024-01-24T13:17:02Z</time>
      </trkpt>
      <trkpt lat="49.85223" lon="2.4487">
        <ele>111.7</ele>
        <time>2024-01-24T13:17:04Z</time>
      </trkpt>
      <trkpt lat="49.85222" lon="2.44868">
        <ele>111.7</ele>
        <time>2024-01-24T13:17:05Z</time>
      </trkpt>
      <trkpt lat="49.85222" lon="2.44867">
        <ele>111.7</ele>
        <time>2024-01-24T13:17:06Z</time>
      </trkpt>
      <trkpt lat="49.85221" lon="2.44865">
        <ele>111.7</ele>
        <time>2024-01-24T13:17:07Z</time>
      </trkpt>
      <trkpt lat="49.8522" lon="2.44864">
        <ele>111.6</ele>
        <time>2024-01-24T13:17:08Z</time>
      </trkpt>
      <trkpt lat="49.8522" lon="2.44862">
        <ele>111.6</ele>
        <time>2024-01-24T13:17:09Z</time>
      </trkpt>
      <trkpt lat="49.85219" lon="2.44861">
        <ele>111.6</ele>
        <time>2024-01-24T13:17:10Z</time>
      </trkpt>
      <trkpt lat="49.85219" lon="2.4486">
        <ele>111.6</ele>
        <time>2024-01-24T13:17:11Z</time>
      </trkpt>
      <trkpt lat="49.85218" lon="2.44858">
        <ele>111.6</ele>
        <time>2024-01-24T13:17:12Z</time>
      </trkpt>
      <trkpt lat="49.85218" lon="2.44856">
        <ele>111.5</ele>
        <time>2024-01-24T13:17:14Z</time>
      </trkpt>
      <trkpt lat="49.85217" lon="2.44854">
        <ele>111.5</ele>
        <time>2024-01-24T13:17:15Z</time>
      </trkpt>
      <trkpt lat="49.85217" lon="2.44853">
        <ele>111.5</ele>
        <time>2024-01-24T13:17:16Z</time>
      </trkpt>
      <trkpt lat="49.85216" lon="2.44851">
        <ele>111.5</ele>
        <time>2024-01-24T13:17:17Z</time>
      </trkpt>
      <trkpt lat="49.85215" lon="2.44847">
        <ele>111.4</ele>
        <time>2024-01-24T13:17:18Z</time>
      </trkpt>
      <trkpt lat="49.85214" lon="2.44846">
        <ele>111.4</ele>
        <time>2024-01-24T13:17:19Z</time>
      </trkpt>
      <trkpt lat="49.85213" lon="2.44843">
        <ele>111.4</ele>
        <time>2024-01-24T13:17:20Z</time>
      </trkpt>
      <trkpt lat="49.85213" lon="2.44842">
        <ele>111.3</ele>
        <time>2024-01-24T13:17:22Z</time>
      </trkpt>
      <trkpt lat="49.85212" lon="2.44841">
        <ele>111.3</ele>
        <time>2024-01-24T13:17:23Z</time>
      </trkpt>
      <trkpt lat="49.85212" lon="2.4484">
        <ele>111.3</ele>
        <time>2024-01-24T13:17:24Z</time>
      </trkpt>
      <trkpt lat="49.85211" lon="2.44837">
        <ele>111.3</ele>
        <time>2024-01-24T13:17:25Z</time>
      </trkpt>
      <trkpt lat="49.8521" lon="2.44835">
        <ele>111.2</ele>
        <time>2024-01-24T13:17:26Z</time>
      </trkpt>
      <trkpt lat="49.8521" lon="2.44833">
        <ele>111.2</ele>
        <time>2024-01-24T13:17:27Z</time>
      </trkpt>
      <trkpt lat="49.85209" lon="2.44832">
        <ele>111.2</ele>
        <time>2024-01-24T13:17:29Z</time>
      </trkpt>
      <trkpt lat="49.85209" lon="2.44831">
        <ele>111.2</ele>
        <time>2024-01-24T13:17:30Z</time>
      </trkpt>
      <trkpt lat="49.85208" lon="2.44829">
        <ele>111.2</ele>
        <time>2024-01-24T13:17:31Z</time>
      </trkpt>
      <trkpt lat="49.85208" lon="2.44828">
        <ele>111.2</ele>
        <time>2024-01-24T13:17:32Z</time>
      </trkpt>
      <trkpt lat="49.85207" lon="2.44826">
        <ele>111.1</ele>
        <time>2024-01-24T13:17:33Z</time>
      </trkpt>
      <trkpt lat="49.85206" lon="2.44825">
        <ele>111.1</ele>
        <time>2024-01-24T13:17:34Z</time>
      </trkpt>
      <trkpt lat="49.85206" lon="2.44823">
        <ele>111.1</ele>
        <time>2024-01-24T13:17:36Z</time>
      </trkpt>
      <trkpt lat="49.85205" lon="2.4482">
        <ele>111.1</ele>
        <time>2024-01-24T13:17:37Z</time>
      </trkpt>
      <trkpt lat="49.85204" lon="2.44819">
        <ele>111.1</ele>
        <time>2024-01-24T13:17:38Z</time>
      </trkpt>
      <trkpt lat="49.85203" lon="2.44818">
        <ele>111</ele>
        <time>2024-01-24T13:17:39Z</time>
      </trkpt>
      <trkpt lat="49.85203" lon="2.44816">
        <ele>111</ele>
        <time>2024-01-24T13:17:40Z</time>
      </trkpt>
      <trkpt lat="49.85202" lon="2.44814">
        <ele>111</ele>
        <time>2024-01-24T13:17:41Z</time>
      </trkpt>
      <trkpt lat="49.85201" lon="2.44812">
        <ele>111</ele>
        <time>2024-01-24T13:17:42Z</time>
      </trkpt>
      <trkpt lat="49.852" lon="2.44811">
        <ele>111</ele>
        <time>2024-01-24T13:17:43Z</time>
      </trkpt>
      <trkpt lat="49.852" lon="2.44809">
        <ele>110.9</ele>
        <time>2024-01-24T13:17:44Z</time>
      </trkpt>
      <trkpt lat="49.85199" lon="2.44806">
        <ele>110.9</ele>
        <time>2024-01-24T13:17:46Z</time>
      </trkpt>
      <trkpt lat="49.85199" lon="2.44805">
        <ele>110.9</ele>
        <time>2024-01-24T13:17:47Z</time>
      </trkpt>
      <trkpt lat="49.85198" lon="2.44804">
        <ele>110.9</ele>
        <time>2024-01-24T13:17:48Z</time>
      </trkpt>
      <trkpt lat="49.85197" lon="2.44801">
        <ele>110.8</ele>
        <time>2024-01-24T13:17:49Z</time>
      </trkpt>
      <trkpt lat="49.85197" lon="2.448">
        <ele>110.8</ele>
        <time>2024-01-24T13:17:50Z</time>
      </trkpt>
      <trkpt lat="49.85197" lon="2.44799">
        <ele>110.8</ele>
        <time>2024-01-24T13:17:51Z</time>
      </trkpt>
      <trkpt lat="49.85196" lon="2.44796">
        <ele>110.8</ele>
        <time>2024-01-24T13:17:52Z</time>
      </trkpt>
      <trkpt lat="49.85196" lon="2.44794">
        <ele>110.8</ele>
        <time>2024-01-24T13:17:53Z</time>
      </trkpt>
      <trkpt lat="49.85195" lon="2.44793">
        <ele>110.8</ele>
        <time>2024-01-24T13:17:54Z</time>
      </trkpt>
      <trkpt lat="49.85195" lon="2.44789">
        <ele>110.7</ele>
        <time>2024-01-24T13:17:55Z</time>
      </trkpt>
      <trkpt lat="49.85194" lon="2.44788">
        <ele>110.7</ele>
        <time>2024-01-24T13:17:57Z</time>
      </trkpt>
      <trkpt lat="49.85194" lon="2.44786">
        <ele>110.7</ele>
        <time>2024-01-24T13:17:58Z</time>
      </trkpt>
      <trkpt lat="49.85193" lon="2.44785">
        <ele>110.7</ele>
        <time>2024-01-24T13:17:59Z</time>
      </trkpt>
      <trkpt lat="49.85193" lon="2.44783">
        <ele>110.7</ele>
        <time>2024-01-24T13:18:00Z</time>
      </trkpt>
      <trkpt lat="49.85192" lon="2.4478">
        <ele>110.6</ele>
        <time>2024-01-24T13:18:01Z</time>
      </trkpt>
      <trkpt lat="49.85192" lon="2.44779">
        <ele>110.6</ele>
        <time>2024-01-24T13:18:02Z</time>
      </trkpt>
      <trkpt lat="49.85192" lon="2.44777">
        <ele>110.6</ele>
        <time>2024-01-24T13:18:03Z</time>
      </trkpt>
      <trkpt lat="49.85191" lon="2.44775">
        <ele>110.6</ele>
        <time>2024-01-24T13:18:04Z</time>
      </trkpt>
      <trkpt lat="49.85191" lon="2.44773">
        <ele>110.6</ele>
        <time>2024-01-24T13:18:05Z</time>
      </trkpt>
      <trkpt lat="49.8519" lon="2.44771">
        <ele>110.6</ele>
        <time>2024-01-24T13:18:06Z</time>
      </trkpt>
      <trkpt lat="49.85189" lon="2.44768">
        <ele>110.5</ele>
        <time>2024-01-24T13:18:08Z</time>
      </trkpt>
      <trkpt lat="49.85189" lon="2.44766">
        <ele>110.5</ele>
        <time>2024-01-24T13:18:09Z</time>
      </trkpt>
      <trkpt lat="49.85188" lon="2.44763">
        <ele>110.5</ele>
        <time>2024-01-24T13:18:10Z</time>
      </trkpt>
      <trkpt lat="49.85187" lon="2.44761">
        <ele>110.4</ele>
        <time>2024-01-24T13:18:12Z</time>
      </trkpt>
      <trkpt lat="49.85187" lon="2.44759">
        <ele>110.4</ele>
        <time>2024-01-24T13:18:13Z</time>
      </trkpt>
      <trkpt lat="49.85186" lon="2.44757">
        <ele>110.4</ele>
        <time>2024-01-24T13:18:14Z</time>
      </trkpt>
      <trkpt lat="49.85186" lon="2.44755">
        <ele>110.3</ele>
        <time>2024-01-24T13:18:15Z</time>
      </trkpt>
      <trkpt lat="49.85185" lon="2.44752">
        <ele>110.3</ele>
        <time>2024-01-24T13:18:16Z</time>
      </trkpt>
      <trkpt lat="49.85185" lon="2.44751">
        <ele>110.3</ele>
        <time>2024-01-24T13:18:17Z</time>
      </trkpt>
      <trkpt lat="49.85184" lon="2.4475">
        <ele>110.3</ele>
        <time>2024-01-24T13:18:18Z</time>
      </trkpt>
      <trkpt lat="49.85183" lon="2.44747">
        <ele>110.2</ele>
        <time>2024-01-24T13:18:19Z</time>
      </trkpt>
      <trkpt lat="49.85183" lon="2.44746">
        <ele>110.2</ele>
        <time>2024-01-24T13:18:20Z</time>
      </trkpt>
      <trkpt lat="49.85183" lon="2.44745">
        <ele>110.2</ele>
        <time>2024-01-24T13:18:21Z</time>
      </trkpt>
      <trkpt lat="49.85182" lon="2.44742">
        <ele>110.1</ele>
        <time>2024-01-24T13:18:22Z</time>
      </trkpt>
      <trkpt lat="49.85182" lon="2.44741">
        <ele>110.1</ele>
        <time>2024-01-24T13:18:24Z</time>
      </trkpt>
      <trkpt lat="49.85181" lon="2.44739">
        <ele>110.1</ele>
        <time>2024-01-24T13:18:25Z</time>
      </trkpt>
      <trkpt lat="49.85181" lon="2.44738">
        <ele>110.1</ele>
        <time>2024-01-24T13:18:26Z</time>
      </trkpt>
      <trkpt lat="49.8518" lon="2.44736">
        <ele>110</ele>
        <time>2024-01-24T13:18:27Z</time>
      </trkpt>
      <trkpt lat="49.85179" lon="2.44735">
        <ele>110</ele>
        <time>2024-01-24T13:18:28Z</time>
      </trkpt>
      <trkpt lat="49.85178" lon="2.44732">
        <ele>110</ele>
        <time>2024-01-24T13:18:29Z</time>
      </trkpt>
      <trkpt lat="49.85178" lon="2.44731">
        <ele>110</ele>
        <time>2024-01-24T13:18:30Z</time>
      </trkpt>
      <trkpt lat="49.85177" lon="2.4473">
        <ele>109.9</ele>
        <time>2024-01-24T13:18:31Z</time>
      </trkpt>
      <trkpt lat="49.85177" lon="2.44728">
        <ele>109.9</ele>
        <time>2024-01-24T13:18:32Z</time>
      </trkpt>
      <trkpt lat="49.85176" lon="2.44726">
        <ele>109.9</ele>
        <time>2024-01-24T13:18:33Z</time>
      </trkpt>
      <trkpt lat="49.85176" lon="2.44724">
        <ele>109.8</ele>
        <time>2024-01-24T13:18:35Z</time>
      </trkpt>
      <trkpt lat="49.85175" lon="2.44721">
        <ele>109.8</ele>
        <time>2024-01-24T13:18:36Z</time>
      </trkpt>
      <trkpt lat="49.85175" lon="2.4472">
        <ele>109.8</ele>
        <time>2024-01-24T13:18:37Z</time>
      </trkpt>
      <trkpt lat="49.85174" lon="2.44719">
        <ele>109.8</ele>
        <time>2024-01-24T13:18:38Z</time>
      </trkpt>
      <trkpt lat="49.85174" lon="2.44717">
        <ele>109.7</ele>
        <time>2024-01-24T13:18:39Z</time>
      </trkpt>
      <trkpt lat="49.85173" lon="2.44715">
        <ele>109.7</ele>
        <time>2024-01-24T13:18:40Z</time>
      </trkpt>
      <trkpt lat="49.85173" lon="2.44711">
        <ele>109.6</ele>
        <time>2024-01-24T13:18:41Z</time>
      </trkpt>
      <trkpt lat="49.85172" lon="2.44709">
        <ele>109.6</ele>
        <time>2024-01-24T13:18:43Z</time>
      </trkpt>
      <trkpt lat="49.85172" lon="2.44707">
        <ele>109.6</ele>
        <time>2024-01-24T13:18:44Z</time>
      </trkpt>
      <trkpt lat="49.85172" lon="2.44706">
        <ele>109.5</ele>
        <time>2024-01-24T13:18:45Z</time>
      </trkpt>
      <trkpt lat="49.85171" lon="2.44704">
        <ele>109.5</ele>
        <time>2024-01-24T13:18:46Z</time>
      </trkpt>
      <trkpt lat="49.85171" lon="2.44703">
        <ele>109.5</ele>
        <time>2024-01-24T13:18:47Z</time>
      </trkpt>
      <trkpt lat="49.8517" lon="2.44701">
        <ele>109.5</ele>
        <time>2024-01-24T13:18:48Z</time>
      </trkpt>
      <trkpt lat="49.8517" lon="2.447">
        <ele>109.4</ele>
        <time>2024-01-24T13:18:49Z</time>
      </trkpt>
      <trkpt lat="49.85169" lon="2.44696">
        <ele>109.4</ele>
        <time>2024-01-24T13:18:50Z</time>
      </trkpt>
      <trkpt lat="49.85169" lon="2.44695">
        <ele>109.4</ele>
        <time>2024-01-24T13:18:52Z</time>
      </trkpt>
      <trkpt lat="49.85169" lon="2.44693">
        <ele>109.3</ele>
        <time>2024-01-24T13:18:53Z</time>
      </trkpt>
      <trkpt lat="49.85168" lon="2.44692">
        <ele>109.3</ele>
        <time>2024-01-24T13:18:54Z</time>
      </trkpt>
      <trkpt lat="49.85168" lon="2.44691">
        <ele>109.3</ele>
        <time>2024-01-24T13:18:55Z</time>
      </trkpt>
      <trkpt lat="49.85167" lon="2.44688">
        <ele>109.2</ele>
        <time>2024-01-24T13:18:56Z</time>
      </trkpt>
      <trkpt lat="49.85166" lon="2.44686">
        <ele>109.2</ele>
        <time>2024-01-24T13:18:58Z</time>
      </trkpt>
      <trkpt lat="49.85166" lon="2.44684">
        <ele>109.2</ele>
        <time>2024-01-24T13:18:59Z</time>
      </trkpt>
      <trkpt lat="49.85165" lon="2.44683">
        <ele>109.1</ele>
        <time>2024-01-24T13:19:00Z</time>
      </trkpt>
      <trkpt lat="49.85165" lon="2.44681">
        <ele>109.1</ele>
        <time>2024-01-24T13:19:01Z</time>
      </trkpt>
      <trkpt lat="49.85165" lon="2.4468">
        <ele>109.1</ele>
        <time>2024-01-24T13:19:02Z</time>
      </trkpt>
      <trkpt lat="49.85164" lon="2.44679">
        <ele>109.1</ele>
        <time>2024-01-24T13:19:03Z</time>
      </trkpt>
      <trkpt lat="49.85163" lon="2.44677">
        <ele>109</ele>
        <time>2024-01-24T13:19:04Z</time>
      </trkpt>
      <trkpt lat="49.85162" lon="2.44674">
        <ele>109</ele>
        <time>2024-01-24T13:19:06Z</time>
      </trkpt>
      <trkpt lat="49.85162" lon="2.44673">
        <ele>109</ele>
        <time>2024-01-24T13:19:07Z</time>
      </trkpt>
      <trkpt lat="49.85161" lon="2.44672">
        <ele>108.9</ele>
        <time>2024-01-24T13:19:08Z</time>
      </trkpt>
      <trkpt lat="49.85161" lon="2.4467">
        <ele>108.9</ele>
        <time>2024-01-24T13:19:09Z</time>
      </trkpt>
      <trkpt lat="49.8516" lon="2.44669">
        <ele>108.9</ele>
        <time>2024-01-24T13:19:10Z</time>
      </trkpt>
      <trkpt lat="49.8516" lon="2.44667">
        <ele>108.8</ele>
        <time>2024-01-24T13:19:11Z</time>
      </trkpt>
      <trkpt lat="49.85159" lon="2.44665">
        <ele>108.8</ele>
        <time>2024-01-24T13:19:12Z</time>
      </trkpt>
      <trkpt lat="49.85158" lon="2.44663">
        <ele>108.8</ele>
        <time>2024-01-24T13:19:14Z</time>
      </trkpt>
      <trkpt lat="49.85158" lon="2.44662">
        <ele>108.8</ele>
        <time>2024-01-24T13:19:15Z</time>
      </trkpt>
      <trkpt lat="49.85157" lon="2.4466">
        <ele>108.7</ele>
        <time>2024-01-24T13:19:16Z</time>
      </trkpt>
      <trkpt lat="49.85157" lon="2.44658">
        <ele>108.7</ele>
        <time>2024-01-24T13:19:17Z</time>
      </trkpt>
      <trkpt lat="49.85156" lon="2.44655">
        <ele>108.6</ele>
        <time>2024-01-24T13:19:18Z</time>
      </trkpt>
      <trkpt lat="49.85155" lon="2.44654">
        <ele>108.6</ele>
        <time>2024-01-24T13:19:20Z</time>
      </trkpt>
      <trkpt lat="49.85155" lon="2.44652">
        <ele>108.6</ele>
        <time>2024-01-24T13:19:21Z</time>
      </trkpt>
      <trkpt lat="49.85154" lon="2.44649">
        <ele>108.5</ele>
        <time>2024-01-24T13:19:22Z</time>
      </trkpt>
      <trkpt lat="49.85154" lon="2.44648">
        <ele>108.5</ele>
        <time>2024-01-24T13:19:23Z</time>
      </trkpt>
      <trkpt lat="49.85154" lon="2.44646">
        <ele>108.5</ele>
        <time>2024-01-24T13:19:24Z</time>
      </trkpt>
      <trkpt lat="49.85153" lon="2.44644">
        <ele>108.5</ele>
        <time>2024-01-24T13:19:25Z</time>
      </trkpt>
      <trkpt lat="49.85153" lon="2.44642">
        <ele>108.4</ele>
        <time>2024-01-24T13:19:26Z</time>
      </trkpt>
      <trkpt lat="49.85153" lon="2.4464">
        <ele>108.4</ele>
        <time>2024-01-24T13:19:28Z</time>
      </trkpt>
      <trkpt lat="49.85152" lon="2.44638">
        <ele>108.4</ele>
        <time>2024-01-24T13:19:29Z</time>
      </trkpt>
      <trkpt lat="49.85151" lon="2.44636">
        <ele>108.3</ele>
        <time>2024-01-24T13:19:30Z</time>
      </trkpt>
      <trkpt lat="49.85151" lon="2.44634">
        <ele>108.3</ele>
        <time>2024-01-24T13:19:31Z</time>
      </trkpt>
      <trkpt lat="49.8515" lon="2.44631">
        <ele>108.3</ele>
        <time>2024-01-24T13:19:32Z</time>
      </trkpt>
      <trkpt lat="49.85149" lon="2.4463">
        <ele>108.2</ele>
        <time>2024-01-24T13:19:33Z</time>
      </trkpt>
      <trkpt lat="49.85149" lon="2.44628">
        <ele>108.2</ele>
        <time>2024-01-24T13:19:34Z</time>
      </trkpt>
      <trkpt lat="49.85149" lon="2.44627">
        <ele>108.2</ele>
        <time>2024-01-24T13:19:36Z</time>
      </trkpt>
      <trkpt lat="49.85147" lon="2.44624">
        <ele>108.2</ele>
        <time>2024-01-24T13:19:37Z</time>
      </trkpt>
      <trkpt lat="49.85147" lon="2.44621">
        <ele>108.1</ele>
        <time>2024-01-24T13:19:38Z</time>
      </trkpt>
      <trkpt lat="49.85146" lon="2.4462">
        <ele>108.1</ele>
        <time>2024-01-24T13:19:39Z</time>
      </trkpt>
      <trkpt lat="49.85146" lon="2.44619">
        <ele>108.1</ele>
        <time>2024-01-24T13:19:40Z</time>
      </trkpt>
      <trkpt lat="49.85145" lon="2.44615">
        <ele>108</ele>
        <time>2024-01-24T13:19:41Z</time>
      </trkpt>
      <trkpt lat="49.85144" lon="2.44615">
        <ele>108</ele>
        <time>2024-01-24T13:19:42Z</time>
      </trkpt>
      <trkpt lat="49.85143" lon="2.44612">
        <ele>108</ele>
        <time>2024-01-24T13:19:43Z</time>
      </trkpt>
      <trkpt lat="49.85143" lon="2.4461">
        <ele>107.9</ele>
        <time>2024-01-24T13:19:45Z</time>
      </trkpt>
      <trkpt lat="49.85142" lon="2.44609">
        <ele>107.9</ele>
        <time>2024-01-24T13:19:46Z</time>
      </trkpt>
      <trkpt lat="49.85141" lon="2.44605">
        <ele>107.9</ele>
        <time>2024-01-24T13:19:47Z</time>
      </trkpt>
      <trkpt lat="49.85141" lon="2.44604">
        <ele>107.9</ele>
        <time>2024-01-24T13:19:48Z</time>
      </trkpt>
      <trkpt lat="49.8514" lon="2.44603">
        <ele>107.9</ele>
        <time>2024-01-24T13:19:49Z</time>
      </trkpt>
      <trkpt lat="49.85139" lon="2.44601">
        <ele>107.8</ele>
        <time>2024-01-24T13:19:50Z</time>
      </trkpt>
      <trkpt lat="49.85138" lon="2.44599">
        <ele>107.8</ele>
        <time>2024-01-24T13:19:51Z</time>
      </trkpt>
      <trkpt lat="49.85138" lon="2.44597">
        <ele>107.8</ele>
        <time>2024-01-24T13:19:53Z</time>
      </trkpt>
      <trkpt lat="49.85137" lon="2.44595">
        <ele>107.7</ele>
        <time>2024-01-24T13:19:54Z</time>
      </trkpt>
      <trkpt lat="49.85136" lon="2.44592">
        <ele>107.7</ele>
        <time>2024-01-24T13:19:55Z</time>
      </trkpt>
      <trkpt lat="49.85135" lon="2.44591">
        <ele>107.7</ele>
        <time>2024-01-24T13:19:56Z</time>
      </trkpt>
      <trkpt lat="49.85135" lon="2.4459">
        <ele>107.7</ele>
        <time>2024-01-24T13:19:57Z</time>
      </trkpt>
      <trkpt lat="49.85134" lon="2.44589">
        <ele>107.7</ele>
        <time>2024-01-24T13:19:58Z</time>
      </trkpt>
      <trkpt lat="49.85133" lon="2.44586">
        <ele>107.6</ele>
        <time>2024-01-24T13:20:00Z</time>
      </trkpt>
      <trkpt lat="49.85132" lon="2.44583">
        <ele>107.6</ele>
        <time>2024-01-24T13:20:01Z</time>
      </trkpt>
      <trkpt lat="49.85132" lon="2.44582">
        <ele>107.6</ele>
        <time>2024-01-24T13:20:02Z</time>
      </trkpt>
      <trkpt lat="49.85131" lon="2.4458">
        <ele>107.6</ele>
        <time>2024-01-24T13:20:03Z</time>
      </trkpt>
      <trkpt lat="49.85131" lon="2.44578">
        <ele>107.6</ele>
        <time>2024-01-24T13:20:04Z</time>
      </trkpt>
      <trkpt lat="49.8513" lon="2.44577">
        <ele>107.5</ele>
        <time>2024-01-24T13:20:06Z</time>
      </trkpt>
      <trkpt lat="49.8513" lon="2.44575">
        <ele>107.5</ele>
        <time>2024-01-24T13:20:07Z</time>
      </trkpt>
      <trkpt lat="49.85129" lon="2.44574">
        <ele>107.5</ele>
        <time>2024-01-24T13:20:08Z</time>
      </trkpt>
      <trkpt lat="49.85129" lon="2.44573">
        <ele>107.5</ele>
        <time>2024-01-24T13:20:09Z</time>
      </trkpt>
      <trkpt lat="49.85128" lon="2.44571">
        <ele>107.5</ele>
        <time>2024-01-24T13:20:10Z</time>
      </trkpt>
      <trkpt lat="49.85128" lon="2.44568">
        <ele>107.5</ele>
        <time>2024-01-24T13:20:11Z</time>
      </trkpt>
      <trkpt lat="49.85128" lon="2.44567">
        <ele>107.5</ele>
        <time>2024-01-24T13:20:13Z</time>
      </trkpt>
      <trkpt lat="49.85128" lon="2.44566">
        <ele>107.4</ele>
        <time>2024-01-24T13:20:14Z</time>
      </trkpt>
      <trkpt lat="49.85127" lon="2.44564">
        <ele>107.4</ele>
        <time>2024-01-24T13:20:15Z</time>
      </trkpt>
      <trkpt lat="49.85127" lon="2.44563">
        <ele>107.4</ele>
        <time>2024-01-24T13:20:16Z</time>
      </trkpt>
      <trkpt lat="49.85126" lon="2.4456">
        <ele>107.4</ele>
        <time>2024-01-24T13:20:17Z</time>
      </trkpt>
      <trkpt lat="49.85125" lon="2.44557">
        <ele>107.4</ele>
        <time>2024-01-24T13:20:18Z</time>
      </trkpt>
      <trkpt lat="49.85125" lon="2.44556">
        <ele>107.3</ele>
        <time>2024-01-24T13:20:19Z</time>
      </trkpt>
      <trkpt lat="49.85125" lon="2.44555">
        <ele>107.3</ele>
        <time>2024-01-24T13:20:20Z</time>
      </trkpt>
      <trkpt lat="49.85124" lon="2.44552">
        <ele>107.3</ele>
        <time>2024-01-24T13:20:21Z</time>
      </trkpt>
      <trkpt lat="49.85123" lon="2.44551">
        <ele>107.3</ele>
        <time>2024-01-24T13:20:22Z</time>
      </trkpt>
      <trkpt lat="49.85123" lon="2.44548">
        <ele>107.3</ele>
        <time>2024-01-24T13:20:24Z</time>
      </trkpt>
      <trkpt lat="49.85122" lon="2.44547">
        <ele>107.2</ele>
        <time>2024-01-24T13:20:25Z</time>
      </trkpt>
      <trkpt lat="49.85122" lon="2.44546">
        <ele>107.2</ele>
        <time>2024-01-24T13:20:26Z</time>
      </trkpt>
      <trkpt lat="49.85121" lon="2.44543">
        <ele>107.2</ele>
        <time>2024-01-24T13:20:27Z</time>
      </trkpt>
      <trkpt lat="49.85121" lon="2.44541">
        <ele>107.2</ele>
        <time>2024-01-24T13:20:28Z</time>
      </trkpt>
      <trkpt lat="49.8512" lon="2.4454">
        <ele>107.2</ele>
        <time>2024-01-24T13:20:29Z</time>
      </trkpt>
      <trkpt lat="49.8512" lon="2.44538">
        <ele>107.2</ele>
        <time>2024-01-24T13:20:30Z</time>
      </trkpt>
      <trkpt lat="49.85119" lon="2.44535">
        <ele>107.1</ele>
        <time>2024-01-24T13:20:31Z</time>
      </trkpt>
      <trkpt lat="49.85118" lon="2.44534">
        <ele>107.1</ele>
        <time>2024-01-24T13:20:33Z</time>
      </trkpt>
      <trkpt lat="49.85118" lon="2.44533">
        <ele>107.1</ele>
        <time>2024-01-24T13:20:34Z</time>
      </trkpt>
      <trkpt lat="49.85117" lon="2.44531">
        <ele>107.1</ele>
        <time>2024-01-24T13:20:35Z</time>
      </trkpt>
      <trkpt lat="49.85116" lon="2.44529">
        <ele>107.1</ele>
        <time>2024-01-24T13:20:36Z</time>
      </trkpt>
      <trkpt lat="49.85116" lon="2.44527">
        <ele>107</ele>
        <time>2024-01-24T13:20:37Z</time>
      </trkpt>
      <trkpt lat="49.85115" lon="2.44525">
        <ele>107</ele>
        <time>2024-01-24T13:20:38Z</time>
      </trkpt>
      <trkpt lat="49.85114" lon="2.44522">
        <ele>107</ele>
        <time>2024-01-24T13:20:40Z</time>
      </trkpt>
      <trkpt lat="49.85114" lon="2.4452">
        <ele>107</ele>
        <time>2024-01-24T13:20:41Z</time>
      </trkpt>
      <trkpt lat="49.85113" lon="2.44517">
        <ele>107</ele>
        <time>2024-01-24T13:20:42Z</time>
      </trkpt>
      <trkpt lat="49.85112" lon="2.44516">
        <ele>107</ele>
        <time>2024-01-24T13:20:43Z</time>
      </trkpt>
      <trkpt lat="49.85112" lon="2.44515">
        <ele>106.9</ele>
        <time>2024-01-24T13:20:44Z</time>
      </trkpt>
      <trkpt lat="49.85111" lon="2.44513">
        <ele>106.9</ele>
        <time>2024-01-24T13:20:45Z</time>
      </trkpt>
      <trkpt lat="49.85111" lon="2.44512">
        <ele>106.9</ele>
        <time>2024-01-24T13:20:46Z</time>
      </trkpt>
      <trkpt lat="49.8511" lon="2.4451">
        <ele>106.9</ele>
        <time>2024-01-24T13:20:48Z</time>
      </trkpt>
      <trkpt lat="49.85109" lon="2.44507">
        <ele>106.9</ele>
        <time>2024-01-24T13:20:49Z</time>
      </trkpt>
      <trkpt lat="49.85108" lon="2.44506">
        <ele>106.9</ele>
        <time>2024-01-24T13:20:50Z</time>
      </trkpt>
      <trkpt lat="49.85108" lon="2.44504">
        <ele>106.9</ele>
        <time>2024-01-24T13:20:51Z</time>
      </trkpt>
      <trkpt lat="49.85107" lon="2.44502">
        <ele>106.8</ele>
        <time>2024-01-24T13:20:52Z</time>
      </trkpt>
      <trkpt lat="49.85106" lon="2.44501">
        <ele>106.8</ele>
        <time>2024-01-24T13:20:53Z</time>
      </trkpt>
      <trkpt lat="49.85106" lon="2.445">
        <ele>106.8</ele>
        <time>2024-01-24T13:20:54Z</time>
      </trkpt>
      <trkpt lat="49.85105" lon="2.44496">
        <ele>106.8</ele>
        <time>2024-01-24T13:20:55Z</time>
      </trkpt>
      <trkpt lat="49.85104" lon="2.44495">
        <ele>106.8</ele>
        <time>2024-01-24T13:20:57Z</time>
      </trkpt>
      <trkpt lat="49.85104" lon="2.44494">
        <ele>106.8</ele>
        <time>2024-01-24T13:20:58Z</time>
      </trkpt>
      <trkpt lat="49.85103" lon="2.44491">
        <ele>106.7</ele>
        <time>2024-01-24T13:20:59Z</time>
      </trkpt>
      <trkpt lat="49.85103" lon="2.4449">
        <ele>106.7</ele>
        <time>2024-01-24T13:21:00Z</time>
      </trkpt>
      <trkpt lat="49.85102" lon="2.44489">
        <ele>106.7</ele>
        <time>2024-01-24T13:21:01Z</time>
      </trkpt>
      <trkpt lat="49.85102" lon="2.44487">
        <ele>106.7</ele>
        <time>2024-01-24T13:21:02Z</time>
      </trkpt>
      <trkpt lat="49.85101" lon="2.44486">
        <ele>106.7</ele>
        <time>2024-01-24T13:21:03Z</time>
      </trkpt>
      <trkpt lat="49.85101" lon="2.44484">
        <ele>106.7</ele>
        <time>2024-01-24T13:21:04Z</time>
      </trkpt>
      <trkpt lat="49.851" lon="2.44481">
        <ele>106.7</ele>
        <time>2024-01-24T13:21:06Z</time>
      </trkpt>
      <trkpt lat="49.851" lon="2.4448">
        <ele>106.6</ele>
        <time>2024-01-24T13:21:07Z</time>
      </trkpt>
      <trkpt lat="49.851" lon="2.44479">
        <ele>106.6</ele>
        <time>2024-01-24T13:21:08Z</time>
      </trkpt>
      <trkpt lat="49.851" lon="2.44477">
        <ele>106.6</ele>
        <time>2024-01-24T13:21:09Z</time>
      </trkpt>
      <trkpt lat="49.85099" lon="2.44475">
        <ele>106.6</ele>
        <time>2024-01-24T13:21:10Z</time>
      </trkpt>
      <trkpt lat="49.85099" lon="2.44473">
        <ele>106.6</ele>
        <time>2024-01-24T13:21:11Z</time>
      </trkpt>
      <trkpt lat="49.85099" lon="2.44471">
        <ele>106.6</ele>
        <time>2024-01-24T13:21:12Z</time>
      </trkpt>
      <trkpt lat="49.85098" lon="2.4447">
        <ele>106.6</ele>
        <time>2024-01-24T13:21:13Z</time>
      </trkpt>
      <trkpt lat="49.85098" lon="2.44468">
        <ele>106.5</ele>
        <time>2024-01-24T13:21:15Z</time>
      </trkpt>
      <trkpt lat="49.85098" lon="2.44467">
        <ele>106.5</ele>
        <time>2024-01-24T13:21:16Z</time>
      </trkpt>
      <trkpt lat="49.85098" lon="2.44466">
        <ele>106.5</ele>
        <time>2024-01-24T13:21:17Z</time>
      </trkpt>
      <trkpt lat="49.85097" lon="2.44464">
        <ele>106.5</ele>
        <time>2024-01-24T13:21:18Z</time>
      </trkpt>
      <trkpt lat="49.85097" lon="2.44462">
        <ele>106.5</ele>
        <time>2024-01-24T13:21:19Z</time>
      </trkpt>
      <trkpt lat="49.85097" lon="2.44461">
        <ele>106.5</ele>
        <time>2024-01-24T13:21:20Z</time>
      </trkpt>
      <trkpt lat="49.85097" lon="2.44459">
        <ele>106.5</ele>
        <time>2024-01-24T13:21:21Z</time>
      </trkpt>
      <trkpt lat="49.85097" lon="2.44457">
        <ele>106.4</ele>
        <time>2024-01-24T13:21:22Z</time>
      </trkpt>
      <trkpt lat="49.85097" lon="2.44456">
        <ele>106.4</ele>
        <time>2024-01-24T13:21:23Z</time>
      </trkpt>
      <trkpt lat="49.85097" lon="2.44454">
        <ele>106.4</ele>
        <time>2024-01-24T13:21:25Z</time>
      </trkpt>
      <trkpt lat="49.85097" lon="2.44452">
        <ele>106.4</ele>
        <time>2024-01-24T13:21:26Z</time>
      </trkpt>
      <trkpt lat="49.85097" lon="2.44449">
        <ele>106.4</ele>
        <time>2024-01-24T13:21:27Z</time>
      </trkpt>
      <trkpt lat="49.85097" lon="2.44448">
        <ele>106.4</ele>
        <time>2024-01-24T13:21:28Z</time>
      </trkpt>
      <trkpt lat="49.85097" lon="2.44446">
        <ele>106.4</ele>
        <time>2024-01-24T13:21:29Z</time>
      </trkpt>
      <trkpt lat="49.85097" lon="2.44445">
        <ele>106.4</ele>
        <time>2024-01-24T13:21:30Z</time>
      </trkpt>
      <trkpt lat="49.85098" lon="2.44441">
        <ele>106.4</ele>
        <time>2024-01-24T13:21:32Z</time>
      </trkpt>
      <trkpt lat="49.85099" lon="2.4444">
        <ele>106.4</ele>
        <time>2024-01-24T13:21:33Z</time>
      </trkpt>
      <trkpt lat="49.85099" lon="2.44439">
        <ele>106.4</ele>
        <time>2024-01-24T13:21:34Z</time>
      </trkpt>
      <trkpt lat="49.851" lon="2.44437">
        <ele>106.4</ele>
        <time>2024-01-24T13:21:35Z</time>
      </trkpt>
      <trkpt lat="49.85101" lon="2.44436">
        <ele>106.4</ele>
        <time>2024-01-24T13:21:36Z</time>
      </trkpt>
      <trkpt lat="49.85102" lon="2.44434">
        <ele>106.4</ele>
        <time>2024-01-24T13:21:37Z</time>
      </trkpt>
      <trkpt lat="49.85103" lon="2.44433">
        <ele>106.4</ele>
        <time>2024-01-24T13:21:38Z</time>
      </trkpt>
      <trkpt lat="49.85104" lon="2.44432">
        <ele>106.4</ele>
        <time>2024-01-24T13:21:40Z</time>
      </trkpt>
      <trkpt lat="49.85105" lon="2.44431">
        <ele>106.4</ele>
        <time>2024-01-24T13:21:41Z</time>
      </trkpt>
      <trkpt lat="49.85107" lon="2.4443">
        <ele>106.4</ele>
        <time>2024-01-24T13:21:42Z</time>
      </trkpt>
      <trkpt lat="49.85108" lon="2.44429">
        <ele>106.4</ele>
        <time>2024-01-24T13:21:43Z</time>
      </trkpt>
      <trkpt lat="49.85109" lon="2.44428">
        <ele>106.4</ele>
        <time>2024-01-24T13:21:44Z</time>
      </trkpt>
      <trkpt lat="49.85111" lon="2.44427">
        <ele>106.4</ele>
        <time>2024-01-24T13:21:45Z</time>
      </trkpt>
      <trkpt lat="49.85112" lon="2.44427">
        <ele>106.4</ele>
        <time>2024-01-24T13:21:46Z</time>
      </trkpt>
      <trkpt lat="49.85115" lon="2.44425">
        <ele>106.4</ele>
        <time>2024-01-24T13:21:47Z</time>
      </trkpt>
      <trkpt lat="49.85116" lon="2.44425">
        <ele>106.4</ele>
        <time>2024-01-24T13:21:48Z</time>
      </trkpt>
      <trkpt lat="49.85117" lon="2.44425">
        <ele>106.4</ele>
        <time>2024-01-24T13:21:49Z</time>
      </trkpt>
      <trkpt lat="49.85118" lon="2.44424">
        <ele>106.4</ele>
        <time>2024-01-24T13:21:51Z</time>
      </trkpt>
      <trkpt lat="49.8512" lon="2.44423">
        <ele>106.4</ele>
        <time>2024-01-24T13:21:52Z</time>
      </trkpt>
      <trkpt lat="49.85121" lon="2.44422">
        <ele>106.4</ele>
        <time>2024-01-24T13:21:53Z</time>
      </trkpt>
      <trkpt lat="49.85122" lon="2.44421">
        <ele>106.4</ele>
        <time>2024-01-24T13:21:54Z</time>
      </trkpt>
      <trkpt lat="49.85124" lon="2.4442">
        <ele>106.4</ele>
        <time>2024-01-24T13:21:55Z</time>
      </trkpt>
      <trkpt lat="49.85125" lon="2.44419">
        <ele>106.4</ele>
        <time>2024-01-24T13:21:56Z</time>
      </trkpt>
      <trkpt lat="49.85126" lon="2.44418">
        <ele>106.4</ele>
        <time>2024-01-24T13:21:57Z</time>
      </trkpt>
      <trkpt lat="49.85127" lon="2.44418">
        <ele>106.4</ele>
        <time>2024-01-24T13:21:58Z</time>
      </trkpt>
      <trkpt lat="49.85128" lon="2.44417">
        <ele>106.4</ele>
        <time>2024-01-24T13:21:59Z</time>
      </trkpt>
      <trkpt lat="49.8513" lon="2.44416">
        <ele>106.4</ele>
        <time>2024-01-24T13:22:01Z</time>
      </trkpt>
      <trkpt lat="49.85131" lon="2.44414">
        <ele>106.4</ele>
        <time>2024-01-24T13:22:02Z</time>
      </trkpt>
      <trkpt lat="49.85132" lon="2.44413">
        <ele>106.4</ele>
        <time>2024-01-24T13:22:03Z</time>
      </trkpt>
      <trkpt lat="49.85133" lon="2.44413">
        <ele>106.4</ele>
        <time>2024-01-24T13:22:04Z</time>
      </trkpt>
      <trkpt lat="49.85135" lon="2.44411">
        <ele>106.4</ele>
        <time>2024-01-24T13:22:05Z</time>
      </trkpt>
      <trkpt lat="49.85135" lon="2.4441">
        <ele>106.4</ele>
        <time>2024-01-24T13:22:06Z</time>
      </trkpt>
      <trkpt lat="49.85136" lon="2.44409">
        <ele>106.4</ele>
        <time>2024-01-24T13:22:07Z</time>
      </trkpt>
      <trkpt lat="49.85137" lon="2.44408">
        <ele>106.4</ele>
        <time>2024-01-24T13:22:09Z</time>
      </trkpt>
      <trkpt lat="49.85139" lon="2.44407">
        <ele>106.3</ele>
        <time>2024-01-24T13:22:10Z</time>
      </trkpt>
      <trkpt lat="49.8514" lon="2.44406">
        <ele>106.3</ele>
        <time>2024-01-24T13:22:11Z</time>
      </trkpt>
      <trkpt lat="49.85141" lon="2.44404">
        <ele>106.3</ele>
        <time>2024-01-24T13:22:12Z</time>
      </trkpt>
      <trkpt lat="49.85142" lon="2.44403">
        <ele>106.3</ele>
        <time>2024-01-24T13:22:13Z</time>
      </trkpt>
      <trkpt lat="49.85143" lon="2.44402">
        <ele>106.3</ele>
        <time>2024-01-24T13:22:14Z</time>
      </trkpt>
      <trkpt lat="49.85144" lon="2.44401">
        <ele>106.3</ele>
        <time>2024-01-24T13:22:15Z</time>
      </trkpt>
      <trkpt lat="49.85146" lon="2.44399">
        <ele>106.3</ele>
        <time>2024-01-24T13:22:17Z</time>
      </trkpt>
      <trkpt lat="49.85147" lon="2.44398">
        <ele>106.3</ele>
        <time>2024-01-24T13:22:18Z</time>
      </trkpt>
      <trkpt lat="49.85148" lon="2.44397">
        <ele>106.3</ele>
        <time>2024-01-24T13:22:19Z</time>
      </trkpt>
      <trkpt lat="49.85149" lon="2.44396">
        <ele>106.3</ele>
        <time>2024-01-24T13:22:21Z</time>
      </trkpt>
      <trkpt lat="49.85151" lon="2.44395">
        <ele>106.3</ele>
        <time>2024-01-24T13:22:22Z</time>
      </trkpt>
      <trkpt lat="49.85152" lon="2.44394">
        <ele>106.3</ele>
        <time>2024-01-24T13:22:23Z</time>
      </trkpt>
      <trkpt lat="49.85153" lon="2.44393">
        <ele>106.3</ele>
        <time>2024-01-24T13:22:24Z</time>
      </trkpt>
      <trkpt lat="49.85154" lon="2.44392">
        <ele>106.3</ele>
        <time>2024-01-24T13:22:25Z</time>
      </trkpt>
      <trkpt lat="49.85156" lon="2.4439">
        <ele>106.3</ele>
        <time>2024-01-24T13:22:26Z</time>
      </trkpt>
      <trkpt lat="49.85156" lon="2.44389">
        <ele>106.3</ele>
        <time>2024-01-24T13:22:27Z</time>
      </trkpt>
      <trkpt lat="49.85157" lon="2.44388">
        <ele>106.3</ele>
        <time>2024-01-24T13:22:28Z</time>
      </trkpt>
      <trkpt lat="49.85158" lon="2.44387">
        <ele>106.3</ele>
        <time>2024-01-24T13:22:29Z</time>
      </trkpt>
      <trkpt lat="49.85159" lon="2.44386">
        <ele>106.3</ele>
        <time>2024-01-24T13:22:30Z</time>
      </trkpt>
      <trkpt lat="49.8516" lon="2.44384">
        <ele>106.3</ele>
        <time>2024-01-24T13:22:32Z</time>
      </trkpt>
      <trkpt lat="49.85162" lon="2.44382">
        <ele>106.3</ele>
        <time>2024-01-24T13:22:33Z</time>
      </trkpt>
      <trkpt lat="49.85162" lon="2.44381">
        <ele>106.3</ele>
        <time>2024-01-24T13:22:34Z</time>
      </trkpt>
      <trkpt lat="49.85163" lon="2.4438">
        <ele>106.3</ele>
        <time>2024-01-24T13:22:35Z</time>
      </trkpt>
      <trkpt lat="49.85165" lon="2.44377">
        <ele>106.3</ele>
        <time>2024-01-24T13:22:36Z</time>
      </trkpt>
      <trkpt lat="49.85165" lon="2.44376">
        <ele>106.3</ele>
        <time>2024-01-24T13:22:38Z</time>
      </trkpt>
      <trkpt lat="49.85166" lon="2.44375">
        <ele>106.3</ele>
        <time>2024-01-24T13:22:39Z</time>
      </trkpt>
      <trkpt lat="49.85167" lon="2.44374">
        <ele>106.3</ele>
        <time>2024-01-24T13:22:40Z</time>
      </trkpt>
      <trkpt lat="49.85168" lon="2.44372">
        <ele>106.3</ele>
        <time>2024-01-24T13:22:41Z</time>
      </trkpt>
      <trkpt lat="49.8517" lon="2.4437">
        <ele>106.3</ele>
        <time>2024-01-24T13:22:42Z</time>
      </trkpt>
      <trkpt lat="49.8517" lon="2.44369">
        <ele>106.3</ele>
        <time>2024-01-24T13:22:43Z</time>
      </trkpt>
      <trkpt lat="49.85171" lon="2.44369">
        <ele>106.3</ele>
        <time>2024-01-24T13:22:44Z</time>
      </trkpt>
      <trkpt lat="49.85173" lon="2.44367">
        <ele>106.3</ele>
        <time>2024-01-24T13:22:45Z</time>
      </trkpt>
      <trkpt lat="49.85173" lon="2.44366">
        <ele>106.3</ele>
        <time>2024-01-24T13:22:46Z</time>
      </trkpt>
      <trkpt lat="49.85174" lon="2.44365">
        <ele>106.3</ele>
        <time>2024-01-24T13:22:47Z</time>
      </trkpt>
      <trkpt lat="49.85175" lon="2.44364">
        <ele>106.3</ele>
        <time>2024-01-24T13:22:49Z</time>
      </trkpt>
      <trkpt lat="49.85176" lon="2.44362">
        <ele>106.3</ele>
        <time>2024-01-24T13:22:50Z</time>
      </trkpt>
      <trkpt lat="49.85178" lon="2.4436">
        <ele>106.3</ele>
        <time>2024-01-24T13:22:51Z</time>
      </trkpt>
      <trkpt lat="49.85179" lon="2.44359">
        <ele>106.3</ele>
        <time>2024-01-24T13:22:52Z</time>
      </trkpt>
      <trkpt lat="49.85179" lon="2.44358">
        <ele>106.3</ele>
        <time>2024-01-24T13:22:53Z</time>
      </trkpt>
      <trkpt lat="49.85181" lon="2.44356">
        <ele>106.3</ele>
        <time>2024-01-24T13:22:54Z</time>
      </trkpt>
      <trkpt lat="49.85181" lon="2.44355">
        <ele>106.3</ele>
        <time>2024-01-24T13:22:55Z</time>
      </trkpt>
      <trkpt lat="49.85182" lon="2.44354">
        <ele>106.3</ele>
        <time>2024-01-24T13:22:56Z</time>
      </trkpt>
      <trkpt lat="49.85183" lon="2.44353">
        <ele>106.3</ele>
        <time>2024-01-24T13:22:58Z</time>
      </trkpt>
      <trkpt lat="49.85184" lon="2.44352">
        <ele>106.3</ele>
        <time>2024-01-24T13:22:59Z</time>
      </trkpt>
      <trkpt lat="49.85184" lon="2.44351">
        <ele>106.3</ele>
        <time>2024-01-24T13:23:00Z</time>
      </trkpt>
      <trkpt lat="49.85185" lon="2.4435">
        <ele>106.3</ele>
        <time>2024-01-24T13:23:01Z</time>
      </trkpt>
      <trkpt lat="49.85186" lon="2.44348">
        <ele>106.3</ele>
        <time>2024-01-24T13:23:02Z</time>
      </trkpt>
      <trkpt lat="49.85186" lon="2.44347">
        <ele>106.3</ele>
        <time>2024-01-24T13:23:03Z</time>
      </trkpt>
      <trkpt lat="49.85187" lon="2.44346">
        <ele>106.3</ele>
        <time>2024-01-24T13:23:04Z</time>
      </trkpt>
      <trkpt lat="49.85188" lon="2.44345">
        <ele>106.3</ele>
        <time>2024-01-24T13:23:06Z</time>
      </trkpt>
      <trkpt lat="49.85189" lon="2.44344">
        <ele>106.3</ele>
        <time>2024-01-24T13:23:07Z</time>
      </trkpt>
      <trkpt lat="49.8519" lon="2.44344">
        <ele>106.3</ele>
        <time>2024-01-24T13:23:08Z</time>
      </trkpt>
      <trkpt lat="49.85192" lon="2.44342">
        <ele>106.3</ele>
        <time>2024-01-24T13:23:09Z</time>
      </trkpt>
      <trkpt lat="49.85194" lon="2.4434">
        <ele>106.3</ele>
        <time>2024-01-24T13:23:10Z</time>
      </trkpt>
      <trkpt lat="49.85194" lon="2.44339">
        <ele>106.3</ele>
        <time>2024-01-24T13:23:11Z</time>
      </trkpt>
      <trkpt lat="49.85195" lon="2.44338">
        <ele>106.3</ele>
        <time>2024-01-24T13:23:12Z</time>
      </trkpt>
      <trkpt lat="49.85196" lon="2.44337">
        <ele>106.3</ele>
        <time>2024-01-24T13:23:13Z</time>
      </trkpt>
      <trkpt lat="49.85198" lon="2.44335">
        <ele>106.3</ele>
        <time>2024-01-24T13:23:15Z</time>
      </trkpt>
      <trkpt lat="49.85199" lon="2.44334">
        <ele>106.3</ele>
        <time>2024-01-24T13:23:16Z</time>
      </trkpt>
      <trkpt lat="49.852" lon="2.44333">
        <ele>106.3</ele>
        <time>2024-01-24T13:23:17Z</time>
      </trkpt>
      <trkpt lat="49.85203" lon="2.44331">
        <ele>106.3</ele>
        <time>2024-01-24T13:23:18Z</time>
      </trkpt>
      <trkpt lat="49.85203" lon="2.4433">
        <ele>106.3</ele>
        <time>2024-01-24T13:23:20Z</time>
      </trkpt>
      <trkpt lat="49.85204" lon="2.44329">
        <ele>106.2</ele>
        <time>2024-01-24T13:23:21Z</time>
      </trkpt>
      <trkpt lat="49.85205" lon="2.44328">
        <ele>106.2</ele>
        <time>2024-01-24T13:23:22Z</time>
      </trkpt>
      <trkpt lat="49.85206" lon="2.44327">
        <ele>106.2</ele>
        <time>2024-01-24T13:23:23Z</time>
      </trkpt>
      <trkpt lat="49.85208" lon="2.44326">
        <ele>106.2</ele>
        <time>2024-01-24T13:23:25Z</time>
      </trkpt>
      <trkpt lat="49.85209" lon="2.44325">
        <ele>106.2</ele>
        <time>2024-01-24T13:23:26Z</time>
      </trkpt>
      <trkpt lat="49.85211" lon="2.44322">
        <ele>106.2</ele>
        <time>2024-01-24T13:23:27Z</time>
      </trkpt>
      <trkpt lat="49.85212" lon="2.44321">
        <ele>106.2</ele>
        <time>2024-01-24T13:23:28Z</time>
      </trkpt>
      <trkpt lat="49.85213" lon="2.4432">
        <ele>106.2</ele>
        <time>2024-01-24T13:23:29Z</time>
      </trkpt>
      <trkpt lat="49.85214" lon="2.44319">
        <ele>106.1</ele>
        <time>2024-01-24T13:23:30Z</time>
      </trkpt>
      <trkpt lat="49.85215" lon="2.44318">
        <ele>106.1</ele>
        <time>2024-01-24T13:23:31Z</time>
      </trkpt>
      <trkpt lat="49.85215" lon="2.44317">
        <ele>106.1</ele>
        <time>2024-01-24T13:23:32Z</time>
      </trkpt>
      <trkpt lat="49.85216" lon="2.44315">
        <ele>106.1</ele>
        <time>2024-01-24T13:23:33Z</time>
      </trkpt>
      <trkpt lat="49.85217" lon="2.44314">
        <ele>106.1</ele>
        <time>2024-01-24T13:23:34Z</time>
      </trkpt>
      <trkpt lat="49.85218" lon="2.44313">
        <ele>106.1</ele>
        <time>2024-01-24T13:23:36Z</time>
      </trkpt>
      <trkpt lat="49.8522" lon="2.4431">
        <ele>106.1</ele>
        <time>2024-01-24T13:23:37Z</time>
      </trkpt>
      <trkpt lat="49.8522" lon="2.44309">
        <ele>106.1</ele>
        <time>2024-01-24T13:23:38Z</time>
      </trkpt>
      <trkpt lat="49.85221" lon="2.44308">
        <ele>106</ele>
        <time>2024-01-24T13:23:39Z</time>
      </trkpt>
      <trkpt lat="49.85223" lon="2.44306">
        <ele>106</ele>
        <time>2024-01-24T13:23:40Z</time>
      </trkpt>
      <trkpt lat="49.85223" lon="2.44305">
        <ele>106</ele>
        <time>2024-01-24T13:23:41Z</time>
      </trkpt>
      <trkpt lat="49.85224" lon="2.44304">
        <ele>106</ele>
        <time>2024-01-24T13:23:42Z</time>
      </trkpt>
      <trkpt lat="49.85225" lon="2.44302">
        <ele>106</ele>
        <time>2024-01-24T13:23:44Z</time>
      </trkpt>
      <trkpt lat="49.85226" lon="2.44301">
        <ele>106</ele>
        <time>2024-01-24T13:23:45Z</time>
      </trkpt>
      <trkpt lat="49.85227" lon="2.44299">
        <ele>106</ele>
        <time>2024-01-24T13:23:46Z</time>
      </trkpt>
      <trkpt lat="49.85228" lon="2.44298">
        <ele>106</ele>
        <time>2024-01-24T13:23:47Z</time>
      </trkpt>
      <trkpt lat="49.85229" lon="2.44295">
        <ele>106</ele>
        <time>2024-01-24T13:23:48Z</time>
      </trkpt>
      <trkpt lat="49.8523" lon="2.44294">
        <ele>106</ele>
        <time>2024-01-24T13:23:49Z</time>
      </trkpt>
      <trkpt lat="49.85231" lon="2.44293">
        <ele>105.9</ele>
        <time>2024-01-24T13:23:50Z</time>
      </trkpt>
      <trkpt lat="49.85231" lon="2.44292">
        <ele>105.9</ele>
        <time>2024-01-24T13:23:51Z</time>
      </trkpt>
      <trkpt lat="49.85232" lon="2.4429">
        <ele>105.9</ele>
        <time>2024-01-24T13:23:52Z</time>
      </trkpt>
      <trkpt lat="49.85233" lon="2.44288">
        <ele>105.9</ele>
        <time>2024-01-24T13:23:54Z</time>
      </trkpt>
      <trkpt lat="49.85234" lon="2.44285">
        <ele>105.9</ele>
        <time>2024-01-24T13:23:55Z</time>
      </trkpt>
      <trkpt lat="49.85235" lon="2.44283">
        <ele>105.9</ele>
        <time>2024-01-24T13:23:56Z</time>
      </trkpt>
      <trkpt lat="49.85235" lon="2.44282">
        <ele>105.9</ele>
        <time>2024-01-24T13:23:57Z</time>
      </trkpt>
      <trkpt lat="49.85236" lon="2.4428">
        <ele>105.9</ele>
        <time>2024-01-24T13:23:58Z</time>
      </trkpt>
      <trkpt lat="49.85236" lon="2.44279">
        <ele>105.9</ele>
        <time>2024-01-24T13:23:59Z</time>
      </trkpt>
      <trkpt lat="49.85237" lon="2.44275">
        <ele>105.9</ele>
        <time>2024-01-24T13:24:00Z</time>
      </trkpt>
      <trkpt lat="49.85238" lon="2.44274">
        <ele>105.8</ele>
        <time>2024-01-24T13:24:01Z</time>
      </trkpt>
      <trkpt lat="49.85238" lon="2.44273">
        <ele>105.8</ele>
        <time>2024-01-24T13:24:02Z</time>
      </trkpt>
      <trkpt lat="49.85239" lon="2.4427">
        <ele>105.8</ele>
        <time>2024-01-24T13:24:04Z</time>
      </trkpt>
      <trkpt lat="49.85239" lon="2.44268">
        <ele>105.8</ele>
        <time>2024-01-24T13:24:05Z</time>
      </trkpt>
      <trkpt lat="49.8524" lon="2.44266">
        <ele>105.8</ele>
        <time>2024-01-24T13:24:06Z</time>
      </trkpt>
      <trkpt lat="49.85241" lon="2.44265">
        <ele>105.8</ele>
        <time>2024-01-24T13:24:07Z</time>
      </trkpt>
      <trkpt lat="49.85241" lon="2.44261">
        <ele>105.8</ele>
        <time>2024-01-24T13:24:08Z</time>
      </trkpt>
      <trkpt lat="49.85242" lon="2.4426">
        <ele>105.8</ele>
        <time>2024-01-24T13:24:09Z</time>
      </trkpt>
      <trkpt lat="49.85242" lon="2.44259">
        <ele>105.8</ele>
        <time>2024-01-24T13:24:10Z</time>
      </trkpt>
      <trkpt lat="49.85243" lon="2.44256">
        <ele>105.8</ele>
        <time>2024-01-24T13:24:11Z</time>
      </trkpt>
      <trkpt lat="49.85243" lon="2.44254">
        <ele>105.8</ele>
        <time>2024-01-24T13:24:13Z</time>
      </trkpt>
      <trkpt lat="49.85244" lon="2.44252">
        <ele>105.8</ele>
        <time>2024-01-24T13:24:14Z</time>
      </trkpt>
      <trkpt lat="49.85245" lon="2.44251">
        <ele>105.7</ele>
        <time>2024-01-24T13:24:16Z</time>
      </trkpt>
      <trkpt lat="49.85245" lon="2.44249">
        <ele>105.7</ele>
        <time>2024-01-24T13:24:17Z</time>
      </trkpt>
      <trkpt lat="49.85246" lon="2.44246">
        <ele>105.7</ele>
        <time>2024-01-24T13:24:18Z</time>
      </trkpt>
      <trkpt lat="49.85246" lon="2.44245">
        <ele>105.7</ele>
        <time>2024-01-24T13:24:19Z</time>
      </trkpt>
      <trkpt lat="49.85247" lon="2.44244">
        <ele>105.7</ele>
        <time>2024-01-24T13:24:20Z</time>
      </trkpt>
      <trkpt lat="49.85247" lon="2.44242">
        <ele>105.7</ele>
        <time>2024-01-24T13:24:21Z</time>
      </trkpt>
      <trkpt lat="49.85248" lon="2.4424">
        <ele>105.7</ele>
        <time>2024-01-24T13:24:22Z</time>
      </trkpt>
      <trkpt lat="49.85248" lon="2.44239">
        <ele>105.7</ele>
        <time>2024-01-24T13:24:23Z</time>
      </trkpt>
      <trkpt lat="49.85249" lon="2.44237">
        <ele>105.7</ele>
        <time>2024-01-24T13:24:24Z</time>
      </trkpt>
      <trkpt lat="49.8525" lon="2.44235">
        <ele>105.7</ele>
        <time>2024-01-24T13:24:26Z</time>
      </trkpt>
      <trkpt lat="49.8525" lon="2.44233">
        <ele>105.7</ele>
        <time>2024-01-24T13:24:27Z</time>
      </trkpt>
      <trkpt lat="49.85251" lon="2.44232">
        <ele>105.7</ele>
        <time>2024-01-24T13:24:28Z</time>
      </trkpt>
      <trkpt lat="49.85252" lon="2.4423">
        <ele>105.6</ele>
        <time>2024-01-24T13:24:30Z</time>
      </trkpt>
      <trkpt lat="49.85253" lon="2.44227">
        <ele>105.6</ele>
        <time>2024-01-24T13:24:31Z</time>
      </trkpt>
      <trkpt lat="49.85253" lon="2.44226">
        <ele>105.6</ele>
        <time>2024-01-24T13:24:32Z</time>
      </trkpt>
      <trkpt lat="49.85254" lon="2.44225">
        <ele>105.6</ele>
        <time>2024-01-24T13:24:33Z</time>
      </trkpt>
      <trkpt lat="49.85255" lon="2.44222">
        <ele>105.6</ele>
        <time>2024-01-24T13:24:34Z</time>
      </trkpt>
      <trkpt lat="49.85255" lon="2.44221">
        <ele>105.6</ele>
        <time>2024-01-24T13:24:35Z</time>
      </trkpt>
      <trkpt lat="49.85256" lon="2.44219">
        <ele>105.6</ele>
        <time>2024-01-24T13:24:36Z</time>
      </trkpt>
      <trkpt lat="49.85256" lon="2.44217">
        <ele>105.6</ele>
        <time>2024-01-24T13:24:37Z</time>
      </trkpt>
      <trkpt lat="49.85256" lon="2.44216">
        <ele>105.6</ele>
        <time>2024-01-24T13:24:39Z</time>
      </trkpt>
      <trkpt lat="49.85257" lon="2.44215">
        <ele>105.6</ele>
        <time>2024-01-24T13:24:40Z</time>
      </trkpt>
      <trkpt lat="49.85257" lon="2.44213">
        <ele>105.6</ele>
        <time>2024-01-24T13:24:41Z</time>
      </trkpt>
      <trkpt lat="49.85257" lon="2.44212">
        <ele>105.6</ele>
        <time>2024-01-24T13:24:42Z</time>
      </trkpt>
      <trkpt lat="49.85258" lon="2.4421">
        <ele>105.6</ele>
        <time>2024-01-24T13:24:43Z</time>
      </trkpt>
      <trkpt lat="49.85259" lon="2.44208">
        <ele>105.5</ele>
        <time>2024-01-24T13:24:44Z</time>
      </trkpt>
      <trkpt lat="49.85259" lon="2.44206">
        <ele>105.5</ele>
        <time>2024-01-24T13:24:46Z</time>
      </trkpt>
      <trkpt lat="49.8526" lon="2.44204">
        <ele>105.5</ele>
        <time>2024-01-24T13:24:47Z</time>
      </trkpt>
      <trkpt lat="49.85261" lon="2.44203">
        <ele>105.5</ele>
        <time>2024-01-24T13:24:48Z</time>
      </trkpt>
      <trkpt lat="49.85262" lon="2.442">
        <ele>105.5</ele>
        <time>2024-01-24T13:24:49Z</time>
      </trkpt>
      <trkpt lat="49.85262" lon="2.44199">
        <ele>105.5</ele>
        <time>2024-01-24T13:24:50Z</time>
      </trkpt>
      <trkpt lat="49.85264" lon="2.44196">
        <ele>105.5</ele>
        <time>2024-01-24T13:24:52Z</time>
      </trkpt>
      <trkpt lat="49.85264" lon="2.44196">
        <ele>105.5</ele>
        <time>2024-01-24T13:24:53Z</time>
      </trkpt>
      <trkpt lat="49.85265" lon="2.44195">
        <ele>105.4</ele>
        <time>2024-01-24T13:24:54Z</time>
      </trkpt>
      <trkpt lat="49.85265" lon="2.44193">
        <ele>105.4</ele>
        <time>2024-01-24T13:24:55Z</time>
      </trkpt>
      <trkpt lat="49.85266" lon="2.44192">
        <ele>105.4</ele>
        <time>2024-01-24T13:24:56Z</time>
      </trkpt>
      <trkpt lat="49.85267" lon="2.4419">
        <ele>105.4</ele>
        <time>2024-01-24T13:24:58Z</time>
      </trkpt>
      <trkpt lat="49.85268" lon="2.44189">
        <ele>105.4</ele>
        <time>2024-01-24T13:24:59Z</time>
      </trkpt>
      <trkpt lat="49.85269" lon="2.44187">
        <ele>105.4</ele>
        <time>2024-01-24T13:25:00Z</time>
      </trkpt>
      <trkpt lat="49.85269" lon="2.44186">
        <ele>105.4</ele>
        <time>2024-01-24T13:25:01Z</time>
      </trkpt>
      <trkpt lat="49.8527" lon="2.44185">
        <ele>105.4</ele>
        <time>2024-01-24T13:25:02Z</time>
      </trkpt>
      <trkpt lat="49.8527" lon="2.44183">
        <ele>105.4</ele>
        <time>2024-01-24T13:25:03Z</time>
      </trkpt>
      <trkpt lat="49.85271" lon="2.44183">
        <ele>105.3</ele>
        <time>2024-01-24T13:25:04Z</time>
      </trkpt>
      <trkpt lat="49.85272" lon="2.4418">
        <ele>105.3</ele>
        <time>2024-01-24T13:25:05Z</time>
      </trkpt>
      <trkpt lat="49.85272" lon="2.44179">
        <ele>105.3</ele>
        <time>2024-01-24T13:25:06Z</time>
      </trkpt>
      <trkpt lat="49.85273" lon="2.44178">
        <ele>105.3</ele>
        <time>2024-01-24T13:25:07Z</time>
      </trkpt>
      <trkpt lat="49.85274" lon="2.44176">
        <ele>105.3</ele>
        <time>2024-01-24T13:25:08Z</time>
      </trkpt>
      <trkpt lat="49.85274" lon="2.44175">
        <ele>105.3</ele>
        <time>2024-01-24T13:25:09Z</time>
      </trkpt>
      <trkpt lat="49.85275" lon="2.44173">
        <ele>105.3</ele>
        <time>2024-01-24T13:25:11Z</time>
      </trkpt>
      <trkpt lat="49.85276" lon="2.44172">
        <ele>105.2</ele>
        <time>2024-01-24T13:25:12Z</time>
      </trkpt>
      <trkpt lat="49.85277" lon="2.4417">
        <ele>105.2</ele>
        <time>2024-01-24T13:25:13Z</time>
      </trkpt>
      <trkpt lat="49.85277" lon="2.44169">
        <ele>105.2</ele>
        <time>2024-01-24T13:25:14Z</time>
      </trkpt>
      <trkpt lat="49.85278" lon="2.44168">
        <ele>105.2</ele>
        <time>2024-01-24T13:25:15Z</time>
      </trkpt>
      <trkpt lat="49.85279" lon="2.44166">
        <ele>105.2</ele>
        <time>2024-01-24T13:25:16Z</time>
      </trkpt>
      <trkpt lat="49.8528" lon="2.44163">
        <ele>105.1</ele>
        <time>2024-01-24T13:25:17Z</time>
      </trkpt>
      <trkpt lat="49.85281" lon="2.44162">
        <ele>105.1</ele>
        <time>2024-01-24T13:25:18Z</time>
      </trkpt>
      <trkpt lat="49.85282" lon="2.44161">
        <ele>105.1</ele>
        <time>2024-01-24T13:25:19Z</time>
      </trkpt>
      <trkpt lat="49.85282" lon="2.4416">
        <ele>105.1</ele>
        <time>2024-01-24T13:25:20Z</time>
      </trkpt>
      <trkpt lat="49.85283" lon="2.44158">
        <ele>105.1</ele>
        <time>2024-01-24T13:25:22Z</time>
      </trkpt>
      <trkpt lat="49.85284" lon="2.44156">
        <ele>105.1</ele>
        <time>2024-01-24T13:25:23Z</time>
      </trkpt>
      <trkpt lat="49.85285" lon="2.44154">
        <ele>105</ele>
        <time>2024-01-24T13:25:24Z</time>
      </trkpt>
      <trkpt lat="49.85286" lon="2.44153">
        <ele>105</ele>
        <time>2024-01-24T13:25:25Z</time>
      </trkpt>
      <trkpt lat="49.85286" lon="2.44152">
        <ele>105</ele>
        <time>2024-01-24T13:25:26Z</time>
      </trkpt>
      <trkpt lat="49.85287" lon="2.4415">
        <ele>105</ele>
        <time>2024-01-24T13:25:27Z</time>
      </trkpt>
      <trkpt lat="49.85288" lon="2.44148">
        <ele>105</ele>
        <time>2024-01-24T13:25:28Z</time>
      </trkpt>
      <trkpt lat="49.85289" lon="2.44145">
        <ele>104.9</ele>
        <time>2024-01-24T13:25:30Z</time>
      </trkpt>
      <trkpt lat="49.8529" lon="2.44144">
        <ele>104.9</ele>
        <time>2024-01-24T13:25:31Z</time>
      </trkpt>
      <trkpt lat="49.85291" lon="2.44142">
        <ele>104.9</ele>
        <time>2024-01-24T13:25:32Z</time>
      </trkpt>
      <trkpt lat="49.85292" lon="2.4414">
        <ele>104.9</ele>
        <time>2024-01-24T13:25:34Z</time>
      </trkpt>
      <trkpt lat="49.85292" lon="2.44138">
        <ele>104.9</ele>
        <time>2024-01-24T13:25:35Z</time>
      </trkpt>
      <trkpt lat="49.85293" lon="2.44136">
        <ele>104.8</ele>
        <time>2024-01-24T13:25:36Z</time>
      </trkpt>
      <trkpt lat="49.85294" lon="2.44134">
        <ele>104.8</ele>
        <time>2024-01-24T13:25:37Z</time>
      </trkpt>
      <trkpt lat="49.85295" lon="2.44132">
        <ele>104.8</ele>
        <time>2024-01-24T13:25:38Z</time>
      </trkpt>
      <trkpt lat="49.85296" lon="2.4413">
        <ele>104.8</ele>
        <time>2024-01-24T13:25:39Z</time>
      </trkpt>
      <trkpt lat="49.85297" lon="2.44128">
        <ele>104.8</ele>
        <time>2024-01-24T13:25:40Z</time>
      </trkpt>
      <trkpt lat="49.85298" lon="2.44127">
        <ele>104.8</ele>
        <time>2024-01-24T13:25:41Z</time>
      </trkpt>
      <trkpt lat="49.85299" lon="2.44125">
        <ele>104.7</ele>
        <time>2024-01-24T13:25:42Z</time>
      </trkpt>
      <trkpt lat="49.853" lon="2.44123">
        <ele>104.7</ele>
        <time>2024-01-24T13:25:44Z</time>
      </trkpt>
      <trkpt lat="49.85301" lon="2.4412">
        <ele>104.7</ele>
        <time>2024-01-24T13:25:45Z</time>
      </trkpt>
      <trkpt lat="49.85302" lon="2.44119">
        <ele>104.7</ele>
        <time>2024-01-24T13:25:46Z</time>
      </trkpt>
      <trkpt lat="49.85302" lon="2.44118">
        <ele>104.7</ele>
        <time>2024-01-24T13:25:47Z</time>
      </trkpt>
      <trkpt lat="49.85303" lon="2.44116">
        <ele>104.6</ele>
        <time>2024-01-24T13:25:48Z</time>
      </trkpt>
      <trkpt lat="49.85304" lon="2.44114">
        <ele>104.6</ele>
        <time>2024-01-24T13:25:49Z</time>
      </trkpt>
      <trkpt lat="49.85304" lon="2.44113">
        <ele>104.6</ele>
        <time>2024-01-24T13:25:51Z</time>
      </trkpt>
      <trkpt lat="49.85305" lon="2.4411">
        <ele>104.6</ele>
        <time>2024-01-24T13:25:52Z</time>
      </trkpt>
      <trkpt lat="49.85306" lon="2.44109">
        <ele>104.6</ele>
        <time>2024-01-24T13:25:53Z</time>
      </trkpt>
      <trkpt lat="49.85306" lon="2.44108">
        <ele>104.6</ele>
        <time>2024-01-24T13:25:54Z</time>
      </trkpt>
      <trkpt lat="49.85307" lon="2.44106">
        <ele>104.6</ele>
        <time>2024-01-24T13:25:55Z</time>
      </trkpt>
      <trkpt lat="49.85308" lon="2.44105">
        <ele>104.5</ele>
        <time>2024-01-24T13:25:56Z</time>
      </trkpt>
      <trkpt lat="49.85308" lon="2.44103">
        <ele>104.5</ele>
        <time>2024-01-24T13:25:57Z</time>
      </trkpt>
      <trkpt lat="49.85309" lon="2.441">
        <ele>104.5</ele>
        <time>2024-01-24T13:25:58Z</time>
      </trkpt>
      <trkpt lat="49.8531" lon="2.44099">
        <ele>104.5</ele>
        <time>2024-01-24T13:26:00Z</time>
      </trkpt>
      <trkpt lat="49.85311" lon="2.44097">
        <ele>104.5</ele>
        <time>2024-01-24T13:26:01Z</time>
      </trkpt>
      <trkpt lat="49.85311" lon="2.44096">
        <ele>104.5</ele>
        <time>2024-01-24T13:26:02Z</time>
      </trkpt>
      <trkpt lat="49.85312" lon="2.44095">
        <ele>104.4</ele>
        <time>2024-01-24T13:26:03Z</time>
      </trkpt>
      <trkpt lat="49.85313" lon="2.44093">
        <ele>104.4</ele>
        <time>2024-01-24T13:26:04Z</time>
      </trkpt>
      <trkpt lat="49.85314" lon="2.4409">
        <ele>104.4</ele>
        <time>2024-01-24T13:26:05Z</time>
      </trkpt>
      <trkpt lat="49.85314" lon="2.44089">
        <ele>104.4</ele>
        <time>2024-01-24T13:26:06Z</time>
      </trkpt>
      <trkpt lat="49.85314" lon="2.44088">
        <ele>104.4</ele>
        <time>2024-01-24T13:26:07Z</time>
      </trkpt>
      <trkpt lat="49.85316" lon="2.44085">
        <ele>104.3</ele>
        <time>2024-01-24T13:26:08Z</time>
      </trkpt>
      <trkpt lat="49.85317" lon="2.44084">
        <ele>104.3</ele>
        <time>2024-01-24T13:26:10Z</time>
      </trkpt>
      <trkpt lat="49.85318" lon="2.44082">
        <ele>104.3</ele>
        <time>2024-01-24T13:26:11Z</time>
      </trkpt>
      <trkpt lat="49.85318" lon="2.44081">
        <ele>104.3</ele>
        <time>2024-01-24T13:26:12Z</time>
      </trkpt>
      <trkpt lat="49.85319" lon="2.4408">
        <ele>104.3</ele>
        <time>2024-01-24T13:26:13Z</time>
      </trkpt>
      <trkpt lat="49.8532" lon="2.44078">
        <ele>104.2</ele>
        <time>2024-01-24T13:26:14Z</time>
      </trkpt>
      <trkpt lat="49.85321" lon="2.44076">
        <ele>104.2</ele>
        <time>2024-01-24T13:26:15Z</time>
      </trkpt>
      <trkpt lat="49.85321" lon="2.44075">
        <ele>104.2</ele>
        <time>2024-01-24T13:26:16Z</time>
      </trkpt>
      <trkpt lat="49.85322" lon="2.44074">
        <ele>104.2</ele>
        <time>2024-01-24T13:26:17Z</time>
      </trkpt>
      <trkpt lat="49.85322" lon="2.44072">
        <ele>104.2</ele>
        <time>2024-01-24T13:26:19Z</time>
      </trkpt>
      <trkpt lat="49.85323" lon="2.44071">
        <ele>104.2</ele>
        <time>2024-01-24T13:26:20Z</time>
      </trkpt>
      <trkpt lat="49.85324" lon="2.44069">
        <ele>104.1</ele>
        <time>2024-01-24T13:26:21Z</time>
      </trkpt>
      <trkpt lat="49.85324" lon="2.44068">
        <ele>104.1</ele>
        <time>2024-01-24T13:26:22Z</time>
      </trkpt>
      <trkpt lat="49.85325" lon="2.44067">
        <ele>104.1</ele>
        <time>2024-01-24T13:26:23Z</time>
      </trkpt>
      <trkpt lat="49.85325" lon="2.44065">
        <ele>104.1</ele>
        <time>2024-01-24T13:26:24Z</time>
      </trkpt>
      <trkpt lat="49.85326" lon="2.44063">
        <ele>104.1</ele>
        <time>2024-01-24T13:26:25Z</time>
      </trkpt>
      <trkpt lat="49.85327" lon="2.44062">
        <ele>104.1</ele>
        <time>2024-01-24T13:26:26Z</time>
      </trkpt>
      <trkpt lat="49.85328" lon="2.4406">
        <ele>104</ele>
        <time>2024-01-24T13:26:28Z</time>
      </trkpt>
      <trkpt lat="49.85328" lon="2.44058">
        <ele>104</ele>
        <time>2024-01-24T13:26:29Z</time>
      </trkpt>
      <trkpt lat="49.85329" lon="2.44056">
        <ele>104</ele>
        <time>2024-01-24T13:26:30Z</time>
      </trkpt>
      <trkpt lat="49.8533" lon="2.44055">
        <ele>104</ele>
        <time>2024-01-24T13:26:31Z</time>
      </trkpt>
      <trkpt lat="49.85331" lon="2.44053">
        <ele>104</ele>
        <time>2024-01-24T13:26:32Z</time>
      </trkpt>
      <trkpt lat="49.85332" lon="2.4405">
        <ele>103.9</ele>
        <time>2024-01-24T13:26:33Z</time>
      </trkpt>
      <trkpt lat="49.85332" lon="2.44049">
        <ele>103.9</ele>
        <time>2024-01-24T13:26:34Z</time>
      </trkpt>
      <trkpt lat="49.85333" lon="2.44048">
        <ele>103.9</ele>
        <time>2024-01-24T13:26:35Z</time>
      </trkpt>
      <trkpt lat="49.85334" lon="2.44047">
        <ele>103.9</ele>
        <time>2024-01-24T13:26:36Z</time>
      </trkpt>
      <trkpt lat="49.85334" lon="2.44045">
        <ele>103.9</ele>
        <time>2024-01-24T13:26:37Z</time>
      </trkpt>
      <trkpt lat="49.85335" lon="2.44044">
        <ele>103.9</ele>
        <time>2024-01-24T13:26:39Z</time>
      </trkpt>
      <trkpt lat="49.85336" lon="2.44042">
        <ele>103.8</ele>
        <time>2024-01-24T13:26:40Z</time>
      </trkpt>
      <trkpt lat="49.85337" lon="2.44041">
        <ele>103.8</ele>
        <time>2024-01-24T13:26:41Z</time>
      </trkpt>
      <trkpt lat="49.85337" lon="2.44039">
        <ele>103.8</ele>
        <time>2024-01-24T13:26:42Z</time>
      </trkpt>
      <trkpt lat="49.85339" lon="2.44037">
        <ele>103.8</ele>
        <time>2024-01-24T13:26:43Z</time>
      </trkpt>
      <trkpt lat="49.85339" lon="2.44036">
        <ele>103.8</ele>
        <time>2024-01-24T13:26:44Z</time>
      </trkpt>
      <trkpt lat="49.85339" lon="2.44035">
        <ele>103.7</ele>
        <time>2024-01-24T13:26:45Z</time>
      </trkpt>
      <trkpt lat="49.8534" lon="2.44033">
        <ele>103.7</ele>
        <time>2024-01-24T13:26:46Z</time>
      </trkpt>
      <trkpt lat="49.85341" lon="2.44032">
        <ele>103.7</ele>
        <time>2024-01-24T13:26:47Z</time>
      </trkpt>
      <trkpt lat="49.85341" lon="2.4403">
        <ele>103.7</ele>
        <time>2024-01-24T13:26:49Z</time>
      </trkpt>
      <trkpt lat="49.85342" lon="2.44029">
        <ele>103.7</ele>
        <time>2024-01-24T13:26:50Z</time>
      </trkpt>
      <trkpt lat="49.85342" lon="2.44028">
        <ele>103.7</ele>
        <time>2024-01-24T13:26:51Z</time>
      </trkpt>
      <trkpt lat="49.85343" lon="2.44026">
        <ele>103.6</ele>
        <time>2024-01-24T13:26:52Z</time>
      </trkpt>
      <trkpt lat="49.85344" lon="2.44025">
        <ele>103.6</ele>
        <time>2024-01-24T13:26:53Z</time>
      </trkpt>
      <trkpt lat="49.85344" lon="2.44023">
        <ele>103.6</ele>
        <time>2024-01-24T13:26:55Z</time>
      </trkpt>
      <trkpt lat="49.85344" lon="2.44023">
        <ele>103.6</ele>
        <time>2024-01-24T13:26:56Z</time>
      </trkpt>
      <trkpt lat="49.85345" lon="2.44022">
        <ele>103.6</ele>
        <time>2024-01-24T13:26:58Z</time>
      </trkpt>
      <trkpt lat="49.85345" lon="2.44022">
        <ele>103.6</ele>
        <time>2024-01-24T13:26:59Z</time>
      </trkpt>
      <trkpt lat="49.85345" lon="2.44022">
        <ele>103.6</ele>
        <time>2024-01-24T13:27:00Z</time>
      </trkpt>
      <trkpt lat="49.85345" lon="2.44022">
        <ele>103.6</ele>
        <time>2024-01-24T13:27:02Z</time>
      </trkpt>
      <trkpt lat="49.85345" lon="2.44022">
        <ele>103.6</ele>
        <time>2024-01-24T13:27:03Z</time>
      </trkpt>
      <trkpt lat="49.85345" lon="2.44022">
        <ele>103.6</ele>
        <time>2024-01-24T13:27:05Z</time>
      </trkpt>
      <trkpt lat="49.85345" lon="2.44022">
        <ele>103.6</ele>
        <time>2024-01-24T13:27:06Z</time>
      </trkpt>
      <trkpt lat="49.85345" lon="2.44022">
        <ele>103.6</ele>
        <time>2024-01-24T13:27:08Z</time>
      </trkpt>
      <trkpt lat="49.85345" lon="2.44022">
        <ele>103.6</ele>
        <time>2024-01-24T13:27:09Z</time>
      </trkpt>
      <trkpt lat="49.85345" lon="2.44022">
        <ele>103.6</ele>
        <time>2024-01-24T13:27:10Z</time>
      </trkpt>
      <trkpt lat="49.85345" lon="2.44022">
        <ele>103.6</ele>
        <time>2024-01-24T13:27:12Z</time>
      </trkpt>
      <trkpt lat="49.85345" lon="2.44022">
        <ele>103.6</ele>
        <time>2024-01-24T13:27:13Z</time>
      </trkpt>
      <trkpt lat="49.85345" lon="2.44021">
        <ele>103.6</ele>
        <time>2024-01-24T13:27:14Z</time>
      </trkpt>
      <trkpt lat="49.85346" lon="2.44021">
        <ele>103.6</ele>
        <time>2024-01-24T13:27:15Z</time>
      </trkpt>
      <trkpt lat="49.85346" lon="2.4402">
        <ele>103.6</ele>
        <time>2024-01-24T13:27:16Z</time>
      </trkpt>
      <trkpt lat="49.85346" lon="2.4402">
        <ele>103.5</ele>
        <time>2024-01-24T13:27:17Z</time>
      </trkpt>
      <trkpt lat="49.85347" lon="2.44019">
        <ele>103.5</ele>
        <time>2024-01-24T13:27:18Z</time>
      </trkpt>
      <trkpt lat="49.85347" lon="2.44018">
        <ele>103.5</ele>
        <time>2024-01-24T13:27:19Z</time>
      </trkpt>
      <trkpt lat="49.85348" lon="2.44017">
        <ele>103.5</ele>
        <time>2024-01-24T13:27:20Z</time>
      </trkpt>
      <trkpt lat="49.85348" lon="2.44015">
        <ele>103.5</ele>
        <time>2024-01-24T13:27:21Z</time>
      </trkpt>
      <trkpt lat="49.85349" lon="2.44013">
        <ele>103.5</ele>
        <time>2024-01-24T13:27:23Z</time>
      </trkpt>
      <trkpt lat="49.8535" lon="2.44011">
        <ele>103.5</ele>
        <time>2024-01-24T13:27:24Z</time>
      </trkpt>
      <trkpt lat="49.8535" lon="2.4401">
        <ele>103.5</ele>
        <time>2024-01-24T13:27:25Z</time>
      </trkpt>
      <trkpt lat="49.8535" lon="2.44008">
        <ele>103.4</ele>
        <time>2024-01-24T13:27:26Z</time>
      </trkpt>
      <trkpt lat="49.85351" lon="2.44006">
        <ele>103.4</ele>
        <time>2024-01-24T13:27:27Z</time>
      </trkpt>
      <trkpt lat="49.85352" lon="2.44003">
        <ele>103.4</ele>
        <time>2024-01-24T13:27:28Z</time>
      </trkpt>
      <trkpt lat="49.85353" lon="2.44002">
        <ele>103.4</ele>
        <time>2024-01-24T13:27:29Z</time>
      </trkpt>
      <trkpt lat="49.85353" lon="2.44001">
        <ele>103.4</ele>
        <time>2024-01-24T13:27:30Z</time>
      </trkpt>
      <trkpt lat="49.85355" lon="2.43998">
        <ele>103.3</ele>
        <time>2024-01-24T13:27:32Z</time>
      </trkpt>
      <trkpt lat="49.85355" lon="2.43997">
        <ele>103.3</ele>
        <time>2024-01-24T13:27:33Z</time>
      </trkpt>
      <trkpt lat="49.85356" lon="2.43996">
        <ele>103.3</ele>
        <time>2024-01-24T13:27:34Z</time>
      </trkpt>
      <trkpt lat="49.85357" lon="2.43994">
        <ele>103.3</ele>
        <time>2024-01-24T13:27:35Z</time>
      </trkpt>
      <trkpt lat="49.85358" lon="2.43993">
        <ele>103.3</ele>
        <time>2024-01-24T13:27:36Z</time>
      </trkpt>
      <trkpt lat="49.85358" lon="2.43992">
        <ele>103.3</ele>
        <time>2024-01-24T13:27:37Z</time>
      </trkpt>
      <trkpt lat="49.85359" lon="2.43991">
        <ele>103.2</ele>
        <time>2024-01-24T13:27:38Z</time>
      </trkpt>
      <trkpt lat="49.85359" lon="2.43989">
        <ele>103.2</ele>
        <time>2024-01-24T13:27:39Z</time>
      </trkpt>
      <trkpt lat="49.8536" lon="2.43987">
        <ele>103.2</ele>
        <time>2024-01-24T13:27:41Z</time>
      </trkpt>
      <trkpt lat="49.85361" lon="2.43985">
        <ele>103.1</ele>
        <time>2024-01-24T13:27:42Z</time>
      </trkpt>
      <trkpt lat="49.85362" lon="2.43984">
        <ele>103.1</ele>
        <time>2024-01-24T13:27:43Z</time>
      </trkpt>
      <trkpt lat="49.85362" lon="2.43982">
        <ele>103.1</ele>
        <time>2024-01-24T13:27:44Z</time>
      </trkpt>
      <trkpt lat="49.85363" lon="2.43981">
        <ele>103.1</ele>
        <time>2024-01-24T13:27:45Z</time>
      </trkpt>
      <trkpt lat="49.85363" lon="2.43979">
        <ele>103</ele>
        <time>2024-01-24T13:27:46Z</time>
      </trkpt>
      <trkpt lat="49.85364" lon="2.43976">
        <ele>103</ele>
        <time>2024-01-24T13:27:47Z</time>
      </trkpt>
      <trkpt lat="49.85365" lon="2.43975">
        <ele>103</ele>
        <time>2024-01-24T13:27:48Z</time>
      </trkpt>
      <trkpt lat="49.85365" lon="2.43974">
        <ele>103</ele>
        <time>2024-01-24T13:27:49Z</time>
      </trkpt>
      <trkpt lat="49.85366" lon="2.43973">
        <ele>102.9</ele>
        <time>2024-01-24T13:27:50Z</time>
      </trkpt>
      <trkpt lat="49.85367" lon="2.43971">
        <ele>102.9</ele>
        <time>2024-01-24T13:27:51Z</time>
      </trkpt>
      <trkpt lat="49.85368" lon="2.4397">
        <ele>102.9</ele>
        <time>2024-01-24T13:27:52Z</time>
      </trkpt>
      <trkpt lat="49.85368" lon="2.43969">
        <ele>102.8</ele>
        <time>2024-01-24T13:27:53Z</time>
      </trkpt>
      <trkpt lat="49.85369" lon="2.43967">
        <ele>102.8</ele>
        <time>2024-01-24T13:27:55Z</time>
      </trkpt>
      <trkpt lat="49.8537" lon="2.43966">
        <ele>102.8</ele>
        <time>2024-01-24T13:27:56Z</time>
      </trkpt>
      <trkpt lat="49.8537" lon="2.43964">
        <ele>102.8</ele>
        <time>2024-01-24T13:27:57Z</time>
      </trkpt>
      <trkpt lat="49.85371" lon="2.43963">
        <ele>102.7</ele>
        <time>2024-01-24T13:27:58Z</time>
      </trkpt>
      <trkpt lat="49.85372" lon="2.43961">
        <ele>102.7</ele>
        <time>2024-01-24T13:27:59Z</time>
      </trkpt>
      <trkpt lat="49.85372" lon="2.43959">
        <ele>102.7</ele>
        <time>2024-01-24T13:28:00Z</time>
      </trkpt>
      <trkpt lat="49.85373" lon="2.43958">
        <ele>102.6</ele>
        <time>2024-01-24T13:28:01Z</time>
      </trkpt>
      <trkpt lat="49.85374" lon="2.43955">
        <ele>102.6</ele>
        <time>2024-01-24T13:28:03Z</time>
      </trkpt>
      <trkpt lat="49.85375" lon="2.43953">
        <ele>102.6</ele>
        <time>2024-01-24T13:28:04Z</time>
      </trkpt>
      <trkpt lat="49.85376" lon="2.43952">
        <ele>102.5</ele>
        <time>2024-01-24T13:28:05Z</time>
      </trkpt>
      <trkpt lat="49.85377" lon="2.4395">
        <ele>102.5</ele>
        <time>2024-01-24T13:28:06Z</time>
      </trkpt>
      <trkpt lat="49.85378" lon="2.43948">
        <ele>102.4</ele>
        <time>2024-01-24T13:28:07Z</time>
      </trkpt>
      <trkpt lat="49.85379" lon="2.43947">
        <ele>102.4</ele>
        <time>2024-01-24T13:28:09Z</time>
      </trkpt>
      <trkpt lat="49.8538" lon="2.43945">
        <ele>102.4</ele>
        <time>2024-01-24T13:28:10Z</time>
      </trkpt>
      <trkpt lat="49.85381" lon="2.43943">
        <ele>102.3</ele>
        <time>2024-01-24T13:28:11Z</time>
      </trkpt>
      <trkpt lat="49.85382" lon="2.43941">
        <ele>102.3</ele>
        <time>2024-01-24T13:28:12Z</time>
      </trkpt>
      <trkpt lat="49.85383" lon="2.4394">
        <ele>102.3</ele>
        <time>2024-01-24T13:28:13Z</time>
      </trkpt>
      <trkpt lat="49.85383" lon="2.43939">
        <ele>102.2</ele>
        <time>2024-01-24T13:28:14Z</time>
      </trkpt>
      <trkpt lat="49.85384" lon="2.43937">
        <ele>102.2</ele>
        <time>2024-01-24T13:28:15Z</time>
      </trkpt>
      <trkpt lat="49.85385" lon="2.43936">
        <ele>102.2</ele>
        <time>2024-01-24T13:28:16Z</time>
      </trkpt>
      <trkpt lat="49.85385" lon="2.43935">
        <ele>102.1</ele>
        <time>2024-01-24T13:28:17Z</time>
      </trkpt>
      <trkpt lat="49.85387" lon="2.43932">
        <ele>102.1</ele>
        <time>2024-01-24T13:28:19Z</time>
      </trkpt>
      <trkpt lat="49.85387" lon="2.43931">
        <ele>102.1</ele>
        <time>2024-01-24T13:28:20Z</time>
      </trkpt>
      <trkpt lat="49.85388" lon="2.4393">
        <ele>102</ele>
        <time>2024-01-24T13:28:21Z</time>
      </trkpt>
      <trkpt lat="49.85389" lon="2.43927">
        <ele>102</ele>
        <time>2024-01-24T13:28:22Z</time>
      </trkpt>
      <trkpt lat="49.85389" lon="2.43926">
        <ele>102</ele>
        <time>2024-01-24T13:28:23Z</time>
      </trkpt>
      <trkpt lat="49.8539" lon="2.43925">
        <ele>101.9</ele>
        <time>2024-01-24T13:28:24Z</time>
      </trkpt>
      <trkpt lat="49.85391" lon="2.43922">
        <ele>101.9</ele>
        <time>2024-01-24T13:28:26Z</time>
      </trkpt>
      <trkpt lat="49.85391" lon="2.4392">
        <ele>101.8</ele>
        <time>2024-01-24T13:28:27Z</time>
      </trkpt>
      <trkpt lat="49.85391" lon="2.43919">
        <ele>101.8</ele>
        <time>2024-01-24T13:28:28Z</time>
      </trkpt>
      <trkpt lat="49.85392" lon="2.43918">
        <ele>101.8</ele>
        <time>2024-01-24T13:28:29Z</time>
      </trkpt>
      <trkpt lat="49.85392" lon="2.43916">
        <ele>101.8</ele>
        <time>2024-01-24T13:28:30Z</time>
      </trkpt>
      <trkpt lat="49.85393" lon="2.43915">
        <ele>101.7</ele>
        <time>2024-01-24T13:28:31Z</time>
      </trkpt>
      <trkpt lat="49.85393" lon="2.43913">
        <ele>101.7</ele>
        <time>2024-01-24T13:28:32Z</time>
      </trkpt>
      <trkpt lat="49.85394" lon="2.43912">
        <ele>101.7</ele>
        <time>2024-01-24T13:28:33Z</time>
      </trkpt>
      <trkpt lat="49.85395" lon="2.4391">
        <ele>101.6</ele>
        <time>2024-01-24T13:28:34Z</time>
      </trkpt>
      <trkpt lat="49.85396" lon="2.43908">
        <ele>101.6</ele>
        <time>2024-01-24T13:28:35Z</time>
      </trkpt>
      <trkpt lat="49.85396" lon="2.43907">
        <ele>101.6</ele>
        <time>2024-01-24T13:28:36Z</time>
      </trkpt>
      <trkpt lat="49.85397" lon="2.43905">
        <ele>101.5</ele>
        <time>2024-01-24T13:28:37Z</time>
      </trkpt>
      <trkpt lat="49.85397" lon="2.43903">
        <ele>101.5</ele>
        <time>2024-01-24T13:28:39Z</time>
      </trkpt>
      <trkpt lat="49.85398" lon="2.43902">
        <ele>101.5</ele>
        <time>2024-01-24T13:28:40Z</time>
      </trkpt>
      <trkpt lat="49.85399" lon="2.43899">
        <ele>101.4</ele>
        <time>2024-01-24T13:28:41Z</time>
      </trkpt>
      <trkpt lat="49.85399" lon="2.43898">
        <ele>101.4</ele>
        <time>2024-01-24T13:28:42Z</time>
      </trkpt>
      <trkpt lat="49.854" lon="2.43897">
        <ele>101.3</ele>
        <time>2024-01-24T13:28:43Z</time>
      </trkpt>
      <trkpt lat="49.854" lon="2.43895">
        <ele>101.3</ele>
        <time>2024-01-24T13:28:44Z</time>
      </trkpt>
      <trkpt lat="49.85401" lon="2.43893">
        <ele>101.3</ele>
        <time>2024-01-24T13:28:45Z</time>
      </trkpt>
      <trkpt lat="49.85401" lon="2.43892">
        <ele>101.2</ele>
        <time>2024-01-24T13:28:46Z</time>
      </trkpt>
      <trkpt lat="49.85402" lon="2.43891">
        <ele>101.2</ele>
        <time>2024-01-24T13:28:48Z</time>
      </trkpt>
      <trkpt lat="49.85403" lon="2.43889">
        <ele>101.2</ele>
        <time>2024-01-24T13:28:49Z</time>
      </trkpt>
      <trkpt lat="49.85403" lon="2.43888">
        <ele>101.1</ele>
        <time>2024-01-24T13:28:50Z</time>
      </trkpt>
      <trkpt lat="49.85404" lon="2.43886">
        <ele>101.1</ele>
        <time>2024-01-24T13:28:51Z</time>
      </trkpt>
      <trkpt lat="49.85405" lon="2.43885">
        <ele>101.1</ele>
        <time>2024-01-24T13:28:52Z</time>
      </trkpt>
      <trkpt lat="49.85405" lon="2.43884">
        <ele>101</ele>
        <time>2024-01-24T13:28:53Z</time>
      </trkpt>
      <trkpt lat="49.85407" lon="2.43881">
        <ele>101</ele>
        <time>2024-01-24T13:28:54Z</time>
      </trkpt>
      <trkpt lat="49.85407" lon="2.4388">
        <ele>100.9</ele>
        <time>2024-01-24T13:28:56Z</time>
      </trkpt>
      <trkpt lat="49.85408" lon="2.43879">
        <ele>100.9</ele>
        <time>2024-01-24T13:28:57Z</time>
      </trkpt>
      <trkpt lat="49.8541" lon="2.43877">
        <ele>100.8</ele>
        <time>2024-01-24T13:28:58Z</time>
      </trkpt>
      <trkpt lat="49.8541" lon="2.43876">
        <ele>100.8</ele>
        <time>2024-01-24T13:28:59Z</time>
      </trkpt>
      <trkpt lat="49.85411" lon="2.43875">
        <ele>100.8</ele>
        <time>2024-01-24T13:29:00Z</time>
      </trkpt>
      <trkpt lat="49.85412" lon="2.43873">
        <ele>100.7</ele>
        <time>2024-01-24T13:29:01Z</time>
      </trkpt>
      <trkpt lat="49.85413" lon="2.43871">
        <ele>100.7</ele>
        <time>2024-01-24T13:29:02Z</time>
      </trkpt>
      <trkpt lat="49.85413" lon="2.43869">
        <ele>100.6</ele>
        <time>2024-01-24T13:29:04Z</time>
      </trkpt>
      <trkpt lat="49.85414" lon="2.43868">
        <ele>100.6</ele>
        <time>2024-01-24T13:29:05Z</time>
      </trkpt>
      <trkpt lat="49.85415" lon="2.43865">
        <ele>100.5</ele>
        <time>2024-01-24T13:29:06Z</time>
      </trkpt>
      <trkpt lat="49.85416" lon="2.43863">
        <ele>100.5</ele>
        <time>2024-01-24T13:29:07Z</time>
      </trkpt>
      <trkpt lat="49.85418" lon="2.4386">
        <ele>100.4</ele>
        <time>2024-01-24T13:29:08Z</time>
      </trkpt>
      <trkpt lat="49.85418" lon="2.43859">
        <ele>100.4</ele>
        <time>2024-01-24T13:29:10Z</time>
      </trkpt>
      <trkpt lat="49.85419" lon="2.43857">
        <ele>100.4</ele>
        <time>2024-01-24T13:29:11Z</time>
      </trkpt>
      <trkpt lat="49.8542" lon="2.43856">
        <ele>100.3</ele>
        <time>2024-01-24T13:29:12Z</time>
      </trkpt>
      <trkpt lat="49.8542" lon="2.43854">
        <ele>100.3</ele>
        <time>2024-01-24T13:29:13Z</time>
      </trkpt>
      <trkpt lat="49.85421" lon="2.43852">
        <ele>100.3</ele>
        <time>2024-01-24T13:29:14Z</time>
      </trkpt>
      <trkpt lat="49.85422" lon="2.43851">
        <ele>100.2</ele>
        <time>2024-01-24T13:29:15Z</time>
      </trkpt>
      <trkpt lat="49.85423" lon="2.43849">
        <ele>100.2</ele>
        <time>2024-01-24T13:29:17Z</time>
      </trkpt>
      <trkpt lat="49.85424" lon="2.43848">
        <ele>100.2</ele>
        <time>2024-01-24T13:29:18Z</time>
      </trkpt>
      <trkpt lat="49.85425" lon="2.43845">
        <ele>100.1</ele>
        <time>2024-01-24T13:29:19Z</time>
      </trkpt>
      <trkpt lat="49.85426" lon="2.43844">
        <ele>100.1</ele>
        <time>2024-01-24T13:29:20Z</time>
      </trkpt>
      <trkpt lat="49.85426" lon="2.43843">
        <ele>100.1</ele>
        <time>2024-01-24T13:29:21Z</time>
      </trkpt>
      <trkpt lat="49.85427" lon="2.4384">
        <ele>100</ele>
        <time>2024-01-24T13:29:22Z</time>
      </trkpt>
      <trkpt lat="49.85428" lon="2.43839">
        <ele>100</ele>
        <time>2024-01-24T13:29:23Z</time>
      </trkpt>
      <trkpt lat="49.85428" lon="2.43838">
        <ele>100</ele>
        <time>2024-01-24T13:29:24Z</time>
      </trkpt>
      <trkpt lat="49.85429" lon="2.43836">
        <ele>99.9</ele>
        <time>2024-01-24T13:29:25Z</time>
      </trkpt>
      <trkpt lat="49.8543" lon="2.43835">
        <ele>99.9</ele>
        <time>2024-01-24T13:29:27Z</time>
      </trkpt>
      <trkpt lat="49.8543" lon="2.43834">
        <ele>99.9</ele>
        <time>2024-01-24T13:29:28Z</time>
      </trkpt>
      <trkpt lat="49.85431" lon="2.4383">
        <ele>99.8</ele>
        <time>2024-01-24T13:29:29Z</time>
      </trkpt>
      <trkpt lat="49.85432" lon="2.43829">
        <ele>99.8</ele>
        <time>2024-01-24T13:29:30Z</time>
      </trkpt>
      <trkpt lat="49.85432" lon="2.43828">
        <ele>99.8</ele>
        <time>2024-01-24T13:29:31Z</time>
      </trkpt>
      <trkpt lat="49.85433" lon="2.43825">
        <ele>99.7</ele>
        <time>2024-01-24T13:29:32Z</time>
      </trkpt>
      <trkpt lat="49.85434" lon="2.43823">
        <ele>99.7</ele>
        <time>2024-01-24T13:29:34Z</time>
      </trkpt>
      <trkpt lat="49.85435" lon="2.43822">
        <ele>99.7</ele>
        <time>2024-01-24T13:29:35Z</time>
      </trkpt>
      <trkpt lat="49.85435" lon="2.4382">
        <ele>99.6</ele>
        <time>2024-01-24T13:29:36Z</time>
      </trkpt>
      <trkpt lat="49.85436" lon="2.43819">
        <ele>99.6</ele>
        <time>2024-01-24T13:29:37Z</time>
      </trkpt>
      <trkpt lat="49.85437" lon="2.43817">
        <ele>99.6</ele>
        <time>2024-01-24T13:29:38Z</time>
      </trkpt>
      <trkpt lat="49.85437" lon="2.43815">
        <ele>99.5</ele>
        <time>2024-01-24T13:29:39Z</time>
      </trkpt>
      <trkpt lat="49.85438" lon="2.43813">
        <ele>99.5</ele>
        <time>2024-01-24T13:29:40Z</time>
      </trkpt>
      <trkpt lat="49.85439" lon="2.4381">
        <ele>99.5</ele>
        <time>2024-01-24T13:29:42Z</time>
      </trkpt>
      <trkpt lat="49.8544" lon="2.43808">
        <ele>99.4</ele>
        <time>2024-01-24T13:29:43Z</time>
      </trkpt>
      <trkpt lat="49.8544" lon="2.43806">
        <ele>99.4</ele>
        <time>2024-01-24T13:29:44Z</time>
      </trkpt>
      <trkpt lat="49.85441" lon="2.43804">
        <ele>99.4</ele>
        <time>2024-01-24T13:29:45Z</time>
      </trkpt>
      <trkpt lat="49.85442" lon="2.43802">
        <ele>99.3</ele>
        <time>2024-01-24T13:29:46Z</time>
      </trkpt>
      <trkpt lat="49.85442" lon="2.438">
        <ele>99.3</ele>
        <time>2024-01-24T13:29:47Z</time>
      </trkpt>
      <trkpt lat="49.85442" lon="2.43798">
        <ele>99.3</ele>
        <time>2024-01-24T13:29:48Z</time>
      </trkpt>
      <trkpt lat="49.85443" lon="2.43796">
        <ele>99.3</ele>
        <time>2024-01-24T13:29:50Z</time>
      </trkpt>
      <trkpt lat="49.85444" lon="2.43794">
        <ele>99.2</ele>
        <time>2024-01-24T13:29:51Z</time>
      </trkpt>
      <trkpt lat="49.85444" lon="2.43792">
        <ele>99.2</ele>
        <time>2024-01-24T13:29:52Z</time>
      </trkpt>
      <trkpt lat="49.85445" lon="2.4379">
        <ele>99.2</ele>
        <time>2024-01-24T13:29:53Z</time>
      </trkpt>
      <trkpt lat="49.85445" lon="2.43788">
        <ele>99.2</ele>
        <time>2024-01-24T13:29:54Z</time>
      </trkpt>
      <trkpt lat="49.85446" lon="2.43785">
        <ele>99.1</ele>
        <time>2024-01-24T13:29:55Z</time>
      </trkpt>
      <trkpt lat="49.85447" lon="2.43784">
        <ele>99.1</ele>
        <time>2024-01-24T13:29:56Z</time>
      </trkpt>
      <trkpt lat="49.85447" lon="2.43783">
        <ele>99.1</ele>
        <time>2024-01-24T13:29:57Z</time>
      </trkpt>
      <trkpt lat="49.85448" lon="2.43781">
        <ele>99.1</ele>
        <time>2024-01-24T13:29:58Z</time>
      </trkpt>
      <trkpt lat="49.85448" lon="2.43779">
        <ele>99</ele>
        <time>2024-01-24T13:29:59Z</time>
      </trkpt>
      <trkpt lat="49.85449" lon="2.43777">
        <ele>99</ele>
        <time>2024-01-24T13:30:01Z</time>
      </trkpt>
      <trkpt lat="49.8545" lon="2.43775">
        <ele>99</ele>
        <time>2024-01-24T13:30:02Z</time>
      </trkpt>
      <trkpt lat="49.8545" lon="2.43773">
        <ele>99</ele>
        <time>2024-01-24T13:30:03Z</time>
      </trkpt>
      <trkpt lat="49.85452" lon="2.4377">
        <ele>98.9</ele>
        <time>2024-01-24T13:30:04Z</time>
      </trkpt>
      <trkpt lat="49.85452" lon="2.43769">
        <ele>98.9</ele>
        <time>2024-01-24T13:30:05Z</time>
      </trkpt>
      <trkpt lat="49.85453" lon="2.43768">
        <ele>98.9</ele>
        <time>2024-01-24T13:30:06Z</time>
      </trkpt>
      <trkpt lat="49.85453" lon="2.43767">
        <ele>98.9</ele>
        <time>2024-01-24T13:30:07Z</time>
      </trkpt>
      <trkpt lat="49.85454" lon="2.43765">
        <ele>98.8</ele>
        <time>2024-01-24T13:30:08Z</time>
      </trkpt>
      <trkpt lat="49.85455" lon="2.43764">
        <ele>98.8</ele>
        <time>2024-01-24T13:30:09Z</time>
      </trkpt>
      <trkpt lat="49.85456" lon="2.43763">
        <ele>98.8</ele>
        <time>2024-01-24T13:30:10Z</time>
      </trkpt>
      <trkpt lat="49.85456" lon="2.43762">
        <ele>98.8</ele>
        <time>2024-01-24T13:30:11Z</time>
      </trkpt>
      <trkpt lat="49.85457" lon="2.4376">
        <ele>98.7</ele>
        <time>2024-01-24T13:30:12Z</time>
      </trkpt>
      <trkpt lat="49.85458" lon="2.43759">
        <ele>98.7</ele>
        <time>2024-01-24T13:30:13Z</time>
      </trkpt>
      <trkpt lat="49.85459" lon="2.43758">
        <ele>98.7</ele>
        <time>2024-01-24T13:30:15Z</time>
      </trkpt>
      <trkpt lat="49.8546" lon="2.43756">
        <ele>98.7</ele>
        <time>2024-01-24T13:30:16Z</time>
      </trkpt>
      <trkpt lat="49.8546" lon="2.43755">
        <ele>98.6</ele>
        <time>2024-01-24T13:30:17Z</time>
      </trkpt>
      <trkpt lat="49.85461" lon="2.43753">
        <ele>98.6</ele>
        <time>2024-01-24T13:30:18Z</time>
      </trkpt>
      <trkpt lat="49.85462" lon="2.43752">
        <ele>98.6</ele>
        <time>2024-01-24T13:30:19Z</time>
      </trkpt>
      <trkpt lat="49.85463" lon="2.43751">
        <ele>98.6</ele>
        <time>2024-01-24T13:30:20Z</time>
      </trkpt>
      <trkpt lat="49.85463" lon="2.43749">
        <ele>98.5</ele>
        <time>2024-01-24T13:30:21Z</time>
      </trkpt>
      <trkpt lat="49.85464" lon="2.43748">
        <ele>98.5</ele>
        <time>2024-01-24T13:30:23Z</time>
      </trkpt>
      <trkpt lat="49.85465" lon="2.43745">
        <ele>98.5</ele>
        <time>2024-01-24T13:30:24Z</time>
      </trkpt>
      <trkpt lat="49.85466" lon="2.43744">
        <ele>98.5</ele>
        <time>2024-01-24T13:30:25Z</time>
      </trkpt>
      <trkpt lat="49.85466" lon="2.43742">
        <ele>98.4</ele>
        <time>2024-01-24T13:30:26Z</time>
      </trkpt>
      <trkpt lat="49.85467" lon="2.43741">
        <ele>98.4</ele>
        <time>2024-01-24T13:30:27Z</time>
      </trkpt>
      <trkpt lat="49.85468" lon="2.43738">
        <ele>98.4</ele>
        <time>2024-01-24T13:30:29Z</time>
      </trkpt>
      <trkpt lat="49.85469" lon="2.43736">
        <ele>98.3</ele>
        <time>2024-01-24T13:30:30Z</time>
      </trkpt>
      <trkpt lat="49.85469" lon="2.43734">
        <ele>98.3</ele>
        <time>2024-01-24T13:30:31Z</time>
      </trkpt>
      <trkpt lat="49.8547" lon="2.43732">
        <ele>98.3</ele>
        <time>2024-01-24T13:30:32Z</time>
      </trkpt>
      <trkpt lat="49.8547" lon="2.4373">
        <ele>98.2</ele>
        <time>2024-01-24T13:30:33Z</time>
      </trkpt>
      <trkpt lat="49.85471" lon="2.43728">
        <ele>98.2</ele>
        <time>2024-01-24T13:30:35Z</time>
      </trkpt>
      <trkpt lat="49.85472" lon="2.43725">
        <ele>98.2</ele>
        <time>2024-01-24T13:30:36Z</time>
      </trkpt>
      <trkpt lat="49.85472" lon="2.43723">
        <ele>98.1</ele>
        <time>2024-01-24T13:30:37Z</time>
      </trkpt>
      <trkpt lat="49.85473" lon="2.43721">
        <ele>98.1</ele>
        <time>2024-01-24T13:30:38Z</time>
      </trkpt>
      <trkpt lat="49.85473" lon="2.43719">
        <ele>98.1</ele>
        <time>2024-01-24T13:30:39Z</time>
      </trkpt>
      <trkpt lat="49.85474" lon="2.43716">
        <ele>98.1</ele>
        <time>2024-01-24T13:30:40Z</time>
      </trkpt>
      <trkpt lat="49.85475" lon="2.43713">
        <ele>98</ele>
        <time>2024-01-24T13:30:41Z</time>
      </trkpt>
      <trkpt lat="49.85475" lon="2.43712">
        <ele>98</ele>
        <time>2024-01-24T13:30:43Z</time>
      </trkpt>
      <trkpt lat="49.85476" lon="2.4371">
        <ele>98</ele>
        <time>2024-01-24T13:30:44Z</time>
      </trkpt>
      <trkpt lat="49.85476" lon="2.43709">
        <ele>98</ele>
        <time>2024-01-24T13:30:45Z</time>
      </trkpt>
      <trkpt lat="49.85477" lon="2.43707">
        <ele>97.9</ele>
        <time>2024-01-24T13:30:46Z</time>
      </trkpt>
      <trkpt lat="49.85477" lon="2.43705">
        <ele>97.9</ele>
        <time>2024-01-24T13:30:47Z</time>
      </trkpt>
      <trkpt lat="49.85479" lon="2.43702">
        <ele>97.9</ele>
        <time>2024-01-24T13:30:48Z</time>
      </trkpt>
      <trkpt lat="49.85479" lon="2.43701">
        <ele>97.9</ele>
        <time>2024-01-24T13:30:49Z</time>
      </trkpt>
      <trkpt lat="49.85479" lon="2.437">
        <ele>97.9</ele>
        <time>2024-01-24T13:30:50Z</time>
      </trkpt>
      <trkpt lat="49.85481" lon="2.43697">
        <ele>97.8</ele>
        <time>2024-01-24T13:30:51Z</time>
      </trkpt>
      <trkpt lat="49.85481" lon="2.43696">
        <ele>97.8</ele>
        <time>2024-01-24T13:30:53Z</time>
      </trkpt>
      <trkpt lat="49.85482" lon="2.43695">
        <ele>97.8</ele>
        <time>2024-01-24T13:30:54Z</time>
      </trkpt>
      <trkpt lat="49.85483" lon="2.43693">
        <ele>97.8</ele>
        <time>2024-01-24T13:30:55Z</time>
      </trkpt>
      <trkpt lat="49.85483" lon="2.43692">
        <ele>97.8</ele>
        <time>2024-01-24T13:30:56Z</time>
      </trkpt>
      <trkpt lat="49.85484" lon="2.4369">
        <ele>97.8</ele>
        <time>2024-01-24T13:30:57Z</time>
      </trkpt>
      <trkpt lat="49.85486" lon="2.43688">
        <ele>97.7</ele>
        <time>2024-01-24T13:30:58Z</time>
      </trkpt>
      <trkpt lat="49.85487" lon="2.43687">
        <ele>97.7</ele>
        <time>2024-01-24T13:30:59Z</time>
      </trkpt>
      <trkpt lat="49.85487" lon="2.43686">
        <ele>97.7</ele>
        <time>2024-01-24T13:31:00Z</time>
      </trkpt>
      <trkpt lat="49.85488" lon="2.43684">
        <ele>97.7</ele>
        <time>2024-01-24T13:31:02Z</time>
      </trkpt>
      <trkpt lat="49.8549" lon="2.43681">
        <ele>97.7</ele>
        <time>2024-01-24T13:31:03Z</time>
      </trkpt>
      <trkpt lat="49.85491" lon="2.4368">
        <ele>97.7</ele>
        <time>2024-01-24T13:31:04Z</time>
      </trkpt>
      <trkpt lat="49.85491" lon="2.43679">
        <ele>97.6</ele>
        <time>2024-01-24T13:31:05Z</time>
      </trkpt>
      <trkpt lat="49.85492" lon="2.43678">
        <ele>97.6</ele>
        <time>2024-01-24T13:31:06Z</time>
      </trkpt>
      <trkpt lat="49.85493" lon="2.43676">
        <ele>97.6</ele>
        <time>2024-01-24T13:31:07Z</time>
      </trkpt>
      <trkpt lat="49.85494" lon="2.43675">
        <ele>97.6</ele>
        <time>2024-01-24T13:31:08Z</time>
      </trkpt>
      <trkpt lat="49.85495" lon="2.43673">
        <ele>97.6</ele>
        <time>2024-01-24T13:31:09Z</time>
      </trkpt>
      <trkpt lat="49.85496" lon="2.4367">
        <ele>97.6</ele>
        <time>2024-01-24T13:31:11Z</time>
      </trkpt>
      <trkpt lat="49.85497" lon="2.43669">
        <ele>97.6</ele>
        <time>2024-01-24T13:31:12Z</time>
      </trkpt>
      <trkpt lat="49.85497" lon="2.43668">
        <ele>97.6</ele>
        <time>2024-01-24T13:31:13Z</time>
      </trkpt>
      <trkpt lat="49.85498" lon="2.43667">
        <ele>97.6</ele>
        <time>2024-01-24T13:31:14Z</time>
      </trkpt>
      <trkpt lat="49.85499" lon="2.43665">
        <ele>97.6</ele>
        <time>2024-01-24T13:31:15Z</time>
      </trkpt>
      <trkpt lat="49.855" lon="2.43662">
        <ele>97.6</ele>
        <time>2024-01-24T13:31:16Z</time>
      </trkpt>
      <trkpt lat="49.85501" lon="2.43661">
        <ele>97.6</ele>
        <time>2024-01-24T13:31:17Z</time>
      </trkpt>
      <trkpt lat="49.85501" lon="2.4366">
        <ele>97.6</ele>
        <time>2024-01-24T13:31:18Z</time>
      </trkpt>
      <trkpt lat="49.85502" lon="2.43658">
        <ele>97.6</ele>
        <time>2024-01-24T13:31:19Z</time>
      </trkpt>
      <trkpt lat="49.85503" lon="2.43657">
        <ele>97.6</ele>
        <time>2024-01-24T13:31:20Z</time>
      </trkpt>
      <trkpt lat="49.85503" lon="2.43655">
        <ele>97.6</ele>
        <time>2024-01-24T13:31:21Z</time>
      </trkpt>
      <trkpt lat="49.85504" lon="2.43652">
        <ele>97.6</ele>
        <time>2024-01-24T13:31:22Z</time>
      </trkpt>
      <trkpt lat="49.85505" lon="2.43651">
        <ele>97.6</ele>
        <time>2024-01-24T13:31:24Z</time>
      </trkpt>
      <trkpt lat="49.85506" lon="2.43649">
        <ele>97.6</ele>
        <time>2024-01-24T13:31:25Z</time>
      </trkpt>
      <trkpt lat="49.85506" lon="2.43648">
        <ele>97.6</ele>
        <time>2024-01-24T13:31:26Z</time>
      </trkpt>
      <trkpt lat="49.85507" lon="2.43646">
        <ele>97.6</ele>
        <time>2024-01-24T13:31:27Z</time>
      </trkpt>
      <trkpt lat="49.85508" lon="2.43645">
        <ele>97.6</ele>
        <time>2024-01-24T13:31:28Z</time>
      </trkpt>
      <trkpt lat="49.85509" lon="2.43643">
        <ele>97.6</ele>
        <time>2024-01-24T13:31:29Z</time>
      </trkpt>
      <trkpt lat="49.85509" lon="2.43641">
        <ele>97.6</ele>
        <time>2024-01-24T13:31:30Z</time>
      </trkpt>
      <trkpt lat="49.8551" lon="2.43639">
        <ele>97.6</ele>
        <time>2024-01-24T13:31:31Z</time>
      </trkpt>
      <trkpt lat="49.85511" lon="2.43638">
        <ele>97.6</ele>
        <time>2024-01-24T13:31:33Z</time>
      </trkpt>
      <trkpt lat="49.85512" lon="2.43635">
        <ele>97.7</ele>
        <time>2024-01-24T13:31:34Z</time>
      </trkpt>
      <trkpt lat="49.85513" lon="2.43634">
        <ele>97.7</ele>
        <time>2024-01-24T13:31:35Z</time>
      </trkpt>
      <trkpt lat="49.85513" lon="2.43633">
        <ele>97.7</ele>
        <time>2024-01-24T13:31:36Z</time>
      </trkpt>
      <trkpt lat="49.85514" lon="2.43632">
        <ele>97.7</ele>
        <time>2024-01-24T13:31:37Z</time>
      </trkpt>
      <trkpt lat="49.85514" lon="2.4363">
        <ele>97.7</ele>
        <time>2024-01-24T13:31:38Z</time>
      </trkpt>
      <trkpt lat="49.85515" lon="2.43629">
        <ele>97.7</ele>
        <time>2024-01-24T13:31:39Z</time>
      </trkpt>
      <trkpt lat="49.85516" lon="2.43626">
        <ele>97.8</ele>
        <time>2024-01-24T13:31:40Z</time>
      </trkpt>
      <trkpt lat="49.85516" lon="2.43625">
        <ele>97.8</ele>
        <time>2024-01-24T13:31:42Z</time>
      </trkpt>
      <trkpt lat="49.85517" lon="2.43624">
        <ele>97.8</ele>
        <time>2024-01-24T13:31:43Z</time>
      </trkpt>
      <trkpt lat="49.85518" lon="2.43623">
        <ele>97.8</ele>
        <time>2024-01-24T13:31:45Z</time>
      </trkpt>
      <trkpt lat="49.85518" lon="2.43624">
        <ele>97.8</ele>
        <time>2024-01-24T13:31:46Z</time>
      </trkpt>
      <trkpt lat="49.85519" lon="2.43625">
        <ele>97.8</ele>
        <time>2024-01-24T13:31:48Z</time>
      </trkpt>
      <trkpt lat="49.85519" lon="2.43626">
        <ele>97.8</ele>
        <time>2024-01-24T13:31:49Z</time>
      </trkpt>
      <trkpt lat="49.85518" lon="2.43626">
        <ele>97.8</ele>
        <time>2024-01-24T13:31:51Z</time>
      </trkpt>
      <trkpt lat="49.85518" lon="2.43626">
        <ele>97.9</ele>
        <time>2024-01-24T13:31:52Z</time>
      </trkpt>
      <trkpt lat="49.85518" lon="2.43626">
        <ele>97.9</ele>
        <time>2024-01-24T13:31:54Z</time>
      </trkpt>
      <trkpt lat="49.85518" lon="2.43626">
        <ele>97.9</ele>
        <time>2024-01-24T13:31:55Z</time>
      </trkpt>
      <trkpt lat="49.85518" lon="2.43626">
        <ele>97.9</ele>
        <time>2024-01-24T13:31:56Z</time>
      </trkpt>
      <trkpt lat="49.85518" lon="2.43626">
        <ele>97.9</ele>
        <time>2024-01-24T13:31:58Z</time>
      </trkpt>
      <trkpt lat="49.85513" lon="2.43624">
        <ele>98</ele>
        <time>2024-01-24T13:33:44Z</time>
      </trkpt>
      <trkpt lat="49.85513" lon="2.43623">
        <ele>98</ele>
        <time>2024-01-24T13:33:45Z</time>
      </trkpt>
      <trkpt lat="49.85513" lon="2.43622">
        <ele>98</ele>
        <time>2024-01-24T13:33:46Z</time>
      </trkpt>
      <trkpt lat="49.85514" lon="2.4362">
        <ele>98</ele>
        <time>2024-01-24T13:33:47Z</time>
      </trkpt>
      <trkpt lat="49.85514" lon="2.43619">
        <ele>98.1</ele>
        <time>2024-01-24T13:33:48Z</time>
      </trkpt>
      <trkpt lat="49.85515" lon="2.43618">
        <ele>98.1</ele>
        <time>2024-01-24T13:33:50Z</time>
      </trkpt>
      <trkpt lat="49.85515" lon="2.43617">
        <ele>98.1</ele>
        <time>2024-01-24T13:33:51Z</time>
      </trkpt>
      <trkpt lat="49.85516" lon="2.43616">
        <ele>98.1</ele>
        <time>2024-01-24T13:33:52Z</time>
      </trkpt>
      <trkpt lat="49.85517" lon="2.43614">
        <ele>98.2</ele>
        <time>2024-01-24T13:33:53Z</time>
      </trkpt>
      <trkpt lat="49.85518" lon="2.43613">
        <ele>98.2</ele>
        <time>2024-01-24T13:33:54Z</time>
      </trkpt>
      <trkpt lat="49.85519" lon="2.43612">
        <ele>98.3</ele>
        <time>2024-01-24T13:33:55Z</time>
      </trkpt>
      <trkpt lat="49.8552" lon="2.4361">
        <ele>98.3</ele>
        <time>2024-01-24T13:33:56Z</time>
      </trkpt>
      <trkpt lat="49.85521" lon="2.43608">
        <ele>98.4</ele>
        <time>2024-01-24T13:33:58Z</time>
      </trkpt>
      <trkpt lat="49.85521" lon="2.43605">
        <ele>98.4</ele>
        <time>2024-01-24T13:33:59Z</time>
      </trkpt>
      <trkpt lat="49.85522" lon="2.43603">
        <ele>98.5</ele>
        <time>2024-01-24T13:34:00Z</time>
      </trkpt>
      <trkpt lat="49.85522" lon="2.436">
        <ele>98.5</ele>
        <time>2024-01-24T13:34:01Z</time>
      </trkpt>
      <trkpt lat="49.85523" lon="2.43598">
        <ele>98.6</ele>
        <time>2024-01-24T13:34:02Z</time>
      </trkpt>
      <trkpt lat="49.85523" lon="2.43595">
        <ele>98.6</ele>
        <time>2024-01-24T13:34:04Z</time>
      </trkpt>
      <trkpt lat="49.85524" lon="2.43593">
        <ele>98.6</ele>
        <time>2024-01-24T13:34:05Z</time>
      </trkpt>
      <trkpt lat="49.85524" lon="2.43592">
        <ele>98.7</ele>
        <time>2024-01-24T13:34:06Z</time>
      </trkpt>
      <trkpt lat="49.85526" lon="2.43589">
        <ele>98.7</ele>
        <time>2024-01-24T13:34:07Z</time>
      </trkpt>
      <trkpt lat="49.85526" lon="2.43588">
        <ele>98.8</ele>
        <time>2024-01-24T13:34:08Z</time>
      </trkpt>
      <trkpt lat="49.85527" lon="2.43587">
        <ele>98.8</ele>
        <time>2024-01-24T13:34:09Z</time>
      </trkpt>
      <trkpt lat="49.85528" lon="2.43585">
        <ele>98.8</ele>
        <time>2024-01-24T13:34:10Z</time>
      </trkpt>
      <trkpt lat="49.85528" lon="2.43583">
        <ele>98.9</ele>
        <time>2024-01-24T13:34:11Z</time>
      </trkpt>
      <trkpt lat="49.8553" lon="2.4358">
        <ele>99</ele>
        <time>2024-01-24T13:34:12Z</time>
      </trkpt>
      <trkpt lat="49.85531" lon="2.43579">
        <ele>99</ele>
        <time>2024-01-24T13:34:14Z</time>
      </trkpt>
      <trkpt lat="49.85531" lon="2.43577">
        <ele>99.1</ele>
        <time>2024-01-24T13:34:15Z</time>
      </trkpt>
      <trkpt lat="49.85532" lon="2.43576">
        <ele>99.1</ele>
        <time>2024-01-24T13:34:16Z</time>
      </trkpt>
      <trkpt lat="49.85533" lon="2.43574">
        <ele>99.1</ele>
        <time>2024-01-24T13:34:17Z</time>
      </trkpt>
      <trkpt lat="49.85534" lon="2.43572">
        <ele>99.2</ele>
        <time>2024-01-24T13:34:18Z</time>
      </trkpt>
      <trkpt lat="49.85535" lon="2.43571">
        <ele>99.2</ele>
        <time>2024-01-24T13:34:19Z</time>
      </trkpt>
      <trkpt lat="49.85535" lon="2.4357">
        <ele>99.3</ele>
        <time>2024-01-24T13:34:20Z</time>
      </trkpt>
      <trkpt lat="49.85536" lon="2.43568">
        <ele>99.3</ele>
        <time>2024-01-24T13:34:22Z</time>
      </trkpt>
      <trkpt lat="49.85537" lon="2.43567">
        <ele>99.4</ele>
        <time>2024-01-24T13:34:23Z</time>
      </trkpt>
      <trkpt lat="49.85538" lon="2.43565">
        <ele>99.4</ele>
        <time>2024-01-24T13:34:24Z</time>
      </trkpt>
      <trkpt lat="49.85539" lon="2.43563">
        <ele>99.5</ele>
        <time>2024-01-24T13:34:25Z</time>
      </trkpt>
      <trkpt lat="49.8554" lon="2.43561">
        <ele>99.6</ele>
        <time>2024-01-24T13:34:26Z</time>
      </trkpt>
      <trkpt lat="49.85541" lon="2.4356">
        <ele>99.6</ele>
        <time>2024-01-24T13:34:27Z</time>
      </trkpt>
      <trkpt lat="49.85541" lon="2.43559">
        <ele>99.6</ele>
        <time>2024-01-24T13:34:28Z</time>
      </trkpt>
      <trkpt lat="49.85542" lon="2.43557">
        <ele>99.7</ele>
        <time>2024-01-24T13:34:29Z</time>
      </trkpt>
      <trkpt lat="49.85542" lon="2.43556">
        <ele>99.7</ele>
        <time>2024-01-24T13:34:30Z</time>
      </trkpt>
      <trkpt lat="49.85543" lon="2.43554">
        <ele>99.8</ele>
        <time>2024-01-24T13:34:31Z</time>
      </trkpt>
      <trkpt lat="49.85545" lon="2.43552">
        <ele>99.9</ele>
        <time>2024-01-24T13:34:32Z</time>
      </trkpt>
      <trkpt lat="49.85545" lon="2.43551">
        <ele>99.9</ele>
        <time>2024-01-24T13:34:34Z</time>
      </trkpt>
      <trkpt lat="49.85546" lon="2.43549">
        <ele>99.9</ele>
        <time>2024-01-24T13:34:35Z</time>
      </trkpt>
      <trkpt lat="49.85547" lon="2.43547">
        <ele>100</ele>
        <time>2024-01-24T13:34:36Z</time>
      </trkpt>
      <trkpt lat="49.85548" lon="2.43546">
        <ele>100.1</ele>
        <time>2024-01-24T13:34:37Z</time>
      </trkpt>
      <trkpt lat="49.85548" lon="2.43545">
        <ele>100.1</ele>
        <time>2024-01-24T13:34:38Z</time>
      </trkpt>
      <trkpt lat="49.85549" lon="2.43543">
        <ele>100.2</ele>
        <time>2024-01-24T13:34:39Z</time>
      </trkpt>
      <trkpt lat="49.8555" lon="2.43542">
        <ele>100.2</ele>
        <time>2024-01-24T13:34:40Z</time>
      </trkpt>
      <trkpt lat="49.85551" lon="2.43541">
        <ele>100.3</ele>
        <time>2024-01-24T13:34:41Z</time>
      </trkpt>
      <trkpt lat="49.85552" lon="2.43538">
        <ele>100.4</ele>
        <time>2024-01-24T13:34:42Z</time>
      </trkpt>
      <trkpt lat="49.85553" lon="2.43537">
        <ele>100.4</ele>
        <time>2024-01-24T13:34:44Z</time>
      </trkpt>
      <trkpt lat="49.85554" lon="2.43536">
        <ele>100.5</ele>
        <time>2024-01-24T13:34:45Z</time>
      </trkpt>
      <trkpt lat="49.85554" lon="2.43535">
        <ele>100.5</ele>
        <time>2024-01-24T13:34:46Z</time>
      </trkpt>
      <trkpt lat="49.85555" lon="2.43534">
        <ele>100.6</ele>
        <time>2024-01-24T13:34:47Z</time>
      </trkpt>
      <trkpt lat="49.85556" lon="2.43532">
        <ele>100.6</ele>
        <time>2024-01-24T13:34:48Z</time>
      </trkpt>
      <trkpt lat="49.85557" lon="2.43532">
        <ele>100.7</ele>
        <time>2024-01-24T13:34:49Z</time>
      </trkpt>
      <trkpt lat="49.85558" lon="2.43531">
        <ele>100.8</ele>
        <time>2024-01-24T13:34:50Z</time>
      </trkpt>
      <trkpt lat="49.85559" lon="2.4353">
        <ele>100.8</ele>
        <time>2024-01-24T13:34:52Z</time>
      </trkpt>
      <trkpt lat="49.8556" lon="2.43529">
        <ele>100.9</ele>
        <time>2024-01-24T13:34:53Z</time>
      </trkpt>
      <trkpt lat="49.85561" lon="2.43528">
        <ele>100.9</ele>
        <time>2024-01-24T13:34:54Z</time>
      </trkpt>
      <trkpt lat="49.85562" lon="2.43527">
        <ele>101</ele>
        <time>2024-01-24T13:34:55Z</time>
      </trkpt>
      <trkpt lat="49.85562" lon="2.43526">
        <ele>101.1</ele>
        <time>2024-01-24T13:34:56Z</time>
      </trkpt>
      <trkpt lat="49.85563" lon="2.43525">
        <ele>101.1</ele>
        <time>2024-01-24T13:34:57Z</time>
      </trkpt>
      <trkpt lat="49.85564" lon="2.43524">
        <ele>101.2</ele>
        <time>2024-01-24T13:34:58Z</time>
      </trkpt>
      <trkpt lat="49.85565" lon="2.43523">
        <ele>101.2</ele>
        <time>2024-01-24T13:35:00Z</time>
      </trkpt>
      <trkpt lat="49.85566" lon="2.43522">
        <ele>101.3</ele>
        <time>2024-01-24T13:35:01Z</time>
      </trkpt>
      <trkpt lat="49.85567" lon="2.43521">
        <ele>101.4</ele>
        <time>2024-01-24T13:35:02Z</time>
      </trkpt>
      <trkpt lat="49.85568" lon="2.4352">
        <ele>101.5</ele>
        <time>2024-01-24T13:35:03Z</time>
      </trkpt>
      <trkpt lat="49.85569" lon="2.43519">
        <ele>101.5</ele>
        <time>2024-01-24T13:35:04Z</time>
      </trkpt>
      <trkpt lat="49.85569" lon="2.43518">
        <ele>101.6</ele>
        <time>2024-01-24T13:35:05Z</time>
      </trkpt>
      <trkpt lat="49.8557" lon="2.43517">
        <ele>101.6</ele>
        <time>2024-01-24T13:35:07Z</time>
      </trkpt>
      <trkpt lat="49.85571" lon="2.43516">
        <ele>101.7</ele>
        <time>2024-01-24T13:35:08Z</time>
      </trkpt>
      <trkpt lat="49.85572" lon="2.43515">
        <ele>101.8</ele>
        <time>2024-01-24T13:35:09Z</time>
      </trkpt>
      <trkpt lat="49.85573" lon="2.43514">
        <ele>101.9</ele>
        <time>2024-01-24T13:35:10Z</time>
      </trkpt>
      <trkpt lat="49.85574" lon="2.43513">
        <ele>101.9</ele>
        <time>2024-01-24T13:35:11Z</time>
      </trkpt>
      <trkpt lat="49.85575" lon="2.43512">
        <ele>102</ele>
        <time>2024-01-24T13:35:12Z</time>
      </trkpt>
      <trkpt lat="49.85575" lon="2.43511">
        <ele>102</ele>
        <time>2024-01-24T13:35:13Z</time>
      </trkpt>
      <trkpt lat="49.85576" lon="2.43509">
        <ele>102.1</ele>
        <time>2024-01-24T13:35:15Z</time>
      </trkpt>
      <trkpt lat="49.85577" lon="2.43508">
        <ele>102.2</ele>
        <time>2024-01-24T13:35:16Z</time>
      </trkpt>
      <trkpt lat="49.85578" lon="2.43507">
        <ele>102.3</ele>
        <time>2024-01-24T13:35:17Z</time>
      </trkpt>
      <trkpt lat="49.85578" lon="2.43505">
        <ele>102.3</ele>
        <time>2024-01-24T13:35:18Z</time>
      </trkpt>
      <trkpt lat="49.85579" lon="2.43504">
        <ele>102.4</ele>
        <time>2024-01-24T13:35:19Z</time>
      </trkpt>
      <trkpt lat="49.8558" lon="2.43503">
        <ele>102.5</ele>
        <time>2024-01-24T13:35:21Z</time>
      </trkpt>
      <trkpt lat="49.85581" lon="2.43502">
        <ele>102.6</ele>
        <time>2024-01-24T13:35:22Z</time>
      </trkpt>
      <trkpt lat="49.85582" lon="2.43499">
        <ele>102.7</ele>
        <time>2024-01-24T13:35:23Z</time>
      </trkpt>
      <trkpt lat="49.85583" lon="2.43499">
        <ele>102.7</ele>
        <time>2024-01-24T13:35:24Z</time>
      </trkpt>
      <trkpt lat="49.85584" lon="2.43498">
        <ele>102.8</ele>
        <time>2024-01-24T13:35:25Z</time>
      </trkpt>
      <trkpt lat="49.85584" lon="2.43497">
        <ele>102.9</ele>
        <time>2024-01-24T13:35:26Z</time>
      </trkpt>
      <trkpt lat="49.85585" lon="2.43495">
        <ele>102.9</ele>
        <time>2024-01-24T13:35:27Z</time>
      </trkpt>
      <trkpt lat="49.85586" lon="2.43494">
        <ele>103</ele>
        <time>2024-01-24T13:35:29Z</time>
      </trkpt>
      <trkpt lat="49.85587" lon="2.43493">
        <ele>103.1</ele>
        <time>2024-01-24T13:35:30Z</time>
      </trkpt>
      <trkpt lat="49.85588" lon="2.43491">
        <ele>103.2</ele>
        <time>2024-01-24T13:35:31Z</time>
      </trkpt>
      <trkpt lat="49.8559" lon="2.43489">
        <ele>103.4</ele>
        <time>2024-01-24T13:35:32Z</time>
      </trkpt>
      <trkpt lat="49.85591" lon="2.43488">
        <ele>103.4</ele>
        <time>2024-01-24T13:35:33Z</time>
      </trkpt>
      <trkpt lat="49.85591" lon="2.43487">
        <ele>103.5</ele>
        <time>2024-01-24T13:35:35Z</time>
      </trkpt>
      <trkpt lat="49.85592" lon="2.43485">
        <ele>103.6</ele>
        <time>2024-01-24T13:35:36Z</time>
      </trkpt>
      <trkpt lat="49.85593" lon="2.43484">
        <ele>103.6</ele>
        <time>2024-01-24T13:35:37Z</time>
      </trkpt>
      <trkpt lat="49.85593" lon="2.43483">
        <ele>103.7</ele>
        <time>2024-01-24T13:35:38Z</time>
      </trkpt>
      <trkpt lat="49.85594" lon="2.43482">
        <ele>103.7</ele>
        <time>2024-01-24T13:35:39Z</time>
      </trkpt>
      <trkpt lat="49.85595" lon="2.43481">
        <ele>103.8</ele>
        <time>2024-01-24T13:35:41Z</time>
      </trkpt>
      <trkpt lat="49.85596" lon="2.4348">
        <ele>103.9</ele>
        <time>2024-01-24T13:35:42Z</time>
      </trkpt>
      <trkpt lat="49.85597" lon="2.43479">
        <ele>104</ele>
        <time>2024-01-24T13:35:43Z</time>
      </trkpt>
      <trkpt lat="49.85598" lon="2.43477">
        <ele>104</ele>
        <time>2024-01-24T13:35:44Z</time>
      </trkpt>
      <trkpt lat="49.85599" lon="2.43477">
        <ele>104.1</ele>
        <time>2024-01-24T13:35:45Z</time>
      </trkpt>
      <trkpt lat="49.856" lon="2.43476">
        <ele>104.2</ele>
        <time>2024-01-24T13:35:46Z</time>
      </trkpt>
      <trkpt lat="49.85601" lon="2.43475">
        <ele>104.2</ele>
        <time>2024-01-24T13:35:48Z</time>
      </trkpt>
      <trkpt lat="49.85602" lon="2.43474">
        <ele>104.3</ele>
        <time>2024-01-24T13:35:49Z</time>
      </trkpt>
      <trkpt lat="49.85603" lon="2.43473">
        <ele>104.4</ele>
        <time>2024-01-24T13:35:50Z</time>
      </trkpt>
      <trkpt lat="49.85604" lon="2.43473">
        <ele>104.4</ele>
        <time>2024-01-24T13:35:51Z</time>
      </trkpt>
      <trkpt lat="49.85605" lon="2.43472">
        <ele>104.5</ele>
        <time>2024-01-24T13:35:52Z</time>
      </trkpt>
      <trkpt lat="49.85607" lon="2.43471">
        <ele>104.6</ele>
        <time>2024-01-24T13:35:54Z</time>
      </trkpt>
      <trkpt lat="49.85607" lon="2.4347">
        <ele>104.7</ele>
        <time>2024-01-24T13:35:55Z</time>
      </trkpt>
      <trkpt lat="49.85608" lon="2.43469">
        <ele>104.7</ele>
        <time>2024-01-24T13:35:56Z</time>
      </trkpt>
      <trkpt lat="49.85609" lon="2.43468">
        <ele>104.8</ele>
        <time>2024-01-24T13:35:57Z</time>
      </trkpt>
      <trkpt lat="49.8561" lon="2.43467">
        <ele>104.8</ele>
        <time>2024-01-24T13:35:58Z</time>
      </trkpt>
      <trkpt lat="49.85611" lon="2.43466">
        <ele>104.9</ele>
        <time>2024-01-24T13:35:59Z</time>
      </trkpt>
      <trkpt lat="49.85613" lon="2.43465">
        <ele>105</ele>
        <time>2024-01-24T13:36:01Z</time>
      </trkpt>
      <trkpt lat="49.85613" lon="2.43464">
        <ele>105</ele>
        <time>2024-01-24T13:36:02Z</time>
      </trkpt>
      <trkpt lat="49.85614" lon="2.43463">
        <ele>105</ele>
        <time>2024-01-24T13:36:03Z</time>
      </trkpt>
      <trkpt lat="49.85616" lon="2.43462">
        <ele>105.1</ele>
        <time>2024-01-24T13:36:04Z</time>
      </trkpt>
      <trkpt lat="49.85617" lon="2.43461">
        <ele>105.1</ele>
        <time>2024-01-24T13:36:05Z</time>
      </trkpt>
      <trkpt lat="49.85618" lon="2.43461">
        <ele>105.2</ele>
        <time>2024-01-24T13:36:06Z</time>
      </trkpt>
      <trkpt lat="49.85619" lon="2.43461">
        <ele>105.2</ele>
        <time>2024-01-24T13:36:07Z</time>
      </trkpt>
      <trkpt lat="49.8562" lon="2.43461">
        <ele>105.3</ele>
        <time>2024-01-24T13:36:09Z</time>
      </trkpt>
      <trkpt lat="49.85621" lon="2.43461">
        <ele>105.3</ele>
        <time>2024-01-24T13:36:10Z</time>
      </trkpt>
      <trkpt lat="49.85623" lon="2.43462">
        <ele>105.4</ele>
        <time>2024-01-24T13:36:11Z</time>
      </trkpt>
      <trkpt lat="49.85624" lon="2.43462">
        <ele>105.4</ele>
        <time>2024-01-24T13:36:12Z</time>
      </trkpt>
      <trkpt lat="49.85625" lon="2.43462">
        <ele>105.4</ele>
        <time>2024-01-24T13:36:13Z</time>
      </trkpt>
      <trkpt lat="49.85626" lon="2.43462">
        <ele>105.5</ele>
        <time>2024-01-24T13:36:14Z</time>
      </trkpt>
      <trkpt lat="49.85627" lon="2.43461">
        <ele>105.5</ele>
        <time>2024-01-24T13:36:15Z</time>
      </trkpt>
      <trkpt lat="49.85628" lon="2.4346">
        <ele>105.5</ele>
        <time>2024-01-24T13:36:17Z</time>
      </trkpt>
      <trkpt lat="49.85629" lon="2.43459">
        <ele>105.6</ele>
        <time>2024-01-24T13:36:18Z</time>
      </trkpt>
      <trkpt lat="49.8563" lon="2.43458">
        <ele>105.6</ele>
        <time>2024-01-24T13:36:19Z</time>
      </trkpt>
      <trkpt lat="49.85631" lon="2.43458">
        <ele>105.6</ele>
        <time>2024-01-24T13:36:20Z</time>
      </trkpt>
      <trkpt lat="49.85632" lon="2.43457">
        <ele>105.7</ele>
        <time>2024-01-24T13:36:21Z</time>
      </trkpt>
      <trkpt lat="49.85633" lon="2.43456">
        <ele>105.7</ele>
        <time>2024-01-24T13:36:22Z</time>
      </trkpt>
      <trkpt lat="49.85634" lon="2.43455">
        <ele>105.7</ele>
        <time>2024-01-24T13:36:24Z</time>
      </trkpt>
      <trkpt lat="49.85636" lon="2.43454">
        <ele>105.8</ele>
        <time>2024-01-24T13:36:25Z</time>
      </trkpt>
      <trkpt lat="49.85637" lon="2.43453">
        <ele>105.8</ele>
        <time>2024-01-24T13:36:26Z</time>
      </trkpt>
      <trkpt lat="49.85638" lon="2.43453">
        <ele>105.8</ele>
        <time>2024-01-24T13:36:27Z</time>
      </trkpt>
      <trkpt lat="49.85639" lon="2.43452">
        <ele>105.8</ele>
        <time>2024-01-24T13:36:28Z</time>
      </trkpt>
      <trkpt lat="49.85639" lon="2.43452">
        <ele>105.9</ele>
        <time>2024-01-24T13:36:29Z</time>
      </trkpt>
      <trkpt lat="49.85641" lon="2.43451">
        <ele>105.9</ele>
        <time>2024-01-24T13:36:31Z</time>
      </trkpt>
      <trkpt lat="49.85642" lon="2.43451">
        <ele>105.9</ele>
        <time>2024-01-24T13:36:32Z</time>
      </trkpt>
      <trkpt lat="49.85643" lon="2.4345">
        <ele>105.9</ele>
        <time>2024-01-24T13:36:33Z</time>
      </trkpt>
      <trkpt lat="49.85644" lon="2.4345">
        <ele>106</ele>
        <time>2024-01-24T13:36:34Z</time>
      </trkpt>
      <trkpt lat="49.85646" lon="2.43449">
        <ele>106</ele>
        <time>2024-01-24T13:36:35Z</time>
      </trkpt>
      <trkpt lat="49.85647" lon="2.43449">
        <ele>106</ele>
        <time>2024-01-24T13:36:37Z</time>
      </trkpt>
      <trkpt lat="49.85648" lon="2.43448">
        <ele>106.1</ele>
        <time>2024-01-24T13:36:38Z</time>
      </trkpt>
      <trkpt lat="49.8565" lon="2.43447">
        <ele>106.1</ele>
        <time>2024-01-24T13:36:39Z</time>
      </trkpt>
      <trkpt lat="49.85651" lon="2.43447">
        <ele>106.1</ele>
        <time>2024-01-24T13:36:40Z</time>
      </trkpt>
      <trkpt lat="49.85652" lon="2.43447">
        <ele>106.2</ele>
        <time>2024-01-24T13:36:41Z</time>
      </trkpt>
      <trkpt lat="49.85654" lon="2.43446">
        <ele>106.2</ele>
        <time>2024-01-24T13:36:42Z</time>
      </trkpt>
      <trkpt lat="49.85655" lon="2.43446">
        <ele>106.2</ele>
        <time>2024-01-24T13:36:44Z</time>
      </trkpt>
      <trkpt lat="49.85656" lon="2.43446">
        <ele>106.3</ele>
        <time>2024-01-24T13:36:45Z</time>
      </trkpt>
      <trkpt lat="49.85658" lon="2.43445">
        <ele>106.3</ele>
        <time>2024-01-24T13:36:46Z</time>
      </trkpt>
      <trkpt lat="49.85659" lon="2.43445">
        <ele>106.3</ele>
        <time>2024-01-24T13:36:47Z</time>
      </trkpt>
      <trkpt lat="49.85659" lon="2.43445">
        <ele>106.3</ele>
        <time>2024-01-24T13:36:48Z</time>
      </trkpt>
      <trkpt lat="49.85661" lon="2.43444">
        <ele>106.4</ele>
        <time>2024-01-24T13:36:49Z</time>
      </trkpt>
      <trkpt lat="49.85662" lon="2.43444">
        <ele>106.4</ele>
        <time>2024-01-24T13:36:50Z</time>
      </trkpt>
      <trkpt lat="49.85663" lon="2.43443">
        <ele>106.4</ele>
        <time>2024-01-24T13:36:51Z</time>
      </trkpt>
      <trkpt lat="49.85664" lon="2.43443">
        <ele>106.4</ele>
        <time>2024-01-24T13:36:53Z</time>
      </trkpt>
      <trkpt lat="49.85665" lon="2.43443">
        <ele>106.4</ele>
        <time>2024-01-24T13:36:54Z</time>
      </trkpt>
      <trkpt lat="49.85666" lon="2.43442">
        <ele>106.4</ele>
        <time>2024-01-24T13:36:55Z</time>
      </trkpt>
      <trkpt lat="49.85667" lon="2.43441">
        <ele>106.4</ele>
        <time>2024-01-24T13:36:56Z</time>
      </trkpt>
      <trkpt lat="49.85668" lon="2.43441">
        <ele>106.5</ele>
        <time>2024-01-24T13:36:57Z</time>
      </trkpt>
      <trkpt lat="49.85669" lon="2.4344">
        <ele>106.5</ele>
        <time>2024-01-24T13:36:58Z</time>
      </trkpt>
      <trkpt lat="49.8567" lon="2.43439">
        <ele>106.5</ele>
        <time>2024-01-24T13:37:00Z</time>
      </trkpt>
      <trkpt lat="49.85671" lon="2.43439">
        <ele>106.5</ele>
        <time>2024-01-24T13:37:01Z</time>
      </trkpt>
      <trkpt lat="49.85672" lon="2.43438">
        <ele>106.5</ele>
        <time>2024-01-24T13:37:02Z</time>
      </trkpt>
      <trkpt lat="49.85673" lon="2.43438">
        <ele>106.5</ele>
        <time>2024-01-24T13:37:03Z</time>
      </trkpt>
      <trkpt lat="49.85674" lon="2.43437">
        <ele>106.5</ele>
        <time>2024-01-24T13:37:04Z</time>
      </trkpt>
      <trkpt lat="49.85675" lon="2.43437">
        <ele>106.5</ele>
        <time>2024-01-24T13:37:05Z</time>
      </trkpt>
      <trkpt lat="49.85677" lon="2.43436">
        <ele>106.5</ele>
        <time>2024-01-24T13:37:06Z</time>
      </trkpt>
      <trkpt lat="49.85678" lon="2.43435">
        <ele>106.5</ele>
        <time>2024-01-24T13:37:08Z</time>
      </trkpt>
      <trkpt lat="49.85679" lon="2.43435">
        <ele>106.5</ele>
        <time>2024-01-24T13:37:09Z</time>
      </trkpt>
      <trkpt lat="49.8568" lon="2.43434">
        <ele>106.5</ele>
        <time>2024-01-24T13:37:10Z</time>
      </trkpt>
      <trkpt lat="49.85681" lon="2.43434">
        <ele>106.5</ele>
        <time>2024-01-24T13:37:11Z</time>
      </trkpt>
      <trkpt lat="49.85682" lon="2.43434">
        <ele>106.5</ele>
        <time>2024-01-24T13:37:12Z</time>
      </trkpt>
      <trkpt lat="49.85684" lon="2.43433">
        <ele>106.6</ele>
        <time>2024-01-24T13:37:13Z</time>
      </trkpt>
      <trkpt lat="49.85685" lon="2.43433">
        <ele>106.6</ele>
        <time>2024-01-24T13:37:14Z</time>
      </trkpt>
      <trkpt lat="49.85686" lon="2.43433">
        <ele>106.6</ele>
        <time>2024-01-24T13:37:15Z</time>
      </trkpt>
      <trkpt lat="49.85687" lon="2.43433">
        <ele>106.6</ele>
        <time>2024-01-24T13:37:16Z</time>
      </trkpt>
      <trkpt lat="49.85689" lon="2.43432">
        <ele>106.6</ele>
        <time>2024-01-24T13:37:18Z</time>
      </trkpt>
      <trkpt lat="49.8569" lon="2.43432">
        <ele>106.6</ele>
        <time>2024-01-24T13:37:19Z</time>
      </trkpt>
      <trkpt lat="49.85691" lon="2.43432">
        <ele>106.6</ele>
        <time>2024-01-24T13:37:20Z</time>
      </trkpt>
      <trkpt lat="49.85692" lon="2.43432">
        <ele>106.6</ele>
        <time>2024-01-24T13:37:21Z</time>
      </trkpt>
      <trkpt lat="49.85694" lon="2.43431">
        <ele>106.6</ele>
        <time>2024-01-24T13:37:22Z</time>
      </trkpt>
      <trkpt lat="49.85695" lon="2.4343">
        <ele>106.6</ele>
        <time>2024-01-24T13:37:24Z</time>
      </trkpt>
      <trkpt lat="49.85696" lon="2.4343">
        <ele>106.6</ele>
        <time>2024-01-24T13:37:25Z</time>
      </trkpt>
      <trkpt lat="49.85698" lon="2.43429">
        <ele>106.6</ele>
        <time>2024-01-24T13:37:26Z</time>
      </trkpt>
      <trkpt lat="49.85698" lon="2.43428">
        <ele>106.6</ele>
        <time>2024-01-24T13:37:27Z</time>
      </trkpt>
      <trkpt lat="49.85699" lon="2.43427">
        <ele>106.6</ele>
        <time>2024-01-24T13:37:28Z</time>
      </trkpt>
      <trkpt lat="49.857" lon="2.43426">
        <ele>106.6</ele>
        <time>2024-01-24T13:37:30Z</time>
      </trkpt>
      <trkpt lat="49.85701" lon="2.43425">
        <ele>106.6</ele>
        <time>2024-01-24T13:37:31Z</time>
      </trkpt>
      <trkpt lat="49.85703" lon="2.43424">
        <ele>106.6</ele>
        <time>2024-01-24T13:37:32Z</time>
      </trkpt>
      <trkpt lat="49.85704" lon="2.43424">
        <ele>106.6</ele>
        <time>2024-01-24T13:37:33Z</time>
      </trkpt>
      <trkpt lat="49.85705" lon="2.43423">
        <ele>106.6</ele>
        <time>2024-01-24T13:37:34Z</time>
      </trkpt>
      <trkpt lat="49.85706" lon="2.43423">
        <ele>106.6</ele>
        <time>2024-01-24T13:37:35Z</time>
      </trkpt>
      <trkpt lat="49.85707" lon="2.43422">
        <ele>106.6</ele>
        <time>2024-01-24T13:37:36Z</time>
      </trkpt>
      <trkpt lat="49.85708" lon="2.43421">
        <ele>106.6</ele>
        <time>2024-01-24T13:37:37Z</time>
      </trkpt>
      <trkpt lat="49.8571" lon="2.4342">
        <ele>106.6</ele>
        <time>2024-01-24T13:37:39Z</time>
      </trkpt>
      <trkpt lat="49.85711" lon="2.43419">
        <ele>106.6</ele>
        <time>2024-01-24T13:37:40Z</time>
      </trkpt>
      <trkpt lat="49.85712" lon="2.43419">
        <ele>106.6</ele>
        <time>2024-01-24T13:37:41Z</time>
      </trkpt>
      <trkpt lat="49.85714" lon="2.43417">
        <ele>106.6</ele>
        <time>2024-01-24T13:37:42Z</time>
      </trkpt>
      <trkpt lat="49.85714" lon="2.43417">
        <ele>106.6</ele>
        <time>2024-01-24T13:37:43Z</time>
      </trkpt>
      <trkpt lat="49.85715" lon="2.43416">
        <ele>106.6</ele>
        <time>2024-01-24T13:37:44Z</time>
      </trkpt>
      <trkpt lat="49.85716" lon="2.43415">
        <ele>106.5</ele>
        <time>2024-01-24T13:37:45Z</time>
      </trkpt>
      <trkpt lat="49.85717" lon="2.43415">
        <ele>106.5</ele>
        <time>2024-01-24T13:37:46Z</time>
      </trkpt>
      <trkpt lat="49.85718" lon="2.43414">
        <ele>106.5</ele>
        <time>2024-01-24T13:37:47Z</time>
      </trkpt>
      <trkpt lat="49.85719" lon="2.43413">
        <ele>106.5</ele>
        <time>2024-01-24T13:37:48Z</time>
      </trkpt>
      <trkpt lat="49.8572" lon="2.43412">
        <ele>106.4</ele>
        <time>2024-01-24T13:37:49Z</time>
      </trkpt>
      <trkpt lat="49.85722" lon="2.43411">
        <ele>106.4</ele>
        <time>2024-01-24T13:37:51Z</time>
      </trkpt>
      <trkpt lat="49.85723" lon="2.43411">
        <ele>106.4</ele>
        <time>2024-01-24T13:37:52Z</time>
      </trkpt>
      <trkpt lat="49.85724" lon="2.4341">
        <ele>106.3</ele>
        <time>2024-01-24T13:37:53Z</time>
      </trkpt>
      <trkpt lat="49.85725" lon="2.4341">
        <ele>106.3</ele>
        <time>2024-01-24T13:37:54Z</time>
      </trkpt>
      <trkpt lat="49.85727" lon="2.43409">
        <ele>106.3</ele>
        <time>2024-01-24T13:37:55Z</time>
      </trkpt>
      <trkpt lat="49.85728" lon="2.43408">
        <ele>106.2</ele>
        <time>2024-01-24T13:37:56Z</time>
      </trkpt>
      <trkpt lat="49.8573" lon="2.43407">
        <ele>106.2</ele>
        <time>2024-01-24T13:37:57Z</time>
      </trkpt>
      <trkpt lat="49.85732" lon="2.43406">
        <ele>106.1</ele>
        <time>2024-01-24T13:37:59Z</time>
      </trkpt>
      <trkpt lat="49.85733" lon="2.43405">
        <ele>106.1</ele>
        <time>2024-01-24T13:38:00Z</time>
      </trkpt>
      <trkpt lat="49.85735" lon="2.43404">
        <ele>106.1</ele>
        <time>2024-01-24T13:38:01Z</time>
      </trkpt>
      <trkpt lat="49.85736" lon="2.43403">
        <ele>106</ele>
        <time>2024-01-24T13:38:02Z</time>
      </trkpt>
      <trkpt lat="49.85736" lon="2.43403">
        <ele>106</ele>
        <time>2024-01-24T13:38:03Z</time>
      </trkpt>
      <trkpt lat="49.85738" lon="2.43401">
        <ele>105.9</ele>
        <time>2024-01-24T13:38:04Z</time>
      </trkpt>
      <trkpt lat="49.85739" lon="2.434">
        <ele>105.9</ele>
        <time>2024-01-24T13:38:06Z</time>
      </trkpt>
      <trkpt lat="49.8574" lon="2.43399">
        <ele>105.9</ele>
        <time>2024-01-24T13:38:07Z</time>
      </trkpt>
      <trkpt lat="49.85741" lon="2.43398">
        <ele>105.9</ele>
        <time>2024-01-24T13:38:08Z</time>
      </trkpt>
      <trkpt lat="49.85742" lon="2.43397">
        <ele>105.8</ele>
        <time>2024-01-24T13:38:09Z</time>
      </trkpt>
      <trkpt lat="49.85744" lon="2.43396">
        <ele>105.8</ele>
        <time>2024-01-24T13:38:10Z</time>
      </trkpt>
      <trkpt lat="49.85745" lon="2.43395">
        <ele>105.7</ele>
        <time>2024-01-24T13:38:11Z</time>
      </trkpt>
      <trkpt lat="49.85747" lon="2.43394">
        <ele>105.7</ele>
        <time>2024-01-24T13:38:12Z</time>
      </trkpt>
      <trkpt lat="49.85748" lon="2.43393">
        <ele>105.7</ele>
        <time>2024-01-24T13:38:14Z</time>
      </trkpt>
      <trkpt lat="49.85749" lon="2.43393">
        <ele>105.6</ele>
        <time>2024-01-24T13:38:15Z</time>
      </trkpt>
      <trkpt lat="49.8575" lon="2.43392">
        <ele>105.6</ele>
        <time>2024-01-24T13:38:16Z</time>
      </trkpt>
      <trkpt lat="49.85751" lon="2.43392">
        <ele>105.6</ele>
        <time>2024-01-24T13:38:17Z</time>
      </trkpt>
      <trkpt lat="49.85753" lon="2.4339">
        <ele>105.5</ele>
        <time>2024-01-24T13:38:18Z</time>
      </trkpt>
      <trkpt lat="49.85754" lon="2.4339">
        <ele>105.5</ele>
        <time>2024-01-24T13:38:19Z</time>
      </trkpt>
      <trkpt lat="49.85755" lon="2.43389">
        <ele>105.5</ele>
        <time>2024-01-24T13:38:20Z</time>
      </trkpt>
      <trkpt lat="49.85756" lon="2.43388">
        <ele>105.4</ele>
        <time>2024-01-24T13:38:21Z</time>
      </trkpt>
      <trkpt lat="49.85757" lon="2.43387">
        <ele>105.4</ele>
        <time>2024-01-24T13:38:22Z</time>
      </trkpt>
      <trkpt lat="49.85758" lon="2.43386">
        <ele>105.4</ele>
        <time>2024-01-24T13:38:24Z</time>
      </trkpt>
      <trkpt lat="49.8576" lon="2.43384">
        <ele>105.3</ele>
        <time>2024-01-24T13:38:25Z</time>
      </trkpt>
      <trkpt lat="49.85761" lon="2.43384">
        <ele>105.3</ele>
        <time>2024-01-24T13:38:26Z</time>
      </trkpt>
      <trkpt lat="49.85762" lon="2.43383">
        <ele>105.3</ele>
        <time>2024-01-24T13:38:27Z</time>
      </trkpt>
      <trkpt lat="49.85763" lon="2.43381">
        <ele>105.2</ele>
        <time>2024-01-24T13:38:28Z</time>
      </trkpt>
      <trkpt lat="49.85764" lon="2.4338">
        <ele>105.2</ele>
        <time>2024-01-24T13:38:29Z</time>
      </trkpt>
      <trkpt lat="49.85765" lon="2.43379">
        <ele>105.2</ele>
        <time>2024-01-24T13:38:30Z</time>
      </trkpt>
      <trkpt lat="49.85766" lon="2.43378">
        <ele>105.2</ele>
        <time>2024-01-24T13:38:31Z</time>
      </trkpt>
      <trkpt lat="49.85767" lon="2.43377">
        <ele>105.1</ele>
        <time>2024-01-24T13:38:32Z</time>
      </trkpt>
      <trkpt lat="49.85768" lon="2.43376">
        <ele>105.1</ele>
        <time>2024-01-24T13:38:33Z</time>
      </trkpt>
      <trkpt lat="49.85768" lon="2.43375">
        <ele>105.1</ele>
        <time>2024-01-24T13:38:34Z</time>
      </trkpt>
      <trkpt lat="49.85769" lon="2.43374">
        <ele>105.1</ele>
        <time>2024-01-24T13:38:35Z</time>
      </trkpt>
      <trkpt lat="49.85771" lon="2.43373">
        <ele>105</ele>
        <time>2024-01-24T13:38:37Z</time>
      </trkpt>
      <trkpt lat="49.85772" lon="2.43372">
        <ele>105</ele>
        <time>2024-01-24T13:38:38Z</time>
      </trkpt>
      <trkpt lat="49.85772" lon="2.43372">
        <ele>105</ele>
        <time>2024-01-24T13:38:39Z</time>
      </trkpt>
      <trkpt lat="49.85774" lon="2.4337">
        <ele>105</ele>
        <time>2024-01-24T13:38:40Z</time>
      </trkpt>
      <trkpt lat="49.85775" lon="2.43369">
        <ele>104.9</ele>
        <time>2024-01-24T13:38:41Z</time>
      </trkpt>
      <trkpt lat="49.85776" lon="2.43369">
        <ele>104.9</ele>
        <time>2024-01-24T13:38:42Z</time>
      </trkpt>
      <trkpt lat="49.85778" lon="2.43367">
        <ele>104.9</ele>
        <time>2024-01-24T13:38:43Z</time>
      </trkpt>
      <trkpt lat="49.85779" lon="2.43366">
        <ele>104.9</ele>
        <time>2024-01-24T13:38:45Z</time>
      </trkpt>
      <trkpt lat="49.8578" lon="2.43366">
        <ele>104.9</ele>
        <time>2024-01-24T13:38:46Z</time>
      </trkpt>
      <trkpt lat="49.85781" lon="2.43365">
        <ele>104.8</ele>
        <time>2024-01-24T13:38:47Z</time>
      </trkpt>
      <trkpt lat="49.85782" lon="2.43364">
        <ele>104.8</ele>
        <time>2024-01-24T13:38:48Z</time>
      </trkpt>
      <trkpt lat="49.85784" lon="2.43363">
        <ele>104.8</ele>
        <time>2024-01-24T13:38:49Z</time>
      </trkpt>
      <trkpt lat="49.85784" lon="2.43362">
        <ele>104.8</ele>
        <time>2024-01-24T13:38:50Z</time>
      </trkpt>
      <trkpt lat="49.85785" lon="2.43362">
        <ele>104.8</ele>
        <time>2024-01-24T13:38:51Z</time>
      </trkpt>
      <trkpt lat="49.85786" lon="2.4336">
        <ele>104.8</ele>
        <time>2024-01-24T13:38:52Z</time>
      </trkpt>
      <trkpt lat="49.85787" lon="2.43359">
        <ele>104.8</ele>
        <time>2024-01-24T13:38:54Z</time>
      </trkpt>
      <trkpt lat="49.85789" lon="2.43358">
        <ele>104.7</ele>
        <time>2024-01-24T13:38:55Z</time>
      </trkpt>
      <trkpt lat="49.8579" lon="2.43357">
        <ele>104.7</ele>
        <time>2024-01-24T13:38:56Z</time>
      </trkpt>
      <trkpt lat="49.85792" lon="2.43355">
        <ele>104.7</ele>
        <time>2024-01-24T13:38:57Z</time>
      </trkpt>
      <trkpt lat="49.85792" lon="2.43354">
        <ele>104.7</ele>
        <time>2024-01-24T13:38:58Z</time>
      </trkpt>
      <trkpt lat="49.85793" lon="2.43353">
        <ele>104.7</ele>
        <time>2024-01-24T13:38:59Z</time>
      </trkpt>
      <trkpt lat="49.85795" lon="2.43352">
        <ele>104.7</ele>
        <time>2024-01-24T13:39:01Z</time>
      </trkpt>
      <trkpt lat="49.85796" lon="2.43352">
        <ele>104.7</ele>
        <time>2024-01-24T13:39:02Z</time>
      </trkpt>
      <trkpt lat="49.85797" lon="2.43351">
        <ele>104.7</ele>
        <time>2024-01-24T13:39:03Z</time>
      </trkpt>
      <trkpt lat="49.85798" lon="2.4335">
        <ele>104.7</ele>
        <time>2024-01-24T13:39:04Z</time>
      </trkpt>
      <trkpt lat="49.85799" lon="2.43349">
        <ele>104.7</ele>
        <time>2024-01-24T13:39:05Z</time>
      </trkpt>
      <trkpt lat="49.858" lon="2.43349">
        <ele>104.7</ele>
        <time>2024-01-24T13:39:06Z</time>
      </trkpt>
      <trkpt lat="49.85801" lon="2.43348">
        <ele>104.7</ele>
        <time>2024-01-24T13:39:07Z</time>
      </trkpt>
      <trkpt lat="49.85802" lon="2.43347">
        <ele>104.7</ele>
        <time>2024-01-24T13:39:08Z</time>
      </trkpt>
      <trkpt lat="49.85803" lon="2.43346">
        <ele>104.7</ele>
        <time>2024-01-24T13:39:10Z</time>
      </trkpt>
      <trkpt lat="49.85805" lon="2.43344">
        <ele>104.6</ele>
        <time>2024-01-24T13:39:11Z</time>
      </trkpt>
      <trkpt lat="49.85806" lon="2.43343">
        <ele>104.6</ele>
        <time>2024-01-24T13:39:12Z</time>
      </trkpt>
      <trkpt lat="49.85806" lon="2.43343">
        <ele>104.6</ele>
        <time>2024-01-24T13:39:13Z</time>
      </trkpt>
      <trkpt lat="49.85808" lon="2.43341">
        <ele>104.6</ele>
        <time>2024-01-24T13:39:14Z</time>
      </trkpt>
      <trkpt lat="49.85809" lon="2.4334">
        <ele>104.6</ele>
        <time>2024-01-24T13:39:15Z</time>
      </trkpt>
      <trkpt lat="49.8581" lon="2.43339">
        <ele>104.6</ele>
        <time>2024-01-24T13:39:16Z</time>
      </trkpt>
      <trkpt lat="49.85811" lon="2.43337">
        <ele>104.6</ele>
        <time>2024-01-24T13:39:17Z</time>
      </trkpt>
      <trkpt lat="49.85812" lon="2.43337">
        <ele>104.6</ele>
        <time>2024-01-24T13:39:18Z</time>
      </trkpt>
      <trkpt lat="49.85813" lon="2.43336">
        <ele>104.6</ele>
        <time>2024-01-24T13:39:19Z</time>
      </trkpt>
      <trkpt lat="49.85815" lon="2.43335">
        <ele>104.6</ele>
        <time>2024-01-24T13:39:20Z</time>
      </trkpt>
      <trkpt lat="49.85816" lon="2.43335">
        <ele>104.6</ele>
        <time>2024-01-24T13:39:22Z</time>
      </trkpt>
      <trkpt lat="49.85816" lon="2.43335">
        <ele>104.6</ele>
        <time>2024-01-24T13:39:23Z</time>
      </trkpt>
      <trkpt lat="49.85818" lon="2.43334">
        <ele>104.6</ele>
        <time>2024-01-24T13:39:24Z</time>
      </trkpt>
      <trkpt lat="49.8582" lon="2.43333">
        <ele>104.6</ele>
        <time>2024-01-24T13:39:25Z</time>
      </trkpt>
      <trkpt lat="49.85821" lon="2.43333">
        <ele>104.6</ele>
        <time>2024-01-24T13:39:26Z</time>
      </trkpt>
      <trkpt lat="49.85822" lon="2.43332">
        <ele>104.6</ele>
        <time>2024-01-24T13:39:28Z</time>
      </trkpt>
      <trkpt lat="49.85823" lon="2.43331">
        <ele>104.6</ele>
        <time>2024-01-24T13:39:29Z</time>
      </trkpt>
      <trkpt lat="49.85825" lon="2.43331">
        <ele>104.6</ele>
        <time>2024-01-24T13:39:30Z</time>
      </trkpt>
      <trkpt lat="49.85827" lon="2.4333">
        <ele>104.6</ele>
        <time>2024-01-24T13:39:31Z</time>
      </trkpt>
      <trkpt lat="49.85828" lon="2.43329">
        <ele>104.6</ele>
        <time>2024-01-24T13:39:32Z</time>
      </trkpt>
      <trkpt lat="49.85829" lon="2.43329">
        <ele>104.6</ele>
        <time>2024-01-24T13:39:33Z</time>
      </trkpt>
      <trkpt lat="49.85831" lon="2.43329">
        <ele>104.6</ele>
        <time>2024-01-24T13:39:34Z</time>
      </trkpt>
      <trkpt lat="49.85832" lon="2.43328">
        <ele>104.6</ele>
        <time>2024-01-24T13:39:35Z</time>
      </trkpt>
      <trkpt lat="49.85833" lon="2.43328">
        <ele>104.7</ele>
        <time>2024-01-24T13:39:37Z</time>
      </trkpt>
      <trkpt lat="49.85835" lon="2.43327">
        <ele>104.7</ele>
        <time>2024-01-24T13:39:38Z</time>
      </trkpt>
      <trkpt lat="49.85836" lon="2.43327">
        <ele>104.7</ele>
        <time>2024-01-24T13:39:39Z</time>
      </trkpt>
      <trkpt lat="49.85837" lon="2.43327">
        <ele>104.7</ele>
        <time>2024-01-24T13:39:40Z</time>
      </trkpt>
      <trkpt lat="49.85839" lon="2.43326">
        <ele>104.7</ele>
        <time>2024-01-24T13:39:41Z</time>
      </trkpt>
      <trkpt lat="49.8584" lon="2.43326">
        <ele>104.7</ele>
        <time>2024-01-24T13:39:42Z</time>
      </trkpt>
      <trkpt lat="49.85841" lon="2.43325">
        <ele>104.7</ele>
        <time>2024-01-24T13:39:43Z</time>
      </trkpt>
      <trkpt lat="49.85842" lon="2.43325">
        <ele>104.7</ele>
        <time>2024-01-24T13:39:44Z</time>
      </trkpt>
      <trkpt lat="49.85843" lon="2.43325">
        <ele>104.7</ele>
        <time>2024-01-24T13:39:45Z</time>
      </trkpt>
      <trkpt lat="49.85845" lon="2.43325">
        <ele>104.7</ele>
        <time>2024-01-24T13:39:46Z</time>
      </trkpt>
      <trkpt lat="49.85846" lon="2.43324">
        <ele>104.7</ele>
        <time>2024-01-24T13:39:48Z</time>
      </trkpt>
      <trkpt lat="49.85847" lon="2.43324">
        <ele>104.7</ele>
        <time>2024-01-24T13:39:49Z</time>
      </trkpt>
      <trkpt lat="49.85848" lon="2.43324">
        <ele>104.7</ele>
        <time>2024-01-24T13:39:50Z</time>
      </trkpt>
      <trkpt lat="49.8585" lon="2.43324">
        <ele>104.7</ele>
        <time>2024-01-24T13:39:51Z</time>
      </trkpt>
      <trkpt lat="49.85852" lon="2.43323">
        <ele>104.7</ele>
        <time>2024-01-24T13:39:52Z</time>
      </trkpt>
      <trkpt lat="49.85853" lon="2.43322">
        <ele>104.7</ele>
        <time>2024-01-24T13:39:54Z</time>
      </trkpt>
      <trkpt lat="49.85854" lon="2.43322">
        <ele>104.7</ele>
        <time>2024-01-24T13:39:55Z</time>
      </trkpt>
      <trkpt lat="49.85855" lon="2.43322">
        <ele>104.7</ele>
        <time>2024-01-24T13:39:56Z</time>
      </trkpt>
      <trkpt lat="49.85856" lon="2.43321">
        <ele>104.7</ele>
        <time>2024-01-24T13:39:57Z</time>
      </trkpt>
      <trkpt lat="49.85857" lon="2.43321">
        <ele>104.7</ele>
        <time>2024-01-24T13:39:58Z</time>
      </trkpt>
      <trkpt lat="49.85859" lon="2.4332">
        <ele>104.6</ele>
        <time>2024-01-24T13:39:59Z</time>
      </trkpt>
      <trkpt lat="49.8586" lon="2.4332">
        <ele>104.6</ele>
        <time>2024-01-24T13:40:00Z</time>
      </trkpt>
      <trkpt lat="49.85861" lon="2.43319">
        <ele>104.6</ele>
        <time>2024-01-24T13:40:02Z</time>
      </trkpt>
      <trkpt lat="49.85863" lon="2.43318">
        <ele>104.6</ele>
        <time>2024-01-24T13:40:03Z</time>
      </trkpt>
      <trkpt lat="49.85865" lon="2.43317">
        <ele>104.6</ele>
        <time>2024-01-24T13:40:05Z</time>
      </trkpt>
      <trkpt lat="49.85866" lon="2.43317">
        <ele>104.6</ele>
        <time>2024-01-24T13:40:06Z</time>
      </trkpt>
      <trkpt lat="49.85867" lon="2.43317">
        <ele>104.6</ele>
        <time>2024-01-24T13:40:07Z</time>
      </trkpt>
      <trkpt lat="49.85868" lon="2.43316">
        <ele>104.6</ele>
        <time>2024-01-24T13:40:08Z</time>
      </trkpt>
      <trkpt lat="49.85869" lon="2.43315">
        <ele>104.6</ele>
        <time>2024-01-24T13:40:09Z</time>
      </trkpt>
      <trkpt lat="49.8587" lon="2.43315">
        <ele>104.6</ele>
        <time>2024-01-24T13:40:10Z</time>
      </trkpt>
      <trkpt lat="49.85872" lon="2.43314">
        <ele>104.6</ele>
        <time>2024-01-24T13:40:11Z</time>
      </trkpt>
      <trkpt lat="49.85873" lon="2.43314">
        <ele>104.5</ele>
        <time>2024-01-24T13:40:12Z</time>
      </trkpt>
      <trkpt lat="49.85874" lon="2.43313">
        <ele>104.5</ele>
        <time>2024-01-24T13:40:14Z</time>
      </trkpt>
      <trkpt lat="49.85876" lon="2.43312">
        <ele>104.5</ele>
        <time>2024-01-24T13:40:15Z</time>
      </trkpt>
      <trkpt lat="49.85878" lon="2.43311">
        <ele>104.5</ele>
        <time>2024-01-24T13:40:16Z</time>
      </trkpt>
      <trkpt lat="49.85878" lon="2.4331">
        <ele>104.5</ele>
        <time>2024-01-24T13:40:17Z</time>
      </trkpt>
      <trkpt lat="49.85879" lon="2.4331">
        <ele>104.5</ele>
        <time>2024-01-24T13:40:18Z</time>
      </trkpt>
      <trkpt lat="49.85881" lon="2.43309">
        <ele>104.5</ele>
        <time>2024-01-24T13:40:20Z</time>
      </trkpt>
      <trkpt lat="49.85882" lon="2.43309">
        <ele>104.5</ele>
        <time>2024-01-24T13:40:21Z</time>
      </trkpt>
      <trkpt lat="49.85883" lon="2.43308">
        <ele>104.5</ele>
        <time>2024-01-24T13:40:22Z</time>
      </trkpt>
      <trkpt lat="49.85884" lon="2.43307">
        <ele>104.5</ele>
        <time>2024-01-24T13:40:23Z</time>
      </trkpt>
      <trkpt lat="49.85887" lon="2.43306">
        <ele>104.4</ele>
        <time>2024-01-24T13:40:24Z</time>
      </trkpt>
      <trkpt lat="49.85887" lon="2.43306">
        <ele>104.4</ele>
        <time>2024-01-24T13:40:25Z</time>
      </trkpt>
      <trkpt lat="49.85888" lon="2.43306">
        <ele>104.4</ele>
        <time>2024-01-24T13:40:26Z</time>
      </trkpt>
      <trkpt lat="49.85889" lon="2.43305">
        <ele>104.4</ele>
        <time>2024-01-24T13:40:27Z</time>
      </trkpt>
      <trkpt lat="49.85891" lon="2.43305">
        <ele>104.4</ele>
        <time>2024-01-24T13:40:28Z</time>
      </trkpt>
      <trkpt lat="49.85892" lon="2.43304">
        <ele>104.4</ele>
        <time>2024-01-24T13:40:29Z</time>
      </trkpt>
      <trkpt lat="49.85894" lon="2.43304">
        <ele>104.3</ele>
        <time>2024-01-24T13:40:31Z</time>
      </trkpt>
      <trkpt lat="49.85895" lon="2.43303">
        <ele>104.3</ele>
        <time>2024-01-24T13:40:32Z</time>
      </trkpt>
      <trkpt lat="49.85896" lon="2.43303">
        <ele>104.3</ele>
        <time>2024-01-24T13:40:33Z</time>
      </trkpt>
      <trkpt lat="49.85897" lon="2.43302">
        <ele>104.3</ele>
        <time>2024-01-24T13:40:34Z</time>
      </trkpt>
      <trkpt lat="49.85898" lon="2.43302">
        <ele>104.3</ele>
        <time>2024-01-24T13:40:35Z</time>
      </trkpt>
      <trkpt lat="49.859" lon="2.43301">
        <ele>104.3</ele>
        <time>2024-01-24T13:40:36Z</time>
      </trkpt>
      <trkpt lat="49.85901" lon="2.43301">
        <ele>104.2</ele>
        <time>2024-01-24T13:40:37Z</time>
      </trkpt>
      <trkpt lat="49.85902" lon="2.433">
        <ele>104.2</ele>
        <time>2024-01-24T13:40:38Z</time>
      </trkpt>
      <trkpt lat="49.85904" lon="2.43299">
        <ele>104.2</ele>
        <time>2024-01-24T13:40:40Z</time>
      </trkpt>
      <trkpt lat="49.85905" lon="2.43299">
        <ele>104.2</ele>
        <time>2024-01-24T13:40:41Z</time>
      </trkpt>
      <trkpt lat="49.85907" lon="2.43298">
        <ele>104.1</ele>
        <time>2024-01-24T13:40:42Z</time>
      </trkpt>
      <trkpt lat="49.85908" lon="2.43298">
        <ele>104.1</ele>
        <time>2024-01-24T13:40:43Z</time>
      </trkpt>
      <trkpt lat="49.85909" lon="2.43297">
        <ele>104.1</ele>
        <time>2024-01-24T13:40:44Z</time>
      </trkpt>
      <trkpt lat="49.85911" lon="2.43297">
        <ele>104.1</ele>
        <time>2024-01-24T13:40:46Z</time>
      </trkpt>
      <trkpt lat="49.85912" lon="2.43297">
        <ele>104.1</ele>
        <time>2024-01-24T13:40:47Z</time>
      </trkpt>
      <trkpt lat="49.85913" lon="2.43296">
        <ele>104</ele>
        <time>2024-01-24T13:40:48Z</time>
      </trkpt>
      <trkpt lat="49.85915" lon="2.43296">
        <ele>104</ele>
        <time>2024-01-24T13:40:49Z</time>
      </trkpt>
      <trkpt lat="49.85916" lon="2.43296">
        <ele>104</ele>
        <time>2024-01-24T13:40:50Z</time>
      </trkpt>
      <trkpt lat="49.85917" lon="2.43295">
        <ele>104</ele>
        <time>2024-01-24T13:40:51Z</time>
      </trkpt>
      <trkpt lat="49.85918" lon="2.43295">
        <ele>104</ele>
        <time>2024-01-24T13:40:52Z</time>
      </trkpt>
      <trkpt lat="49.8592" lon="2.43294">
        <ele>103.9</ele>
        <time>2024-01-24T13:40:54Z</time>
      </trkpt>
      <trkpt lat="49.85921" lon="2.43294">
        <ele>103.9</ele>
        <time>2024-01-24T13:40:55Z</time>
      </trkpt>
      <trkpt lat="49.85923" lon="2.43293">
        <ele>103.9</ele>
        <time>2024-01-24T13:40:56Z</time>
      </trkpt>
      <trkpt lat="49.85924" lon="2.43293">
        <ele>103.9</ele>
        <time>2024-01-24T13:40:57Z</time>
      </trkpt>
      <trkpt lat="49.85925" lon="2.43292">
        <ele>103.9</ele>
        <time>2024-01-24T13:40:58Z</time>
      </trkpt>
      <trkpt lat="49.85927" lon="2.43291">
        <ele>103.8</ele>
        <time>2024-01-24T13:41:00Z</time>
      </trkpt>
      <trkpt lat="49.85928" lon="2.43291">
        <ele>103.8</ele>
        <time>2024-01-24T13:41:01Z</time>
      </trkpt>
      <trkpt lat="49.85931" lon="2.4329">
        <ele>103.8</ele>
        <time>2024-01-24T13:41:03Z</time>
      </trkpt>
      <trkpt lat="49.85931" lon="2.43289">
        <ele>103.8</ele>
        <time>2024-01-24T13:41:04Z</time>
      </trkpt>
      <trkpt lat="49.85932" lon="2.43289">
        <ele>103.7</ele>
        <time>2024-01-24T13:41:05Z</time>
      </trkpt>
      <trkpt lat="49.85934" lon="2.43288">
        <ele>103.7</ele>
        <time>2024-01-24T13:41:06Z</time>
      </trkpt>
      <trkpt lat="49.85935" lon="2.43288">
        <ele>103.7</ele>
        <time>2024-01-24T13:41:07Z</time>
      </trkpt>
      <trkpt lat="49.85936" lon="2.43287">
        <ele>103.7</ele>
        <time>2024-01-24T13:41:08Z</time>
      </trkpt>
      <trkpt lat="49.85938" lon="2.43287">
        <ele>103.7</ele>
        <time>2024-01-24T13:41:09Z</time>
      </trkpt>
      <trkpt lat="49.85939" lon="2.43287">
        <ele>103.6</ele>
        <time>2024-01-24T13:41:10Z</time>
      </trkpt>
      <trkpt lat="49.8594" lon="2.43286">
        <ele>103.6</ele>
        <time>2024-01-24T13:41:11Z</time>
      </trkpt>
      <trkpt lat="49.85942" lon="2.43286">
        <ele>103.6</ele>
        <time>2024-01-24T13:41:12Z</time>
      </trkpt>
      <trkpt lat="49.85943" lon="2.43285">
        <ele>103.6</ele>
        <time>2024-01-24T13:41:14Z</time>
      </trkpt>
      <trkpt lat="49.85944" lon="2.43285">
        <ele>103.5</ele>
        <time>2024-01-24T13:41:15Z</time>
      </trkpt>
      <trkpt lat="49.85946" lon="2.43284">
        <ele>103.5</ele>
        <time>2024-01-24T13:41:16Z</time>
      </trkpt>
      <trkpt lat="49.85947" lon="2.43284">
        <ele>103.5</ele>
        <time>2024-01-24T13:41:17Z</time>
      </trkpt>
      <trkpt lat="49.85948" lon="2.43283">
        <ele>103.5</ele>
        <time>2024-01-24T13:41:18Z</time>
      </trkpt>
      <trkpt lat="49.8595" lon="2.43283">
        <ele>103.4</ele>
        <time>2024-01-24T13:41:20Z</time>
      </trkpt>
      <trkpt lat="49.85952" lon="2.43282">
        <ele>103.4</ele>
        <time>2024-01-24T13:41:21Z</time>
      </trkpt>
      <trkpt lat="49.85953" lon="2.43281">
        <ele>103.4</ele>
        <time>2024-01-24T13:41:22Z</time>
      </trkpt>
      <trkpt lat="49.85954" lon="2.43281">
        <ele>103.3</ele>
        <time>2024-01-24T13:41:23Z</time>
      </trkpt>
      <trkpt lat="49.85955" lon="2.43281">
        <ele>103.3</ele>
        <time>2024-01-24T13:41:24Z</time>
      </trkpt>
      <trkpt lat="49.85956" lon="2.4328">
        <ele>103.3</ele>
        <time>2024-01-24T13:41:25Z</time>
      </trkpt>
      <trkpt lat="49.85958" lon="2.43279">
        <ele>103.2</ele>
        <time>2024-01-24T13:41:26Z</time>
      </trkpt>
      <trkpt lat="49.85959" lon="2.43279">
        <ele>103.2</ele>
        <time>2024-01-24T13:41:28Z</time>
      </trkpt>
      <trkpt lat="49.8596" lon="2.43279">
        <ele>103.2</ele>
        <time>2024-01-24T13:41:29Z</time>
      </trkpt>
      <trkpt lat="49.85962" lon="2.43278">
        <ele>103.1</ele>
        <time>2024-01-24T13:41:30Z</time>
      </trkpt>
      <trkpt lat="49.85963" lon="2.43277">
        <ele>103.1</ele>
        <time>2024-01-24T13:41:31Z</time>
      </trkpt>
      <trkpt lat="49.85964" lon="2.43277">
        <ele>103</ele>
        <time>2024-01-24T13:41:32Z</time>
      </trkpt>
      <trkpt lat="49.85966" lon="2.43276">
        <ele>103</ele>
        <time>2024-01-24T13:41:33Z</time>
      </trkpt>
      <trkpt lat="49.85967" lon="2.43276">
        <ele>103</ele>
        <time>2024-01-24T13:41:35Z</time>
      </trkpt>
      <trkpt lat="49.85968" lon="2.43275">
        <ele>102.9</ele>
        <time>2024-01-24T13:41:36Z</time>
      </trkpt>
      <trkpt lat="49.85969" lon="2.43275">
        <ele>102.9</ele>
        <time>2024-01-24T13:41:37Z</time>
      </trkpt>
      <trkpt lat="49.8597" lon="2.43274">
        <ele>102.8</ele>
        <time>2024-01-24T13:41:38Z</time>
      </trkpt>
      <trkpt lat="49.85972" lon="2.43274">
        <ele>102.8</ele>
        <time>2024-01-24T13:41:39Z</time>
      </trkpt>
      <trkpt lat="49.85973" lon="2.43274">
        <ele>102.7</ele>
        <time>2024-01-24T13:41:41Z</time>
      </trkpt>
      <trkpt lat="49.85974" lon="2.43273">
        <ele>102.7</ele>
        <time>2024-01-24T13:41:42Z</time>
      </trkpt>
      <trkpt lat="49.85976" lon="2.43273">
        <ele>102.7</ele>
        <time>2024-01-24T13:41:43Z</time>
      </trkpt>
      <trkpt lat="49.85977" lon="2.43272">
        <ele>102.6</ele>
        <time>2024-01-24T13:41:44Z</time>
      </trkpt>
      <trkpt lat="49.85978" lon="2.43271">
        <ele>102.6</ele>
        <time>2024-01-24T13:41:45Z</time>
      </trkpt>
      <trkpt lat="49.8598" lon="2.43271">
        <ele>102.5</ele>
        <time>2024-01-24T13:41:46Z</time>
      </trkpt>
      <trkpt lat="49.85982" lon="2.4327">
        <ele>102.5</ele>
        <time>2024-01-24T13:41:47Z</time>
      </trkpt>
      <trkpt lat="49.85983" lon="2.4327">
        <ele>102.4</ele>
        <time>2024-01-24T13:41:49Z</time>
      </trkpt>
      <trkpt lat="49.85983" lon="2.43269">
        <ele>102.4</ele>
        <time>2024-01-24T13:41:50Z</time>
      </trkpt>
      <trkpt lat="49.85985" lon="2.43269">
        <ele>102.3</ele>
        <time>2024-01-24T13:41:51Z</time>
      </trkpt>
      <trkpt lat="49.85986" lon="2.43269">
        <ele>102.3</ele>
        <time>2024-01-24T13:41:52Z</time>
      </trkpt>
      <trkpt lat="49.85987" lon="2.43269">
        <ele>102.3</ele>
        <time>2024-01-24T13:41:53Z</time>
      </trkpt>
      <trkpt lat="49.85989" lon="2.43268">
        <ele>102.2</ele>
        <time>2024-01-24T13:41:54Z</time>
      </trkpt>
      <trkpt lat="49.8599" lon="2.43268">
        <ele>102.2</ele>
        <time>2024-01-24T13:41:55Z</time>
      </trkpt>
      <trkpt lat="49.85992" lon="2.43268">
        <ele>102.1</ele>
        <time>2024-01-24T13:41:57Z</time>
      </trkpt>
      <trkpt lat="49.85993" lon="2.43268">
        <ele>102.1</ele>
        <time>2024-01-24T13:41:58Z</time>
      </trkpt>
      <trkpt lat="49.85995" lon="2.43267">
        <ele>102</ele>
        <time>2024-01-24T13:41:59Z</time>
      </trkpt>
      <trkpt lat="49.85996" lon="2.43267">
        <ele>102</ele>
        <time>2024-01-24T13:42:00Z</time>
      </trkpt>
      <trkpt lat="49.85998" lon="2.43267">
        <ele>101.9</ele>
        <time>2024-01-24T13:42:01Z</time>
      </trkpt>
      <trkpt lat="49.85999" lon="2.43267">
        <ele>101.9</ele>
        <time>2024-01-24T13:42:02Z</time>
      </trkpt>
      <trkpt lat="49.86001" lon="2.43267">
        <ele>101.8</ele>
        <time>2024-01-24T13:42:03Z</time>
      </trkpt>
      <trkpt lat="49.86003" lon="2.43267">
        <ele>101.8</ele>
        <time>2024-01-24T13:42:05Z</time>
      </trkpt>
      <trkpt lat="49.86004" lon="2.43267">
        <ele>101.7</ele>
        <time>2024-01-24T13:42:06Z</time>
      </trkpt>
      <trkpt lat="49.86007" lon="2.43266">
        <ele>101.6</ele>
        <time>2024-01-24T13:42:08Z</time>
      </trkpt>
      <trkpt lat="49.86007" lon="2.43266">
        <ele>101.6</ele>
        <time>2024-01-24T13:42:09Z</time>
      </trkpt>
      <trkpt lat="49.86008" lon="2.43266">
        <ele>101.6</ele>
        <time>2024-01-24T13:42:10Z</time>
      </trkpt>
      <trkpt lat="49.8601" lon="2.43265">
        <ele>101.5</ele>
        <time>2024-01-24T13:42:11Z</time>
      </trkpt>
      <trkpt lat="49.86011" lon="2.43265">
        <ele>101.5</ele>
        <time>2024-01-24T13:42:12Z</time>
      </trkpt>
      <trkpt lat="49.86012" lon="2.43264">
        <ele>101.5</ele>
        <time>2024-01-24T13:42:13Z</time>
      </trkpt>
      <trkpt lat="49.86013" lon="2.43264">
        <ele>101.5</ele>
        <time>2024-01-24T13:42:14Z</time>
      </trkpt>
      <trkpt lat="49.86015" lon="2.43263">
        <ele>101.4</ele>
        <time>2024-01-24T13:42:16Z</time>
      </trkpt>
      <trkpt lat="49.86016" lon="2.43263">
        <ele>101.4</ele>
        <time>2024-01-24T13:42:17Z</time>
      </trkpt>
      <trkpt lat="49.86018" lon="2.43262">
        <ele>101.3</ele>
        <time>2024-01-24T13:42:18Z</time>
      </trkpt>
      <trkpt lat="49.8602" lon="2.43261">
        <ele>101.3</ele>
        <time>2024-01-24T13:42:19Z</time>
      </trkpt>
      <trkpt lat="49.86021" lon="2.43261">
        <ele>101.2</ele>
        <time>2024-01-24T13:42:20Z</time>
      </trkpt>
      <trkpt lat="49.86021" lon="2.43261">
        <ele>101.2</ele>
        <time>2024-01-24T13:42:21Z</time>
      </trkpt>
      <trkpt lat="49.86023" lon="2.4326">
        <ele>101.2</ele>
        <time>2024-01-24T13:42:22Z</time>
      </trkpt>
      <trkpt lat="49.86024" lon="2.43259">
        <ele>101.1</ele>
        <time>2024-01-24T13:42:24Z</time>
      </trkpt>
      <trkpt lat="49.86025" lon="2.43259">
        <ele>101.1</ele>
        <time>2024-01-24T13:42:25Z</time>
      </trkpt>
      <trkpt lat="49.86027" lon="2.43258">
        <ele>101.1</ele>
        <time>2024-01-24T13:42:26Z</time>
      </trkpt>
      <trkpt lat="49.86028" lon="2.43258">
        <ele>101</ele>
        <time>2024-01-24T13:42:27Z</time>
      </trkpt>
      <trkpt lat="49.86029" lon="2.43257">
        <ele>101</ele>
        <time>2024-01-24T13:42:28Z</time>
      </trkpt>
      <trkpt lat="49.86031" lon="2.43256">
        <ele>100.9</ele>
        <time>2024-01-24T13:42:29Z</time>
      </trkpt>
      <trkpt lat="49.86032" lon="2.43256">
        <ele>100.9</ele>
        <time>2024-01-24T13:42:30Z</time>
      </trkpt>
      <trkpt lat="49.86033" lon="2.43255">
        <ele>100.9</ele>
        <time>2024-01-24T13:42:31Z</time>
      </trkpt>
      <trkpt lat="49.86034" lon="2.43254">
        <ele>100.8</ele>
        <time>2024-01-24T13:42:32Z</time>
      </trkpt>
      <trkpt lat="49.86035" lon="2.43254">
        <ele>100.8</ele>
        <time>2024-01-24T13:42:33Z</time>
      </trkpt>
      <trkpt lat="49.86036" lon="2.43253">
        <ele>100.8</ele>
        <time>2024-01-24T13:42:34Z</time>
      </trkpt>
      <trkpt lat="49.86038" lon="2.43252">
        <ele>100.7</ele>
        <time>2024-01-24T13:42:36Z</time>
      </trkpt>
      <trkpt lat="49.86039" lon="2.43252">
        <ele>100.7</ele>
        <time>2024-01-24T13:42:37Z</time>
      </trkpt>
      <trkpt lat="49.8604" lon="2.43251">
        <ele>100.6</ele>
        <time>2024-01-24T13:42:38Z</time>
      </trkpt>
      <trkpt lat="49.86041" lon="2.4325">
        <ele>100.6</ele>
        <time>2024-01-24T13:42:39Z</time>
      </trkpt>
      <trkpt lat="49.86042" lon="2.4325">
        <ele>100.6</ele>
        <time>2024-01-24T13:42:40Z</time>
      </trkpt>
      <trkpt lat="49.86043" lon="2.43249">
        <ele>100.5</ele>
        <time>2024-01-24T13:42:41Z</time>
      </trkpt>
      <trkpt lat="49.86044" lon="2.43249">
        <ele>100.5</ele>
        <time>2024-01-24T13:42:42Z</time>
      </trkpt>
      <trkpt lat="49.86045" lon="2.43248">
        <ele>100.5</ele>
        <time>2024-01-24T13:42:44Z</time>
      </trkpt>
      <trkpt lat="49.86046" lon="2.43248">
        <ele>100.4</ele>
        <time>2024-01-24T13:42:45Z</time>
      </trkpt>
      <trkpt lat="49.86047" lon="2.43247">
        <ele>100.4</ele>
        <time>2024-01-24T13:42:46Z</time>
      </trkpt>
      <trkpt lat="49.86049" lon="2.43246">
        <ele>100.4</ele>
        <time>2024-01-24T13:42:47Z</time>
      </trkpt>
      <trkpt lat="49.86051" lon="2.43245">
        <ele>100.3</ele>
        <time>2024-01-24T13:42:48Z</time>
      </trkpt>
      <trkpt lat="49.86051" lon="2.43245">
        <ele>100.3</ele>
        <time>2024-01-24T13:42:49Z</time>
      </trkpt>
      <trkpt lat="49.86052" lon="2.43244">
        <ele>100.2</ele>
        <time>2024-01-24T13:42:50Z</time>
      </trkpt>
      <trkpt lat="49.86054" lon="2.43244">
        <ele>100.2</ele>
        <time>2024-01-24T13:42:51Z</time>
      </trkpt>
      <trkpt lat="49.86055" lon="2.43243">
        <ele>100.1</ele>
        <time>2024-01-24T13:42:53Z</time>
      </trkpt>
      <trkpt lat="49.86057" lon="2.43243">
        <ele>100.1</ele>
        <time>2024-01-24T13:42:54Z</time>
      </trkpt>
      <trkpt lat="49.86058" lon="2.43242">
        <ele>100</ele>
        <time>2024-01-24T13:42:55Z</time>
      </trkpt>
      <trkpt lat="49.86059" lon="2.43242">
        <ele>100</ele>
        <time>2024-01-24T13:42:56Z</time>
      </trkpt>
      <trkpt lat="49.8606" lon="2.43241">
        <ele>100</ele>
        <time>2024-01-24T13:42:57Z</time>
      </trkpt>
      <trkpt lat="49.86061" lon="2.43241">
        <ele>99.9</ele>
        <time>2024-01-24T13:42:58Z</time>
      </trkpt>
      <trkpt lat="49.86063" lon="2.4324">
        <ele>99.9</ele>
        <time>2024-01-24T13:43:00Z</time>
      </trkpt>
      <trkpt lat="49.86065" lon="2.43239">
        <ele>99.8</ele>
        <time>2024-01-24T13:43:01Z</time>
      </trkpt>
      <trkpt lat="49.86065" lon="2.43239">
        <ele>99.8</ele>
        <time>2024-01-24T13:43:02Z</time>
      </trkpt>
      <trkpt lat="49.86066" lon="2.43239">
        <ele>99.7</ele>
        <time>2024-01-24T13:43:03Z</time>
      </trkpt>
      <trkpt lat="49.86068" lon="2.43238">
        <ele>99.7</ele>
        <time>2024-01-24T13:43:04Z</time>
      </trkpt>
      <trkpt lat="49.86069" lon="2.43237">
        <ele>99.6</ele>
        <time>2024-01-24T13:43:05Z</time>
      </trkpt>
      <trkpt lat="49.86071" lon="2.43236">
        <ele>99.6</ele>
        <time>2024-01-24T13:43:06Z</time>
      </trkpt>
      <trkpt lat="49.86072" lon="2.43235">
        <ele>99.5</ele>
        <time>2024-01-24T13:43:08Z</time>
      </trkpt>
      <trkpt lat="49.86073" lon="2.43235">
        <ele>99.5</ele>
        <time>2024-01-24T13:43:09Z</time>
      </trkpt>
      <trkpt lat="49.86075" lon="2.43234">
        <ele>99.4</ele>
        <time>2024-01-24T13:43:10Z</time>
      </trkpt>
      <trkpt lat="49.86076" lon="2.43233">
        <ele>99.4</ele>
        <time>2024-01-24T13:43:11Z</time>
      </trkpt>
      <trkpt lat="49.86077" lon="2.43232">
        <ele>99.4</ele>
        <time>2024-01-24T13:43:12Z</time>
      </trkpt>
      <trkpt lat="49.86078" lon="2.43232">
        <ele>99.3</ele>
        <time>2024-01-24T13:43:13Z</time>
      </trkpt>
      <trkpt lat="49.86079" lon="2.43232">
        <ele>99.3</ele>
        <time>2024-01-24T13:43:14Z</time>
      </trkpt>
      <trkpt lat="49.8608" lon="2.43231">
        <ele>99.3</ele>
        <time>2024-01-24T13:43:15Z</time>
      </trkpt>
      <trkpt lat="49.86081" lon="2.43231">
        <ele>99.2</ele>
        <time>2024-01-24T13:43:16Z</time>
      </trkpt>
      <trkpt lat="49.86082" lon="2.4323">
        <ele>99.2</ele>
        <time>2024-01-24T13:43:17Z</time>
      </trkpt>
      <trkpt lat="49.86083" lon="2.4323">
        <ele>99.2</ele>
        <time>2024-01-24T13:43:19Z</time>
      </trkpt>
      <trkpt lat="49.86085" lon="2.43229">
        <ele>99.1</ele>
        <time>2024-01-24T13:43:20Z</time>
      </trkpt>
      <trkpt lat="49.86087" lon="2.43229">
        <ele>99</ele>
        <time>2024-01-24T13:43:21Z</time>
      </trkpt>
      <trkpt lat="49.86088" lon="2.43228">
        <ele>99</ele>
        <time>2024-01-24T13:43:22Z</time>
      </trkpt>
      <trkpt lat="49.86089" lon="2.43228">
        <ele>99</ele>
        <time>2024-01-24T13:43:23Z</time>
      </trkpt>
      <trkpt lat="49.86091" lon="2.43227">
        <ele>98.9</ele>
        <time>2024-01-24T13:43:25Z</time>
      </trkpt>
      <trkpt lat="49.86091" lon="2.43227">
        <ele>98.9</ele>
        <time>2024-01-24T13:43:26Z</time>
      </trkpt>
      <trkpt lat="49.86092" lon="2.43227">
        <ele>98.9</ele>
        <time>2024-01-24T13:43:27Z</time>
      </trkpt>
      <trkpt lat="49.86094" lon="2.43226">
        <ele>98.8</ele>
        <time>2024-01-24T13:43:28Z</time>
      </trkpt>
      <trkpt lat="49.86095" lon="2.43225">
        <ele>98.8</ele>
        <time>2024-01-24T13:43:29Z</time>
      </trkpt>
      <trkpt lat="49.86096" lon="2.43225">
        <ele>98.7</ele>
        <time>2024-01-24T13:43:30Z</time>
      </trkpt>
      <trkpt lat="49.86097" lon="2.43224">
        <ele>98.7</ele>
        <time>2024-01-24T13:43:31Z</time>
      </trkpt>
      <trkpt lat="49.86098" lon="2.43223">
        <ele>98.6</ele>
        <time>2024-01-24T13:43:33Z</time>
      </trkpt>
      <trkpt lat="49.86099" lon="2.43223">
        <ele>98.6</ele>
        <time>2024-01-24T13:43:34Z</time>
      </trkpt>
      <trkpt lat="49.861" lon="2.43222">
        <ele>98.6</ele>
        <time>2024-01-24T13:43:35Z</time>
      </trkpt>
      <trkpt lat="49.86101" lon="2.43222">
        <ele>98.5</ele>
        <time>2024-01-24T13:43:36Z</time>
      </trkpt>
      <trkpt lat="49.86103" lon="2.43221">
        <ele>98.5</ele>
        <time>2024-01-24T13:43:38Z</time>
      </trkpt>
      <trkpt lat="49.86104" lon="2.4322">
        <ele>98.4</ele>
        <time>2024-01-24T13:43:39Z</time>
      </trkpt>
      <trkpt lat="49.86105" lon="2.43219">
        <ele>98.4</ele>
        <time>2024-01-24T13:43:41Z</time>
      </trkpt>
      <trkpt lat="49.86105" lon="2.43219">
        <ele>98.4</ele>
        <time>2024-01-24T13:43:42Z</time>
      </trkpt>
      <trkpt lat="49.86105" lon="2.43219">
        <ele>98.4</ele>
        <time>2024-01-24T13:43:44Z</time>
      </trkpt>
      <trkpt lat="49.86104" lon="2.43219">
        <ele>98.4</ele>
        <time>2024-01-24T13:43:45Z</time>
      </trkpt>
      <trkpt lat="49.86104" lon="2.43219">
        <ele>98.4</ele>
        <time>2024-01-24T13:43:47Z</time>
      </trkpt>
      <trkpt lat="49.86104" lon="2.43219">
        <ele>98.4</ele>
        <time>2024-01-24T13:43:48Z</time>
      </trkpt>
      <trkpt lat="49.86104" lon="2.4322">
        <ele>98.4</ele>
        <time>2024-01-24T13:43:50Z</time>
      </trkpt>
      <trkpt lat="49.86104" lon="2.4322">
        <ele>98.4</ele>
        <time>2024-01-24T13:43:51Z</time>
      </trkpt>
      <trkpt lat="49.86104" lon="2.4322">
        <ele>98.4</ele>
        <time>2024-01-24T13:43:52Z</time>
      </trkpt>
      <trkpt lat="49.86104" lon="2.43219">
        <ele>98.4</ele>
        <time>2024-01-24T13:43:54Z</time>
      </trkpt>
      <trkpt lat="49.86104" lon="2.43219">
        <ele>98.4</ele>
        <time>2024-01-24T13:43:55Z</time>
      </trkpt>
      <trkpt lat="49.86104" lon="2.4322">
        <ele>98.4</ele>
        <time>2024-01-24T13:43:57Z</time>
      </trkpt>
      <trkpt lat="49.86104" lon="2.4322">
        <ele>98.4</ele>
        <time>2024-01-24T13:43:58Z</time>
      </trkpt>
      <trkpt lat="49.86103" lon="2.4322">
        <ele>98.4</ele>
        <time>2024-01-24T13:43:59Z</time>
      </trkpt>
      <trkpt lat="49.86103" lon="2.4322">
        <ele>98.4</ele>
        <time>2024-01-24T13:44:00Z</time>
      </trkpt>
      <trkpt lat="49.86103" lon="2.4322">
        <ele>98.4</ele>
        <time>2024-01-24T13:44:01Z</time>
      </trkpt>
      <trkpt lat="49.86103" lon="2.4322">
        <ele>98.4</ele>
        <time>2024-01-24T13:44:02Z</time>
      </trkpt>
      <trkpt lat="49.86103" lon="2.4322">
        <ele>98.4</ele>
        <time>2024-01-24T13:44:03Z</time>
      </trkpt>
      <trkpt lat="49.86103" lon="2.4322">
        <ele>98.4</ele>
        <time>2024-01-24T13:44:04Z</time>
      </trkpt>
      <trkpt lat="49.86102" lon="2.43222">
        <ele>98.4</ele>
        <time>2024-01-24T13:44:19Z</time>
      </trkpt>
      <trkpt lat="49.86102" lon="2.43223">
        <ele>98.3</ele>
        <time>2024-01-24T13:44:20Z</time>
      </trkpt>
      <trkpt lat="49.86103" lon="2.43223">
        <ele>98.3</ele>
        <time>2024-01-24T13:44:21Z</time>
      </trkpt>
      <trkpt lat="49.86104" lon="2.43223">
        <ele>98.3</ele>
        <time>2024-01-24T13:44:22Z</time>
      </trkpt>
      <trkpt lat="49.86105" lon="2.43223">
        <ele>98.3</ele>
        <time>2024-01-24T13:44:23Z</time>
      </trkpt>
      <trkpt lat="49.86106" lon="2.43223">
        <ele>98.3</ele>
        <time>2024-01-24T13:44:24Z</time>
      </trkpt>
      <trkpt lat="49.86107" lon="2.43223">
        <ele>98.3</ele>
        <time>2024-01-24T13:44:25Z</time>
      </trkpt>
      <trkpt lat="49.86108" lon="2.43223">
        <ele>98.3</ele>
        <time>2024-01-24T13:44:27Z</time>
      </trkpt>
      <trkpt lat="49.86109" lon="2.43224">
        <ele>98.3</ele>
        <time>2024-01-24T13:44:28Z</time>
      </trkpt>
      <trkpt lat="49.8611" lon="2.43225">
        <ele>98.3</ele>
        <time>2024-01-24T13:44:29Z</time>
      </trkpt>
      <trkpt lat="49.86112" lon="2.43227">
        <ele>98.3</ele>
        <time>2024-01-24T13:44:30Z</time>
      </trkpt>
      <trkpt lat="49.86113" lon="2.43228">
        <ele>98.3</ele>
        <time>2024-01-24T13:44:31Z</time>
      </trkpt>
      <trkpt lat="49.86114" lon="2.4323">
        <ele>98.2</ele>
        <time>2024-01-24T13:44:32Z</time>
      </trkpt>
      <trkpt lat="49.86115" lon="2.43233">
        <ele>98.2</ele>
        <time>2024-01-24T13:44:34Z</time>
      </trkpt>
      <trkpt lat="49.86115" lon="2.43235">
        <ele>98.2</ele>
        <time>2024-01-24T13:44:35Z</time>
      </trkpt>
      <trkpt lat="49.86116" lon="2.43237">
        <ele>98.2</ele>
        <time>2024-01-24T13:44:36Z</time>
      </trkpt>
      <trkpt lat="49.86117" lon="2.43239">
        <ele>98.2</ele>
        <time>2024-01-24T13:44:37Z</time>
      </trkpt>
      <trkpt lat="49.86117" lon="2.43242">
        <ele>98.1</ele>
        <time>2024-01-24T13:44:38Z</time>
      </trkpt>
      <trkpt lat="49.86117" lon="2.43244">
        <ele>98.1</ele>
        <time>2024-01-24T13:44:39Z</time>
      </trkpt>
      <trkpt lat="49.86118" lon="2.43246">
        <ele>98.1</ele>
        <time>2024-01-24T13:44:40Z</time>
      </trkpt>
      <trkpt lat="49.86118" lon="2.43248">
        <ele>98.1</ele>
        <time>2024-01-24T13:44:41Z</time>
      </trkpt>
      <trkpt lat="49.86118" lon="2.4325">
        <ele>98.1</ele>
        <time>2024-01-24T13:44:42Z</time>
      </trkpt>
      <trkpt lat="49.86118" lon="2.43252">
        <ele>98.1</ele>
        <time>2024-01-24T13:44:44Z</time>
      </trkpt>
      <trkpt lat="49.86118" lon="2.43254">
        <ele>98.1</ele>
        <time>2024-01-24T13:44:45Z</time>
      </trkpt>
      <trkpt lat="49.86119" lon="2.43256">
        <ele>98.1</ele>
        <time>2024-01-24T13:44:46Z</time>
      </trkpt>
      <trkpt lat="49.86119" lon="2.43258">
        <ele>98</ele>
        <time>2024-01-24T13:44:47Z</time>
      </trkpt>
      <trkpt lat="49.8612" lon="2.4326">
        <ele>98</ele>
        <time>2024-01-24T13:44:48Z</time>
      </trkpt>
      <trkpt lat="49.8612" lon="2.43262">
        <ele>98</ele>
        <time>2024-01-24T13:44:49Z</time>
      </trkpt>
      <trkpt lat="49.8612" lon="2.43264">
        <ele>98</ele>
        <time>2024-01-24T13:44:50Z</time>
      </trkpt>
      <trkpt lat="49.86121" lon="2.43266">
        <ele>98</ele>
        <time>2024-01-24T13:44:51Z</time>
      </trkpt>
      <trkpt lat="49.86121" lon="2.43268">
        <ele>98</ele>
        <time>2024-01-24T13:44:52Z</time>
      </trkpt>
      <trkpt lat="49.86121" lon="2.4327">
        <ele>98</ele>
        <time>2024-01-24T13:44:53Z</time>
      </trkpt>
      <trkpt lat="49.86122" lon="2.43272">
        <ele>98</ele>
        <time>2024-01-24T13:44:55Z</time>
      </trkpt>
      <trkpt lat="49.86122" lon="2.43274">
        <ele>98</ele>
        <time>2024-01-24T13:44:56Z</time>
      </trkpt>
      <trkpt lat="49.86123" lon="2.43277">
        <ele>98</ele>
        <time>2024-01-24T13:44:57Z</time>
      </trkpt>
      <trkpt lat="49.86123" lon="2.43278">
        <ele>98</ele>
        <time>2024-01-24T13:44:58Z</time>
      </trkpt>
      <trkpt lat="49.86124" lon="2.43279">
        <ele>98</ele>
        <time>2024-01-24T13:44:59Z</time>
      </trkpt>
      <trkpt lat="49.86124" lon="2.43281">
        <ele>97.9</ele>
        <time>2024-01-24T13:45:01Z</time>
      </trkpt>
      <trkpt lat="49.86125" lon="2.43282">
        <ele>97.9</ele>
        <time>2024-01-24T13:45:02Z</time>
      </trkpt>
      <trkpt lat="49.86125" lon="2.43284">
        <ele>97.9</ele>
        <time>2024-01-24T13:45:03Z</time>
      </trkpt>
      <trkpt lat="49.86126" lon="2.43287">
        <ele>97.9</ele>
        <time>2024-01-24T13:45:04Z</time>
      </trkpt>
      <trkpt lat="49.86126" lon="2.43288">
        <ele>97.9</ele>
        <time>2024-01-24T13:45:05Z</time>
      </trkpt>
      <trkpt lat="49.86127" lon="2.43289">
        <ele>97.9</ele>
        <time>2024-01-24T13:45:06Z</time>
      </trkpt>
      <trkpt lat="49.86127" lon="2.43291">
        <ele>97.8</ele>
        <time>2024-01-24T13:45:07Z</time>
      </trkpt>
      <trkpt lat="49.86127" lon="2.43293">
        <ele>97.8</ele>
        <time>2024-01-24T13:45:08Z</time>
      </trkpt>
      <trkpt lat="49.86128" lon="2.43295">
        <ele>97.8</ele>
        <time>2024-01-24T13:45:10Z</time>
      </trkpt>
      <trkpt lat="49.86129" lon="2.43298">
        <ele>97.8</ele>
        <time>2024-01-24T13:45:11Z</time>
      </trkpt>
      <trkpt lat="49.86129" lon="2.43299">
        <ele>97.8</ele>
        <time>2024-01-24T13:45:12Z</time>
      </trkpt>
      <trkpt lat="49.86129" lon="2.43301">
        <ele>97.8</ele>
        <time>2024-01-24T13:45:13Z</time>
      </trkpt>
      <trkpt lat="49.8613" lon="2.43304">
        <ele>97.7</ele>
        <time>2024-01-24T13:45:14Z</time>
      </trkpt>
      <trkpt lat="49.8613" lon="2.43305">
        <ele>97.7</ele>
        <time>2024-01-24T13:45:15Z</time>
      </trkpt>
      <trkpt lat="49.8613" lon="2.43306">
        <ele>97.7</ele>
        <time>2024-01-24T13:45:16Z</time>
      </trkpt>
      <trkpt lat="49.86131" lon="2.43309">
        <ele>97.7</ele>
        <time>2024-01-24T13:45:17Z</time>
      </trkpt>
      <trkpt lat="49.86132" lon="2.43311">
        <ele>97.7</ele>
        <time>2024-01-24T13:45:19Z</time>
      </trkpt>
      <trkpt lat="49.86132" lon="2.43312">
        <ele>97.7</ele>
        <time>2024-01-24T13:45:20Z</time>
      </trkpt>
      <trkpt lat="49.86133" lon="2.43314">
        <ele>97.7</ele>
        <time>2024-01-24T13:45:21Z</time>
      </trkpt>
      <trkpt lat="49.86133" lon="2.43315">
        <ele>97.7</ele>
        <time>2024-01-24T13:45:22Z</time>
      </trkpt>
      <trkpt lat="49.86134" lon="2.43317">
        <ele>97.7</ele>
        <time>2024-01-24T13:45:23Z</time>
      </trkpt>
      <trkpt lat="49.86135" lon="2.43319">
        <ele>97.6</ele>
        <time>2024-01-24T13:45:24Z</time>
      </trkpt>
      <trkpt lat="49.86136" lon="2.43321">
        <ele>97.6</ele>
        <time>2024-01-24T13:45:26Z</time>
      </trkpt>
      <trkpt lat="49.86136" lon="2.43323">
        <ele>97.6</ele>
        <time>2024-01-24T13:45:27Z</time>
      </trkpt>
      <trkpt lat="49.86137" lon="2.43324">
        <ele>97.6</ele>
        <time>2024-01-24T13:45:28Z</time>
      </trkpt>
      <trkpt lat="49.86137" lon="2.43325">
        <ele>97.6</ele>
        <time>2024-01-24T13:45:29Z</time>
      </trkpt>
      <trkpt lat="49.86138" lon="2.43327">
        <ele>97.6</ele>
        <time>2024-01-24T13:45:30Z</time>
      </trkpt>
      <trkpt lat="49.86139" lon="2.43328">
        <ele>97.6</ele>
        <time>2024-01-24T13:45:31Z</time>
      </trkpt>
      <trkpt lat="49.86139" lon="2.4333">
        <ele>97.6</ele>
        <time>2024-01-24T13:45:33Z</time>
      </trkpt>
      <trkpt lat="49.8614" lon="2.43332">
        <ele>97.6</ele>
        <time>2024-01-24T13:45:34Z</time>
      </trkpt>
      <trkpt lat="49.86141" lon="2.43334">
        <ele>97.5</ele>
        <time>2024-01-24T13:45:35Z</time>
      </trkpt>
      <trkpt lat="49.86141" lon="2.43336">
        <ele>97.5</ele>
        <time>2024-01-24T13:45:36Z</time>
      </trkpt>
      <trkpt lat="49.86142" lon="2.43338">
        <ele>97.5</ele>
        <time>2024-01-24T13:45:37Z</time>
      </trkpt>
      <trkpt lat="49.86143" lon="2.4334">
        <ele>97.5</ele>
        <time>2024-01-24T13:45:38Z</time>
      </trkpt>
      <trkpt lat="49.86143" lon="2.43343">
        <ele>97.5</ele>
        <time>2024-01-24T13:45:39Z</time>
      </trkpt>
      <trkpt lat="49.86144" lon="2.43344">
        <ele>97.5</ele>
        <time>2024-01-24T13:45:40Z</time>
      </trkpt>
      <trkpt lat="49.86144" lon="2.43345">
        <ele>97.5</ele>
        <time>2024-01-24T13:45:41Z</time>
      </trkpt>
      <trkpt lat="49.86145" lon="2.43348">
        <ele>97.5</ele>
        <time>2024-01-24T13:45:43Z</time>
      </trkpt>
      <trkpt lat="49.86146" lon="2.43349">
        <ele>97.5</ele>
        <time>2024-01-24T13:45:44Z</time>
      </trkpt>
      <trkpt lat="49.86146" lon="2.4335">
        <ele>97.5</ele>
        <time>2024-01-24T13:45:45Z</time>
      </trkpt>
      <trkpt lat="49.86147" lon="2.43353">
        <ele>97.5</ele>
        <time>2024-01-24T13:45:46Z</time>
      </trkpt>
      <trkpt lat="49.86147" lon="2.43354">
        <ele>97.5</ele>
        <time>2024-01-24T13:45:47Z</time>
      </trkpt>
      <trkpt lat="49.86148" lon="2.43356">
        <ele>97.5</ele>
        <time>2024-01-24T13:45:48Z</time>
      </trkpt>
      <trkpt lat="49.86148" lon="2.43359">
        <ele>97.5</ele>
        <time>2024-01-24T13:45:49Z</time>
      </trkpt>
      <trkpt lat="49.86149" lon="2.4336">
        <ele>97.5</ele>
        <time>2024-01-24T13:45:50Z</time>
      </trkpt>
      <trkpt lat="49.86149" lon="2.43361">
        <ele>97.5</ele>
        <time>2024-01-24T13:45:51Z</time>
      </trkpt>
      <trkpt lat="49.8615" lon="2.43364">
        <ele>97.5</ele>
        <time>2024-01-24T13:45:53Z</time>
      </trkpt>
      <trkpt lat="49.8615" lon="2.43365">
        <ele>97.5</ele>
        <time>2024-01-24T13:45:54Z</time>
      </trkpt>
      <trkpt lat="49.86151" lon="2.43367">
        <ele>97.4</ele>
        <time>2024-01-24T13:45:55Z</time>
      </trkpt>
      <trkpt lat="49.86151" lon="2.43369">
        <ele>97.4</ele>
        <time>2024-01-24T13:45:56Z</time>
      </trkpt>
      <trkpt lat="49.86151" lon="2.4337">
        <ele>97.4</ele>
        <time>2024-01-24T13:45:57Z</time>
      </trkpt>
      <trkpt lat="49.86152" lon="2.43372">
        <ele>97.4</ele>
        <time>2024-01-24T13:45:58Z</time>
      </trkpt>
      <trkpt lat="49.86152" lon="2.43375">
        <ele>97.4</ele>
        <time>2024-01-24T13:46:00Z</time>
      </trkpt>
      <trkpt lat="49.86152" lon="2.43376">
        <ele>97.4</ele>
        <time>2024-01-24T13:46:01Z</time>
      </trkpt>
      <trkpt lat="49.86153" lon="2.4338">
        <ele>97.3</ele>
        <time>2024-01-24T13:46:02Z</time>
      </trkpt>
      <trkpt lat="49.86153" lon="2.43381">
        <ele>97.3</ele>
        <time>2024-01-24T13:46:03Z</time>
      </trkpt>
      <trkpt lat="49.86153" lon="2.43383">
        <ele>97.3</ele>
        <time>2024-01-24T13:46:05Z</time>
      </trkpt>
      <trkpt lat="49.86153" lon="2.43385">
        <ele>97.3</ele>
        <time>2024-01-24T13:46:06Z</time>
      </trkpt>
      <trkpt lat="49.86153" lon="2.43386">
        <ele>97.2</ele>
        <time>2024-01-24T13:46:07Z</time>
      </trkpt>
      <trkpt lat="49.86153" lon="2.43388">
        <ele>97.2</ele>
        <time>2024-01-24T13:46:08Z</time>
      </trkpt>
      <trkpt lat="49.86154" lon="2.4339">
        <ele>97.2</ele>
        <time>2024-01-24T13:46:09Z</time>
      </trkpt>
      <trkpt lat="49.86154" lon="2.43392">
        <ele>97.2</ele>
        <time>2024-01-24T13:46:10Z</time>
      </trkpt>
      <trkpt lat="49.86154" lon="2.43393">
        <ele>97.2</ele>
        <time>2024-01-24T13:46:11Z</time>
      </trkpt>
      <trkpt lat="49.86155" lon="2.43395">
        <ele>97.1</ele>
        <time>2024-01-24T13:46:12Z</time>
      </trkpt>
      <trkpt lat="49.86155" lon="2.43397">
        <ele>97.1</ele>
        <time>2024-01-24T13:46:14Z</time>
      </trkpt>
      <trkpt lat="49.86156" lon="2.43399">
        <ele>97.1</ele>
        <time>2024-01-24T13:46:15Z</time>
      </trkpt>
      <trkpt lat="49.86156" lon="2.43401">
        <ele>97.1</ele>
        <time>2024-01-24T13:46:16Z</time>
      </trkpt>
      <trkpt lat="49.86157" lon="2.43403">
        <ele>97.1</ele>
        <time>2024-01-24T13:46:17Z</time>
      </trkpt>
      <trkpt lat="49.86157" lon="2.43406">
        <ele>97</ele>
        <time>2024-01-24T13:46:18Z</time>
      </trkpt>
      <trkpt lat="49.86158" lon="2.43408">
        <ele>97</ele>
        <time>2024-01-24T13:46:19Z</time>
      </trkpt>
      <trkpt lat="49.86158" lon="2.43409">
        <ele>97</ele>
        <time>2024-01-24T13:46:20Z</time>
      </trkpt>
      <trkpt lat="49.86159" lon="2.43411">
        <ele>97</ele>
        <time>2024-01-24T13:46:22Z</time>
      </trkpt>
      <trkpt lat="49.8616" lon="2.43414">
        <ele>97</ele>
        <time>2024-01-24T13:46:23Z</time>
      </trkpt>
      <trkpt lat="49.8616" lon="2.43415">
        <ele>97</ele>
        <time>2024-01-24T13:46:24Z</time>
      </trkpt>
      <trkpt lat="49.86161" lon="2.43417">
        <ele>97</ele>
        <time>2024-01-24T13:46:25Z</time>
      </trkpt>
      <trkpt lat="49.86161" lon="2.43418">
        <ele>97</ele>
        <time>2024-01-24T13:46:26Z</time>
      </trkpt>
      <trkpt lat="49.86162" lon="2.4342">
        <ele>96.9</ele>
        <time>2024-01-24T13:46:27Z</time>
      </trkpt>
      <trkpt lat="49.86162" lon="2.43423">
        <ele>96.9</ele>
        <time>2024-01-24T13:46:29Z</time>
      </trkpt>
      <trkpt lat="49.86163" lon="2.43424">
        <ele>96.9</ele>
        <time>2024-01-24T13:46:30Z</time>
      </trkpt>
      <trkpt lat="49.86164" lon="2.43426">
        <ele>96.9</ele>
        <time>2024-01-24T13:46:31Z</time>
      </trkpt>
      <trkpt lat="49.86164" lon="2.43428">
        <ele>96.9</ele>
        <time>2024-01-24T13:46:32Z</time>
      </trkpt>
      <trkpt lat="49.86165" lon="2.4343">
        <ele>96.9</ele>
        <time>2024-01-24T13:46:33Z</time>
      </trkpt>
      <trkpt lat="49.86166" lon="2.43433">
        <ele>96.9</ele>
        <time>2024-01-24T13:46:34Z</time>
      </trkpt>
      <trkpt lat="49.86166" lon="2.43434">
        <ele>96.8</ele>
        <time>2024-01-24T13:46:35Z</time>
      </trkpt>
      <trkpt lat="49.86167" lon="2.43435">
        <ele>96.8</ele>
        <time>2024-01-24T13:46:36Z</time>
      </trkpt>
      <trkpt lat="49.86168" lon="2.43438">
        <ele>96.8</ele>
        <time>2024-01-24T13:46:37Z</time>
      </trkpt>
      <trkpt lat="49.86168" lon="2.4344">
        <ele>96.8</ele>
        <time>2024-01-24T13:46:39Z</time>
      </trkpt>
      <trkpt lat="49.86169" lon="2.43441">
        <ele>96.8</ele>
        <time>2024-01-24T13:46:40Z</time>
      </trkpt>
      <trkpt lat="49.86169" lon="2.43443">
        <ele>96.8</ele>
        <time>2024-01-24T13:46:41Z</time>
      </trkpt>
      <trkpt lat="49.8617" lon="2.43445">
        <ele>96.8</ele>
        <time>2024-01-24T13:46:42Z</time>
      </trkpt>
      <trkpt lat="49.86171" lon="2.43448">
        <ele>96.8</ele>
        <time>2024-01-24T13:46:44Z</time>
      </trkpt>
      <trkpt lat="49.86171" lon="2.43449">
        <ele>96.8</ele>
        <time>2024-01-24T13:46:45Z</time>
      </trkpt>
      <trkpt lat="49.86172" lon="2.43451">
        <ele>96.7</ele>
        <time>2024-01-24T13:46:46Z</time>
      </trkpt>
      <trkpt lat="49.86173" lon="2.43454">
        <ele>96.7</ele>
        <time>2024-01-24T13:46:47Z</time>
      </trkpt>
      <trkpt lat="49.86173" lon="2.43455">
        <ele>96.7</ele>
        <time>2024-01-24T13:46:48Z</time>
      </trkpt>
      <trkpt lat="49.86173" lon="2.43456">
        <ele>96.7</ele>
        <time>2024-01-24T13:46:49Z</time>
      </trkpt>
      <trkpt lat="49.86174" lon="2.43459">
        <ele>96.7</ele>
        <time>2024-01-24T13:46:50Z</time>
      </trkpt>
      <trkpt lat="49.86174" lon="2.4346">
        <ele>96.7</ele>
        <time>2024-01-24T13:46:51Z</time>
      </trkpt>
      <trkpt lat="49.86175" lon="2.43461">
        <ele>96.7</ele>
        <time>2024-01-24T13:46:52Z</time>
      </trkpt>
      <trkpt lat="49.86176" lon="2.43464">
        <ele>96.6</ele>
        <time>2024-01-24T13:46:53Z</time>
      </trkpt>
      <trkpt lat="49.86176" lon="2.43465">
        <ele>96.6</ele>
        <time>2024-01-24T13:46:55Z</time>
      </trkpt>
      <trkpt lat="49.86176" lon="2.43467">
        <ele>96.6</ele>
        <time>2024-01-24T13:46:56Z</time>
      </trkpt>
      <trkpt lat="49.86177" lon="2.4347">
        <ele>96.6</ele>
        <time>2024-01-24T13:46:57Z</time>
      </trkpt>
      <trkpt lat="49.86177" lon="2.43471">
        <ele>96.6</ele>
        <time>2024-01-24T13:46:58Z</time>
      </trkpt>
      <trkpt lat="49.86178" lon="2.43473">
        <ele>96.6</ele>
        <time>2024-01-24T13:46:59Z</time>
      </trkpt>
      <trkpt lat="49.86178" lon="2.43476">
        <ele>96.6</ele>
        <time>2024-01-24T13:47:00Z</time>
      </trkpt>
      <trkpt lat="49.86179" lon="2.43478">
        <ele>96.5</ele>
        <time>2024-01-24T13:47:02Z</time>
      </trkpt>
      <trkpt lat="49.86179" lon="2.43479">
        <ele>96.5</ele>
        <time>2024-01-24T13:47:03Z</time>
      </trkpt>
      <trkpt lat="49.86179" lon="2.43481">
        <ele>96.5</ele>
        <time>2024-01-24T13:47:04Z</time>
      </trkpt>
      <trkpt lat="49.86179" lon="2.43482">
        <ele>96.5</ele>
        <time>2024-01-24T13:47:05Z</time>
      </trkpt>
      <trkpt lat="49.8618" lon="2.43484">
        <ele>96.5</ele>
        <time>2024-01-24T13:47:06Z</time>
      </trkpt>
      <trkpt lat="49.8618" lon="2.43486">
        <ele>96.5</ele>
        <time>2024-01-24T13:47:07Z</time>
      </trkpt>
      <trkpt lat="49.8618" lon="2.43488">
        <ele>96.5</ele>
        <time>2024-01-24T13:47:08Z</time>
      </trkpt>
      <trkpt lat="49.8618" lon="2.4349">
        <ele>96.5</ele>
        <time>2024-01-24T13:47:10Z</time>
      </trkpt>
      <trkpt lat="49.8618" lon="2.43491">
        <ele>96.5</ele>
        <time>2024-01-24T13:47:11Z</time>
      </trkpt>
      <trkpt lat="49.8618" lon="2.43493">
        <ele>96.5</ele>
        <time>2024-01-24T13:47:12Z</time>
      </trkpt>
      <trkpt lat="49.86179" lon="2.43495">
        <ele>96.5</ele>
        <time>2024-01-24T13:47:13Z</time>
      </trkpt>
      <trkpt lat="49.86179" lon="2.43497">
        <ele>96.4</ele>
        <time>2024-01-24T13:47:14Z</time>
      </trkpt>
      <trkpt lat="49.8618" lon="2.43499">
        <ele>96.4</ele>
        <time>2024-01-24T13:47:15Z</time>
      </trkpt>
      <trkpt lat="49.8618" lon="2.43502">
        <ele>96.4</ele>
        <time>2024-01-24T13:47:16Z</time>
      </trkpt>
      <trkpt lat="49.8618" lon="2.43503">
        <ele>96.4</ele>
        <time>2024-01-24T13:47:17Z</time>
      </trkpt>
      <trkpt lat="49.8618" lon="2.43504">
        <ele>96.4</ele>
        <time>2024-01-24T13:47:18Z</time>
      </trkpt>
      <trkpt lat="49.86181" lon="2.43506">
        <ele>96.4</ele>
        <time>2024-01-24T13:47:20Z</time>
      </trkpt>
      <trkpt lat="49.86181" lon="2.43508">
        <ele>96.4</ele>
        <time>2024-01-24T13:47:21Z</time>
      </trkpt>
      <trkpt lat="49.86182" lon="2.43509">
        <ele>96.4</ele>
        <time>2024-01-24T13:47:22Z</time>
      </trkpt>
      <trkpt lat="49.86182" lon="2.43511">
        <ele>96.4</ele>
        <time>2024-01-24T13:47:23Z</time>
      </trkpt>
      <trkpt lat="49.86182" lon="2.43512">
        <ele>96.4</ele>
        <time>2024-01-24T13:47:24Z</time>
      </trkpt>
      <trkpt lat="49.86183" lon="2.43514">
        <ele>96.4</ele>
        <time>2024-01-24T13:47:25Z</time>
      </trkpt>
      <trkpt lat="49.86183" lon="2.43516">
        <ele>96.4</ele>
        <time>2024-01-24T13:47:26Z</time>
      </trkpt>
      <trkpt lat="49.86184" lon="2.43518">
        <ele>96.4</ele>
        <time>2024-01-24T13:47:27Z</time>
      </trkpt>
      <trkpt lat="49.86184" lon="2.4352">
        <ele>96.4</ele>
        <time>2024-01-24T13:47:29Z</time>
      </trkpt>
      <trkpt lat="49.86185" lon="2.43521">
        <ele>96.3</ele>
        <time>2024-01-24T13:47:30Z</time>
      </trkpt>
      <trkpt lat="49.86185" lon="2.43524">
        <ele>96.3</ele>
        <time>2024-01-24T13:47:31Z</time>
      </trkpt>
      <trkpt lat="49.86186" lon="2.43527">
        <ele>96.3</ele>
        <time>2024-01-24T13:47:32Z</time>
      </trkpt>
      <trkpt lat="49.86186" lon="2.43528">
        <ele>96.3</ele>
        <time>2024-01-24T13:47:33Z</time>
      </trkpt>
      <trkpt lat="49.86187" lon="2.43529">
        <ele>96.3</ele>
        <time>2024-01-24T13:47:34Z</time>
      </trkpt>
      <trkpt lat="49.86187" lon="2.43532">
        <ele>96.3</ele>
        <time>2024-01-24T13:47:35Z</time>
      </trkpt>
      <trkpt lat="49.86188" lon="2.43534">
        <ele>96.4</ele>
        <time>2024-01-24T13:47:36Z</time>
      </trkpt>
      <trkpt lat="49.86188" lon="2.43535">
        <ele>96.4</ele>
        <time>2024-01-24T13:47:38Z</time>
      </trkpt>
      <trkpt lat="49.86188" lon="2.43537">
        <ele>96.4</ele>
        <time>2024-01-24T13:47:39Z</time>
      </trkpt>
      <trkpt lat="49.86189" lon="2.43538">
        <ele>96.4</ele>
        <time>2024-01-24T13:47:40Z</time>
      </trkpt>
      <trkpt lat="49.86189" lon="2.4354">
        <ele>96.4</ele>
        <time>2024-01-24T13:47:41Z</time>
      </trkpt>
      <trkpt lat="49.8619" lon="2.43543">
        <ele>96.4</ele>
        <time>2024-01-24T13:47:42Z</time>
      </trkpt>
      <trkpt lat="49.8619" lon="2.43544">
        <ele>96.4</ele>
        <time>2024-01-24T13:47:43Z</time>
      </trkpt>
      <trkpt lat="49.8619" lon="2.43545">
        <ele>96.4</ele>
        <time>2024-01-24T13:47:44Z</time>
      </trkpt>
      <trkpt lat="49.86191" lon="2.43548">
        <ele>96.4</ele>
        <time>2024-01-24T13:47:45Z</time>
      </trkpt>
      <trkpt lat="49.86191" lon="2.43549">
        <ele>96.4</ele>
        <time>2024-01-24T13:47:46Z</time>
      </trkpt>
      <trkpt lat="49.86192" lon="2.43551">
        <ele>96.4</ele>
        <time>2024-01-24T13:47:48Z</time>
      </trkpt>
      <trkpt lat="49.86192" lon="2.43555">
        <ele>96.4</ele>
        <time>2024-01-24T13:47:49Z</time>
      </trkpt>
      <trkpt lat="49.86192" lon="2.43556">
        <ele>96.4</ele>
        <time>2024-01-24T13:47:50Z</time>
      </trkpt>
      <trkpt lat="49.86192" lon="2.43557">
        <ele>96.4</ele>
        <time>2024-01-24T13:47:51Z</time>
      </trkpt>
      <trkpt lat="49.86193" lon="2.43559">
        <ele>96.4</ele>
        <time>2024-01-24T13:47:52Z</time>
      </trkpt>
      <trkpt lat="49.86193" lon="2.43561">
        <ele>96.4</ele>
        <time>2024-01-24T13:47:53Z</time>
      </trkpt>
      <trkpt lat="49.86194" lon="2.43565">
        <ele>96.3</ele>
        <time>2024-01-24T13:47:54Z</time>
      </trkpt>
      <trkpt lat="49.86195" lon="2.43566">
        <ele>96.3</ele>
        <time>2024-01-24T13:47:55Z</time>
      </trkpt>
      <trkpt lat="49.86195" lon="2.43567">
        <ele>96.3</ele>
        <time>2024-01-24T13:47:56Z</time>
      </trkpt>
      <trkpt lat="49.86195" lon="2.43569">
        <ele>96.3</ele>
        <time>2024-01-24T13:47:58Z</time>
      </trkpt>
      <trkpt lat="49.86196" lon="2.43572">
        <ele>96.3</ele>
        <time>2024-01-24T13:47:59Z</time>
      </trkpt>
      <trkpt lat="49.86197" lon="2.43573">
        <ele>96.2</ele>
        <time>2024-01-24T13:48:00Z</time>
      </trkpt>
      <trkpt lat="49.86197" lon="2.43575">
        <ele>96.2</ele>
        <time>2024-01-24T13:48:01Z</time>
      </trkpt>
      <trkpt lat="49.86198" lon="2.43577">
        <ele>96.2</ele>
        <time>2024-01-24T13:48:03Z</time>
      </trkpt>
      <trkpt lat="49.86198" lon="2.43581">
        <ele>96.1</ele>
        <time>2024-01-24T13:48:04Z</time>
      </trkpt>
      <trkpt lat="49.86199" lon="2.43582">
        <ele>96.1</ele>
        <time>2024-01-24T13:48:05Z</time>
      </trkpt>
      <trkpt lat="49.86199" lon="2.43583">
        <ele>96.1</ele>
        <time>2024-01-24T13:48:06Z</time>
      </trkpt>
      <trkpt lat="49.862" lon="2.43586">
        <ele>96</ele>
        <time>2024-01-24T13:48:07Z</time>
      </trkpt>
      <trkpt lat="49.862" lon="2.43588">
        <ele>96</ele>
        <time>2024-01-24T13:48:08Z</time>
      </trkpt>
      <trkpt lat="49.862" lon="2.43589">
        <ele>96</ele>
        <time>2024-01-24T13:48:09Z</time>
      </trkpt>
      <trkpt lat="49.86201" lon="2.43592">
        <ele>96</ele>
        <time>2024-01-24T13:48:10Z</time>
      </trkpt>
      <trkpt lat="49.86201" lon="2.43593">
        <ele>96</ele>
        <time>2024-01-24T13:48:11Z</time>
      </trkpt>
      <trkpt lat="49.86201" lon="2.43594">
        <ele>95.9</ele>
        <time>2024-01-24T13:48:12Z</time>
      </trkpt>
      <trkpt lat="49.86201" lon="2.43597">
        <ele>95.9</ele>
        <time>2024-01-24T13:48:13Z</time>
      </trkpt>
      <trkpt lat="49.86202" lon="2.43599">
        <ele>95.9</ele>
        <time>2024-01-24T13:48:15Z</time>
      </trkpt>
      <trkpt lat="49.86202" lon="2.43601">
        <ele>95.9</ele>
        <time>2024-01-24T13:48:16Z</time>
      </trkpt>
      <trkpt lat="49.86202" lon="2.43602">
        <ele>95.9</ele>
        <time>2024-01-24T13:48:17Z</time>
      </trkpt>
      <trkpt lat="49.86203" lon="2.43604">
        <ele>95.8</ele>
        <time>2024-01-24T13:48:18Z</time>
      </trkpt>
      <trkpt lat="49.86203" lon="2.43606">
        <ele>95.8</ele>
        <time>2024-01-24T13:48:20Z</time>
      </trkpt>
      <trkpt lat="49.86204" lon="2.43608">
        <ele>95.8</ele>
        <time>2024-01-24T13:48:21Z</time>
      </trkpt>
      <trkpt lat="49.86204" lon="2.43611">
        <ele>95.8</ele>
        <time>2024-01-24T13:48:22Z</time>
      </trkpt>
      <trkpt lat="49.86205" lon="2.43612">
        <ele>95.8</ele>
        <time>2024-01-24T13:48:23Z</time>
      </trkpt>
      <trkpt lat="49.86205" lon="2.43613">
        <ele>95.8</ele>
        <time>2024-01-24T13:48:24Z</time>
      </trkpt>
      <trkpt lat="49.86205" lon="2.43616">
        <ele>95.8</ele>
        <time>2024-01-24T13:48:25Z</time>
      </trkpt>
      <trkpt lat="49.86205" lon="2.43618">
        <ele>95.8</ele>
        <time>2024-01-24T13:48:26Z</time>
      </trkpt>
      <trkpt lat="49.86205" lon="2.4362">
        <ele>95.7</ele>
        <time>2024-01-24T13:48:27Z</time>
      </trkpt>
      <trkpt lat="49.86206" lon="2.43622">
        <ele>95.7</ele>
        <time>2024-01-24T13:48:28Z</time>
      </trkpt>
      <trkpt lat="49.86206" lon="2.43624">
        <ele>95.7</ele>
        <time>2024-01-24T13:48:29Z</time>
      </trkpt>
      <trkpt lat="49.86206" lon="2.43626">
        <ele>95.7</ele>
        <time>2024-01-24T13:48:31Z</time>
      </trkpt>
      <trkpt lat="49.86206" lon="2.43628">
        <ele>95.7</ele>
        <time>2024-01-24T13:48:32Z</time>
      </trkpt>
      <trkpt lat="49.86207" lon="2.4363">
        <ele>95.7</ele>
        <time>2024-01-24T13:48:33Z</time>
      </trkpt>
      <trkpt lat="49.86208" lon="2.43633">
        <ele>95.7</ele>
        <time>2024-01-24T13:48:34Z</time>
      </trkpt>
      <trkpt lat="49.86208" lon="2.43635">
        <ele>95.7</ele>
        <time>2024-01-24T13:48:35Z</time>
      </trkpt>
      <trkpt lat="49.86208" lon="2.43636">
        <ele>95.6</ele>
        <time>2024-01-24T13:48:36Z</time>
      </trkpt>
      <trkpt lat="49.86209" lon="2.43638">
        <ele>95.6</ele>
        <time>2024-01-24T13:48:38Z</time>
      </trkpt>
      <trkpt lat="49.86209" lon="2.4364">
        <ele>95.6</ele>
        <time>2024-01-24T13:48:39Z</time>
      </trkpt>
      <trkpt lat="49.8621" lon="2.43642">
        <ele>95.6</ele>
        <time>2024-01-24T13:48:40Z</time>
      </trkpt>
      <trkpt lat="49.8621" lon="2.43645">
        <ele>95.6</ele>
        <time>2024-01-24T13:48:41Z</time>
      </trkpt>
      <trkpt lat="49.86211" lon="2.43648">
        <ele>95.6</ele>
        <time>2024-01-24T13:48:42Z</time>
      </trkpt>
      <trkpt lat="49.86212" lon="2.43649">
        <ele>95.6</ele>
        <time>2024-01-24T13:48:43Z</time>
      </trkpt>
      <trkpt lat="49.86212" lon="2.4365">
        <ele>95.6</ele>
        <time>2024-01-24T13:48:44Z</time>
      </trkpt>
      <trkpt lat="49.86213" lon="2.43652">
        <ele>95.6</ele>
        <time>2024-01-24T13:48:45Z</time>
      </trkpt>
      <trkpt lat="49.86213" lon="2.43654">
        <ele>95.5</ele>
        <time>2024-01-24T13:48:46Z</time>
      </trkpt>
      <trkpt lat="49.86214" lon="2.43657">
        <ele>95.5</ele>
        <time>2024-01-24T13:48:48Z</time>
      </trkpt>
      <trkpt lat="49.86214" lon="2.43659">
        <ele>95.5</ele>
        <time>2024-01-24T13:48:49Z</time>
      </trkpt>
      <trkpt lat="49.86215" lon="2.43661">
        <ele>95.5</ele>
        <time>2024-01-24T13:48:50Z</time>
      </trkpt>
      <trkpt lat="49.86215" lon="2.43663">
        <ele>95.5</ele>
        <time>2024-01-24T13:48:51Z</time>
      </trkpt>
      <trkpt lat="49.86216" lon="2.43665">
        <ele>95.5</ele>
        <time>2024-01-24T13:48:53Z</time>
      </trkpt>
      <trkpt lat="49.86216" lon="2.43667">
        <ele>95.4</ele>
        <time>2024-01-24T13:48:54Z</time>
      </trkpt>
      <trkpt lat="49.86217" lon="2.4367">
        <ele>95.4</ele>
        <time>2024-01-24T13:48:55Z</time>
      </trkpt>
      <trkpt lat="49.86217" lon="2.43672">
        <ele>95.4</ele>
        <time>2024-01-24T13:48:56Z</time>
      </trkpt>
      <trkpt lat="49.86218" lon="2.43674">
        <ele>95.4</ele>
        <time>2024-01-24T13:48:57Z</time>
      </trkpt>
      <trkpt lat="49.86219" lon="2.43676">
        <ele>95.4</ele>
        <time>2024-01-24T13:48:58Z</time>
      </trkpt>
      <trkpt lat="49.8622" lon="2.43678">
        <ele>95.4</ele>
        <time>2024-01-24T13:48:59Z</time>
      </trkpt>
      <trkpt lat="49.86221" lon="2.43681">
        <ele>95.3</ele>
        <time>2024-01-24T13:49:00Z</time>
      </trkpt>
      <trkpt lat="49.86221" lon="2.43682">
        <ele>95.3</ele>
        <time>2024-01-24T13:49:02Z</time>
      </trkpt>
      <trkpt lat="49.86222" lon="2.43684">
        <ele>95.3</ele>
        <time>2024-01-24T13:49:03Z</time>
      </trkpt>
      <trkpt lat="49.86222" lon="2.43686">
        <ele>95.3</ele>
        <time>2024-01-24T13:49:04Z</time>
      </trkpt>
      <trkpt lat="49.86223" lon="2.43687">
        <ele>95.3</ele>
        <time>2024-01-24T13:49:05Z</time>
      </trkpt>
      <trkpt lat="49.86224" lon="2.4369">
        <ele>95.3</ele>
        <time>2024-01-24T13:49:06Z</time>
      </trkpt>
      <trkpt lat="49.86224" lon="2.43691">
        <ele>95.3</ele>
        <time>2024-01-24T13:49:07Z</time>
      </trkpt>
      <trkpt lat="49.86225" lon="2.43692">
        <ele>95.2</ele>
        <time>2024-01-24T13:49:08Z</time>
      </trkpt>
      <trkpt lat="49.86225" lon="2.43694">
        <ele>95.2</ele>
        <time>2024-01-24T13:49:09Z</time>
      </trkpt>
      <trkpt lat="49.86226" lon="2.43696">
        <ele>95.2</ele>
        <time>2024-01-24T13:49:10Z</time>
      </trkpt>
      <trkpt lat="49.86227" lon="2.43697">
        <ele>95.2</ele>
        <time>2024-01-24T13:49:12Z</time>
      </trkpt>
      <trkpt lat="49.86228" lon="2.437">
        <ele>95.1</ele>
        <time>2024-01-24T13:49:13Z</time>
      </trkpt>
      <trkpt lat="49.86228" lon="2.43701">
        <ele>95.1</ele>
        <time>2024-01-24T13:49:14Z</time>
      </trkpt>
      <trkpt lat="49.86229" lon="2.43703">
        <ele>95.1</ele>
        <time>2024-01-24T13:49:15Z</time>
      </trkpt>
      <trkpt lat="49.8623" lon="2.43705">
        <ele>95.1</ele>
        <time>2024-01-24T13:49:16Z</time>
      </trkpt>
      <trkpt lat="49.8623" lon="2.43706">
        <ele>95.1</ele>
        <time>2024-01-24T13:49:17Z</time>
      </trkpt>
      <trkpt lat="49.86231" lon="2.43708">
        <ele>95</ele>
        <time>2024-01-24T13:49:19Z</time>
      </trkpt>
      <trkpt lat="49.86232" lon="2.4371">
        <ele>95</ele>
        <time>2024-01-24T13:49:20Z</time>
      </trkpt>
      <trkpt lat="49.86233" lon="2.43712">
        <ele>95</ele>
        <time>2024-01-24T13:49:21Z</time>
      </trkpt>
      <trkpt lat="49.86234" lon="2.43714">
        <ele>94.9</ele>
        <time>2024-01-24T13:49:22Z</time>
      </trkpt>
      <trkpt lat="49.86234" lon="2.43716">
        <ele>94.9</ele>
        <time>2024-01-24T13:49:23Z</time>
      </trkpt>
      <trkpt lat="49.86235" lon="2.43717">
        <ele>94.9</ele>
        <time>2024-01-24T13:49:24Z</time>
      </trkpt>
      <trkpt lat="49.86236" lon="2.43718">
        <ele>94.9</ele>
        <time>2024-01-24T13:49:25Z</time>
      </trkpt>
      <trkpt lat="49.86237" lon="2.4372">
        <ele>94.8</ele>
        <time>2024-01-24T13:49:26Z</time>
      </trkpt>
      <trkpt lat="49.86238" lon="2.43722">
        <ele>94.8</ele>
        <time>2024-01-24T13:49:28Z</time>
      </trkpt>
      <trkpt lat="49.86238" lon="2.43724">
        <ele>94.8</ele>
        <time>2024-01-24T13:49:29Z</time>
      </trkpt>
      <trkpt lat="49.8624" lon="2.43727">
        <ele>94.8</ele>
        <time>2024-01-24T13:49:30Z</time>
      </trkpt>
      <trkpt lat="49.8624" lon="2.43728">
        <ele>94.8</ele>
        <time>2024-01-24T13:49:31Z</time>
      </trkpt>
      <trkpt lat="49.8624" lon="2.43729">
        <ele>94.8</ele>
        <time>2024-01-24T13:49:32Z</time>
      </trkpt>
      <trkpt lat="49.86241" lon="2.4373">
        <ele>94.8</ele>
        <time>2024-01-24T13:49:33Z</time>
      </trkpt>
      <trkpt lat="49.86242" lon="2.43732">
        <ele>94.8</ele>
        <time>2024-01-24T13:49:34Z</time>
      </trkpt>
      <trkpt lat="49.86243" lon="2.43734">
        <ele>94.7</ele>
        <time>2024-01-24T13:49:36Z</time>
      </trkpt>
      <trkpt lat="49.86244" lon="2.43735">
        <ele>94.7</ele>
        <time>2024-01-24T13:49:37Z</time>
      </trkpt>
      <trkpt lat="49.86244" lon="2.43737">
        <ele>94.7</ele>
        <time>2024-01-24T13:49:38Z</time>
      </trkpt>
      <trkpt lat="49.86245" lon="2.43738">
        <ele>94.7</ele>
        <time>2024-01-24T13:49:39Z</time>
      </trkpt>
      <trkpt lat="49.86246" lon="2.4374">
        <ele>94.7</ele>
        <time>2024-01-24T13:49:40Z</time>
      </trkpt>
      <trkpt lat="49.86246" lon="2.43741">
        <ele>94.7</ele>
        <time>2024-01-24T13:49:41Z</time>
      </trkpt>
      <trkpt lat="49.86247" lon="2.43743">
        <ele>94.7</ele>
        <time>2024-01-24T13:49:43Z</time>
      </trkpt>
      <trkpt lat="49.86248" lon="2.43745">
        <ele>94.8</ele>
        <time>2024-01-24T13:49:44Z</time>
      </trkpt>
      <trkpt lat="49.86248" lon="2.43746">
        <ele>94.8</ele>
        <time>2024-01-24T13:49:45Z</time>
      </trkpt>
      <trkpt lat="49.86248" lon="2.43748">
        <ele>94.8</ele>
        <time>2024-01-24T13:49:46Z</time>
      </trkpt>
      <trkpt lat="49.86249" lon="2.43749">
        <ele>94.8</ele>
        <time>2024-01-24T13:49:47Z</time>
      </trkpt>
      <trkpt lat="49.86249" lon="2.43751">
        <ele>94.8</ele>
        <time>2024-01-24T13:49:48Z</time>
      </trkpt>
      <trkpt lat="49.8625" lon="2.43753">
        <ele>94.8</ele>
        <time>2024-01-24T13:49:49Z</time>
      </trkpt>
      <trkpt lat="49.8625" lon="2.43754">
        <ele>94.8</ele>
        <time>2024-01-24T13:49:50Z</time>
      </trkpt>
      <trkpt lat="49.8625" lon="2.43756">
        <ele>94.8</ele>
        <time>2024-01-24T13:49:51Z</time>
      </trkpt>
      <trkpt lat="49.86251" lon="2.43758">
        <ele>94.9</ele>
        <time>2024-01-24T13:49:52Z</time>
      </trkpt>
      <trkpt lat="49.86251" lon="2.43761">
        <ele>94.9</ele>
        <time>2024-01-24T13:49:54Z</time>
      </trkpt>
      <trkpt lat="49.86251" lon="2.43763">
        <ele>94.9</ele>
        <time>2024-01-24T13:49:55Z</time>
      </trkpt>
      <trkpt lat="49.86251" lon="2.43764">
        <ele>94.9</ele>
        <time>2024-01-24T13:49:56Z</time>
      </trkpt>
      <trkpt lat="49.86251" lon="2.43767">
        <ele>94.9</ele>
        <time>2024-01-24T13:49:57Z</time>
      </trkpt>
      <trkpt lat="49.86251" lon="2.43769">
        <ele>94.9</ele>
        <time>2024-01-24T13:49:58Z</time>
      </trkpt>
      <trkpt lat="49.86252" lon="2.4377">
        <ele>94.9</ele>
        <time>2024-01-24T13:49:59Z</time>
      </trkpt>
      <trkpt lat="49.86252" lon="2.43773">
        <ele>95</ele>
        <time>2024-01-24T13:50:00Z</time>
      </trkpt>
      <trkpt lat="49.86252" lon="2.43775">
        <ele>95</ele>
        <time>2024-01-24T13:50:01Z</time>
      </trkpt>
      <trkpt lat="49.86252" lon="2.43776">
        <ele>95</ele>
        <time>2024-01-24T13:50:02Z</time>
      </trkpt>
      <trkpt lat="49.86253" lon="2.4378">
        <ele>95</ele>
        <time>2024-01-24T13:50:04Z</time>
      </trkpt>
      <trkpt lat="49.86253" lon="2.43781">
        <ele>95</ele>
        <time>2024-01-24T13:50:05Z</time>
      </trkpt>
      <trkpt lat="49.86253" lon="2.43782">
        <ele>95</ele>
        <time>2024-01-24T13:50:06Z</time>
      </trkpt>
      <trkpt lat="49.86253" lon="2.43784">
        <ele>95</ele>
        <time>2024-01-24T13:50:07Z</time>
      </trkpt>
      <trkpt lat="49.86254" lon="2.43786">
        <ele>95</ele>
        <time>2024-01-24T13:50:08Z</time>
      </trkpt>
      <trkpt lat="49.86254" lon="2.43789">
        <ele>95</ele>
        <time>2024-01-24T13:50:09Z</time>
      </trkpt>
      <trkpt lat="49.86254" lon="2.43791">
        <ele>95</ele>
        <time>2024-01-24T13:50:10Z</time>
      </trkpt>
      <trkpt lat="49.86255" lon="2.43793">
        <ele>95</ele>
        <time>2024-01-24T13:50:11Z</time>
      </trkpt>
      <trkpt lat="49.86255" lon="2.43795">
        <ele>95</ele>
        <time>2024-01-24T13:50:12Z</time>
      </trkpt>
      <trkpt lat="49.86256" lon="2.43798">
        <ele>94.9</ele>
        <time>2024-01-24T13:50:13Z</time>
      </trkpt>
      <trkpt lat="49.86256" lon="2.438">
        <ele>94.9</ele>
        <time>2024-01-24T13:50:15Z</time>
      </trkpt>
      <trkpt lat="49.86256" lon="2.43801">
        <ele>94.9</ele>
        <time>2024-01-24T13:50:16Z</time>
      </trkpt>
      <trkpt lat="49.86257" lon="2.43804">
        <ele>94.9</ele>
        <time>2024-01-24T13:50:17Z</time>
      </trkpt>
      <trkpt lat="49.86257" lon="2.43806">
        <ele>94.9</ele>
        <time>2024-01-24T13:50:18Z</time>
      </trkpt>
      <trkpt lat="49.86257" lon="2.43807">
        <ele>94.9</ele>
        <time>2024-01-24T13:50:19Z</time>
      </trkpt>
      <trkpt lat="49.86258" lon="2.4381">
        <ele>94.9</ele>
        <time>2024-01-24T13:50:20Z</time>
      </trkpt>
      <trkpt lat="49.86258" lon="2.43811">
        <ele>94.9</ele>
        <time>2024-01-24T13:50:21Z</time>
      </trkpt>
      <trkpt lat="49.86258" lon="2.43812">
        <ele>94.9</ele>
        <time>2024-01-24T13:50:22Z</time>
      </trkpt>
      <trkpt lat="49.86259" lon="2.43815">
        <ele>94.9</ele>
        <time>2024-01-24T13:50:24Z</time>
      </trkpt>
      <trkpt lat="49.86259" lon="2.43817">
        <ele>94.9</ele>
        <time>2024-01-24T13:50:25Z</time>
      </trkpt>
      <trkpt lat="49.8626" lon="2.4382">
        <ele>94.9</ele>
        <time>2024-01-24T13:50:26Z</time>
      </trkpt>
      <trkpt lat="49.8626" lon="2.43821">
        <ele>94.9</ele>
        <time>2024-01-24T13:50:27Z</time>
      </trkpt>
      <trkpt lat="49.8626" lon="2.43822">
        <ele>94.9</ele>
        <time>2024-01-24T13:50:28Z</time>
      </trkpt>
      <trkpt lat="49.86261" lon="2.43824">
        <ele>94.9</ele>
        <time>2024-01-24T13:50:29Z</time>
      </trkpt>
      <trkpt lat="49.86262" lon="2.43826">
        <ele>94.9</ele>
        <time>2024-01-24T13:50:31Z</time>
      </trkpt>
      <trkpt lat="49.86262" lon="2.43828">
        <ele>94.9</ele>
        <time>2024-01-24T13:50:32Z</time>
      </trkpt>
      <trkpt lat="49.86262" lon="2.43829">
        <ele>94.9</ele>
        <time>2024-01-24T13:50:33Z</time>
      </trkpt>
      <trkpt lat="49.86263" lon="2.43831">
        <ele>94.9</ele>
        <time>2024-01-24T13:50:35Z</time>
      </trkpt>
      <trkpt lat="49.86263" lon="2.43832">
        <ele>94.9</ele>
        <time>2024-01-24T13:50:36Z</time>
      </trkpt>
      <trkpt lat="49.86264" lon="2.43833">
        <ele>94.9</ele>
        <time>2024-01-24T13:50:37Z</time>
      </trkpt>
      <trkpt lat="49.86264" lon="2.43835">
        <ele>94.9</ele>
        <time>2024-01-24T13:50:38Z</time>
      </trkpt>
      <trkpt lat="49.86265" lon="2.43836">
        <ele>94.9</ele>
        <time>2024-01-24T13:50:39Z</time>
      </trkpt>
      <trkpt lat="49.86265" lon="2.43837">
        <ele>94.9</ele>
        <time>2024-01-24T13:50:40Z</time>
      </trkpt>
      <trkpt lat="49.86266" lon="2.43839">
        <ele>94.9</ele>
        <time>2024-01-24T13:50:41Z</time>
      </trkpt>
      <trkpt lat="49.86266" lon="2.4384">
        <ele>94.9</ele>
        <time>2024-01-24T13:50:42Z</time>
      </trkpt>
      <trkpt lat="49.86267" lon="2.43841">
        <ele>94.9</ele>
        <time>2024-01-24T13:50:43Z</time>
      </trkpt>
      <trkpt lat="49.86267" lon="2.43843">
        <ele>94.9</ele>
        <time>2024-01-24T13:50:44Z</time>
      </trkpt>
      <trkpt lat="49.86268" lon="2.43845">
        <ele>94.9</ele>
        <time>2024-01-24T13:50:46Z</time>
      </trkpt>
      <trkpt lat="49.86268" lon="2.43847">
        <ele>94.9</ele>
        <time>2024-01-24T13:50:47Z</time>
      </trkpt>
      <trkpt lat="49.8627" lon="2.43849">
        <ele>94.9</ele>
        <time>2024-01-24T13:50:48Z</time>
      </trkpt>
      <trkpt lat="49.8627" lon="2.4385">
        <ele>94.9</ele>
        <time>2024-01-24T13:50:49Z</time>
      </trkpt>
      <trkpt lat="49.86271" lon="2.43852">
        <ele>94.9</ele>
        <time>2024-01-24T13:50:50Z</time>
      </trkpt>
      <trkpt lat="49.86271" lon="2.43854">
        <ele>94.9</ele>
        <time>2024-01-24T13:50:51Z</time>
      </trkpt>
      <trkpt lat="49.86272" lon="2.43856">
        <ele>94.9</ele>
        <time>2024-01-24T13:50:52Z</time>
      </trkpt>
      <trkpt lat="49.86273" lon="2.43858">
        <ele>94.9</ele>
        <time>2024-01-24T13:50:54Z</time>
      </trkpt>
      <trkpt lat="49.86273" lon="2.4386">
        <ele>94.9</ele>
        <time>2024-01-24T13:50:55Z</time>
      </trkpt>
      <trkpt lat="49.86274" lon="2.43862">
        <ele>94.9</ele>
        <time>2024-01-24T13:50:56Z</time>
      </trkpt>
      <trkpt lat="49.86275" lon="2.43864">
        <ele>95</ele>
        <time>2024-01-24T13:50:57Z</time>
      </trkpt>
      <trkpt lat="49.86275" lon="2.43866">
        <ele>95</ele>
        <time>2024-01-24T13:50:58Z</time>
      </trkpt>
      <trkpt lat="49.86276" lon="2.43868">
        <ele>95</ele>
        <time>2024-01-24T13:50:59Z</time>
      </trkpt>
      <trkpt lat="49.86276" lon="2.4387">
        <ele>95</ele>
        <time>2024-01-24T13:51:01Z</time>
      </trkpt>
      <trkpt lat="49.86277" lon="2.43872">
        <ele>95</ele>
        <time>2024-01-24T13:51:02Z</time>
      </trkpt>
      <trkpt lat="49.86277" lon="2.43874">
        <ele>95</ele>
        <time>2024-01-24T13:51:03Z</time>
      </trkpt>
      <trkpt lat="49.86278" lon="2.43876">
        <ele>95</ele>
        <time>2024-01-24T13:51:04Z</time>
      </trkpt>
      <trkpt lat="49.86279" lon="2.43877">
        <ele>95</ele>
        <time>2024-01-24T13:51:05Z</time>
      </trkpt>
      <trkpt lat="49.8628" lon="2.43879">
        <ele>95</ele>
        <time>2024-01-24T13:51:06Z</time>
      </trkpt>
      <trkpt lat="49.86281" lon="2.4388">
        <ele>95</ele>
        <time>2024-01-24T13:51:07Z</time>
      </trkpt>
      <trkpt lat="49.86281" lon="2.43881">
        <ele>95</ele>
        <time>2024-01-24T13:51:08Z</time>
      </trkpt>
      <trkpt lat="49.86282" lon="2.43883">
        <ele>95</ele>
        <time>2024-01-24T13:51:09Z</time>
      </trkpt>
      <trkpt lat="49.86282" lon="2.43885">
        <ele>95</ele>
        <time>2024-01-24T13:51:10Z</time>
      </trkpt>
      <trkpt lat="49.86283" lon="2.43887">
        <ele>95.1</ele>
        <time>2024-01-24T13:51:11Z</time>
      </trkpt>
      <trkpt lat="49.86283" lon="2.43888">
        <ele>95.1</ele>
        <time>2024-01-24T13:51:12Z</time>
      </trkpt>
      <trkpt lat="49.86284" lon="2.4389">
        <ele>95.1</ele>
        <time>2024-01-24T13:51:13Z</time>
      </trkpt>
      <trkpt lat="49.86285" lon="2.43892">
        <ele>95.1</ele>
        <time>2024-01-24T13:51:15Z</time>
      </trkpt>
      <trkpt lat="49.86286" lon="2.43893">
        <ele>95.1</ele>
        <time>2024-01-24T13:51:16Z</time>
      </trkpt>
      <trkpt lat="49.86286" lon="2.43894">
        <ele>95.1</ele>
        <time>2024-01-24T13:51:17Z</time>
      </trkpt>
      <trkpt lat="49.86287" lon="2.43897">
        <ele>95.1</ele>
        <time>2024-01-24T13:51:18Z</time>
      </trkpt>
      <trkpt lat="49.86287" lon="2.43898">
        <ele>95.1</ele>
        <time>2024-01-24T13:51:19Z</time>
      </trkpt>
      <trkpt lat="49.86288" lon="2.43899">
        <ele>95.1</ele>
        <time>2024-01-24T13:51:20Z</time>
      </trkpt>
      <trkpt lat="49.86288" lon="2.43902">
        <ele>95.2</ele>
        <time>2024-01-24T13:51:22Z</time>
      </trkpt>
      <trkpt lat="49.86289" lon="2.43904">
        <ele>95.2</ele>
        <time>2024-01-24T13:51:23Z</time>
      </trkpt>
      <trkpt lat="49.8629" lon="2.43906">
        <ele>95.2</ele>
        <time>2024-01-24T13:51:24Z</time>
      </trkpt>
      <trkpt lat="49.86291" lon="2.43908">
        <ele>95.2</ele>
        <time>2024-01-24T13:51:25Z</time>
      </trkpt>
      <trkpt lat="49.86291" lon="2.4391">
        <ele>95.2</ele>
        <time>2024-01-24T13:51:26Z</time>
      </trkpt>
      <trkpt lat="49.86292" lon="2.43912">
        <ele>95.2</ele>
        <time>2024-01-24T13:51:27Z</time>
      </trkpt>
      <trkpt lat="49.86292" lon="2.43913">
        <ele>95.2</ele>
        <time>2024-01-24T13:51:28Z</time>
      </trkpt>
      <trkpt lat="49.86293" lon="2.43915">
        <ele>95.3</ele>
        <time>2024-01-24T13:51:29Z</time>
      </trkpt>
      <trkpt lat="49.86293" lon="2.43916">
        <ele>95.3</ele>
        <time>2024-01-24T13:51:30Z</time>
      </trkpt>
      <trkpt lat="49.86294" lon="2.43917">
        <ele>95.3</ele>
        <time>2024-01-24T13:51:31Z</time>
      </trkpt>
      <trkpt lat="49.86295" lon="2.43919">
        <ele>95.3</ele>
        <time>2024-01-24T13:51:32Z</time>
      </trkpt>
      <trkpt lat="49.86296" lon="2.43921">
        <ele>95.3</ele>
        <time>2024-01-24T13:51:34Z</time>
      </trkpt>
      <trkpt lat="49.86296" lon="2.43922">
        <ele>95.3</ele>
        <time>2024-01-24T13:51:35Z</time>
      </trkpt>
      <trkpt lat="49.86297" lon="2.43924">
        <ele>95.4</ele>
        <time>2024-01-24T13:51:36Z</time>
      </trkpt>
      <trkpt lat="49.86298" lon="2.43926">
        <ele>95.4</ele>
        <time>2024-01-24T13:51:37Z</time>
      </trkpt>
      <trkpt lat="49.86299" lon="2.43928">
        <ele>95.4</ele>
        <time>2024-01-24T13:51:38Z</time>
      </trkpt>
      <trkpt lat="49.863" lon="2.4393">
        <ele>95.5</ele>
        <time>2024-01-24T13:51:40Z</time>
      </trkpt>
      <trkpt lat="49.86301" lon="2.43932">
        <ele>95.5</ele>
        <time>2024-01-24T13:51:41Z</time>
      </trkpt>
      <trkpt lat="49.86302" lon="2.43933">
        <ele>95.5</ele>
        <time>2024-01-24T13:51:42Z</time>
      </trkpt>
      <trkpt lat="49.86302" lon="2.43935">
        <ele>95.5</ele>
        <time>2024-01-24T13:51:43Z</time>
      </trkpt>
      <trkpt lat="49.86303" lon="2.43936">
        <ele>95.4</ele>
        <time>2024-01-24T13:51:44Z</time>
      </trkpt>
      <trkpt lat="49.86303" lon="2.43939">
        <ele>95.4</ele>
        <time>2024-01-24T13:51:45Z</time>
      </trkpt>
      <trkpt lat="49.86303" lon="2.43941">
        <ele>95.3</ele>
        <time>2024-01-24T13:51:47Z</time>
      </trkpt>
      <trkpt lat="49.86304" lon="2.43942">
        <ele>95.3</ele>
        <time>2024-01-24T13:51:48Z</time>
      </trkpt>
      <trkpt lat="49.86305" lon="2.43945">
        <ele>95.3</ele>
        <time>2024-01-24T13:51:49Z</time>
      </trkpt>
      <trkpt lat="49.86305" lon="2.43946">
        <ele>95.2</ele>
        <time>2024-01-24T13:51:50Z</time>
      </trkpt>
      <trkpt lat="49.86306" lon="2.43947">
        <ele>95.2</ele>
        <time>2024-01-24T13:51:51Z</time>
      </trkpt>
      <trkpt lat="49.86306" lon="2.43948">
        <ele>95.2</ele>
        <time>2024-01-24T13:51:52Z</time>
      </trkpt>
      <trkpt lat="49.86306" lon="2.43949">
        <ele>95.2</ele>
        <time>2024-01-24T13:51:53Z</time>
      </trkpt>
      <trkpt lat="49.86307" lon="2.43951">
        <ele>95.1</ele>
        <time>2024-01-24T13:51:55Z</time>
      </trkpt>
      <trkpt lat="49.86308" lon="2.43951">
        <ele>95.1</ele>
        <time>2024-01-24T13:51:56Z</time>
      </trkpt>
      <trkpt lat="49.86309" lon="2.43949">
        <ele>95.1</ele>
        <time>2024-01-24T13:51:58Z</time>
      </trkpt>
      <trkpt lat="49.86309" lon="2.43948">
        <ele>95.1</ele>
        <time>2024-01-24T13:51:59Z</time>
      </trkpt>
      <trkpt lat="49.86309" lon="2.43947">
        <ele>95</ele>
        <time>2024-01-24T13:52:01Z</time>
      </trkpt>
      <trkpt lat="49.86309" lon="2.43947">
        <ele>95</ele>
        <time>2024-01-24T13:52:02Z</time>
      </trkpt>
      <trkpt lat="49.86309" lon="2.43946">
        <ele>95</ele>
        <time>2024-01-24T13:52:03Z</time>
      </trkpt>
      <trkpt lat="49.86309" lon="2.43946">
        <ele>95</ele>
        <time>2024-01-24T13:52:05Z</time>
      </trkpt>
      <trkpt lat="49.86309" lon="2.43946">
        <ele>95</ele>
        <time>2024-01-24T13:52:06Z</time>
      </trkpt>
      <trkpt lat="49.86309" lon="2.43946">
        <ele>95</ele>
        <time>2024-01-24T13:52:08Z</time>
      </trkpt>
      <trkpt lat="49.86309" lon="2.43945">
        <ele>95</ele>
        <time>2024-01-24T13:52:09Z</time>
      </trkpt>
      <trkpt lat="49.86309" lon="2.43945">
        <ele>95</ele>
        <time>2024-01-24T13:52:11Z</time>
      </trkpt>
      <trkpt lat="49.86309" lon="2.43945">
        <ele>95</ele>
        <time>2024-01-24T13:52:12Z</time>
      </trkpt>
      <trkpt lat="49.86309" lon="2.43945">
        <ele>95</ele>
        <time>2024-01-24T13:52:13Z</time>
      </trkpt>
      <trkpt lat="49.86309" lon="2.43945">
        <ele>95</ele>
        <time>2024-01-24T13:52:15Z</time>
      </trkpt>
      <trkpt lat="49.86309" lon="2.43945">
        <ele>95</ele>
        <time>2024-01-24T13:52:16Z</time>
      </trkpt>
      <trkpt lat="49.86309" lon="2.43946">
        <ele>95</ele>
        <time>2024-01-24T13:52:17Z</time>
      </trkpt>
      <trkpt lat="49.86309" lon="2.43946">
        <ele>95</ele>
        <time>2024-01-24T13:52:18Z</time>
      </trkpt>
      <trkpt lat="49.86308" lon="2.43946">
        <ele>95</ele>
        <time>2024-01-24T13:52:19Z</time>
      </trkpt>
      <trkpt lat="49.86307" lon="2.43949">
        <ele>94.9</ele>
        <time>2024-01-24T13:53:45Z</time>
      </trkpt>
      <trkpt lat="49.86307" lon="2.43951">
        <ele>94.9</ele>
        <time>2024-01-24T13:53:46Z</time>
      </trkpt>
      <trkpt lat="49.86309" lon="2.43952">
        <ele>94.8</ele>
        <time>2024-01-24T13:53:47Z</time>
      </trkpt>
      <trkpt lat="49.8631" lon="2.43952">
        <ele>94.8</ele>
        <time>2024-01-24T13:53:49Z</time>
      </trkpt>
      <trkpt lat="49.86312" lon="2.43952">
        <ele>94.7</ele>
        <time>2024-01-24T13:53:50Z</time>
      </trkpt>
      <trkpt lat="49.86314" lon="2.43952">
        <ele>94.7</ele>
        <time>2024-01-24T13:53:51Z</time>
      </trkpt>
      <trkpt lat="49.86315" lon="2.43952">
        <ele>94.7</ele>
        <time>2024-01-24T13:53:52Z</time>
      </trkpt>
      <trkpt lat="49.86317" lon="2.43953">
        <ele>94.6</ele>
        <time>2024-01-24T13:53:53Z</time>
      </trkpt>
      <trkpt lat="49.86318" lon="2.43953">
        <ele>94.6</ele>
        <time>2024-01-24T13:53:54Z</time>
      </trkpt>
      <trkpt lat="49.8632" lon="2.43953">
        <ele>94.5</ele>
        <time>2024-01-24T13:53:55Z</time>
      </trkpt>
      <trkpt lat="49.86322" lon="2.43953">
        <ele>94.5</ele>
        <time>2024-01-24T13:53:56Z</time>
      </trkpt>
      <trkpt lat="49.86323" lon="2.43954">
        <ele>94.4</ele>
        <time>2024-01-24T13:53:58Z</time>
      </trkpt>
      <trkpt lat="49.86324" lon="2.43954">
        <ele>94.4</ele>
        <time>2024-01-24T13:53:59Z</time>
      </trkpt>
      <trkpt lat="49.86325" lon="2.43954">
        <ele>94.4</ele>
        <time>2024-01-24T13:54:00Z</time>
      </trkpt>
      <trkpt lat="49.86326" lon="2.43954">
        <ele>94.4</ele>
        <time>2024-01-24T13:54:01Z</time>
      </trkpt>
      <trkpt lat="49.86328" lon="2.43955">
        <ele>94.3</ele>
        <time>2024-01-24T13:54:02Z</time>
      </trkpt>
      <trkpt lat="49.86329" lon="2.43954">
        <ele>94.3</ele>
        <time>2024-01-24T13:54:03Z</time>
      </trkpt>
      <trkpt lat="49.8633" lon="2.43954">
        <ele>94.3</ele>
        <time>2024-01-24T13:54:04Z</time>
      </trkpt>
      <trkpt lat="49.86331" lon="2.43953">
        <ele>94.2</ele>
        <time>2024-01-24T13:54:05Z</time>
      </trkpt>
      <trkpt lat="49.86332" lon="2.43953">
        <ele>94.2</ele>
        <time>2024-01-24T13:54:07Z</time>
      </trkpt>
      <trkpt lat="49.86333" lon="2.43952">
        <ele>94.2</ele>
        <time>2024-01-24T13:54:08Z</time>
      </trkpt>
      <trkpt lat="49.86334" lon="2.43952">
        <ele>94.2</ele>
        <time>2024-01-24T13:54:09Z</time>
      </trkpt>
      <trkpt lat="49.86335" lon="2.43952">
        <ele>94.1</ele>
        <time>2024-01-24T13:54:10Z</time>
      </trkpt>
      <trkpt lat="49.86336" lon="2.43951">
        <ele>94.1</ele>
        <time>2024-01-24T13:54:11Z</time>
      </trkpt>
      <trkpt lat="49.86338" lon="2.4395">
        <ele>94</ele>
        <time>2024-01-24T13:54:13Z</time>
      </trkpt>
      <trkpt lat="49.86339" lon="2.43949">
        <ele>94</ele>
        <time>2024-01-24T13:54:14Z</time>
      </trkpt>
      <trkpt lat="49.8634" lon="2.43949">
        <ele>94</ele>
        <time>2024-01-24T13:54:15Z</time>
      </trkpt>
      <trkpt lat="49.86342" lon="2.43947">
        <ele>93.9</ele>
        <time>2024-01-24T13:54:16Z</time>
      </trkpt>
      <trkpt lat="49.86343" lon="2.43947">
        <ele>93.9</ele>
        <time>2024-01-24T13:54:17Z</time>
      </trkpt>
      <trkpt lat="49.86344" lon="2.43946">
        <ele>93.9</ele>
        <time>2024-01-24T13:54:18Z</time>
      </trkpt>
      <trkpt lat="49.86345" lon="2.43945">
        <ele>93.8</ele>
        <time>2024-01-24T13:54:19Z</time>
      </trkpt>
      <trkpt lat="49.86346" lon="2.43943">
        <ele>93.8</ele>
        <time>2024-01-24T13:54:20Z</time>
      </trkpt>
      <trkpt lat="49.86348" lon="2.43942">
        <ele>93.7</ele>
        <time>2024-01-24T13:54:22Z</time>
      </trkpt>
      <trkpt lat="49.86349" lon="2.43941">
        <ele>93.7</ele>
        <time>2024-01-24T13:54:23Z</time>
      </trkpt>
      <trkpt lat="49.8635" lon="2.4394">
        <ele>93.7</ele>
        <time>2024-01-24T13:54:24Z</time>
      </trkpt>
      <trkpt lat="49.86351" lon="2.43939">
        <ele>93.6</ele>
        <time>2024-01-24T13:54:25Z</time>
      </trkpt>
      <trkpt lat="49.86352" lon="2.43938">
        <ele>93.6</ele>
        <time>2024-01-24T13:54:26Z</time>
      </trkpt>
      <trkpt lat="49.86353" lon="2.43937">
        <ele>93.6</ele>
        <time>2024-01-24T13:54:27Z</time>
      </trkpt>
      <trkpt lat="49.86354" lon="2.43937">
        <ele>93.5</ele>
        <time>2024-01-24T13:54:28Z</time>
      </trkpt>
      <trkpt lat="49.86356" lon="2.43936">
        <ele>93.5</ele>
        <time>2024-01-24T13:54:29Z</time>
      </trkpt>
      <trkpt lat="49.86357" lon="2.43936">
        <ele>93.5</ele>
        <time>2024-01-24T13:54:30Z</time>
      </trkpt>
      <trkpt lat="49.86358" lon="2.43935">
        <ele>93.4</ele>
        <time>2024-01-24T13:54:32Z</time>
      </trkpt>
      <trkpt lat="49.8636" lon="2.43935">
        <ele>93.4</ele>
        <time>2024-01-24T13:54:33Z</time>
      </trkpt>
      <trkpt lat="49.86362" lon="2.43934">
        <ele>93.3</ele>
        <time>2024-01-24T13:54:34Z</time>
      </trkpt>
      <trkpt lat="49.86363" lon="2.43934">
        <ele>93.3</ele>
        <time>2024-01-24T13:54:35Z</time>
      </trkpt>
      <trkpt lat="49.86363" lon="2.43934">
        <ele>93.3</ele>
        <time>2024-01-24T13:54:36Z</time>
      </trkpt>
      <trkpt lat="49.86365" lon="2.43934">
        <ele>93.3</ele>
        <time>2024-01-24T13:54:37Z</time>
      </trkpt>
      <trkpt lat="49.86366" lon="2.43933">
        <ele>93.2</ele>
        <time>2024-01-24T13:54:38Z</time>
      </trkpt>
      <trkpt lat="49.86367" lon="2.43932">
        <ele>93.2</ele>
        <time>2024-01-24T13:54:39Z</time>
      </trkpt>
      <trkpt lat="49.86368" lon="2.43932">
        <ele>93.2</ele>
        <time>2024-01-24T13:54:40Z</time>
      </trkpt>
      <trkpt lat="49.86369" lon="2.43931">
        <ele>93.1</ele>
        <time>2024-01-24T13:54:41Z</time>
      </trkpt>
      <trkpt lat="49.8637" lon="2.43931">
        <ele>93.1</ele>
        <time>2024-01-24T13:54:43Z</time>
      </trkpt>
      <trkpt lat="49.86371" lon="2.4393">
        <ele>93.1</ele>
        <time>2024-01-24T13:54:44Z</time>
      </trkpt>
      <trkpt lat="49.86372" lon="2.4393">
        <ele>93.1</ele>
        <time>2024-01-24T13:54:45Z</time>
      </trkpt>
      <trkpt lat="49.86373" lon="2.4393">
        <ele>93</ele>
        <time>2024-01-24T13:54:46Z</time>
      </trkpt>
      <trkpt lat="49.86374" lon="2.4393">
        <ele>93</ele>
        <time>2024-01-24T13:54:47Z</time>
      </trkpt>
      <trkpt lat="49.86375" lon="2.43929">
        <ele>93</ele>
        <time>2024-01-24T13:54:48Z</time>
      </trkpt>
      <trkpt lat="49.86376" lon="2.43929">
        <ele>92.9</ele>
        <time>2024-01-24T13:54:49Z</time>
      </trkpt>
      <trkpt lat="49.86378" lon="2.43929">
        <ele>92.9</ele>
        <time>2024-01-24T13:54:50Z</time>
      </trkpt>
      <trkpt lat="49.86379" lon="2.43929">
        <ele>92.9</ele>
        <time>2024-01-24T13:54:51Z</time>
      </trkpt>
      <trkpt lat="49.8638" lon="2.43928">
        <ele>92.8</ele>
        <time>2024-01-24T13:54:52Z</time>
      </trkpt>
      <trkpt lat="49.86382" lon="2.43929">
        <ele>92.8</ele>
        <time>2024-01-24T13:54:54Z</time>
      </trkpt>
      <trkpt lat="49.86383" lon="2.43929">
        <ele>92.8</ele>
        <time>2024-01-24T13:54:55Z</time>
      </trkpt>
      <trkpt lat="49.86384" lon="2.43929">
        <ele>92.7</ele>
        <time>2024-01-24T13:54:56Z</time>
      </trkpt>
      <trkpt lat="49.86385" lon="2.43928">
        <ele>92.7</ele>
        <time>2024-01-24T13:54:57Z</time>
      </trkpt>
      <trkpt lat="49.86386" lon="2.43928">
        <ele>92.7</ele>
        <time>2024-01-24T13:54:58Z</time>
      </trkpt>
      <trkpt lat="49.86388" lon="2.43927">
        <ele>92.6</ele>
        <time>2024-01-24T13:54:59Z</time>
      </trkpt>
      <trkpt lat="49.86389" lon="2.43927">
        <ele>92.6</ele>
        <time>2024-01-24T13:55:00Z</time>
      </trkpt>
      <trkpt lat="49.86391" lon="2.43927">
        <ele>92.6</ele>
        <time>2024-01-24T13:55:01Z</time>
      </trkpt>
      <trkpt lat="49.86392" lon="2.43927">
        <ele>92.5</ele>
        <time>2024-01-24T13:55:03Z</time>
      </trkpt>
      <trkpt lat="49.86394" lon="2.43926">
        <ele>92.5</ele>
        <time>2024-01-24T13:55:04Z</time>
      </trkpt>
      <trkpt lat="49.86395" lon="2.43926">
        <ele>92.4</ele>
        <time>2024-01-24T13:55:05Z</time>
      </trkpt>
      <trkpt lat="49.86396" lon="2.43926">
        <ele>92.4</ele>
        <time>2024-01-24T13:55:06Z</time>
      </trkpt>
      <trkpt lat="49.86397" lon="2.43926">
        <ele>92.4</ele>
        <time>2024-01-24T13:55:07Z</time>
      </trkpt>
      <trkpt lat="49.86398" lon="2.43926">
        <ele>92.4</ele>
        <time>2024-01-24T13:55:08Z</time>
      </trkpt>
      <trkpt lat="49.86399" lon="2.43926">
        <ele>92.3</ele>
        <time>2024-01-24T13:55:10Z</time>
      </trkpt>
      <trkpt lat="49.864" lon="2.43926">
        <ele>92.3</ele>
        <time>2024-01-24T13:55:11Z</time>
      </trkpt>
      <trkpt lat="49.86401" lon="2.43926">
        <ele>92.3</ele>
        <time>2024-01-24T13:55:12Z</time>
      </trkpt>
      <trkpt lat="49.86402" lon="2.43925">
        <ele>92.3</ele>
        <time>2024-01-24T13:55:13Z</time>
      </trkpt>
      <trkpt lat="49.86402" lon="2.43925">
        <ele>92.2</ele>
        <time>2024-01-24T13:55:14Z</time>
      </trkpt>
      <trkpt lat="49.86403" lon="2.43925">
        <ele>92.2</ele>
        <time>2024-01-24T13:55:16Z</time>
      </trkpt>
      <trkpt lat="49.86404" lon="2.43925">
        <ele>92.2</ele>
        <time>2024-01-24T13:55:17Z</time>
      </trkpt>
      <trkpt lat="49.86405" lon="2.43924">
        <ele>92.2</ele>
        <time>2024-01-24T13:55:18Z</time>
      </trkpt>
      <trkpt lat="49.86406" lon="2.43924">
        <ele>92.1</ele>
        <time>2024-01-24T13:55:19Z</time>
      </trkpt>
      <trkpt lat="49.86406" lon="2.43924">
        <ele>92.1</ele>
        <time>2024-01-24T13:55:20Z</time>
      </trkpt>
      <trkpt lat="49.86407" lon="2.43924">
        <ele>92.1</ele>
        <time>2024-01-24T13:55:21Z</time>
      </trkpt>
      <trkpt lat="49.86407" lon="2.43924">
        <ele>92.1</ele>
        <time>2024-01-24T13:55:22Z</time>
      </trkpt>
      <trkpt lat="49.86408" lon="2.43925">
        <ele>92.1</ele>
        <time>2024-01-24T13:55:23Z</time>
      </trkpt>
      <trkpt lat="49.86409" lon="2.43925">
        <ele>92.1</ele>
        <time>2024-01-24T13:55:25Z</time>
      </trkpt>
      <trkpt lat="49.8641" lon="2.43926">
        <ele>92</ele>
        <time>2024-01-24T13:55:26Z</time>
      </trkpt>
      <trkpt lat="49.86411" lon="2.43927">
        <ele>92</ele>
        <time>2024-01-24T13:55:27Z</time>
      </trkpt>
      <trkpt lat="49.86412" lon="2.43928">
        <ele>91.9</ele>
        <time>2024-01-24T13:55:28Z</time>
      </trkpt>
      <trkpt lat="49.86413" lon="2.43929">
        <ele>91.9</ele>
        <time>2024-01-24T13:55:30Z</time>
      </trkpt>
      <trkpt lat="49.86413" lon="2.4393">
        <ele>91.8</ele>
        <time>2024-01-24T13:55:31Z</time>
      </trkpt>
      <trkpt lat="49.86414" lon="2.43932">
        <ele>91.7</ele>
        <time>2024-01-24T13:55:32Z</time>
      </trkpt>
      <trkpt lat="49.86415" lon="2.43933">
        <ele>91.6</ele>
        <time>2024-01-24T13:55:33Z</time>
      </trkpt>
      <trkpt lat="49.86415" lon="2.43935">
        <ele>91.6</ele>
        <time>2024-01-24T13:55:34Z</time>
      </trkpt>
      <trkpt lat="49.86416" lon="2.43936">
        <ele>91.5</ele>
        <time>2024-01-24T13:55:36Z</time>
      </trkpt>
      <trkpt lat="49.86417" lon="2.43937">
        <ele>91.4</ele>
        <time>2024-01-24T13:55:37Z</time>
      </trkpt>
      <trkpt lat="49.86418" lon="2.43939">
        <ele>91.3</ele>
        <time>2024-01-24T13:55:38Z</time>
      </trkpt>
      <trkpt lat="49.86419" lon="2.4394">
        <ele>91.2</ele>
        <time>2024-01-24T13:55:39Z</time>
      </trkpt>
      <trkpt lat="49.8642" lon="2.4394">
        <ele>91.2</ele>
        <time>2024-01-24T13:55:40Z</time>
      </trkpt>
      <trkpt lat="49.86421" lon="2.43941">
        <ele>91.1</ele>
        <time>2024-01-24T13:55:41Z</time>
      </trkpt>
      <trkpt lat="49.86423" lon="2.43942">
        <ele>90.9</ele>
        <time>2024-01-24T13:55:43Z</time>
      </trkpt>
      <trkpt lat="49.86424" lon="2.43943">
        <ele>90.8</ele>
        <time>2024-01-24T13:55:45Z</time>
      </trkpt>
      <trkpt lat="49.86425" lon="2.43944">
        <ele>90.8</ele>
        <time>2024-01-24T13:55:46Z</time>
      </trkpt>
      <trkpt lat="49.86426" lon="2.43944">
        <ele>90.7</ele>
        <time>2024-01-24T13:55:47Z</time>
      </trkpt>
      <trkpt lat="49.86427" lon="2.43944">
        <ele>90.7</ele>
        <time>2024-01-24T13:55:48Z</time>
      </trkpt>
      <trkpt lat="49.86428" lon="2.43943">
        <ele>90.7</ele>
        <time>2024-01-24T13:55:49Z</time>
      </trkpt>
      <trkpt lat="49.86429" lon="2.43943">
        <ele>90.7</ele>
        <time>2024-01-24T13:55:51Z</time>
      </trkpt>
      <trkpt lat="49.86429" lon="2.43943">
        <ele>90.6</ele>
        <time>2024-01-24T13:55:52Z</time>
      </trkpt>
      <trkpt lat="49.8643" lon="2.43942">
        <ele>90.6</ele>
        <time>2024-01-24T13:55:53Z</time>
      </trkpt>
      <trkpt lat="49.86431" lon="2.43941">
        <ele>90.5</ele>
        <time>2024-01-24T13:55:54Z</time>
      </trkpt>
      <trkpt lat="49.86432" lon="2.4394">
        <ele>90.5</ele>
        <time>2024-01-24T13:55:55Z</time>
      </trkpt>
      <trkpt lat="49.86433" lon="2.43938">
        <ele>90.4</ele>
        <time>2024-01-24T13:55:56Z</time>
      </trkpt>
      <trkpt lat="49.86434" lon="2.43938">
        <ele>90.3</ele>
        <time>2024-01-24T13:55:58Z</time>
      </trkpt>
      <trkpt lat="49.86435" lon="2.43937">
        <ele>90.3</ele>
        <time>2024-01-24T13:55:59Z</time>
      </trkpt>
      <trkpt lat="49.86436" lon="2.43936">
        <ele>90.2</ele>
        <time>2024-01-24T13:56:00Z</time>
      </trkpt>
      <trkpt lat="49.86438" lon="2.43935">
        <ele>90.1</ele>
        <time>2024-01-24T13:56:01Z</time>
      </trkpt>
      <trkpt lat="49.86439" lon="2.43934">
        <ele>90</ele>
        <time>2024-01-24T13:56:02Z</time>
      </trkpt>
      <trkpt lat="49.8644" lon="2.43934">
        <ele>89.9</ele>
        <time>2024-01-24T13:56:03Z</time>
      </trkpt>
      <trkpt lat="49.86442" lon="2.43932">
        <ele>89.7</ele>
        <time>2024-01-24T13:56:04Z</time>
      </trkpt>
      <trkpt lat="49.86443" lon="2.43932">
        <ele>89.7</ele>
        <time>2024-01-24T13:56:06Z</time>
      </trkpt>
      <trkpt lat="49.86444" lon="2.43931">
        <ele>89.6</ele>
        <time>2024-01-24T13:56:07Z</time>
      </trkpt>
      <trkpt lat="49.86445" lon="2.43931">
        <ele>89.5</ele>
        <time>2024-01-24T13:56:08Z</time>
      </trkpt>
      <trkpt lat="49.86446" lon="2.4393">
        <ele>89.5</ele>
        <time>2024-01-24T13:56:09Z</time>
      </trkpt>
      <trkpt lat="49.86447" lon="2.43929">
        <ele>89.4</ele>
        <time>2024-01-24T13:56:10Z</time>
      </trkpt>
      <trkpt lat="49.86448" lon="2.43929">
        <ele>89.3</ele>
        <time>2024-01-24T13:56:11Z</time>
      </trkpt>
      <trkpt lat="49.86449" lon="2.43928">
        <ele>89.2</ele>
        <time>2024-01-24T13:56:12Z</time>
      </trkpt>
      <trkpt lat="49.8645" lon="2.43928">
        <ele>89.2</ele>
        <time>2024-01-24T13:56:14Z</time>
      </trkpt>
      <trkpt lat="49.86451" lon="2.43928">
        <ele>89.1</ele>
        <time>2024-01-24T13:56:15Z</time>
      </trkpt>
      <trkpt lat="49.86452" lon="2.43927">
        <ele>89</ele>
        <time>2024-01-24T13:56:16Z</time>
      </trkpt>
      <trkpt lat="49.86453" lon="2.43927">
        <ele>88.9</ele>
        <time>2024-01-24T13:56:17Z</time>
      </trkpt>
      <trkpt lat="49.86454" lon="2.43926">
        <ele>88.9</ele>
        <time>2024-01-24T13:56:18Z</time>
      </trkpt>
      <trkpt lat="49.86455" lon="2.43926">
        <ele>88.8</ele>
        <time>2024-01-24T13:56:19Z</time>
      </trkpt>
      <trkpt lat="49.86456" lon="2.43925">
        <ele>88.7</ele>
        <time>2024-01-24T13:56:20Z</time>
      </trkpt>
      <trkpt lat="49.86457" lon="2.43925">
        <ele>88.6</ele>
        <time>2024-01-24T13:56:21Z</time>
      </trkpt>
      <trkpt lat="49.86458" lon="2.43924">
        <ele>88.6</ele>
        <time>2024-01-24T13:56:22Z</time>
      </trkpt>
      <trkpt lat="49.86459" lon="2.43923">
        <ele>88.5</ele>
        <time>2024-01-24T13:56:24Z</time>
      </trkpt>
      <trkpt lat="49.8646" lon="2.43922">
        <ele>88.4</ele>
        <time>2024-01-24T13:56:25Z</time>
      </trkpt>
      <trkpt lat="49.86461" lon="2.43921">
        <ele>88.3</ele>
        <time>2024-01-24T13:56:26Z</time>
      </trkpt>
      <trkpt lat="49.86462" lon="2.43921">
        <ele>88.2</ele>
        <time>2024-01-24T13:56:27Z</time>
      </trkpt>
      <trkpt lat="49.86463" lon="2.4392">
        <ele>88.1</ele>
        <time>2024-01-24T13:56:28Z</time>
      </trkpt>
      <trkpt lat="49.86464" lon="2.43919">
        <ele>88</ele>
        <time>2024-01-24T13:56:29Z</time>
      </trkpt>
      <trkpt lat="49.86465" lon="2.43918">
        <ele>87.9</ele>
        <time>2024-01-24T13:56:30Z</time>
      </trkpt>
      <trkpt lat="49.86466" lon="2.43918">
        <ele>87.8</ele>
        <time>2024-01-24T13:56:32Z</time>
      </trkpt>
      <trkpt lat="49.86467" lon="2.43917">
        <ele>87.7</ele>
        <time>2024-01-24T13:56:33Z</time>
      </trkpt>
      <trkpt lat="49.86468" lon="2.43917">
        <ele>87.6</ele>
        <time>2024-01-24T13:56:34Z</time>
      </trkpt>
      <trkpt lat="49.8647" lon="2.43915">
        <ele>87.4</ele>
        <time>2024-01-24T13:56:35Z</time>
      </trkpt>
      <trkpt lat="49.86471" lon="2.43914">
        <ele>87.3</ele>
        <time>2024-01-24T13:56:36Z</time>
      </trkpt>
      <trkpt lat="49.86472" lon="2.43914">
        <ele>87.2</ele>
        <time>2024-01-24T13:56:37Z</time>
      </trkpt>
      <trkpt lat="49.86474" lon="2.43912">
        <ele>87</ele>
        <time>2024-01-24T13:56:38Z</time>
      </trkpt>
      <trkpt lat="49.86474" lon="2.43911">
        <ele>87</ele>
        <time>2024-01-24T13:56:39Z</time>
      </trkpt>
      <trkpt lat="49.86475" lon="2.43911">
        <ele>86.9</ele>
        <time>2024-01-24T13:56:40Z</time>
      </trkpt>
      <trkpt lat="49.86477" lon="2.43909">
        <ele>86.7</ele>
        <time>2024-01-24T13:56:41Z</time>
      </trkpt>
      <trkpt lat="49.86478" lon="2.43909">
        <ele>86.6</ele>
        <time>2024-01-24T13:56:43Z</time>
      </trkpt>
      <trkpt lat="49.86478" lon="2.43908">
        <ele>86.6</ele>
        <time>2024-01-24T13:56:44Z</time>
      </trkpt>
      <trkpt lat="49.86479" lon="2.43907">
        <ele>86.5</ele>
        <time>2024-01-24T13:56:45Z</time>
      </trkpt>
      <trkpt lat="49.8648" lon="2.43906">
        <ele>86.4</ele>
        <time>2024-01-24T13:56:46Z</time>
      </trkpt>
      <trkpt lat="49.86481" lon="2.43905">
        <ele>86.3</ele>
        <time>2024-01-24T13:56:47Z</time>
      </trkpt>
      <trkpt lat="49.86482" lon="2.43905">
        <ele>86.2</ele>
        <time>2024-01-24T13:56:48Z</time>
      </trkpt>
      <trkpt lat="49.86483" lon="2.43904">
        <ele>86.1</ele>
        <time>2024-01-24T13:56:49Z</time>
      </trkpt>
      <trkpt lat="49.86485" lon="2.43902">
        <ele>85.9</ele>
        <time>2024-01-24T13:56:51Z</time>
      </trkpt>
      <trkpt lat="49.86486" lon="2.43902">
        <ele>85.8</ele>
        <time>2024-01-24T13:56:52Z</time>
      </trkpt>
      <trkpt lat="49.86487" lon="2.43901">
        <ele>85.7</ele>
        <time>2024-01-24T13:56:53Z</time>
      </trkpt>
      <trkpt lat="49.86489" lon="2.43899">
        <ele>85.5</ele>
        <time>2024-01-24T13:56:54Z</time>
      </trkpt>
      <trkpt lat="49.8649" lon="2.43899">
        <ele>85.4</ele>
        <time>2024-01-24T13:56:55Z</time>
      </trkpt>
      <trkpt lat="49.86491" lon="2.43898">
        <ele>85.4</ele>
        <time>2024-01-24T13:56:56Z</time>
      </trkpt>
      <trkpt lat="49.86492" lon="2.43897">
        <ele>85.2</ele>
        <time>2024-01-24T13:56:57Z</time>
      </trkpt>
      <trkpt lat="49.86493" lon="2.43896">
        <ele>85.1</ele>
        <time>2024-01-24T13:56:58Z</time>
      </trkpt>
      <trkpt lat="49.86494" lon="2.43895">
        <ele>85</ele>
        <time>2024-01-24T13:57:00Z</time>
      </trkpt>
      <trkpt lat="49.86496" lon="2.43894">
        <ele>84.8</ele>
        <time>2024-01-24T13:57:01Z</time>
      </trkpt>
      <trkpt lat="49.86496" lon="2.43893">
        <ele>84.7</ele>
        <time>2024-01-24T13:57:02Z</time>
      </trkpt>
      <trkpt lat="49.86498" lon="2.43892">
        <ele>84.6</ele>
        <time>2024-01-24T13:57:04Z</time>
      </trkpt>
      <trkpt lat="49.86499" lon="2.43891">
        <ele>84.5</ele>
        <time>2024-01-24T13:57:05Z</time>
      </trkpt>
      <trkpt lat="49.865" lon="2.43889">
        <ele>84.4</ele>
        <time>2024-01-24T13:57:06Z</time>
      </trkpt>
      <trkpt lat="49.86501" lon="2.43888">
        <ele>84.3</ele>
        <time>2024-01-24T13:57:07Z</time>
      </trkpt>
      <trkpt lat="49.86502" lon="2.43888">
        <ele>84.2</ele>
        <time>2024-01-24T13:57:08Z</time>
      </trkpt>
      <trkpt lat="49.86504" lon="2.43887">
        <ele>84</ele>
        <time>2024-01-24T13:57:10Z</time>
      </trkpt>
      <trkpt lat="49.86505" lon="2.43886">
        <ele>83.9</ele>
        <time>2024-01-24T13:57:11Z</time>
      </trkpt>
      <trkpt lat="49.86506" lon="2.43885">
        <ele>83.8</ele>
        <time>2024-01-24T13:57:12Z</time>
      </trkpt>
      <trkpt lat="49.86507" lon="2.43885">
        <ele>83.7</ele>
        <time>2024-01-24T13:57:13Z</time>
      </trkpt>
      <trkpt lat="49.86508" lon="2.43884">
        <ele>83.6</ele>
        <time>2024-01-24T13:57:14Z</time>
      </trkpt>
      <trkpt lat="49.86509" lon="2.43883">
        <ele>83.5</ele>
        <time>2024-01-24T13:57:15Z</time>
      </trkpt>
      <trkpt lat="49.86511" lon="2.43882">
        <ele>83.4</ele>
        <time>2024-01-24T13:57:17Z</time>
      </trkpt>
      <trkpt lat="49.86512" lon="2.43882">
        <ele>83.2</ele>
        <time>2024-01-24T13:57:18Z</time>
      </trkpt>
      <trkpt lat="49.86513" lon="2.43881">
        <ele>83.1</ele>
        <time>2024-01-24T13:57:19Z</time>
      </trkpt>
      <trkpt lat="49.86515" lon="2.4388">
        <ele>82.9</ele>
        <time>2024-01-24T13:57:20Z</time>
      </trkpt>
      <trkpt lat="49.86516" lon="2.43879">
        <ele>82.7</ele>
        <time>2024-01-24T13:57:21Z</time>
      </trkpt>
      <trkpt lat="49.86518" lon="2.43878">
        <ele>82.5</ele>
        <time>2024-01-24T13:57:22Z</time>
      </trkpt>
      <trkpt lat="49.86519" lon="2.43878">
        <ele>82.4</ele>
        <time>2024-01-24T13:57:23Z</time>
      </trkpt>
      <trkpt lat="49.8652" lon="2.43878">
        <ele>82.3</ele>
        <time>2024-01-24T13:57:24Z</time>
      </trkpt>
      <trkpt lat="49.86521" lon="2.43877">
        <ele>82.1</ele>
        <time>2024-01-24T13:57:25Z</time>
      </trkpt>
      <trkpt lat="49.86522" lon="2.43877">
        <ele>82</ele>
        <time>2024-01-24T13:57:26Z</time>
      </trkpt>
      <trkpt lat="49.86524" lon="2.43876">
        <ele>81.8</ele>
        <time>2024-01-24T13:57:28Z</time>
      </trkpt>
      <trkpt lat="49.86526" lon="2.43875">
        <ele>81.5</ele>
        <time>2024-01-24T13:57:29Z</time>
      </trkpt>
      <trkpt lat="49.86527" lon="2.43875">
        <ele>81.4</ele>
        <time>2024-01-24T13:57:30Z</time>
      </trkpt>
      <trkpt lat="49.86527" lon="2.43875">
        <ele>81.3</ele>
        <time>2024-01-24T13:57:31Z</time>
      </trkpt>
      <trkpt lat="49.86529" lon="2.43874">
        <ele>81.2</ele>
        <time>2024-01-24T13:57:32Z</time>
      </trkpt>
      <trkpt lat="49.8653" lon="2.43874">
        <ele>81.1</ele>
        <time>2024-01-24T13:57:33Z</time>
      </trkpt>
      <trkpt lat="49.86531" lon="2.43873">
        <ele>81</ele>
        <time>2024-01-24T13:57:34Z</time>
      </trkpt>
      <trkpt lat="49.86533" lon="2.43872">
        <ele>80.7</ele>
        <time>2024-01-24T13:57:35Z</time>
      </trkpt>
      <trkpt lat="49.86534" lon="2.43872">
        <ele>80.7</ele>
        <time>2024-01-24T13:57:37Z</time>
      </trkpt>
      <trkpt lat="49.86535" lon="2.43871">
        <ele>80.6</ele>
        <time>2024-01-24T13:57:38Z</time>
      </trkpt>
      <trkpt lat="49.86536" lon="2.43871">
        <ele>80.4</ele>
        <time>2024-01-24T13:57:39Z</time>
      </trkpt>
      <trkpt lat="49.86537" lon="2.4387">
        <ele>80.3</ele>
        <time>2024-01-24T13:57:40Z</time>
      </trkpt>
      <trkpt lat="49.86538" lon="2.4387">
        <ele>80.2</ele>
        <time>2024-01-24T13:57:41Z</time>
      </trkpt>
      <trkpt lat="49.8654" lon="2.4387">
        <ele>80.1</ele>
        <time>2024-01-24T13:57:42Z</time>
      </trkpt>
      <trkpt lat="49.86541" lon="2.43869">
        <ele>80</ele>
        <time>2024-01-24T13:57:43Z</time>
      </trkpt>
      <trkpt lat="49.86543" lon="2.43869">
        <ele>79.8</ele>
        <time>2024-01-24T13:57:44Z</time>
      </trkpt>
      <trkpt lat="49.86544" lon="2.43868">
        <ele>79.7</ele>
        <time>2024-01-24T13:57:46Z</time>
      </trkpt>
      <trkpt lat="49.86544" lon="2.43868">
        <ele>79.6</ele>
        <time>2024-01-24T13:57:47Z</time>
      </trkpt>
      <trkpt lat="49.86546" lon="2.43868">
        <ele>79.5</ele>
        <time>2024-01-24T13:57:48Z</time>
      </trkpt>
      <trkpt lat="49.86547" lon="2.43868">
        <ele>79.4</ele>
        <time>2024-01-24T13:57:49Z</time>
      </trkpt>
      <trkpt lat="49.86549" lon="2.43867">
        <ele>79.2</ele>
        <time>2024-01-24T13:57:50Z</time>
      </trkpt>
      <trkpt lat="49.8655" lon="2.43867">
        <ele>79.1</ele>
        <time>2024-01-24T13:57:51Z</time>
      </trkpt>
      <trkpt lat="49.86552" lon="2.43867">
        <ele>78.9</ele>
        <time>2024-01-24T13:57:52Z</time>
      </trkpt>
      <trkpt lat="49.86553" lon="2.43867">
        <ele>78.8</ele>
        <time>2024-01-24T13:57:53Z</time>
      </trkpt>
      <trkpt lat="49.86554" lon="2.43866">
        <ele>78.7</ele>
        <time>2024-01-24T13:57:54Z</time>
      </trkpt>
      <trkpt lat="49.86556" lon="2.43866">
        <ele>78.6</ele>
        <time>2024-01-24T13:57:56Z</time>
      </trkpt>
      <trkpt lat="49.86557" lon="2.43865">
        <ele>78.5</ele>
        <time>2024-01-24T13:57:57Z</time>
      </trkpt>
      <trkpt lat="49.86559" lon="2.43865">
        <ele>78.3</ele>
        <time>2024-01-24T13:57:58Z</time>
      </trkpt>
      <trkpt lat="49.8656" lon="2.43864">
        <ele>78.2</ele>
        <time>2024-01-24T13:57:59Z</time>
      </trkpt>
      <trkpt lat="49.86561" lon="2.43864">
        <ele>78.1</ele>
        <time>2024-01-24T13:58:00Z</time>
      </trkpt>
      <trkpt lat="49.86562" lon="2.43864">
        <ele>78</ele>
        <time>2024-01-24T13:58:01Z</time>
      </trkpt>
      <trkpt lat="49.86563" lon="2.43863">
        <ele>77.9</ele>
        <time>2024-01-24T13:58:02Z</time>
      </trkpt>
      <trkpt lat="49.86564" lon="2.43863">
        <ele>77.8</ele>
        <time>2024-01-24T13:58:04Z</time>
      </trkpt>
      <trkpt lat="49.86566" lon="2.43863">
        <ele>77.7</ele>
        <time>2024-01-24T13:58:05Z</time>
      </trkpt>
      <trkpt lat="49.86567" lon="2.43862">
        <ele>77.6</ele>
        <time>2024-01-24T13:58:06Z</time>
      </trkpt>
      <trkpt lat="49.86568" lon="2.43862">
        <ele>77.5</ele>
        <time>2024-01-24T13:58:07Z</time>
      </trkpt>
      <trkpt lat="49.8657" lon="2.43862">
        <ele>77.4</ele>
        <time>2024-01-24T13:58:08Z</time>
      </trkpt>
      <trkpt lat="49.86571" lon="2.43862">
        <ele>77.3</ele>
        <time>2024-01-24T13:58:09Z</time>
      </trkpt>
      <trkpt lat="49.86572" lon="2.43861">
        <ele>77.2</ele>
        <time>2024-01-24T13:58:10Z</time>
      </trkpt>
      <trkpt lat="49.86573" lon="2.43861">
        <ele>77.1</ele>
        <time>2024-01-24T13:58:12Z</time>
      </trkpt>
      <trkpt lat="49.86575" lon="2.43861">
        <ele>77</ele>
        <time>2024-01-24T13:58:13Z</time>
      </trkpt>
      <trkpt lat="49.86576" lon="2.43861">
        <ele>76.9</ele>
        <time>2024-01-24T13:58:14Z</time>
      </trkpt>
      <trkpt lat="49.86577" lon="2.4386">
        <ele>76.8</ele>
        <time>2024-01-24T13:58:15Z</time>
      </trkpt>
      <trkpt lat="49.86578" lon="2.4386">
        <ele>76.7</ele>
        <time>2024-01-24T13:58:16Z</time>
      </trkpt>
      <trkpt lat="49.86579" lon="2.4386">
        <ele>76.6</ele>
        <time>2024-01-24T13:58:17Z</time>
      </trkpt>
      <trkpt lat="49.86582" lon="2.4386">
        <ele>76.4</ele>
        <time>2024-01-24T13:58:18Z</time>
      </trkpt>
      <trkpt lat="49.86582" lon="2.4386">
        <ele>76.3</ele>
        <time>2024-01-24T13:58:20Z</time>
      </trkpt>
      <trkpt lat="49.86583" lon="2.43859">
        <ele>76.3</ele>
        <time>2024-01-24T13:58:21Z</time>
      </trkpt>
      <trkpt lat="49.86585" lon="2.43859">
        <ele>76.1</ele>
        <time>2024-01-24T13:58:22Z</time>
      </trkpt>
      <trkpt lat="49.86586" lon="2.4386">
        <ele>76</ele>
        <time>2024-01-24T13:58:23Z</time>
      </trkpt>
      <trkpt lat="49.86588" lon="2.4386">
        <ele>75.9</ele>
        <time>2024-01-24T13:58:24Z</time>
      </trkpt>
      <trkpt lat="49.86589" lon="2.4386">
        <ele>75.8</ele>
        <time>2024-01-24T13:58:25Z</time>
      </trkpt>
      <trkpt lat="49.8659" lon="2.4386">
        <ele>75.7</ele>
        <time>2024-01-24T13:58:26Z</time>
      </trkpt>
      <trkpt lat="49.86591" lon="2.4386">
        <ele>75.6</ele>
        <time>2024-01-24T13:58:27Z</time>
      </trkpt>
      <trkpt lat="49.86593" lon="2.4386">
        <ele>75.4</ele>
        <time>2024-01-24T13:58:29Z</time>
      </trkpt>
      <trkpt lat="49.86594" lon="2.4386">
        <ele>75.3</ele>
        <time>2024-01-24T13:58:30Z</time>
      </trkpt>
      <trkpt lat="49.86596" lon="2.4386">
        <ele>75.2</ele>
        <time>2024-01-24T13:58:32Z</time>
      </trkpt>
      <trkpt lat="49.86598" lon="2.4386">
        <ele>75</ele>
        <time>2024-01-24T13:58:33Z</time>
      </trkpt>
      <trkpt lat="49.86599" lon="2.4386">
        <ele>74.9</ele>
        <time>2024-01-24T13:58:34Z</time>
      </trkpt>
      <trkpt lat="49.86601" lon="2.4386">
        <ele>74.8</ele>
        <time>2024-01-24T13:58:35Z</time>
      </trkpt>
      <trkpt lat="49.86602" lon="2.4386">
        <ele>74.6</ele>
        <time>2024-01-24T13:58:36Z</time>
      </trkpt>
      <trkpt lat="49.86604" lon="2.43859">
        <ele>74.5</ele>
        <time>2024-01-24T13:58:38Z</time>
      </trkpt>
      <trkpt lat="49.86605" lon="2.43859">
        <ele>74.4</ele>
        <time>2024-01-24T13:58:39Z</time>
      </trkpt>
      <trkpt lat="49.86606" lon="2.43859">
        <ele>74.3</ele>
        <time>2024-01-24T13:58:40Z</time>
      </trkpt>
      <trkpt lat="49.86608" lon="2.43859">
        <ele>74.1</ele>
        <time>2024-01-24T13:58:41Z</time>
      </trkpt>
      <trkpt lat="49.86609" lon="2.43859">
        <ele>74.1</ele>
        <time>2024-01-24T13:58:42Z</time>
      </trkpt>
      <trkpt lat="49.86609" lon="2.43859">
        <ele>74</ele>
        <time>2024-01-24T13:58:43Z</time>
      </trkpt>
      <trkpt lat="49.86612" lon="2.43859">
        <ele>73.8</ele>
        <time>2024-01-24T13:58:44Z</time>
      </trkpt>
      <trkpt lat="49.86612" lon="2.43859">
        <ele>73.7</ele>
        <time>2024-01-24T13:58:45Z</time>
      </trkpt>
      <trkpt lat="49.86613" lon="2.43859">
        <ele>73.7</ele>
        <time>2024-01-24T13:58:46Z</time>
      </trkpt>
      <trkpt lat="49.86615" lon="2.43859">
        <ele>73.5</ele>
        <time>2024-01-24T13:58:48Z</time>
      </trkpt>
      <trkpt lat="49.86616" lon="2.43859">
        <ele>73.5</ele>
        <time>2024-01-24T13:58:49Z</time>
      </trkpt>
      <trkpt lat="49.86617" lon="2.43859">
        <ele>73.4</ele>
        <time>2024-01-24T13:58:50Z</time>
      </trkpt>
      <trkpt lat="49.86619" lon="2.43859">
        <ele>73.2</ele>
        <time>2024-01-24T13:58:51Z</time>
      </trkpt>
      <trkpt lat="49.8662" lon="2.43858">
        <ele>73.1</ele>
        <time>2024-01-24T13:58:52Z</time>
      </trkpt>
      <trkpt lat="49.86621" lon="2.43858">
        <ele>73.1</ele>
        <time>2024-01-24T13:58:53Z</time>
      </trkpt>
      <trkpt lat="49.86622" lon="2.43858">
        <ele>73</ele>
        <time>2024-01-24T13:58:54Z</time>
      </trkpt>
      <trkpt lat="49.86623" lon="2.43857">
        <ele>72.8</ele>
        <time>2024-01-24T13:58:55Z</time>
      </trkpt>
      <trkpt lat="49.86625" lon="2.43857">
        <ele>72.7</ele>
        <time>2024-01-24T13:58:56Z</time>
      </trkpt>
      <trkpt lat="49.86626" lon="2.43856">
        <ele>72.6</ele>
        <time>2024-01-24T13:58:57Z</time>
      </trkpt>
      <trkpt lat="49.86627" lon="2.43856">
        <ele>72.5</ele>
        <time>2024-01-24T13:58:58Z</time>
      </trkpt>
      <trkpt lat="49.86629" lon="2.43855">
        <ele>72.4</ele>
        <time>2024-01-24T13:59:00Z</time>
      </trkpt>
      <trkpt lat="49.8663" lon="2.43855">
        <ele>72.3</ele>
        <time>2024-01-24T13:59:01Z</time>
      </trkpt>
      <trkpt lat="49.86631" lon="2.43855">
        <ele>72.2</ele>
        <time>2024-01-24T13:59:02Z</time>
      </trkpt>
      <trkpt lat="49.86633" lon="2.43854">
        <ele>72.1</ele>
        <time>2024-01-24T13:59:03Z</time>
      </trkpt>
      <trkpt lat="49.86634" lon="2.43854">
        <ele>72</ele>
        <time>2024-01-24T13:59:04Z</time>
      </trkpt>
      <trkpt lat="49.86634" lon="2.43853">
        <ele>71.9</ele>
        <time>2024-01-24T13:59:05Z</time>
      </trkpt>
      <trkpt lat="49.86636" lon="2.43853">
        <ele>71.8</ele>
        <time>2024-01-24T13:59:06Z</time>
      </trkpt>
      <trkpt lat="49.86637" lon="2.43852">
        <ele>71.7</ele>
        <time>2024-01-24T13:59:07Z</time>
      </trkpt>
      <trkpt lat="49.8664" lon="2.43852">
        <ele>71.5</ele>
        <time>2024-01-24T13:59:08Z</time>
      </trkpt>
      <trkpt lat="49.86641" lon="2.43851">
        <ele>71.4</ele>
        <time>2024-01-24T13:59:10Z</time>
      </trkpt>
      <trkpt lat="49.86642" lon="2.43851">
        <ele>71.3</ele>
        <time>2024-01-24T13:59:11Z</time>
      </trkpt>
      <trkpt lat="49.86643" lon="2.4385">
        <ele>71.2</ele>
        <time>2024-01-24T13:59:12Z</time>
      </trkpt>
      <trkpt lat="49.86644" lon="2.4385">
        <ele>71.1</ele>
        <time>2024-01-24T13:59:13Z</time>
      </trkpt>
      <trkpt lat="49.86645" lon="2.43849">
        <ele>71</ele>
        <time>2024-01-24T13:59:14Z</time>
      </trkpt>
      <trkpt lat="49.86647" lon="2.43849">
        <ele>70.8</ele>
        <time>2024-01-24T13:59:15Z</time>
      </trkpt>
      <trkpt lat="49.86648" lon="2.43848">
        <ele>70.7</ele>
        <time>2024-01-24T13:59:16Z</time>
      </trkpt>
      <trkpt lat="49.86649" lon="2.43848">
        <ele>70.6</ele>
        <time>2024-01-24T13:59:17Z</time>
      </trkpt>
      <trkpt lat="49.86651" lon="2.43847">
        <ele>70.4</ele>
        <time>2024-01-24T13:59:18Z</time>
      </trkpt>
      <trkpt lat="49.86652" lon="2.43847">
        <ele>70.4</ele>
        <time>2024-01-24T13:59:20Z</time>
      </trkpt>
      <trkpt lat="49.86653" lon="2.43847">
        <ele>70.3</ele>
        <time>2024-01-24T13:59:21Z</time>
      </trkpt>
      <trkpt lat="49.86655" lon="2.43846">
        <ele>70.1</ele>
        <time>2024-01-24T13:59:22Z</time>
      </trkpt>
      <trkpt lat="49.86656" lon="2.43846">
        <ele>70</ele>
        <time>2024-01-24T13:59:23Z</time>
      </trkpt>
      <trkpt lat="49.86657" lon="2.43846">
        <ele>70</ele>
        <time>2024-01-24T13:59:24Z</time>
      </trkpt>
      <trkpt lat="49.86659" lon="2.43846">
        <ele>69.8</ele>
        <time>2024-01-24T13:59:25Z</time>
      </trkpt>
      <trkpt lat="49.8666" lon="2.43846">
        <ele>69.7</ele>
        <time>2024-01-24T13:59:26Z</time>
      </trkpt>
      <trkpt lat="49.86661" lon="2.43845">
        <ele>69.7</ele>
        <time>2024-01-24T13:59:27Z</time>
      </trkpt>
      <trkpt lat="49.86662" lon="2.43845">
        <ele>69.6</ele>
        <time>2024-01-24T13:59:28Z</time>
      </trkpt>
      <trkpt lat="49.86663" lon="2.43845">
        <ele>69.5</ele>
        <time>2024-01-24T13:59:29Z</time>
      </trkpt>
      <trkpt lat="49.86665" lon="2.43844">
        <ele>69.3</ele>
        <time>2024-01-24T13:59:31Z</time>
      </trkpt>
      <trkpt lat="49.86666" lon="2.43844">
        <ele>69.2</ele>
        <time>2024-01-24T13:59:32Z</time>
      </trkpt>
      <trkpt lat="49.86667" lon="2.43844">
        <ele>69.2</ele>
        <time>2024-01-24T13:59:33Z</time>
      </trkpt>
      <trkpt lat="49.86669" lon="2.43843">
        <ele>69</ele>
        <time>2024-01-24T13:59:34Z</time>
      </trkpt>
      <trkpt lat="49.8667" lon="2.43842">
        <ele>68.9</ele>
        <time>2024-01-24T13:59:35Z</time>
      </trkpt>
      <trkpt lat="49.86671" lon="2.43842">
        <ele>68.9</ele>
        <time>2024-01-24T13:59:36Z</time>
      </trkpt>
      <trkpt lat="49.86673" lon="2.43841">
        <ele>68.7</ele>
        <time>2024-01-24T13:59:37Z</time>
      </trkpt>
      <trkpt lat="49.86674" lon="2.43841">
        <ele>68.7</ele>
        <time>2024-01-24T13:59:38Z</time>
      </trkpt>
      <trkpt lat="49.86674" lon="2.43841">
        <ele>68.6</ele>
        <time>2024-01-24T13:59:39Z</time>
      </trkpt>
      <trkpt lat="49.86676" lon="2.43841">
        <ele>68.4</ele>
        <time>2024-01-24T13:59:41Z</time>
      </trkpt>
      <trkpt lat="49.86677" lon="2.43841">
        <ele>68.4</ele>
        <time>2024-01-24T13:59:42Z</time>
      </trkpt>
      <trkpt lat="49.86678" lon="2.43841">
        <ele>68.3</ele>
        <time>2024-01-24T13:59:43Z</time>
      </trkpt>
      <trkpt lat="49.86679" lon="2.4384">
        <ele>68.2</ele>
        <time>2024-01-24T13:59:44Z</time>
      </trkpt>
      <trkpt lat="49.8668" lon="2.4384">
        <ele>68.1</ele>
        <time>2024-01-24T13:59:45Z</time>
      </trkpt>
      <trkpt lat="49.86681" lon="2.4384">
        <ele>68</ele>
        <time>2024-01-24T13:59:46Z</time>
      </trkpt>
      <trkpt lat="49.86682" lon="2.43839">
        <ele>68</ele>
        <time>2024-01-24T13:59:47Z</time>
      </trkpt>
      <trkpt lat="49.86683" lon="2.43839">
        <ele>67.8</ele>
        <time>2024-01-24T13:59:48Z</time>
      </trkpt>
      <trkpt lat="49.86685" lon="2.43839">
        <ele>67.7</ele>
        <time>2024-01-24T13:59:50Z</time>
      </trkpt>
      <trkpt lat="49.86686" lon="2.43838">
        <ele>67.6</ele>
        <time>2024-01-24T13:59:51Z</time>
      </trkpt>
      <trkpt lat="49.86687" lon="2.43838">
        <ele>67.5</ele>
        <time>2024-01-24T13:59:52Z</time>
      </trkpt>
      <trkpt lat="49.86688" lon="2.43838">
        <ele>67.4</ele>
        <time>2024-01-24T13:59:53Z</time>
      </trkpt>
      <trkpt lat="49.86689" lon="2.43838">
        <ele>67.3</ele>
        <time>2024-01-24T13:59:54Z</time>
      </trkpt>
      <trkpt lat="49.8669" lon="2.43837">
        <ele>67.2</ele>
        <time>2024-01-24T13:59:55Z</time>
      </trkpt>
      <trkpt lat="49.86691" lon="2.43837">
        <ele>67.1</ele>
        <time>2024-01-24T13:59:57Z</time>
      </trkpt>
      <trkpt lat="49.86692" lon="2.43837">
        <ele>67</ele>
        <time>2024-01-24T13:59:58Z</time>
      </trkpt>
      <trkpt lat="49.86692" lon="2.43836">
        <ele>66.9</ele>
        <time>2024-01-24T13:59:59Z</time>
      </trkpt>
      <trkpt lat="49.86693" lon="2.43836">
        <ele>66.9</ele>
        <time>2024-01-24T14:00:00Z</time>
      </trkpt>
      <trkpt lat="49.86694" lon="2.43836">
        <ele>66.8</ele>
        <time>2024-01-24T14:00:01Z</time>
      </trkpt>
      <trkpt lat="49.86695" lon="2.43836">
        <ele>66.6</ele>
        <time>2024-01-24T14:00:02Z</time>
      </trkpt>
      <trkpt lat="49.86696" lon="2.43836">
        <ele>66.5</ele>
        <time>2024-01-24T14:00:04Z</time>
      </trkpt>
      <trkpt lat="49.86697" lon="2.43836">
        <ele>66.4</ele>
        <time>2024-01-24T14:00:05Z</time>
      </trkpt>
      <trkpt lat="49.86699" lon="2.43836">
        <ele>66.2</ele>
        <time>2024-01-24T14:00:06Z</time>
      </trkpt>
      <trkpt lat="49.867" lon="2.43836">
        <ele>66.2</ele>
        <time>2024-01-24T14:00:07Z</time>
      </trkpt>
      <trkpt lat="49.867" lon="2.43836">
        <ele>66.1</ele>
        <time>2024-01-24T14:00:08Z</time>
      </trkpt>
      <trkpt lat="49.86701" lon="2.43836">
        <ele>66</ele>
        <time>2024-01-24T14:00:09Z</time>
      </trkpt>
      <trkpt lat="49.86701" lon="2.43836">
        <ele>66</ele>
        <time>2024-01-24T14:00:10Z</time>
      </trkpt>
      <trkpt lat="49.86703" lon="2.43836">
        <ele>65.9</ele>
        <time>2024-01-24T14:00:12Z</time>
      </trkpt>
      <trkpt lat="49.86704" lon="2.43836">
        <ele>65.8</ele>
        <time>2024-01-24T14:00:13Z</time>
      </trkpt>
      <trkpt lat="49.86704" lon="2.43836">
        <ele>65.7</ele>
        <time>2024-01-24T14:00:14Z</time>
      </trkpt>
      <trkpt lat="49.86704" lon="2.43836">
        <ele>65.7</ele>
        <time>2024-01-24T14:00:15Z</time>
      </trkpt>
      <trkpt lat="49.86704" lon="2.43837">
        <ele>65.7</ele>
        <time>2024-01-24T14:00:17Z</time>
      </trkpt>
      <trkpt lat="49.86704" lon="2.43837">
        <ele>65.7</ele>
        <time>2024-01-24T14:00:18Z</time>
      </trkpt>
      <trkpt lat="49.86704" lon="2.43837">
        <ele>65.6</ele>
        <time>2024-01-24T14:00:19Z</time>
      </trkpt>
      <trkpt lat="49.86704" lon="2.43837">
        <ele>65.6</ele>
        <time>2024-01-24T14:00:21Z</time>
      </trkpt>
      <trkpt lat="49.86704" lon="2.43837">
        <ele>65.6</ele>
        <time>2024-01-24T14:00:22Z</time>
      </trkpt>
      <trkpt lat="49.86704" lon="2.43837">
        <ele>65.6</ele>
        <time>2024-01-24T14:00:24Z</time>
      </trkpt>
      <trkpt lat="49.86704" lon="2.43837">
        <ele>65.6</ele>
        <time>2024-01-24T14:00:25Z</time>
      </trkpt>
      <trkpt lat="49.86704" lon="2.43837">
        <ele>65.6</ele>
        <time>2024-01-24T14:00:27Z</time>
      </trkpt>
      <trkpt lat="49.86704" lon="2.43837">
        <ele>65.6</ele>
        <time>2024-01-24T14:00:28Z</time>
      </trkpt>
      <trkpt lat="49.86704" lon="2.43837">
        <ele>65.6</ele>
        <time>2024-01-24T14:00:30Z</time>
      </trkpt>
      <trkpt lat="49.86704" lon="2.43837">
        <ele>65.6</ele>
        <time>2024-01-24T14:00:31Z</time>
      </trkpt>
      <trkpt lat="49.86703" lon="2.43837">
        <ele>65.6</ele>
        <time>2024-01-24T14:00:32Z</time>
      </trkpt>
      <trkpt lat="49.86703" lon="2.43837">
        <ele>65.6</ele>
        <time>2024-01-24T14:00:33Z</time>
      </trkpt>
      <trkpt lat="49.86703" lon="2.43837">
        <ele>65.6</ele>
        <time>2024-01-24T14:00:34Z</time>
      </trkpt>
      <trkpt lat="49.86703" lon="2.43837">
        <ele>65.6</ele>
        <time>2024-01-24T14:00:35Z</time>
      </trkpt>
      <trkpt lat="49.86706" lon="2.43832">
        <ele>65.7</ele>
        <time>2024-01-24T14:03:42Z</time>
      </trkpt>
      <trkpt lat="49.86706" lon="2.43832">
        <ele>65.7</ele>
        <time>2024-01-24T14:03:43Z</time>
      </trkpt>
      <trkpt lat="49.86707" lon="2.43832">
        <ele>65.7</ele>
        <time>2024-01-24T14:03:44Z</time>
      </trkpt>
      <trkpt lat="49.86707" lon="2.43832">
        <ele>65.7</ele>
        <time>2024-01-24T14:03:45Z</time>
      </trkpt>
      <trkpt lat="49.86707" lon="2.43832">
        <ele>65.7</ele>
        <time>2024-01-24T14:03:46Z</time>
      </trkpt>
      <trkpt lat="49.86707" lon="2.43832">
        <ele>65.7</ele>
        <time>2024-01-24T14:03:47Z</time>
      </trkpt>
      <trkpt lat="49.86707" lon="2.43832">
        <ele>65.7</ele>
        <time>2024-01-24T14:03:48Z</time>
      </trkpt>
      <trkpt lat="49.86707" lon="2.43832">
        <ele>65.7</ele>
        <time>2024-01-24T14:03:49Z</time>
      </trkpt>
      <trkpt lat="49.86707" lon="2.43832">
        <ele>65.7</ele>
        <time>2024-01-24T14:03:50Z</time>
      </trkpt>
      <trkpt lat="49.86707" lon="2.43832">
        <ele>65.7</ele>
        <time>2024-01-24T14:03:51Z</time>
      </trkpt>
      <trkpt lat="49.86707" lon="2.43832">
        <ele>65.7</ele>
        <time>2024-01-24T14:03:52Z</time>
      </trkpt>
      <trkpt lat="49.86707" lon="2.43832">
        <ele>65.7</ele>
        <time>2024-01-24T14:03:53Z</time>
      </trkpt>
      <trkpt lat="49.86707" lon="2.43832">
        <ele>65.7</ele>
        <time>2024-01-24T14:03:54Z</time>
      </trkpt>
      <trkpt lat="49.86707" lon="2.43832">
        <ele>65.7</ele>
        <time>2024-01-24T14:03:55Z</time>
      </trkpt>
      <trkpt lat="49.86709" lon="2.43835">
        <ele>65.7</ele>
        <time>2024-01-24T14:04:03Z</time>
      </trkpt>
      <trkpt lat="49.86709" lon="2.43835">
        <ele>65.7</ele>
        <time>2024-01-24T14:04:04Z</time>
      </trkpt>
      <trkpt lat="49.8671" lon="2.43836">
        <ele>65.7</ele>
        <time>2024-01-24T14:04:05Z</time>
      </trkpt>
      <trkpt lat="49.8671" lon="2.43836">
        <ele>65.7</ele>
        <time>2024-01-24T14:04:06Z</time>
      </trkpt>
      <trkpt lat="49.86711" lon="2.43837">
        <ele>65.7</ele>
        <time>2024-01-24T14:04:08Z</time>
      </trkpt>
      <trkpt lat="49.86711" lon="2.43838">
        <ele>65.7</ele>
        <time>2024-01-24T14:04:09Z</time>
      </trkpt>
      <trkpt lat="49.86712" lon="2.43839">
        <ele>65.7</ele>
        <time>2024-01-24T14:04:10Z</time>
      </trkpt>
      <trkpt lat="49.86712" lon="2.4384">
        <ele>65.8</ele>
        <time>2024-01-24T14:04:11Z</time>
      </trkpt>
      <trkpt lat="49.86712" lon="2.43841">
        <ele>65.8</ele>
        <time>2024-01-24T14:04:12Z</time>
      </trkpt>
      <trkpt lat="49.86712" lon="2.43842">
        <ele>65.8</ele>
        <time>2024-01-24T14:04:13Z</time>
      </trkpt>
      <trkpt lat="49.86713" lon="2.43844">
        <ele>65.8</ele>
        <time>2024-01-24T14:04:14Z</time>
      </trkpt>
      <trkpt lat="49.86714" lon="2.43845">
        <ele>65.8</ele>
        <time>2024-01-24T14:04:16Z</time>
      </trkpt>
      <trkpt lat="49.86714" lon="2.43847">
        <ele>65.8</ele>
        <time>2024-01-24T14:04:17Z</time>
      </trkpt>
      <trkpt lat="49.86716" lon="2.4385">
        <ele>65.8</ele>
        <time>2024-01-24T14:04:18Z</time>
      </trkpt>
      <trkpt lat="49.86716" lon="2.43851">
        <ele>65.8</ele>
        <time>2024-01-24T14:04:19Z</time>
      </trkpt>
      <trkpt lat="49.86716" lon="2.43852">
        <ele>65.8</ele>
        <time>2024-01-24T14:04:20Z</time>
      </trkpt>
      <trkpt lat="49.86718" lon="2.43854">
        <ele>65.9</ele>
        <time>2024-01-24T14:04:22Z</time>
      </trkpt>
      <trkpt lat="49.86718" lon="2.43856">
        <ele>65.9</ele>
        <time>2024-01-24T14:04:24Z</time>
      </trkpt>
      <trkpt lat="49.86719" lon="2.43857">
        <ele>65.9</ele>
        <time>2024-01-24T14:04:25Z</time>
      </trkpt>
      <trkpt lat="49.8672" lon="2.43859">
        <ele>65.9</ele>
        <time>2024-01-24T14:04:26Z</time>
      </trkpt>
      <trkpt lat="49.8672" lon="2.4386">
        <ele>65.9</ele>
        <time>2024-01-24T14:04:27Z</time>
      </trkpt>
      <trkpt lat="49.8672" lon="2.43861">
        <ele>65.9</ele>
        <time>2024-01-24T14:04:28Z</time>
      </trkpt>
      <trkpt lat="49.8672" lon="2.43863">
        <ele>65.9</ele>
        <time>2024-01-24T14:04:29Z</time>
      </trkpt>
      <trkpt lat="49.8672" lon="2.43864">
        <ele>65.9</ele>
        <time>2024-01-24T14:04:30Z</time>
      </trkpt>
      <trkpt lat="49.86721" lon="2.43865">
        <ele>65.9</ele>
        <time>2024-01-24T14:04:32Z</time>
      </trkpt>
      <trkpt lat="49.86721" lon="2.43867">
        <ele>65.9</ele>
        <time>2024-01-24T14:04:33Z</time>
      </trkpt>
      <trkpt lat="49.86721" lon="2.43868">
        <ele>65.9</ele>
        <time>2024-01-24T14:04:34Z</time>
      </trkpt>
      <trkpt lat="49.86721" lon="2.4387">
        <ele>65.9</ele>
        <time>2024-01-24T14:04:36Z</time>
      </trkpt>
      <trkpt lat="49.86721" lon="2.43871">
        <ele>65.9</ele>
        <time>2024-01-24T14:04:37Z</time>
      </trkpt>
      <trkpt lat="49.86722" lon="2.43873">
        <ele>65.9</ele>
        <time>2024-01-24T14:04:38Z</time>
      </trkpt>
      <trkpt lat="49.86722" lon="2.43874">
        <ele>65.9</ele>
        <time>2024-01-24T14:04:39Z</time>
      </trkpt>
      <trkpt lat="49.86723" lon="2.43877">
        <ele>65.9</ele>
        <time>2024-01-24T14:04:40Z</time>
      </trkpt>
      <trkpt lat="49.86723" lon="2.43878">
        <ele>65.9</ele>
        <time>2024-01-24T14:04:42Z</time>
      </trkpt>
      <trkpt lat="49.86723" lon="2.43879">
        <ele>65.9</ele>
        <time>2024-01-24T14:04:43Z</time>
      </trkpt>
      <trkpt lat="49.86724" lon="2.43881">
        <ele>65.9</ele>
        <time>2024-01-24T14:04:44Z</time>
      </trkpt>
      <trkpt lat="49.86724" lon="2.43883">
        <ele>65.9</ele>
        <time>2024-01-24T14:04:46Z</time>
      </trkpt>
      <trkpt lat="49.86724" lon="2.43885">
        <ele>65.9</ele>
        <time>2024-01-24T14:04:47Z</time>
      </trkpt>
      <trkpt lat="49.86725" lon="2.43886">
        <ele>65.9</ele>
        <time>2024-01-24T14:04:48Z</time>
      </trkpt>
      <trkpt lat="49.86725" lon="2.43888">
        <ele>65.9</ele>
        <time>2024-01-24T14:04:49Z</time>
      </trkpt>
      <trkpt lat="49.86725" lon="2.4389">
        <ele>65.9</ele>
        <time>2024-01-24T14:04:50Z</time>
      </trkpt>
      <trkpt lat="49.86726" lon="2.43893">
        <ele>65.9</ele>
        <time>2024-01-24T14:04:52Z</time>
      </trkpt>
      <trkpt lat="49.86726" lon="2.43894">
        <ele>65.8</ele>
        <time>2024-01-24T14:04:53Z</time>
      </trkpt>
      <trkpt lat="49.86726" lon="2.43896">
        <ele>65.8</ele>
        <time>2024-01-24T14:04:54Z</time>
      </trkpt>
      <trkpt lat="49.86726" lon="2.43898">
        <ele>65.8</ele>
        <time>2024-01-24T14:04:55Z</time>
      </trkpt>
      <trkpt lat="49.86727" lon="2.43899">
        <ele>65.8</ele>
        <time>2024-01-24T14:04:56Z</time>
      </trkpt>
      <trkpt lat="49.86727" lon="2.43901">
        <ele>65.8</ele>
        <time>2024-01-24T14:04:57Z</time>
      </trkpt>
      <trkpt lat="49.86728" lon="2.43903">
        <ele>65.7</ele>
        <time>2024-01-24T14:04:59Z</time>
      </trkpt>
      <trkpt lat="49.86728" lon="2.43905">
        <ele>65.7</ele>
        <time>2024-01-24T14:05:00Z</time>
      </trkpt>
      <trkpt lat="49.86729" lon="2.43907">
        <ele>65.7</ele>
        <time>2024-01-24T14:05:01Z</time>
      </trkpt>
      <trkpt lat="49.86729" lon="2.43909">
        <ele>65.7</ele>
        <time>2024-01-24T14:05:02Z</time>
      </trkpt>
      <trkpt lat="49.86729" lon="2.4391">
        <ele>65.6</ele>
        <time>2024-01-24T14:05:03Z</time>
      </trkpt>
      <trkpt lat="49.86729" lon="2.43914">
        <ele>65.6</ele>
        <time>2024-01-24T14:05:05Z</time>
      </trkpt>
      <trkpt lat="49.86729" lon="2.43916">
        <ele>65.6</ele>
        <time>2024-01-24T14:05:07Z</time>
      </trkpt>
      <trkpt lat="49.86729" lon="2.43917">
        <ele>65.5</ele>
        <time>2024-01-24T14:05:08Z</time>
      </trkpt>
      <trkpt lat="49.86729" lon="2.43919">
        <ele>65.5</ele>
        <time>2024-01-24T14:05:09Z</time>
      </trkpt>
      <trkpt lat="49.86729" lon="2.43921">
        <ele>65.5</ele>
        <time>2024-01-24T14:05:10Z</time>
      </trkpt>
      <trkpt lat="49.86729" lon="2.43922">
        <ele>65.5</ele>
        <time>2024-01-24T14:05:11Z</time>
      </trkpt>
      <trkpt lat="49.86729" lon="2.43924">
        <ele>65.4</ele>
        <time>2024-01-24T14:05:12Z</time>
      </trkpt>
      <trkpt lat="49.8673" lon="2.43927">
        <ele>65.4</ele>
        <time>2024-01-24T14:05:14Z</time>
      </trkpt>
      <trkpt lat="49.8673" lon="2.43929">
        <ele>65.4</ele>
        <time>2024-01-24T14:05:15Z</time>
      </trkpt>
      <trkpt lat="49.8673" lon="2.4393">
        <ele>65.4</ele>
        <time>2024-01-24T14:05:16Z</time>
      </trkpt>
      <trkpt lat="49.8673" lon="2.43932">
        <ele>65.3</ele>
        <time>2024-01-24T14:05:17Z</time>
      </trkpt>
      <trkpt lat="49.8673" lon="2.43933">
        <ele>65.3</ele>
        <time>2024-01-24T14:05:18Z</time>
      </trkpt>
      <trkpt lat="49.8673" lon="2.43935">
        <ele>65.3</ele>
        <time>2024-01-24T14:05:19Z</time>
      </trkpt>
      <trkpt lat="49.8673" lon="2.43937">
        <ele>65.3</ele>
        <time>2024-01-24T14:05:20Z</time>
      </trkpt>
      <trkpt lat="49.8673" lon="2.43939">
        <ele>65.2</ele>
        <time>2024-01-24T14:05:22Z</time>
      </trkpt>
      <trkpt lat="49.86731" lon="2.43941">
        <ele>65.2</ele>
        <time>2024-01-24T14:05:23Z</time>
      </trkpt>
      <trkpt lat="49.86731" lon="2.43942">
        <ele>65.2</ele>
        <time>2024-01-24T14:05:24Z</time>
      </trkpt>
      <trkpt lat="49.86731" lon="2.43944">
        <ele>65.2</ele>
        <time>2024-01-24T14:05:25Z</time>
      </trkpt>
      <trkpt lat="49.86731" lon="2.43946">
        <ele>65.1</ele>
        <time>2024-01-24T14:05:26Z</time>
      </trkpt>
      <trkpt lat="49.86731" lon="2.43948">
        <ele>65.1</ele>
        <time>2024-01-24T14:05:27Z</time>
      </trkpt>
      <trkpt lat="49.86731" lon="2.4395">
        <ele>65.1</ele>
        <time>2024-01-24T14:05:28Z</time>
      </trkpt>
      <trkpt lat="49.86731" lon="2.43952">
        <ele>65.1</ele>
        <time>2024-01-24T14:05:30Z</time>
      </trkpt>
      <trkpt lat="49.86731" lon="2.43953">
        <ele>65.1</ele>
        <time>2024-01-24T14:05:31Z</time>
      </trkpt>
      <trkpt lat="49.86731" lon="2.43955">
        <ele>65.1</ele>
        <time>2024-01-24T14:05:32Z</time>
      </trkpt>
      <trkpt lat="49.86731" lon="2.43957">
        <ele>65</ele>
        <time>2024-01-24T14:05:33Z</time>
      </trkpt>
      <trkpt lat="49.86731" lon="2.43958">
        <ele>65</ele>
        <time>2024-01-24T14:05:34Z</time>
      </trkpt>
      <trkpt lat="49.86732" lon="2.4396">
        <ele>65</ele>
        <time>2024-01-24T14:05:36Z</time>
      </trkpt>
      <trkpt lat="49.86732" lon="2.43962">
        <ele>65</ele>
        <time>2024-01-24T14:05:37Z</time>
      </trkpt>
      <trkpt lat="49.86733" lon="2.43965">
        <ele>65</ele>
        <time>2024-01-24T14:05:38Z</time>
      </trkpt>
      <trkpt lat="49.86733" lon="2.43966">
        <ele>65</ele>
        <time>2024-01-24T14:05:39Z</time>
      </trkpt>
      <trkpt lat="49.86733" lon="2.43967">
        <ele>64.9</ele>
        <time>2024-01-24T14:05:40Z</time>
      </trkpt>
      <trkpt lat="49.86734" lon="2.4397">
        <ele>64.9</ele>
        <time>2024-01-24T14:05:41Z</time>
      </trkpt>
      <trkpt lat="49.86735" lon="2.43972">
        <ele>64.9</ele>
        <time>2024-01-24T14:05:43Z</time>
      </trkpt>
      <trkpt lat="49.86735" lon="2.43973">
        <ele>64.9</ele>
        <time>2024-01-24T14:05:44Z</time>
      </trkpt>
      <trkpt lat="49.86736" lon="2.43976">
        <ele>64.9</ele>
        <time>2024-01-24T14:05:45Z</time>
      </trkpt>
      <trkpt lat="49.86736" lon="2.43977">
        <ele>64.9</ele>
        <time>2024-01-24T14:05:46Z</time>
      </trkpt>
      <trkpt lat="49.86736" lon="2.43978">
        <ele>64.9</ele>
        <time>2024-01-24T14:05:47Z</time>
      </trkpt>
      <trkpt lat="49.86736" lon="2.43981">
        <ele>64.9</ele>
        <time>2024-01-24T14:05:48Z</time>
      </trkpt>
      <trkpt lat="49.86736" lon="2.43982">
        <ele>64.9</ele>
        <time>2024-01-24T14:05:50Z</time>
      </trkpt>
      <trkpt lat="49.86736" lon="2.43984">
        <ele>64.8</ele>
        <time>2024-01-24T14:05:51Z</time>
      </trkpt>
      <trkpt lat="49.86736" lon="2.43985">
        <ele>64.8</ele>
        <time>2024-01-24T14:05:52Z</time>
      </trkpt>
      <trkpt lat="49.86736" lon="2.43986">
        <ele>64.8</ele>
        <time>2024-01-24T14:05:53Z</time>
      </trkpt>
      <trkpt lat="49.86737" lon="2.43988">
        <ele>64.8</ele>
        <time>2024-01-24T14:05:54Z</time>
      </trkpt>
      <trkpt lat="49.86737" lon="2.4399">
        <ele>64.8</ele>
        <time>2024-01-24T14:05:55Z</time>
      </trkpt>
      <trkpt lat="49.86737" lon="2.43991">
        <ele>64.8</ele>
        <time>2024-01-24T14:05:57Z</time>
      </trkpt>
      <trkpt lat="49.86737" lon="2.43993">
        <ele>64.8</ele>
        <time>2024-01-24T14:05:58Z</time>
      </trkpt>
      <trkpt lat="49.86738" lon="2.43995">
        <ele>64.8</ele>
        <time>2024-01-24T14:05:59Z</time>
      </trkpt>
      <trkpt lat="49.86738" lon="2.43996">
        <ele>64.8</ele>
        <time>2024-01-24T14:06:00Z</time>
      </trkpt>
      <trkpt lat="49.86738" lon="2.43998">
        <ele>64.8</ele>
        <time>2024-01-24T14:06:01Z</time>
      </trkpt>
      <trkpt lat="49.86738" lon="2.43999">
        <ele>64.8</ele>
        <time>2024-01-24T14:06:02Z</time>
      </trkpt>
      <trkpt lat="49.86739" lon="2.44001">
        <ele>64.8</ele>
        <time>2024-01-24T14:06:03Z</time>
      </trkpt>
      <trkpt lat="49.86739" lon="2.44003">
        <ele>64.8</ele>
        <time>2024-01-24T14:06:05Z</time>
      </trkpt>
      <trkpt lat="49.8674" lon="2.44005">
        <ele>64.8</ele>
        <time>2024-01-24T14:06:06Z</time>
      </trkpt>
      <trkpt lat="49.8674" lon="2.44006">
        <ele>64.8</ele>
        <time>2024-01-24T14:06:07Z</time>
      </trkpt>
      <trkpt lat="49.8674" lon="2.44008">
        <ele>64.8</ele>
        <time>2024-01-24T14:06:08Z</time>
      </trkpt>
      <trkpt lat="49.8674" lon="2.44009">
        <ele>64.8</ele>
        <time>2024-01-24T14:06:09Z</time>
      </trkpt>
      <trkpt lat="49.8674" lon="2.44011">
        <ele>64.8</ele>
        <time>2024-01-24T14:06:10Z</time>
      </trkpt>
      <trkpt lat="49.86741" lon="2.44013">
        <ele>64.8</ele>
        <time>2024-01-24T14:06:11Z</time>
      </trkpt>
      <trkpt lat="49.86741" lon="2.44016">
        <ele>64.8</ele>
        <time>2024-01-24T14:06:13Z</time>
      </trkpt>
      <trkpt lat="49.86742" lon="2.44017">
        <ele>64.8</ele>
        <time>2024-01-24T14:06:14Z</time>
      </trkpt>
      <trkpt lat="49.86742" lon="2.44018">
        <ele>64.8</ele>
        <time>2024-01-24T14:06:15Z</time>
      </trkpt>
      <trkpt lat="49.86742" lon="2.4402">
        <ele>64.8</ele>
        <time>2024-01-24T14:06:16Z</time>
      </trkpt>
      <trkpt lat="49.86743" lon="2.44022">
        <ele>64.8</ele>
        <time>2024-01-24T14:06:17Z</time>
      </trkpt>
      <trkpt lat="49.86743" lon="2.44024">
        <ele>64.7</ele>
        <time>2024-01-24T14:06:19Z</time>
      </trkpt>
      <trkpt lat="49.86743" lon="2.44027">
        <ele>64.7</ele>
        <time>2024-01-24T14:06:20Z</time>
      </trkpt>
      <trkpt lat="49.86744" lon="2.44029">
        <ele>64.7</ele>
        <time>2024-01-24T14:06:21Z</time>
      </trkpt>
      <trkpt lat="49.86744" lon="2.4403">
        <ele>64.7</ele>
        <time>2024-01-24T14:06:22Z</time>
      </trkpt>
      <trkpt lat="49.86744" lon="2.44032">
        <ele>64.7</ele>
        <time>2024-01-24T14:06:23Z</time>
      </trkpt>
      <trkpt lat="49.86744" lon="2.44034">
        <ele>64.7</ele>
        <time>2024-01-24T14:06:24Z</time>
      </trkpt>
      <trkpt lat="49.86743" lon="2.44037">
        <ele>64.7</ele>
        <time>2024-01-24T14:06:26Z</time>
      </trkpt>
      <trkpt lat="49.86743" lon="2.44039">
        <ele>64.7</ele>
        <time>2024-01-24T14:06:28Z</time>
      </trkpt>
      <trkpt lat="49.86742" lon="2.44041">
        <ele>64.7</ele>
        <time>2024-01-24T14:06:29Z</time>
      </trkpt>
      <trkpt lat="49.86743" lon="2.44043">
        <ele>64.7</ele>
        <time>2024-01-24T14:06:31Z</time>
      </trkpt>
      <trkpt lat="49.86743" lon="2.44044">
        <ele>64.7</ele>
        <time>2024-01-24T14:06:32Z</time>
      </trkpt>
      <trkpt lat="49.86743" lon="2.44045">
        <ele>64.7</ele>
        <time>2024-01-24T14:06:33Z</time>
      </trkpt>
      <trkpt lat="49.86743" lon="2.44047">
        <ele>64.7</ele>
        <time>2024-01-24T14:06:34Z</time>
      </trkpt>
      <trkpt lat="49.86744" lon="2.44048">
        <ele>64.7</ele>
        <time>2024-01-24T14:06:36Z</time>
      </trkpt>
      <trkpt lat="49.86744" lon="2.44049">
        <ele>64.7</ele>
        <time>2024-01-24T14:06:37Z</time>
      </trkpt>
      <trkpt lat="49.86744" lon="2.44051">
        <ele>64.7</ele>
        <time>2024-01-24T14:06:38Z</time>
      </trkpt>
      <trkpt lat="49.86744" lon="2.44052">
        <ele>64.7</ele>
        <time>2024-01-24T14:06:39Z</time>
      </trkpt>
      <trkpt lat="49.86744" lon="2.44053">
        <ele>64.7</ele>
        <time>2024-01-24T14:06:40Z</time>
      </trkpt>
      <trkpt lat="49.86744" lon="2.44054">
        <ele>64.7</ele>
        <time>2024-01-24T14:06:41Z</time>
      </trkpt>
      <trkpt lat="49.86745" lon="2.44055">
        <ele>64.7</ele>
        <time>2024-01-24T14:06:42Z</time>
      </trkpt>
      <trkpt lat="49.86745" lon="2.44056">
        <ele>64.7</ele>
        <time>2024-01-24T14:06:44Z</time>
      </trkpt>
      <trkpt lat="49.86745" lon="2.44058">
        <ele>64.7</ele>
        <time>2024-01-24T14:06:45Z</time>
      </trkpt>
      <trkpt lat="49.86746" lon="2.44059">
        <ele>64.7</ele>
        <time>2024-01-24T14:06:46Z</time>
      </trkpt>
      <trkpt lat="49.86746" lon="2.4406">
        <ele>64.7</ele>
        <time>2024-01-24T14:06:47Z</time>
      </trkpt>
      <trkpt lat="49.86746" lon="2.44061">
        <ele>64.7</ele>
        <time>2024-01-24T14:06:48Z</time>
      </trkpt>
      <trkpt lat="49.86747" lon="2.44063">
        <ele>64.7</ele>
        <time>2024-01-24T14:06:49Z</time>
      </trkpt>
      <trkpt lat="49.86747" lon="2.44064">
        <ele>64.7</ele>
        <time>2024-01-24T14:06:51Z</time>
      </trkpt>
      <trkpt lat="49.86747" lon="2.44066">
        <ele>64.7</ele>
        <time>2024-01-24T14:06:52Z</time>
      </trkpt>
      <trkpt lat="49.86747" lon="2.44068">
        <ele>64.7</ele>
        <time>2024-01-24T14:06:53Z</time>
      </trkpt>
      <trkpt lat="49.86747" lon="2.44069">
        <ele>64.7</ele>
        <time>2024-01-24T14:06:54Z</time>
      </trkpt>
      <trkpt lat="49.86748" lon="2.44071">
        <ele>64.7</ele>
        <time>2024-01-24T14:06:55Z</time>
      </trkpt>
      <trkpt lat="49.86748" lon="2.44073">
        <ele>64.7</ele>
        <time>2024-01-24T14:06:56Z</time>
      </trkpt>
      <trkpt lat="49.86748" lon="2.44075">
        <ele>64.7</ele>
        <time>2024-01-24T14:06:57Z</time>
      </trkpt>
      <trkpt lat="49.86748" lon="2.44077">
        <ele>64.7</ele>
        <time>2024-01-24T14:06:59Z</time>
      </trkpt>
      <trkpt lat="49.86749" lon="2.4408">
        <ele>64.7</ele>
        <time>2024-01-24T14:07:00Z</time>
      </trkpt>
      <trkpt lat="49.86749" lon="2.44081">
        <ele>64.7</ele>
        <time>2024-01-24T14:07:01Z</time>
      </trkpt>
      <trkpt lat="49.86749" lon="2.44083">
        <ele>64.7</ele>
        <time>2024-01-24T14:07:02Z</time>
      </trkpt>
      <trkpt lat="49.8675" lon="2.44085">
        <ele>64.7</ele>
        <time>2024-01-24T14:07:03Z</time>
      </trkpt>
      <trkpt lat="49.8675" lon="2.44087">
        <ele>64.7</ele>
        <time>2024-01-24T14:07:04Z</time>
      </trkpt>
      <trkpt lat="49.86751" lon="2.44089">
        <ele>64.7</ele>
        <time>2024-01-24T14:07:06Z</time>
      </trkpt>
      <trkpt lat="49.86751" lon="2.44091">
        <ele>64.7</ele>
        <time>2024-01-24T14:07:07Z</time>
      </trkpt>
      <trkpt lat="49.86751" lon="2.44094">
        <ele>64.7</ele>
        <time>2024-01-24T14:07:08Z</time>
      </trkpt>
      <trkpt lat="49.86752" lon="2.44096">
        <ele>64.7</ele>
        <time>2024-01-24T14:07:09Z</time>
      </trkpt>
      <trkpt lat="49.86752" lon="2.44097">
        <ele>64.7</ele>
        <time>2024-01-24T14:07:10Z</time>
      </trkpt>
      <trkpt lat="49.86752" lon="2.44101">
        <ele>64.7</ele>
        <time>2024-01-24T14:07:11Z</time>
      </trkpt>
      <trkpt lat="49.86753" lon="2.44103">
        <ele>64.7</ele>
        <time>2024-01-24T14:07:13Z</time>
      </trkpt>
      <trkpt lat="49.86753" lon="2.44104">
        <ele>64.7</ele>
        <time>2024-01-24T14:07:14Z</time>
      </trkpt>
      <trkpt lat="49.86753" lon="2.44106">
        <ele>64.7</ele>
        <time>2024-01-24T14:07:15Z</time>
      </trkpt>
      <trkpt lat="49.86753" lon="2.44108">
        <ele>64.7</ele>
        <time>2024-01-24T14:07:16Z</time>
      </trkpt>
      <trkpt lat="49.86754" lon="2.44112">
        <ele>64.7</ele>
        <time>2024-01-24T14:07:17Z</time>
      </trkpt>
      <trkpt lat="49.86754" lon="2.44113">
        <ele>64.7</ele>
        <time>2024-01-24T14:07:19Z</time>
      </trkpt>
      <trkpt lat="49.86755" lon="2.44115">
        <ele>64.7</ele>
        <time>2024-01-24T14:07:20Z</time>
      </trkpt>
      <trkpt lat="49.86755" lon="2.44116">
        <ele>64.7</ele>
        <time>2024-01-24T14:07:21Z</time>
      </trkpt>
      <trkpt lat="49.86756" lon="2.44118">
        <ele>64.7</ele>
        <time>2024-01-24T14:07:22Z</time>
      </trkpt>
      <trkpt lat="49.86756" lon="2.44121">
        <ele>64.7</ele>
        <time>2024-01-24T14:07:23Z</time>
      </trkpt>
      <trkpt lat="49.86757" lon="2.44122">
        <ele>64.7</ele>
        <time>2024-01-24T14:07:24Z</time>
      </trkpt>
      <trkpt lat="49.86757" lon="2.44123">
        <ele>64.7</ele>
        <time>2024-01-24T14:07:25Z</time>
      </trkpt>
      <trkpt lat="49.86757" lon="2.44127">
        <ele>64.7</ele>
        <time>2024-01-24T14:07:26Z</time>
      </trkpt>
      <trkpt lat="49.86757" lon="2.44128">
        <ele>64.6</ele>
        <time>2024-01-24T14:07:28Z</time>
      </trkpt>
      <trkpt lat="49.86757" lon="2.4413">
        <ele>64.6</ele>
        <time>2024-01-24T14:07:29Z</time>
      </trkpt>
      <trkpt lat="49.86757" lon="2.44133">
        <ele>64.6</ele>
        <time>2024-01-24T14:07:30Z</time>
      </trkpt>
      <trkpt lat="49.86757" lon="2.44134">
        <ele>64.6</ele>
        <time>2024-01-24T14:07:31Z</time>
      </trkpt>
      <trkpt lat="49.86757" lon="2.44136">
        <ele>64.6</ele>
        <time>2024-01-24T14:07:32Z</time>
      </trkpt>
      <trkpt lat="49.86757" lon="2.44138">
        <ele>64.6</ele>
        <time>2024-01-24T14:07:33Z</time>
      </trkpt>
      <trkpt lat="49.86758" lon="2.44139">
        <ele>64.6</ele>
        <time>2024-01-24T14:07:34Z</time>
      </trkpt>
      <trkpt lat="49.86758" lon="2.44141">
        <ele>64.6</ele>
        <time>2024-01-24T14:07:35Z</time>
      </trkpt>
      <trkpt lat="49.86759" lon="2.44144">
        <ele>64.6</ele>
        <time>2024-01-24T14:07:36Z</time>
      </trkpt>
      <trkpt lat="49.86759" lon="2.44145">
        <ele>64.6</ele>
        <time>2024-01-24T14:07:38Z</time>
      </trkpt>
      <trkpt lat="49.86759" lon="2.44147">
        <ele>64.6</ele>
        <time>2024-01-24T14:07:39Z</time>
      </trkpt>
      <trkpt lat="49.8676" lon="2.4415">
        <ele>64.5</ele>
        <time>2024-01-24T14:07:40Z</time>
      </trkpt>
      <trkpt lat="49.8676" lon="2.44151">
        <ele>64.5</ele>
        <time>2024-01-24T14:07:41Z</time>
      </trkpt>
      <trkpt lat="49.8676" lon="2.44152">
        <ele>64.5</ele>
        <time>2024-01-24T14:07:42Z</time>
      </trkpt>
      <trkpt lat="49.86761" lon="2.44154">
        <ele>64.5</ele>
        <time>2024-01-24T14:07:43Z</time>
      </trkpt>
      <trkpt lat="49.86761" lon="2.44156">
        <ele>64.5</ele>
        <time>2024-01-24T14:07:44Z</time>
      </trkpt>
      <trkpt lat="49.86761" lon="2.44158">
        <ele>64.5</ele>
        <time>2024-01-24T14:07:46Z</time>
      </trkpt>
      <trkpt lat="49.86762" lon="2.4416">
        <ele>64.5</ele>
        <time>2024-01-24T14:07:47Z</time>
      </trkpt>
      <trkpt lat="49.86762" lon="2.44161">
        <ele>64.5</ele>
        <time>2024-01-24T14:07:48Z</time>
      </trkpt>
      <trkpt lat="49.86762" lon="2.44163">
        <ele>64.5</ele>
        <time>2024-01-24T14:07:49Z</time>
      </trkpt>
      <trkpt lat="49.86763" lon="2.44166">
        <ele>64.5</ele>
        <time>2024-01-24T14:07:50Z</time>
      </trkpt>
      <trkpt lat="49.86763" lon="2.44167">
        <ele>64.5</ele>
        <time>2024-01-24T14:07:51Z</time>
      </trkpt>
      <trkpt lat="49.86764" lon="2.44168">
        <ele>64.5</ele>
        <time>2024-01-24T14:07:52Z</time>
      </trkpt>
      <trkpt lat="49.86764" lon="2.44171">
        <ele>64.5</ele>
        <time>2024-01-24T14:07:53Z</time>
      </trkpt>
      <trkpt lat="49.86764" lon="2.44173">
        <ele>64.5</ele>
        <time>2024-01-24T14:07:54Z</time>
      </trkpt>
      <trkpt lat="49.86765" lon="2.44175">
        <ele>64.5</ele>
        <time>2024-01-24T14:07:56Z</time>
      </trkpt>
      <trkpt lat="49.86765" lon="2.44178">
        <ele>64.4</ele>
        <time>2024-01-24T14:07:57Z</time>
      </trkpt>
      <trkpt lat="49.86765" lon="2.44179">
        <ele>64.4</ele>
        <time>2024-01-24T14:07:58Z</time>
      </trkpt>
      <trkpt lat="49.86766" lon="2.4418">
        <ele>64.4</ele>
        <time>2024-01-24T14:07:59Z</time>
      </trkpt>
      <trkpt lat="49.86766" lon="2.44182">
        <ele>64.4</ele>
        <time>2024-01-24T14:08:00Z</time>
      </trkpt>
      <trkpt lat="49.86766" lon="2.44184">
        <ele>64.4</ele>
        <time>2024-01-24T14:08:01Z</time>
      </trkpt>
      <trkpt lat="49.86767" lon="2.44186">
        <ele>64.4</ele>
        <time>2024-01-24T14:08:02Z</time>
      </trkpt>
      <trkpt lat="49.86767" lon="2.44188">
        <ele>64.4</ele>
        <time>2024-01-24T14:08:03Z</time>
      </trkpt>
      <trkpt lat="49.86767" lon="2.44192">
        <ele>64.4</ele>
        <time>2024-01-24T14:08:04Z</time>
      </trkpt>
      <trkpt lat="49.86768" lon="2.44194">
        <ele>64.4</ele>
        <time>2024-01-24T14:08:06Z</time>
      </trkpt>
      <trkpt lat="49.86768" lon="2.44195">
        <ele>64.4</ele>
        <time>2024-01-24T14:08:07Z</time>
      </trkpt>
      <trkpt lat="49.86768" lon="2.44197">
        <ele>64.4</ele>
        <time>2024-01-24T14:08:08Z</time>
      </trkpt>
      <trkpt lat="49.86768" lon="2.44198">
        <ele>64.4</ele>
        <time>2024-01-24T14:08:09Z</time>
      </trkpt>
      <trkpt lat="49.86768" lon="2.44201">
        <ele>64.4</ele>
        <time>2024-01-24T14:08:10Z</time>
      </trkpt>
      <trkpt lat="49.86769" lon="2.44203">
        <ele>64.4</ele>
        <time>2024-01-24T14:08:11Z</time>
      </trkpt>
      <trkpt lat="49.86769" lon="2.44204">
        <ele>64.4</ele>
        <time>2024-01-24T14:08:12Z</time>
      </trkpt>
      <trkpt lat="49.86769" lon="2.44206">
        <ele>64.4</ele>
        <time>2024-01-24T14:08:13Z</time>
      </trkpt>
      <trkpt lat="49.8677" lon="2.44208">
        <ele>64.4</ele>
        <time>2024-01-24T14:08:14Z</time>
      </trkpt>
      <trkpt lat="49.8677" lon="2.44211">
        <ele>64.3</ele>
        <time>2024-01-24T14:08:16Z</time>
      </trkpt>
      <trkpt lat="49.86771" lon="2.44212">
        <ele>64.3</ele>
        <time>2024-01-24T14:08:17Z</time>
      </trkpt>
      <trkpt lat="49.86771" lon="2.44213">
        <ele>64.3</ele>
        <time>2024-01-24T14:08:18Z</time>
      </trkpt>
      <trkpt lat="49.86772" lon="2.44216">
        <ele>64.3</ele>
        <time>2024-01-24T14:08:19Z</time>
      </trkpt>
      <trkpt lat="49.86772" lon="2.44218">
        <ele>64.3</ele>
        <time>2024-01-24T14:08:20Z</time>
      </trkpt>
      <trkpt lat="49.86772" lon="2.44219">
        <ele>64.3</ele>
        <time>2024-01-24T14:08:21Z</time>
      </trkpt>
      <trkpt lat="49.86773" lon="2.44222">
        <ele>64.3</ele>
        <time>2024-01-24T14:08:22Z</time>
      </trkpt>
      <trkpt lat="49.86773" lon="2.44224">
        <ele>64.3</ele>
        <time>2024-01-24T14:08:24Z</time>
      </trkpt>
      <trkpt lat="49.86773" lon="2.44226">
        <ele>64.3</ele>
        <time>2024-01-24T14:08:25Z</time>
      </trkpt>
      <trkpt lat="49.86773" lon="2.44227">
        <ele>64.3</ele>
        <time>2024-01-24T14:08:26Z</time>
      </trkpt>
      <trkpt lat="49.86773" lon="2.44229">
        <ele>64.3</ele>
        <time>2024-01-24T14:08:27Z</time>
      </trkpt>
      <trkpt lat="49.86773" lon="2.44232">
        <ele>64.3</ele>
        <time>2024-01-24T14:08:28Z</time>
      </trkpt>
      <trkpt lat="49.86773" lon="2.44234">
        <ele>64.3</ele>
        <time>2024-01-24T14:08:29Z</time>
      </trkpt>
      <trkpt lat="49.86773" lon="2.44235">
        <ele>64.3</ele>
        <time>2024-01-24T14:08:30Z</time>
      </trkpt>
      <trkpt lat="49.86773" lon="2.44237">
        <ele>64.3</ele>
        <time>2024-01-24T14:08:31Z</time>
      </trkpt>
      <trkpt lat="49.86773" lon="2.44239">
        <ele>64.2</ele>
        <time>2024-01-24T14:08:32Z</time>
      </trkpt>
      <trkpt lat="49.86774" lon="2.44242">
        <ele>64.2</ele>
        <time>2024-01-24T14:08:34Z</time>
      </trkpt>
      <trkpt lat="49.86774" lon="2.44244">
        <ele>64.2</ele>
        <time>2024-01-24T14:08:35Z</time>
      </trkpt>
      <trkpt lat="49.86774" lon="2.44245">
        <ele>64.2</ele>
        <time>2024-01-24T14:08:36Z</time>
      </trkpt>
      <trkpt lat="49.86774" lon="2.44247">
        <ele>64.2</ele>
        <time>2024-01-24T14:08:37Z</time>
      </trkpt>
      <trkpt lat="49.86774" lon="2.44249">
        <ele>64.2</ele>
        <time>2024-01-24T14:08:38Z</time>
      </trkpt>
      <trkpt lat="49.86774" lon="2.44251">
        <ele>64.2</ele>
        <time>2024-01-24T14:08:39Z</time>
      </trkpt>
      <trkpt lat="49.86774" lon="2.44252">
        <ele>64.2</ele>
        <time>2024-01-24T14:08:40Z</time>
      </trkpt>
      <trkpt lat="49.86774" lon="2.44254">
        <ele>64.2</ele>
        <time>2024-01-24T14:08:41Z</time>
      </trkpt>
      <trkpt lat="49.86774" lon="2.44256">
        <ele>64.2</ele>
        <time>2024-01-24T14:08:43Z</time>
      </trkpt>
      <trkpt lat="49.86774" lon="2.44259">
        <ele>64.2</ele>
        <time>2024-01-24T14:08:44Z</time>
      </trkpt>
      <trkpt lat="49.86774" lon="2.44261">
        <ele>64.2</ele>
        <time>2024-01-24T14:08:45Z</time>
      </trkpt>
      <trkpt lat="49.86774" lon="2.44262">
        <ele>64.2</ele>
        <time>2024-01-24T14:08:46Z</time>
      </trkpt>
      <trkpt lat="49.86775" lon="2.44264">
        <ele>64.1</ele>
        <time>2024-01-24T14:08:47Z</time>
      </trkpt>
      <trkpt lat="49.86775" lon="2.44265">
        <ele>64.1</ele>
        <time>2024-01-24T14:08:48Z</time>
      </trkpt>
      <trkpt lat="49.86775" lon="2.44267">
        <ele>64.1</ele>
        <time>2024-01-24T14:08:49Z</time>
      </trkpt>
      <trkpt lat="49.86775" lon="2.44269">
        <ele>64.1</ele>
        <time>2024-01-24T14:08:51Z</time>
      </trkpt>
      <trkpt lat="49.86776" lon="2.44271">
        <ele>64.1</ele>
        <time>2024-01-24T14:08:52Z</time>
      </trkpt>
      <trkpt lat="49.86776" lon="2.44273">
        <ele>64.1</ele>
        <time>2024-01-24T14:08:53Z</time>
      </trkpt>
      <trkpt lat="49.86776" lon="2.44274">
        <ele>64.1</ele>
        <time>2024-01-24T14:08:54Z</time>
      </trkpt>
      <trkpt lat="49.86776" lon="2.44276">
        <ele>64.1</ele>
        <time>2024-01-24T14:08:55Z</time>
      </trkpt>
      <trkpt lat="49.86776" lon="2.44277">
        <ele>64.1</ele>
        <time>2024-01-24T14:08:56Z</time>
      </trkpt>
      <trkpt lat="49.86776" lon="2.4428">
        <ele>64.1</ele>
        <time>2024-01-24T14:08:58Z</time>
      </trkpt>
      <trkpt lat="49.86776" lon="2.44282">
        <ele>64.1</ele>
        <time>2024-01-24T14:08:59Z</time>
      </trkpt>
      <trkpt lat="49.86776" lon="2.44284">
        <ele>64.1</ele>
        <time>2024-01-24T14:09:00Z</time>
      </trkpt>
      <trkpt lat="49.86776" lon="2.44286">
        <ele>64</ele>
        <time>2024-01-24T14:09:01Z</time>
      </trkpt>
      <trkpt lat="49.86776" lon="2.44288">
        <ele>64</ele>
        <time>2024-01-24T14:09:02Z</time>
      </trkpt>
      <trkpt lat="49.86775" lon="2.4429">
        <ele>64</ele>
        <time>2024-01-24T14:09:03Z</time>
      </trkpt>
      <trkpt lat="49.86775" lon="2.44292">
        <ele>64</ele>
        <time>2024-01-24T14:09:05Z</time>
      </trkpt>
      <trkpt lat="49.86775" lon="2.44294">
        <ele>64</ele>
        <time>2024-01-24T14:09:06Z</time>
      </trkpt>
      <trkpt lat="49.86775" lon="2.44295">
        <ele>64</ele>
        <time>2024-01-24T14:09:07Z</time>
      </trkpt>
      <trkpt lat="49.86775" lon="2.44297">
        <ele>64</ele>
        <time>2024-01-24T14:09:08Z</time>
      </trkpt>
      <trkpt lat="49.86775" lon="2.44299">
        <ele>63.9</ele>
        <time>2024-01-24T14:09:09Z</time>
      </trkpt>
      <trkpt lat="49.86775" lon="2.443">
        <ele>63.9</ele>
        <time>2024-01-24T14:09:10Z</time>
      </trkpt>
      <trkpt lat="49.86776" lon="2.44302">
        <ele>63.9</ele>
        <time>2024-01-24T14:09:12Z</time>
      </trkpt>
      <trkpt lat="49.86776" lon="2.44304">
        <ele>63.9</ele>
        <time>2024-01-24T14:09:13Z</time>
      </trkpt>
      <trkpt lat="49.86777" lon="2.44305">
        <ele>63.9</ele>
        <time>2024-01-24T14:09:14Z</time>
      </trkpt>
      <trkpt lat="49.86777" lon="2.44306">
        <ele>63.9</ele>
        <time>2024-01-24T14:09:15Z</time>
      </trkpt>
      <trkpt lat="49.86778" lon="2.44309">
        <ele>63.8</ele>
        <time>2024-01-24T14:09:16Z</time>
      </trkpt>
      <trkpt lat="49.86778" lon="2.44311">
        <ele>63.8</ele>
        <time>2024-01-24T14:09:17Z</time>
      </trkpt>
      <trkpt lat="49.86779" lon="2.44312">
        <ele>63.8</ele>
        <time>2024-01-24T14:09:19Z</time>
      </trkpt>
      <trkpt lat="49.86779" lon="2.44314">
        <ele>63.8</ele>
        <time>2024-01-24T14:09:20Z</time>
      </trkpt>
      <trkpt lat="49.8678" lon="2.44315">
        <ele>63.8</ele>
        <time>2024-01-24T14:09:21Z</time>
      </trkpt>
      <trkpt lat="49.8678" lon="2.44316">
        <ele>63.8</ele>
        <time>2024-01-24T14:09:22Z</time>
      </trkpt>
      <trkpt lat="49.86781" lon="2.44318">
        <ele>63.7</ele>
        <time>2024-01-24T14:09:23Z</time>
      </trkpt>
      <trkpt lat="49.86781" lon="2.4432">
        <ele>63.7</ele>
        <time>2024-01-24T14:09:24Z</time>
      </trkpt>
      <trkpt lat="49.86781" lon="2.44323">
        <ele>63.7</ele>
        <time>2024-01-24T14:09:26Z</time>
      </trkpt>
      <trkpt lat="49.86782" lon="2.44325">
        <ele>63.7</ele>
        <time>2024-01-24T14:09:27Z</time>
      </trkpt>
      <trkpt lat="49.86782" lon="2.44327">
        <ele>63.6</ele>
        <time>2024-01-24T14:09:28Z</time>
      </trkpt>
      <trkpt lat="49.86783" lon="2.44329">
        <ele>63.6</ele>
        <time>2024-01-24T14:09:29Z</time>
      </trkpt>
      <trkpt lat="49.86783" lon="2.44332">
        <ele>63.6</ele>
        <time>2024-01-24T14:09:30Z</time>
      </trkpt>
      <trkpt lat="49.86783" lon="2.44333">
        <ele>63.6</ele>
        <time>2024-01-24T14:09:31Z</time>
      </trkpt>
      <trkpt lat="49.86783" lon="2.44335">
        <ele>63.6</ele>
        <time>2024-01-24T14:09:32Z</time>
      </trkpt>
      <trkpt lat="49.86784" lon="2.44338">
        <ele>63.5</ele>
        <time>2024-01-24T14:09:34Z</time>
      </trkpt>
      <trkpt lat="49.86784" lon="2.44339">
        <ele>63.5</ele>
        <time>2024-01-24T14:09:35Z</time>
      </trkpt>
      <trkpt lat="49.86784" lon="2.44341">
        <ele>63.5</ele>
        <time>2024-01-24T14:09:36Z</time>
      </trkpt>
      <trkpt lat="49.86784" lon="2.44343">
        <ele>63.5</ele>
        <time>2024-01-24T14:09:37Z</time>
      </trkpt>
      <trkpt lat="49.86784" lon="2.44344">
        <ele>63.4</ele>
        <time>2024-01-24T14:09:38Z</time>
      </trkpt>
      <trkpt lat="49.86784" lon="2.44346">
        <ele>63.4</ele>
        <time>2024-01-24T14:09:39Z</time>
      </trkpt>
      <trkpt lat="49.86784" lon="2.44348">
        <ele>63.4</ele>
        <time>2024-01-24T14:09:40Z</time>
      </trkpt>
      <trkpt lat="49.86784" lon="2.44349">
        <ele>63.4</ele>
        <time>2024-01-24T14:09:42Z</time>
      </trkpt>
      <trkpt lat="49.86784" lon="2.44351">
        <ele>63.4</ele>
        <time>2024-01-24T14:09:43Z</time>
      </trkpt>
      <trkpt lat="49.86784" lon="2.44354">
        <ele>63.3</ele>
        <time>2024-01-24T14:09:44Z</time>
      </trkpt>
      <trkpt lat="49.86784" lon="2.44356">
        <ele>63.3</ele>
        <time>2024-01-24T14:09:45Z</time>
      </trkpt>
      <trkpt lat="49.86784" lon="2.44357">
        <ele>63.3</ele>
        <time>2024-01-24T14:09:46Z</time>
      </trkpt>
      <trkpt lat="49.86784" lon="2.4436">
        <ele>63.3</ele>
        <time>2024-01-24T14:09:47Z</time>
      </trkpt>
      <trkpt lat="49.86784" lon="2.44362">
        <ele>63.3</ele>
        <time>2024-01-24T14:09:48Z</time>
      </trkpt>
      <trkpt lat="49.86784" lon="2.44363">
        <ele>63.3</ele>
        <time>2024-01-24T14:09:49Z</time>
      </trkpt>
      <trkpt lat="49.86784" lon="2.44365">
        <ele>63.3</ele>
        <time>2024-01-24T14:09:51Z</time>
      </trkpt>
      <trkpt lat="49.86785" lon="2.44367">
        <ele>63.3</ele>
        <time>2024-01-24T14:09:52Z</time>
      </trkpt>
      <trkpt lat="49.86784" lon="2.44369">
        <ele>63.2</ele>
        <time>2024-01-24T14:09:53Z</time>
      </trkpt>
      <trkpt lat="49.86784" lon="2.4437">
        <ele>63.2</ele>
        <time>2024-01-24T14:09:54Z</time>
      </trkpt>
      <trkpt lat="49.86784" lon="2.44372">
        <ele>63.2</ele>
        <time>2024-01-24T14:09:55Z</time>
      </trkpt>
      <trkpt lat="49.86784" lon="2.44375">
        <ele>63.2</ele>
        <time>2024-01-24T14:09:56Z</time>
      </trkpt>
      <trkpt lat="49.86784" lon="2.44377">
        <ele>63.2</ele>
        <time>2024-01-24T14:09:58Z</time>
      </trkpt>
      <trkpt lat="49.86784" lon="2.44379">
        <ele>63.2</ele>
        <time>2024-01-24T14:09:59Z</time>
      </trkpt>
      <trkpt lat="49.86784" lon="2.44381">
        <ele>63.2</ele>
        <time>2024-01-24T14:10:00Z</time>
      </trkpt>
      <trkpt lat="49.86784" lon="2.44382">
        <ele>63.2</ele>
        <time>2024-01-24T14:10:01Z</time>
      </trkpt>
      <trkpt lat="49.86784" lon="2.44385">
        <ele>63.2</ele>
        <time>2024-01-24T14:10:02Z</time>
      </trkpt>
      <trkpt lat="49.86784" lon="2.44387">
        <ele>63.2</ele>
        <time>2024-01-24T14:10:04Z</time>
      </trkpt>
      <trkpt lat="49.86784" lon="2.44389">
        <ele>63.2</ele>
        <time>2024-01-24T14:10:05Z</time>
      </trkpt>
      <trkpt lat="49.86784" lon="2.44391">
        <ele>63.1</ele>
        <time>2024-01-24T14:10:06Z</time>
      </trkpt>
      <trkpt lat="49.86784" lon="2.44394">
        <ele>63.1</ele>
        <time>2024-01-24T14:10:07Z</time>
      </trkpt>
      <trkpt lat="49.86784" lon="2.44395">
        <ele>63.1</ele>
        <time>2024-01-24T14:10:08Z</time>
      </trkpt>
      <trkpt lat="49.86785" lon="2.44396">
        <ele>63.1</ele>
        <time>2024-01-24T14:10:09Z</time>
      </trkpt>
      <trkpt lat="49.86785" lon="2.44399">
        <ele>63.1</ele>
        <time>2024-01-24T14:10:10Z</time>
      </trkpt>
      <trkpt lat="49.86785" lon="2.44401">
        <ele>63.1</ele>
        <time>2024-01-24T14:10:11Z</time>
      </trkpt>
      <trkpt lat="49.86785" lon="2.44402">
        <ele>63.1</ele>
        <time>2024-01-24T14:10:12Z</time>
      </trkpt>
      <trkpt lat="49.86786" lon="2.44404">
        <ele>63.1</ele>
        <time>2024-01-24T14:10:14Z</time>
      </trkpt>
      <trkpt lat="49.86786" lon="2.44406">
        <ele>63.1</ele>
        <time>2024-01-24T14:10:15Z</time>
      </trkpt>
      <trkpt lat="49.86786" lon="2.44407">
        <ele>63.1</ele>
        <time>2024-01-24T14:10:16Z</time>
      </trkpt>
      <trkpt lat="49.86786" lon="2.4441">
        <ele>63.1</ele>
        <time>2024-01-24T14:10:17Z</time>
      </trkpt>
      <trkpt lat="49.86786" lon="2.44412">
        <ele>63.1</ele>
        <time>2024-01-24T14:10:18Z</time>
      </trkpt>
      <trkpt lat="49.86786" lon="2.44413">
        <ele>63.1</ele>
        <time>2024-01-24T14:10:19Z</time>
      </trkpt>
      <trkpt lat="49.86786" lon="2.44415">
        <ele>63.1</ele>
        <time>2024-01-24T14:10:20Z</time>
      </trkpt>
      <trkpt lat="49.86786" lon="2.44417">
        <ele>63.2</ele>
        <time>2024-01-24T14:10:21Z</time>
      </trkpt>
      <trkpt lat="49.86786" lon="2.44419">
        <ele>63.2</ele>
        <time>2024-01-24T14:10:23Z</time>
      </trkpt>
      <trkpt lat="49.86787" lon="2.44422">
        <ele>63.2</ele>
        <time>2024-01-24T14:10:24Z</time>
      </trkpt>
      <trkpt lat="49.86787" lon="2.44424">
        <ele>63.2</ele>
        <time>2024-01-24T14:10:25Z</time>
      </trkpt>
      <trkpt lat="49.86787" lon="2.44425">
        <ele>63.2</ele>
        <time>2024-01-24T14:10:26Z</time>
      </trkpt>
      <trkpt lat="49.86787" lon="2.44427">
        <ele>63.2</ele>
        <time>2024-01-24T14:10:27Z</time>
      </trkpt>
      <trkpt lat="49.86787" lon="2.44428">
        <ele>63.2</ele>
        <time>2024-01-24T14:10:28Z</time>
      </trkpt>
      <trkpt lat="49.86787" lon="2.4443">
        <ele>63.2</ele>
        <time>2024-01-24T14:10:29Z</time>
      </trkpt>
      <trkpt lat="49.86788" lon="2.44432">
        <ele>63.2</ele>
        <time>2024-01-24T14:10:31Z</time>
      </trkpt>
      <trkpt lat="49.86788" lon="2.44434">
        <ele>63.2</ele>
        <time>2024-01-24T14:10:32Z</time>
      </trkpt>
      <trkpt lat="49.86788" lon="2.44436">
        <ele>63.2</ele>
        <time>2024-01-24T14:10:33Z</time>
      </trkpt>
      <trkpt lat="49.86788" lon="2.44437">
        <ele>63.3</ele>
        <time>2024-01-24T14:10:34Z</time>
      </trkpt>
      <trkpt lat="49.86788" lon="2.44439">
        <ele>63.3</ele>
        <time>2024-01-24T14:10:35Z</time>
      </trkpt>
      <trkpt lat="49.86788" lon="2.4444">
        <ele>63.3</ele>
        <time>2024-01-24T14:10:36Z</time>
      </trkpt>
      <trkpt lat="49.86788" lon="2.44442">
        <ele>63.3</ele>
        <time>2024-01-24T14:10:37Z</time>
      </trkpt>
      <trkpt lat="49.86789" lon="2.44443">
        <ele>63.2</ele>
        <time>2024-01-24T14:10:39Z</time>
      </trkpt>
      <trkpt lat="49.86789" lon="2.44444">
        <ele>63.2</ele>
        <time>2024-01-24T14:10:40Z</time>
      </trkpt>
      <trkpt lat="49.8679" lon="2.44446">
        <ele>63.2</ele>
        <time>2024-01-24T14:10:41Z</time>
      </trkpt>
      <trkpt lat="49.8679" lon="2.44447">
        <ele>63.2</ele>
        <time>2024-01-24T14:10:42Z</time>
      </trkpt>
      <trkpt lat="49.86791" lon="2.44448">
        <ele>63.2</ele>
        <time>2024-01-24T14:10:44Z</time>
      </trkpt>
      <trkpt lat="49.86791" lon="2.4445">
        <ele>63.2</ele>
        <time>2024-01-24T14:10:45Z</time>
      </trkpt>
      <trkpt lat="49.86792" lon="2.44451">
        <ele>63.2</ele>
        <time>2024-01-24T14:10:46Z</time>
      </trkpt>
      <trkpt lat="49.86792" lon="2.44453">
        <ele>63.2</ele>
        <time>2024-01-24T14:10:47Z</time>
      </trkpt>
      <trkpt lat="49.86792" lon="2.44455">
        <ele>63.2</ele>
        <time>2024-01-24T14:10:48Z</time>
      </trkpt>
      <trkpt lat="49.86793" lon="2.44456">
        <ele>63.2</ele>
        <time>2024-01-24T14:10:49Z</time>
      </trkpt>
      <trkpt lat="49.86793" lon="2.44458">
        <ele>63.2</ele>
        <time>2024-01-24T14:10:50Z</time>
      </trkpt>
      <trkpt lat="49.86793" lon="2.4446">
        <ele>63.2</ele>
        <time>2024-01-24T14:10:51Z</time>
      </trkpt>
      <trkpt lat="49.86793" lon="2.44462">
        <ele>63.2</ele>
        <time>2024-01-24T14:10:53Z</time>
      </trkpt>
      <trkpt lat="49.86793" lon="2.44464">
        <ele>63.2</ele>
        <time>2024-01-24T14:10:54Z</time>
      </trkpt>
      <trkpt lat="49.86794" lon="2.44467">
        <ele>63.2</ele>
        <time>2024-01-24T14:10:55Z</time>
      </trkpt>
      <trkpt lat="49.86794" lon="2.44468">
        <ele>63.2</ele>
        <time>2024-01-24T14:10:56Z</time>
      </trkpt>
      <trkpt lat="49.86794" lon="2.4447">
        <ele>63.1</ele>
        <time>2024-01-24T14:10:57Z</time>
      </trkpt>
      <trkpt lat="49.86794" lon="2.44471">
        <ele>63.1</ele>
        <time>2024-01-24T14:10:58Z</time>
      </trkpt>
      <trkpt lat="49.86794" lon="2.44473">
        <ele>63.1</ele>
        <time>2024-01-24T14:10:59Z</time>
      </trkpt>
      <trkpt lat="49.86795" lon="2.44475">
        <ele>63.1</ele>
        <time>2024-01-24T14:11:01Z</time>
      </trkpt>
      <trkpt lat="49.86795" lon="2.44479">
        <ele>63.1</ele>
        <time>2024-01-24T14:11:02Z</time>
      </trkpt>
      <trkpt lat="49.86795" lon="2.4448">
        <ele>63.1</ele>
        <time>2024-01-24T14:11:03Z</time>
      </trkpt>
      <trkpt lat="49.86795" lon="2.44481">
        <ele>63.1</ele>
        <time>2024-01-24T14:11:04Z</time>
      </trkpt>
      <trkpt lat="49.86796" lon="2.44484">
        <ele>63.1</ele>
        <time>2024-01-24T14:11:05Z</time>
      </trkpt>
      <trkpt lat="49.86796" lon="2.44486">
        <ele>63.1</ele>
        <time>2024-01-24T14:11:06Z</time>
      </trkpt>
      <trkpt lat="49.86796" lon="2.44487">
        <ele>63.1</ele>
        <time>2024-01-24T14:11:07Z</time>
      </trkpt>
      <trkpt lat="49.86797" lon="2.4449">
        <ele>63.1</ele>
        <time>2024-01-24T14:11:08Z</time>
      </trkpt>
      <trkpt lat="49.86797" lon="2.44491">
        <ele>63.1</ele>
        <time>2024-01-24T14:11:10Z</time>
      </trkpt>
      <trkpt lat="49.86797" lon="2.44493">
        <ele>63.1</ele>
        <time>2024-01-24T14:11:11Z</time>
      </trkpt>
      <trkpt lat="49.86798" lon="2.44494">
        <ele>63.1</ele>
        <time>2024-01-24T14:11:12Z</time>
      </trkpt>
      <trkpt lat="49.86798" lon="2.44496">
        <ele>63.1</ele>
        <time>2024-01-24T14:11:13Z</time>
      </trkpt>
      <trkpt lat="49.86798" lon="2.44498">
        <ele>63.1</ele>
        <time>2024-01-24T14:11:14Z</time>
      </trkpt>
      <trkpt lat="49.86799" lon="2.44499">
        <ele>63.1</ele>
        <time>2024-01-24T14:11:15Z</time>
      </trkpt>
      <trkpt lat="49.86799" lon="2.44501">
        <ele>63.1</ele>
        <time>2024-01-24T14:11:17Z</time>
      </trkpt>
      <trkpt lat="49.86799" lon="2.44503">
        <ele>63.1</ele>
        <time>2024-01-24T14:11:18Z</time>
      </trkpt>
      <trkpt lat="49.868" lon="2.44506">
        <ele>63.1</ele>
        <time>2024-01-24T14:11:19Z</time>
      </trkpt>
      <trkpt lat="49.868" lon="2.44507">
        <ele>63.1</ele>
        <time>2024-01-24T14:11:20Z</time>
      </trkpt>
      <trkpt lat="49.868" lon="2.44508">
        <ele>63.1</ele>
        <time>2024-01-24T14:11:21Z</time>
      </trkpt>
      <trkpt lat="49.868" lon="2.4451">
        <ele>63.1</ele>
        <time>2024-01-24T14:11:22Z</time>
      </trkpt>
      <trkpt lat="49.868" lon="2.44513">
        <ele>63.1</ele>
        <time>2024-01-24T14:11:24Z</time>
      </trkpt>
      <trkpt lat="49.86801" lon="2.44515">
        <ele>63.1</ele>
        <time>2024-01-24T14:11:25Z</time>
      </trkpt>
      <trkpt lat="49.86801" lon="2.44518">
        <ele>63.1</ele>
        <time>2024-01-24T14:11:26Z</time>
      </trkpt>
      <trkpt lat="49.86801" lon="2.4452">
        <ele>63.1</ele>
        <time>2024-01-24T14:11:27Z</time>
      </trkpt>
      <trkpt lat="49.86802" lon="2.44522">
        <ele>63.1</ele>
        <time>2024-01-24T14:11:28Z</time>
      </trkpt>
      <trkpt lat="49.86802" lon="2.44523">
        <ele>63.1</ele>
        <time>2024-01-24T14:11:29Z</time>
      </trkpt>
      <trkpt lat="49.86802" lon="2.44527">
        <ele>63.1</ele>
        <time>2024-01-24T14:11:31Z</time>
      </trkpt>
      <trkpt lat="49.86802" lon="2.44528">
        <ele>63</ele>
        <time>2024-01-24T14:11:32Z</time>
      </trkpt>
      <trkpt lat="49.86801" lon="2.4453">
        <ele>63</ele>
        <time>2024-01-24T14:11:34Z</time>
      </trkpt>
      <trkpt lat="49.86801" lon="2.44532">
        <ele>63</ele>
        <time>2024-01-24T14:11:35Z</time>
      </trkpt>
      <trkpt lat="49.86801" lon="2.44533">
        <ele>63</ele>
        <time>2024-01-24T14:11:36Z</time>
      </trkpt>
      <trkpt lat="49.86801" lon="2.44534">
        <ele>63</ele>
        <time>2024-01-24T14:11:37Z</time>
      </trkpt>
      <trkpt lat="49.86801" lon="2.44536">
        <ele>63</ele>
        <time>2024-01-24T14:11:38Z</time>
      </trkpt>
      <trkpt lat="49.86802" lon="2.44538">
        <ele>63</ele>
        <time>2024-01-24T14:11:39Z</time>
      </trkpt>
      <trkpt lat="49.86802" lon="2.44539">
        <ele>63</ele>
        <time>2024-01-24T14:11:40Z</time>
      </trkpt>
      <trkpt lat="49.86802" lon="2.4454">
        <ele>63</ele>
        <time>2024-01-24T14:11:42Z</time>
      </trkpt>
      <trkpt lat="49.86802" lon="2.44542">
        <ele>63</ele>
        <time>2024-01-24T14:11:43Z</time>
      </trkpt>
      <trkpt lat="49.86802" lon="2.44543">
        <ele>63</ele>
        <time>2024-01-24T14:11:44Z</time>
      </trkpt>
      <trkpt lat="49.86803" lon="2.44545">
        <ele>63</ele>
        <time>2024-01-24T14:11:45Z</time>
      </trkpt>
      <trkpt lat="49.86803" lon="2.44546">
        <ele>63</ele>
        <time>2024-01-24T14:11:46Z</time>
      </trkpt>
      <trkpt lat="49.86803" lon="2.44547">
        <ele>63</ele>
        <time>2024-01-24T14:11:47Z</time>
      </trkpt>
      <trkpt lat="49.86803" lon="2.44549">
        <ele>63</ele>
        <time>2024-01-24T14:11:49Z</time>
      </trkpt>
      <trkpt lat="49.86803" lon="2.44551">
        <ele>63</ele>
        <time>2024-01-24T14:11:50Z</time>
      </trkpt>
      <trkpt lat="49.86803" lon="2.44553">
        <ele>63</ele>
        <time>2024-01-24T14:11:51Z</time>
      </trkpt>
      <trkpt lat="49.86803" lon="2.44554">
        <ele>62.9</ele>
        <time>2024-01-24T14:11:52Z</time>
      </trkpt>
      <trkpt lat="49.86803" lon="2.44556">
        <ele>62.9</ele>
        <time>2024-01-24T14:11:53Z</time>
      </trkpt>
      <trkpt lat="49.86803" lon="2.44557">
        <ele>62.9</ele>
        <time>2024-01-24T14:11:54Z</time>
      </trkpt>
      <trkpt lat="49.86802" lon="2.44559">
        <ele>62.9</ele>
        <time>2024-01-24T14:11:55Z</time>
      </trkpt>
      <trkpt lat="49.86802" lon="2.4456">
        <ele>62.9</ele>
        <time>2024-01-24T14:11:57Z</time>
      </trkpt>
      <trkpt lat="49.86802" lon="2.44561">
        <ele>62.9</ele>
        <time>2024-01-24T14:11:58Z</time>
      </trkpt>
      <trkpt lat="49.86802" lon="2.44563">
        <ele>62.9</ele>
        <time>2024-01-24T14:11:59Z</time>
      </trkpt>
      <trkpt lat="49.86802" lon="2.44564">
        <ele>62.9</ele>
        <time>2024-01-24T14:12:00Z</time>
      </trkpt>
      <trkpt lat="49.86802" lon="2.44565">
        <ele>63</ele>
        <time>2024-01-24T14:12:01Z</time>
      </trkpt>
      <trkpt lat="49.86802" lon="2.44566">
        <ele>63</ele>
        <time>2024-01-24T14:12:02Z</time>
      </trkpt>
      <trkpt lat="49.86802" lon="2.44568">
        <ele>63</ele>
        <time>2024-01-24T14:12:04Z</time>
      </trkpt>
      <trkpt lat="49.86802" lon="2.4457">
        <ele>63</ele>
        <time>2024-01-24T14:12:05Z</time>
      </trkpt>
      <trkpt lat="49.86802" lon="2.44572">
        <ele>63</ele>
        <time>2024-01-24T14:12:06Z</time>
      </trkpt>
      <trkpt lat="49.86802" lon="2.44573">
        <ele>63</ele>
        <time>2024-01-24T14:12:07Z</time>
      </trkpt>
      <trkpt lat="49.86801" lon="2.44576">
        <ele>63</ele>
        <time>2024-01-24T14:12:08Z</time>
      </trkpt>
      <trkpt lat="49.86801" lon="2.44578">
        <ele>63</ele>
        <time>2024-01-24T14:12:10Z</time>
      </trkpt>
      <trkpt lat="49.86801" lon="2.44579">
        <ele>63</ele>
        <time>2024-01-24T14:12:11Z</time>
      </trkpt>
      <trkpt lat="49.86801" lon="2.44582">
        <ele>63.1</ele>
        <time>2024-01-24T14:12:12Z</time>
      </trkpt>
      <trkpt lat="49.868" lon="2.44583">
        <ele>63.1</ele>
        <time>2024-01-24T14:12:13Z</time>
      </trkpt>
      <trkpt lat="49.868" lon="2.44584">
        <ele>63.1</ele>
        <time>2024-01-24T14:12:14Z</time>
      </trkpt>
      <trkpt lat="49.868" lon="2.44586">
        <ele>63.1</ele>
        <time>2024-01-24T14:12:15Z</time>
      </trkpt>
      <trkpt lat="49.86799" lon="2.44588">
        <ele>63.1</ele>
        <time>2024-01-24T14:12:17Z</time>
      </trkpt>
      <trkpt lat="49.86799" lon="2.44589">
        <ele>63.2</ele>
        <time>2024-01-24T14:12:18Z</time>
      </trkpt>
      <trkpt lat="49.86798" lon="2.44591">
        <ele>63.2</ele>
        <time>2024-01-24T14:12:19Z</time>
      </trkpt>
      <trkpt lat="49.86798" lon="2.44593">
        <ele>63.2</ele>
        <time>2024-01-24T14:12:20Z</time>
      </trkpt>
      <trkpt lat="49.86798" lon="2.44594">
        <ele>63.3</ele>
        <time>2024-01-24T14:12:21Z</time>
      </trkpt>
      <trkpt lat="49.86797" lon="2.44597">
        <ele>63.3</ele>
        <time>2024-01-24T14:12:22Z</time>
      </trkpt>
      <trkpt lat="49.86797" lon="2.44599">
        <ele>63.4</ele>
        <time>2024-01-24T14:12:23Z</time>
      </trkpt>
      <trkpt lat="49.86796" lon="2.446">
        <ele>63.4</ele>
        <time>2024-01-24T14:12:25Z</time>
      </trkpt>
      <trkpt lat="49.86796" lon="2.44602">
        <ele>63.5</ele>
        <time>2024-01-24T14:12:26Z</time>
      </trkpt>
      <trkpt lat="49.86796" lon="2.44603">
        <ele>63.5</ele>
        <time>2024-01-24T14:12:27Z</time>
      </trkpt>
      <trkpt lat="49.86795" lon="2.44605">
        <ele>63.5</ele>
        <time>2024-01-24T14:12:28Z</time>
      </trkpt>
      <trkpt lat="49.86795" lon="2.44607">
        <ele>63.6</ele>
        <time>2024-01-24T14:12:29Z</time>
      </trkpt>
      <trkpt lat="49.86795" lon="2.44609">
        <ele>63.6</ele>
        <time>2024-01-24T14:12:30Z</time>
      </trkpt>
      <trkpt lat="49.86794" lon="2.44611">
        <ele>63.7</ele>
        <time>2024-01-24T14:12:32Z</time>
      </trkpt>
      <trkpt lat="49.86793" lon="2.44614">
        <ele>63.8</ele>
        <time>2024-01-24T14:12:33Z</time>
      </trkpt>
      <trkpt lat="49.86793" lon="2.44615">
        <ele>63.8</ele>
        <time>2024-01-24T14:12:34Z</time>
      </trkpt>
      <trkpt lat="49.86793" lon="2.44616">
        <ele>63.8</ele>
        <time>2024-01-24T14:12:35Z</time>
      </trkpt>
      <trkpt lat="49.86793" lon="2.44617">
        <ele>63.9</ele>
        <time>2024-01-24T14:12:36Z</time>
      </trkpt>
      <trkpt lat="49.86792" lon="2.44619">
        <ele>63.9</ele>
        <time>2024-01-24T14:12:37Z</time>
      </trkpt>
      <trkpt lat="49.86792" lon="2.4462">
        <ele>63.9</ele>
        <time>2024-01-24T14:12:38Z</time>
      </trkpt>
      <trkpt lat="49.86791" lon="2.44622">
        <ele>64</ele>
        <time>2024-01-24T14:12:40Z</time>
      </trkpt>
      <trkpt lat="49.86791" lon="2.44624">
        <ele>64</ele>
        <time>2024-01-24T14:12:41Z</time>
      </trkpt>
      <trkpt lat="49.8679" lon="2.44625">
        <ele>64.1</ele>
        <time>2024-01-24T14:12:42Z</time>
      </trkpt>
      <trkpt lat="49.8679" lon="2.44627">
        <ele>64.1</ele>
        <time>2024-01-24T14:12:43Z</time>
      </trkpt>
      <trkpt lat="49.86789" lon="2.44628">
        <ele>64.2</ele>
        <time>2024-01-24T14:12:44Z</time>
      </trkpt>
      <trkpt lat="49.86789" lon="2.4463">
        <ele>64.2</ele>
        <time>2024-01-24T14:12:45Z</time>
      </trkpt>
      <trkpt lat="49.86788" lon="2.44632">
        <ele>64.3</ele>
        <time>2024-01-24T14:12:47Z</time>
      </trkpt>
      <trkpt lat="49.86788" lon="2.44634">
        <ele>64.3</ele>
        <time>2024-01-24T14:12:48Z</time>
      </trkpt>
      <trkpt lat="49.86788" lon="2.44636">
        <ele>64.3</ele>
        <time>2024-01-24T14:12:49Z</time>
      </trkpt>
      <trkpt lat="49.86787" lon="2.44638">
        <ele>64.4</ele>
        <time>2024-01-24T14:12:50Z</time>
      </trkpt>
      <trkpt lat="49.86787" lon="2.44639">
        <ele>64.4</ele>
        <time>2024-01-24T14:12:51Z</time>
      </trkpt>
      <trkpt lat="49.86787" lon="2.44641">
        <ele>64.4</ele>
        <time>2024-01-24T14:12:53Z</time>
      </trkpt>
      <trkpt lat="49.86787" lon="2.44642">
        <ele>64.5</ele>
        <time>2024-01-24T14:12:54Z</time>
      </trkpt>
      <trkpt lat="49.86787" lon="2.44644">
        <ele>64.5</ele>
        <time>2024-01-24T14:12:55Z</time>
      </trkpt>
      <trkpt lat="49.86786" lon="2.44646">
        <ele>64.5</ele>
        <time>2024-01-24T14:12:56Z</time>
      </trkpt>
      <trkpt lat="49.86786" lon="2.44647">
        <ele>64.5</ele>
        <time>2024-01-24T14:12:57Z</time>
      </trkpt>
      <trkpt lat="49.86786" lon="2.44649">
        <ele>64.6</ele>
        <time>2024-01-24T14:12:58Z</time>
      </trkpt>
      <trkpt lat="49.86786" lon="2.44652">
        <ele>64.6</ele>
        <time>2024-01-24T14:13:00Z</time>
      </trkpt>
      <trkpt lat="49.86786" lon="2.44653">
        <ele>64.6</ele>
        <time>2024-01-24T14:13:01Z</time>
      </trkpt>
      <trkpt lat="49.86786" lon="2.44655">
        <ele>64.7</ele>
        <time>2024-01-24T14:13:02Z</time>
      </trkpt>
      <trkpt lat="49.86786" lon="2.44656">
        <ele>64.7</ele>
        <time>2024-01-24T14:13:03Z</time>
      </trkpt>
      <trkpt lat="49.86785" lon="2.44658">
        <ele>64.7</ele>
        <time>2024-01-24T14:13:04Z</time>
      </trkpt>
      <trkpt lat="49.86785" lon="2.4466">
        <ele>64.7</ele>
        <time>2024-01-24T14:13:05Z</time>
      </trkpt>
      <trkpt lat="49.86785" lon="2.44661">
        <ele>64.7</ele>
        <time>2024-01-24T14:13:06Z</time>
      </trkpt>
      <trkpt lat="49.86784" lon="2.44663">
        <ele>64.8</ele>
        <time>2024-01-24T14:13:08Z</time>
      </trkpt>
      <trkpt lat="49.86784" lon="2.44665">
        <ele>64.8</ele>
        <time>2024-01-24T14:13:09Z</time>
      </trkpt>
      <trkpt lat="49.86784" lon="2.44666">
        <ele>64.8</ele>
        <time>2024-01-24T14:13:10Z</time>
      </trkpt>
      <trkpt lat="49.86783" lon="2.44668">
        <ele>64.8</ele>
        <time>2024-01-24T14:13:11Z</time>
      </trkpt>
      <trkpt lat="49.86783" lon="2.4467">
        <ele>64.8</ele>
        <time>2024-01-24T14:13:12Z</time>
      </trkpt>
      <trkpt lat="49.86783" lon="2.44673">
        <ele>64.8</ele>
        <time>2024-01-24T14:13:13Z</time>
      </trkpt>
      <trkpt lat="49.86783" lon="2.44674">
        <ele>64.9</ele>
        <time>2024-01-24T14:13:15Z</time>
      </trkpt>
      <trkpt lat="49.86783" lon="2.44676">
        <ele>64.9</ele>
        <time>2024-01-24T14:13:16Z</time>
      </trkpt>
      <trkpt lat="49.86783" lon="2.44677">
        <ele>64.9</ele>
        <time>2024-01-24T14:13:17Z</time>
      </trkpt>
      <trkpt lat="49.86783" lon="2.44679">
        <ele>64.9</ele>
        <time>2024-01-24T14:13:18Z</time>
      </trkpt>
      <trkpt lat="49.86783" lon="2.4468">
        <ele>64.9</ele>
        <time>2024-01-24T14:13:20Z</time>
      </trkpt>
      <trkpt lat="49.86782" lon="2.44682">
        <ele>64.9</ele>
        <time>2024-01-24T14:13:21Z</time>
      </trkpt>
      <trkpt lat="49.86782" lon="2.44684">
        <ele>64.9</ele>
        <time>2024-01-24T14:13:22Z</time>
      </trkpt>
      <trkpt lat="49.86782" lon="2.44686">
        <ele>64.9</ele>
        <time>2024-01-24T14:13:23Z</time>
      </trkpt>
      <trkpt lat="49.86782" lon="2.44688">
        <ele>64.9</ele>
        <time>2024-01-24T14:13:24Z</time>
      </trkpt>
      <trkpt lat="49.86781" lon="2.4469">
        <ele>64.9</ele>
        <time>2024-01-24T14:13:25Z</time>
      </trkpt>
      <trkpt lat="49.86781" lon="2.44691">
        <ele>65</ele>
        <time>2024-01-24T14:13:27Z</time>
      </trkpt>
      <trkpt lat="49.86781" lon="2.44695">
        <ele>65</ele>
        <time>2024-01-24T14:13:28Z</time>
      </trkpt>
      <trkpt lat="49.86781" lon="2.44696">
        <ele>65</ele>
        <time>2024-01-24T14:13:29Z</time>
      </trkpt>
      <trkpt lat="49.86781" lon="2.44698">
        <ele>65</ele>
        <time>2024-01-24T14:13:30Z</time>
      </trkpt>
      <trkpt lat="49.86781" lon="2.447">
        <ele>65</ele>
        <time>2024-01-24T14:13:31Z</time>
      </trkpt>
      <trkpt lat="49.86781" lon="2.44702">
        <ele>65</ele>
        <time>2024-01-24T14:13:32Z</time>
      </trkpt>
      <trkpt lat="49.86781" lon="2.44704">
        <ele>65</ele>
        <time>2024-01-24T14:13:34Z</time>
      </trkpt>
      <trkpt lat="49.86781" lon="2.44706">
        <ele>65.1</ele>
        <time>2024-01-24T14:13:35Z</time>
      </trkpt>
      <trkpt lat="49.86781" lon="2.44709">
        <ele>65.1</ele>
        <time>2024-01-24T14:13:36Z</time>
      </trkpt>
      <trkpt lat="49.8678" lon="2.44711">
        <ele>65.1</ele>
        <time>2024-01-24T14:13:37Z</time>
      </trkpt>
      <trkpt lat="49.8678" lon="2.44713">
        <ele>65.1</ele>
        <time>2024-01-24T14:13:38Z</time>
      </trkpt>
      <trkpt lat="49.8678" lon="2.44715">
        <ele>65.2</ele>
        <time>2024-01-24T14:13:39Z</time>
      </trkpt>
      <trkpt lat="49.8678" lon="2.44717">
        <ele>65.2</ele>
        <time>2024-01-24T14:13:41Z</time>
      </trkpt>
      <trkpt lat="49.86779" lon="2.4472">
        <ele>65.2</ele>
        <time>2024-01-24T14:13:42Z</time>
      </trkpt>
      <trkpt lat="49.86779" lon="2.44721">
        <ele>65.2</ele>
        <time>2024-01-24T14:13:43Z</time>
      </trkpt>
      <trkpt lat="49.86779" lon="2.44722">
        <ele>65.2</ele>
        <time>2024-01-24T14:13:44Z</time>
      </trkpt>
      <trkpt lat="49.86778" lon="2.44725">
        <ele>65.3</ele>
        <time>2024-01-24T14:13:45Z</time>
      </trkpt>
      <trkpt lat="49.86778" lon="2.44727">
        <ele>65.3</ele>
        <time>2024-01-24T14:13:46Z</time>
      </trkpt>
      <trkpt lat="49.86778" lon="2.44728">
        <ele>65.3</ele>
        <time>2024-01-24T14:13:48Z</time>
      </trkpt>
      <trkpt lat="49.86778" lon="2.4473">
        <ele>65.3</ele>
        <time>2024-01-24T14:13:49Z</time>
      </trkpt>
      <trkpt lat="49.86777" lon="2.44731">
        <ele>65.4</ele>
        <time>2024-01-24T14:13:50Z</time>
      </trkpt>
      <trkpt lat="49.86777" lon="2.44733">
        <ele>65.4</ele>
        <time>2024-01-24T14:13:51Z</time>
      </trkpt>
      <trkpt lat="49.86777" lon="2.44736">
        <ele>65.4</ele>
        <time>2024-01-24T14:13:52Z</time>
      </trkpt>
      <trkpt lat="49.86776" lon="2.44737">
        <ele>65.4</ele>
        <time>2024-01-24T14:13:53Z</time>
      </trkpt>
      <trkpt lat="49.86776" lon="2.44738">
        <ele>65.4</ele>
        <time>2024-01-24T14:13:54Z</time>
      </trkpt>
      <trkpt lat="49.86776" lon="2.44742">
        <ele>65.5</ele>
        <time>2024-01-24T14:13:56Z</time>
      </trkpt>
      <trkpt lat="49.86775" lon="2.44743">
        <ele>65.5</ele>
        <time>2024-01-24T14:13:57Z</time>
      </trkpt>
      <trkpt lat="49.86775" lon="2.44744">
        <ele>65.5</ele>
        <time>2024-01-24T14:13:58Z</time>
      </trkpt>
      <trkpt lat="49.86775" lon="2.44746">
        <ele>65.5</ele>
        <time>2024-01-24T14:13:59Z</time>
      </trkpt>
      <trkpt lat="49.86775" lon="2.44748">
        <ele>65.6</ele>
        <time>2024-01-24T14:14:00Z</time>
      </trkpt>
      <trkpt lat="49.86774" lon="2.44749">
        <ele>65.6</ele>
        <time>2024-01-24T14:14:01Z</time>
      </trkpt>
      <trkpt lat="49.86774" lon="2.44752">
        <ele>65.6</ele>
        <time>2024-01-24T14:14:03Z</time>
      </trkpt>
      <trkpt lat="49.86773" lon="2.44753">
        <ele>65.6</ele>
        <time>2024-01-24T14:14:04Z</time>
      </trkpt>
      <trkpt lat="49.86773" lon="2.44755">
        <ele>65.7</ele>
        <time>2024-01-24T14:14:05Z</time>
      </trkpt>
      <trkpt lat="49.86773" lon="2.44757">
        <ele>65.7</ele>
        <time>2024-01-24T14:14:06Z</time>
      </trkpt>
      <trkpt lat="49.86772" lon="2.44759">
        <ele>65.7</ele>
        <time>2024-01-24T14:14:07Z</time>
      </trkpt>
      <trkpt lat="49.86772" lon="2.4476">
        <ele>65.8</ele>
        <time>2024-01-24T14:14:09Z</time>
      </trkpt>
      <trkpt lat="49.86771" lon="2.44762">
        <ele>65.8</ele>
        <time>2024-01-24T14:14:10Z</time>
      </trkpt>
      <trkpt lat="49.86771" lon="2.44764">
        <ele>65.8</ele>
        <time>2024-01-24T14:14:11Z</time>
      </trkpt>
      <trkpt lat="49.8677" lon="2.44765">
        <ele>65.8</ele>
        <time>2024-01-24T14:14:12Z</time>
      </trkpt>
      <trkpt lat="49.8677" lon="2.44767">
        <ele>65.9</ele>
        <time>2024-01-24T14:14:13Z</time>
      </trkpt>
      <trkpt lat="49.86769" lon="2.44768">
        <ele>65.9</ele>
        <time>2024-01-24T14:14:14Z</time>
      </trkpt>
      <trkpt lat="49.86769" lon="2.44772">
        <ele>65.9</ele>
        <time>2024-01-24T14:14:16Z</time>
      </trkpt>
      <trkpt lat="49.86768" lon="2.44773">
        <ele>65.9</ele>
        <time>2024-01-24T14:14:17Z</time>
      </trkpt>
      <trkpt lat="49.86768" lon="2.44774">
        <ele>66</ele>
        <time>2024-01-24T14:14:18Z</time>
      </trkpt>
      <trkpt lat="49.86768" lon="2.44775">
        <ele>66</ele>
        <time>2024-01-24T14:14:19Z</time>
      </trkpt>
      <trkpt lat="49.86768" lon="2.44777">
        <ele>66</ele>
        <time>2024-01-24T14:14:20Z</time>
      </trkpt>
      <trkpt lat="49.86767" lon="2.44779">
        <ele>66</ele>
        <time>2024-01-24T14:14:21Z</time>
      </trkpt>
      <trkpt lat="49.86767" lon="2.4478">
        <ele>66.1</ele>
        <time>2024-01-24T14:14:22Z</time>
      </trkpt>
      <trkpt lat="49.86767" lon="2.44782">
        <ele>66.1</ele>
        <time>2024-01-24T14:14:24Z</time>
      </trkpt>
      <trkpt lat="49.86766" lon="2.44784">
        <ele>66.1</ele>
        <time>2024-01-24T14:14:25Z</time>
      </trkpt>
      <trkpt lat="49.86766" lon="2.44786">
        <ele>66.1</ele>
        <time>2024-01-24T14:14:26Z</time>
      </trkpt>
      <trkpt lat="49.86766" lon="2.44788">
        <ele>66.2</ele>
        <time>2024-01-24T14:14:27Z</time>
      </trkpt>
      <trkpt lat="49.86766" lon="2.44789">
        <ele>66.2</ele>
        <time>2024-01-24T14:14:28Z</time>
      </trkpt>
      <trkpt lat="49.86765" lon="2.44792">
        <ele>66.2</ele>
        <time>2024-01-24T14:14:29Z</time>
      </trkpt>
      <trkpt lat="49.86765" lon="2.44794">
        <ele>66.2</ele>
        <time>2024-01-24T14:14:31Z</time>
      </trkpt>
      <trkpt lat="49.86765" lon="2.44795">
        <ele>66.3</ele>
        <time>2024-01-24T14:14:32Z</time>
      </trkpt>
      <trkpt lat="49.86765" lon="2.44797">
        <ele>66.3</ele>
        <time>2024-01-24T14:14:33Z</time>
      </trkpt>
      <trkpt lat="49.86765" lon="2.44798">
        <ele>66.3</ele>
        <time>2024-01-24T14:14:34Z</time>
      </trkpt>
      <trkpt lat="49.86764" lon="2.448">
        <ele>66.3</ele>
        <time>2024-01-24T14:14:35Z</time>
      </trkpt>
      <trkpt lat="49.86764" lon="2.44801">
        <ele>66.3</ele>
        <time>2024-01-24T14:14:36Z</time>
      </trkpt>
      <trkpt lat="49.86764" lon="2.44804">
        <ele>66.4</ele>
        <time>2024-01-24T14:14:38Z</time>
      </trkpt>
      <trkpt lat="49.86764" lon="2.44805">
        <ele>66.4</ele>
        <time>2024-01-24T14:14:39Z</time>
      </trkpt>
      <trkpt lat="49.86764" lon="2.44807">
        <ele>66.4</ele>
        <time>2024-01-24T14:14:40Z</time>
      </trkpt>
      <trkpt lat="49.86763" lon="2.44809">
        <ele>66.4</ele>
        <time>2024-01-24T14:14:41Z</time>
      </trkpt>
      <trkpt lat="49.86763" lon="2.44811">
        <ele>66.4</ele>
        <time>2024-01-24T14:14:42Z</time>
      </trkpt>
      <trkpt lat="49.86763" lon="2.44814">
        <ele>66.5</ele>
        <time>2024-01-24T14:14:43Z</time>
      </trkpt>
      <trkpt lat="49.86763" lon="2.44815">
        <ele>66.5</ele>
        <time>2024-01-24T14:14:45Z</time>
      </trkpt>
      <trkpt lat="49.86763" lon="2.44816">
        <ele>66.5</ele>
        <time>2024-01-24T14:14:46Z</time>
      </trkpt>
      <trkpt lat="49.86762" lon="2.44818">
        <ele>66.5</ele>
        <time>2024-01-24T14:14:47Z</time>
      </trkpt>
      <trkpt lat="49.86762" lon="2.4482">
        <ele>66.6</ele>
        <time>2024-01-24T14:14:48Z</time>
      </trkpt>
      <trkpt lat="49.86762" lon="2.44821">
        <ele>66.6</ele>
        <time>2024-01-24T14:14:49Z</time>
      </trkpt>
      <trkpt lat="49.86761" lon="2.44824">
        <ele>66.6</ele>
        <time>2024-01-24T14:14:51Z</time>
      </trkpt>
      <trkpt lat="49.86761" lon="2.44825">
        <ele>66.6</ele>
        <time>2024-01-24T14:14:52Z</time>
      </trkpt>
      <trkpt lat="49.86761" lon="2.44827">
        <ele>66.7</ele>
        <time>2024-01-24T14:14:53Z</time>
      </trkpt>
      <trkpt lat="49.8676" lon="2.44828">
        <ele>66.7</ele>
        <time>2024-01-24T14:14:54Z</time>
      </trkpt>
      <trkpt lat="49.8676" lon="2.4483">
        <ele>66.7</ele>
        <time>2024-01-24T14:14:55Z</time>
      </trkpt>
      <trkpt lat="49.8676" lon="2.44832">
        <ele>66.7</ele>
        <time>2024-01-24T14:14:57Z</time>
      </trkpt>
      <trkpt lat="49.8676" lon="2.44833">
        <ele>66.8</ele>
        <time>2024-01-24T14:14:58Z</time>
      </trkpt>
      <trkpt lat="49.86759" lon="2.44835">
        <ele>66.8</ele>
        <time>2024-01-24T14:14:59Z</time>
      </trkpt>
      <trkpt lat="49.86759" lon="2.44837">
        <ele>66.8</ele>
        <time>2024-01-24T14:15:00Z</time>
      </trkpt>
      <trkpt lat="49.86759" lon="2.44839">
        <ele>66.8</ele>
        <time>2024-01-24T14:15:01Z</time>
      </trkpt>
      <trkpt lat="49.86759" lon="2.4484">
        <ele>66.8</ele>
        <time>2024-01-24T14:15:02Z</time>
      </trkpt>
      <trkpt lat="49.86758" lon="2.44843">
        <ele>66.9</ele>
        <time>2024-01-24T14:15:04Z</time>
      </trkpt>
      <trkpt lat="49.86758" lon="2.44845">
        <ele>66.9</ele>
        <time>2024-01-24T14:15:05Z</time>
      </trkpt>
      <trkpt lat="49.86757" lon="2.44847">
        <ele>66.9</ele>
        <time>2024-01-24T14:15:06Z</time>
      </trkpt>
      <trkpt lat="49.86757" lon="2.4485">
        <ele>67</ele>
        <time>2024-01-24T14:15:07Z</time>
      </trkpt>
      <trkpt lat="49.86757" lon="2.44851">
        <ele>67</ele>
        <time>2024-01-24T14:15:08Z</time>
      </trkpt>
      <trkpt lat="49.86756" lon="2.44852">
        <ele>67</ele>
        <time>2024-01-24T14:15:09Z</time>
      </trkpt>
      <trkpt lat="49.86756" lon="2.44855">
        <ele>67</ele>
        <time>2024-01-24T14:15:11Z</time>
      </trkpt>
      <trkpt lat="49.86756" lon="2.44857">
        <ele>67</ele>
        <time>2024-01-24T14:15:12Z</time>
      </trkpt>
      <trkpt lat="49.86756" lon="2.44859">
        <ele>67.1</ele>
        <time>2024-01-24T14:15:13Z</time>
      </trkpt>
      <trkpt lat="49.86756" lon="2.44861">
        <ele>67.1</ele>
        <time>2024-01-24T14:15:14Z</time>
      </trkpt>
      <trkpt lat="49.86755" lon="2.44863">
        <ele>67.1</ele>
        <time>2024-01-24T14:15:15Z</time>
      </trkpt>
      <trkpt lat="49.86755" lon="2.44865">
        <ele>67.1</ele>
        <time>2024-01-24T14:15:16Z</time>
      </trkpt>
      <trkpt lat="49.86755" lon="2.44867">
        <ele>67.1</ele>
        <time>2024-01-24T14:15:18Z</time>
      </trkpt>
      <trkpt lat="49.86755" lon="2.44869">
        <ele>67.1</ele>
        <time>2024-01-24T14:15:19Z</time>
      </trkpt>
      <trkpt lat="49.86755" lon="2.44871">
        <ele>67.2</ele>
        <time>2024-01-24T14:15:20Z</time>
      </trkpt>
      <trkpt lat="49.86755" lon="2.44875">
        <ele>67.2</ele>
        <time>2024-01-24T14:15:21Z</time>
      </trkpt>
      <trkpt lat="49.86755" lon="2.44876">
        <ele>67.2</ele>
        <time>2024-01-24T14:15:22Z</time>
      </trkpt>
      <trkpt lat="49.86755" lon="2.44878">
        <ele>67.2</ele>
        <time>2024-01-24T14:15:23Z</time>
      </trkpt>
      <trkpt lat="49.86755" lon="2.44881">
        <ele>67.2</ele>
        <time>2024-01-24T14:15:25Z</time>
      </trkpt>
      <trkpt lat="49.86755" lon="2.44882">
        <ele>67.2</ele>
        <time>2024-01-24T14:15:26Z</time>
      </trkpt>
      <trkpt lat="49.86755" lon="2.44884">
        <ele>67.2</ele>
        <time>2024-01-24T14:15:27Z</time>
      </trkpt>
      <trkpt lat="49.86755" lon="2.44886">
        <ele>67.3</ele>
        <time>2024-01-24T14:15:28Z</time>
      </trkpt>
      <trkpt lat="49.86755" lon="2.44887">
        <ele>67.3</ele>
        <time>2024-01-24T14:15:29Z</time>
      </trkpt>
      <trkpt lat="49.86756" lon="2.44889">
        <ele>67.3</ele>
        <time>2024-01-24T14:15:31Z</time>
      </trkpt>
      <trkpt lat="49.86756" lon="2.44891">
        <ele>67.3</ele>
        <time>2024-01-24T14:15:32Z</time>
      </trkpt>
      <trkpt lat="49.86756" lon="2.44893">
        <ele>67.3</ele>
        <time>2024-01-24T14:15:33Z</time>
      </trkpt>
      <trkpt lat="49.86756" lon="2.44895">
        <ele>67.3</ele>
        <time>2024-01-24T14:15:34Z</time>
      </trkpt>
      <trkpt lat="49.86756" lon="2.44898">
        <ele>67.3</ele>
        <time>2024-01-24T14:15:35Z</time>
      </trkpt>
      <trkpt lat="49.86756" lon="2.449">
        <ele>67.3</ele>
        <time>2024-01-24T14:15:37Z</time>
      </trkpt>
      <trkpt lat="49.86756" lon="2.44901">
        <ele>67.4</ele>
        <time>2024-01-24T14:15:38Z</time>
      </trkpt>
      <trkpt lat="49.86756" lon="2.44904">
        <ele>67.4</ele>
        <time>2024-01-24T14:15:39Z</time>
      </trkpt>
      <trkpt lat="49.86756" lon="2.44906">
        <ele>67.4</ele>
        <time>2024-01-24T14:15:41Z</time>
      </trkpt>
      <trkpt lat="49.86756" lon="2.44907">
        <ele>67.4</ele>
        <time>2024-01-24T14:15:42Z</time>
      </trkpt>
      <trkpt lat="49.86756" lon="2.44909">
        <ele>67.4</ele>
        <time>2024-01-24T14:15:43Z</time>
      </trkpt>
      <trkpt lat="49.86756" lon="2.44911">
        <ele>67.4</ele>
        <time>2024-01-24T14:15:45Z</time>
      </trkpt>
      <trkpt lat="49.86756" lon="2.44912">
        <ele>67.4</ele>
        <time>2024-01-24T14:15:46Z</time>
      </trkpt>
      <trkpt lat="49.86756" lon="2.44914">
        <ele>67.4</ele>
        <time>2024-01-24T14:15:47Z</time>
      </trkpt>
      <trkpt lat="49.86755" lon="2.44915">
        <ele>67.4</ele>
        <time>2024-01-24T14:15:48Z</time>
      </trkpt>
      <trkpt lat="49.86755" lon="2.44917">
        <ele>67.4</ele>
        <time>2024-01-24T14:15:50Z</time>
      </trkpt>
      <trkpt lat="49.86755" lon="2.44919">
        <ele>67.4</ele>
        <time>2024-01-24T14:15:51Z</time>
      </trkpt>
      <trkpt lat="49.86754" lon="2.4492">
        <ele>67.4</ele>
        <time>2024-01-24T14:15:52Z</time>
      </trkpt>
      <trkpt lat="49.86754" lon="2.44922">
        <ele>67.4</ele>
        <time>2024-01-24T14:15:53Z</time>
      </trkpt>
      <trkpt lat="49.86754" lon="2.44924">
        <ele>67.4</ele>
        <time>2024-01-24T14:15:54Z</time>
      </trkpt>
      <trkpt lat="49.86754" lon="2.44925">
        <ele>67.4</ele>
        <time>2024-01-24T14:15:55Z</time>
      </trkpt>
      <trkpt lat="49.86753" lon="2.44927">
        <ele>67.4</ele>
        <time>2024-01-24T14:15:57Z</time>
      </trkpt>
      <trkpt lat="49.86753" lon="2.44928">
        <ele>67.4</ele>
        <time>2024-01-24T14:15:58Z</time>
      </trkpt>
      <trkpt lat="49.86753" lon="2.4493">
        <ele>67.4</ele>
        <time>2024-01-24T14:15:59Z</time>
      </trkpt>
      <trkpt lat="49.86752" lon="2.44932">
        <ele>67.4</ele>
        <time>2024-01-24T14:16:00Z</time>
      </trkpt>
      <trkpt lat="49.86752" lon="2.44934">
        <ele>67.4</ele>
        <time>2024-01-24T14:16:01Z</time>
      </trkpt>
      <trkpt lat="49.86752" lon="2.44935">
        <ele>67.4</ele>
        <time>2024-01-24T14:16:02Z</time>
      </trkpt>
      <trkpt lat="49.86752" lon="2.44937">
        <ele>67.4</ele>
        <time>2024-01-24T14:16:03Z</time>
      </trkpt>
      <trkpt lat="49.86751" lon="2.4494">
        <ele>67.5</ele>
        <time>2024-01-24T14:16:05Z</time>
      </trkpt>
      <trkpt lat="49.86751" lon="2.44941">
        <ele>67.5</ele>
        <time>2024-01-24T14:16:06Z</time>
      </trkpt>
      <trkpt lat="49.86751" lon="2.44943">
        <ele>67.5</ele>
        <time>2024-01-24T14:16:07Z</time>
      </trkpt>
      <trkpt lat="49.86751" lon="2.44944">
        <ele>67.5</ele>
        <time>2024-01-24T14:16:08Z</time>
      </trkpt>
      <trkpt lat="49.8675" lon="2.44946">
        <ele>67.5</ele>
        <time>2024-01-24T14:16:09Z</time>
      </trkpt>
      <trkpt lat="49.8675" lon="2.44948">
        <ele>67.5</ele>
        <time>2024-01-24T14:16:11Z</time>
      </trkpt>
      <trkpt lat="49.8675" lon="2.4495">
        <ele>67.5</ele>
        <time>2024-01-24T14:16:12Z</time>
      </trkpt>
      <trkpt lat="49.86749" lon="2.44951">
        <ele>67.5</ele>
        <time>2024-01-24T14:16:13Z</time>
      </trkpt>
      <trkpt lat="49.86749" lon="2.44953">
        <ele>67.5</ele>
        <time>2024-01-24T14:16:14Z</time>
      </trkpt>
      <trkpt lat="49.86749" lon="2.44954">
        <ele>67.4</ele>
        <time>2024-01-24T14:16:15Z</time>
      </trkpt>
      <trkpt lat="49.86749" lon="2.44956">
        <ele>67.4</ele>
        <time>2024-01-24T14:16:17Z</time>
      </trkpt>
      <trkpt lat="49.86748" lon="2.44958">
        <ele>67.4</ele>
        <time>2024-01-24T14:16:18Z</time>
      </trkpt>
      <trkpt lat="49.86748" lon="2.4496">
        <ele>67.4</ele>
        <time>2024-01-24T14:16:19Z</time>
      </trkpt>
      <trkpt lat="49.86748" lon="2.44961">
        <ele>67.4</ele>
        <time>2024-01-24T14:16:20Z</time>
      </trkpt>
      <trkpt lat="49.86748" lon="2.44963">
        <ele>67.4</ele>
        <time>2024-01-24T14:16:21Z</time>
      </trkpt>
      <trkpt lat="49.86747" lon="2.44966">
        <ele>67.4</ele>
        <time>2024-01-24T14:16:23Z</time>
      </trkpt>
      <trkpt lat="49.86747" lon="2.44967">
        <ele>67.4</ele>
        <time>2024-01-24T14:16:24Z</time>
      </trkpt>
      <trkpt lat="49.86747" lon="2.44969">
        <ele>67.4</ele>
        <time>2024-01-24T14:16:25Z</time>
      </trkpt>
      <trkpt lat="49.86747" lon="2.4497">
        <ele>67.4</ele>
        <time>2024-01-24T14:16:26Z</time>
      </trkpt>
      <trkpt lat="49.86747" lon="2.44972">
        <ele>67.4</ele>
        <time>2024-01-24T14:16:27Z</time>
      </trkpt>
      <trkpt lat="49.86746" lon="2.44974">
        <ele>67.4</ele>
        <time>2024-01-24T14:16:28Z</time>
      </trkpt>
      <trkpt lat="49.86746" lon="2.44977">
        <ele>67.4</ele>
        <time>2024-01-24T14:16:30Z</time>
      </trkpt>
      <trkpt lat="49.86746" lon="2.44978">
        <ele>67.4</ele>
        <time>2024-01-24T14:16:31Z</time>
      </trkpt>
      <trkpt lat="49.86745" lon="2.4498">
        <ele>67.4</ele>
        <time>2024-01-24T14:16:32Z</time>
      </trkpt>
      <trkpt lat="49.86745" lon="2.44981">
        <ele>67.4</ele>
        <time>2024-01-24T14:16:33Z</time>
      </trkpt>
      <trkpt lat="49.86745" lon="2.44983">
        <ele>67.4</ele>
        <time>2024-01-24T14:16:34Z</time>
      </trkpt>
      <trkpt lat="49.86745" lon="2.44985">
        <ele>67.3</ele>
        <time>2024-01-24T14:16:35Z</time>
      </trkpt>
      <trkpt lat="49.86745" lon="2.44987">
        <ele>67.3</ele>
        <time>2024-01-24T14:16:37Z</time>
      </trkpt>
      <trkpt lat="49.86745" lon="2.44989">
        <ele>67.3</ele>
        <time>2024-01-24T14:16:38Z</time>
      </trkpt>
      <trkpt lat="49.86745" lon="2.44991">
        <ele>67.3</ele>
        <time>2024-01-24T14:16:39Z</time>
      </trkpt>
      <trkpt lat="49.86745" lon="2.44993">
        <ele>67.3</ele>
        <time>2024-01-24T14:16:40Z</time>
      </trkpt>
      <trkpt lat="49.86745" lon="2.44995">
        <ele>67.3</ele>
        <time>2024-01-24T14:16:41Z</time>
      </trkpt>
      <trkpt lat="49.86745" lon="2.44998">
        <ele>67.3</ele>
        <time>2024-01-24T14:16:43Z</time>
      </trkpt>
      <trkpt lat="49.86745" lon="2.44999">
        <ele>67.3</ele>
        <time>2024-01-24T14:16:44Z</time>
      </trkpt>
      <trkpt lat="49.86745" lon="2.45001">
        <ele>67.3</ele>
        <time>2024-01-24T14:16:45Z</time>
      </trkpt>
      <trkpt lat="49.86745" lon="2.45004">
        <ele>67.3</ele>
        <time>2024-01-24T14:16:46Z</time>
      </trkpt>
      <trkpt lat="49.86745" lon="2.45005">
        <ele>67.3</ele>
        <time>2024-01-24T14:16:47Z</time>
      </trkpt>
      <trkpt lat="49.86746" lon="2.45006">
        <ele>67.2</ele>
        <time>2024-01-24T14:16:48Z</time>
      </trkpt>
      <trkpt lat="49.86746" lon="2.45009">
        <ele>67.2</ele>
        <time>2024-01-24T14:16:50Z</time>
      </trkpt>
      <trkpt lat="49.86747" lon="2.45011">
        <ele>67.2</ele>
        <time>2024-01-24T14:16:51Z</time>
      </trkpt>
      <trkpt lat="49.86747" lon="2.45012">
        <ele>67.2</ele>
        <time>2024-01-24T14:16:52Z</time>
      </trkpt>
      <trkpt lat="49.86748" lon="2.45015">
        <ele>67.2</ele>
        <time>2024-01-24T14:16:53Z</time>
      </trkpt>
      <trkpt lat="49.86748" lon="2.45016">
        <ele>67.2</ele>
        <time>2024-01-24T14:16:54Z</time>
      </trkpt>
      <trkpt lat="49.86748" lon="2.45018">
        <ele>67.2</ele>
        <time>2024-01-24T14:16:55Z</time>
      </trkpt>
      <trkpt lat="49.86749" lon="2.45021">
        <ele>67.1</ele>
        <time>2024-01-24T14:16:57Z</time>
      </trkpt>
      <trkpt lat="49.86749" lon="2.45022">
        <ele>67.1</ele>
        <time>2024-01-24T14:16:58Z</time>
      </trkpt>
      <trkpt lat="49.86749" lon="2.45023">
        <ele>67.1</ele>
        <time>2024-01-24T14:16:59Z</time>
      </trkpt>
      <trkpt lat="49.86749" lon="2.45027">
        <ele>67.1</ele>
        <time>2024-01-24T14:17:00Z</time>
      </trkpt>
      <trkpt lat="49.86749" lon="2.45028">
        <ele>67.1</ele>
        <time>2024-01-24T14:17:01Z</time>
      </trkpt>
      <trkpt lat="49.86749" lon="2.45029">
        <ele>67.1</ele>
        <time>2024-01-24T14:17:02Z</time>
      </trkpt>
      <trkpt lat="49.86749" lon="2.45033">
        <ele>67</ele>
        <time>2024-01-24T14:17:04Z</time>
      </trkpt>
      <trkpt lat="49.86749" lon="2.45034">
        <ele>67</ele>
        <time>2024-01-24T14:17:05Z</time>
      </trkpt>
      <trkpt lat="49.86749" lon="2.45035">
        <ele>67</ele>
        <time>2024-01-24T14:17:06Z</time>
      </trkpt>
      <trkpt lat="49.86748" lon="2.45039">
        <ele>67</ele>
        <time>2024-01-24T14:17:07Z</time>
      </trkpt>
      <trkpt lat="49.86748" lon="2.4504">
        <ele>67</ele>
        <time>2024-01-24T14:17:08Z</time>
      </trkpt>
      <trkpt lat="49.86748" lon="2.45041">
        <ele>66.9</ele>
        <time>2024-01-24T14:17:09Z</time>
      </trkpt>
      <trkpt lat="49.86748" lon="2.45045">
        <ele>66.9</ele>
        <time>2024-01-24T14:17:10Z</time>
      </trkpt>
      <trkpt lat="49.86748" lon="2.45047">
        <ele>66.9</ele>
        <time>2024-01-24T14:17:12Z</time>
      </trkpt>
      <trkpt lat="49.86748" lon="2.45048">
        <ele>66.9</ele>
        <time>2024-01-24T14:17:13Z</time>
      </trkpt>
      <trkpt lat="49.86748" lon="2.4505">
        <ele>66.8</ele>
        <time>2024-01-24T14:17:14Z</time>
      </trkpt>
      <trkpt lat="49.86747" lon="2.45051">
        <ele>66.8</ele>
        <time>2024-01-24T14:17:15Z</time>
      </trkpt>
      <trkpt lat="49.86747" lon="2.45053">
        <ele>66.8</ele>
        <time>2024-01-24T14:17:16Z</time>
      </trkpt>
      <trkpt lat="49.86747" lon="2.45055">
        <ele>66.8</ele>
        <time>2024-01-24T14:17:17Z</time>
      </trkpt>
      <trkpt lat="49.86747" lon="2.45057">
        <ele>66.7</ele>
        <time>2024-01-24T14:17:19Z</time>
      </trkpt>
      <trkpt lat="49.86747" lon="2.4506">
        <ele>66.7</ele>
        <time>2024-01-24T14:17:20Z</time>
      </trkpt>
      <trkpt lat="49.86747" lon="2.45062">
        <ele>66.7</ele>
        <time>2024-01-24T14:17:21Z</time>
      </trkpt>
      <trkpt lat="49.86746" lon="2.45063">
        <ele>66.7</ele>
        <time>2024-01-24T14:17:22Z</time>
      </trkpt>
      <trkpt lat="49.86746" lon="2.45064">
        <ele>66.6</ele>
        <time>2024-01-24T14:17:23Z</time>
      </trkpt>
      <trkpt lat="49.86746" lon="2.45066">
        <ele>66.6</ele>
        <time>2024-01-24T14:17:24Z</time>
      </trkpt>
      <trkpt lat="49.86746" lon="2.45068">
        <ele>66.6</ele>
        <time>2024-01-24T14:17:26Z</time>
      </trkpt>
      <trkpt lat="49.86746" lon="2.4507">
        <ele>66.6</ele>
        <time>2024-01-24T14:17:27Z</time>
      </trkpt>
      <trkpt lat="49.86746" lon="2.45072">
        <ele>66.5</ele>
        <time>2024-01-24T14:17:28Z</time>
      </trkpt>
      <trkpt lat="49.86746" lon="2.45073">
        <ele>66.5</ele>
        <time>2024-01-24T14:17:29Z</time>
      </trkpt>
      <trkpt lat="49.86746" lon="2.45077">
        <ele>66.5</ele>
        <time>2024-01-24T14:17:30Z</time>
      </trkpt>
      <trkpt lat="49.86746" lon="2.45078">
        <ele>66.4</ele>
        <time>2024-01-24T14:17:31Z</time>
      </trkpt>
      <trkpt lat="49.86746" lon="2.45079">
        <ele>66.4</ele>
        <time>2024-01-24T14:17:32Z</time>
      </trkpt>
      <trkpt lat="49.86746" lon="2.45081">
        <ele>66.4</ele>
        <time>2024-01-24T14:17:34Z</time>
      </trkpt>
      <trkpt lat="49.86746" lon="2.45084">
        <ele>66.3</ele>
        <time>2024-01-24T14:17:35Z</time>
      </trkpt>
      <trkpt lat="49.86746" lon="2.45086">
        <ele>66.3</ele>
        <time>2024-01-24T14:17:36Z</time>
      </trkpt>
      <trkpt lat="49.86746" lon="2.45088">
        <ele>66.3</ele>
        <time>2024-01-24T14:17:37Z</time>
      </trkpt>
      <trkpt lat="49.86746" lon="2.4509">
        <ele>66.2</ele>
        <time>2024-01-24T14:17:38Z</time>
      </trkpt>
      <trkpt lat="49.86746" lon="2.45092">
        <ele>66.2</ele>
        <time>2024-01-24T14:17:39Z</time>
      </trkpt>
      <trkpt lat="49.86747" lon="2.45094">
        <ele>66.2</ele>
        <time>2024-01-24T14:17:41Z</time>
      </trkpt>
      <trkpt lat="49.86747" lon="2.45097">
        <ele>66.1</ele>
        <time>2024-01-24T14:17:42Z</time>
      </trkpt>
      <trkpt lat="49.86747" lon="2.45099">
        <ele>66.1</ele>
        <time>2024-01-24T14:17:43Z</time>
      </trkpt>
      <trkpt lat="49.86747" lon="2.45101">
        <ele>66</ele>
        <time>2024-01-24T14:17:45Z</time>
      </trkpt>
      <trkpt lat="49.86747" lon="2.45103">
        <ele>66</ele>
        <time>2024-01-24T14:17:46Z</time>
      </trkpt>
      <trkpt lat="49.86748" lon="2.45107">
        <ele>65.9</ele>
        <time>2024-01-24T14:17:47Z</time>
      </trkpt>
      <trkpt lat="49.86748" lon="2.45108">
        <ele>65.9</ele>
        <time>2024-01-24T14:17:48Z</time>
      </trkpt>
      <trkpt lat="49.86748" lon="2.4511">
        <ele>65.9</ele>
        <time>2024-01-24T14:17:49Z</time>
      </trkpt>
      <trkpt lat="49.86748" lon="2.45111">
        <ele>65.8</ele>
        <time>2024-01-24T14:17:50Z</time>
      </trkpt>
      <trkpt lat="49.86748" lon="2.45113">
        <ele>65.8</ele>
        <time>2024-01-24T14:17:51Z</time>
      </trkpt>
      <trkpt lat="49.86748" lon="2.45115">
        <ele>65.8</ele>
        <time>2024-01-24T14:17:53Z</time>
      </trkpt>
      <trkpt lat="49.86748" lon="2.45117">
        <ele>65.7</ele>
        <time>2024-01-24T14:17:54Z</time>
      </trkpt>
      <trkpt lat="49.86749" lon="2.45119">
        <ele>65.7</ele>
        <time>2024-01-24T14:17:55Z</time>
      </trkpt>
      <trkpt lat="49.86748" lon="2.45122">
        <ele>65.6</ele>
        <time>2024-01-24T14:17:56Z</time>
      </trkpt>
      <trkpt lat="49.86748" lon="2.45124">
        <ele>65.6</ele>
        <time>2024-01-24T14:17:57Z</time>
      </trkpt>
      <trkpt lat="49.86748" lon="2.45125">
        <ele>65.6</ele>
        <time>2024-01-24T14:17:58Z</time>
      </trkpt>
      <trkpt lat="49.86748" lon="2.45128">
        <ele>65.5</ele>
        <time>2024-01-24T14:18:00Z</time>
      </trkpt>
      <trkpt lat="49.86748" lon="2.45129">
        <ele>65.5</ele>
        <time>2024-01-24T14:18:01Z</time>
      </trkpt>
      <trkpt lat="49.86748" lon="2.45131">
        <ele>65.5</ele>
        <time>2024-01-24T14:18:02Z</time>
      </trkpt>
      <trkpt lat="49.86748" lon="2.45134">
        <ele>65.4</ele>
        <time>2024-01-24T14:18:03Z</time>
      </trkpt>
      <trkpt lat="49.86748" lon="2.45135">
        <ele>65.4</ele>
        <time>2024-01-24T14:18:04Z</time>
      </trkpt>
      <trkpt lat="49.86748" lon="2.45136">
        <ele>65.4</ele>
        <time>2024-01-24T14:18:05Z</time>
      </trkpt>
      <trkpt lat="49.86748" lon="2.45138">
        <ele>65.3</ele>
        <time>2024-01-24T14:18:06Z</time>
      </trkpt>
      <trkpt lat="49.86748" lon="2.4514">
        <ele>65.3</ele>
        <time>2024-01-24T14:18:08Z</time>
      </trkpt>
      <trkpt lat="49.86748" lon="2.45142">
        <ele>65.2</ele>
        <time>2024-01-24T14:18:09Z</time>
      </trkpt>
      <trkpt lat="49.86748" lon="2.45143">
        <ele>65.2</ele>
        <time>2024-01-24T14:18:10Z</time>
      </trkpt>
      <trkpt lat="49.86748" lon="2.45145">
        <ele>65.2</ele>
        <time>2024-01-24T14:18:11Z</time>
      </trkpt>
      <trkpt lat="49.86748" lon="2.45147">
        <ele>65.1</ele>
        <time>2024-01-24T14:18:12Z</time>
      </trkpt>
      <trkpt lat="49.86748" lon="2.45149">
        <ele>65.1</ele>
        <time>2024-01-24T14:18:13Z</time>
      </trkpt>
      <trkpt lat="49.86749" lon="2.4515">
        <ele>65.1</ele>
        <time>2024-01-24T14:18:14Z</time>
      </trkpt>
      <trkpt lat="49.86749" lon="2.45152">
        <ele>65</ele>
        <time>2024-01-24T14:18:16Z</time>
      </trkpt>
      <trkpt lat="49.86749" lon="2.45154">
        <ele>65</ele>
        <time>2024-01-24T14:18:17Z</time>
      </trkpt>
      <trkpt lat="49.86749" lon="2.45155">
        <ele>65</ele>
        <time>2024-01-24T14:18:18Z</time>
      </trkpt>
      <trkpt lat="49.86749" lon="2.45157">
        <ele>64.9</ele>
        <time>2024-01-24T14:18:19Z</time>
      </trkpt>
      <trkpt lat="49.86749" lon="2.45159">
        <ele>64.9</ele>
        <time>2024-01-24T14:18:20Z</time>
      </trkpt>
      <trkpt lat="49.86749" lon="2.4516">
        <ele>64.9</ele>
        <time>2024-01-24T14:18:21Z</time>
      </trkpt>
      <trkpt lat="49.86749" lon="2.45162">
        <ele>64.9</ele>
        <time>2024-01-24T14:18:22Z</time>
      </trkpt>
      <trkpt lat="49.86749" lon="2.45164">
        <ele>64.8</ele>
        <time>2024-01-24T14:18:24Z</time>
      </trkpt>
      <trkpt lat="49.86749" lon="2.45165">
        <ele>64.8</ele>
        <time>2024-01-24T14:18:25Z</time>
      </trkpt>
      <trkpt lat="49.86749" lon="2.45167">
        <ele>64.8</ele>
        <time>2024-01-24T14:18:26Z</time>
      </trkpt>
      <trkpt lat="49.8675" lon="2.4517">
        <ele>64.7</ele>
        <time>2024-01-24T14:18:27Z</time>
      </trkpt>
      <trkpt lat="49.8675" lon="2.45172">
        <ele>64.7</ele>
        <time>2024-01-24T14:18:28Z</time>
      </trkpt>
      <trkpt lat="49.8675" lon="2.45173">
        <ele>64.7</ele>
        <time>2024-01-24T14:18:29Z</time>
      </trkpt>
      <trkpt lat="49.8675" lon="2.45176">
        <ele>64.6</ele>
        <time>2024-01-24T14:18:30Z</time>
      </trkpt>
      <trkpt lat="49.8675" lon="2.45178">
        <ele>64.6</ele>
        <time>2024-01-24T14:18:32Z</time>
      </trkpt>
      <trkpt lat="49.8675" lon="2.45179">
        <ele>64.6</ele>
        <time>2024-01-24T14:18:33Z</time>
      </trkpt>
      <trkpt lat="49.86751" lon="2.45182">
        <ele>64.5</ele>
        <time>2024-01-24T14:18:34Z</time>
      </trkpt>
      <trkpt lat="49.86751" lon="2.45184">
        <ele>64.5</ele>
        <time>2024-01-24T14:18:35Z</time>
      </trkpt>
      <trkpt lat="49.86751" lon="2.45185">
        <ele>64.4</ele>
        <time>2024-01-24T14:18:36Z</time>
      </trkpt>
      <trkpt lat="49.86751" lon="2.45187">
        <ele>64.4</ele>
        <time>2024-01-24T14:18:37Z</time>
      </trkpt>
      <trkpt lat="49.86751" lon="2.45189">
        <ele>64.4</ele>
        <time>2024-01-24T14:18:38Z</time>
      </trkpt>
      <trkpt lat="49.86751" lon="2.45191">
        <ele>64.3</ele>
        <time>2024-01-24T14:18:40Z</time>
      </trkpt>
      <trkpt lat="49.86751" lon="2.45194">
        <ele>64.3</ele>
        <time>2024-01-24T14:18:41Z</time>
      </trkpt>
      <trkpt lat="49.86751" lon="2.45195">
        <ele>64.2</ele>
        <time>2024-01-24T14:18:42Z</time>
      </trkpt>
      <trkpt lat="49.86751" lon="2.45197">
        <ele>64.2</ele>
        <time>2024-01-24T14:18:43Z</time>
      </trkpt>
      <trkpt lat="49.86751" lon="2.45198">
        <ele>64.2</ele>
        <time>2024-01-24T14:18:44Z</time>
      </trkpt>
      <trkpt lat="49.86751" lon="2.452">
        <ele>64.1</ele>
        <time>2024-01-24T14:18:45Z</time>
      </trkpt>
      <trkpt lat="49.86751" lon="2.45202">
        <ele>64.1</ele>
        <time>2024-01-24T14:18:47Z</time>
      </trkpt>
      <trkpt lat="49.86751" lon="2.45206">
        <ele>64</ele>
        <time>2024-01-24T14:18:48Z</time>
      </trkpt>
      <trkpt lat="49.86751" lon="2.45207">
        <ele>64</ele>
        <time>2024-01-24T14:18:49Z</time>
      </trkpt>
      <trkpt lat="49.8675" lon="2.45208">
        <ele>64</ele>
        <time>2024-01-24T14:18:50Z</time>
      </trkpt>
      <trkpt lat="49.8675" lon="2.45212">
        <ele>63.9</ele>
        <time>2024-01-24T14:18:51Z</time>
      </trkpt>
      <trkpt lat="49.8675" lon="2.45213">
        <ele>63.9</ele>
        <time>2024-01-24T14:18:52Z</time>
      </trkpt>
      <trkpt lat="49.8675" lon="2.45214">
        <ele>63.8</ele>
        <time>2024-01-24T14:18:53Z</time>
      </trkpt>
      <trkpt lat="49.8675" lon="2.45218">
        <ele>63.8</ele>
        <time>2024-01-24T14:18:55Z</time>
      </trkpt>
      <trkpt lat="49.8675" lon="2.45219">
        <ele>63.7</ele>
        <time>2024-01-24T14:18:56Z</time>
      </trkpt>
      <trkpt lat="49.8675" lon="2.4522">
        <ele>63.7</ele>
        <time>2024-01-24T14:18:57Z</time>
      </trkpt>
      <trkpt lat="49.8675" lon="2.45224">
        <ele>63.7</ele>
        <time>2024-01-24T14:18:58Z</time>
      </trkpt>
      <trkpt lat="49.8675" lon="2.45225">
        <ele>63.6</ele>
        <time>2024-01-24T14:18:59Z</time>
      </trkpt>
      <trkpt lat="49.8675" lon="2.45226">
        <ele>63.6</ele>
        <time>2024-01-24T14:19:00Z</time>
      </trkpt>
      <trkpt lat="49.8675" lon="2.4523">
        <ele>63.5</ele>
        <time>2024-01-24T14:19:02Z</time>
      </trkpt>
      <trkpt lat="49.8675" lon="2.45231">
        <ele>63.5</ele>
        <time>2024-01-24T14:19:03Z</time>
      </trkpt>
      <trkpt lat="49.8675" lon="2.45232">
        <ele>63.5</ele>
        <time>2024-01-24T14:19:04Z</time>
      </trkpt>
      <trkpt lat="49.86751" lon="2.45234">
        <ele>63.4</ele>
        <time>2024-01-24T14:19:05Z</time>
      </trkpt>
      <trkpt lat="49.86751" lon="2.45236">
        <ele>63.4</ele>
        <time>2024-01-24T14:19:06Z</time>
      </trkpt>
      <trkpt lat="49.86751" lon="2.45238">
        <ele>63.4</ele>
        <time>2024-01-24T14:19:07Z</time>
      </trkpt>
      <trkpt lat="49.86751" lon="2.45241">
        <ele>63.3</ele>
        <time>2024-01-24T14:19:09Z</time>
      </trkpt>
      <trkpt lat="49.86751" lon="2.45242">
        <ele>63.3</ele>
        <time>2024-01-24T14:19:10Z</time>
      </trkpt>
      <trkpt lat="49.86751" lon="2.45244">
        <ele>63.3</ele>
        <time>2024-01-24T14:19:11Z</time>
      </trkpt>
      <trkpt lat="49.86752" lon="2.45245">
        <ele>63.2</ele>
        <time>2024-01-24T14:19:12Z</time>
      </trkpt>
      <trkpt lat="49.86752" lon="2.45247">
        <ele>63.2</ele>
        <time>2024-01-24T14:19:13Z</time>
      </trkpt>
      <trkpt lat="49.86752" lon="2.45249">
        <ele>63.1</ele>
        <time>2024-01-24T14:19:14Z</time>
      </trkpt>
      <trkpt lat="49.86752" lon="2.45251">
        <ele>63.1</ele>
        <time>2024-01-24T14:19:16Z</time>
      </trkpt>
      <trkpt lat="49.86752" lon="2.45252">
        <ele>63.1</ele>
        <time>2024-01-24T14:19:17Z</time>
      </trkpt>
      <trkpt lat="49.86752" lon="2.45254">
        <ele>63.1</ele>
        <time>2024-01-24T14:19:18Z</time>
      </trkpt>
      <trkpt lat="49.86752" lon="2.45256">
        <ele>63</ele>
        <time>2024-01-24T14:19:19Z</time>
      </trkpt>
      <trkpt lat="49.86752" lon="2.45257">
        <ele>63</ele>
        <time>2024-01-24T14:19:20Z</time>
      </trkpt>
      <trkpt lat="49.86752" lon="2.45259">
        <ele>63</ele>
        <time>2024-01-24T14:19:22Z</time>
      </trkpt>
      <trkpt lat="49.86752" lon="2.45261">
        <ele>62.9</ele>
        <time>2024-01-24T14:19:23Z</time>
      </trkpt>
      <trkpt lat="49.86752" lon="2.45262">
        <ele>62.9</ele>
        <time>2024-01-24T14:19:24Z</time>
      </trkpt>
      <trkpt lat="49.86752" lon="2.45263">
        <ele>62.9</ele>
        <time>2024-01-24T14:19:25Z</time>
      </trkpt>
      <trkpt lat="49.86752" lon="2.45264">
        <ele>62.9</ele>
        <time>2024-01-24T14:19:26Z</time>
      </trkpt>
      <trkpt lat="49.86751" lon="2.45264">
        <ele>62.9</ele>
        <time>2024-01-24T14:19:27Z</time>
      </trkpt>
      <trkpt lat="49.86751" lon="2.45264">
        <ele>62.9</ele>
        <time>2024-01-24T14:19:29Z</time>
      </trkpt>
      <trkpt lat="49.86751" lon="2.45264">
        <ele>62.9</ele>
        <time>2024-01-24T14:19:30Z</time>
      </trkpt>
      <trkpt lat="49.86751" lon="2.45264">
        <ele>62.9</ele>
        <time>2024-01-24T14:19:32Z</time>
      </trkpt>
      <trkpt lat="49.86751" lon="2.45265">
        <ele>62.9</ele>
        <time>2024-01-24T14:19:33Z</time>
      </trkpt>
      <trkpt lat="49.86752" lon="2.45265">
        <ele>62.8</ele>
        <time>2024-01-24T14:19:35Z</time>
      </trkpt>
      <trkpt lat="49.86752" lon="2.45265">
        <ele>62.8</ele>
        <time>2024-01-24T14:19:36Z</time>
      </trkpt>
      <trkpt lat="49.86752" lon="2.45265">
        <ele>62.8</ele>
        <time>2024-01-24T14:19:38Z</time>
      </trkpt>
      <trkpt lat="49.86752" lon="2.45265">
        <ele>62.8</ele>
        <time>2024-01-24T14:19:39Z</time>
      </trkpt>
      <trkpt lat="49.86752" lon="2.45265">
        <ele>62.8</ele>
        <time>2024-01-24T14:19:40Z</time>
      </trkpt>
      <trkpt lat="49.86752" lon="2.45265">
        <ele>62.8</ele>
        <time>2024-01-24T14:19:42Z</time>
      </trkpt>
      <trkpt lat="49.86752" lon="2.45265">
        <ele>62.8</ele>
        <time>2024-01-24T14:19:43Z</time>
      </trkpt>
      <trkpt lat="49.86752" lon="2.45265">
        <ele>62.8</ele>
        <time>2024-01-24T14:19:45Z</time>
      </trkpt>
      <trkpt lat="49.86752" lon="2.45265">
        <ele>62.8</ele>
        <time>2024-01-24T14:19:46Z</time>
      </trkpt>
      <trkpt lat="49.86754" lon="2.4526">
        <ele>62.7</ele>
        <time>2024-01-24T14:21:12Z</time>
      </trkpt>
      <trkpt lat="49.86754" lon="2.4526">
        <ele>62.7</ele>
        <time>2024-01-24T14:21:13Z</time>
      </trkpt>
      <trkpt lat="49.86754" lon="2.4526">
        <ele>62.7</ele>
        <time>2024-01-24T14:21:14Z</time>
      </trkpt>
      <trkpt lat="49.86754" lon="2.45261">
        <ele>62.7</ele>
        <time>2024-01-24T14:21:15Z</time>
      </trkpt>
      <trkpt lat="49.86754" lon="2.4526">
        <ele>62.7</ele>
        <time>2024-01-24T14:21:16Z</time>
      </trkpt>
      <trkpt lat="49.86754" lon="2.45261">
        <ele>62.7</ele>
        <time>2024-01-24T14:21:18Z</time>
      </trkpt>
      <trkpt lat="49.86754" lon="2.45262">
        <ele>62.7</ele>
        <time>2024-01-24T14:21:19Z</time>
      </trkpt>
      <trkpt lat="49.86754" lon="2.45264">
        <ele>62.6</ele>
        <time>2024-01-24T14:21:20Z</time>
      </trkpt>
      <trkpt lat="49.86753" lon="2.45266">
        <ele>62.6</ele>
        <time>2024-01-24T14:21:21Z</time>
      </trkpt>
      <trkpt lat="49.86753" lon="2.45268">
        <ele>62.6</ele>
        <time>2024-01-24T14:21:22Z</time>
      </trkpt>
      <trkpt lat="49.86753" lon="2.45269">
        <ele>62.6</ele>
        <time>2024-01-24T14:21:23Z</time>
      </trkpt>
      <trkpt lat="49.86752" lon="2.45271">
        <ele>62.6</ele>
        <time>2024-01-24T14:21:24Z</time>
      </trkpt>
      <trkpt lat="49.86752" lon="2.45273">
        <ele>62.5</ele>
        <time>2024-01-24T14:21:26Z</time>
      </trkpt>
      <trkpt lat="49.86752" lon="2.45274">
        <ele>62.5</ele>
        <time>2024-01-24T14:21:27Z</time>
      </trkpt>
      <trkpt lat="49.86752" lon="2.45274">
        <ele>62.5</ele>
        <time>2024-01-24T14:21:28Z</time>
      </trkpt>
      <trkpt lat="49.86752" lon="2.45273">
        <ele>62.5</ele>
        <time>2024-01-24T14:21:30Z</time>
      </trkpt>
      <trkpt lat="49.86752" lon="2.45273">
        <ele>62.5</ele>
        <time>2024-01-24T14:21:31Z</time>
      </trkpt>
      <trkpt lat="49.86752" lon="2.45272">
        <ele>62.5</ele>
        <time>2024-01-24T14:21:33Z</time>
      </trkpt>
      <trkpt lat="49.86753" lon="2.45272">
        <ele>62.5</ele>
        <time>2024-01-24T14:21:34Z</time>
      </trkpt>
      <trkpt lat="49.86753" lon="2.45272">
        <ele>62.5</ele>
        <time>2024-01-24T14:21:36Z</time>
      </trkpt>
      <trkpt lat="49.86753" lon="2.45272">
        <ele>62.5</ele>
        <time>2024-01-24T14:21:37Z</time>
      </trkpt>
      <trkpt lat="49.86753" lon="2.45272">
        <ele>62.5</ele>
        <time>2024-01-24T14:21:38Z</time>
      </trkpt>
      <trkpt lat="49.86753" lon="2.45272">
        <ele>62.5</ele>
        <time>2024-01-24T14:21:40Z</time>
      </trkpt>
      <trkpt lat="49.86754" lon="2.45277">
        <ele>62.5</ele>
        <time>2024-01-24T14:21:50Z</time>
      </trkpt>
      <trkpt lat="49.86754" lon="2.45278">
        <ele>62.4</ele>
        <time>2024-01-24T14:21:51Z</time>
      </trkpt>
      <trkpt lat="49.86755" lon="2.45279">
        <ele>62.4</ele>
        <time>2024-01-24T14:21:52Z</time>
      </trkpt>
      <trkpt lat="49.86755" lon="2.4528">
        <ele>62.4</ele>
        <time>2024-01-24T14:21:54Z</time>
      </trkpt>
      <trkpt lat="49.86755" lon="2.45281">
        <ele>62.4</ele>
        <time>2024-01-24T14:21:55Z</time>
      </trkpt>
      <trkpt lat="49.86755" lon="2.45282">
        <ele>62.4</ele>
        <time>2024-01-24T14:21:57Z</time>
      </trkpt>
      <trkpt lat="49.86755" lon="2.45283">
        <ele>62.4</ele>
        <time>2024-01-24T14:21:58Z</time>
      </trkpt>
      <trkpt lat="49.86755" lon="2.45283">
        <ele>62.4</ele>
        <time>2024-01-24T14:21:59Z</time>
      </trkpt>
      <trkpt lat="49.86755" lon="2.45283">
        <ele>62.4</ele>
        <time>2024-01-24T14:22:01Z</time>
      </trkpt>
      <trkpt lat="49.86755" lon="2.45282">
        <ele>62.4</ele>
        <time>2024-01-24T14:22:02Z</time>
      </trkpt>
      <trkpt lat="49.86755" lon="2.45282">
        <ele>62.4</ele>
        <time>2024-01-24T14:22:03Z</time>
      </trkpt>
      <trkpt lat="49.86755" lon="2.45281">
        <ele>62.4</ele>
        <time>2024-01-24T14:22:05Z</time>
      </trkpt>
      <trkpt lat="49.86755" lon="2.45281">
        <ele>62.3</ele>
        <time>2024-01-24T14:22:06Z</time>
      </trkpt>
      <trkpt lat="49.86755" lon="2.45281">
        <ele>62.3</ele>
        <time>2024-01-24T14:22:08Z</time>
      </trkpt>
      <trkpt lat="49.86755" lon="2.45281">
        <ele>62.3</ele>
        <time>2024-01-24T14:22:09Z</time>
      </trkpt>
      <trkpt lat="49.86755" lon="2.45281">
        <ele>62.3</ele>
        <time>2024-01-24T14:22:11Z</time>
      </trkpt>
      <trkpt lat="49.86754" lon="2.45286">
        <ele>62.3</ele>
        <time>2024-01-24T14:23:20Z</time>
      </trkpt>
      <trkpt lat="49.86754" lon="2.45287">
        <ele>62.2</ele>
        <time>2024-01-24T14:23:21Z</time>
      </trkpt>
      <trkpt lat="49.86754" lon="2.45289">
        <ele>62.2</ele>
        <time>2024-01-24T14:23:22Z</time>
      </trkpt>
      <trkpt lat="49.86754" lon="2.45291">
        <ele>62.2</ele>
        <time>2024-01-24T14:23:23Z</time>
      </trkpt>
      <trkpt lat="49.86754" lon="2.45293">
        <ele>62.1</ele>
        <time>2024-01-24T14:23:24Z</time>
      </trkpt>
      <trkpt lat="49.86755" lon="2.45295">
        <ele>62.1</ele>
        <time>2024-01-24T14:23:25Z</time>
      </trkpt>
      <trkpt lat="49.86755" lon="2.45298">
        <ele>62</ele>
        <time>2024-01-24T14:23:26Z</time>
      </trkpt>
      <trkpt lat="49.86755" lon="2.45301">
        <ele>61.9</ele>
        <time>2024-01-24T14:23:28Z</time>
      </trkpt>
      <trkpt lat="49.86755" lon="2.45304">
        <ele>61.8</ele>
        <time>2024-01-24T14:23:29Z</time>
      </trkpt>
      <trkpt lat="49.86756" lon="2.45307">
        <ele>61.7</ele>
        <time>2024-01-24T14:23:30Z</time>
      </trkpt>
      <trkpt lat="49.86756" lon="2.45309">
        <ele>61.7</ele>
        <time>2024-01-24T14:23:31Z</time>
      </trkpt>
      <trkpt lat="49.86757" lon="2.45311">
        <ele>61.6</ele>
        <time>2024-01-24T14:23:32Z</time>
      </trkpt>
      <trkpt lat="49.86757" lon="2.45314">
        <ele>61.5</ele>
        <time>2024-01-24T14:23:33Z</time>
      </trkpt>
      <trkpt lat="49.86757" lon="2.45316">
        <ele>61.4</ele>
        <time>2024-01-24T14:23:34Z</time>
      </trkpt>
      <trkpt lat="49.86758" lon="2.45318">
        <ele>61.3</ele>
        <time>2024-01-24T14:23:36Z</time>
      </trkpt>
      <trkpt lat="49.86758" lon="2.45321">
        <ele>61.1</ele>
        <time>2024-01-24T14:23:37Z</time>
      </trkpt>
      <trkpt lat="49.86758" lon="2.45323">
        <ele>61</ele>
        <time>2024-01-24T14:23:38Z</time>
      </trkpt>
      <trkpt lat="49.86758" lon="2.45325">
        <ele>61</ele>
        <time>2024-01-24T14:23:39Z</time>
      </trkpt>
      <trkpt lat="49.86758" lon="2.45327">
        <ele>60.9</ele>
        <time>2024-01-24T14:23:40Z</time>
      </trkpt>
      <trkpt lat="49.86758" lon="2.45328">
        <ele>60.9</ele>
        <time>2024-01-24T14:23:41Z</time>
      </trkpt>
      <trkpt lat="49.86758" lon="2.45329">
        <ele>60.8</ele>
        <time>2024-01-24T14:23:43Z</time>
      </trkpt>
      <trkpt lat="49.86758" lon="2.45331">
        <ele>60.7</ele>
        <time>2024-01-24T14:23:44Z</time>
      </trkpt>
      <trkpt lat="49.86758" lon="2.45332">
        <ele>60.6</ele>
        <time>2024-01-24T14:23:45Z</time>
      </trkpt>
      <trkpt lat="49.86759" lon="2.45334">
        <ele>60.6</ele>
        <time>2024-01-24T14:23:46Z</time>
      </trkpt>
      <trkpt lat="49.86759" lon="2.45336">
        <ele>60.5</ele>
        <time>2024-01-24T14:23:47Z</time>
      </trkpt>
      <trkpt lat="49.86759" lon="2.45339">
        <ele>60.4</ele>
        <time>2024-01-24T14:23:48Z</time>
      </trkpt>
      <trkpt lat="49.86759" lon="2.4534">
        <ele>60.3</ele>
        <time>2024-01-24T14:23:50Z</time>
      </trkpt>
      <trkpt lat="49.86759" lon="2.45342">
        <ele>60.2</ele>
        <time>2024-01-24T14:23:51Z</time>
      </trkpt>
      <trkpt lat="49.86759" lon="2.45345">
        <ele>60.1</ele>
        <time>2024-01-24T14:23:52Z</time>
      </trkpt>
      <trkpt lat="49.86759" lon="2.45347">
        <ele>60</ele>
        <time>2024-01-24T14:23:53Z</time>
      </trkpt>
      <trkpt lat="49.86758" lon="2.45349">
        <ele>59.9</ele>
        <time>2024-01-24T14:23:54Z</time>
      </trkpt>
      <trkpt lat="49.86758" lon="2.45351">
        <ele>59.8</ele>
        <time>2024-01-24T14:23:55Z</time>
      </trkpt>
      <trkpt lat="49.86758" lon="2.45354">
        <ele>59.8</ele>
        <time>2024-01-24T14:23:56Z</time>
      </trkpt>
      <trkpt lat="49.86758" lon="2.45356">
        <ele>59.7</ele>
        <time>2024-01-24T14:23:58Z</time>
      </trkpt>
      <trkpt lat="49.86758" lon="2.45358">
        <ele>59.6</ele>
        <time>2024-01-24T14:23:59Z</time>
      </trkpt>
      <trkpt lat="49.86758" lon="2.4536">
        <ele>59.5</ele>
        <time>2024-01-24T14:24:00Z</time>
      </trkpt>
      <trkpt lat="49.86758" lon="2.45362">
        <ele>59.5</ele>
        <time>2024-01-24T14:24:01Z</time>
      </trkpt>
      <trkpt lat="49.86758" lon="2.45363">
        <ele>59.5</ele>
        <time>2024-01-24T14:24:02Z</time>
      </trkpt>
      <trkpt lat="49.86758" lon="2.45366">
        <ele>59.4</ele>
        <time>2024-01-24T14:24:03Z</time>
      </trkpt>
      <trkpt lat="49.86758" lon="2.45367">
        <ele>59.3</ele>
        <time>2024-01-24T14:24:04Z</time>
      </trkpt>
      <trkpt lat="49.86758" lon="2.4537">
        <ele>59.3</ele>
        <time>2024-01-24T14:24:06Z</time>
      </trkpt>
      <trkpt lat="49.86759" lon="2.45372">
        <ele>59.2</ele>
        <time>2024-01-24T14:24:08Z</time>
      </trkpt>
      <trkpt lat="49.86759" lon="2.45372">
        <ele>59.2</ele>
        <time>2024-01-24T14:24:09Z</time>
      </trkpt>
      <trkpt lat="49.86759" lon="2.45374">
        <ele>59.2</ele>
        <time>2024-01-24T14:24:11Z</time>
      </trkpt>
      <trkpt lat="49.86759" lon="2.45374">
        <ele>59.2</ele>
        <time>2024-01-24T14:24:12Z</time>
      </trkpt>
      <trkpt lat="49.86759" lon="2.45374">
        <ele>59.2</ele>
        <time>2024-01-24T14:24:13Z</time>
      </trkpt>
      <trkpt lat="49.8676" lon="2.45374">
        <ele>59.2</ele>
        <time>2024-01-24T14:24:15Z</time>
      </trkpt>
      <trkpt lat="49.8676" lon="2.45374">
        <ele>59.2</ele>
        <time>2024-01-24T14:24:16Z</time>
      </trkpt>
      <trkpt lat="49.8676" lon="2.45374">
        <ele>59.2</ele>
        <time>2024-01-24T14:24:17Z</time>
      </trkpt>
      <trkpt lat="49.8676" lon="2.45375">
        <ele>59.2</ele>
        <time>2024-01-24T14:24:19Z</time>
      </trkpt>
      <trkpt lat="49.8676" lon="2.45376">
        <ele>59.1</ele>
        <time>2024-01-24T14:24:20Z</time>
      </trkpt>
      <trkpt lat="49.8676" lon="2.45376">
        <ele>59.1</ele>
        <time>2024-01-24T14:24:21Z</time>
      </trkpt>
      <trkpt lat="49.8676" lon="2.45378">
        <ele>59.1</ele>
        <time>2024-01-24T14:24:23Z</time>
      </trkpt>
      <trkpt lat="49.8676" lon="2.45379">
        <ele>59.1</ele>
        <time>2024-01-24T14:24:24Z</time>
      </trkpt>
      <trkpt lat="49.8676" lon="2.45381">
        <ele>59.1</ele>
        <time>2024-01-24T14:24:25Z</time>
      </trkpt>
      <trkpt lat="49.8676" lon="2.45383">
        <ele>59</ele>
        <time>2024-01-24T14:24:26Z</time>
      </trkpt>
      <trkpt lat="49.8676" lon="2.45385">
        <ele>59</ele>
        <time>2024-01-24T14:24:27Z</time>
      </trkpt>
      <trkpt lat="49.8676" lon="2.45387">
        <ele>59</ele>
        <time>2024-01-24T14:24:29Z</time>
      </trkpt>
      <trkpt lat="49.8676" lon="2.45388">
        <ele>59</ele>
        <time>2024-01-24T14:24:30Z</time>
      </trkpt>
      <trkpt lat="49.8676" lon="2.45388">
        <ele>59</ele>
        <time>2024-01-24T14:24:31Z</time>
      </trkpt>
      <trkpt lat="49.8676" lon="2.45389">
        <ele>59</ele>
        <time>2024-01-24T14:24:32Z</time>
      </trkpt>
      <trkpt lat="49.8676" lon="2.4539">
        <ele>59</ele>
        <time>2024-01-24T14:24:34Z</time>
      </trkpt>
      <trkpt lat="49.8676" lon="2.45391">
        <ele>59</ele>
        <time>2024-01-24T14:24:35Z</time>
      </trkpt>
      <trkpt lat="49.8676" lon="2.45393">
        <ele>58.9</ele>
        <time>2024-01-24T14:24:36Z</time>
      </trkpt>
      <trkpt lat="49.8676" lon="2.45394">
        <ele>58.9</ele>
        <time>2024-01-24T14:24:37Z</time>
      </trkpt>
      <trkpt lat="49.8676" lon="2.45395">
        <ele>58.9</ele>
        <time>2024-01-24T14:24:38Z</time>
      </trkpt>
      <trkpt lat="49.8676" lon="2.45396">
        <ele>58.9</ele>
        <time>2024-01-24T14:24:39Z</time>
      </trkpt>
      <trkpt lat="49.86761" lon="2.45397">
        <ele>58.9</ele>
        <time>2024-01-24T14:24:41Z</time>
      </trkpt>
      <trkpt lat="49.86761" lon="2.45398">
        <ele>58.9</ele>
        <time>2024-01-24T14:24:42Z</time>
      </trkpt>
      <trkpt lat="49.86761" lon="2.454">
        <ele>58.9</ele>
        <time>2024-01-24T14:24:43Z</time>
      </trkpt>
      <trkpt lat="49.86761" lon="2.45401">
        <ele>58.9</ele>
        <time>2024-01-24T14:24:44Z</time>
      </trkpt>
      <trkpt lat="49.86761" lon="2.45402">
        <ele>58.9</ele>
        <time>2024-01-24T14:24:46Z</time>
      </trkpt>
      <trkpt lat="49.86761" lon="2.45403">
        <ele>58.9</ele>
        <time>2024-01-24T14:24:47Z</time>
      </trkpt>
      <trkpt lat="49.86761" lon="2.45404">
        <ele>58.8</ele>
        <time>2024-01-24T14:24:48Z</time>
      </trkpt>
      <trkpt lat="49.86761" lon="2.45405">
        <ele>58.8</ele>
        <time>2024-01-24T14:24:49Z</time>
      </trkpt>
      <trkpt lat="49.86761" lon="2.45406">
        <ele>58.8</ele>
        <time>2024-01-24T14:24:50Z</time>
      </trkpt>
      <trkpt lat="49.86761" lon="2.45407">
        <ele>58.8</ele>
        <time>2024-01-24T14:24:51Z</time>
      </trkpt>
      <trkpt lat="49.86761" lon="2.45409">
        <ele>58.8</ele>
        <time>2024-01-24T14:24:53Z</time>
      </trkpt>
      <trkpt lat="49.86761" lon="2.45411">
        <ele>58.8</ele>
        <time>2024-01-24T14:24:54Z</time>
      </trkpt>
      <trkpt lat="49.86761" lon="2.45413">
        <ele>58.8</ele>
        <time>2024-01-24T14:24:55Z</time>
      </trkpt>
      <trkpt lat="49.86762" lon="2.45414">
        <ele>58.8</ele>
        <time>2024-01-24T14:24:56Z</time>
      </trkpt>
      <trkpt lat="49.86762" lon="2.45416">
        <ele>58.7</ele>
        <time>2024-01-24T14:24:57Z</time>
      </trkpt>
      <trkpt lat="49.86762" lon="2.45418">
        <ele>58.7</ele>
        <time>2024-01-24T14:24:58Z</time>
      </trkpt>
      <trkpt lat="49.86762" lon="2.4542">
        <ele>58.7</ele>
        <time>2024-01-24T14:24:59Z</time>
      </trkpt>
      <trkpt lat="49.86763" lon="2.45422">
        <ele>58.7</ele>
        <time>2024-01-24T14:25:01Z</time>
      </trkpt>
      <trkpt lat="49.86763" lon="2.45424">
        <ele>58.7</ele>
        <time>2024-01-24T14:25:02Z</time>
      </trkpt>
      <trkpt lat="49.86763" lon="2.45425">
        <ele>58.7</ele>
        <time>2024-01-24T14:25:03Z</time>
      </trkpt>
      <trkpt lat="49.86763" lon="2.45427">
        <ele>58.6</ele>
        <time>2024-01-24T14:25:04Z</time>
      </trkpt>
      <trkpt lat="49.86763" lon="2.4543">
        <ele>58.6</ele>
        <time>2024-01-24T14:25:06Z</time>
      </trkpt>
      <trkpt lat="49.86764" lon="2.45431">
        <ele>58.6</ele>
        <time>2024-01-24T14:25:07Z</time>
      </trkpt>
      <trkpt lat="49.86764" lon="2.45433">
        <ele>58.6</ele>
        <time>2024-01-24T14:25:08Z</time>
      </trkpt>
      <trkpt lat="49.86764" lon="2.45434">
        <ele>58.6</ele>
        <time>2024-01-24T14:25:09Z</time>
      </trkpt>
      <trkpt lat="49.86764" lon="2.45436">
        <ele>58.6</ele>
        <time>2024-01-24T14:25:10Z</time>
      </trkpt>
      <trkpt lat="49.86764" lon="2.45438">
        <ele>58.6</ele>
        <time>2024-01-24T14:25:11Z</time>
      </trkpt>
      <trkpt lat="49.86764" lon="2.4544">
        <ele>58.5</ele>
        <time>2024-01-24T14:25:13Z</time>
      </trkpt>
      <trkpt lat="49.86764" lon="2.45441">
        <ele>58.5</ele>
        <time>2024-01-24T14:25:14Z</time>
      </trkpt>
      <trkpt lat="49.86764" lon="2.45443">
        <ele>58.5</ele>
        <time>2024-01-24T14:25:15Z</time>
      </trkpt>
      <trkpt lat="49.86764" lon="2.45444">
        <ele>58.5</ele>
        <time>2024-01-24T14:25:16Z</time>
      </trkpt>
      <trkpt lat="49.86764" lon="2.45445">
        <ele>58.5</ele>
        <time>2024-01-24T14:25:17Z</time>
      </trkpt>
      <trkpt lat="49.86764" lon="2.45447">
        <ele>58.5</ele>
        <time>2024-01-24T14:25:18Z</time>
      </trkpt>
      <trkpt lat="49.86764" lon="2.45449">
        <ele>58.5</ele>
        <time>2024-01-24T14:25:20Z</time>
      </trkpt>
      <trkpt lat="49.86764" lon="2.4545">
        <ele>58.5</ele>
        <time>2024-01-24T14:25:21Z</time>
      </trkpt>
      <trkpt lat="49.86764" lon="2.45451">
        <ele>58.5</ele>
        <time>2024-01-24T14:25:22Z</time>
      </trkpt>
      <trkpt lat="49.86764" lon="2.45452">
        <ele>58.5</ele>
        <time>2024-01-24T14:25:23Z</time>
      </trkpt>
      <trkpt lat="49.86764" lon="2.45453">
        <ele>58.5</ele>
        <time>2024-01-24T14:25:24Z</time>
      </trkpt>
      <trkpt lat="49.86765" lon="2.45454">
        <ele>58.5</ele>
        <time>2024-01-24T14:25:25Z</time>
      </trkpt>
      <trkpt lat="49.86765" lon="2.45455">
        <ele>58.5</ele>
        <time>2024-01-24T14:25:26Z</time>
      </trkpt>
      <trkpt lat="49.86765" lon="2.45457">
        <ele>58.5</ele>
        <time>2024-01-24T14:25:28Z</time>
      </trkpt>
      <trkpt lat="49.86765" lon="2.45458">
        <ele>58.5</ele>
        <time>2024-01-24T14:25:29Z</time>
      </trkpt>
      <trkpt lat="49.86765" lon="2.4546">
        <ele>58.5</ele>
        <time>2024-01-24T14:25:30Z</time>
      </trkpt>
      <trkpt lat="49.86766" lon="2.45461">
        <ele>58.5</ele>
        <time>2024-01-24T14:25:31Z</time>
      </trkpt>
      <trkpt lat="49.86766" lon="2.45462">
        <ele>58.5</ele>
        <time>2024-01-24T14:25:32Z</time>
      </trkpt>
      <trkpt lat="49.86766" lon="2.45464">
        <ele>58.5</ele>
        <time>2024-01-24T14:25:34Z</time>
      </trkpt>
      <trkpt lat="49.86766" lon="2.45466">
        <ele>58.5</ele>
        <time>2024-01-24T14:25:35Z</time>
      </trkpt>
      <trkpt lat="49.86767" lon="2.45468">
        <ele>58.6</ele>
        <time>2024-01-24T14:25:36Z</time>
      </trkpt>
      <trkpt lat="49.86767" lon="2.45469">
        <ele>58.6</ele>
        <time>2024-01-24T14:25:37Z</time>
      </trkpt>
      <trkpt lat="49.86767" lon="2.45471">
        <ele>58.6</ele>
        <time>2024-01-24T14:25:38Z</time>
      </trkpt>
      <trkpt lat="49.86767" lon="2.45474">
        <ele>58.6</ele>
        <time>2024-01-24T14:25:39Z</time>
      </trkpt>
      <trkpt lat="49.86767" lon="2.45476">
        <ele>58.6</ele>
        <time>2024-01-24T14:25:40Z</time>
      </trkpt>
      <trkpt lat="49.86767" lon="2.45477">
        <ele>58.7</ele>
        <time>2024-01-24T14:25:41Z</time>
      </trkpt>
      <trkpt lat="49.86768" lon="2.45479">
        <ele>58.7</ele>
        <time>2024-01-24T14:25:43Z</time>
      </trkpt>
      <trkpt lat="49.86768" lon="2.45481">
        <ele>58.7</ele>
        <time>2024-01-24T14:25:44Z</time>
      </trkpt>
      <trkpt lat="49.86768" lon="2.45483">
        <ele>58.7</ele>
        <time>2024-01-24T14:25:45Z</time>
      </trkpt>
      <trkpt lat="49.86769" lon="2.45485">
        <ele>58.7</ele>
        <time>2024-01-24T14:25:46Z</time>
      </trkpt>
      <trkpt lat="49.86769" lon="2.45487">
        <ele>58.8</ele>
        <time>2024-01-24T14:25:47Z</time>
      </trkpt>
      <trkpt lat="49.86769" lon="2.45489">
        <ele>58.8</ele>
        <time>2024-01-24T14:25:49Z</time>
      </trkpt>
      <trkpt lat="49.86769" lon="2.45491">
        <ele>58.8</ele>
        <time>2024-01-24T14:25:50Z</time>
      </trkpt>
      <trkpt lat="49.8677" lon="2.45493">
        <ele>58.8</ele>
        <time>2024-01-24T14:25:51Z</time>
      </trkpt>
      <trkpt lat="49.8677" lon="2.45494">
        <ele>58.8</ele>
        <time>2024-01-24T14:25:52Z</time>
      </trkpt>
      <trkpt lat="49.8677" lon="2.45496">
        <ele>58.9</ele>
        <time>2024-01-24T14:25:53Z</time>
      </trkpt>
      <trkpt lat="49.8677" lon="2.45498">
        <ele>58.9</ele>
        <time>2024-01-24T14:25:54Z</time>
      </trkpt>
      <trkpt lat="49.86771" lon="2.455">
        <ele>58.9</ele>
        <time>2024-01-24T14:25:56Z</time>
      </trkpt>
      <trkpt lat="49.86771" lon="2.45501">
        <ele>58.9</ele>
        <time>2024-01-24T14:25:57Z</time>
      </trkpt>
      <trkpt lat="49.86771" lon="2.45503">
        <ele>58.9</ele>
        <time>2024-01-24T14:25:58Z</time>
      </trkpt>
      <trkpt lat="49.86772" lon="2.45505">
        <ele>58.9</ele>
        <time>2024-01-24T14:25:59Z</time>
      </trkpt>
      <trkpt lat="49.86772" lon="2.45506">
        <ele>58.9</ele>
        <time>2024-01-24T14:26:00Z</time>
      </trkpt>
      <trkpt lat="49.86772" lon="2.45508">
        <ele>58.9</ele>
        <time>2024-01-24T14:26:01Z</time>
      </trkpt>
      <trkpt lat="49.86772" lon="2.4551">
        <ele>58.9</ele>
        <time>2024-01-24T14:26:03Z</time>
      </trkpt>
      <trkpt lat="49.86773" lon="2.45512">
        <ele>58.9</ele>
        <time>2024-01-24T14:26:04Z</time>
      </trkpt>
      <trkpt lat="49.86773" lon="2.45514">
        <ele>58.9</ele>
        <time>2024-01-24T14:26:05Z</time>
      </trkpt>
      <trkpt lat="49.86773" lon="2.45515">
        <ele>58.9</ele>
        <time>2024-01-24T14:26:06Z</time>
      </trkpt>
      <trkpt lat="49.86774" lon="2.45517">
        <ele>58.9</ele>
        <time>2024-01-24T14:26:07Z</time>
      </trkpt>
      <trkpt lat="49.86774" lon="2.4552">
        <ele>58.9</ele>
        <time>2024-01-24T14:26:08Z</time>
      </trkpt>
      <trkpt lat="49.86775" lon="2.45521">
        <ele>58.9</ele>
        <time>2024-01-24T14:26:10Z</time>
      </trkpt>
      <trkpt lat="49.86775" lon="2.45523">
        <ele>58.9</ele>
        <time>2024-01-24T14:26:11Z</time>
      </trkpt>
      <trkpt lat="49.86775" lon="2.45524">
        <ele>58.8</ele>
        <time>2024-01-24T14:26:12Z</time>
      </trkpt>
      <trkpt lat="49.86775" lon="2.45526">
        <ele>58.8</ele>
        <time>2024-01-24T14:26:13Z</time>
      </trkpt>
      <trkpt lat="49.86776" lon="2.45528">
        <ele>58.8</ele>
        <time>2024-01-24T14:26:14Z</time>
      </trkpt>
      <trkpt lat="49.86776" lon="2.4553">
        <ele>58.8</ele>
        <time>2024-01-24T14:26:15Z</time>
      </trkpt>
      <trkpt lat="49.86776" lon="2.45532">
        <ele>58.8</ele>
        <time>2024-01-24T14:26:16Z</time>
      </trkpt>
      <trkpt lat="49.86776" lon="2.45534">
        <ele>58.7</ele>
        <time>2024-01-24T14:26:18Z</time>
      </trkpt>
      <trkpt lat="49.86777" lon="2.45535">
        <ele>58.7</ele>
        <time>2024-01-24T14:26:19Z</time>
      </trkpt>
      <trkpt lat="49.86777" lon="2.45537">
        <ele>58.7</ele>
        <time>2024-01-24T14:26:20Z</time>
      </trkpt>
      <trkpt lat="49.86777" lon="2.45538">
        <ele>58.7</ele>
        <time>2024-01-24T14:26:21Z</time>
      </trkpt>
      <trkpt lat="49.86778" lon="2.45541">
        <ele>58.7</ele>
        <time>2024-01-24T14:26:22Z</time>
      </trkpt>
      <trkpt lat="49.86778" lon="2.45543">
        <ele>58.7</ele>
        <time>2024-01-24T14:26:23Z</time>
      </trkpt>
      <trkpt lat="49.86779" lon="2.45544">
        <ele>58.6</ele>
        <time>2024-01-24T14:26:24Z</time>
      </trkpt>
      <trkpt lat="49.86779" lon="2.45547">
        <ele>58.6</ele>
        <time>2024-01-24T14:26:26Z</time>
      </trkpt>
      <trkpt lat="49.8678" lon="2.45548">
        <ele>58.6</ele>
        <time>2024-01-24T14:26:27Z</time>
      </trkpt>
      <trkpt lat="49.8678" lon="2.4555">
        <ele>58.6</ele>
        <time>2024-01-24T14:26:28Z</time>
      </trkpt>
      <trkpt lat="49.86781" lon="2.45552">
        <ele>58.6</ele>
        <time>2024-01-24T14:26:29Z</time>
      </trkpt>
      <trkpt lat="49.86781" lon="2.45554">
        <ele>58.5</ele>
        <time>2024-01-24T14:26:30Z</time>
      </trkpt>
      <trkpt lat="49.86782" lon="2.45557">
        <ele>58.5</ele>
        <time>2024-01-24T14:26:31Z</time>
      </trkpt>
      <trkpt lat="49.86782" lon="2.45559">
        <ele>58.5</ele>
        <time>2024-01-24T14:26:33Z</time>
      </trkpt>
      <trkpt lat="49.86782" lon="2.4556">
        <ele>58.5</ele>
        <time>2024-01-24T14:26:34Z</time>
      </trkpt>
      <trkpt lat="49.86782" lon="2.45562">
        <ele>58.5</ele>
        <time>2024-01-24T14:26:35Z</time>
      </trkpt>
      <trkpt lat="49.86782" lon="2.45564">
        <ele>58.5</ele>
        <time>2024-01-24T14:26:36Z</time>
      </trkpt>
      <trkpt lat="49.86783" lon="2.45567">
        <ele>58.4</ele>
        <time>2024-01-24T14:26:37Z</time>
      </trkpt>
      <trkpt lat="49.86783" lon="2.45568">
        <ele>58.4</ele>
        <time>2024-01-24T14:26:38Z</time>
      </trkpt>
      <trkpt lat="49.86783" lon="2.45569">
        <ele>58.4</ele>
        <time>2024-01-24T14:26:39Z</time>
      </trkpt>
      <trkpt lat="49.86783" lon="2.45573">
        <ele>58.4</ele>
        <time>2024-01-24T14:26:41Z</time>
      </trkpt>
      <trkpt lat="49.86784" lon="2.45574">
        <ele>58.4</ele>
        <time>2024-01-24T14:26:42Z</time>
      </trkpt>
      <trkpt lat="49.86784" lon="2.45575">
        <ele>58.4</ele>
        <time>2024-01-24T14:26:43Z</time>
      </trkpt>
      <trkpt lat="49.86784" lon="2.45578">
        <ele>58.4</ele>
        <time>2024-01-24T14:26:44Z</time>
      </trkpt>
      <trkpt lat="49.86784" lon="2.4558">
        <ele>58.3</ele>
        <time>2024-01-24T14:26:45Z</time>
      </trkpt>
      <trkpt lat="49.86784" lon="2.45581">
        <ele>58.3</ele>
        <time>2024-01-24T14:26:46Z</time>
      </trkpt>
      <trkpt lat="49.86784" lon="2.45582">
        <ele>58.3</ele>
        <time>2024-01-24T14:26:48Z</time>
      </trkpt>
      <trkpt lat="49.86784" lon="2.45584">
        <ele>58.3</ele>
        <time>2024-01-24T14:26:49Z</time>
      </trkpt>
      <trkpt lat="49.86784" lon="2.45586">
        <ele>58.3</ele>
        <time>2024-01-24T14:26:50Z</time>
      </trkpt>
      <trkpt lat="49.86785" lon="2.45587">
        <ele>58.3</ele>
        <time>2024-01-24T14:26:51Z</time>
      </trkpt>
      <trkpt lat="49.86785" lon="2.45589">
        <ele>58.3</ele>
        <time>2024-01-24T14:26:52Z</time>
      </trkpt>
      <trkpt lat="49.86785" lon="2.4559">
        <ele>58.3</ele>
        <time>2024-01-24T14:26:53Z</time>
      </trkpt>
      <trkpt lat="49.86785" lon="2.45594">
        <ele>58.3</ele>
        <time>2024-01-24T14:26:55Z</time>
      </trkpt>
      <trkpt lat="49.86785" lon="2.45595">
        <ele>58.3</ele>
        <time>2024-01-24T14:26:56Z</time>
      </trkpt>
      <trkpt lat="49.86786" lon="2.45596">
        <ele>58.3</ele>
        <time>2024-01-24T14:26:57Z</time>
      </trkpt>
      <trkpt lat="49.86786" lon="2.45598">
        <ele>58.3</ele>
        <time>2024-01-24T14:26:58Z</time>
      </trkpt>
      <trkpt lat="49.86786" lon="2.45599">
        <ele>58.3</ele>
        <time>2024-01-24T14:26:59Z</time>
      </trkpt>
      <trkpt lat="49.86786" lon="2.45601">
        <ele>58.3</ele>
        <time>2024-01-24T14:27:00Z</time>
      </trkpt>
      <trkpt lat="49.86786" lon="2.45602">
        <ele>58.3</ele>
        <time>2024-01-24T14:27:01Z</time>
      </trkpt>
      <trkpt lat="49.86786" lon="2.45604">
        <ele>58.2</ele>
        <time>2024-01-24T14:27:02Z</time>
      </trkpt>
      <trkpt lat="49.86787" lon="2.45606">
        <ele>58.2</ele>
        <time>2024-01-24T14:27:04Z</time>
      </trkpt>
      <trkpt lat="49.86787" lon="2.45609">
        <ele>58.2</ele>
        <time>2024-01-24T14:27:05Z</time>
      </trkpt>
      <trkpt lat="49.86787" lon="2.45611">
        <ele>58.2</ele>
        <time>2024-01-24T14:27:06Z</time>
      </trkpt>
      <trkpt lat="49.86787" lon="2.45612">
        <ele>58.2</ele>
        <time>2024-01-24T14:27:07Z</time>
      </trkpt>
      <trkpt lat="49.86787" lon="2.45613">
        <ele>58.2</ele>
        <time>2024-01-24T14:27:08Z</time>
      </trkpt>
      <trkpt lat="49.86788" lon="2.45616">
        <ele>58.2</ele>
        <time>2024-01-24T14:27:10Z</time>
      </trkpt>
      <trkpt lat="49.86788" lon="2.45617">
        <ele>58.2</ele>
        <time>2024-01-24T14:27:11Z</time>
      </trkpt>
      <trkpt lat="49.86788" lon="2.45619">
        <ele>58.2</ele>
        <time>2024-01-24T14:27:12Z</time>
      </trkpt>
      <trkpt lat="49.86788" lon="2.45621">
        <ele>58.2</ele>
        <time>2024-01-24T14:27:13Z</time>
      </trkpt>
      <trkpt lat="49.86788" lon="2.45622">
        <ele>58.2</ele>
        <time>2024-01-24T14:27:14Z</time>
      </trkpt>
      <trkpt lat="49.86788" lon="2.45624">
        <ele>58.2</ele>
        <time>2024-01-24T14:27:15Z</time>
      </trkpt>
      <trkpt lat="49.86788" lon="2.45625">
        <ele>58.2</ele>
        <time>2024-01-24T14:27:16Z</time>
      </trkpt>
      <trkpt lat="49.86787" lon="2.45627">
        <ele>58.2</ele>
        <time>2024-01-24T14:27:17Z</time>
      </trkpt>
      <trkpt lat="49.86787" lon="2.45628">
        <ele>58.2</ele>
        <time>2024-01-24T14:27:18Z</time>
      </trkpt>
      <trkpt lat="49.86787" lon="2.4563">
        <ele>58.2</ele>
        <time>2024-01-24T14:27:20Z</time>
      </trkpt>
      <trkpt lat="49.86787" lon="2.45631">
        <ele>58.2</ele>
        <time>2024-01-24T14:27:21Z</time>
      </trkpt>
      <trkpt lat="49.86788" lon="2.45632">
        <ele>58.2</ele>
        <time>2024-01-24T14:27:22Z</time>
      </trkpt>
      <trkpt lat="49.86787" lon="2.45634">
        <ele>58.2</ele>
        <time>2024-01-24T14:27:23Z</time>
      </trkpt>
      <trkpt lat="49.86787" lon="2.45635">
        <ele>58.2</ele>
        <time>2024-01-24T14:27:24Z</time>
      </trkpt>
      <trkpt lat="49.86787" lon="2.45636">
        <ele>58.2</ele>
        <time>2024-01-24T14:27:25Z</time>
      </trkpt>
      <trkpt lat="49.86786" lon="2.45636">
        <ele>58.3</ele>
        <time>2024-01-24T14:27:26Z</time>
      </trkpt>
      <trkpt lat="49.86786" lon="2.45636">
        <ele>58.3</ele>
        <time>2024-01-24T14:27:28Z</time>
      </trkpt>
      <trkpt lat="49.86786" lon="2.45636">
        <ele>58.3</ele>
        <time>2024-01-24T14:27:29Z</time>
      </trkpt>
      <trkpt lat="49.86785" lon="2.45636">
        <ele>58.3</ele>
        <time>2024-01-24T14:27:31Z</time>
      </trkpt>
      <trkpt lat="49.86785" lon="2.45636">
        <ele>58.3</ele>
        <time>2024-01-24T14:27:32Z</time>
      </trkpt>
      <trkpt lat="49.86785" lon="2.45636">
        <ele>58.3</ele>
        <time>2024-01-24T14:27:33Z</time>
      </trkpt>
      <trkpt lat="49.86785" lon="2.45636">
        <ele>58.3</ele>
        <time>2024-01-24T14:27:35Z</time>
      </trkpt>
      <trkpt lat="49.86785" lon="2.45636">
        <ele>58.3</ele>
        <time>2024-01-24T14:27:36Z</time>
      </trkpt>
      <trkpt lat="49.86785" lon="2.45636">
        <ele>58.3</ele>
        <time>2024-01-24T14:27:38Z</time>
      </trkpt>
      <trkpt lat="49.86785" lon="2.45636">
        <ele>58.3</ele>
        <time>2024-01-24T14:27:39Z</time>
      </trkpt>
      <trkpt lat="49.86785" lon="2.45636">
        <ele>58.3</ele>
        <time>2024-01-24T14:27:41Z</time>
      </trkpt>
      <trkpt lat="49.86785" lon="2.45636">
        <ele>58.3</ele>
        <time>2024-01-24T14:27:42Z</time>
      </trkpt>
      <trkpt lat="49.86783" lon="2.45636">
        <ele>58.3</ele>
        <time>2024-01-24T14:28:20Z</time>
      </trkpt>
      <trkpt lat="49.86783" lon="2.45637">
        <ele>58.3</ele>
        <time>2024-01-24T14:28:21Z</time>
      </trkpt>
      <trkpt lat="49.86782" lon="2.45638">
        <ele>58.4</ele>
        <time>2024-01-24T14:28:22Z</time>
      </trkpt>
      <trkpt lat="49.86782" lon="2.45638">
        <ele>58.4</ele>
        <time>2024-01-24T14:28:23Z</time>
      </trkpt>
      <trkpt lat="49.86781" lon="2.45639">
        <ele>58.4</ele>
        <time>2024-01-24T14:28:24Z</time>
      </trkpt>
      <trkpt lat="49.86781" lon="2.45639">
        <ele>58.4</ele>
        <time>2024-01-24T14:28:25Z</time>
      </trkpt>
      <trkpt lat="49.86781" lon="2.45639">
        <ele>58.4</ele>
        <time>2024-01-24T14:28:26Z</time>
      </trkpt>
      <trkpt lat="49.8678" lon="2.4564">
        <ele>58.4</ele>
        <time>2024-01-24T14:28:27Z</time>
      </trkpt>
      <trkpt lat="49.8678" lon="2.4564">
        <ele>58.4</ele>
        <time>2024-01-24T14:28:28Z</time>
      </trkpt>
      <trkpt lat="49.8678" lon="2.45641">
        <ele>58.4</ele>
        <time>2024-01-24T14:28:29Z</time>
      </trkpt>
      <trkpt lat="49.86779" lon="2.45641">
        <ele>58.4</ele>
        <time>2024-01-24T14:28:30Z</time>
      </trkpt>
      <trkpt lat="49.86779" lon="2.45641">
        <ele>58.4</ele>
        <time>2024-01-24T14:28:31Z</time>
      </trkpt>
      <trkpt lat="49.86779" lon="2.45641">
        <ele>58.4</ele>
        <time>2024-01-24T14:28:32Z</time>
      </trkpt>
      <trkpt lat="49.86779" lon="2.45642">
        <ele>58.4</ele>
        <time>2024-01-24T14:28:33Z</time>
      </trkpt>
      <trkpt lat="49.86779" lon="2.45642">
        <ele>58.4</ele>
        <time>2024-01-24T14:28:34Z</time>
      </trkpt>
      <trkpt lat="49.86779" lon="2.45643">
        <ele>58.4</ele>
        <time>2024-01-24T14:28:35Z</time>
      </trkpt>
      <trkpt lat="49.86779" lon="2.45643">
        <ele>58.4</ele>
        <time>2024-01-24T14:28:36Z</time>
      </trkpt>
      <trkpt lat="49.86779" lon="2.45644">
        <ele>58.5</ele>
        <time>2024-01-24T14:28:37Z</time>
      </trkpt>
      <trkpt lat="49.86777" lon="2.45645">
        <ele>58.5</ele>
        <time>2024-01-24T14:28:38Z</time>
      </trkpt>
      <trkpt lat="49.86776" lon="2.45647">
        <ele>58.5</ele>
        <time>2024-01-24T14:28:40Z</time>
      </trkpt>
      <trkpt lat="49.86775" lon="2.45648">
        <ele>58.5</ele>
        <time>2024-01-24T14:28:41Z</time>
      </trkpt>
      <trkpt lat="49.86775" lon="2.45648">
        <ele>58.5</ele>
        <time>2024-01-24T14:28:42Z</time>
      </trkpt>
      <trkpt lat="49.86775" lon="2.45649">
        <ele>58.6</ele>
        <time>2024-01-24T14:28:43Z</time>
      </trkpt>
      <trkpt lat="49.86774" lon="2.4565">
        <ele>58.6</ele>
        <time>2024-01-24T14:28:44Z</time>
      </trkpt>
      <trkpt lat="49.86775" lon="2.4565">
        <ele>58.6</ele>
        <time>2024-01-24T14:28:45Z</time>
      </trkpt>
      <trkpt lat="49.86775" lon="2.45651">
        <ele>58.6</ele>
        <time>2024-01-24T14:28:47Z</time>
      </trkpt>
      <trkpt lat="49.86775" lon="2.45652">
        <ele>58.6</ele>
        <time>2024-01-24T14:28:48Z</time>
      </trkpt>
      <trkpt lat="49.86775" lon="2.45653">
        <ele>58.6</ele>
        <time>2024-01-24T14:28:49Z</time>
      </trkpt>
      <trkpt lat="49.86775" lon="2.45654">
        <ele>58.6</ele>
        <time>2024-01-24T14:28:50Z</time>
      </trkpt>
      <trkpt lat="49.86775" lon="2.45655">
        <ele>58.7</ele>
        <time>2024-01-24T14:28:51Z</time>
      </trkpt>
      <trkpt lat="49.86774" lon="2.45656">
        <ele>58.7</ele>
        <time>2024-01-24T14:28:52Z</time>
      </trkpt>
      <trkpt lat="49.86774" lon="2.45658">
        <ele>58.7</ele>
        <time>2024-01-24T14:28:54Z</time>
      </trkpt>
      <trkpt lat="49.86773" lon="2.45659">
        <ele>58.7</ele>
        <time>2024-01-24T14:28:55Z</time>
      </trkpt>
      <trkpt lat="49.86773" lon="2.4566">
        <ele>58.8</ele>
        <time>2024-01-24T14:28:56Z</time>
      </trkpt>
      <trkpt lat="49.86772" lon="2.45661">
        <ele>58.8</ele>
        <time>2024-01-24T14:28:57Z</time>
      </trkpt>
      <trkpt lat="49.86771" lon="2.45662">
        <ele>58.8</ele>
        <time>2024-01-24T14:28:58Z</time>
      </trkpt>
      <trkpt lat="49.8677" lon="2.45663">
        <ele>58.9</ele>
        <time>2024-01-24T14:29:00Z</time>
      </trkpt>
      <trkpt lat="49.86769" lon="2.45664">
        <ele>58.9</ele>
        <time>2024-01-24T14:29:01Z</time>
      </trkpt>
      <trkpt lat="49.86767" lon="2.45666">
        <ele>59</ele>
        <time>2024-01-24T14:29:02Z</time>
      </trkpt>
      <trkpt lat="49.86766" lon="2.45666">
        <ele>59</ele>
        <time>2024-01-24T14:29:03Z</time>
      </trkpt>
      <trkpt lat="49.86766" lon="2.45667">
        <ele>59.1</ele>
        <time>2024-01-24T14:29:04Z</time>
      </trkpt>
      <trkpt lat="49.86764" lon="2.45668">
        <ele>59.1</ele>
        <time>2024-01-24T14:29:05Z</time>
      </trkpt>
      <trkpt lat="49.86763" lon="2.45669">
        <ele>59.2</ele>
        <time>2024-01-24T14:29:07Z</time>
      </trkpt>
      <trkpt lat="49.86762" lon="2.45669">
        <ele>59.2</ele>
        <time>2024-01-24T14:29:08Z</time>
      </trkpt>
      <trkpt lat="49.8676" lon="2.4567">
        <ele>59.3</ele>
        <time>2024-01-24T14:29:09Z</time>
      </trkpt>
      <trkpt lat="49.8676" lon="2.4567">
        <ele>59.3</ele>
        <time>2024-01-24T14:29:10Z</time>
      </trkpt>
      <trkpt lat="49.86759" lon="2.45671">
        <ele>59.3</ele>
        <time>2024-01-24T14:29:12Z</time>
      </trkpt>
      <trkpt lat="49.86758" lon="2.45671">
        <ele>59.4</ele>
        <time>2024-01-24T14:29:13Z</time>
      </trkpt>
      <trkpt lat="49.86757" lon="2.45672">
        <ele>59.4</ele>
        <time>2024-01-24T14:29:14Z</time>
      </trkpt>
      <trkpt lat="49.86756" lon="2.45673">
        <ele>59.5</ele>
        <time>2024-01-24T14:29:15Z</time>
      </trkpt>
      <trkpt lat="49.86755" lon="2.45673">
        <ele>59.5</ele>
        <time>2024-01-24T14:29:16Z</time>
      </trkpt>
      <trkpt lat="49.86754" lon="2.45674">
        <ele>59.5</ele>
        <time>2024-01-24T14:29:17Z</time>
      </trkpt>
      <trkpt lat="49.86753" lon="2.45675">
        <ele>59.6</ele>
        <time>2024-01-24T14:29:18Z</time>
      </trkpt>
      <trkpt lat="49.86751" lon="2.45676">
        <ele>59.7</ele>
        <time>2024-01-24T14:29:20Z</time>
      </trkpt>
      <trkpt lat="49.86751" lon="2.45677">
        <ele>59.7</ele>
        <time>2024-01-24T14:29:21Z</time>
      </trkpt>
      <trkpt lat="49.8675" lon="2.45677">
        <ele>59.7</ele>
        <time>2024-01-24T14:29:22Z</time>
      </trkpt>
      <trkpt lat="49.86749" lon="2.45678">
        <ele>59.8</ele>
        <time>2024-01-24T14:29:23Z</time>
      </trkpt>
      <trkpt lat="49.86748" lon="2.45679">
        <ele>59.8</ele>
        <time>2024-01-24T14:29:24Z</time>
      </trkpt>
      <trkpt lat="49.86747" lon="2.4568">
        <ele>59.9</ele>
        <time>2024-01-24T14:29:25Z</time>
      </trkpt>
      <trkpt lat="49.86746" lon="2.45681">
        <ele>59.9</ele>
        <time>2024-01-24T14:29:26Z</time>
      </trkpt>
      <trkpt lat="49.86745" lon="2.45682">
        <ele>60</ele>
        <time>2024-01-24T14:29:27Z</time>
      </trkpt>
      <trkpt lat="49.86743" lon="2.45684">
        <ele>60</ele>
        <time>2024-01-24T14:29:29Z</time>
      </trkpt>
      <trkpt lat="49.86742" lon="2.45685">
        <ele>60.1</ele>
        <time>2024-01-24T14:29:30Z</time>
      </trkpt>
      <trkpt lat="49.86741" lon="2.45687">
        <ele>60.1</ele>
        <time>2024-01-24T14:29:31Z</time>
      </trkpt>
      <trkpt lat="49.8674" lon="2.45688">
        <ele>60.2</ele>
        <time>2024-01-24T14:29:32Z</time>
      </trkpt>
      <trkpt lat="49.86739" lon="2.45689">
        <ele>60.3</ele>
        <time>2024-01-24T14:29:33Z</time>
      </trkpt>
      <trkpt lat="49.86737" lon="2.45691">
        <ele>60.3</ele>
        <time>2024-01-24T14:29:35Z</time>
      </trkpt>
      <trkpt lat="49.86736" lon="2.45692">
        <ele>60.4</ele>
        <time>2024-01-24T14:29:36Z</time>
      </trkpt>
      <trkpt lat="49.86735" lon="2.45693">
        <ele>60.4</ele>
        <time>2024-01-24T14:29:37Z</time>
      </trkpt>
      <trkpt lat="49.86733" lon="2.45694">
        <ele>60.5</ele>
        <time>2024-01-24T14:29:38Z</time>
      </trkpt>
      <trkpt lat="49.86732" lon="2.45695">
        <ele>60.5</ele>
        <time>2024-01-24T14:29:39Z</time>
      </trkpt>
      <trkpt lat="49.86732" lon="2.45696">
        <ele>60.6</ele>
        <time>2024-01-24T14:29:40Z</time>
      </trkpt>
      <trkpt lat="49.86731" lon="2.45697">
        <ele>60.6</ele>
        <time>2024-01-24T14:29:42Z</time>
      </trkpt>
      <trkpt lat="49.86729" lon="2.45698">
        <ele>60.7</ele>
        <time>2024-01-24T14:29:43Z</time>
      </trkpt>
      <trkpt lat="49.86728" lon="2.45699">
        <ele>60.7</ele>
        <time>2024-01-24T14:29:44Z</time>
      </trkpt>
      <trkpt lat="49.86727" lon="2.457">
        <ele>60.8</ele>
        <time>2024-01-24T14:29:45Z</time>
      </trkpt>
      <trkpt lat="49.86726" lon="2.45701">
        <ele>60.8</ele>
        <time>2024-01-24T14:29:46Z</time>
      </trkpt>
      <trkpt lat="49.86725" lon="2.45702">
        <ele>60.9</ele>
        <time>2024-01-24T14:29:47Z</time>
      </trkpt>
      <trkpt lat="49.86723" lon="2.45703">
        <ele>60.9</ele>
        <time>2024-01-24T14:29:49Z</time>
      </trkpt>
      <trkpt lat="49.86722" lon="2.45704">
        <ele>61</ele>
        <time>2024-01-24T14:29:50Z</time>
      </trkpt>
      <trkpt lat="49.86721" lon="2.45705">
        <ele>61</ele>
        <time>2024-01-24T14:29:51Z</time>
      </trkpt>
      <trkpt lat="49.8672" lon="2.45706">
        <ele>61.1</ele>
        <time>2024-01-24T14:29:52Z</time>
      </trkpt>
      <trkpt lat="49.86718" lon="2.45706">
        <ele>61.1</ele>
        <time>2024-01-24T14:29:53Z</time>
      </trkpt>
      <trkpt lat="49.86717" lon="2.45707">
        <ele>61.2</ele>
        <time>2024-01-24T14:29:55Z</time>
      </trkpt>
      <trkpt lat="49.86715" lon="2.45708">
        <ele>61.2</ele>
        <time>2024-01-24T14:29:56Z</time>
      </trkpt>
      <trkpt lat="49.86714" lon="2.45709">
        <ele>61.3</ele>
        <time>2024-01-24T14:29:57Z</time>
      </trkpt>
      <trkpt lat="49.86712" lon="2.4571">
        <ele>61.3</ele>
        <time>2024-01-24T14:29:58Z</time>
      </trkpt>
      <trkpt lat="49.86711" lon="2.45711">
        <ele>61.4</ele>
        <time>2024-01-24T14:29:59Z</time>
      </trkpt>
      <trkpt lat="49.86711" lon="2.45711">
        <ele>61.4</ele>
        <time>2024-01-24T14:30:00Z</time>
      </trkpt>
      <trkpt lat="49.86709" lon="2.45712">
        <ele>61.4</ele>
        <time>2024-01-24T14:30:01Z</time>
      </trkpt>
      <trkpt lat="49.86708" lon="2.45713">
        <ele>61.5</ele>
        <time>2024-01-24T14:30:03Z</time>
      </trkpt>
      <trkpt lat="49.86707" lon="2.45715">
        <ele>61.5</ele>
        <time>2024-01-24T14:30:04Z</time>
      </trkpt>
      <trkpt lat="49.86706" lon="2.45716">
        <ele>61.6</ele>
        <time>2024-01-24T14:30:05Z</time>
      </trkpt>
      <trkpt lat="49.86705" lon="2.45716">
        <ele>61.6</ele>
        <time>2024-01-24T14:30:06Z</time>
      </trkpt>
      <trkpt lat="49.86704" lon="2.45717">
        <ele>61.6</ele>
        <time>2024-01-24T14:30:07Z</time>
      </trkpt>
      <trkpt lat="49.86703" lon="2.45718">
        <ele>61.7</ele>
        <time>2024-01-24T14:30:08Z</time>
      </trkpt>
      <trkpt lat="49.86701" lon="2.45719">
        <ele>61.7</ele>
        <time>2024-01-24T14:30:09Z</time>
      </trkpt>
      <trkpt lat="49.867" lon="2.4572">
        <ele>61.8</ele>
        <time>2024-01-24T14:30:11Z</time>
      </trkpt>
      <trkpt lat="49.86699" lon="2.45721">
        <ele>61.8</ele>
        <time>2024-01-24T14:30:13Z</time>
      </trkpt>
      <trkpt lat="49.86698" lon="2.45722">
        <ele>61.9</ele>
        <time>2024-01-24T14:30:14Z</time>
      </trkpt>
      <trkpt lat="49.86697" lon="2.45723">
        <ele>61.9</ele>
        <time>2024-01-24T14:30:15Z</time>
      </trkpt>
      <trkpt lat="49.86696" lon="2.45724">
        <ele>61.9</ele>
        <time>2024-01-24T14:30:16Z</time>
      </trkpt>
      <trkpt lat="49.86696" lon="2.45725">
        <ele>61.9</ele>
        <time>2024-01-24T14:30:17Z</time>
      </trkpt>
      <trkpt lat="49.86695" lon="2.45726">
        <ele>62</ele>
        <time>2024-01-24T14:30:18Z</time>
      </trkpt>
      <trkpt lat="49.86694" lon="2.45727">
        <ele>62</ele>
        <time>2024-01-24T14:30:19Z</time>
      </trkpt>
      <trkpt lat="49.86693" lon="2.45728">
        <ele>62.1</ele>
        <time>2024-01-24T14:30:21Z</time>
      </trkpt>
      <trkpt lat="49.86692" lon="2.45729">
        <ele>62.1</ele>
        <time>2024-01-24T14:30:22Z</time>
      </trkpt>
      <trkpt lat="49.86691" lon="2.4573">
        <ele>62.1</ele>
        <time>2024-01-24T14:30:23Z</time>
      </trkpt>
      <trkpt lat="49.86691" lon="2.45731">
        <ele>62.2</ele>
        <time>2024-01-24T14:30:24Z</time>
      </trkpt>
      <trkpt lat="49.8669" lon="2.45732">
        <ele>62.2</ele>
        <time>2024-01-24T14:30:25Z</time>
      </trkpt>
      <trkpt lat="49.86689" lon="2.45733">
        <ele>62.2</ele>
        <time>2024-01-24T14:30:26Z</time>
      </trkpt>
      <trkpt lat="49.86688" lon="2.45735">
        <ele>62.3</ele>
        <time>2024-01-24T14:30:28Z</time>
      </trkpt>
      <trkpt lat="49.86687" lon="2.45736">
        <ele>62.3</ele>
        <time>2024-01-24T14:30:29Z</time>
      </trkpt>
      <trkpt lat="49.86686" lon="2.45737">
        <ele>62.4</ele>
        <time>2024-01-24T14:30:30Z</time>
      </trkpt>
      <trkpt lat="49.86685" lon="2.45739">
        <ele>62.4</ele>
        <time>2024-01-24T14:30:31Z</time>
      </trkpt>
      <trkpt lat="49.86685" lon="2.4574">
        <ele>62.5</ele>
        <time>2024-01-24T14:30:32Z</time>
      </trkpt>
      <trkpt lat="49.86684" lon="2.45741">
        <ele>62.5</ele>
        <time>2024-01-24T14:30:33Z</time>
      </trkpt>
      <trkpt lat="49.86683" lon="2.45742">
        <ele>62.6</ele>
        <time>2024-01-24T14:30:34Z</time>
      </trkpt>
      <trkpt lat="49.86681" lon="2.45743">
        <ele>62.6</ele>
        <time>2024-01-24T14:30:36Z</time>
      </trkpt>
      <trkpt lat="49.8668" lon="2.45744">
        <ele>62.7</ele>
        <time>2024-01-24T14:30:37Z</time>
      </trkpt>
      <trkpt lat="49.8668" lon="2.45745">
        <ele>62.7</ele>
        <time>2024-01-24T14:30:38Z</time>
      </trkpt>
      <trkpt lat="49.86679" lon="2.45746">
        <ele>62.8</ele>
        <time>2024-01-24T14:30:39Z</time>
      </trkpt>
      <trkpt lat="49.86678" lon="2.45747">
        <ele>62.8</ele>
        <time>2024-01-24T14:30:40Z</time>
      </trkpt>
      <trkpt lat="49.86677" lon="2.45748">
        <ele>62.9</ele>
        <time>2024-01-24T14:30:41Z</time>
      </trkpt>
      <trkpt lat="49.86675" lon="2.45749">
        <ele>63</ele>
        <time>2024-01-24T14:30:43Z</time>
      </trkpt>
      <trkpt lat="49.86674" lon="2.4575">
        <ele>63</ele>
        <time>2024-01-24T14:30:44Z</time>
      </trkpt>
      <trkpt lat="49.86673" lon="2.45751">
        <ele>63.1</ele>
        <time>2024-01-24T14:30:45Z</time>
      </trkpt>
      <trkpt lat="49.86672" lon="2.45752">
        <ele>63.1</ele>
        <time>2024-01-24T14:30:46Z</time>
      </trkpt>
      <trkpt lat="49.86671" lon="2.45753">
        <ele>63.2</ele>
        <time>2024-01-24T14:30:47Z</time>
      </trkpt>
      <trkpt lat="49.8667" lon="2.45754">
        <ele>63.2</ele>
        <time>2024-01-24T14:30:49Z</time>
      </trkpt>
      <trkpt lat="49.86669" lon="2.45756">
        <ele>63.3</ele>
        <time>2024-01-24T14:30:50Z</time>
      </trkpt>
      <trkpt lat="49.86667" lon="2.45758">
        <ele>63.4</ele>
        <time>2024-01-24T14:30:51Z</time>
      </trkpt>
      <trkpt lat="49.86667" lon="2.45759">
        <ele>63.4</ele>
        <time>2024-01-24T14:30:52Z</time>
      </trkpt>
      <trkpt lat="49.86666" lon="2.45759">
        <ele>63.5</ele>
        <time>2024-01-24T14:30:53Z</time>
      </trkpt>
      <trkpt lat="49.86665" lon="2.45761">
        <ele>63.5</ele>
        <time>2024-01-24T14:30:54Z</time>
      </trkpt>
      <trkpt lat="49.86664" lon="2.45762">
        <ele>63.6</ele>
        <time>2024-01-24T14:30:55Z</time>
      </trkpt>
      <trkpt lat="49.86663" lon="2.45764">
        <ele>63.7</ele>
        <time>2024-01-24T14:30:57Z</time>
      </trkpt>
      <trkpt lat="49.86663" lon="2.45766">
        <ele>63.7</ele>
        <time>2024-01-24T14:30:58Z</time>
      </trkpt>
      <trkpt lat="49.86662" lon="2.45767">
        <ele>63.8</ele>
        <time>2024-01-24T14:30:59Z</time>
      </trkpt>
      <trkpt lat="49.86661" lon="2.45769">
        <ele>63.9</ele>
        <time>2024-01-24T14:31:00Z</time>
      </trkpt>
      <trkpt lat="49.86661" lon="2.45771">
        <ele>63.9</ele>
        <time>2024-01-24T14:31:01Z</time>
      </trkpt>
      <trkpt lat="49.8666" lon="2.45773">
        <ele>64</ele>
        <time>2024-01-24T14:31:03Z</time>
      </trkpt>
      <trkpt lat="49.86659" lon="2.45775">
        <ele>64.1</ele>
        <time>2024-01-24T14:31:04Z</time>
      </trkpt>
      <trkpt lat="49.86659" lon="2.45777">
        <ele>64.1</ele>
        <time>2024-01-24T14:31:05Z</time>
      </trkpt>
      <trkpt lat="49.86659" lon="2.45779">
        <ele>64.2</ele>
        <time>2024-01-24T14:31:07Z</time>
      </trkpt>
      <trkpt lat="49.86659" lon="2.45781">
        <ele>64.3</ele>
        <time>2024-01-24T14:31:08Z</time>
      </trkpt>
      <trkpt lat="49.86658" lon="2.45783">
        <ele>64.4</ele>
        <time>2024-01-24T14:31:09Z</time>
      </trkpt>
      <trkpt lat="49.86658" lon="2.45786">
        <ele>64.4</ele>
        <time>2024-01-24T14:31:11Z</time>
      </trkpt>
      <trkpt lat="49.86659" lon="2.45787">
        <ele>64.5</ele>
        <time>2024-01-24T14:31:12Z</time>
      </trkpt>
      <trkpt lat="49.86659" lon="2.45789">
        <ele>64.6</ele>
        <time>2024-01-24T14:31:13Z</time>
      </trkpt>
      <trkpt lat="49.86659" lon="2.45791">
        <ele>64.6</ele>
        <time>2024-01-24T14:31:14Z</time>
      </trkpt>
      <trkpt lat="49.86659" lon="2.45792">
        <ele>64.7</ele>
        <time>2024-01-24T14:31:15Z</time>
      </trkpt>
      <trkpt lat="49.86659" lon="2.45794">
        <ele>64.7</ele>
        <time>2024-01-24T14:31:16Z</time>
      </trkpt>
      <trkpt lat="49.8666" lon="2.45796">
        <ele>64.8</ele>
        <time>2024-01-24T14:31:18Z</time>
      </trkpt>
      <trkpt lat="49.8666" lon="2.45797">
        <ele>64.9</ele>
        <time>2024-01-24T14:31:19Z</time>
      </trkpt>
      <trkpt lat="49.86661" lon="2.45799">
        <ele>64.9</ele>
        <time>2024-01-24T14:31:20Z</time>
      </trkpt>
      <trkpt lat="49.86661" lon="2.458">
        <ele>65</ele>
        <time>2024-01-24T14:31:21Z</time>
      </trkpt>
      <trkpt lat="49.86661" lon="2.45801">
        <ele>65</ele>
        <time>2024-01-24T14:31:22Z</time>
      </trkpt>
      <trkpt lat="49.86661" lon="2.45803">
        <ele>65.1</ele>
        <time>2024-01-24T14:31:24Z</time>
      </trkpt>
      <trkpt lat="49.86662" lon="2.45804">
        <ele>65.1</ele>
        <time>2024-01-24T14:31:25Z</time>
      </trkpt>
      <trkpt lat="49.86662" lon="2.45806">
        <ele>65.2</ele>
        <time>2024-01-24T14:31:26Z</time>
      </trkpt>
      <trkpt lat="49.86662" lon="2.45807">
        <ele>65.2</ele>
        <time>2024-01-24T14:31:28Z</time>
      </trkpt>
      <trkpt lat="49.86663" lon="2.45808">
        <ele>65.3</ele>
        <time>2024-01-24T14:31:29Z</time>
      </trkpt>
      <trkpt lat="49.86663" lon="2.45809">
        <ele>65.3</ele>
        <time>2024-01-24T14:31:30Z</time>
      </trkpt>
      <trkpt lat="49.86663" lon="2.45809">
        <ele>65.3</ele>
        <time>2024-01-24T14:31:31Z</time>
      </trkpt>
      <trkpt lat="49.86664" lon="2.4581">
        <ele>65.4</ele>
        <time>2024-01-24T14:31:32Z</time>
      </trkpt>
      <trkpt lat="49.86664" lon="2.45811">
        <ele>65.4</ele>
        <time>2024-01-24T14:31:33Z</time>
      </trkpt>
      <trkpt lat="49.86664" lon="2.45812">
        <ele>65.4</ele>
        <time>2024-01-24T14:31:34Z</time>
      </trkpt>
      <trkpt lat="49.86664" lon="2.45812">
        <ele>65.5</ele>
        <time>2024-01-24T14:31:36Z</time>
      </trkpt>
      <trkpt lat="49.86663" lon="2.45813">
        <ele>65.5</ele>
        <time>2024-01-24T14:31:37Z</time>
      </trkpt>
      <trkpt lat="49.86663" lon="2.45813">
        <ele>65.5</ele>
        <time>2024-01-24T14:31:38Z</time>
      </trkpt>
      <trkpt lat="49.86663" lon="2.45814">
        <ele>65.5</ele>
        <time>2024-01-24T14:31:39Z</time>
      </trkpt>
      <trkpt lat="49.86663" lon="2.45814">
        <ele>65.5</ele>
        <time>2024-01-24T14:31:40Z</time>
      </trkpt>
      <trkpt lat="49.86663" lon="2.45814">
        <ele>65.5</ele>
        <time>2024-01-24T14:31:41Z</time>
      </trkpt>
      <trkpt lat="49.86663" lon="2.45814">
        <ele>65.6</ele>
        <time>2024-01-24T14:31:43Z</time>
      </trkpt>
      <trkpt lat="49.86664" lon="2.45814">
        <ele>65.6</ele>
        <time>2024-01-24T14:31:44Z</time>
      </trkpt>
      <trkpt lat="49.86664" lon="2.45815">
        <ele>65.6</ele>
        <time>2024-01-24T14:31:45Z</time>
      </trkpt>
      <trkpt lat="49.86664" lon="2.45816">
        <ele>65.6</ele>
        <time>2024-01-24T14:31:46Z</time>
      </trkpt>
      <trkpt lat="49.86664" lon="2.45816">
        <ele>65.7</ele>
        <time>2024-01-24T14:31:47Z</time>
      </trkpt>
      <trkpt lat="49.86664" lon="2.45817">
        <ele>65.7</ele>
        <time>2024-01-24T14:31:48Z</time>
      </trkpt>
      <trkpt lat="49.86664" lon="2.45818">
        <ele>65.7</ele>
        <time>2024-01-24T14:31:49Z</time>
      </trkpt>
      <trkpt lat="49.86664" lon="2.45819">
        <ele>65.7</ele>
        <time>2024-01-24T14:31:50Z</time>
      </trkpt>
      <trkpt lat="49.86665" lon="2.4582">
        <ele>65.8</ele>
        <time>2024-01-24T14:31:52Z</time>
      </trkpt>
      <trkpt lat="49.86665" lon="2.45821">
        <ele>65.8</ele>
        <time>2024-01-24T14:31:53Z</time>
      </trkpt>
      <trkpt lat="49.86665" lon="2.45822">
        <ele>65.9</ele>
        <time>2024-01-24T14:31:54Z</time>
      </trkpt>
      <trkpt lat="49.86665" lon="2.45823">
        <ele>65.9</ele>
        <time>2024-01-24T14:31:55Z</time>
      </trkpt>
      <trkpt lat="49.86665" lon="2.45824">
        <ele>65.9</ele>
        <time>2024-01-24T14:31:56Z</time>
      </trkpt>
      <trkpt lat="49.86665" lon="2.45825">
        <ele>66</ele>
        <time>2024-01-24T14:31:57Z</time>
      </trkpt>
      <trkpt lat="49.86665" lon="2.45826">
        <ele>66</ele>
        <time>2024-01-24T14:31:59Z</time>
      </trkpt>
      <trkpt lat="49.86665" lon="2.45827">
        <ele>66.1</ele>
        <time>2024-01-24T14:32:00Z</time>
      </trkpt>
      <trkpt lat="49.86665" lon="2.45828">
        <ele>66.1</ele>
        <time>2024-01-24T14:32:01Z</time>
      </trkpt>
      <trkpt lat="49.86665" lon="2.4583">
        <ele>66.2</ele>
        <time>2024-01-24T14:32:02Z</time>
      </trkpt>
      <trkpt lat="49.86665" lon="2.45831">
        <ele>66.2</ele>
        <time>2024-01-24T14:32:03Z</time>
      </trkpt>
      <trkpt lat="49.86665" lon="2.45832">
        <ele>66.2</ele>
        <time>2024-01-24T14:32:04Z</time>
      </trkpt>
      <trkpt lat="49.86665" lon="2.45833">
        <ele>66.3</ele>
        <time>2024-01-24T14:32:05Z</time>
      </trkpt>
      <trkpt lat="49.86665" lon="2.45835">
        <ele>66.3</ele>
        <time>2024-01-24T14:32:07Z</time>
      </trkpt>
      <trkpt lat="49.86665" lon="2.45836">
        <ele>66.4</ele>
        <time>2024-01-24T14:32:08Z</time>
      </trkpt>
      <trkpt lat="49.86664" lon="2.45838">
        <ele>66.4</ele>
        <time>2024-01-24T14:32:09Z</time>
      </trkpt>
      <trkpt lat="49.86664" lon="2.45839">
        <ele>66.5</ele>
        <time>2024-01-24T14:32:10Z</time>
      </trkpt>
      <trkpt lat="49.86664" lon="2.4584">
        <ele>66.5</ele>
        <time>2024-01-24T14:32:11Z</time>
      </trkpt>
      <trkpt lat="49.86664" lon="2.45841">
        <ele>66.6</ele>
        <time>2024-01-24T14:32:12Z</time>
      </trkpt>
      <trkpt lat="49.86664" lon="2.45843">
        <ele>66.7</ele>
        <time>2024-01-24T14:32:14Z</time>
      </trkpt>
      <trkpt lat="49.86663" lon="2.45845">
        <ele>66.7</ele>
        <time>2024-01-24T14:32:15Z</time>
      </trkpt>
      <trkpt lat="49.86663" lon="2.45846">
        <ele>66.8</ele>
        <time>2024-01-24T14:32:16Z</time>
      </trkpt>
      <trkpt lat="49.86663" lon="2.45848">
        <ele>66.9</ele>
        <time>2024-01-24T14:32:17Z</time>
      </trkpt>
      <trkpt lat="49.86663" lon="2.4585">
        <ele>66.9</ele>
        <time>2024-01-24T14:32:18Z</time>
      </trkpt>
      <trkpt lat="49.86663" lon="2.45851">
        <ele>67</ele>
        <time>2024-01-24T14:32:20Z</time>
      </trkpt>
      <trkpt lat="49.86663" lon="2.45852">
        <ele>67</ele>
        <time>2024-01-24T14:32:21Z</time>
      </trkpt>
      <trkpt lat="49.86663" lon="2.45854">
        <ele>67</ele>
        <time>2024-01-24T14:32:22Z</time>
      </trkpt>
      <trkpt lat="49.86662" lon="2.45855">
        <ele>67.1</ele>
        <time>2024-01-24T14:32:24Z</time>
      </trkpt>
      <trkpt lat="49.86662" lon="2.45856">
        <ele>67.1</ele>
        <time>2024-01-24T14:32:25Z</time>
      </trkpt>
      <trkpt lat="49.86663" lon="2.45857">
        <ele>67.2</ele>
        <time>2024-01-24T14:32:26Z</time>
      </trkpt>
      <trkpt lat="49.86663" lon="2.45858">
        <ele>67.2</ele>
        <time>2024-01-24T14:32:27Z</time>
      </trkpt>
      <trkpt lat="49.86663" lon="2.4586">
        <ele>67.3</ele>
        <time>2024-01-24T14:32:29Z</time>
      </trkpt>
      <trkpt lat="49.86664" lon="2.45861">
        <ele>67.3</ele>
        <time>2024-01-24T14:32:30Z</time>
      </trkpt>
      <trkpt lat="49.86664" lon="2.45862">
        <ele>67.4</ele>
        <time>2024-01-24T14:32:31Z</time>
      </trkpt>
      <trkpt lat="49.86664" lon="2.45863">
        <ele>67.4</ele>
        <time>2024-01-24T14:32:32Z</time>
      </trkpt>
      <trkpt lat="49.86664" lon="2.45864">
        <ele>67.4</ele>
        <time>2024-01-24T14:32:33Z</time>
      </trkpt>
      <trkpt lat="49.86663" lon="2.45865">
        <ele>67.5</ele>
        <time>2024-01-24T14:32:34Z</time>
      </trkpt>
      <trkpt lat="49.86663" lon="2.45867">
        <ele>67.5</ele>
        <time>2024-01-24T14:32:36Z</time>
      </trkpt>
      <trkpt lat="49.86663" lon="2.45868">
        <ele>67.6</ele>
        <time>2024-01-24T14:32:37Z</time>
      </trkpt>
      <trkpt lat="49.86664" lon="2.45869">
        <ele>67.6</ele>
        <time>2024-01-24T14:32:39Z</time>
      </trkpt>
      <trkpt lat="49.86664" lon="2.4587">
        <ele>67.7</ele>
        <time>2024-01-24T14:32:40Z</time>
      </trkpt>
      <trkpt lat="49.86664" lon="2.45871">
        <ele>67.7</ele>
        <time>2024-01-24T14:32:41Z</time>
      </trkpt>
      <trkpt lat="49.86663" lon="2.45871">
        <ele>67.7</ele>
        <time>2024-01-24T14:32:42Z</time>
      </trkpt>
      <trkpt lat="49.86663" lon="2.45872">
        <ele>67.8</ele>
        <time>2024-01-24T14:32:44Z</time>
      </trkpt>
      <trkpt lat="49.86662" lon="2.45872">
        <ele>67.8</ele>
        <time>2024-01-24T14:32:45Z</time>
      </trkpt>
      <trkpt lat="49.86662" lon="2.45872">
        <ele>67.8</ele>
        <time>2024-01-24T14:32:47Z</time>
      </trkpt>
      <trkpt lat="49.86662" lon="2.45872">
        <ele>67.8</ele>
        <time>2024-01-24T14:32:48Z</time>
      </trkpt>
      <trkpt lat="49.86662" lon="2.45871">
        <ele>67.8</ele>
        <time>2024-01-24T14:32:50Z</time>
      </trkpt>
      <trkpt lat="49.86662" lon="2.45871">
        <ele>67.8</ele>
        <time>2024-01-24T14:32:51Z</time>
      </trkpt>
      <trkpt lat="49.86662" lon="2.45871">
        <ele>67.9</ele>
        <time>2024-01-24T14:32:53Z</time>
      </trkpt>
      <trkpt lat="49.86662" lon="2.45871">
        <ele>67.9</ele>
        <time>2024-01-24T14:32:54Z</time>
      </trkpt>
      <trkpt lat="49.86662" lon="2.45871">
        <ele>67.9</ele>
        <time>2024-01-24T14:32:55Z</time>
      </trkpt>
      <trkpt lat="49.86663" lon="2.45871">
        <ele>67.9</ele>
        <time>2024-01-24T14:32:56Z</time>
      </trkpt>
      <trkpt lat="49.86663" lon="2.45871">
        <ele>67.9</ele>
        <time>2024-01-24T14:32:57Z</time>
      </trkpt>
      <trkpt lat="49.86663" lon="2.45871">
        <ele>67.9</ele>
        <time>2024-01-24T14:32:59Z</time>
      </trkpt>
      <trkpt lat="49.86664" lon="2.45872">
        <ele>68</ele>
        <time>2024-01-24T14:33:00Z</time>
      </trkpt>
      <trkpt lat="49.86664" lon="2.45873">
        <ele>68</ele>
        <time>2024-01-24T14:33:01Z</time>
      </trkpt>
      <trkpt lat="49.86664" lon="2.45874">
        <ele>68</ele>
        <time>2024-01-24T14:33:02Z</time>
      </trkpt>
      <trkpt lat="49.86663" lon="2.45874">
        <ele>68.1</ele>
        <time>2024-01-24T14:33:03Z</time>
      </trkpt>
      <trkpt lat="49.86663" lon="2.45875">
        <ele>68.1</ele>
        <time>2024-01-24T14:33:04Z</time>
      </trkpt>
      <trkpt lat="49.86661" lon="2.45876">
        <ele>68.2</ele>
        <time>2024-01-24T14:33:06Z</time>
      </trkpt>
      <trkpt lat="49.86661" lon="2.45877">
        <ele>68.2</ele>
        <time>2024-01-24T14:33:07Z</time>
      </trkpt>
      <trkpt lat="49.8666" lon="2.45877">
        <ele>68.3</ele>
        <time>2024-01-24T14:33:08Z</time>
      </trkpt>
      <trkpt lat="49.86659" lon="2.45878">
        <ele>68.3</ele>
        <time>2024-01-24T14:33:10Z</time>
      </trkpt>
      <trkpt lat="49.86659" lon="2.45879">
        <ele>68.4</ele>
        <time>2024-01-24T14:33:11Z</time>
      </trkpt>
      <trkpt lat="49.86658" lon="2.4588">
        <ele>68.4</ele>
        <time>2024-01-24T14:33:14Z</time>
      </trkpt>
      <trkpt lat="49.8666" lon="2.4588">
        <ele>68.5</ele>
        <time>2024-01-24T14:33:15Z</time>
      </trkpt>
      <trkpt lat="49.8666" lon="2.4588">
        <ele>68.5</ele>
        <time>2024-01-24T14:33:16Z</time>
      </trkpt>
      <trkpt lat="49.8666" lon="2.4588">
        <ele>68.5</ele>
        <time>2024-01-24T14:33:17Z</time>
      </trkpt>
      <trkpt lat="49.8666" lon="2.45881">
        <ele>68.5</ele>
        <time>2024-01-24T14:33:19Z</time>
      </trkpt>
      <trkpt lat="49.86661" lon="2.45881">
        <ele>68.5</ele>
        <time>2024-01-24T14:33:20Z</time>
      </trkpt>
      <trkpt lat="49.86661" lon="2.45881">
        <ele>68.5</ele>
        <time>2024-01-24T14:33:22Z</time>
      </trkpt>
      <trkpt lat="49.86661" lon="2.45881">
        <ele>68.6</ele>
        <time>2024-01-24T14:33:25Z</time>
      </trkpt>
      <trkpt lat="49.86662" lon="2.45886">
        <ele>68.8</ele>
        <time>2024-01-24T14:34:40Z</time>
      </trkpt>
      <trkpt lat="49.86662" lon="2.45889">
        <ele>68.8</ele>
        <time>2024-01-24T14:34:41Z</time>
      </trkpt>
      <trkpt lat="49.86662" lon="2.45891">
        <ele>68.9</ele>
        <time>2024-01-24T14:34:42Z</time>
      </trkpt>
      <trkpt lat="49.86661" lon="2.45896">
        <ele>69.1</ele>
        <time>2024-01-24T14:34:44Z</time>
      </trkpt>
      <trkpt lat="49.86661" lon="2.45897">
        <ele>69.2</ele>
        <time>2024-01-24T14:34:45Z</time>
      </trkpt>
      <trkpt lat="49.86661" lon="2.459">
        <ele>69.2</ele>
        <time>2024-01-24T14:34:46Z</time>
      </trkpt>
      <trkpt lat="49.8666" lon="2.45902">
        <ele>69.3</ele>
        <time>2024-01-24T14:34:47Z</time>
      </trkpt>
      <trkpt lat="49.8666" lon="2.45904">
        <ele>69.4</ele>
        <time>2024-01-24T14:34:49Z</time>
      </trkpt>
      <trkpt lat="49.8666" lon="2.45906">
        <ele>69.5</ele>
        <time>2024-01-24T14:34:50Z</time>
      </trkpt>
      <trkpt lat="49.86659" lon="2.45907">
        <ele>69.5</ele>
        <time>2024-01-24T14:34:51Z</time>
      </trkpt>
      <trkpt lat="49.86659" lon="2.45909">
        <ele>69.6</ele>
        <time>2024-01-24T14:34:52Z</time>
      </trkpt>
      <trkpt lat="49.86658" lon="2.4591">
        <ele>69.7</ele>
        <time>2024-01-24T14:34:53Z</time>
      </trkpt>
      <trkpt lat="49.86657" lon="2.45911">
        <ele>69.7</ele>
        <time>2024-01-24T14:34:54Z</time>
      </trkpt>
      <trkpt lat="49.86657" lon="2.45912">
        <ele>69.8</ele>
        <time>2024-01-24T14:34:55Z</time>
      </trkpt>
      <trkpt lat="49.86657" lon="2.45913">
        <ele>69.8</ele>
        <time>2024-01-24T14:34:56Z</time>
      </trkpt>
      <trkpt lat="49.86657" lon="2.45914">
        <ele>69.8</ele>
        <time>2024-01-24T14:34:58Z</time>
      </trkpt>
      <trkpt lat="49.86657" lon="2.45916">
        <ele>69.9</ele>
        <time>2024-01-24T14:34:59Z</time>
      </trkpt>
      <trkpt lat="49.86657" lon="2.45917">
        <ele>69.9</ele>
        <time>2024-01-24T14:35:00Z</time>
      </trkpt>
      <trkpt lat="49.86657" lon="2.45918">
        <ele>70</ele>
        <time>2024-01-24T14:35:01Z</time>
      </trkpt>
      <trkpt lat="49.86657" lon="2.45919">
        <ele>70</ele>
        <time>2024-01-24T14:35:02Z</time>
      </trkpt>
      <trkpt lat="49.86657" lon="2.4592">
        <ele>70.1</ele>
        <time>2024-01-24T14:35:03Z</time>
      </trkpt>
      <trkpt lat="49.86657" lon="2.45922">
        <ele>70.1</ele>
        <time>2024-01-24T14:35:05Z</time>
      </trkpt>
      <trkpt lat="49.86657" lon="2.45924">
        <ele>70.2</ele>
        <time>2024-01-24T14:35:06Z</time>
      </trkpt>
      <trkpt lat="49.86657" lon="2.45925">
        <ele>70.2</ele>
        <time>2024-01-24T14:35:07Z</time>
      </trkpt>
      <trkpt lat="49.86657" lon="2.45927">
        <ele>70.3</ele>
        <time>2024-01-24T14:35:08Z</time>
      </trkpt>
      <trkpt lat="49.86656" lon="2.45928">
        <ele>70.3</ele>
        <time>2024-01-24T14:35:09Z</time>
      </trkpt>
      <trkpt lat="49.86656" lon="2.45929">
        <ele>70.4</ele>
        <time>2024-01-24T14:35:11Z</time>
      </trkpt>
      <trkpt lat="49.86655" lon="2.45931">
        <ele>70.5</ele>
        <time>2024-01-24T14:35:12Z</time>
      </trkpt>
      <trkpt lat="49.86655" lon="2.45933">
        <ele>70.5</ele>
        <time>2024-01-24T14:35:13Z</time>
      </trkpt>
      <trkpt lat="49.86655" lon="2.45934">
        <ele>70.6</ele>
        <time>2024-01-24T14:35:14Z</time>
      </trkpt>
      <trkpt lat="49.86655" lon="2.45935">
        <ele>70.6</ele>
        <time>2024-01-24T14:35:15Z</time>
      </trkpt>
      <trkpt lat="49.86654" lon="2.45937">
        <ele>70.7</ele>
        <time>2024-01-24T14:35:16Z</time>
      </trkpt>
      <trkpt lat="49.86654" lon="2.45939">
        <ele>70.8</ele>
        <time>2024-01-24T14:35:17Z</time>
      </trkpt>
      <trkpt lat="49.86654" lon="2.4594">
        <ele>70.8</ele>
        <time>2024-01-24T14:35:18Z</time>
      </trkpt>
      <trkpt lat="49.86654" lon="2.45942">
        <ele>70.9</ele>
        <time>2024-01-24T14:35:20Z</time>
      </trkpt>
      <trkpt lat="49.86653" lon="2.45944">
        <ele>71</ele>
        <time>2024-01-24T14:35:21Z</time>
      </trkpt>
      <trkpt lat="49.86653" lon="2.45945">
        <ele>71</ele>
        <time>2024-01-24T14:35:22Z</time>
      </trkpt>
      <trkpt lat="49.86653" lon="2.45947">
        <ele>71.1</ele>
        <time>2024-01-24T14:35:23Z</time>
      </trkpt>
      <trkpt lat="49.86652" lon="2.45948">
        <ele>71.1</ele>
        <time>2024-01-24T14:35:24Z</time>
      </trkpt>
      <trkpt lat="49.86652" lon="2.45951">
        <ele>71.3</ele>
        <time>2024-01-24T14:35:26Z</time>
      </trkpt>
      <trkpt lat="49.86652" lon="2.45952">
        <ele>71.3</ele>
        <time>2024-01-24T14:35:27Z</time>
      </trkpt>
      <trkpt lat="49.86651" lon="2.45954">
        <ele>71.4</ele>
        <time>2024-01-24T14:35:28Z</time>
      </trkpt>
      <trkpt lat="49.86651" lon="2.45955">
        <ele>71.5</ele>
        <time>2024-01-24T14:35:29Z</time>
      </trkpt>
      <trkpt lat="49.86651" lon="2.45957">
        <ele>71.5</ele>
        <time>2024-01-24T14:35:30Z</time>
      </trkpt>
      <trkpt lat="49.86651" lon="2.45959">
        <ele>71.6</ele>
        <time>2024-01-24T14:35:32Z</time>
      </trkpt>
      <trkpt lat="49.86651" lon="2.45961">
        <ele>71.7</ele>
        <time>2024-01-24T14:35:34Z</time>
      </trkpt>
      <trkpt lat="49.8665" lon="2.45963">
        <ele>71.8</ele>
        <time>2024-01-24T14:35:35Z</time>
      </trkpt>
      <trkpt lat="49.8665" lon="2.45966">
        <ele>71.9</ele>
        <time>2024-01-24T14:35:36Z</time>
      </trkpt>
      <trkpt lat="49.8665" lon="2.45968">
        <ele>72.1</ele>
        <time>2024-01-24T14:35:37Z</time>
      </trkpt>
      <trkpt lat="49.8665" lon="2.4597">
        <ele>72.1</ele>
        <time>2024-01-24T14:35:38Z</time>
      </trkpt>
      <trkpt lat="49.8665" lon="2.45972">
        <ele>72.3</ele>
        <time>2024-01-24T14:35:39Z</time>
      </trkpt>
      <trkpt lat="49.8665" lon="2.45974">
        <ele>72.4</ele>
        <time>2024-01-24T14:35:40Z</time>
      </trkpt>
      <trkpt lat="49.8665" lon="2.45977">
        <ele>72.5</ele>
        <time>2024-01-24T14:35:42Z</time>
      </trkpt>
      <trkpt lat="49.8665" lon="2.45979">
        <ele>72.6</ele>
        <time>2024-01-24T14:35:43Z</time>
      </trkpt>
      <trkpt lat="49.8665" lon="2.45981">
        <ele>72.7</ele>
        <time>2024-01-24T14:35:44Z</time>
      </trkpt>
      <trkpt lat="49.86649" lon="2.45984">
        <ele>72.9</ele>
        <time>2024-01-24T14:35:45Z</time>
      </trkpt>
      <trkpt lat="49.86649" lon="2.45986">
        <ele>73</ele>
        <time>2024-01-24T14:35:46Z</time>
      </trkpt>
      <trkpt lat="49.86649" lon="2.45988">
        <ele>73.1</ele>
        <time>2024-01-24T14:35:47Z</time>
      </trkpt>
      <trkpt lat="49.86649" lon="2.45991">
        <ele>73.2</ele>
        <time>2024-01-24T14:35:49Z</time>
      </trkpt>
      <trkpt lat="49.86649" lon="2.45993">
        <ele>73.3</ele>
        <time>2024-01-24T14:35:50Z</time>
      </trkpt>
      <trkpt lat="49.86648" lon="2.45995">
        <ele>73.4</ele>
        <time>2024-01-24T14:35:51Z</time>
      </trkpt>
      <trkpt lat="49.86648" lon="2.45996">
        <ele>73.5</ele>
        <time>2024-01-24T14:35:52Z</time>
      </trkpt>
      <trkpt lat="49.86648" lon="2.45998">
        <ele>73.6</ele>
        <time>2024-01-24T14:35:53Z</time>
      </trkpt>
      <trkpt lat="49.86648" lon="2.46">
        <ele>73.7</ele>
        <time>2024-01-24T14:35:54Z</time>
      </trkpt>
      <trkpt lat="49.86647" lon="2.46004">
        <ele>73.9</ele>
        <time>2024-01-24T14:35:56Z</time>
      </trkpt>
      <trkpt lat="49.86647" lon="2.46005">
        <ele>74</ele>
        <time>2024-01-24T14:35:57Z</time>
      </trkpt>
      <trkpt lat="49.86647" lon="2.46006">
        <ele>74</ele>
        <time>2024-01-24T14:35:58Z</time>
      </trkpt>
      <trkpt lat="49.86646" lon="2.46007">
        <ele>74.1</ele>
        <time>2024-01-24T14:35:59Z</time>
      </trkpt>
      <trkpt lat="49.86646" lon="2.46009">
        <ele>74.2</ele>
        <time>2024-01-24T14:36:00Z</time>
      </trkpt>
      <trkpt lat="49.86646" lon="2.46011">
        <ele>74.3</ele>
        <time>2024-01-24T14:36:01Z</time>
      </trkpt>
      <trkpt lat="49.86646" lon="2.46012">
        <ele>74.4</ele>
        <time>2024-01-24T14:36:03Z</time>
      </trkpt>
      <trkpt lat="49.86646" lon="2.46014">
        <ele>74.5</ele>
        <time>2024-01-24T14:36:04Z</time>
      </trkpt>
      <trkpt lat="49.86645" lon="2.46016">
        <ele>74.6</ele>
        <time>2024-01-24T14:36:05Z</time>
      </trkpt>
      <trkpt lat="49.86645" lon="2.46018">
        <ele>74.7</ele>
        <time>2024-01-24T14:36:06Z</time>
      </trkpt>
      <trkpt lat="49.86645" lon="2.46019">
        <ele>74.8</ele>
        <time>2024-01-24T14:36:07Z</time>
      </trkpt>
      <trkpt lat="49.86645" lon="2.46021">
        <ele>74.9</ele>
        <time>2024-01-24T14:36:08Z</time>
      </trkpt>
      <trkpt lat="49.86645" lon="2.46024">
        <ele>75</ele>
        <time>2024-01-24T14:36:09Z</time>
      </trkpt>
      <trkpt lat="49.86645" lon="2.46025">
        <ele>75.1</ele>
        <time>2024-01-24T14:36:11Z</time>
      </trkpt>
      <trkpt lat="49.86644" lon="2.46027">
        <ele>75.2</ele>
        <time>2024-01-24T14:36:12Z</time>
      </trkpt>
      <trkpt lat="49.86644" lon="2.46029">
        <ele>75.3</ele>
        <time>2024-01-24T14:36:13Z</time>
      </trkpt>
      <trkpt lat="49.86644" lon="2.4603">
        <ele>75.3</ele>
        <time>2024-01-24T14:36:14Z</time>
      </trkpt>
      <trkpt lat="49.86644" lon="2.46032">
        <ele>75.4</ele>
        <time>2024-01-24T14:36:15Z</time>
      </trkpt>
      <trkpt lat="49.86644" lon="2.46035">
        <ele>75.6</ele>
        <time>2024-01-24T14:36:17Z</time>
      </trkpt>
      <trkpt lat="49.86644" lon="2.46037">
        <ele>75.7</ele>
        <time>2024-01-24T14:36:18Z</time>
      </trkpt>
      <trkpt lat="49.86643" lon="2.46038">
        <ele>75.7</ele>
        <time>2024-01-24T14:36:19Z</time>
      </trkpt>
      <trkpt lat="49.86643" lon="2.46039">
        <ele>75.8</ele>
        <time>2024-01-24T14:36:20Z</time>
      </trkpt>
      <trkpt lat="49.86643" lon="2.46041">
        <ele>75.9</ele>
        <time>2024-01-24T14:36:21Z</time>
      </trkpt>
      <trkpt lat="49.86643" lon="2.46043">
        <ele>76</ele>
        <time>2024-01-24T14:36:22Z</time>
      </trkpt>
      <trkpt lat="49.86643" lon="2.46046">
        <ele>76.2</ele>
        <time>2024-01-24T14:36:24Z</time>
      </trkpt>
      <trkpt lat="49.86643" lon="2.46047">
        <ele>76.2</ele>
        <time>2024-01-24T14:36:25Z</time>
      </trkpt>
      <trkpt lat="49.86643" lon="2.46048">
        <ele>76.3</ele>
        <time>2024-01-24T14:36:26Z</time>
      </trkpt>
      <trkpt lat="49.86643" lon="2.4605">
        <ele>76.4</ele>
        <time>2024-01-24T14:36:27Z</time>
      </trkpt>
      <trkpt lat="49.86643" lon="2.46051">
        <ele>76.5</ele>
        <time>2024-01-24T14:36:28Z</time>
      </trkpt>
      <trkpt lat="49.86643" lon="2.46053">
        <ele>76.5</ele>
        <time>2024-01-24T14:36:29Z</time>
      </trkpt>
      <trkpt lat="49.86643" lon="2.46055">
        <ele>76.6</ele>
        <time>2024-01-24T14:36:31Z</time>
      </trkpt>
      <trkpt lat="49.86643" lon="2.46056">
        <ele>76.7</ele>
        <time>2024-01-24T14:36:32Z</time>
      </trkpt>
      <trkpt lat="49.86643" lon="2.46057">
        <ele>76.8</ele>
        <time>2024-01-24T14:36:33Z</time>
      </trkpt>
      <trkpt lat="49.86643" lon="2.46059">
        <ele>76.8</ele>
        <time>2024-01-24T14:36:34Z</time>
      </trkpt>
      <trkpt lat="49.86644" lon="2.4606">
        <ele>76.9</ele>
        <time>2024-01-24T14:36:35Z</time>
      </trkpt>
      <trkpt lat="49.86644" lon="2.46061">
        <ele>77</ele>
        <time>2024-01-24T14:36:36Z</time>
      </trkpt>
      <trkpt lat="49.86644" lon="2.46063">
        <ele>77.1</ele>
        <time>2024-01-24T14:36:37Z</time>
      </trkpt>
      <trkpt lat="49.86644" lon="2.46064">
        <ele>77.1</ele>
        <time>2024-01-24T14:36:38Z</time>
      </trkpt>
      <trkpt lat="49.86644" lon="2.46066">
        <ele>77.2</ele>
        <time>2024-01-24T14:36:39Z</time>
      </trkpt>
      <trkpt lat="49.86644" lon="2.46067">
        <ele>77.3</ele>
        <time>2024-01-24T14:36:41Z</time>
      </trkpt>
      <trkpt lat="49.86643" lon="2.46069">
        <ele>77.4</ele>
        <time>2024-01-24T14:36:42Z</time>
      </trkpt>
      <trkpt lat="49.86643" lon="2.4607">
        <ele>77.5</ele>
        <time>2024-01-24T14:36:43Z</time>
      </trkpt>
      <trkpt lat="49.86643" lon="2.46072">
        <ele>77.5</ele>
        <time>2024-01-24T14:36:44Z</time>
      </trkpt>
      <trkpt lat="49.86643" lon="2.46073">
        <ele>77.6</ele>
        <time>2024-01-24T14:36:45Z</time>
      </trkpt>
      <trkpt lat="49.86642" lon="2.46074">
        <ele>77.6</ele>
        <time>2024-01-24T14:36:46Z</time>
      </trkpt>
      <trkpt lat="49.86642" lon="2.46075">
        <ele>77.7</ele>
        <time>2024-01-24T14:36:48Z</time>
      </trkpt>
      <trkpt lat="49.86642" lon="2.46077">
        <ele>77.8</ele>
        <time>2024-01-24T14:36:49Z</time>
      </trkpt>
      <trkpt lat="49.86641" lon="2.46078">
        <ele>77.8</ele>
        <time>2024-01-24T14:36:50Z</time>
      </trkpt>
      <trkpt lat="49.86641" lon="2.46079">
        <ele>77.9</ele>
        <time>2024-01-24T14:36:52Z</time>
      </trkpt>
      <trkpt lat="49.86641" lon="2.46081">
        <ele>78</ele>
        <time>2024-01-24T14:36:53Z</time>
      </trkpt>
      <trkpt lat="49.8664" lon="2.46082">
        <ele>78.1</ele>
        <time>2024-01-24T14:36:54Z</time>
      </trkpt>
      <trkpt lat="49.8664" lon="2.46084">
        <ele>78.1</ele>
        <time>2024-01-24T14:36:55Z</time>
      </trkpt>
      <trkpt lat="49.86639" lon="2.46085">
        <ele>78.2</ele>
        <time>2024-01-24T14:36:56Z</time>
      </trkpt>
      <trkpt lat="49.86639" lon="2.46086">
        <ele>78.3</ele>
        <time>2024-01-24T14:36:57Z</time>
      </trkpt>
      <trkpt lat="49.86638" lon="2.46088">
        <ele>78.3</ele>
        <time>2024-01-24T14:36:59Z</time>
      </trkpt>
      <trkpt lat="49.86638" lon="2.46089">
        <ele>78.4</ele>
        <time>2024-01-24T14:37:00Z</time>
      </trkpt>
      <trkpt lat="49.86637" lon="2.4609">
        <ele>78.5</ele>
        <time>2024-01-24T14:37:01Z</time>
      </trkpt>
      <trkpt lat="49.86637" lon="2.46092">
        <ele>78.6</ele>
        <time>2024-01-24T14:37:02Z</time>
      </trkpt>
      <trkpt lat="49.86636" lon="2.46093">
        <ele>78.6</ele>
        <time>2024-01-24T14:37:03Z</time>
      </trkpt>
      <trkpt lat="49.86636" lon="2.46094">
        <ele>78.7</ele>
        <time>2024-01-24T14:37:04Z</time>
      </trkpt>
      <trkpt lat="49.86635" lon="2.46095">
        <ele>78.8</ele>
        <time>2024-01-24T14:37:05Z</time>
      </trkpt>
      <trkpt lat="49.86635" lon="2.46096">
        <ele>78.8</ele>
        <time>2024-01-24T14:37:06Z</time>
      </trkpt>
      <trkpt lat="49.86635" lon="2.46097">
        <ele>78.9</ele>
        <time>2024-01-24T14:37:08Z</time>
      </trkpt>
      <trkpt lat="49.86634" lon="2.46099">
        <ele>79</ele>
        <time>2024-01-24T14:37:09Z</time>
      </trkpt>
      <trkpt lat="49.86634" lon="2.46099">
        <ele>79</ele>
        <time>2024-01-24T14:37:10Z</time>
      </trkpt>
      <trkpt lat="49.86633" lon="2.46101">
        <ele>79.1</ele>
        <time>2024-01-24T14:37:11Z</time>
      </trkpt>
      <trkpt lat="49.86633" lon="2.46102">
        <ele>79.2</ele>
        <time>2024-01-24T14:37:12Z</time>
      </trkpt>
      <trkpt lat="49.86633" lon="2.46102">
        <ele>79.2</ele>
        <time>2024-01-24T14:37:13Z</time>
      </trkpt>
      <trkpt lat="49.86632" lon="2.46103">
        <ele>79.2</ele>
        <time>2024-01-24T14:37:14Z</time>
      </trkpt>
      <trkpt lat="49.86632" lon="2.46104">
        <ele>79.3</ele>
        <time>2024-01-24T14:37:15Z</time>
      </trkpt>
      <trkpt lat="49.86632" lon="2.46104">
        <ele>79.3</ele>
        <time>2024-01-24T14:37:17Z</time>
      </trkpt>
      <trkpt lat="49.86632" lon="2.46105">
        <ele>79.4</ele>
        <time>2024-01-24T14:37:18Z</time>
      </trkpt>
      <trkpt lat="49.86631" lon="2.46106">
        <ele>79.4</ele>
        <time>2024-01-24T14:37:19Z</time>
      </trkpt>
      <trkpt lat="49.86631" lon="2.46107">
        <ele>79.5</ele>
        <time>2024-01-24T14:37:20Z</time>
      </trkpt>
      <trkpt lat="49.86631" lon="2.46108">
        <ele>79.5</ele>
        <time>2024-01-24T14:37:21Z</time>
      </trkpt>
      <trkpt lat="49.86631" lon="2.46108">
        <ele>79.5</ele>
        <time>2024-01-24T14:37:22Z</time>
      </trkpt>
      <trkpt lat="49.86631" lon="2.46109">
        <ele>79.6</ele>
        <time>2024-01-24T14:37:24Z</time>
      </trkpt>
      <trkpt lat="49.86631" lon="2.4611">
        <ele>79.6</ele>
        <time>2024-01-24T14:37:25Z</time>
      </trkpt>
      <trkpt lat="49.86631" lon="2.46112">
        <ele>79.7</ele>
        <time>2024-01-24T14:37:26Z</time>
      </trkpt>
      <trkpt lat="49.8663" lon="2.46112">
        <ele>79.7</ele>
        <time>2024-01-24T14:37:27Z</time>
      </trkpt>
      <trkpt lat="49.8663" lon="2.46113">
        <ele>79.8</ele>
        <time>2024-01-24T14:37:28Z</time>
      </trkpt>
      <trkpt lat="49.8663" lon="2.46114">
        <ele>79.8</ele>
        <time>2024-01-24T14:37:29Z</time>
      </trkpt>
      <trkpt lat="49.8663" lon="2.46115">
        <ele>79.9</ele>
        <time>2024-01-24T14:37:31Z</time>
      </trkpt>
      <trkpt lat="49.8663" lon="2.46116">
        <ele>79.9</ele>
        <time>2024-01-24T14:37:32Z</time>
      </trkpt>
      <trkpt lat="49.8663" lon="2.46116">
        <ele>80</ele>
        <time>2024-01-24T14:37:33Z</time>
      </trkpt>
      <trkpt lat="49.8663" lon="2.46116">
        <ele>80</ele>
        <time>2024-01-24T14:37:34Z</time>
      </trkpt>
      <trkpt lat="49.8663" lon="2.46117">
        <ele>80</ele>
        <time>2024-01-24T14:37:35Z</time>
      </trkpt>
      <trkpt lat="49.8663" lon="2.46119">
        <ele>80.1</ele>
        <time>2024-01-24T14:37:37Z</time>
      </trkpt>
      <trkpt lat="49.86629" lon="2.4612">
        <ele>80.2</ele>
        <time>2024-01-24T14:37:38Z</time>
      </trkpt>
      <trkpt lat="49.86629" lon="2.46122">
        <ele>80.3</ele>
        <time>2024-01-24T14:37:39Z</time>
      </trkpt>
      <trkpt lat="49.86629" lon="2.46122">
        <ele>80.3</ele>
        <time>2024-01-24T14:37:40Z</time>
      </trkpt>
      <trkpt lat="49.86628" lon="2.46123">
        <ele>80.4</ele>
        <time>2024-01-24T14:37:41Z</time>
      </trkpt>
      <trkpt lat="49.86628" lon="2.46124">
        <ele>80.4</ele>
        <time>2024-01-24T14:37:42Z</time>
      </trkpt>
      <trkpt lat="49.86628" lon="2.46125">
        <ele>80.5</ele>
        <time>2024-01-24T14:37:43Z</time>
      </trkpt>
      <trkpt lat="49.86627" lon="2.46127">
        <ele>80.6</ele>
        <time>2024-01-24T14:37:45Z</time>
      </trkpt>
      <trkpt lat="49.86627" lon="2.46128">
        <ele>80.6</ele>
        <time>2024-01-24T14:37:46Z</time>
      </trkpt>
      <trkpt lat="49.86626" lon="2.46129">
        <ele>80.7</ele>
        <time>2024-01-24T14:37:47Z</time>
      </trkpt>
      <trkpt lat="49.86626" lon="2.4613">
        <ele>80.8</ele>
        <time>2024-01-24T14:37:48Z</time>
      </trkpt>
      <trkpt lat="49.86626" lon="2.46132">
        <ele>80.8</ele>
        <time>2024-01-24T14:37:49Z</time>
      </trkpt>
      <trkpt lat="49.86625" lon="2.46133">
        <ele>80.9</ele>
        <time>2024-01-24T14:37:50Z</time>
      </trkpt>
      <trkpt lat="49.86624" lon="2.46134">
        <ele>81</ele>
        <time>2024-01-24T14:37:52Z</time>
      </trkpt>
      <trkpt lat="49.86623" lon="2.46135">
        <ele>81.1</ele>
        <time>2024-01-24T14:37:53Z</time>
      </trkpt>
      <trkpt lat="49.86623" lon="2.46137">
        <ele>81.2</ele>
        <time>2024-01-24T14:37:54Z</time>
      </trkpt>
      <trkpt lat="49.86622" lon="2.46138">
        <ele>81.2</ele>
        <time>2024-01-24T14:37:55Z</time>
      </trkpt>
      <trkpt lat="49.86621" lon="2.46139">
        <ele>81.3</ele>
        <time>2024-01-24T14:37:56Z</time>
      </trkpt>
      <trkpt lat="49.86621" lon="2.46141">
        <ele>81.4</ele>
        <time>2024-01-24T14:37:57Z</time>
      </trkpt>
      <trkpt lat="49.8662" lon="2.46143">
        <ele>81.5</ele>
        <time>2024-01-24T14:37:59Z</time>
      </trkpt>
      <trkpt lat="49.86619" lon="2.46144">
        <ele>81.6</ele>
        <time>2024-01-24T14:38:00Z</time>
      </trkpt>
      <trkpt lat="49.86619" lon="2.46145">
        <ele>81.7</ele>
        <time>2024-01-24T14:38:01Z</time>
      </trkpt>
      <trkpt lat="49.86618" lon="2.46147">
        <ele>81.8</ele>
        <time>2024-01-24T14:38:03Z</time>
      </trkpt>
      <trkpt lat="49.86617" lon="2.46149">
        <ele>81.9</ele>
        <time>2024-01-24T14:38:04Z</time>
      </trkpt>
      <trkpt lat="49.86617" lon="2.4615">
        <ele>82</ele>
        <time>2024-01-24T14:38:05Z</time>
      </trkpt>
      <trkpt lat="49.86616" lon="2.46151">
        <ele>82.1</ele>
        <time>2024-01-24T14:38:07Z</time>
      </trkpt>
      <trkpt lat="49.86615" lon="2.46153">
        <ele>82.2</ele>
        <time>2024-01-24T14:38:08Z</time>
      </trkpt>
      <trkpt lat="49.86615" lon="2.46154">
        <ele>82.3</ele>
        <time>2024-01-24T14:38:09Z</time>
      </trkpt>
      <trkpt lat="49.86614" lon="2.46156">
        <ele>82.3</ele>
        <time>2024-01-24T14:38:11Z</time>
      </trkpt>
      <trkpt lat="49.86614" lon="2.46157">
        <ele>82.4</ele>
        <time>2024-01-24T14:38:12Z</time>
      </trkpt>
      <trkpt lat="49.86613" lon="2.46158">
        <ele>82.5</ele>
        <time>2024-01-24T14:38:13Z</time>
      </trkpt>
      <trkpt lat="49.86613" lon="2.46159">
        <ele>82.5</ele>
        <time>2024-01-24T14:38:14Z</time>
      </trkpt>
      <trkpt lat="49.86612" lon="2.46161">
        <ele>82.6</ele>
        <time>2024-01-24T14:38:15Z</time>
      </trkpt>
      <trkpt lat="49.86612" lon="2.46162">
        <ele>82.7</ele>
        <time>2024-01-24T14:38:16Z</time>
      </trkpt>
      <trkpt lat="49.86612" lon="2.46163">
        <ele>82.8</ele>
        <time>2024-01-24T14:38:17Z</time>
      </trkpt>
      <trkpt lat="49.86611" lon="2.46165">
        <ele>82.9</ele>
        <time>2024-01-24T14:38:19Z</time>
      </trkpt>
      <trkpt lat="49.86611" lon="2.46167">
        <ele>83</ele>
        <time>2024-01-24T14:38:20Z</time>
      </trkpt>
      <trkpt lat="49.8661" lon="2.46168">
        <ele>83</ele>
        <time>2024-01-24T14:38:21Z</time>
      </trkpt>
      <trkpt lat="49.8661" lon="2.46169">
        <ele>83.1</ele>
        <time>2024-01-24T14:38:22Z</time>
      </trkpt>
      <trkpt lat="49.8661" lon="2.46171">
        <ele>83.2</ele>
        <time>2024-01-24T14:38:23Z</time>
      </trkpt>
      <trkpt lat="49.8661" lon="2.46172">
        <ele>83.3</ele>
        <time>2024-01-24T14:38:24Z</time>
      </trkpt>
      <trkpt lat="49.86609" lon="2.46174">
        <ele>83.4</ele>
        <time>2024-01-24T14:38:26Z</time>
      </trkpt>
      <trkpt lat="49.86609" lon="2.46175">
        <ele>83.4</ele>
        <time>2024-01-24T14:38:27Z</time>
      </trkpt>
      <trkpt lat="49.86609" lon="2.46177">
        <ele>83.5</ele>
        <time>2024-01-24T14:38:28Z</time>
      </trkpt>
      <trkpt lat="49.86609" lon="2.46179">
        <ele>83.6</ele>
        <time>2024-01-24T14:38:29Z</time>
      </trkpt>
      <trkpt lat="49.86609" lon="2.4618">
        <ele>83.6</ele>
        <time>2024-01-24T14:38:30Z</time>
      </trkpt>
      <trkpt lat="49.86609" lon="2.46181">
        <ele>83.7</ele>
        <time>2024-01-24T14:38:31Z</time>
      </trkpt>
      <trkpt lat="49.86609" lon="2.46183">
        <ele>83.8</ele>
        <time>2024-01-24T14:38:32Z</time>
      </trkpt>
      <trkpt lat="49.86609" lon="2.46185">
        <ele>83.9</ele>
        <time>2024-01-24T14:38:34Z</time>
      </trkpt>
      <trkpt lat="49.86609" lon="2.46186">
        <ele>84</ele>
        <time>2024-01-24T14:38:35Z</time>
      </trkpt>
      <trkpt lat="49.86609" lon="2.46188">
        <ele>84</ele>
        <time>2024-01-24T14:38:36Z</time>
      </trkpt>
      <trkpt lat="49.86608" lon="2.46189">
        <ele>84.1</ele>
        <time>2024-01-24T14:38:37Z</time>
      </trkpt>
      <trkpt lat="49.86608" lon="2.46191">
        <ele>84.2</ele>
        <time>2024-01-24T14:38:38Z</time>
      </trkpt>
      <trkpt lat="49.86608" lon="2.46193">
        <ele>84.3</ele>
        <time>2024-01-24T14:38:40Z</time>
      </trkpt>
      <trkpt lat="49.86607" lon="2.46194">
        <ele>84.4</ele>
        <time>2024-01-24T14:38:41Z</time>
      </trkpt>
      <trkpt lat="49.86607" lon="2.46196">
        <ele>84.5</ele>
        <time>2024-01-24T14:38:42Z</time>
      </trkpt>
      <trkpt lat="49.86606" lon="2.46197">
        <ele>84.5</ele>
        <time>2024-01-24T14:38:43Z</time>
      </trkpt>
      <trkpt lat="49.86606" lon="2.46198">
        <ele>84.6</ele>
        <time>2024-01-24T14:38:44Z</time>
      </trkpt>
      <trkpt lat="49.86605" lon="2.462">
        <ele>84.7</ele>
        <time>2024-01-24T14:38:45Z</time>
      </trkpt>
      <trkpt lat="49.86604" lon="2.46202">
        <ele>84.8</ele>
        <time>2024-01-24T14:38:47Z</time>
      </trkpt>
      <trkpt lat="49.86604" lon="2.46203">
        <ele>84.9</ele>
        <time>2024-01-24T14:38:48Z</time>
      </trkpt>
      <trkpt lat="49.86603" lon="2.46204">
        <ele>85</ele>
        <time>2024-01-24T14:38:49Z</time>
      </trkpt>
      <trkpt lat="49.86602" lon="2.46206">
        <ele>85.1</ele>
        <time>2024-01-24T14:38:51Z</time>
      </trkpt>
      <trkpt lat="49.86602" lon="2.46208">
        <ele>85.2</ele>
        <time>2024-01-24T14:38:52Z</time>
      </trkpt>
      <trkpt lat="49.86601" lon="2.46208">
        <ele>85.2</ele>
        <time>2024-01-24T14:38:53Z</time>
      </trkpt>
      <trkpt lat="49.866" lon="2.4621">
        <ele>85.3</ele>
        <time>2024-01-24T14:38:54Z</time>
      </trkpt>
      <trkpt lat="49.866" lon="2.46211">
        <ele>85.4</ele>
        <time>2024-01-24T14:38:55Z</time>
      </trkpt>
      <trkpt lat="49.86599" lon="2.46212">
        <ele>85.5</ele>
        <time>2024-01-24T14:38:56Z</time>
      </trkpt>
      <trkpt lat="49.86599" lon="2.46214">
        <ele>85.5</ele>
        <time>2024-01-24T14:38:57Z</time>
      </trkpt>
      <trkpt lat="49.86598" lon="2.46215">
        <ele>85.6</ele>
        <time>2024-01-24T14:38:59Z</time>
      </trkpt>
      <trkpt lat="49.86597" lon="2.46217">
        <ele>85.7</ele>
        <time>2024-01-24T14:39:00Z</time>
      </trkpt>
      <trkpt lat="49.86597" lon="2.46218">
        <ele>85.8</ele>
        <time>2024-01-24T14:39:01Z</time>
      </trkpt>
      <trkpt lat="49.86596" lon="2.46219">
        <ele>85.9</ele>
        <time>2024-01-24T14:39:02Z</time>
      </trkpt>
      <trkpt lat="49.86595" lon="2.4622">
        <ele>85.9</ele>
        <time>2024-01-24T14:39:03Z</time>
      </trkpt>
      <trkpt lat="49.86595" lon="2.46222">
        <ele>86</ele>
        <time>2024-01-24T14:39:05Z</time>
      </trkpt>
      <trkpt lat="49.86594" lon="2.46223">
        <ele>86.1</ele>
        <time>2024-01-24T14:39:06Z</time>
      </trkpt>
      <trkpt lat="49.86593" lon="2.46225">
        <ele>86.2</ele>
        <time>2024-01-24T14:39:07Z</time>
      </trkpt>
      <trkpt lat="49.86593" lon="2.46226">
        <ele>86.3</ele>
        <time>2024-01-24T14:39:08Z</time>
      </trkpt>
      <trkpt lat="49.86592" lon="2.46228">
        <ele>86.4</ele>
        <time>2024-01-24T14:39:10Z</time>
      </trkpt>
      <trkpt lat="49.86591" lon="2.4623">
        <ele>86.5</ele>
        <time>2024-01-24T14:39:12Z</time>
      </trkpt>
      <trkpt lat="49.8659" lon="2.46231">
        <ele>86.6</ele>
        <time>2024-01-24T14:39:13Z</time>
      </trkpt>
      <trkpt lat="49.8659" lon="2.46232">
        <ele>86.7</ele>
        <time>2024-01-24T14:39:15Z</time>
      </trkpt>
      <trkpt lat="49.86589" lon="2.46234">
        <ele>86.8</ele>
        <time>2024-01-24T14:39:16Z</time>
      </trkpt>
      <trkpt lat="49.86588" lon="2.46234">
        <ele>86.8</ele>
        <time>2024-01-24T14:39:17Z</time>
      </trkpt>
      <trkpt lat="49.86587" lon="2.46235">
        <ele>87</ele>
        <time>2024-01-24T14:39:19Z</time>
      </trkpt>
      <trkpt lat="49.86586" lon="2.46236">
        <ele>87</ele>
        <time>2024-01-24T14:39:20Z</time>
      </trkpt>
      <trkpt lat="49.86585" lon="2.46237">
        <ele>87.1</ele>
        <time>2024-01-24T14:39:21Z</time>
      </trkpt>
      <trkpt lat="49.86584" lon="2.46238">
        <ele>87.1</ele>
        <time>2024-01-24T14:39:22Z</time>
      </trkpt>
      <trkpt lat="49.86583" lon="2.46238">
        <ele>87.1</ele>
        <time>2024-01-24T14:39:24Z</time>
      </trkpt>
      <trkpt lat="49.86582" lon="2.46239">
        <ele>87.1</ele>
        <time>2024-01-24T14:39:25Z</time>
      </trkpt>
      <trkpt lat="49.86582" lon="2.46239">
        <ele>87.1</ele>
        <time>2024-01-24T14:39:26Z</time>
      </trkpt>
      <trkpt lat="49.86581" lon="2.4624">
        <ele>87.2</ele>
        <time>2024-01-24T14:39:27Z</time>
      </trkpt>
      <trkpt lat="49.8658" lon="2.4624">
        <ele>87.2</ele>
        <time>2024-01-24T14:39:28Z</time>
      </trkpt>
      <trkpt lat="49.86579" lon="2.46241">
        <ele>87.2</ele>
        <time>2024-01-24T14:39:29Z</time>
      </trkpt>
      <trkpt lat="49.86578" lon="2.46241">
        <ele>87.2</ele>
        <time>2024-01-24T14:39:30Z</time>
      </trkpt>
      <trkpt lat="49.86577" lon="2.46242">
        <ele>87.2</ele>
        <time>2024-01-24T14:39:32Z</time>
      </trkpt>
      <trkpt lat="49.86576" lon="2.46242">
        <ele>87.2</ele>
        <time>2024-01-24T14:39:33Z</time>
      </trkpt>
      <trkpt lat="49.86576" lon="2.46242">
        <ele>87.2</ele>
        <time>2024-01-24T14:39:34Z</time>
      </trkpt>
      <trkpt lat="49.86575" lon="2.46242">
        <ele>87.2</ele>
        <time>2024-01-24T14:39:35Z</time>
      </trkpt>
      <trkpt lat="49.86574" lon="2.46241">
        <ele>87.3</ele>
        <time>2024-01-24T14:39:36Z</time>
      </trkpt>
      <trkpt lat="49.86574" lon="2.46241">
        <ele>87.3</ele>
        <time>2024-01-24T14:39:37Z</time>
      </trkpt>
      <trkpt lat="49.86573" lon="2.4624">
        <ele>87.3</ele>
        <time>2024-01-24T14:39:38Z</time>
      </trkpt>
      <trkpt lat="49.86572" lon="2.4624">
        <ele>87.3</ele>
        <time>2024-01-24T14:39:40Z</time>
      </trkpt>
      <trkpt lat="49.86571" lon="2.4624">
        <ele>87.3</ele>
        <time>2024-01-24T14:39:41Z</time>
      </trkpt>
      <trkpt lat="49.8657" lon="2.46239">
        <ele>87.3</ele>
        <time>2024-01-24T14:39:42Z</time>
      </trkpt>
      <trkpt lat="49.8657" lon="2.46239">
        <ele>87.3</ele>
        <time>2024-01-24T14:39:43Z</time>
      </trkpt>
      <trkpt lat="49.86569" lon="2.46239">
        <ele>87.3</ele>
        <time>2024-01-24T14:39:44Z</time>
      </trkpt>
      <trkpt lat="49.86568" lon="2.46238">
        <ele>87.3</ele>
        <time>2024-01-24T14:39:45Z</time>
      </trkpt>
      <trkpt lat="49.86567" lon="2.46238">
        <ele>87.4</ele>
        <time>2024-01-24T14:39:46Z</time>
      </trkpt>
      <trkpt lat="49.86565" lon="2.46238">
        <ele>87.4</ele>
        <time>2024-01-24T14:39:48Z</time>
      </trkpt>
      <trkpt lat="49.86564" lon="2.46237">
        <ele>87.4</ele>
        <time>2024-01-24T14:39:50Z</time>
      </trkpt>
      <trkpt lat="49.86563" lon="2.46237">
        <ele>87.4</ele>
        <time>2024-01-24T14:39:51Z</time>
      </trkpt>
      <trkpt lat="49.86561" lon="2.46237">
        <ele>87.5</ele>
        <time>2024-01-24T14:39:52Z</time>
      </trkpt>
      <trkpt lat="49.86561" lon="2.46236">
        <ele>87.5</ele>
        <time>2024-01-24T14:39:53Z</time>
      </trkpt>
      <trkpt lat="49.86559" lon="2.46236">
        <ele>87.5</ele>
        <time>2024-01-24T14:39:54Z</time>
      </trkpt>
      <trkpt lat="49.86558" lon="2.46236">
        <ele>87.6</ele>
        <time>2024-01-24T14:39:55Z</time>
      </trkpt>
      <trkpt lat="49.86557" lon="2.46235">
        <ele>87.6</ele>
        <time>2024-01-24T14:39:56Z</time>
      </trkpt>
      <trkpt lat="49.86556" lon="2.46235">
        <ele>87.6</ele>
        <time>2024-01-24T14:39:58Z</time>
      </trkpt>
      <trkpt lat="49.86555" lon="2.46235">
        <ele>87.7</ele>
        <time>2024-01-24T14:39:59Z</time>
      </trkpt>
      <trkpt lat="49.86554" lon="2.46235">
        <ele>87.7</ele>
        <time>2024-01-24T14:40:00Z</time>
      </trkpt>
      <trkpt lat="49.86553" lon="2.46235">
        <ele>87.7</ele>
        <time>2024-01-24T14:40:01Z</time>
      </trkpt>
      <trkpt lat="49.86552" lon="2.46235">
        <ele>87.8</ele>
        <time>2024-01-24T14:40:02Z</time>
      </trkpt>
      <trkpt lat="49.86551" lon="2.46235">
        <ele>87.8</ele>
        <time>2024-01-24T14:40:03Z</time>
      </trkpt>
      <trkpt lat="49.8655" lon="2.46234">
        <ele>87.8</ele>
        <time>2024-01-24T14:40:05Z</time>
      </trkpt>
      <trkpt lat="49.86549" lon="2.46234">
        <ele>87.9</ele>
        <time>2024-01-24T14:40:06Z</time>
      </trkpt>
      <trkpt lat="49.86547" lon="2.46234">
        <ele>87.9</ele>
        <time>2024-01-24T14:40:07Z</time>
      </trkpt>
      <trkpt lat="49.86546" lon="2.46234">
        <ele>88</ele>
        <time>2024-01-24T14:40:08Z</time>
      </trkpt>
      <trkpt lat="49.86545" lon="2.46234">
        <ele>88</ele>
        <time>2024-01-24T14:40:09Z</time>
      </trkpt>
      <trkpt lat="49.86544" lon="2.46233">
        <ele>88</ele>
        <time>2024-01-24T14:40:10Z</time>
      </trkpt>
      <trkpt lat="49.86543" lon="2.46233">
        <ele>88.1</ele>
        <time>2024-01-24T14:40:12Z</time>
      </trkpt>
      <trkpt lat="49.86542" lon="2.46233">
        <ele>88.1</ele>
        <time>2024-01-24T14:40:13Z</time>
      </trkpt>
      <trkpt lat="49.86541" lon="2.46233">
        <ele>88.2</ele>
        <time>2024-01-24T14:40:14Z</time>
      </trkpt>
      <trkpt lat="49.8654" lon="2.46233">
        <ele>88.2</ele>
        <time>2024-01-24T14:40:15Z</time>
      </trkpt>
      <trkpt lat="49.86539" lon="2.46233">
        <ele>88.2</ele>
        <time>2024-01-24T14:40:16Z</time>
      </trkpt>
      <trkpt lat="49.86538" lon="2.46233">
        <ele>88.2</ele>
        <time>2024-01-24T14:40:18Z</time>
      </trkpt>
      <trkpt lat="49.86537" lon="2.46233">
        <ele>88.3</ele>
        <time>2024-01-24T14:40:19Z</time>
      </trkpt>
      <trkpt lat="49.86536" lon="2.46233">
        <ele>88.3</ele>
        <time>2024-01-24T14:40:20Z</time>
      </trkpt>
      <trkpt lat="49.86535" lon="2.46233">
        <ele>88.3</ele>
        <time>2024-01-24T14:40:21Z</time>
      </trkpt>
      <trkpt lat="49.86534" lon="2.46234">
        <ele>88.4</ele>
        <time>2024-01-24T14:40:22Z</time>
      </trkpt>
      <trkpt lat="49.86534" lon="2.46234">
        <ele>88.4</ele>
        <time>2024-01-24T14:40:24Z</time>
      </trkpt>
      <trkpt lat="49.86533" lon="2.46234">
        <ele>88.4</ele>
        <time>2024-01-24T14:40:25Z</time>
      </trkpt>
      <trkpt lat="49.86532" lon="2.46234">
        <ele>88.5</ele>
        <time>2024-01-24T14:40:26Z</time>
      </trkpt>
      <trkpt lat="49.86532" lon="2.46234">
        <ele>88.5</ele>
        <time>2024-01-24T14:40:27Z</time>
      </trkpt>
      <trkpt lat="49.86531" lon="2.46234">
        <ele>88.5</ele>
        <time>2024-01-24T14:40:28Z</time>
      </trkpt>
      <trkpt lat="49.8653" lon="2.46234">
        <ele>88.5</ele>
        <time>2024-01-24T14:40:30Z</time>
      </trkpt>
      <trkpt lat="49.86529" lon="2.46234">
        <ele>88.6</ele>
        <time>2024-01-24T14:40:31Z</time>
      </trkpt>
      <trkpt lat="49.86528" lon="2.46234">
        <ele>88.6</ele>
        <time>2024-01-24T14:40:32Z</time>
      </trkpt>
      <trkpt lat="49.86526" lon="2.46234">
        <ele>88.7</ele>
        <time>2024-01-24T14:40:33Z</time>
      </trkpt>
      <trkpt lat="49.86525" lon="2.46234">
        <ele>88.7</ele>
        <time>2024-01-24T14:40:34Z</time>
      </trkpt>
      <trkpt lat="49.86523" lon="2.46233">
        <ele>88.8</ele>
        <time>2024-01-24T14:40:35Z</time>
      </trkpt>
      <trkpt lat="49.86522" lon="2.46233">
        <ele>88.8</ele>
        <time>2024-01-24T14:40:37Z</time>
      </trkpt>
      <trkpt lat="49.86521" lon="2.46233">
        <ele>88.9</ele>
        <time>2024-01-24T14:40:38Z</time>
      </trkpt>
      <trkpt lat="49.8652" lon="2.46233">
        <ele>88.9</ele>
        <time>2024-01-24T14:40:39Z</time>
      </trkpt>
      <trkpt lat="49.86519" lon="2.46233">
        <ele>89</ele>
        <time>2024-01-24T14:40:40Z</time>
      </trkpt>
      <trkpt lat="49.86518" lon="2.46233">
        <ele>89</ele>
        <time>2024-01-24T14:40:42Z</time>
      </trkpt>
      <trkpt lat="49.86516" lon="2.46232">
        <ele>89.1</ele>
        <time>2024-01-24T14:40:43Z</time>
      </trkpt>
      <trkpt lat="49.86515" lon="2.46233">
        <ele>89.1</ele>
        <time>2024-01-24T14:40:44Z</time>
      </trkpt>
      <trkpt lat="49.86514" lon="2.46233">
        <ele>89.1</ele>
        <time>2024-01-24T14:40:45Z</time>
      </trkpt>
      <trkpt lat="49.86514" lon="2.46234">
        <ele>89.2</ele>
        <time>2024-01-24T14:40:46Z</time>
      </trkpt>
      <trkpt lat="49.86513" lon="2.46235">
        <ele>89.2</ele>
        <time>2024-01-24T14:40:48Z</time>
      </trkpt>
      <trkpt lat="49.86512" lon="2.46235">
        <ele>89.3</ele>
        <time>2024-01-24T14:40:49Z</time>
      </trkpt>
      <trkpt lat="49.8651" lon="2.46236">
        <ele>89.3</ele>
        <time>2024-01-24T14:40:50Z</time>
      </trkpt>
      <trkpt lat="49.86509" lon="2.46236">
        <ele>89.4</ele>
        <time>2024-01-24T14:40:51Z</time>
      </trkpt>
      <trkpt lat="49.86508" lon="2.46236">
        <ele>89.4</ele>
        <time>2024-01-24T14:40:52Z</time>
      </trkpt>
      <trkpt lat="49.86507" lon="2.46236">
        <ele>89.5</ele>
        <time>2024-01-24T14:40:53Z</time>
      </trkpt>
      <trkpt lat="49.86506" lon="2.46236">
        <ele>89.5</ele>
        <time>2024-01-24T14:40:55Z</time>
      </trkpt>
      <trkpt lat="49.86504" lon="2.46236">
        <ele>89.6</ele>
        <time>2024-01-24T14:40:56Z</time>
      </trkpt>
      <trkpt lat="49.86503" lon="2.46236">
        <ele>89.6</ele>
        <time>2024-01-24T14:40:57Z</time>
      </trkpt>
      <trkpt lat="49.86502" lon="2.46236">
        <ele>89.7</ele>
        <time>2024-01-24T14:40:58Z</time>
      </trkpt>
      <trkpt lat="49.865" lon="2.46236">
        <ele>89.7</ele>
        <time>2024-01-24T14:40:59Z</time>
      </trkpt>
      <trkpt lat="49.86499" lon="2.46236">
        <ele>89.8</ele>
        <time>2024-01-24T14:41:01Z</time>
      </trkpt>
      <trkpt lat="49.86497" lon="2.46236">
        <ele>89.8</ele>
        <time>2024-01-24T14:41:02Z</time>
      </trkpt>
      <trkpt lat="49.86496" lon="2.46236">
        <ele>89.9</ele>
        <time>2024-01-24T14:41:03Z</time>
      </trkpt>
      <trkpt lat="49.86495" lon="2.46236">
        <ele>89.9</ele>
        <time>2024-01-24T14:41:04Z</time>
      </trkpt>
      <trkpt lat="49.86494" lon="2.46236">
        <ele>90</ele>
        <time>2024-01-24T14:41:05Z</time>
      </trkpt>
      <trkpt lat="49.86493" lon="2.46236">
        <ele>90</ele>
        <time>2024-01-24T14:41:06Z</time>
      </trkpt>
      <trkpt lat="49.86491" lon="2.46236">
        <ele>90</ele>
        <time>2024-01-24T14:41:08Z</time>
      </trkpt>
      <trkpt lat="49.8649" lon="2.46236">
        <ele>90.1</ele>
        <time>2024-01-24T14:41:09Z</time>
      </trkpt>
      <trkpt lat="49.86489" lon="2.46236">
        <ele>90.1</ele>
        <time>2024-01-24T14:41:10Z</time>
      </trkpt>
      <trkpt lat="49.86488" lon="2.46236">
        <ele>90.1</ele>
        <time>2024-01-24T14:41:11Z</time>
      </trkpt>
      <trkpt lat="49.86487" lon="2.46236">
        <ele>90.2</ele>
        <time>2024-01-24T14:41:12Z</time>
      </trkpt>
      <trkpt lat="49.86485" lon="2.46236">
        <ele>90.2</ele>
        <time>2024-01-24T14:41:13Z</time>
      </trkpt>
      <trkpt lat="49.86484" lon="2.46236">
        <ele>90.2</ele>
        <time>2024-01-24T14:41:14Z</time>
      </trkpt>
      <trkpt lat="49.86483" lon="2.46236">
        <ele>90.3</ele>
        <time>2024-01-24T14:41:16Z</time>
      </trkpt>
      <trkpt lat="49.86482" lon="2.46236">
        <ele>90.3</ele>
        <time>2024-01-24T14:41:17Z</time>
      </trkpt>
      <trkpt lat="49.86481" lon="2.46236">
        <ele>90.3</ele>
        <time>2024-01-24T14:41:18Z</time>
      </trkpt>
      <trkpt lat="49.8648" lon="2.46236">
        <ele>90.4</ele>
        <time>2024-01-24T14:41:19Z</time>
      </trkpt>
      <trkpt lat="49.86479" lon="2.46236">
        <ele>90.4</ele>
        <time>2024-01-24T14:41:20Z</time>
      </trkpt>
      <trkpt lat="49.86478" lon="2.46236">
        <ele>90.4</ele>
        <time>2024-01-24T14:41:21Z</time>
      </trkpt>
      <trkpt lat="49.86476" lon="2.46235">
        <ele>90.4</ele>
        <time>2024-01-24T14:41:23Z</time>
      </trkpt>
      <trkpt lat="49.86474" lon="2.46235">
        <ele>90.5</ele>
        <time>2024-01-24T14:41:24Z</time>
      </trkpt>
      <trkpt lat="49.86473" lon="2.46235">
        <ele>90.5</ele>
        <time>2024-01-24T14:41:25Z</time>
      </trkpt>
      <trkpt lat="49.86472" lon="2.46235">
        <ele>90.5</ele>
        <time>2024-01-24T14:41:26Z</time>
      </trkpt>
      <trkpt lat="49.86471" lon="2.46235">
        <ele>90.6</ele>
        <time>2024-01-24T14:41:27Z</time>
      </trkpt>
      <trkpt lat="49.8647" lon="2.46234">
        <ele>90.6</ele>
        <time>2024-01-24T14:41:28Z</time>
      </trkpt>
      <trkpt lat="49.86469" lon="2.46234">
        <ele>90.6</ele>
        <time>2024-01-24T14:41:30Z</time>
      </trkpt>
      <trkpt lat="49.86466" lon="2.46234">
        <ele>90.7</ele>
        <time>2024-01-24T14:41:31Z</time>
      </trkpt>
      <trkpt lat="49.86466" lon="2.46235">
        <ele>90.7</ele>
        <time>2024-01-24T14:41:32Z</time>
      </trkpt>
      <trkpt lat="49.86465" lon="2.46235">
        <ele>90.7</ele>
        <time>2024-01-24T14:41:33Z</time>
      </trkpt>
      <trkpt lat="49.86463" lon="2.46235">
        <ele>90.8</ele>
        <time>2024-01-24T14:41:34Z</time>
      </trkpt>
      <trkpt lat="49.86462" lon="2.46235">
        <ele>90.8</ele>
        <time>2024-01-24T14:41:35Z</time>
      </trkpt>
      <trkpt lat="49.86461" lon="2.46235">
        <ele>90.8</ele>
        <time>2024-01-24T14:41:36Z</time>
      </trkpt>
      <trkpt lat="49.86459" lon="2.46236">
        <ele>90.8</ele>
        <time>2024-01-24T14:41:38Z</time>
      </trkpt>
      <trkpt lat="49.86458" lon="2.46236">
        <ele>90.9</ele>
        <time>2024-01-24T14:41:39Z</time>
      </trkpt>
      <trkpt lat="49.86457" lon="2.46236">
        <ele>90.9</ele>
        <time>2024-01-24T14:41:40Z</time>
      </trkpt>
      <trkpt lat="49.86455" lon="2.46236">
        <ele>90.9</ele>
        <time>2024-01-24T14:41:41Z</time>
      </trkpt>
      <trkpt lat="49.86454" lon="2.46236">
        <ele>90.9</ele>
        <time>2024-01-24T14:41:43Z</time>
      </trkpt>
      <trkpt lat="49.86453" lon="2.46236">
        <ele>91</ele>
        <time>2024-01-24T14:41:44Z</time>
      </trkpt>
      <trkpt lat="49.86451" lon="2.46236">
        <ele>91</ele>
        <time>2024-01-24T14:41:45Z</time>
      </trkpt>
      <trkpt lat="49.8645" lon="2.46236">
        <ele>91</ele>
        <time>2024-01-24T14:41:46Z</time>
      </trkpt>
      <trkpt lat="49.86448" lon="2.46236">
        <ele>91</ele>
        <time>2024-01-24T14:41:47Z</time>
      </trkpt>
      <trkpt lat="49.86447" lon="2.46236">
        <ele>91</ele>
        <time>2024-01-24T14:41:49Z</time>
      </trkpt>
      <trkpt lat="49.86446" lon="2.46236">
        <ele>91.1</ele>
        <time>2024-01-24T14:41:50Z</time>
      </trkpt>
      <trkpt lat="49.86445" lon="2.46236">
        <ele>91.1</ele>
        <time>2024-01-24T14:41:51Z</time>
      </trkpt>
      <trkpt lat="49.86444" lon="2.46236">
        <ele>91.1</ele>
        <time>2024-01-24T14:41:52Z</time>
      </trkpt>
      <trkpt lat="49.86442" lon="2.46237">
        <ele>91.1</ele>
        <time>2024-01-24T14:41:53Z</time>
      </trkpt>
      <trkpt lat="49.86441" lon="2.46237">
        <ele>91.1</ele>
        <time>2024-01-24T14:41:54Z</time>
      </trkpt>
      <trkpt lat="49.8644" lon="2.46237">
        <ele>91.1</ele>
        <time>2024-01-24T14:41:55Z</time>
      </trkpt>
      <trkpt lat="49.86438" lon="2.46238">
        <ele>91.2</ele>
        <time>2024-01-24T14:41:57Z</time>
      </trkpt>
      <trkpt lat="49.86437" lon="2.46238">
        <ele>91.2</ele>
        <time>2024-01-24T14:41:58Z</time>
      </trkpt>
      <trkpt lat="49.86436" lon="2.46238">
        <ele>91.2</ele>
        <time>2024-01-24T14:41:59Z</time>
      </trkpt>
      <trkpt lat="49.86434" lon="2.46238">
        <ele>91.2</ele>
        <time>2024-01-24T14:42:00Z</time>
      </trkpt>
      <trkpt lat="49.86433" lon="2.46238">
        <ele>91.2</ele>
        <time>2024-01-24T14:42:01Z</time>
      </trkpt>
      <trkpt lat="49.86432" lon="2.46238">
        <ele>91.2</ele>
        <time>2024-01-24T14:42:02Z</time>
      </trkpt>
      <trkpt lat="49.8643" lon="2.46238">
        <ele>91.3</ele>
        <time>2024-01-24T14:42:04Z</time>
      </trkpt>
      <trkpt lat="49.86429" lon="2.46237">
        <ele>91.3</ele>
        <time>2024-01-24T14:42:05Z</time>
      </trkpt>
      <trkpt lat="49.86428" lon="2.46237">
        <ele>91.3</ele>
        <time>2024-01-24T14:42:06Z</time>
      </trkpt>
      <trkpt lat="49.86427" lon="2.46237">
        <ele>91.3</ele>
        <time>2024-01-24T14:42:07Z</time>
      </trkpt>
      <trkpt lat="49.86426" lon="2.46237">
        <ele>91.3</ele>
        <time>2024-01-24T14:42:08Z</time>
      </trkpt>
      <trkpt lat="49.86424" lon="2.46237">
        <ele>91.3</ele>
        <time>2024-01-24T14:42:09Z</time>
      </trkpt>
      <trkpt lat="49.86423" lon="2.46237">
        <ele>91.4</ele>
        <time>2024-01-24T14:42:11Z</time>
      </trkpt>
      <trkpt lat="49.86422" lon="2.46237">
        <ele>91.4</ele>
        <time>2024-01-24T14:42:12Z</time>
      </trkpt>
      <trkpt lat="49.8642" lon="2.46237">
        <ele>91.4</ele>
        <time>2024-01-24T14:42:13Z</time>
      </trkpt>
      <trkpt lat="49.86419" lon="2.46238">
        <ele>91.4</ele>
        <time>2024-01-24T14:42:14Z</time>
      </trkpt>
      <trkpt lat="49.86417" lon="2.46238">
        <ele>91.4</ele>
        <time>2024-01-24T14:42:15Z</time>
      </trkpt>
      <trkpt lat="49.86415" lon="2.46239">
        <ele>91.4</ele>
        <time>2024-01-24T14:42:16Z</time>
      </trkpt>
      <trkpt lat="49.86414" lon="2.46239">
        <ele>91.4</ele>
        <time>2024-01-24T14:42:18Z</time>
      </trkpt>
      <trkpt lat="49.86413" lon="2.46239">
        <ele>91.4</ele>
        <time>2024-01-24T14:42:19Z</time>
      </trkpt>
      <trkpt lat="49.86412" lon="2.4624">
        <ele>91.4</ele>
        <time>2024-01-24T14:42:20Z</time>
      </trkpt>
      <trkpt lat="49.86411" lon="2.4624">
        <ele>91.4</ele>
        <time>2024-01-24T14:42:21Z</time>
      </trkpt>
      <trkpt lat="49.86409" lon="2.4624">
        <ele>91.4</ele>
        <time>2024-01-24T14:42:22Z</time>
      </trkpt>
      <trkpt lat="49.86408" lon="2.4624">
        <ele>91.4</ele>
        <time>2024-01-24T14:42:24Z</time>
      </trkpt>
      <trkpt lat="49.86406" lon="2.4624">
        <ele>91.4</ele>
        <time>2024-01-24T14:42:25Z</time>
      </trkpt>
      <trkpt lat="49.86405" lon="2.46239">
        <ele>91.4</ele>
        <time>2024-01-24T14:42:26Z</time>
      </trkpt>
      <trkpt lat="49.86404" lon="2.46239">
        <ele>91.5</ele>
        <time>2024-01-24T14:42:27Z</time>
      </trkpt>
      <trkpt lat="49.86403" lon="2.46239">
        <ele>91.5</ele>
        <time>2024-01-24T14:42:28Z</time>
      </trkpt>
      <trkpt lat="49.86402" lon="2.46239">
        <ele>91.5</ele>
        <time>2024-01-24T14:42:29Z</time>
      </trkpt>
      <trkpt lat="49.864" lon="2.46239">
        <ele>91.5</ele>
        <time>2024-01-24T14:42:31Z</time>
      </trkpt>
      <trkpt lat="49.86399" lon="2.46239">
        <ele>91.5</ele>
        <time>2024-01-24T14:42:32Z</time>
      </trkpt>
      <trkpt lat="49.86397" lon="2.46239">
        <ele>91.6</ele>
        <time>2024-01-24T14:42:33Z</time>
      </trkpt>
      <trkpt lat="49.86396" lon="2.46239">
        <ele>91.6</ele>
        <time>2024-01-24T14:42:34Z</time>
      </trkpt>
      <trkpt lat="49.86395" lon="2.46239">
        <ele>91.6</ele>
        <time>2024-01-24T14:42:35Z</time>
      </trkpt>
      <trkpt lat="49.86394" lon="2.4624">
        <ele>91.6</ele>
        <time>2024-01-24T14:42:37Z</time>
      </trkpt>
      <trkpt lat="49.86392" lon="2.4624">
        <ele>91.6</ele>
        <time>2024-01-24T14:42:38Z</time>
      </trkpt>
      <trkpt lat="49.86391" lon="2.4624">
        <ele>91.7</ele>
        <time>2024-01-24T14:42:39Z</time>
      </trkpt>
      <trkpt lat="49.8639" lon="2.46241">
        <ele>91.7</ele>
        <time>2024-01-24T14:42:40Z</time>
      </trkpt>
      <trkpt lat="49.86388" lon="2.46241">
        <ele>91.7</ele>
        <time>2024-01-24T14:42:41Z</time>
      </trkpt>
      <trkpt lat="49.86387" lon="2.46241">
        <ele>91.8</ele>
        <time>2024-01-24T14:42:42Z</time>
      </trkpt>
      <trkpt lat="49.86386" lon="2.46242">
        <ele>91.8</ele>
        <time>2024-01-24T14:42:44Z</time>
      </trkpt>
      <trkpt lat="49.86384" lon="2.46243">
        <ele>91.9</ele>
        <time>2024-01-24T14:42:45Z</time>
      </trkpt>
      <trkpt lat="49.86383" lon="2.46243">
        <ele>91.9</ele>
        <time>2024-01-24T14:42:46Z</time>
      </trkpt>
      <trkpt lat="49.86381" lon="2.46244">
        <ele>92</ele>
        <time>2024-01-24T14:42:47Z</time>
      </trkpt>
      <trkpt lat="49.8638" lon="2.46244">
        <ele>92</ele>
        <time>2024-01-24T14:42:48Z</time>
      </trkpt>
      <trkpt lat="49.86379" lon="2.46245">
        <ele>92.1</ele>
        <time>2024-01-24T14:42:49Z</time>
      </trkpt>
      <trkpt lat="49.86377" lon="2.46245">
        <ele>92.2</ele>
        <time>2024-01-24T14:42:50Z</time>
      </trkpt>
      <trkpt lat="49.86376" lon="2.46245">
        <ele>92.2</ele>
        <time>2024-01-24T14:42:52Z</time>
      </trkpt>
      <trkpt lat="49.86374" lon="2.46245">
        <ele>92.3</ele>
        <time>2024-01-24T14:42:53Z</time>
      </trkpt>
      <trkpt lat="49.86373" lon="2.46245">
        <ele>92.3</ele>
        <time>2024-01-24T14:42:54Z</time>
      </trkpt>
      <trkpt lat="49.86372" lon="2.46245">
        <ele>92.4</ele>
        <time>2024-01-24T14:42:55Z</time>
      </trkpt>
      <trkpt lat="49.86371" lon="2.46245">
        <ele>92.4</ele>
        <time>2024-01-24T14:42:56Z</time>
      </trkpt>
      <trkpt lat="49.8637" lon="2.46245">
        <ele>92.5</ele>
        <time>2024-01-24T14:42:57Z</time>
      </trkpt>
      <trkpt lat="49.86369" lon="2.46245">
        <ele>92.5</ele>
        <time>2024-01-24T14:42:58Z</time>
      </trkpt>
      <trkpt lat="49.86368" lon="2.46245">
        <ele>92.6</ele>
        <time>2024-01-24T14:43:00Z</time>
      </trkpt>
      <trkpt lat="49.86366" lon="2.46245">
        <ele>92.6</ele>
        <time>2024-01-24T14:43:01Z</time>
      </trkpt>
      <trkpt lat="49.86365" lon="2.46245">
        <ele>92.7</ele>
        <time>2024-01-24T14:43:02Z</time>
      </trkpt>
      <trkpt lat="49.86363" lon="2.46245">
        <ele>92.7</ele>
        <time>2024-01-24T14:43:03Z</time>
      </trkpt>
      <trkpt lat="49.86363" lon="2.46245">
        <ele>92.8</ele>
        <time>2024-01-24T14:43:04Z</time>
      </trkpt>
      <trkpt lat="49.86362" lon="2.46245">
        <ele>92.8</ele>
        <time>2024-01-24T14:43:05Z</time>
      </trkpt>
      <trkpt lat="49.86361" lon="2.46245">
        <ele>92.9</ele>
        <time>2024-01-24T14:43:06Z</time>
      </trkpt>
      <trkpt lat="49.8636" lon="2.46245">
        <ele>92.9</ele>
        <time>2024-01-24T14:43:07Z</time>
      </trkpt>
      <trkpt lat="49.86359" lon="2.46245">
        <ele>93</ele>
        <time>2024-01-24T14:43:08Z</time>
      </trkpt>
      <trkpt lat="49.86357" lon="2.46244">
        <ele>93</ele>
        <time>2024-01-24T14:43:10Z</time>
      </trkpt>
      <trkpt lat="49.86356" lon="2.46244">
        <ele>93.1</ele>
        <time>2024-01-24T14:43:11Z</time>
      </trkpt>
      <trkpt lat="49.86355" lon="2.46244">
        <ele>93.1</ele>
        <time>2024-01-24T14:43:12Z</time>
      </trkpt>
      <trkpt lat="49.86354" lon="2.46243">
        <ele>93.1</ele>
        <time>2024-01-24T14:43:13Z</time>
      </trkpt>
      <trkpt lat="49.86353" lon="2.46243">
        <ele>93.2</ele>
        <time>2024-01-24T14:43:14Z</time>
      </trkpt>
      <trkpt lat="49.86352" lon="2.46243">
        <ele>93.2</ele>
        <time>2024-01-24T14:43:15Z</time>
      </trkpt>
      <trkpt lat="49.86351" lon="2.46242">
        <ele>93.3</ele>
        <time>2024-01-24T14:43:17Z</time>
      </trkpt>
      <trkpt lat="49.86349" lon="2.46242">
        <ele>93.3</ele>
        <time>2024-01-24T14:43:18Z</time>
      </trkpt>
      <trkpt lat="49.86348" lon="2.46242">
        <ele>93.4</ele>
        <time>2024-01-24T14:43:19Z</time>
      </trkpt>
      <trkpt lat="49.86347" lon="2.46242">
        <ele>93.4</ele>
        <time>2024-01-24T14:43:21Z</time>
      </trkpt>
      <trkpt lat="49.86346" lon="2.46242">
        <ele>93.4</ele>
        <time>2024-01-24T14:43:22Z</time>
      </trkpt>
      <trkpt lat="49.86345" lon="2.46241">
        <ele>93.5</ele>
        <time>2024-01-24T14:43:23Z</time>
      </trkpt>
      <trkpt lat="49.86344" lon="2.46241">
        <ele>93.5</ele>
        <time>2024-01-24T14:43:24Z</time>
      </trkpt>
      <trkpt lat="49.86343" lon="2.46241">
        <ele>93.6</ele>
        <time>2024-01-24T14:43:25Z</time>
      </trkpt>
      <trkpt lat="49.86341" lon="2.46241">
        <ele>93.7</ele>
        <time>2024-01-24T14:43:26Z</time>
      </trkpt>
      <trkpt lat="49.8634" lon="2.46241">
        <ele>93.7</ele>
        <time>2024-01-24T14:43:28Z</time>
      </trkpt>
      <trkpt lat="49.86339" lon="2.46241">
        <ele>93.7</ele>
        <time>2024-01-24T14:43:29Z</time>
      </trkpt>
      <trkpt lat="49.86338" lon="2.46241">
        <ele>93.8</ele>
        <time>2024-01-24T14:43:30Z</time>
      </trkpt>
      <trkpt lat="49.86336" lon="2.4624">
        <ele>93.8</ele>
        <time>2024-01-24T14:43:31Z</time>
      </trkpt>
      <trkpt lat="49.86335" lon="2.4624">
        <ele>93.8</ele>
        <time>2024-01-24T14:43:32Z</time>
      </trkpt>
      <trkpt lat="49.86334" lon="2.46239">
        <ele>93.9</ele>
        <time>2024-01-24T14:43:34Z</time>
      </trkpt>
      <trkpt lat="49.86333" lon="2.46239">
        <ele>93.9</ele>
        <time>2024-01-24T14:43:35Z</time>
      </trkpt>
      <trkpt lat="49.86331" lon="2.46238">
        <ele>94</ele>
        <time>2024-01-24T14:43:36Z</time>
      </trkpt>
      <trkpt lat="49.8633" lon="2.46238">
        <ele>94</ele>
        <time>2024-01-24T14:43:37Z</time>
      </trkpt>
      <trkpt lat="49.86329" lon="2.46237">
        <ele>94.1</ele>
        <time>2024-01-24T14:43:38Z</time>
      </trkpt>
      <trkpt lat="49.86327" lon="2.46237">
        <ele>94.2</ele>
        <time>2024-01-24T14:43:40Z</time>
      </trkpt>
      <trkpt lat="49.86326" lon="2.46237">
        <ele>94.2</ele>
        <time>2024-01-24T14:43:41Z</time>
      </trkpt>
      <trkpt lat="49.86325" lon="2.46237">
        <ele>94.2</ele>
        <time>2024-01-24T14:43:42Z</time>
      </trkpt>
      <trkpt lat="49.86324" lon="2.46236">
        <ele>94.3</ele>
        <time>2024-01-24T14:43:43Z</time>
      </trkpt>
      <trkpt lat="49.86323" lon="2.46235">
        <ele>94.3</ele>
        <time>2024-01-24T14:43:44Z</time>
      </trkpt>
      <trkpt lat="49.86322" lon="2.46235">
        <ele>94.3</ele>
        <time>2024-01-24T14:43:45Z</time>
      </trkpt>
      <trkpt lat="49.86321" lon="2.46234">
        <ele>94.4</ele>
        <time>2024-01-24T14:43:47Z</time>
      </trkpt>
      <trkpt lat="49.86319" lon="2.46233">
        <ele>94.4</ele>
        <time>2024-01-24T14:43:48Z</time>
      </trkpt>
      <trkpt lat="49.86318" lon="2.46232">
        <ele>94.5</ele>
        <time>2024-01-24T14:43:49Z</time>
      </trkpt>
      <trkpt lat="49.86317" lon="2.46231">
        <ele>94.5</ele>
        <time>2024-01-24T14:43:50Z</time>
      </trkpt>
      <trkpt lat="49.86315" lon="2.4623">
        <ele>94.6</ele>
        <time>2024-01-24T14:43:51Z</time>
      </trkpt>
      <trkpt lat="49.86314" lon="2.4623">
        <ele>94.6</ele>
        <time>2024-01-24T14:43:53Z</time>
      </trkpt>
      <trkpt lat="49.86313" lon="2.46229">
        <ele>94.6</ele>
        <time>2024-01-24T14:43:54Z</time>
      </trkpt>
      <trkpt lat="49.86312" lon="2.46228">
        <ele>94.7</ele>
        <time>2024-01-24T14:43:55Z</time>
      </trkpt>
      <trkpt lat="49.86311" lon="2.46227">
        <ele>94.7</ele>
        <time>2024-01-24T14:43:56Z</time>
      </trkpt>
      <trkpt lat="49.86309" lon="2.46226">
        <ele>94.7</ele>
        <time>2024-01-24T14:43:57Z</time>
      </trkpt>
      <trkpt lat="49.86308" lon="2.46225">
        <ele>94.8</ele>
        <time>2024-01-24T14:43:58Z</time>
      </trkpt>
      <trkpt lat="49.86307" lon="2.46224">
        <ele>94.8</ele>
        <time>2024-01-24T14:44:00Z</time>
      </trkpt>
      <trkpt lat="49.86306" lon="2.46223">
        <ele>94.9</ele>
        <time>2024-01-24T14:44:01Z</time>
      </trkpt>
      <trkpt lat="49.86305" lon="2.46222">
        <ele>94.9</ele>
        <time>2024-01-24T14:44:02Z</time>
      </trkpt>
      <trkpt lat="49.86303" lon="2.46221">
        <ele>95</ele>
        <time>2024-01-24T14:44:03Z</time>
      </trkpt>
      <trkpt lat="49.86302" lon="2.4622">
        <ele>95</ele>
        <time>2024-01-24T14:44:04Z</time>
      </trkpt>
      <trkpt lat="49.86301" lon="2.4622">
        <ele>95</ele>
        <time>2024-01-24T14:44:05Z</time>
      </trkpt>
      <trkpt lat="49.86299" lon="2.46219">
        <ele>95.1</ele>
        <time>2024-01-24T14:44:06Z</time>
      </trkpt>
      <trkpt lat="49.86298" lon="2.46218">
        <ele>95.1</ele>
        <time>2024-01-24T14:44:08Z</time>
      </trkpt>
      <trkpt lat="49.86298" lon="2.46218">
        <ele>95.1</ele>
        <time>2024-01-24T14:44:09Z</time>
      </trkpt>
      <trkpt lat="49.86296" lon="2.46216">
        <ele>95.2</ele>
        <time>2024-01-24T14:44:10Z</time>
      </trkpt>
      <trkpt lat="49.86295" lon="2.46215">
        <ele>95.2</ele>
        <time>2024-01-24T14:44:11Z</time>
      </trkpt>
      <trkpt lat="49.86294" lon="2.46214">
        <ele>95.2</ele>
        <time>2024-01-24T14:44:12Z</time>
      </trkpt>
      <trkpt lat="49.86294" lon="2.46213">
        <ele>95.2</ele>
        <time>2024-01-24T14:44:14Z</time>
      </trkpt>
      <trkpt lat="49.86293" lon="2.46212">
        <ele>95.3</ele>
        <time>2024-01-24T14:44:15Z</time>
      </trkpt>
      <trkpt lat="49.86292" lon="2.46211">
        <ele>95.3</ele>
        <time>2024-01-24T14:44:16Z</time>
      </trkpt>
      <trkpt lat="49.86291" lon="2.4621">
        <ele>95.3</ele>
        <time>2024-01-24T14:44:17Z</time>
      </trkpt>
      <trkpt lat="49.8629" lon="2.46209">
        <ele>95.4</ele>
        <time>2024-01-24T14:44:18Z</time>
      </trkpt>
      <trkpt lat="49.86289" lon="2.46208">
        <ele>95.4</ele>
        <time>2024-01-24T14:44:19Z</time>
      </trkpt>
      <trkpt lat="49.86288" lon="2.46207">
        <ele>95.4</ele>
        <time>2024-01-24T14:44:21Z</time>
      </trkpt>
      <trkpt lat="49.86287" lon="2.46206">
        <ele>95.4</ele>
        <time>2024-01-24T14:44:22Z</time>
      </trkpt>
      <trkpt lat="49.86286" lon="2.46205">
        <ele>95.5</ele>
        <time>2024-01-24T14:44:23Z</time>
      </trkpt>
      <trkpt lat="49.86285" lon="2.46204">
        <ele>95.5</ele>
        <time>2024-01-24T14:44:24Z</time>
      </trkpt>
      <trkpt lat="49.86284" lon="2.46203">
        <ele>95.5</ele>
        <time>2024-01-24T14:44:25Z</time>
      </trkpt>
      <trkpt lat="49.86283" lon="2.46202">
        <ele>95.5</ele>
        <time>2024-01-24T14:44:26Z</time>
      </trkpt>
      <trkpt lat="49.86282" lon="2.46201">
        <ele>95.5</ele>
        <time>2024-01-24T14:44:28Z</time>
      </trkpt>
      <trkpt lat="49.86281" lon="2.462">
        <ele>95.5</ele>
        <time>2024-01-24T14:44:29Z</time>
      </trkpt>
      <trkpt lat="49.8628" lon="2.462">
        <ele>95.6</ele>
        <time>2024-01-24T14:44:30Z</time>
      </trkpt>
      <trkpt lat="49.86279" lon="2.46199">
        <ele>95.6</ele>
        <time>2024-01-24T14:44:31Z</time>
      </trkpt>
      <trkpt lat="49.86278" lon="2.46198">
        <ele>95.6</ele>
        <time>2024-01-24T14:44:32Z</time>
      </trkpt>
      <trkpt lat="49.86277" lon="2.46197">
        <ele>95.6</ele>
        <time>2024-01-24T14:44:33Z</time>
      </trkpt>
      <trkpt lat="49.86276" lon="2.46196">
        <ele>95.6</ele>
        <time>2024-01-24T14:44:34Z</time>
      </trkpt>
      <trkpt lat="49.86275" lon="2.46195">
        <ele>95.6</ele>
        <time>2024-01-24T14:44:36Z</time>
      </trkpt>
      <trkpt lat="49.86274" lon="2.46194">
        <ele>95.6</ele>
        <time>2024-01-24T14:44:37Z</time>
      </trkpt>
      <trkpt lat="49.86273" lon="2.46193">
        <ele>95.7</ele>
        <time>2024-01-24T14:44:38Z</time>
      </trkpt>
      <trkpt lat="49.86272" lon="2.46192">
        <ele>95.7</ele>
        <time>2024-01-24T14:44:39Z</time>
      </trkpt>
      <trkpt lat="49.86271" lon="2.46192">
        <ele>95.7</ele>
        <time>2024-01-24T14:44:40Z</time>
      </trkpt>
      <trkpt lat="49.8627" lon="2.46191">
        <ele>95.7</ele>
        <time>2024-01-24T14:44:41Z</time>
      </trkpt>
      <trkpt lat="49.86269" lon="2.4619">
        <ele>95.7</ele>
        <time>2024-01-24T14:44:42Z</time>
      </trkpt>
      <trkpt lat="49.86268" lon="2.4619">
        <ele>95.7</ele>
        <time>2024-01-24T14:44:44Z</time>
      </trkpt>
      <trkpt lat="49.86267" lon="2.46189">
        <ele>95.7</ele>
        <time>2024-01-24T14:44:45Z</time>
      </trkpt>
      <trkpt lat="49.86266" lon="2.46189">
        <ele>95.7</ele>
        <time>2024-01-24T14:44:46Z</time>
      </trkpt>
      <trkpt lat="49.86265" lon="2.46189">
        <ele>95.8</ele>
        <time>2024-01-24T14:44:47Z</time>
      </trkpt>
      <trkpt lat="49.86264" lon="2.46188">
        <ele>95.8</ele>
        <time>2024-01-24T14:44:48Z</time>
      </trkpt>
      <trkpt lat="49.86262" lon="2.46188">
        <ele>95.8</ele>
        <time>2024-01-24T14:44:49Z</time>
      </trkpt>
      <trkpt lat="49.86261" lon="2.46187">
        <ele>95.8</ele>
        <time>2024-01-24T14:44:51Z</time>
      </trkpt>
      <trkpt lat="49.8626" lon="2.46187">
        <ele>95.8</ele>
        <time>2024-01-24T14:44:52Z</time>
      </trkpt>
      <trkpt lat="49.86259" lon="2.46186">
        <ele>95.9</ele>
        <time>2024-01-24T14:44:53Z</time>
      </trkpt>
      <trkpt lat="49.86258" lon="2.46186">
        <ele>95.9</ele>
        <time>2024-01-24T14:44:54Z</time>
      </trkpt>
      <trkpt lat="49.86257" lon="2.46185">
        <ele>95.9</ele>
        <time>2024-01-24T14:44:55Z</time>
      </trkpt>
      <trkpt lat="49.86256" lon="2.46184">
        <ele>95.9</ele>
        <time>2024-01-24T14:44:56Z</time>
      </trkpt>
      <trkpt lat="49.86255" lon="2.46183">
        <ele>95.9</ele>
        <time>2024-01-24T14:44:57Z</time>
      </trkpt>
      <trkpt lat="49.86253" lon="2.46182">
        <ele>96</ele>
        <time>2024-01-24T14:44:58Z</time>
      </trkpt>
      <trkpt lat="49.86252" lon="2.46181">
        <ele>96</ele>
        <time>2024-01-24T14:45:00Z</time>
      </trkpt>
      <trkpt lat="49.86251" lon="2.4618">
        <ele>96</ele>
        <time>2024-01-24T14:45:01Z</time>
      </trkpt>
      <trkpt lat="49.8625" lon="2.46179">
        <ele>96</ele>
        <time>2024-01-24T14:45:02Z</time>
      </trkpt>
      <trkpt lat="49.8625" lon="2.46178">
        <ele>96</ele>
        <time>2024-01-24T14:45:03Z</time>
      </trkpt>
      <trkpt lat="49.86249" lon="2.46177">
        <ele>96.1</ele>
        <time>2024-01-24T14:45:04Z</time>
      </trkpt>
      <trkpt lat="49.86248" lon="2.46177">
        <ele>96.1</ele>
        <time>2024-01-24T14:45:05Z</time>
      </trkpt>
      <trkpt lat="49.86246" lon="2.46175">
        <ele>96.1</ele>
        <time>2024-01-24T14:45:07Z</time>
      </trkpt>
      <trkpt lat="49.86245" lon="2.46175">
        <ele>96.1</ele>
        <time>2024-01-24T14:45:08Z</time>
      </trkpt>
      <trkpt lat="49.86244" lon="2.46174">
        <ele>96.1</ele>
        <time>2024-01-24T14:45:09Z</time>
      </trkpt>
      <trkpt lat="49.86243" lon="2.46173">
        <ele>96.2</ele>
        <time>2024-01-24T14:45:10Z</time>
      </trkpt>
      <trkpt lat="49.86242" lon="2.46172">
        <ele>96.2</ele>
        <time>2024-01-24T14:45:12Z</time>
      </trkpt>
      <trkpt lat="49.86241" lon="2.4617">
        <ele>96.2</ele>
        <time>2024-01-24T14:45:13Z</time>
      </trkpt>
      <trkpt lat="49.8624" lon="2.46169">
        <ele>96.2</ele>
        <time>2024-01-24T14:45:14Z</time>
      </trkpt>
      <trkpt lat="49.8624" lon="2.46168">
        <ele>96.2</ele>
        <time>2024-01-24T14:45:15Z</time>
      </trkpt>
      <trkpt lat="49.86239" lon="2.46167">
        <ele>96.2</ele>
        <time>2024-01-24T14:45:16Z</time>
      </trkpt>
      <trkpt lat="49.86238" lon="2.46166">
        <ele>96.2</ele>
        <time>2024-01-24T14:45:17Z</time>
      </trkpt>
      <trkpt lat="49.86237" lon="2.46165">
        <ele>96.3</ele>
        <time>2024-01-24T14:45:18Z</time>
      </trkpt>
      <trkpt lat="49.86236" lon="2.46163">
        <ele>96.3</ele>
        <time>2024-01-24T14:45:20Z</time>
      </trkpt>
      <trkpt lat="49.86236" lon="2.46162">
        <ele>96.3</ele>
        <time>2024-01-24T14:45:21Z</time>
      </trkpt>
      <trkpt lat="49.86235" lon="2.46161">
        <ele>96.3</ele>
        <time>2024-01-24T14:45:22Z</time>
      </trkpt>
      <trkpt lat="49.86234" lon="2.4616">
        <ele>96.3</ele>
        <time>2024-01-24T14:45:23Z</time>
      </trkpt>
      <trkpt lat="49.86233" lon="2.4616">
        <ele>96.3</ele>
        <time>2024-01-24T14:45:24Z</time>
      </trkpt>
      <trkpt lat="49.86232" lon="2.46159">
        <ele>96.3</ele>
        <time>2024-01-24T14:45:25Z</time>
      </trkpt>
      <trkpt lat="49.86231" lon="2.46158">
        <ele>96.4</ele>
        <time>2024-01-24T14:45:26Z</time>
      </trkpt>
      <trkpt lat="49.8623" lon="2.46158">
        <ele>96.4</ele>
        <time>2024-01-24T14:45:27Z</time>
      </trkpt>
      <trkpt lat="49.86228" lon="2.46157">
        <ele>96.4</ele>
        <time>2024-01-24T14:45:28Z</time>
      </trkpt>
      <trkpt lat="49.86227" lon="2.46156">
        <ele>96.4</ele>
        <time>2024-01-24T14:45:30Z</time>
      </trkpt>
      <trkpt lat="49.86226" lon="2.46155">
        <ele>96.4</ele>
        <time>2024-01-24T14:45:31Z</time>
      </trkpt>
      <trkpt lat="49.86224" lon="2.46154">
        <ele>96.4</ele>
        <time>2024-01-24T14:45:32Z</time>
      </trkpt>
      <trkpt lat="49.86224" lon="2.46154">
        <ele>96.5</ele>
        <time>2024-01-24T14:45:33Z</time>
      </trkpt>
      <trkpt lat="49.86223" lon="2.46153">
        <ele>96.5</ele>
        <time>2024-01-24T14:45:34Z</time>
      </trkpt>
      <trkpt lat="49.86221" lon="2.46152">
        <ele>96.5</ele>
        <time>2024-01-24T14:45:35Z</time>
      </trkpt>
      <trkpt lat="49.8622" lon="2.46152">
        <ele>96.5</ele>
        <time>2024-01-24T14:45:36Z</time>
      </trkpt>
      <trkpt lat="49.86219" lon="2.46152">
        <ele>96.5</ele>
        <time>2024-01-24T14:45:37Z</time>
      </trkpt>
      <trkpt lat="49.86218" lon="2.46151">
        <ele>96.5</ele>
        <time>2024-01-24T14:45:38Z</time>
      </trkpt>
      <trkpt lat="49.86217" lon="2.4615">
        <ele>96.5</ele>
        <time>2024-01-24T14:45:39Z</time>
      </trkpt>
      <trkpt lat="49.86216" lon="2.46149">
        <ele>96.5</ele>
        <time>2024-01-24T14:45:41Z</time>
      </trkpt>
      <trkpt lat="49.86214" lon="2.46147">
        <ele>96.6</ele>
        <time>2024-01-24T14:45:42Z</time>
      </trkpt>
      <trkpt lat="49.86213" lon="2.46147">
        <ele>96.6</ele>
        <time>2024-01-24T14:45:43Z</time>
      </trkpt>
      <trkpt lat="49.86212" lon="2.46146">
        <ele>96.6</ele>
        <time>2024-01-24T14:45:44Z</time>
      </trkpt>
      <trkpt lat="49.86211" lon="2.46145">
        <ele>96.6</ele>
        <time>2024-01-24T14:45:45Z</time>
      </trkpt>
      <trkpt lat="49.8621" lon="2.46144">
        <ele>96.6</ele>
        <time>2024-01-24T14:45:46Z</time>
      </trkpt>
      <trkpt lat="49.86208" lon="2.46143">
        <ele>96.6</ele>
        <time>2024-01-24T14:45:47Z</time>
      </trkpt>
      <trkpt lat="49.86207" lon="2.46142">
        <ele>96.6</ele>
        <time>2024-01-24T14:45:48Z</time>
      </trkpt>
      <trkpt lat="49.86207" lon="2.46141">
        <ele>96.6</ele>
        <time>2024-01-24T14:45:49Z</time>
      </trkpt>
      <trkpt lat="49.86205" lon="2.4614">
        <ele>96.6</ele>
        <time>2024-01-24T14:45:51Z</time>
      </trkpt>
      <trkpt lat="49.86204" lon="2.46139">
        <ele>96.7</ele>
        <time>2024-01-24T14:45:52Z</time>
      </trkpt>
      <trkpt lat="49.86202" lon="2.46138">
        <ele>96.7</ele>
        <time>2024-01-24T14:45:53Z</time>
      </trkpt>
      <trkpt lat="49.86201" lon="2.46137">
        <ele>96.7</ele>
        <time>2024-01-24T14:45:54Z</time>
      </trkpt>
      <trkpt lat="49.86201" lon="2.46136">
        <ele>96.7</ele>
        <time>2024-01-24T14:45:55Z</time>
      </trkpt>
      <trkpt lat="49.86199" lon="2.46135">
        <ele>96.7</ele>
        <time>2024-01-24T14:45:57Z</time>
      </trkpt>
      <trkpt lat="49.86198" lon="2.46133">
        <ele>96.7</ele>
        <time>2024-01-24T14:45:58Z</time>
      </trkpt>
      <trkpt lat="49.86196" lon="2.46132">
        <ele>96.7</ele>
        <time>2024-01-24T14:45:59Z</time>
      </trkpt>
      <trkpt lat="49.86196" lon="2.46131">
        <ele>96.7</ele>
        <time>2024-01-24T14:46:00Z</time>
      </trkpt>
      <trkpt lat="49.86195" lon="2.46131">
        <ele>96.7</ele>
        <time>2024-01-24T14:46:01Z</time>
      </trkpt>
      <trkpt lat="49.86194" lon="2.4613">
        <ele>96.7</ele>
        <time>2024-01-24T14:46:02Z</time>
      </trkpt>
      <trkpt lat="49.86193" lon="2.46128">
        <ele>96.7</ele>
        <time>2024-01-24T14:46:03Z</time>
      </trkpt>
      <trkpt lat="49.86191" lon="2.46127">
        <ele>96.8</ele>
        <time>2024-01-24T14:46:05Z</time>
      </trkpt>
      <trkpt lat="49.86191" lon="2.46126">
        <ele>96.8</ele>
        <time>2024-01-24T14:46:06Z</time>
      </trkpt>
      <trkpt lat="49.8619" lon="2.46125">
        <ele>96.8</ele>
        <time>2024-01-24T14:46:07Z</time>
      </trkpt>
      <trkpt lat="49.86189" lon="2.46124">
        <ele>96.8</ele>
        <time>2024-01-24T14:46:08Z</time>
      </trkpt>
      <trkpt lat="49.86188" lon="2.46124">
        <ele>96.8</ele>
        <time>2024-01-24T14:46:09Z</time>
      </trkpt>
      <trkpt lat="49.86188" lon="2.46123">
        <ele>96.8</ele>
        <time>2024-01-24T14:46:10Z</time>
      </trkpt>
      <trkpt lat="49.86187" lon="2.46122">
        <ele>96.8</ele>
        <time>2024-01-24T14:46:11Z</time>
      </trkpt>
      <trkpt lat="49.86186" lon="2.46121">
        <ele>96.8</ele>
        <time>2024-01-24T14:46:13Z</time>
      </trkpt>
      <trkpt lat="49.86185" lon="2.4612">
        <ele>96.8</ele>
        <time>2024-01-24T14:46:14Z</time>
      </trkpt>
      <trkpt lat="49.86184" lon="2.46119">
        <ele>96.9</ele>
        <time>2024-01-24T14:46:15Z</time>
      </trkpt>
      <trkpt lat="49.86183" lon="2.46118">
        <ele>96.9</ele>
        <time>2024-01-24T14:46:16Z</time>
      </trkpt>
      <trkpt lat="49.86182" lon="2.46118">
        <ele>96.9</ele>
        <time>2024-01-24T14:46:17Z</time>
      </trkpt>
      <trkpt lat="49.86181" lon="2.46117">
        <ele>96.9</ele>
        <time>2024-01-24T14:46:19Z</time>
      </trkpt>
      <trkpt lat="49.86181" lon="2.46116">
        <ele>96.9</ele>
        <time>2024-01-24T14:46:20Z</time>
      </trkpt>
      <trkpt lat="49.86179" lon="2.46116">
        <ele>96.9</ele>
        <time>2024-01-24T14:46:21Z</time>
      </trkpt>
      <trkpt lat="49.86178" lon="2.46116">
        <ele>96.9</ele>
        <time>2024-01-24T14:46:22Z</time>
      </trkpt>
      <trkpt lat="49.86177" lon="2.46115">
        <ele>96.9</ele>
        <time>2024-01-24T14:46:23Z</time>
      </trkpt>
      <trkpt lat="49.86176" lon="2.46115">
        <ele>97</ele>
        <time>2024-01-24T14:46:24Z</time>
      </trkpt>
      <trkpt lat="49.86174" lon="2.46114">
        <ele>97</ele>
        <time>2024-01-24T14:46:25Z</time>
      </trkpt>
      <trkpt lat="49.86173" lon="2.46113">
        <ele>97</ele>
        <time>2024-01-24T14:46:26Z</time>
      </trkpt>
      <trkpt lat="49.86172" lon="2.46112">
        <ele>97</ele>
        <time>2024-01-24T14:46:28Z</time>
      </trkpt>
      <trkpt lat="49.86171" lon="2.46111">
        <ele>97</ele>
        <time>2024-01-24T14:46:29Z</time>
      </trkpt>
      <trkpt lat="49.8617" lon="2.4611">
        <ele>97</ele>
        <time>2024-01-24T14:46:30Z</time>
      </trkpt>
      <trkpt lat="49.86169" lon="2.4611">
        <ele>97</ele>
        <time>2024-01-24T14:46:31Z</time>
      </trkpt>
      <trkpt lat="49.86168" lon="2.46109">
        <ele>97</ele>
        <time>2024-01-24T14:46:32Z</time>
      </trkpt>
      <trkpt lat="49.86167" lon="2.46109">
        <ele>97</ele>
        <time>2024-01-24T14:46:33Z</time>
      </trkpt>
      <trkpt lat="49.86166" lon="2.46108">
        <ele>97</ele>
        <time>2024-01-24T14:46:34Z</time>
      </trkpt>
      <trkpt lat="49.86164" lon="2.46108">
        <ele>97</ele>
        <time>2024-01-24T14:46:35Z</time>
      </trkpt>
      <trkpt lat="49.86163" lon="2.46108">
        <ele>97</ele>
        <time>2024-01-24T14:46:37Z</time>
      </trkpt>
      <trkpt lat="49.86161" lon="2.46108">
        <ele>97</ele>
        <time>2024-01-24T14:46:38Z</time>
      </trkpt>
      <trkpt lat="49.8616" lon="2.46108">
        <ele>97.1</ele>
        <time>2024-01-24T14:46:39Z</time>
      </trkpt>
      <trkpt lat="49.86158" lon="2.46109">
        <ele>97.1</ele>
        <time>2024-01-24T14:46:40Z</time>
      </trkpt>
      <trkpt lat="49.86157" lon="2.46109">
        <ele>97.1</ele>
        <time>2024-01-24T14:46:41Z</time>
      </trkpt>
      <trkpt lat="49.86156" lon="2.4611">
        <ele>97.1</ele>
        <time>2024-01-24T14:46:42Z</time>
      </trkpt>
      <trkpt lat="49.86154" lon="2.46111">
        <ele>97.1</ele>
        <time>2024-01-24T14:46:44Z</time>
      </trkpt>
      <trkpt lat="49.86153" lon="2.46111">
        <ele>97.1</ele>
        <time>2024-01-24T14:46:45Z</time>
      </trkpt>
      <trkpt lat="49.86152" lon="2.46112">
        <ele>97.1</ele>
        <time>2024-01-24T14:46:46Z</time>
      </trkpt>
      <trkpt lat="49.8615" lon="2.46113">
        <ele>97.1</ele>
        <time>2024-01-24T14:46:47Z</time>
      </trkpt>
      <trkpt lat="49.86149" lon="2.46113">
        <ele>97.1</ele>
        <time>2024-01-24T14:46:48Z</time>
      </trkpt>
      <trkpt lat="49.86149" lon="2.46114">
        <ele>97.1</ele>
        <time>2024-01-24T14:46:49Z</time>
      </trkpt>
      <trkpt lat="49.86148" lon="2.46114">
        <ele>97.1</ele>
        <time>2024-01-24T14:46:50Z</time>
      </trkpt>
      <trkpt lat="49.86146" lon="2.46115">
        <ele>97.1</ele>
        <time>2024-01-24T14:46:51Z</time>
      </trkpt>
      <trkpt lat="49.86145" lon="2.46116">
        <ele>97.1</ele>
        <time>2024-01-24T14:46:53Z</time>
      </trkpt>
      <trkpt lat="49.86143" lon="2.46117">
        <ele>97.1</ele>
        <time>2024-01-24T14:46:54Z</time>
      </trkpt>
      <trkpt lat="49.86142" lon="2.46117">
        <ele>97.1</ele>
        <time>2024-01-24T14:46:55Z</time>
      </trkpt>
      <trkpt lat="49.86142" lon="2.46118">
        <ele>97.1</ele>
        <time>2024-01-24T14:46:56Z</time>
      </trkpt>
      <trkpt lat="49.86141" lon="2.46118">
        <ele>97.1</ele>
        <time>2024-01-24T14:46:57Z</time>
      </trkpt>
      <trkpt lat="49.86139" lon="2.46119">
        <ele>97.1</ele>
        <time>2024-01-24T14:46:58Z</time>
      </trkpt>
      <trkpt lat="49.86138" lon="2.46119">
        <ele>97.1</ele>
        <time>2024-01-24T14:46:59Z</time>
      </trkpt>
      <trkpt lat="49.86137" lon="2.4612">
        <ele>97.2</ele>
        <time>2024-01-24T14:47:01Z</time>
      </trkpt>
      <trkpt lat="49.86136" lon="2.4612">
        <ele>97.2</ele>
        <time>2024-01-24T14:47:02Z</time>
      </trkpt>
      <trkpt lat="49.86135" lon="2.4612">
        <ele>97.2</ele>
        <time>2024-01-24T14:47:03Z</time>
      </trkpt>
      <trkpt lat="49.86134" lon="2.4612">
        <ele>97.2</ele>
        <time>2024-01-24T14:47:04Z</time>
      </trkpt>
      <trkpt lat="49.86133" lon="2.46121">
        <ele>97.2</ele>
        <time>2024-01-24T14:47:05Z</time>
      </trkpt>
      <trkpt lat="49.86131" lon="2.46121">
        <ele>97.2</ele>
        <time>2024-01-24T14:47:06Z</time>
      </trkpt>
      <trkpt lat="49.8613" lon="2.46121">
        <ele>97.2</ele>
        <time>2024-01-24T14:47:07Z</time>
      </trkpt>
      <trkpt lat="49.86129" lon="2.46121">
        <ele>97.2</ele>
        <time>2024-01-24T14:47:09Z</time>
      </trkpt>
      <trkpt lat="49.86128" lon="2.46121">
        <ele>97.2</ele>
        <time>2024-01-24T14:47:10Z</time>
      </trkpt>
      <trkpt lat="49.86127" lon="2.46121">
        <ele>97.2</ele>
        <time>2024-01-24T14:47:11Z</time>
      </trkpt>
      <trkpt lat="49.86126" lon="2.46122">
        <ele>97.2</ele>
        <time>2024-01-24T14:47:12Z</time>
      </trkpt>
      <trkpt lat="49.86125" lon="2.46122">
        <ele>97.2</ele>
        <time>2024-01-24T14:47:13Z</time>
      </trkpt>
      <trkpt lat="49.86124" lon="2.46122">
        <ele>97.2</ele>
        <time>2024-01-24T14:47:14Z</time>
      </trkpt>
      <trkpt lat="49.86123" lon="2.46122">
        <ele>97.2</ele>
        <time>2024-01-24T14:47:16Z</time>
      </trkpt>
      <trkpt lat="49.86121" lon="2.46122">
        <ele>97.2</ele>
        <time>2024-01-24T14:47:17Z</time>
      </trkpt>
      <trkpt lat="49.8612" lon="2.46122">
        <ele>97.2</ele>
        <time>2024-01-24T14:47:18Z</time>
      </trkpt>
      <trkpt lat="49.86119" lon="2.46122">
        <ele>97.2</ele>
        <time>2024-01-24T14:47:19Z</time>
      </trkpt>
      <trkpt lat="49.86118" lon="2.46122">
        <ele>97.2</ele>
        <time>2024-01-24T14:47:20Z</time>
      </trkpt>
      <trkpt lat="49.86116" lon="2.46122">
        <ele>97.3</ele>
        <time>2024-01-24T14:47:22Z</time>
      </trkpt>
      <trkpt lat="49.86115" lon="2.46122">
        <ele>97.3</ele>
        <time>2024-01-24T14:47:23Z</time>
      </trkpt>
      <trkpt lat="49.86115" lon="2.46122">
        <ele>97.3</ele>
        <time>2024-01-24T14:47:24Z</time>
      </trkpt>
      <trkpt lat="49.86113" lon="2.46122">
        <ele>97.3</ele>
        <time>2024-01-24T14:47:25Z</time>
      </trkpt>
      <trkpt lat="49.86112" lon="2.46122">
        <ele>97.3</ele>
        <time>2024-01-24T14:47:26Z</time>
      </trkpt>
      <trkpt lat="49.86111" lon="2.46123">
        <ele>97.3</ele>
        <time>2024-01-24T14:47:27Z</time>
      </trkpt>
      <trkpt lat="49.86109" lon="2.46123">
        <ele>97.3</ele>
        <time>2024-01-24T14:47:28Z</time>
      </trkpt>
      <trkpt lat="49.86108" lon="2.46123">
        <ele>97.3</ele>
        <time>2024-01-24T14:47:30Z</time>
      </trkpt>
      <trkpt lat="49.86107" lon="2.46123">
        <ele>97.3</ele>
        <time>2024-01-24T14:47:31Z</time>
      </trkpt>
      <trkpt lat="49.86106" lon="2.46123">
        <ele>97.4</ele>
        <time>2024-01-24T14:47:32Z</time>
      </trkpt>
      <trkpt lat="49.86105" lon="2.46123">
        <ele>97.4</ele>
        <time>2024-01-24T14:47:33Z</time>
      </trkpt>
      <trkpt lat="49.86104" lon="2.46124">
        <ele>97.4</ele>
        <time>2024-01-24T14:47:34Z</time>
      </trkpt>
      <trkpt lat="49.86103" lon="2.46125">
        <ele>97.4</ele>
        <time>2024-01-24T14:47:36Z</time>
      </trkpt>
      <trkpt lat="49.86102" lon="2.46125">
        <ele>97.4</ele>
        <time>2024-01-24T14:47:37Z</time>
      </trkpt>
      <trkpt lat="49.86101" lon="2.46126">
        <ele>97.4</ele>
        <time>2024-01-24T14:47:38Z</time>
      </trkpt>
      <trkpt lat="49.861" lon="2.46126">
        <ele>97.4</ele>
        <time>2024-01-24T14:47:39Z</time>
      </trkpt>
      <trkpt lat="49.86099" lon="2.46127">
        <ele>97.4</ele>
        <time>2024-01-24T14:47:40Z</time>
      </trkpt>
      <trkpt lat="49.86098" lon="2.46128">
        <ele>97.5</ele>
        <time>2024-01-24T14:47:41Z</time>
      </trkpt>
      <trkpt lat="49.86097" lon="2.46128">
        <ele>97.5</ele>
        <time>2024-01-24T14:47:42Z</time>
      </trkpt>
      <trkpt lat="49.86096" lon="2.46129">
        <ele>97.5</ele>
        <time>2024-01-24T14:47:44Z</time>
      </trkpt>
      <trkpt lat="49.86095" lon="2.4613">
        <ele>97.5</ele>
        <time>2024-01-24T14:47:45Z</time>
      </trkpt>
      <trkpt lat="49.86094" lon="2.46132">
        <ele>97.5</ele>
        <time>2024-01-24T14:47:46Z</time>
      </trkpt>
      <trkpt lat="49.86093" lon="2.46133">
        <ele>97.5</ele>
        <time>2024-01-24T14:47:47Z</time>
      </trkpt>
      <trkpt lat="49.86092" lon="2.46134">
        <ele>97.5</ele>
        <time>2024-01-24T14:47:48Z</time>
      </trkpt>
      <trkpt lat="49.86091" lon="2.46135">
        <ele>97.6</ele>
        <time>2024-01-24T14:47:50Z</time>
      </trkpt>
      <trkpt lat="49.86091" lon="2.46136">
        <ele>97.6</ele>
        <time>2024-01-24T14:47:51Z</time>
      </trkpt>
      <trkpt lat="49.8609" lon="2.46137">
        <ele>97.6</ele>
        <time>2024-01-24T14:47:52Z</time>
      </trkpt>
      <trkpt lat="49.86088" lon="2.46137">
        <ele>97.6</ele>
        <time>2024-01-24T14:47:53Z</time>
      </trkpt>
      <trkpt lat="49.86087" lon="2.46138">
        <ele>97.6</ele>
        <time>2024-01-24T14:47:54Z</time>
      </trkpt>
      <trkpt lat="49.86087" lon="2.46138">
        <ele>97.6</ele>
        <time>2024-01-24T14:47:55Z</time>
      </trkpt>
      <trkpt lat="49.86086" lon="2.46139">
        <ele>97.6</ele>
        <time>2024-01-24T14:47:57Z</time>
      </trkpt>
      <trkpt lat="49.86085" lon="2.4614">
        <ele>97.6</ele>
        <time>2024-01-24T14:47:58Z</time>
      </trkpt>
      <trkpt lat="49.86084" lon="2.4614">
        <ele>97.6</ele>
        <time>2024-01-24T14:47:59Z</time>
      </trkpt>
      <trkpt lat="49.86083" lon="2.46141">
        <ele>97.6</ele>
        <time>2024-01-24T14:48:00Z</time>
      </trkpt>
      <trkpt lat="49.86082" lon="2.46142">
        <ele>97.7</ele>
        <time>2024-01-24T14:48:01Z</time>
      </trkpt>
      <trkpt lat="49.86081" lon="2.46143">
        <ele>97.7</ele>
        <time>2024-01-24T14:48:03Z</time>
      </trkpt>
      <trkpt lat="49.8608" lon="2.46143">
        <ele>97.7</ele>
        <time>2024-01-24T14:48:04Z</time>
      </trkpt>
      <trkpt lat="49.86079" lon="2.46144">
        <ele>97.7</ele>
        <time>2024-01-24T14:48:05Z</time>
      </trkpt>
      <trkpt lat="49.86078" lon="2.46145">
        <ele>97.7</ele>
        <time>2024-01-24T14:48:06Z</time>
      </trkpt>
      <trkpt lat="49.86077" lon="2.46146">
        <ele>97.7</ele>
        <time>2024-01-24T14:48:07Z</time>
      </trkpt>
      <trkpt lat="49.86076" lon="2.46147">
        <ele>97.7</ele>
        <time>2024-01-24T14:48:08Z</time>
      </trkpt>
      <trkpt lat="49.86075" lon="2.46148">
        <ele>97.7</ele>
        <time>2024-01-24T14:48:09Z</time>
      </trkpt>
      <trkpt lat="49.86074" lon="2.46149">
        <ele>97.7</ele>
        <time>2024-01-24T14:48:10Z</time>
      </trkpt>
      <trkpt lat="49.86073" lon="2.4615">
        <ele>97.8</ele>
        <time>2024-01-24T14:48:12Z</time>
      </trkpt>
      <trkpt lat="49.86072" lon="2.4615">
        <ele>97.8</ele>
        <time>2024-01-24T14:48:13Z</time>
      </trkpt>
      <trkpt lat="49.8607" lon="2.46152">
        <ele>97.8</ele>
        <time>2024-01-24T14:48:14Z</time>
      </trkpt>
      <trkpt lat="49.86069" lon="2.46152">
        <ele>97.8</ele>
        <time>2024-01-24T14:48:15Z</time>
      </trkpt>
      <trkpt lat="49.86068" lon="2.46152">
        <ele>97.8</ele>
        <time>2024-01-24T14:48:16Z</time>
      </trkpt>
      <trkpt lat="49.86067" lon="2.46153">
        <ele>97.8</ele>
        <time>2024-01-24T14:48:17Z</time>
      </trkpt>
      <trkpt lat="49.86066" lon="2.46154">
        <ele>97.8</ele>
        <time>2024-01-24T14:48:18Z</time>
      </trkpt>
      <trkpt lat="49.86065" lon="2.46155">
        <ele>97.8</ele>
        <time>2024-01-24T14:48:19Z</time>
      </trkpt>
      <trkpt lat="49.86064" lon="2.46155">
        <ele>97.8</ele>
        <time>2024-01-24T14:48:21Z</time>
      </trkpt>
      <trkpt lat="49.86063" lon="2.46156">
        <ele>97.8</ele>
        <time>2024-01-24T14:48:22Z</time>
      </trkpt>
      <trkpt lat="49.86062" lon="2.46156">
        <ele>97.8</ele>
        <time>2024-01-24T14:48:23Z</time>
      </trkpt>
      <trkpt lat="49.86061" lon="2.46157">
        <ele>97.8</ele>
        <time>2024-01-24T14:48:24Z</time>
      </trkpt>
      <trkpt lat="49.8606" lon="2.46157">
        <ele>97.9</ele>
        <time>2024-01-24T14:48:25Z</time>
      </trkpt>
      <trkpt lat="49.86059" lon="2.46157">
        <ele>97.9</ele>
        <time>2024-01-24T14:48:26Z</time>
      </trkpt>
      <trkpt lat="49.86058" lon="2.46158">
        <ele>97.9</ele>
        <time>2024-01-24T14:48:27Z</time>
      </trkpt>
      <trkpt lat="49.86057" lon="2.46158">
        <ele>97.9</ele>
        <time>2024-01-24T14:48:29Z</time>
      </trkpt>
      <trkpt lat="49.86056" lon="2.46158">
        <ele>97.9</ele>
        <time>2024-01-24T14:48:30Z</time>
      </trkpt>
      <trkpt lat="49.86056" lon="2.46159">
        <ele>97.9</ele>
        <time>2024-01-24T14:48:31Z</time>
      </trkpt>
      <trkpt lat="49.86055" lon="2.46159">
        <ele>97.9</ele>
        <time>2024-01-24T14:48:32Z</time>
      </trkpt>
      <trkpt lat="49.86054" lon="2.46159">
        <ele>97.9</ele>
        <time>2024-01-24T14:48:33Z</time>
      </trkpt>
      <trkpt lat="49.86053" lon="2.46159">
        <ele>97.9</ele>
        <time>2024-01-24T14:48:34Z</time>
      </trkpt>
      <trkpt lat="49.86052" lon="2.46159">
        <ele>97.9</ele>
        <time>2024-01-24T14:48:36Z</time>
      </trkpt>
      <trkpt lat="49.86051" lon="2.4616">
        <ele>97.9</ele>
        <time>2024-01-24T14:48:37Z</time>
      </trkpt>
      <trkpt lat="49.8605" lon="2.4616">
        <ele>97.9</ele>
        <time>2024-01-24T14:48:38Z</time>
      </trkpt>
      <trkpt lat="49.86049" lon="2.4616">
        <ele>97.9</ele>
        <time>2024-01-24T14:48:39Z</time>
      </trkpt>
      <trkpt lat="49.86048" lon="2.4616">
        <ele>97.9</ele>
        <time>2024-01-24T14:48:40Z</time>
      </trkpt>
      <trkpt lat="49.86047" lon="2.46161">
        <ele>97.9</ele>
        <time>2024-01-24T14:48:41Z</time>
      </trkpt>
      <trkpt lat="49.86046" lon="2.46161">
        <ele>97.9</ele>
        <time>2024-01-24T14:48:42Z</time>
      </trkpt>
      <trkpt lat="49.86045" lon="2.46161">
        <ele>97.9</ele>
        <time>2024-01-24T14:48:44Z</time>
      </trkpt>
      <trkpt lat="49.86044" lon="2.46161">
        <ele>97.9</ele>
        <time>2024-01-24T14:48:45Z</time>
      </trkpt>
      <trkpt lat="49.86043" lon="2.46161">
        <ele>97.9</ele>
        <time>2024-01-24T14:48:46Z</time>
      </trkpt>
      <trkpt lat="49.86042" lon="2.46161">
        <ele>97.9</ele>
        <time>2024-01-24T14:48:47Z</time>
      </trkpt>
      <trkpt lat="49.86041" lon="2.46162">
        <ele>97.9</ele>
        <time>2024-01-24T14:48:48Z</time>
      </trkpt>
      <trkpt lat="49.86039" lon="2.46162">
        <ele>98</ele>
        <time>2024-01-24T14:48:49Z</time>
      </trkpt>
      <trkpt lat="49.86038" lon="2.46162">
        <ele>98</ele>
        <time>2024-01-24T14:48:51Z</time>
      </trkpt>
      <trkpt lat="49.86037" lon="2.46162">
        <ele>98</ele>
        <time>2024-01-24T14:48:52Z</time>
      </trkpt>
      <trkpt lat="49.86035" lon="2.46162">
        <ele>98</ele>
        <time>2024-01-24T14:48:53Z</time>
      </trkpt>
      <trkpt lat="49.86034" lon="2.46162">
        <ele>98</ele>
        <time>2024-01-24T14:48:54Z</time>
      </trkpt>
      <trkpt lat="49.86033" lon="2.46162">
        <ele>98</ele>
        <time>2024-01-24T14:48:55Z</time>
      </trkpt>
      <trkpt lat="49.86031" lon="2.46162">
        <ele>98</ele>
        <time>2024-01-24T14:48:56Z</time>
      </trkpt>
      <trkpt lat="49.8603" lon="2.46162">
        <ele>98</ele>
        <time>2024-01-24T14:48:57Z</time>
      </trkpt>
      <trkpt lat="49.86029" lon="2.46162">
        <ele>98</ele>
        <time>2024-01-24T14:48:58Z</time>
      </trkpt>
      <trkpt lat="49.86027" lon="2.46162">
        <ele>98</ele>
        <time>2024-01-24T14:49:00Z</time>
      </trkpt>
      <trkpt lat="49.86026" lon="2.46162">
        <ele>98</ele>
        <time>2024-01-24T14:49:01Z</time>
      </trkpt>
      <trkpt lat="49.86025" lon="2.46161">
        <ele>98</ele>
        <time>2024-01-24T14:49:02Z</time>
      </trkpt>
      <trkpt lat="49.86023" lon="2.46161">
        <ele>98</ele>
        <time>2024-01-24T14:49:03Z</time>
      </trkpt>
      <trkpt lat="49.86022" lon="2.46161">
        <ele>98</ele>
        <time>2024-01-24T14:49:04Z</time>
      </trkpt>
      <trkpt lat="49.86021" lon="2.4616">
        <ele>98</ele>
        <time>2024-01-24T14:49:05Z</time>
      </trkpt>
      <trkpt lat="49.86019" lon="2.46159">
        <ele>98</ele>
        <time>2024-01-24T14:49:06Z</time>
      </trkpt>
      <trkpt lat="49.86018" lon="2.46159">
        <ele>98</ele>
        <time>2024-01-24T14:49:08Z</time>
      </trkpt>
      <trkpt lat="49.86016" lon="2.46158">
        <ele>98</ele>
        <time>2024-01-24T14:49:09Z</time>
      </trkpt>
      <trkpt lat="49.86015" lon="2.46157">
        <ele>98</ele>
        <time>2024-01-24T14:49:10Z</time>
      </trkpt>
      <trkpt lat="49.86013" lon="2.46157">
        <ele>98</ele>
        <time>2024-01-24T14:49:11Z</time>
      </trkpt>
      <trkpt lat="49.86012" lon="2.46156">
        <ele>98</ele>
        <time>2024-01-24T14:49:12Z</time>
      </trkpt>
      <trkpt lat="49.8601" lon="2.46156">
        <ele>98</ele>
        <time>2024-01-24T14:49:13Z</time>
      </trkpt>
      <trkpt lat="49.86009" lon="2.46156">
        <ele>98.1</ele>
        <time>2024-01-24T14:49:15Z</time>
      </trkpt>
      <trkpt lat="49.86007" lon="2.46155">
        <ele>98.1</ele>
        <time>2024-01-24T14:49:16Z</time>
      </trkpt>
      <trkpt lat="49.86007" lon="2.46154">
        <ele>98.1</ele>
        <time>2024-01-24T14:49:17Z</time>
      </trkpt>
      <trkpt lat="49.86006" lon="2.46154">
        <ele>98.1</ele>
        <time>2024-01-24T14:49:18Z</time>
      </trkpt>
      <trkpt lat="49.86005" lon="2.46154">
        <ele>98.1</ele>
        <time>2024-01-24T14:49:19Z</time>
      </trkpt>
      <trkpt lat="49.86003" lon="2.46153">
        <ele>98.1</ele>
        <time>2024-01-24T14:49:20Z</time>
      </trkpt>
      <trkpt lat="49.86002" lon="2.46153">
        <ele>98.1</ele>
        <time>2024-01-24T14:49:22Z</time>
      </trkpt>
      <trkpt lat="49.86" lon="2.46152">
        <ele>98.1</ele>
        <time>2024-01-24T14:49:23Z</time>
      </trkpt>
      <trkpt lat="49.85999" lon="2.46152">
        <ele>98.1</ele>
        <time>2024-01-24T14:49:24Z</time>
      </trkpt>
      <trkpt lat="49.85999" lon="2.46151">
        <ele>98.1</ele>
        <time>2024-01-24T14:49:25Z</time>
      </trkpt>
      <trkpt lat="49.85997" lon="2.46151">
        <ele>98.1</ele>
        <time>2024-01-24T14:49:26Z</time>
      </trkpt>
      <trkpt lat="49.85996" lon="2.4615">
        <ele>98.1</ele>
        <time>2024-01-24T14:49:27Z</time>
      </trkpt>
      <trkpt lat="49.85995" lon="2.4615">
        <ele>98.1</ele>
        <time>2024-01-24T14:49:28Z</time>
      </trkpt>
      <trkpt lat="49.85993" lon="2.46148">
        <ele>98.1</ele>
        <time>2024-01-24T14:49:30Z</time>
      </trkpt>
      <trkpt lat="49.85992" lon="2.46148">
        <ele>98.1</ele>
        <time>2024-01-24T14:49:31Z</time>
      </trkpt>
      <trkpt lat="49.85991" lon="2.46147">
        <ele>98.1</ele>
        <time>2024-01-24T14:49:32Z</time>
      </trkpt>
      <trkpt lat="49.8599" lon="2.46146">
        <ele>98.1</ele>
        <time>2024-01-24T14:49:33Z</time>
      </trkpt>
      <trkpt lat="49.85989" lon="2.46146">
        <ele>98.2</ele>
        <time>2024-01-24T14:49:34Z</time>
      </trkpt>
      <trkpt lat="49.85987" lon="2.46145">
        <ele>98.2</ele>
        <time>2024-01-24T14:49:35Z</time>
      </trkpt>
      <trkpt lat="49.85986" lon="2.46145">
        <ele>98.2</ele>
        <time>2024-01-24T14:49:36Z</time>
      </trkpt>
      <trkpt lat="49.85984" lon="2.46144">
        <ele>98.2</ele>
        <time>2024-01-24T14:49:38Z</time>
      </trkpt>
      <trkpt lat="49.85983" lon="2.46143">
        <ele>98.2</ele>
        <time>2024-01-24T14:49:39Z</time>
      </trkpt>
      <trkpt lat="49.85981" lon="2.46143">
        <ele>98.2</ele>
        <time>2024-01-24T14:49:40Z</time>
      </trkpt>
      <trkpt lat="49.85979" lon="2.46142">
        <ele>98.2</ele>
        <time>2024-01-24T14:49:41Z</time>
      </trkpt>
      <trkpt lat="49.85977" lon="2.46141">
        <ele>98.2</ele>
        <time>2024-01-24T14:49:42Z</time>
      </trkpt>
      <trkpt lat="49.85976" lon="2.4614">
        <ele>98.2</ele>
        <time>2024-01-24T14:49:44Z</time>
      </trkpt>
      <trkpt lat="49.85975" lon="2.4614">
        <ele>98.2</ele>
        <time>2024-01-24T14:49:45Z</time>
      </trkpt>
      <trkpt lat="49.85974" lon="2.46139">
        <ele>98.2</ele>
        <time>2024-01-24T14:49:46Z</time>
      </trkpt>
      <trkpt lat="49.85973" lon="2.46138">
        <ele>98.2</ele>
        <time>2024-01-24T14:49:47Z</time>
      </trkpt>
      <trkpt lat="49.85972" lon="2.46138">
        <ele>98.3</ele>
        <time>2024-01-24T14:49:48Z</time>
      </trkpt>
      <trkpt lat="49.85971" lon="2.46137">
        <ele>98.3</ele>
        <time>2024-01-24T14:49:49Z</time>
      </trkpt>
      <trkpt lat="49.8597" lon="2.46136">
        <ele>98.3</ele>
        <time>2024-01-24T14:49:50Z</time>
      </trkpt>
      <trkpt lat="49.85969" lon="2.46135">
        <ele>98.3</ele>
        <time>2024-01-24T14:49:52Z</time>
      </trkpt>
      <trkpt lat="49.85968" lon="2.46135">
        <ele>98.3</ele>
        <time>2024-01-24T14:49:53Z</time>
      </trkpt>
      <trkpt lat="49.85968" lon="2.46134">
        <ele>98.3</ele>
        <time>2024-01-24T14:49:54Z</time>
      </trkpt>
      <trkpt lat="49.85967" lon="2.46133">
        <ele>98.3</ele>
        <time>2024-01-24T14:49:55Z</time>
      </trkpt>
      <trkpt lat="49.85966" lon="2.46132">
        <ele>98.3</ele>
        <time>2024-01-24T14:49:56Z</time>
      </trkpt>
      <trkpt lat="49.85965" lon="2.46132">
        <ele>98.3</ele>
        <time>2024-01-24T14:49:57Z</time>
      </trkpt>
      <trkpt lat="49.85963" lon="2.46131">
        <ele>98.3</ele>
        <time>2024-01-24T14:49:58Z</time>
      </trkpt>
      <trkpt lat="49.85962" lon="2.4613">
        <ele>98.3</ele>
        <time>2024-01-24T14:50:00Z</time>
      </trkpt>
      <trkpt lat="49.85961" lon="2.46129">
        <ele>98.3</ele>
        <time>2024-01-24T14:50:01Z</time>
      </trkpt>
      <trkpt lat="49.85959" lon="2.46128">
        <ele>98.4</ele>
        <time>2024-01-24T14:50:02Z</time>
      </trkpt>
      <trkpt lat="49.85958" lon="2.46127">
        <ele>98.4</ele>
        <time>2024-01-24T14:50:03Z</time>
      </trkpt>
      <trkpt lat="49.85956" lon="2.46127">
        <ele>98.4</ele>
        <time>2024-01-24T14:50:04Z</time>
      </trkpt>
      <trkpt lat="49.85955" lon="2.46126">
        <ele>98.4</ele>
        <time>2024-01-24T14:50:05Z</time>
      </trkpt>
      <trkpt lat="49.85953" lon="2.46125">
        <ele>98.4</ele>
        <time>2024-01-24T14:50:07Z</time>
      </trkpt>
      <trkpt lat="49.85952" lon="2.46124">
        <ele>98.4</ele>
        <time>2024-01-24T14:50:08Z</time>
      </trkpt>
      <trkpt lat="49.8595" lon="2.46124">
        <ele>98.4</ele>
        <time>2024-01-24T14:50:09Z</time>
      </trkpt>
      <trkpt lat="49.85949" lon="2.46123">
        <ele>98.5</ele>
        <time>2024-01-24T14:50:10Z</time>
      </trkpt>
      <trkpt lat="49.85947" lon="2.46122">
        <ele>98.5</ele>
        <time>2024-01-24T14:50:11Z</time>
      </trkpt>
      <trkpt lat="49.85946" lon="2.46121">
        <ele>98.5</ele>
        <time>2024-01-24T14:50:12Z</time>
      </trkpt>
      <trkpt lat="49.85944" lon="2.4612">
        <ele>98.5</ele>
        <time>2024-01-24T14:50:13Z</time>
      </trkpt>
      <trkpt lat="49.85943" lon="2.46119">
        <ele>98.5</ele>
        <time>2024-01-24T14:50:15Z</time>
      </trkpt>
      <trkpt lat="49.85941" lon="2.46118">
        <ele>98.5</ele>
        <time>2024-01-24T14:50:16Z</time>
      </trkpt>
      <trkpt lat="49.85939" lon="2.46117">
        <ele>98.6</ele>
        <time>2024-01-24T14:50:17Z</time>
      </trkpt>
      <trkpt lat="49.85938" lon="2.46116">
        <ele>98.6</ele>
        <time>2024-01-24T14:50:18Z</time>
      </trkpt>
      <trkpt lat="49.85936" lon="2.46115">
        <ele>98.6</ele>
        <time>2024-01-24T14:50:19Z</time>
      </trkpt>
      <trkpt lat="49.85935" lon="2.46114">
        <ele>98.6</ele>
        <time>2024-01-24T14:50:20Z</time>
      </trkpt>
      <trkpt lat="49.85933" lon="2.46113">
        <ele>98.7</ele>
        <time>2024-01-24T14:50:21Z</time>
      </trkpt>
      <trkpt lat="49.85932" lon="2.46112">
        <ele>98.7</ele>
        <time>2024-01-24T14:50:23Z</time>
      </trkpt>
      <trkpt lat="49.85931" lon="2.46111">
        <ele>98.7</ele>
        <time>2024-01-24T14:50:24Z</time>
      </trkpt>
      <trkpt lat="49.85929" lon="2.4611">
        <ele>98.7</ele>
        <time>2024-01-24T14:50:25Z</time>
      </trkpt>
      <trkpt lat="49.85928" lon="2.46108">
        <ele>98.7</ele>
        <time>2024-01-24T14:50:26Z</time>
      </trkpt>
      <trkpt lat="49.85927" lon="2.46107">
        <ele>98.7</ele>
        <time>2024-01-24T14:50:27Z</time>
      </trkpt>
      <trkpt lat="49.85925" lon="2.46106">
        <ele>98.8</ele>
        <time>2024-01-24T14:50:28Z</time>
      </trkpt>
      <trkpt lat="49.85924" lon="2.46105">
        <ele>98.8</ele>
        <time>2024-01-24T14:50:29Z</time>
      </trkpt>
      <trkpt lat="49.85922" lon="2.46102">
        <ele>98.8</ele>
        <time>2024-01-24T14:50:30Z</time>
      </trkpt>
      <trkpt lat="49.85921" lon="2.46101">
        <ele>98.8</ele>
        <time>2024-01-24T14:50:32Z</time>
      </trkpt>
      <trkpt lat="49.85921" lon="2.461">
        <ele>98.8</ele>
        <time>2024-01-24T14:50:33Z</time>
      </trkpt>
      <trkpt lat="49.8592" lon="2.46099">
        <ele>98.8</ele>
        <time>2024-01-24T14:50:34Z</time>
      </trkpt>
      <trkpt lat="49.85919" lon="2.46098">
        <ele>98.8</ele>
        <time>2024-01-24T14:50:35Z</time>
      </trkpt>
      <trkpt lat="49.85918" lon="2.46096">
        <ele>98.8</ele>
        <time>2024-01-24T14:50:36Z</time>
      </trkpt>
      <trkpt lat="49.85917" lon="2.46095">
        <ele>98.8</ele>
        <time>2024-01-24T14:50:37Z</time>
      </trkpt>
      <trkpt lat="49.85916" lon="2.46094">
        <ele>98.8</ele>
        <time>2024-01-24T14:50:38Z</time>
      </trkpt>
      <trkpt lat="49.85915" lon="2.46091">
        <ele>98.8</ele>
        <time>2024-01-24T14:50:39Z</time>
      </trkpt>
      <trkpt lat="49.85914" lon="2.4609">
        <ele>98.8</ele>
        <time>2024-01-24T14:50:41Z</time>
      </trkpt>
      <trkpt lat="49.85914" lon="2.46089">
        <ele>98.8</ele>
        <time>2024-01-24T14:50:42Z</time>
      </trkpt>
      <trkpt lat="49.85912" lon="2.46087">
        <ele>98.8</ele>
        <time>2024-01-24T14:50:43Z</time>
      </trkpt>
      <trkpt lat="49.85912" lon="2.46086">
        <ele>98.8</ele>
        <time>2024-01-24T14:50:44Z</time>
      </trkpt>
      <trkpt lat="49.85911" lon="2.46085">
        <ele>98.8</ele>
        <time>2024-01-24T14:50:45Z</time>
      </trkpt>
      <trkpt lat="49.8591" lon="2.46083">
        <ele>98.8</ele>
        <time>2024-01-24T14:50:47Z</time>
      </trkpt>
      <trkpt lat="49.85909" lon="2.46082">
        <ele>98.8</ele>
        <time>2024-01-24T14:50:48Z</time>
      </trkpt>
      <trkpt lat="49.85908" lon="2.4608">
        <ele>98.8</ele>
        <time>2024-01-24T14:50:49Z</time>
      </trkpt>
      <trkpt lat="49.85907" lon="2.46079">
        <ele>98.9</ele>
        <time>2024-01-24T14:50:50Z</time>
      </trkpt>
      <trkpt lat="49.85907" lon="2.46078">
        <ele>98.9</ele>
        <time>2024-01-24T14:50:51Z</time>
      </trkpt>
      <trkpt lat="49.85906" lon="2.46076">
        <ele>98.9</ele>
        <time>2024-01-24T14:50:53Z</time>
      </trkpt>
      <trkpt lat="49.85905" lon="2.46075">
        <ele>98.9</ele>
        <time>2024-01-24T14:50:54Z</time>
      </trkpt>
      <trkpt lat="49.85903" lon="2.46073">
        <ele>98.9</ele>
        <time>2024-01-24T14:50:55Z</time>
      </trkpt>
      <trkpt lat="49.85903" lon="2.46072">
        <ele>98.9</ele>
        <time>2024-01-24T14:50:56Z</time>
      </trkpt>
      <trkpt lat="49.85902" lon="2.46071">
        <ele>98.9</ele>
        <time>2024-01-24T14:50:57Z</time>
      </trkpt>
      <trkpt lat="49.85902" lon="2.4607">
        <ele>98.9</ele>
        <time>2024-01-24T14:50:59Z</time>
      </trkpt>
      <trkpt lat="49.85901" lon="2.46069">
        <ele>98.9</ele>
        <time>2024-01-24T14:51:00Z</time>
      </trkpt>
      <trkpt lat="49.859" lon="2.46067">
        <ele>98.9</ele>
        <time>2024-01-24T14:51:02Z</time>
      </trkpt>
      <trkpt lat="49.859" lon="2.46066">
        <ele>98.9</ele>
        <time>2024-01-24T14:51:03Z</time>
      </trkpt>
      <trkpt lat="49.85901" lon="2.46065">
        <ele>98.9</ele>
        <time>2024-01-24T14:51:05Z</time>
      </trkpt>
      <trkpt lat="49.85901" lon="2.46065">
        <ele>98.9</ele>
        <time>2024-01-24T14:51:06Z</time>
      </trkpt>
      <trkpt lat="49.85901" lon="2.46065">
        <ele>98.9</ele>
        <time>2024-01-24T14:51:08Z</time>
      </trkpt>
      <trkpt lat="49.85901" lon="2.46065">
        <ele>98.9</ele>
        <time>2024-01-24T14:51:09Z</time>
      </trkpt>
      <trkpt lat="49.85901" lon="2.46065">
        <ele>98.9</ele>
        <time>2024-01-24T14:51:10Z</time>
      </trkpt>
      <trkpt lat="49.85901" lon="2.46065">
        <ele>98.9</ele>
        <time>2024-01-24T14:51:12Z</time>
      </trkpt>
      <trkpt lat="49.85901" lon="2.46065">
        <ele>98.9</ele>
        <time>2024-01-24T14:51:13Z</time>
      </trkpt>
      <trkpt lat="49.85902" lon="2.46066">
        <ele>98.9</ele>
        <time>2024-01-24T14:51:15Z</time>
      </trkpt>
      <trkpt lat="49.85902" lon="2.46066">
        <ele>98.9</ele>
        <time>2024-01-24T14:51:16Z</time>
      </trkpt>
      <trkpt lat="49.85902" lon="2.46066">
        <ele>98.9</ele>
        <time>2024-01-24T14:51:18Z</time>
      </trkpt>
      <trkpt lat="49.85902" lon="2.46066">
        <ele>98.9</ele>
        <time>2024-01-24T14:51:19Z</time>
      </trkpt>
      <trkpt lat="49.85902" lon="2.46066">
        <ele>98.9</ele>
        <time>2024-01-24T14:51:20Z</time>
      </trkpt>
      <trkpt lat="49.85902" lon="2.46066">
        <ele>98.9</ele>
        <time>2024-01-24T14:51:21Z</time>
      </trkpt>
      <trkpt lat="49.85902" lon="2.46066">
        <ele>98.9</ele>
        <time>2024-01-24T14:51:22Z</time>
      </trkpt>
      <trkpt lat="49.85901" lon="2.46072">
        <ele>98.9</ele>
        <time>2024-01-24T14:55:17Z</time>
      </trkpt>
      <trkpt lat="49.85901" lon="2.46072">
        <ele>99</ele>
        <time>2024-01-24T14:55:18Z</time>
      </trkpt>
      <trkpt lat="49.859" lon="2.46072">
        <ele>99</ele>
        <time>2024-01-24T14:55:19Z</time>
      </trkpt>
      <trkpt lat="49.859" lon="2.46071">
        <ele>99</ele>
        <time>2024-01-24T14:55:20Z</time>
      </trkpt>
      <trkpt lat="49.859" lon="2.46071">
        <ele>99</ele>
        <time>2024-01-24T14:55:21Z</time>
      </trkpt>
      <trkpt lat="49.859" lon="2.4607">
        <ele>99</ele>
        <time>2024-01-24T14:55:22Z</time>
      </trkpt>
      <trkpt lat="49.859" lon="2.4607">
        <ele>99</ele>
        <time>2024-01-24T14:55:23Z</time>
      </trkpt>
      <trkpt lat="49.859" lon="2.4607">
        <ele>99</ele>
        <time>2024-01-24T14:55:24Z</time>
      </trkpt>
      <trkpt lat="49.859" lon="2.4607">
        <ele>99</ele>
        <time>2024-01-24T14:55:25Z</time>
      </trkpt>
      <trkpt lat="49.859" lon="2.4607">
        <ele>99</ele>
        <time>2024-01-24T14:55:26Z</time>
      </trkpt>
      <trkpt lat="49.859" lon="2.4607">
        <ele>99</ele>
        <time>2024-01-24T14:55:27Z</time>
      </trkpt>
      <trkpt lat="49.859" lon="2.46071">
        <ele>99</ele>
        <time>2024-01-24T14:55:28Z</time>
      </trkpt>
      <trkpt lat="49.859" lon="2.46071">
        <ele>99</ele>
        <time>2024-01-24T14:55:29Z</time>
      </trkpt>
      <trkpt lat="49.859" lon="2.46071">
        <ele>99</ele>
        <time>2024-01-24T14:55:30Z</time>
      </trkpt>
      <trkpt lat="49.859" lon="2.46071">
        <ele>99</ele>
        <time>2024-01-24T14:55:31Z</time>
      </trkpt>
      <trkpt lat="49.859" lon="2.46071">
        <ele>99</ele>
        <time>2024-01-24T14:55:32Z</time>
      </trkpt>
      <trkpt lat="49.859" lon="2.46071">
        <ele>99</ele>
        <time>2024-01-24T14:55:33Z</time>
      </trkpt>
      <trkpt lat="49.85898" lon="2.46072">
        <ele>99</ele>
        <time>2024-01-24T14:55:45Z</time>
      </trkpt>
      <trkpt lat="49.85897" lon="2.46072">
        <ele>99</ele>
        <time>2024-01-24T14:55:46Z</time>
      </trkpt>
      <trkpt lat="49.85897" lon="2.46072">
        <ele>99</ele>
        <time>2024-01-24T14:55:47Z</time>
      </trkpt>
      <trkpt lat="49.85896" lon="2.46071">
        <ele>99</ele>
        <time>2024-01-24T14:55:49Z</time>
      </trkpt>
      <trkpt lat="49.85896" lon="2.46071">
        <ele>99</ele>
        <time>2024-01-24T14:55:50Z</time>
      </trkpt>
      <trkpt lat="49.85896" lon="2.4607">
        <ele>99</ele>
        <time>2024-01-24T14:55:52Z</time>
      </trkpt>
      <trkpt lat="49.85896" lon="2.4607">
        <ele>99</ele>
        <time>2024-01-24T14:55:53Z</time>
      </trkpt>
      <trkpt lat="49.85896" lon="2.4607">
        <ele>99</ele>
        <time>2024-01-24T14:55:55Z</time>
      </trkpt>
      <trkpt lat="49.85895" lon="2.4607">
        <ele>99</ele>
        <time>2024-01-24T14:55:56Z</time>
      </trkpt>
      <trkpt lat="49.85895" lon="2.4607">
        <ele>99</ele>
        <time>2024-01-24T14:55:57Z</time>
      </trkpt>
      <trkpt lat="49.85895" lon="2.4607">
        <ele>99</ele>
        <time>2024-01-24T14:55:59Z</time>
      </trkpt>
      <trkpt lat="49.85894" lon="2.46069">
        <ele>99.1</ele>
        <time>2024-01-24T14:56:00Z</time>
      </trkpt>
      <trkpt lat="49.85893" lon="2.46068">
        <ele>99.1</ele>
        <time>2024-01-24T14:56:01Z</time>
      </trkpt>
      <trkpt lat="49.85891" lon="2.46067">
        <ele>99.1</ele>
        <time>2024-01-24T14:56:02Z</time>
      </trkpt>
      <trkpt lat="49.8589" lon="2.46066">
        <ele>99.1</ele>
        <time>2024-01-24T14:56:03Z</time>
      </trkpt>
      <trkpt lat="49.85889" lon="2.46066">
        <ele>99.1</ele>
        <time>2024-01-24T14:56:04Z</time>
      </trkpt>
      <trkpt lat="49.85887" lon="2.46065">
        <ele>99.1</ele>
        <time>2024-01-24T14:56:06Z</time>
      </trkpt>
      <trkpt lat="49.85886" lon="2.46064">
        <ele>99.1</ele>
        <time>2024-01-24T14:56:07Z</time>
      </trkpt>
      <trkpt lat="49.85884" lon="2.46063">
        <ele>99.2</ele>
        <time>2024-01-24T14:56:08Z</time>
      </trkpt>
      <trkpt lat="49.85883" lon="2.46063">
        <ele>99.2</ele>
        <time>2024-01-24T14:56:09Z</time>
      </trkpt>
      <trkpt lat="49.85881" lon="2.46062">
        <ele>99.2</ele>
        <time>2024-01-24T14:56:10Z</time>
      </trkpt>
      <trkpt lat="49.85879" lon="2.46061">
        <ele>99.2</ele>
        <time>2024-01-24T14:56:11Z</time>
      </trkpt>
      <trkpt lat="49.85878" lon="2.4606">
        <ele>99.2</ele>
        <time>2024-01-24T14:56:13Z</time>
      </trkpt>
      <trkpt lat="49.85877" lon="2.4606">
        <ele>99.2</ele>
        <time>2024-01-24T14:56:14Z</time>
      </trkpt>
      <trkpt lat="49.85875" lon="2.46059">
        <ele>99.2</ele>
        <time>2024-01-24T14:56:15Z</time>
      </trkpt>
      <trkpt lat="49.85874" lon="2.46058">
        <ele>99.3</ele>
        <time>2024-01-24T14:56:16Z</time>
      </trkpt>
      <trkpt lat="49.85872" lon="2.46057">
        <ele>99.3</ele>
        <time>2024-01-24T14:56:17Z</time>
      </trkpt>
      <trkpt lat="49.85871" lon="2.46056">
        <ele>99.3</ele>
        <time>2024-01-24T14:56:18Z</time>
      </trkpt>
      <trkpt lat="49.85869" lon="2.46055">
        <ele>99.3</ele>
        <time>2024-01-24T14:56:19Z</time>
      </trkpt>
      <trkpt lat="49.85868" lon="2.46054">
        <ele>99.3</ele>
        <time>2024-01-24T14:56:21Z</time>
      </trkpt>
      <trkpt lat="49.85867" lon="2.46054">
        <ele>99.3</ele>
        <time>2024-01-24T14:56:22Z</time>
      </trkpt>
      <trkpt lat="49.85866" lon="2.46053">
        <ele>99.3</ele>
        <time>2024-01-24T14:56:23Z</time>
      </trkpt>
      <trkpt lat="49.85865" lon="2.46052">
        <ele>99.3</ele>
        <time>2024-01-24T14:56:24Z</time>
      </trkpt>
      <trkpt lat="49.85863" lon="2.46051">
        <ele>99.4</ele>
        <time>2024-01-24T14:56:25Z</time>
      </trkpt>
      <trkpt lat="49.85862" lon="2.46051">
        <ele>99.4</ele>
        <time>2024-01-24T14:56:26Z</time>
      </trkpt>
      <trkpt lat="49.85861" lon="2.46051">
        <ele>99.4</ele>
        <time>2024-01-24T14:56:27Z</time>
      </trkpt>
      <trkpt lat="49.8586" lon="2.4605">
        <ele>99.4</ele>
        <time>2024-01-24T14:56:29Z</time>
      </trkpt>
      <trkpt lat="49.85859" lon="2.46049">
        <ele>99.4</ele>
        <time>2024-01-24T14:56:30Z</time>
      </trkpt>
      <trkpt lat="49.85858" lon="2.46049">
        <ele>99.4</ele>
        <time>2024-01-24T14:56:31Z</time>
      </trkpt>
      <trkpt lat="49.85857" lon="2.46048">
        <ele>99.4</ele>
        <time>2024-01-24T14:56:32Z</time>
      </trkpt>
      <trkpt lat="49.85856" lon="2.46048">
        <ele>99.4</ele>
        <time>2024-01-24T14:56:33Z</time>
      </trkpt>
      <trkpt lat="49.85855" lon="2.46047">
        <ele>99.4</ele>
        <time>2024-01-24T14:56:34Z</time>
      </trkpt>
      <trkpt lat="49.85853" lon="2.46047">
        <ele>99.5</ele>
        <time>2024-01-24T14:56:36Z</time>
      </trkpt>
      <trkpt lat="49.85852" lon="2.46047">
        <ele>99.5</ele>
        <time>2024-01-24T14:56:37Z</time>
      </trkpt>
      <trkpt lat="49.85851" lon="2.46047">
        <ele>99.5</ele>
        <time>2024-01-24T14:56:38Z</time>
      </trkpt>
      <trkpt lat="49.85849" lon="2.46047">
        <ele>99.5</ele>
        <time>2024-01-24T14:56:39Z</time>
      </trkpt>
      <trkpt lat="49.85848" lon="2.46047">
        <ele>99.5</ele>
        <time>2024-01-24T14:56:40Z</time>
      </trkpt>
      <trkpt lat="49.85846" lon="2.46047">
        <ele>99.5</ele>
        <time>2024-01-24T14:56:41Z</time>
      </trkpt>
      <trkpt lat="49.85845" lon="2.46047">
        <ele>99.5</ele>
        <time>2024-01-24T14:56:43Z</time>
      </trkpt>
      <trkpt lat="49.85844" lon="2.46047">
        <ele>99.5</ele>
        <time>2024-01-24T14:56:44Z</time>
      </trkpt>
      <trkpt lat="49.85843" lon="2.46048">
        <ele>99.6</ele>
        <time>2024-01-24T14:56:45Z</time>
      </trkpt>
      <trkpt lat="49.85842" lon="2.46048">
        <ele>99.6</ele>
        <time>2024-01-24T14:56:46Z</time>
      </trkpt>
      <trkpt lat="49.8584" lon="2.46049">
        <ele>99.6</ele>
        <time>2024-01-24T14:56:47Z</time>
      </trkpt>
      <trkpt lat="49.85839" lon="2.46049">
        <ele>99.6</ele>
        <time>2024-01-24T14:56:48Z</time>
      </trkpt>
      <trkpt lat="49.85838" lon="2.46049">
        <ele>99.6</ele>
        <time>2024-01-24T14:56:49Z</time>
      </trkpt>
      <trkpt lat="49.85837" lon="2.4605">
        <ele>99.6</ele>
        <time>2024-01-24T14:56:50Z</time>
      </trkpt>
      <trkpt lat="49.85836" lon="2.46051">
        <ele>99.6</ele>
        <time>2024-01-24T14:56:51Z</time>
      </trkpt>
      <trkpt lat="49.85835" lon="2.46052">
        <ele>99.7</ele>
        <time>2024-01-24T14:56:53Z</time>
      </trkpt>
      <trkpt lat="49.85833" lon="2.46053">
        <ele>99.7</ele>
        <time>2024-01-24T14:56:54Z</time>
      </trkpt>
      <trkpt lat="49.85832" lon="2.46054">
        <ele>99.7</ele>
        <time>2024-01-24T14:56:55Z</time>
      </trkpt>
      <trkpt lat="49.85831" lon="2.46054">
        <ele>99.7</ele>
        <time>2024-01-24T14:56:56Z</time>
      </trkpt>
      <trkpt lat="49.85829" lon="2.46056">
        <ele>99.7</ele>
        <time>2024-01-24T14:56:57Z</time>
      </trkpt>
      <trkpt lat="49.85829" lon="2.46056">
        <ele>99.7</ele>
        <time>2024-01-24T14:56:59Z</time>
      </trkpt>
      <trkpt lat="49.85828" lon="2.46056">
        <ele>99.7</ele>
        <time>2024-01-24T14:57:00Z</time>
      </trkpt>
      <trkpt lat="49.85827" lon="2.46057">
        <ele>99.7</ele>
        <time>2024-01-24T14:57:01Z</time>
      </trkpt>
      <trkpt lat="49.85826" lon="2.46057">
        <ele>99.8</ele>
        <time>2024-01-24T14:57:02Z</time>
      </trkpt>
      <trkpt lat="49.85825" lon="2.46058">
        <ele>99.8</ele>
        <time>2024-01-24T14:57:03Z</time>
      </trkpt>
      <trkpt lat="49.85823" lon="2.46059">
        <ele>99.8</ele>
        <time>2024-01-24T14:57:04Z</time>
      </trkpt>
      <trkpt lat="49.85822" lon="2.46059">
        <ele>99.8</ele>
        <time>2024-01-24T14:57:05Z</time>
      </trkpt>
      <trkpt lat="49.85821" lon="2.46059">
        <ele>99.8</ele>
        <time>2024-01-24T14:57:06Z</time>
      </trkpt>
      <trkpt lat="49.85819" lon="2.46059">
        <ele>99.8</ele>
        <time>2024-01-24T14:57:08Z</time>
      </trkpt>
      <trkpt lat="49.85818" lon="2.46059">
        <ele>99.8</ele>
        <time>2024-01-24T14:57:09Z</time>
      </trkpt>
      <trkpt lat="49.85817" lon="2.46059">
        <ele>99.8</ele>
        <time>2024-01-24T14:57:10Z</time>
      </trkpt>
      <trkpt lat="49.85815" lon="2.4606">
        <ele>99.8</ele>
        <time>2024-01-24T14:57:11Z</time>
      </trkpt>
      <trkpt lat="49.85814" lon="2.4606">
        <ele>99.8</ele>
        <time>2024-01-24T14:57:12Z</time>
      </trkpt>
      <trkpt lat="49.85812" lon="2.4606">
        <ele>99.8</ele>
        <time>2024-01-24T14:57:13Z</time>
      </trkpt>
      <trkpt lat="49.85811" lon="2.4606">
        <ele>99.8</ele>
        <time>2024-01-24T14:57:14Z</time>
      </trkpt>
      <trkpt lat="49.85809" lon="2.46059">
        <ele>99.8</ele>
        <time>2024-01-24T14:57:16Z</time>
      </trkpt>
      <trkpt lat="49.85807" lon="2.46059">
        <ele>99.8</ele>
        <time>2024-01-24T14:57:17Z</time>
      </trkpt>
      <trkpt lat="49.85806" lon="2.46058">
        <ele>99.8</ele>
        <time>2024-01-24T14:57:18Z</time>
      </trkpt>
      <trkpt lat="49.85805" lon="2.46058">
        <ele>99.8</ele>
        <time>2024-01-24T14:57:19Z</time>
      </trkpt>
      <trkpt lat="49.85803" lon="2.46058">
        <ele>99.8</ele>
        <time>2024-01-24T14:57:20Z</time>
      </trkpt>
      <trkpt lat="49.85802" lon="2.46058">
        <ele>99.8</ele>
        <time>2024-01-24T14:57:22Z</time>
      </trkpt>
      <trkpt lat="49.858" lon="2.46058">
        <ele>99.8</ele>
        <time>2024-01-24T14:57:23Z</time>
      </trkpt>
      <trkpt lat="49.85799" lon="2.46058">
        <ele>99.8</ele>
        <time>2024-01-24T14:57:24Z</time>
      </trkpt>
      <trkpt lat="49.85797" lon="2.46059">
        <ele>99.8</ele>
        <time>2024-01-24T14:57:26Z</time>
      </trkpt>
      <trkpt lat="49.85796" lon="2.46059">
        <ele>99.8</ele>
        <time>2024-01-24T14:57:27Z</time>
      </trkpt>
      <trkpt lat="49.85794" lon="2.4606">
        <ele>99.8</ele>
        <time>2024-01-24T14:57:28Z</time>
      </trkpt>
      <trkpt lat="49.85792" lon="2.46061">
        <ele>99.8</ele>
        <time>2024-01-24T14:57:29Z</time>
      </trkpt>
      <trkpt lat="49.85791" lon="2.46061">
        <ele>99.8</ele>
        <time>2024-01-24T14:57:30Z</time>
      </trkpt>
      <trkpt lat="49.85789" lon="2.46061">
        <ele>99.8</ele>
        <time>2024-01-24T14:57:31Z</time>
      </trkpt>
      <trkpt lat="49.85788" lon="2.46062">
        <ele>99.8</ele>
        <time>2024-01-24T14:57:32Z</time>
      </trkpt>
      <trkpt lat="49.85786" lon="2.46062">
        <ele>99.8</ele>
        <time>2024-01-24T14:57:33Z</time>
      </trkpt>
      <trkpt lat="49.85784" lon="2.46061">
        <ele>99.8</ele>
        <time>2024-01-24T14:57:35Z</time>
      </trkpt>
      <trkpt lat="49.85783" lon="2.46061">
        <ele>99.8</ele>
        <time>2024-01-24T14:57:36Z</time>
      </trkpt>
      <trkpt lat="49.85782" lon="2.46061">
        <ele>99.8</ele>
        <time>2024-01-24T14:57:37Z</time>
      </trkpt>
      <trkpt lat="49.85781" lon="2.46061">
        <ele>99.8</ele>
        <time>2024-01-24T14:57:38Z</time>
      </trkpt>
      <trkpt lat="49.8578" lon="2.4606">
        <ele>99.8</ele>
        <time>2024-01-24T14:57:39Z</time>
      </trkpt>
      <trkpt lat="49.85779" lon="2.4606">
        <ele>99.8</ele>
        <time>2024-01-24T14:57:40Z</time>
      </trkpt>
      <trkpt lat="49.85778" lon="2.46059">
        <ele>99.8</ele>
        <time>2024-01-24T14:57:41Z</time>
      </trkpt>
      <trkpt lat="49.85776" lon="2.46059">
        <ele>99.8</ele>
        <time>2024-01-24T14:57:43Z</time>
      </trkpt>
      <trkpt lat="49.85775" lon="2.46059">
        <ele>99.8</ele>
        <time>2024-01-24T14:57:44Z</time>
      </trkpt>
      <trkpt lat="49.85773" lon="2.46059">
        <ele>99.8</ele>
        <time>2024-01-24T14:57:45Z</time>
      </trkpt>
      <trkpt lat="49.85771" lon="2.46059">
        <ele>99.8</ele>
        <time>2024-01-24T14:57:46Z</time>
      </trkpt>
      <trkpt lat="49.8577" lon="2.46059">
        <ele>99.8</ele>
        <time>2024-01-24T14:57:47Z</time>
      </trkpt>
      <trkpt lat="49.8577" lon="2.46059">
        <ele>99.8</ele>
        <time>2024-01-24T14:57:48Z</time>
      </trkpt>
      <trkpt lat="49.85768" lon="2.46059">
        <ele>99.8</ele>
        <time>2024-01-24T14:57:49Z</time>
      </trkpt>
      <trkpt lat="49.85767" lon="2.4606">
        <ele>99.8</ele>
        <time>2024-01-24T14:57:51Z</time>
      </trkpt>
      <trkpt lat="49.85766" lon="2.4606">
        <ele>99.8</ele>
        <time>2024-01-24T14:57:52Z</time>
      </trkpt>
      <trkpt lat="49.85764" lon="2.4606">
        <ele>99.9</ele>
        <time>2024-01-24T14:57:53Z</time>
      </trkpt>
      <trkpt lat="49.85763" lon="2.4606">
        <ele>99.9</ele>
        <time>2024-01-24T14:57:54Z</time>
      </trkpt>
      <trkpt lat="49.85761" lon="2.46061">
        <ele>99.9</ele>
        <time>2024-01-24T14:57:55Z</time>
      </trkpt>
      <trkpt lat="49.8576" lon="2.46061">
        <ele>99.9</ele>
        <time>2024-01-24T14:57:56Z</time>
      </trkpt>
      <trkpt lat="49.85759" lon="2.46061">
        <ele>99.9</ele>
        <time>2024-01-24T14:57:57Z</time>
      </trkpt>
      <trkpt lat="49.85758" lon="2.46061">
        <ele>99.9</ele>
        <time>2024-01-24T14:57:58Z</time>
      </trkpt>
      <trkpt lat="49.85757" lon="2.46062">
        <ele>99.9</ele>
        <time>2024-01-24T14:57:59Z</time>
      </trkpt>
      <trkpt lat="49.85756" lon="2.46062">
        <ele>100</ele>
        <time>2024-01-24T14:58:00Z</time>
      </trkpt>
      <trkpt lat="49.85754" lon="2.46063">
        <ele>100</ele>
        <time>2024-01-24T14:58:02Z</time>
      </trkpt>
      <trkpt lat="49.85753" lon="2.46063">
        <ele>100</ele>
        <time>2024-01-24T14:58:03Z</time>
      </trkpt>
      <trkpt lat="49.85752" lon="2.46063">
        <ele>100</ele>
        <time>2024-01-24T14:58:04Z</time>
      </trkpt>
      <trkpt lat="49.8575" lon="2.46063">
        <ele>100</ele>
        <time>2024-01-24T14:58:05Z</time>
      </trkpt>
      <trkpt lat="49.85749" lon="2.46063">
        <ele>100.1</ele>
        <time>2024-01-24T14:58:06Z</time>
      </trkpt>
      <trkpt lat="49.85748" lon="2.46063">
        <ele>100.1</ele>
        <time>2024-01-24T14:58:07Z</time>
      </trkpt>
      <trkpt lat="49.85747" lon="2.46063">
        <ele>100.1</ele>
        <time>2024-01-24T14:58:08Z</time>
      </trkpt>
      <trkpt lat="49.85746" lon="2.46063">
        <ele>100.1</ele>
        <time>2024-01-24T14:58:09Z</time>
      </trkpt>
      <trkpt lat="49.85745" lon="2.46063">
        <ele>100.1</ele>
        <time>2024-01-24T14:58:10Z</time>
      </trkpt>
      <trkpt lat="49.85742" lon="2.46063">
        <ele>100.2</ele>
        <time>2024-01-24T14:58:12Z</time>
      </trkpt>
      <trkpt lat="49.85742" lon="2.46063">
        <ele>100.2</ele>
        <time>2024-01-24T14:58:13Z</time>
      </trkpt>
      <trkpt lat="49.85741" lon="2.46063">
        <ele>100.2</ele>
        <time>2024-01-24T14:58:14Z</time>
      </trkpt>
      <trkpt lat="49.85739" lon="2.46063">
        <ele>100.3</ele>
        <time>2024-01-24T14:58:15Z</time>
      </trkpt>
      <trkpt lat="49.85738" lon="2.46063">
        <ele>100.3</ele>
        <time>2024-01-24T14:58:16Z</time>
      </trkpt>
      <trkpt lat="49.85736" lon="2.46063">
        <ele>100.3</ele>
        <time>2024-01-24T14:58:17Z</time>
      </trkpt>
      <trkpt lat="49.85735" lon="2.46063">
        <ele>100.4</ele>
        <time>2024-01-24T14:58:18Z</time>
      </trkpt>
      <trkpt lat="49.85734" lon="2.46063">
        <ele>100.4</ele>
        <time>2024-01-24T14:58:19Z</time>
      </trkpt>
      <trkpt lat="49.85732" lon="2.46063">
        <ele>100.4</ele>
        <time>2024-01-24T14:58:20Z</time>
      </trkpt>
      <trkpt lat="49.85731" lon="2.46063">
        <ele>100.5</ele>
        <time>2024-01-24T14:58:22Z</time>
      </trkpt>
      <trkpt lat="49.8573" lon="2.46063">
        <ele>100.5</ele>
        <time>2024-01-24T14:58:23Z</time>
      </trkpt>
      <trkpt lat="49.85729" lon="2.46063">
        <ele>100.5</ele>
        <time>2024-01-24T14:58:24Z</time>
      </trkpt>
      <trkpt lat="49.85728" lon="2.46063">
        <ele>100.6</ele>
        <time>2024-01-24T14:58:25Z</time>
      </trkpt>
      <trkpt lat="49.85726" lon="2.46063">
        <ele>100.6</ele>
        <time>2024-01-24T14:58:26Z</time>
      </trkpt>
      <trkpt lat="49.85725" lon="2.46063">
        <ele>100.6</ele>
        <time>2024-01-24T14:58:27Z</time>
      </trkpt>
      <trkpt lat="49.85724" lon="2.46064">
        <ele>100.7</ele>
        <time>2024-01-24T14:58:28Z</time>
      </trkpt>
      <trkpt lat="49.85722" lon="2.46064">
        <ele>100.7</ele>
        <time>2024-01-24T14:58:30Z</time>
      </trkpt>
      <trkpt lat="49.85721" lon="2.46064">
        <ele>100.8</ele>
        <time>2024-01-24T14:58:31Z</time>
      </trkpt>
      <trkpt lat="49.8572" lon="2.46064">
        <ele>100.8</ele>
        <time>2024-01-24T14:58:32Z</time>
      </trkpt>
      <trkpt lat="49.85718" lon="2.46065">
        <ele>100.9</ele>
        <time>2024-01-24T14:58:33Z</time>
      </trkpt>
      <trkpt lat="49.85717" lon="2.46065">
        <ele>100.9</ele>
        <time>2024-01-24T14:58:34Z</time>
      </trkpt>
      <trkpt lat="49.85717" lon="2.46066">
        <ele>100.9</ele>
        <time>2024-01-24T14:58:35Z</time>
      </trkpt>
      <trkpt lat="49.85716" lon="2.46066">
        <ele>101</ele>
        <time>2024-01-24T14:58:36Z</time>
      </trkpt>
      <trkpt lat="49.85714" lon="2.46066">
        <ele>101</ele>
        <time>2024-01-24T14:58:37Z</time>
      </trkpt>
      <trkpt lat="49.85713" lon="2.46066">
        <ele>101.1</ele>
        <time>2024-01-24T14:58:39Z</time>
      </trkpt>
      <trkpt lat="49.85711" lon="2.46066">
        <ele>101.2</ele>
        <time>2024-01-24T14:58:40Z</time>
      </trkpt>
      <trkpt lat="49.8571" lon="2.46066">
        <ele>101.2</ele>
        <time>2024-01-24T14:58:41Z</time>
      </trkpt>
      <trkpt lat="49.85709" lon="2.46066">
        <ele>101.2</ele>
        <time>2024-01-24T14:58:42Z</time>
      </trkpt>
      <trkpt lat="49.85707" lon="2.46066">
        <ele>101.3</ele>
        <time>2024-01-24T14:58:43Z</time>
      </trkpt>
      <trkpt lat="49.85706" lon="2.46066">
        <ele>101.4</ele>
        <time>2024-01-24T14:58:44Z</time>
      </trkpt>
      <trkpt lat="49.85705" lon="2.46066">
        <ele>101.4</ele>
        <time>2024-01-24T14:58:45Z</time>
      </trkpt>
      <trkpt lat="49.85703" lon="2.46066">
        <ele>101.5</ele>
        <time>2024-01-24T14:58:47Z</time>
      </trkpt>
      <trkpt lat="49.85703" lon="2.46066">
        <ele>101.5</ele>
        <time>2024-01-24T14:58:48Z</time>
      </trkpt>
      <trkpt lat="49.85702" lon="2.46065">
        <ele>101.6</ele>
        <time>2024-01-24T14:58:49Z</time>
      </trkpt>
      <trkpt lat="49.857" lon="2.46066">
        <ele>101.6</ele>
        <time>2024-01-24T14:58:50Z</time>
      </trkpt>
      <trkpt lat="49.85699" lon="2.46066">
        <ele>101.7</ele>
        <time>2024-01-24T14:58:51Z</time>
      </trkpt>
      <trkpt lat="49.85698" lon="2.46066">
        <ele>101.7</ele>
        <time>2024-01-24T14:58:52Z</time>
      </trkpt>
      <trkpt lat="49.85697" lon="2.46066">
        <ele>101.8</ele>
        <time>2024-01-24T14:58:53Z</time>
      </trkpt>
      <trkpt lat="49.85696" lon="2.46066">
        <ele>101.8</ele>
        <time>2024-01-24T14:58:54Z</time>
      </trkpt>
      <trkpt lat="49.85694" lon="2.46066">
        <ele>101.9</ele>
        <time>2024-01-24T14:58:56Z</time>
      </trkpt>
      <trkpt lat="49.85692" lon="2.46066">
        <ele>102</ele>
        <time>2024-01-24T14:58:57Z</time>
      </trkpt>
      <trkpt lat="49.85692" lon="2.46067">
        <ele>102</ele>
        <time>2024-01-24T14:58:58Z</time>
      </trkpt>
      <trkpt lat="49.85691" lon="2.46067">
        <ele>102.1</ele>
        <time>2024-01-24T14:58:59Z</time>
      </trkpt>
      <trkpt lat="49.8569" lon="2.46067">
        <ele>102.1</ele>
        <time>2024-01-24T14:59:00Z</time>
      </trkpt>
      <trkpt lat="49.85688" lon="2.46068">
        <ele>102.2</ele>
        <time>2024-01-24T14:59:01Z</time>
      </trkpt>
      <trkpt lat="49.85687" lon="2.46068">
        <ele>102.2</ele>
        <time>2024-01-24T14:59:02Z</time>
      </trkpt>
      <trkpt lat="49.85685" lon="2.46069">
        <ele>102.3</ele>
        <time>2024-01-24T14:59:03Z</time>
      </trkpt>
      <trkpt lat="49.85684" lon="2.46069">
        <ele>102.3</ele>
        <time>2024-01-24T14:59:05Z</time>
      </trkpt>
      <trkpt lat="49.85683" lon="2.46069">
        <ele>102.4</ele>
        <time>2024-01-24T14:59:06Z</time>
      </trkpt>
      <trkpt lat="49.85682" lon="2.46069">
        <ele>102.4</ele>
        <time>2024-01-24T14:59:07Z</time>
      </trkpt>
      <trkpt lat="49.85681" lon="2.4607">
        <ele>102.5</ele>
        <time>2024-01-24T14:59:08Z</time>
      </trkpt>
      <trkpt lat="49.85679" lon="2.4607">
        <ele>102.6</ele>
        <time>2024-01-24T14:59:09Z</time>
      </trkpt>
      <trkpt lat="49.85678" lon="2.4607">
        <ele>102.6</ele>
        <time>2024-01-24T14:59:10Z</time>
      </trkpt>
      <trkpt lat="49.85677" lon="2.46071">
        <ele>102.7</ele>
        <time>2024-01-24T14:59:11Z</time>
      </trkpt>
      <trkpt lat="49.85675" lon="2.46071">
        <ele>102.8</ele>
        <time>2024-01-24T14:59:12Z</time>
      </trkpt>
      <trkpt lat="49.85674" lon="2.46071">
        <ele>102.8</ele>
        <time>2024-01-24T14:59:14Z</time>
      </trkpt>
      <trkpt lat="49.85673" lon="2.46071">
        <ele>102.8</ele>
        <time>2024-01-24T14:59:15Z</time>
      </trkpt>
      <trkpt lat="49.85672" lon="2.46072">
        <ele>102.9</ele>
        <time>2024-01-24T14:59:16Z</time>
      </trkpt>
      <trkpt lat="49.85671" lon="2.46072">
        <ele>102.9</ele>
        <time>2024-01-24T14:59:17Z</time>
      </trkpt>
      <trkpt lat="49.85668" lon="2.46072">
        <ele>103</ele>
        <time>2024-01-24T14:59:18Z</time>
      </trkpt>
      <trkpt lat="49.85668" lon="2.46072">
        <ele>103.1</ele>
        <time>2024-01-24T14:59:19Z</time>
      </trkpt>
      <trkpt lat="49.85667" lon="2.46072">
        <ele>103.1</ele>
        <time>2024-01-24T14:59:20Z</time>
      </trkpt>
      <trkpt lat="49.85665" lon="2.46072">
        <ele>103.2</ele>
        <time>2024-01-24T14:59:22Z</time>
      </trkpt>
      <trkpt lat="49.85664" lon="2.46072">
        <ele>103.2</ele>
        <time>2024-01-24T14:59:23Z</time>
      </trkpt>
      <trkpt lat="49.85663" lon="2.46072">
        <ele>103.3</ele>
        <time>2024-01-24T14:59:24Z</time>
      </trkpt>
      <trkpt lat="49.85661" lon="2.46072">
        <ele>103.4</ele>
        <time>2024-01-24T14:59:25Z</time>
      </trkpt>
      <trkpt lat="49.8566" lon="2.46072">
        <ele>103.4</ele>
        <time>2024-01-24T14:59:26Z</time>
      </trkpt>
      <trkpt lat="49.85659" lon="2.46072">
        <ele>103.4</ele>
        <time>2024-01-24T14:59:27Z</time>
      </trkpt>
      <trkpt lat="49.85657" lon="2.46072">
        <ele>103.5</ele>
        <time>2024-01-24T14:59:28Z</time>
      </trkpt>
      <trkpt lat="49.85656" lon="2.46072">
        <ele>103.6</ele>
        <time>2024-01-24T14:59:30Z</time>
      </trkpt>
      <trkpt lat="49.85655" lon="2.46072">
        <ele>103.6</ele>
        <time>2024-01-24T14:59:31Z</time>
      </trkpt>
      <trkpt lat="49.85653" lon="2.46072">
        <ele>103.7</ele>
        <time>2024-01-24T14:59:32Z</time>
      </trkpt>
      <trkpt lat="49.85652" lon="2.46072">
        <ele>103.7</ele>
        <time>2024-01-24T14:59:33Z</time>
      </trkpt>
      <trkpt lat="49.85651" lon="2.46072">
        <ele>103.8</ele>
        <time>2024-01-24T14:59:34Z</time>
      </trkpt>
      <trkpt lat="49.85649" lon="2.46072">
        <ele>103.8</ele>
        <time>2024-01-24T14:59:35Z</time>
      </trkpt>
      <trkpt lat="49.85648" lon="2.46072">
        <ele>103.9</ele>
        <time>2024-01-24T14:59:36Z</time>
      </trkpt>
      <trkpt lat="49.85647" lon="2.46072">
        <ele>103.9</ele>
        <time>2024-01-24T14:59:38Z</time>
      </trkpt>
      <trkpt lat="49.85646" lon="2.46072">
        <ele>104</ele>
        <time>2024-01-24T14:59:39Z</time>
      </trkpt>
      <trkpt lat="49.85645" lon="2.46072">
        <ele>104</ele>
        <time>2024-01-24T14:59:40Z</time>
      </trkpt>
      <trkpt lat="49.85644" lon="2.46072">
        <ele>104</ele>
        <time>2024-01-24T14:59:41Z</time>
      </trkpt>
      <trkpt lat="49.85642" lon="2.46072">
        <ele>104.1</ele>
        <time>2024-01-24T14:59:42Z</time>
      </trkpt>
      <trkpt lat="49.85641" lon="2.46072">
        <ele>104.1</ele>
        <time>2024-01-24T14:59:43Z</time>
      </trkpt>
      <trkpt lat="49.8564" lon="2.46072">
        <ele>104.2</ele>
        <time>2024-01-24T14:59:44Z</time>
      </trkpt>
      <trkpt lat="49.85638" lon="2.46072">
        <ele>104.2</ele>
        <time>2024-01-24T14:59:46Z</time>
      </trkpt>
      <trkpt lat="49.85637" lon="2.46072">
        <ele>104.3</ele>
        <time>2024-01-24T14:59:47Z</time>
      </trkpt>
      <trkpt lat="49.85636" lon="2.46072">
        <ele>104.3</ele>
        <time>2024-01-24T14:59:48Z</time>
      </trkpt>
      <trkpt lat="49.85635" lon="2.46072">
        <ele>104.3</ele>
        <time>2024-01-24T14:59:49Z</time>
      </trkpt>
      <trkpt lat="49.85633" lon="2.46072">
        <ele>104.4</ele>
        <time>2024-01-24T14:59:50Z</time>
      </trkpt>
      <trkpt lat="49.85631" lon="2.46072">
        <ele>104.5</ele>
        <time>2024-01-24T14:59:51Z</time>
      </trkpt>
      <trkpt lat="49.8563" lon="2.46072">
        <ele>104.5</ele>
        <time>2024-01-24T14:59:52Z</time>
      </trkpt>
      <trkpt lat="49.85629" lon="2.46073">
        <ele>104.5</ele>
        <time>2024-01-24T14:59:53Z</time>
      </trkpt>
      <trkpt lat="49.85627" lon="2.46074">
        <ele>104.6</ele>
        <time>2024-01-24T14:59:55Z</time>
      </trkpt>
      <trkpt lat="49.85626" lon="2.46074">
        <ele>104.6</ele>
        <time>2024-01-24T14:59:56Z</time>
      </trkpt>
      <trkpt lat="49.85626" lon="2.46074">
        <ele>104.6</ele>
        <time>2024-01-24T14:59:57Z</time>
      </trkpt>
      <trkpt lat="49.85624" lon="2.46074">
        <ele>104.7</ele>
        <time>2024-01-24T14:59:58Z</time>
      </trkpt>
      <trkpt lat="49.85623" lon="2.46075">
        <ele>104.7</ele>
        <time>2024-01-24T14:59:59Z</time>
      </trkpt>
      <trkpt lat="49.85621" lon="2.46075">
        <ele>104.8</ele>
        <time>2024-01-24T15:00:00Z</time>
      </trkpt>
      <trkpt lat="49.8562" lon="2.46076">
        <ele>104.8</ele>
        <time>2024-01-24T15:00:01Z</time>
      </trkpt>
      <trkpt lat="49.85619" lon="2.46076">
        <ele>104.8</ele>
        <time>2024-01-24T15:00:02Z</time>
      </trkpt>
      <trkpt lat="49.85617" lon="2.46077">
        <ele>104.9</ele>
        <time>2024-01-24T15:00:03Z</time>
      </trkpt>
      <trkpt lat="49.85616" lon="2.46077">
        <ele>104.9</ele>
        <time>2024-01-24T15:00:05Z</time>
      </trkpt>
      <trkpt lat="49.85615" lon="2.46078">
        <ele>104.9</ele>
        <time>2024-01-24T15:00:06Z</time>
      </trkpt>
      <trkpt lat="49.85613" lon="2.46078">
        <ele>105</ele>
        <time>2024-01-24T15:00:07Z</time>
      </trkpt>
      <trkpt lat="49.85612" lon="2.46078">
        <ele>105</ele>
        <time>2024-01-24T15:00:08Z</time>
      </trkpt>
      <trkpt lat="49.85611" lon="2.46078">
        <ele>105.1</ele>
        <time>2024-01-24T15:00:09Z</time>
      </trkpt>
      <trkpt lat="49.85609" lon="2.46079">
        <ele>105.1</ele>
        <time>2024-01-24T15:00:10Z</time>
      </trkpt>
      <trkpt lat="49.85608" lon="2.46079">
        <ele>105.1</ele>
        <time>2024-01-24T15:00:11Z</time>
      </trkpt>
      <trkpt lat="49.85607" lon="2.46079">
        <ele>105.1</ele>
        <time>2024-01-24T15:00:12Z</time>
      </trkpt>
      <trkpt lat="49.85605" lon="2.4608">
        <ele>105.2</ele>
        <time>2024-01-24T15:00:14Z</time>
      </trkpt>
      <trkpt lat="49.85604" lon="2.4608">
        <ele>105.2</ele>
        <time>2024-01-24T15:00:15Z</time>
      </trkpt>
      <trkpt lat="49.85604" lon="2.4608">
        <ele>105.2</ele>
        <time>2024-01-24T15:00:16Z</time>
      </trkpt>
      <trkpt lat="49.85602" lon="2.46081">
        <ele>105.3</ele>
        <time>2024-01-24T15:00:17Z</time>
      </trkpt>
      <trkpt lat="49.85601" lon="2.46081">
        <ele>105.3</ele>
        <time>2024-01-24T15:00:18Z</time>
      </trkpt>
      <trkpt lat="49.856" lon="2.46082">
        <ele>105.3</ele>
        <time>2024-01-24T15:00:19Z</time>
      </trkpt>
      <trkpt lat="49.85599" lon="2.46082">
        <ele>105.3</ele>
        <time>2024-01-24T15:00:20Z</time>
      </trkpt>
      <trkpt lat="49.85598" lon="2.46083">
        <ele>105.4</ele>
        <time>2024-01-24T15:00:22Z</time>
      </trkpt>
      <trkpt lat="49.85597" lon="2.46083">
        <ele>105.4</ele>
        <time>2024-01-24T15:00:23Z</time>
      </trkpt>
      <trkpt lat="49.85595" lon="2.46084">
        <ele>105.4</ele>
        <time>2024-01-24T15:00:24Z</time>
      </trkpt>
      <trkpt lat="49.85594" lon="2.46084">
        <ele>105.4</ele>
        <time>2024-01-24T15:00:25Z</time>
      </trkpt>
      <trkpt lat="49.85593" lon="2.46084">
        <ele>105.5</ele>
        <time>2024-01-24T15:00:26Z</time>
      </trkpt>
      <trkpt lat="49.85592" lon="2.46084">
        <ele>105.5</ele>
        <time>2024-01-24T15:00:27Z</time>
      </trkpt>
      <trkpt lat="49.85591" lon="2.46084">
        <ele>105.5</ele>
        <time>2024-01-24T15:00:28Z</time>
      </trkpt>
      <trkpt lat="49.8559" lon="2.46084">
        <ele>105.5</ele>
        <time>2024-01-24T15:00:29Z</time>
      </trkpt>
      <trkpt lat="49.85588" lon="2.46084">
        <ele>105.6</ele>
        <time>2024-01-24T15:00:31Z</time>
      </trkpt>
      <trkpt lat="49.85587" lon="2.46084">
        <ele>105.6</ele>
        <time>2024-01-24T15:00:32Z</time>
      </trkpt>
      <trkpt lat="49.85586" lon="2.46084">
        <ele>105.6</ele>
        <time>2024-01-24T15:00:33Z</time>
      </trkpt>
      <trkpt lat="49.85584" lon="2.46083">
        <ele>105.7</ele>
        <time>2024-01-24T15:00:34Z</time>
      </trkpt>
      <trkpt lat="49.85583" lon="2.46083">
        <ele>105.7</ele>
        <time>2024-01-24T15:00:35Z</time>
      </trkpt>
      <trkpt lat="49.85582" lon="2.46083">
        <ele>105.7</ele>
        <time>2024-01-24T15:00:36Z</time>
      </trkpt>
      <trkpt lat="49.85581" lon="2.46083">
        <ele>105.7</ele>
        <time>2024-01-24T15:00:37Z</time>
      </trkpt>
      <trkpt lat="49.8558" lon="2.46083">
        <ele>105.7</ele>
        <time>2024-01-24T15:00:38Z</time>
      </trkpt>
      <trkpt lat="49.85579" lon="2.46083">
        <ele>105.8</ele>
        <time>2024-01-24T15:00:39Z</time>
      </trkpt>
      <trkpt lat="49.85577" lon="2.46084">
        <ele>105.8</ele>
        <time>2024-01-24T15:00:41Z</time>
      </trkpt>
      <trkpt lat="49.85576" lon="2.46084">
        <ele>105.8</ele>
        <time>2024-01-24T15:00:42Z</time>
      </trkpt>
      <trkpt lat="49.85575" lon="2.46084">
        <ele>105.8</ele>
        <time>2024-01-24T15:00:43Z</time>
      </trkpt>
      <trkpt lat="49.85573" lon="2.46084">
        <ele>105.9</ele>
        <time>2024-01-24T15:00:44Z</time>
      </trkpt>
      <trkpt lat="49.85572" lon="2.46085">
        <ele>105.9</ele>
        <time>2024-01-24T15:00:45Z</time>
      </trkpt>
      <trkpt lat="49.85571" lon="2.46085">
        <ele>105.9</ele>
        <time>2024-01-24T15:00:46Z</time>
      </trkpt>
      <trkpt lat="49.85569" lon="2.46085">
        <ele>106</ele>
        <time>2024-01-24T15:00:47Z</time>
      </trkpt>
      <trkpt lat="49.85568" lon="2.46086">
        <ele>106</ele>
        <time>2024-01-24T15:00:48Z</time>
      </trkpt>
      <trkpt lat="49.85567" lon="2.46086">
        <ele>106</ele>
        <time>2024-01-24T15:00:49Z</time>
      </trkpt>
      <trkpt lat="49.85566" lon="2.46086">
        <ele>106</ele>
        <time>2024-01-24T15:00:51Z</time>
      </trkpt>
      <trkpt lat="49.85564" lon="2.46087">
        <ele>106.1</ele>
        <time>2024-01-24T15:00:52Z</time>
      </trkpt>
      <trkpt lat="49.85563" lon="2.46087">
        <ele>106.1</ele>
        <time>2024-01-24T15:00:53Z</time>
      </trkpt>
      <trkpt lat="49.85561" lon="2.46087">
        <ele>106.1</ele>
        <time>2024-01-24T15:00:54Z</time>
      </trkpt>
      <trkpt lat="49.8556" lon="2.46087">
        <ele>106.2</ele>
        <time>2024-01-24T15:00:55Z</time>
      </trkpt>
      <trkpt lat="49.85559" lon="2.46088">
        <ele>106.2</ele>
        <time>2024-01-24T15:00:56Z</time>
      </trkpt>
      <trkpt lat="49.85558" lon="2.46088">
        <ele>106.2</ele>
        <time>2024-01-24T15:00:57Z</time>
      </trkpt>
      <trkpt lat="49.85556" lon="2.46088">
        <ele>106.2</ele>
        <time>2024-01-24T15:00:58Z</time>
      </trkpt>
      <trkpt lat="49.85555" lon="2.46089">
        <ele>106.3</ele>
        <time>2024-01-24T15:00:59Z</time>
      </trkpt>
      <trkpt lat="49.85553" lon="2.46089">
        <ele>106.3</ele>
        <time>2024-01-24T15:01:01Z</time>
      </trkpt>
      <trkpt lat="49.85552" lon="2.4609">
        <ele>106.3</ele>
        <time>2024-01-24T15:01:02Z</time>
      </trkpt>
      <trkpt lat="49.85552" lon="2.4609">
        <ele>106.4</ele>
        <time>2024-01-24T15:01:03Z</time>
      </trkpt>
      <trkpt lat="49.85549" lon="2.46091">
        <ele>106.4</ele>
        <time>2024-01-24T15:01:04Z</time>
      </trkpt>
      <trkpt lat="49.85549" lon="2.46091">
        <ele>106.4</ele>
        <time>2024-01-24T15:01:05Z</time>
      </trkpt>
      <trkpt lat="49.85548" lon="2.46091">
        <ele>106.5</ele>
        <time>2024-01-24T15:01:06Z</time>
      </trkpt>
      <trkpt lat="49.85547" lon="2.46091">
        <ele>106.5</ele>
        <time>2024-01-24T15:01:07Z</time>
      </trkpt>
      <trkpt lat="49.85546" lon="2.46092">
        <ele>106.5</ele>
        <time>2024-01-24T15:01:08Z</time>
      </trkpt>
      <trkpt lat="49.85544" lon="2.46092">
        <ele>106.6</ele>
        <time>2024-01-24T15:01:09Z</time>
      </trkpt>
      <trkpt lat="49.85542" lon="2.46093">
        <ele>106.6</ele>
        <time>2024-01-24T15:01:11Z</time>
      </trkpt>
      <trkpt lat="49.85541" lon="2.46093">
        <ele>106.7</ele>
        <time>2024-01-24T15:01:12Z</time>
      </trkpt>
      <trkpt lat="49.85541" lon="2.46094">
        <ele>106.7</ele>
        <time>2024-01-24T15:01:13Z</time>
      </trkpt>
      <trkpt lat="49.85538" lon="2.46094">
        <ele>106.7</ele>
        <time>2024-01-24T15:01:14Z</time>
      </trkpt>
      <trkpt lat="49.85538" lon="2.46094">
        <ele>106.8</ele>
        <time>2024-01-24T15:01:15Z</time>
      </trkpt>
      <trkpt lat="49.85537" lon="2.46094">
        <ele>106.8</ele>
        <time>2024-01-24T15:01:16Z</time>
      </trkpt>
      <trkpt lat="49.85536" lon="2.46095">
        <ele>106.8</ele>
        <time>2024-01-24T15:01:17Z</time>
      </trkpt>
      <trkpt lat="49.85535" lon="2.46095">
        <ele>106.8</ele>
        <time>2024-01-24T15:01:19Z</time>
      </trkpt>
      <trkpt lat="49.85533" lon="2.46095">
        <ele>106.9</ele>
        <time>2024-01-24T15:01:20Z</time>
      </trkpt>
      <trkpt lat="49.85531" lon="2.46096">
        <ele>106.9</ele>
        <time>2024-01-24T15:01:21Z</time>
      </trkpt>
      <trkpt lat="49.8553" lon="2.46096">
        <ele>107</ele>
        <time>2024-01-24T15:01:22Z</time>
      </trkpt>
      <trkpt lat="49.85529" lon="2.46096">
        <ele>107</ele>
        <time>2024-01-24T15:01:23Z</time>
      </trkpt>
      <trkpt lat="49.85528" lon="2.46096">
        <ele>107</ele>
        <time>2024-01-24T15:01:24Z</time>
      </trkpt>
      <trkpt lat="49.85527" lon="2.46097">
        <ele>107.1</ele>
        <time>2024-01-24T15:01:25Z</time>
      </trkpt>
      <trkpt lat="49.85526" lon="2.46097">
        <ele>107.1</ele>
        <time>2024-01-24T15:01:26Z</time>
      </trkpt>
      <trkpt lat="49.85524" lon="2.46097">
        <ele>107.1</ele>
        <time>2024-01-24T15:01:27Z</time>
      </trkpt>
      <trkpt lat="49.85523" lon="2.46097">
        <ele>107.2</ele>
        <time>2024-01-24T15:01:29Z</time>
      </trkpt>
      <trkpt lat="49.85521" lon="2.46097">
        <ele>107.2</ele>
        <time>2024-01-24T15:01:30Z</time>
      </trkpt>
      <trkpt lat="49.8552" lon="2.46097">
        <ele>107.2</ele>
        <time>2024-01-24T15:01:31Z</time>
      </trkpt>
      <trkpt lat="49.85519" lon="2.46098">
        <ele>107.3</ele>
        <time>2024-01-24T15:01:32Z</time>
      </trkpt>
      <trkpt lat="49.85517" lon="2.46098">
        <ele>107.3</ele>
        <time>2024-01-24T15:01:33Z</time>
      </trkpt>
      <trkpt lat="49.85516" lon="2.46098">
        <ele>107.3</ele>
        <time>2024-01-24T15:01:34Z</time>
      </trkpt>
      <trkpt lat="49.85516" lon="2.46098">
        <ele>107.4</ele>
        <time>2024-01-24T15:01:35Z</time>
      </trkpt>
      <trkpt lat="49.85514" lon="2.46099">
        <ele>107.4</ele>
        <time>2024-01-24T15:01:36Z</time>
      </trkpt>
      <trkpt lat="49.85513" lon="2.46099">
        <ele>107.4</ele>
        <time>2024-01-24T15:01:37Z</time>
      </trkpt>
      <trkpt lat="49.85512" lon="2.46099">
        <ele>107.5</ele>
        <time>2024-01-24T15:01:39Z</time>
      </trkpt>
      <trkpt lat="49.85511" lon="2.46099">
        <ele>107.5</ele>
        <time>2024-01-24T15:01:40Z</time>
      </trkpt>
      <trkpt lat="49.8551" lon="2.46099">
        <ele>107.5</ele>
        <time>2024-01-24T15:01:41Z</time>
      </trkpt>
      <trkpt lat="49.85509" lon="2.461">
        <ele>107.6</ele>
        <time>2024-01-24T15:01:42Z</time>
      </trkpt>
      <trkpt lat="49.85507" lon="2.461">
        <ele>107.6</ele>
        <time>2024-01-24T15:01:43Z</time>
      </trkpt>
      <trkpt lat="49.85506" lon="2.461">
        <ele>107.6</ele>
        <time>2024-01-24T15:01:44Z</time>
      </trkpt>
      <trkpt lat="49.85505" lon="2.461">
        <ele>107.6</ele>
        <time>2024-01-24T15:01:45Z</time>
      </trkpt>
      <trkpt lat="49.85503" lon="2.46101">
        <ele>107.7</ele>
        <time>2024-01-24T15:01:46Z</time>
      </trkpt>
      <trkpt lat="49.85502" lon="2.46101">
        <ele>107.7</ele>
        <time>2024-01-24T15:01:48Z</time>
      </trkpt>
      <trkpt lat="49.85501" lon="2.46102">
        <ele>107.7</ele>
        <time>2024-01-24T15:01:49Z</time>
      </trkpt>
      <trkpt lat="49.855" lon="2.46102">
        <ele>107.8</ele>
        <time>2024-01-24T15:01:50Z</time>
      </trkpt>
      <trkpt lat="49.85499" lon="2.46102">
        <ele>107.8</ele>
        <time>2024-01-24T15:01:51Z</time>
      </trkpt>
      <trkpt lat="49.85496" lon="2.46103">
        <ele>107.9</ele>
        <time>2024-01-24T15:01:52Z</time>
      </trkpt>
      <trkpt lat="49.85496" lon="2.46103">
        <ele>107.9</ele>
        <time>2024-01-24T15:01:53Z</time>
      </trkpt>
      <trkpt lat="49.85495" lon="2.46104">
        <ele>107.9</ele>
        <time>2024-01-24T15:01:54Z</time>
      </trkpt>
      <trkpt lat="49.85493" lon="2.46104">
        <ele>108</ele>
        <time>2024-01-24T15:01:55Z</time>
      </trkpt>
      <trkpt lat="49.85492" lon="2.46105">
        <ele>108</ele>
        <time>2024-01-24T15:01:57Z</time>
      </trkpt>
      <trkpt lat="49.85491" lon="2.46105">
        <ele>108</ele>
        <time>2024-01-24T15:01:58Z</time>
      </trkpt>
      <trkpt lat="49.8549" lon="2.46105">
        <ele>108.1</ele>
        <time>2024-01-24T15:01:59Z</time>
      </trkpt>
      <trkpt lat="49.85488" lon="2.46106">
        <ele>108.1</ele>
        <time>2024-01-24T15:02:00Z</time>
      </trkpt>
      <trkpt lat="49.85486" lon="2.46106">
        <ele>108.2</ele>
        <time>2024-01-24T15:02:01Z</time>
      </trkpt>
      <trkpt lat="49.85485" lon="2.46107">
        <ele>108.2</ele>
        <time>2024-01-24T15:02:02Z</time>
      </trkpt>
      <trkpt lat="49.85485" lon="2.46107">
        <ele>108.2</ele>
        <time>2024-01-24T15:02:03Z</time>
      </trkpt>
      <trkpt lat="49.85484" lon="2.46107">
        <ele>108.3</ele>
        <time>2024-01-24T15:02:04Z</time>
      </trkpt>
      <trkpt lat="49.85482" lon="2.46108">
        <ele>108.3</ele>
        <time>2024-01-24T15:02:05Z</time>
      </trkpt>
      <trkpt lat="49.85481" lon="2.46108">
        <ele>108.4</ele>
        <time>2024-01-24T15:02:06Z</time>
      </trkpt>
      <trkpt lat="49.8548" lon="2.46109">
        <ele>108.4</ele>
        <time>2024-01-24T15:02:08Z</time>
      </trkpt>
      <trkpt lat="49.85478" lon="2.46109">
        <ele>108.4</ele>
        <time>2024-01-24T15:02:09Z</time>
      </trkpt>
      <trkpt lat="49.85477" lon="2.4611">
        <ele>108.5</ele>
        <time>2024-01-24T15:02:10Z</time>
      </trkpt>
      <trkpt lat="49.85476" lon="2.46111">
        <ele>108.5</ele>
        <time>2024-01-24T15:02:11Z</time>
      </trkpt>
      <trkpt lat="49.85474" lon="2.46112">
        <ele>108.6</ele>
        <time>2024-01-24T15:02:12Z</time>
      </trkpt>
      <trkpt lat="49.85473" lon="2.46112">
        <ele>108.6</ele>
        <time>2024-01-24T15:02:13Z</time>
      </trkpt>
      <trkpt lat="49.85472" lon="2.46112">
        <ele>108.6</ele>
        <time>2024-01-24T15:02:14Z</time>
      </trkpt>
      <trkpt lat="49.8547" lon="2.46113">
        <ele>108.7</ele>
        <time>2024-01-24T15:02:15Z</time>
      </trkpt>
      <trkpt lat="49.85469" lon="2.46114">
        <ele>108.7</ele>
        <time>2024-01-24T15:02:16Z</time>
      </trkpt>
      <trkpt lat="49.85468" lon="2.46114">
        <ele>108.8</ele>
        <time>2024-01-24T15:02:18Z</time>
      </trkpt>
      <trkpt lat="49.85467" lon="2.46115">
        <ele>108.8</ele>
        <time>2024-01-24T15:02:19Z</time>
      </trkpt>
      <trkpt lat="49.85466" lon="2.46115">
        <ele>108.8</ele>
        <time>2024-01-24T15:02:20Z</time>
      </trkpt>
      <trkpt lat="49.85465" lon="2.46116">
        <ele>108.9</ele>
        <time>2024-01-24T15:02:21Z</time>
      </trkpt>
      <trkpt lat="49.85463" lon="2.46117">
        <ele>108.9</ele>
        <time>2024-01-24T15:02:22Z</time>
      </trkpt>
      <trkpt lat="49.85462" lon="2.46117">
        <ele>108.9</ele>
        <time>2024-01-24T15:02:23Z</time>
      </trkpt>
      <trkpt lat="49.85461" lon="2.46117">
        <ele>108.9</ele>
        <time>2024-01-24T15:02:24Z</time>
      </trkpt>
      <trkpt lat="49.8546" lon="2.46118">
        <ele>109</ele>
        <time>2024-01-24T15:02:25Z</time>
      </trkpt>
      <trkpt lat="49.85459" lon="2.46118">
        <ele>109</ele>
        <time>2024-01-24T15:02:26Z</time>
      </trkpt>
      <trkpt lat="49.85458" lon="2.46119">
        <ele>109</ele>
        <time>2024-01-24T15:02:28Z</time>
      </trkpt>
      <trkpt lat="49.85457" lon="2.46119">
        <ele>109.1</ele>
        <time>2024-01-24T15:02:29Z</time>
      </trkpt>
      <trkpt lat="49.85456" lon="2.46119">
        <ele>109.1</ele>
        <time>2024-01-24T15:02:30Z</time>
      </trkpt>
      <trkpt lat="49.85455" lon="2.4612">
        <ele>109.1</ele>
        <time>2024-01-24T15:02:31Z</time>
      </trkpt>
      <trkpt lat="49.85453" lon="2.4612">
        <ele>109.2</ele>
        <time>2024-01-24T15:02:32Z</time>
      </trkpt>
      <trkpt lat="49.85452" lon="2.46121">
        <ele>109.2</ele>
        <time>2024-01-24T15:02:33Z</time>
      </trkpt>
      <trkpt lat="49.85451" lon="2.46121">
        <ele>109.2</ele>
        <time>2024-01-24T15:02:34Z</time>
      </trkpt>
      <trkpt lat="49.85449" lon="2.46122">
        <ele>109.3</ele>
        <time>2024-01-24T15:02:35Z</time>
      </trkpt>
      <trkpt lat="49.85449" lon="2.46122">
        <ele>109.3</ele>
        <time>2024-01-24T15:02:37Z</time>
      </trkpt>
      <trkpt lat="49.85448" lon="2.46123">
        <ele>109.3</ele>
        <time>2024-01-24T15:02:38Z</time>
      </trkpt>
      <trkpt lat="49.85446" lon="2.46123">
        <ele>109.4</ele>
        <time>2024-01-24T15:02:39Z</time>
      </trkpt>
      <trkpt lat="49.85445" lon="2.46124">
        <ele>109.4</ele>
        <time>2024-01-24T15:02:40Z</time>
      </trkpt>
      <trkpt lat="49.85444" lon="2.46124">
        <ele>109.4</ele>
        <time>2024-01-24T15:02:41Z</time>
      </trkpt>
      <trkpt lat="49.85443" lon="2.46124">
        <ele>109.4</ele>
        <time>2024-01-24T15:02:42Z</time>
      </trkpt>
      <trkpt lat="49.85442" lon="2.46124">
        <ele>109.4</ele>
        <time>2024-01-24T15:02:43Z</time>
      </trkpt>
      <trkpt lat="49.85441" lon="2.46124">
        <ele>109.5</ele>
        <time>2024-01-24T15:02:44Z</time>
      </trkpt>
      <trkpt lat="49.85439" lon="2.46125">
        <ele>109.5</ele>
        <time>2024-01-24T15:02:45Z</time>
      </trkpt>
      <trkpt lat="49.85438" lon="2.46126">
        <ele>109.6</ele>
        <time>2024-01-24T15:02:47Z</time>
      </trkpt>
      <trkpt lat="49.85437" lon="2.46126">
        <ele>109.6</ele>
        <time>2024-01-24T15:02:48Z</time>
      </trkpt>
      <trkpt lat="49.85436" lon="2.46126">
        <ele>109.6</ele>
        <time>2024-01-24T15:02:49Z</time>
      </trkpt>
      <trkpt lat="49.85435" lon="2.46127">
        <ele>109.6</ele>
        <time>2024-01-24T15:02:50Z</time>
      </trkpt>
      <trkpt lat="49.85433" lon="2.46128">
        <ele>109.7</ele>
        <time>2024-01-24T15:02:52Z</time>
      </trkpt>
      <trkpt lat="49.85432" lon="2.46128">
        <ele>109.7</ele>
        <time>2024-01-24T15:02:53Z</time>
      </trkpt>
      <trkpt lat="49.85431" lon="2.46128">
        <ele>109.7</ele>
        <time>2024-01-24T15:02:54Z</time>
      </trkpt>
      <trkpt lat="49.8543" lon="2.46129">
        <ele>109.7</ele>
        <time>2024-01-24T15:02:55Z</time>
      </trkpt>
      <trkpt lat="49.85429" lon="2.46129">
        <ele>109.7</ele>
        <time>2024-01-24T15:02:56Z</time>
      </trkpt>
      <trkpt lat="49.85427" lon="2.4613">
        <ele>109.8</ele>
        <time>2024-01-24T15:02:58Z</time>
      </trkpt>
      <trkpt lat="49.85426" lon="2.4613">
        <ele>109.8</ele>
        <time>2024-01-24T15:03:00Z</time>
      </trkpt>
      <trkpt lat="49.85425" lon="2.4613">
        <ele>109.8</ele>
        <time>2024-01-24T15:03:01Z</time>
      </trkpt>
      <trkpt lat="49.85424" lon="2.4613">
        <ele>109.8</ele>
        <time>2024-01-24T15:03:02Z</time>
      </trkpt>
      <trkpt lat="49.85423" lon="2.4613">
        <ele>109.8</ele>
        <time>2024-01-24T15:03:03Z</time>
      </trkpt>
      <trkpt lat="49.85422" lon="2.4613">
        <ele>109.9</ele>
        <time>2024-01-24T15:03:04Z</time>
      </trkpt>
      <trkpt lat="49.85421" lon="2.46131">
        <ele>109.9</ele>
        <time>2024-01-24T15:03:05Z</time>
      </trkpt>
      <trkpt lat="49.8542" lon="2.46132">
        <ele>109.9</ele>
        <time>2024-01-24T15:03:07Z</time>
      </trkpt>
      <trkpt lat="49.85419" lon="2.46132">
        <ele>109.9</ele>
        <time>2024-01-24T15:03:08Z</time>
      </trkpt>
      <trkpt lat="49.85419" lon="2.46133">
        <ele>109.9</ele>
        <time>2024-01-24T15:03:09Z</time>
      </trkpt>
      <trkpt lat="49.85418" lon="2.46134">
        <ele>109.9</ele>
        <time>2024-01-24T15:03:10Z</time>
      </trkpt>
      <trkpt lat="49.85418" lon="2.46135">
        <ele>109.9</ele>
        <time>2024-01-24T15:03:11Z</time>
      </trkpt>
      <trkpt lat="49.85418" lon="2.46135">
        <ele>109.9</ele>
        <time>2024-01-24T15:03:12Z</time>
      </trkpt>
      <trkpt lat="49.85417" lon="2.46135">
        <ele>109.9</ele>
        <time>2024-01-24T15:03:14Z</time>
      </trkpt>
      <trkpt lat="49.85417" lon="2.46135">
        <ele>110</ele>
        <time>2024-01-24T15:03:15Z</time>
      </trkpt>
      <trkpt lat="49.85416" lon="2.46135">
        <ele>110</ele>
        <time>2024-01-24T15:03:17Z</time>
      </trkpt>
      <trkpt lat="49.85416" lon="2.46135">
        <ele>110</ele>
        <time>2024-01-24T15:03:18Z</time>
      </trkpt>
      <trkpt lat="49.85416" lon="2.46135">
        <ele>110</ele>
        <time>2024-01-24T15:03:20Z</time>
      </trkpt>
      <trkpt lat="49.85415" lon="2.46135">
        <ele>110</ele>
        <time>2024-01-24T15:03:21Z</time>
      </trkpt>
      <trkpt lat="49.85415" lon="2.46135">
        <ele>110</ele>
        <time>2024-01-24T15:03:23Z</time>
      </trkpt>
      <trkpt lat="49.85415" lon="2.46135">
        <ele>110</ele>
        <time>2024-01-24T15:03:24Z</time>
      </trkpt>
      <trkpt lat="49.85414" lon="2.46135">
        <ele>110</ele>
        <time>2024-01-24T15:03:26Z</time>
      </trkpt>
      <trkpt lat="49.85414" lon="2.46136">
        <ele>110</ele>
        <time>2024-01-24T15:03:27Z</time>
      </trkpt>
      <trkpt lat="49.85414" lon="2.46136">
        <ele>110</ele>
        <time>2024-01-24T15:03:28Z</time>
      </trkpt>
      <trkpt lat="49.85413" lon="2.46136">
        <ele>110</ele>
        <time>2024-01-24T15:03:30Z</time>
      </trkpt>
      <trkpt lat="49.85413" lon="2.46136">
        <ele>110</ele>
        <time>2024-01-24T15:05:01Z</time>
      </trkpt>
      <trkpt lat="49.85412" lon="2.46136">
        <ele>110</ele>
        <time>2024-01-24T15:05:02Z</time>
      </trkpt>
      <trkpt lat="49.85412" lon="2.46136">
        <ele>110</ele>
        <time>2024-01-24T15:05:03Z</time>
      </trkpt>
      <trkpt lat="49.85409" lon="2.46137">
        <ele>110.1</ele>
        <time>2024-01-24T15:05:04Z</time>
      </trkpt>
      <trkpt lat="49.85408" lon="2.46137">
        <ele>110.1</ele>
        <time>2024-01-24T15:05:05Z</time>
      </trkpt>
      <trkpt lat="49.85405" lon="2.46138">
        <ele>110.2</ele>
        <time>2024-01-24T15:05:07Z</time>
      </trkpt>
      <trkpt lat="49.85405" lon="2.46139">
        <ele>110.2</ele>
        <time>2024-01-24T15:05:08Z</time>
      </trkpt>
      <trkpt lat="49.85403" lon="2.46139">
        <ele>110.2</ele>
        <time>2024-01-24T15:05:09Z</time>
      </trkpt>
      <trkpt lat="49.85402" lon="2.46139">
        <ele>110.3</ele>
        <time>2024-01-24T15:05:10Z</time>
      </trkpt>
      <trkpt lat="49.854" lon="2.4614">
        <ele>110.3</ele>
        <time>2024-01-24T15:05:11Z</time>
      </trkpt>
      <trkpt lat="49.85399" lon="2.4614">
        <ele>110.3</ele>
        <time>2024-01-24T15:05:12Z</time>
      </trkpt>
      <trkpt lat="49.85397" lon="2.46141">
        <ele>110.3</ele>
        <time>2024-01-24T15:05:13Z</time>
      </trkpt>
      <trkpt lat="49.85396" lon="2.46142">
        <ele>110.4</ele>
        <time>2024-01-24T15:05:15Z</time>
      </trkpt>
      <trkpt lat="49.85395" lon="2.46143">
        <ele>110.4</ele>
        <time>2024-01-24T15:05:16Z</time>
      </trkpt>
      <trkpt lat="49.85393" lon="2.46143">
        <ele>110.4</ele>
        <time>2024-01-24T15:05:17Z</time>
      </trkpt>
      <trkpt lat="49.85392" lon="2.46144">
        <ele>110.5</ele>
        <time>2024-01-24T15:05:18Z</time>
      </trkpt>
      <trkpt lat="49.85391" lon="2.46144">
        <ele>110.5</ele>
        <time>2024-01-24T15:05:19Z</time>
      </trkpt>
      <trkpt lat="49.85389" lon="2.46145">
        <ele>110.5</ele>
        <time>2024-01-24T15:05:20Z</time>
      </trkpt>
      <trkpt lat="49.85388" lon="2.46145">
        <ele>110.6</ele>
        <time>2024-01-24T15:05:21Z</time>
      </trkpt>
      <trkpt lat="49.85387" lon="2.46146">
        <ele>110.6</ele>
        <time>2024-01-24T15:05:22Z</time>
      </trkpt>
      <trkpt lat="49.85386" lon="2.46146">
        <ele>110.6</ele>
        <time>2024-01-24T15:05:23Z</time>
      </trkpt>
      <trkpt lat="49.85385" lon="2.46146">
        <ele>110.6</ele>
        <time>2024-01-24T15:05:25Z</time>
      </trkpt>
      <trkpt lat="49.85384" lon="2.46147">
        <ele>110.7</ele>
        <time>2024-01-24T15:05:26Z</time>
      </trkpt>
      <trkpt lat="49.85382" lon="2.46147">
        <ele>110.7</ele>
        <time>2024-01-24T15:05:27Z</time>
      </trkpt>
      <trkpt lat="49.85381" lon="2.46147">
        <ele>110.7</ele>
        <time>2024-01-24T15:05:28Z</time>
      </trkpt>
      <trkpt lat="49.8538" lon="2.46147">
        <ele>110.7</ele>
        <time>2024-01-24T15:05:29Z</time>
      </trkpt>
      <trkpt lat="49.85379" lon="2.46147">
        <ele>110.8</ele>
        <time>2024-01-24T15:05:30Z</time>
      </trkpt>
      <trkpt lat="49.85378" lon="2.46147">
        <ele>110.8</ele>
        <time>2024-01-24T15:05:31Z</time>
      </trkpt>
      <trkpt lat="49.85376" lon="2.46147">
        <ele>110.8</ele>
        <time>2024-01-24T15:05:33Z</time>
      </trkpt>
      <trkpt lat="49.85374" lon="2.46148">
        <ele>110.9</ele>
        <time>2024-01-24T15:05:34Z</time>
      </trkpt>
      <trkpt lat="49.85374" lon="2.46148">
        <ele>110.9</ele>
        <time>2024-01-24T15:05:35Z</time>
      </trkpt>
      <trkpt lat="49.85373" lon="2.46148">
        <ele>110.9</ele>
        <time>2024-01-24T15:05:36Z</time>
      </trkpt>
      <trkpt lat="49.85371" lon="2.46148">
        <ele>111</ele>
        <time>2024-01-24T15:05:37Z</time>
      </trkpt>
      <trkpt lat="49.8537" lon="2.46148">
        <ele>111</ele>
        <time>2024-01-24T15:05:39Z</time>
      </trkpt>
      <trkpt lat="49.85369" lon="2.46148">
        <ele>111</ele>
        <time>2024-01-24T15:05:40Z</time>
      </trkpt>
      <trkpt lat="49.85367" lon="2.46149">
        <ele>111.1</ele>
        <time>2024-01-24T15:05:41Z</time>
      </trkpt>
      <trkpt lat="49.85366" lon="2.46149">
        <ele>111.1</ele>
        <time>2024-01-24T15:05:42Z</time>
      </trkpt>
      <trkpt lat="49.85365" lon="2.46149">
        <ele>111.1</ele>
        <time>2024-01-24T15:05:43Z</time>
      </trkpt>
      <trkpt lat="49.85364" lon="2.46149">
        <ele>111.1</ele>
        <time>2024-01-24T15:05:44Z</time>
      </trkpt>
      <trkpt lat="49.85362" lon="2.46149">
        <ele>111.2</ele>
        <time>2024-01-24T15:05:46Z</time>
      </trkpt>
      <trkpt lat="49.85361" lon="2.46149">
        <ele>111.2</ele>
        <time>2024-01-24T15:05:47Z</time>
      </trkpt>
      <trkpt lat="49.85359" lon="2.46149">
        <ele>111.2</ele>
        <time>2024-01-24T15:05:48Z</time>
      </trkpt>
      <trkpt lat="49.85357" lon="2.46149">
        <ele>111.3</ele>
        <time>2024-01-24T15:05:49Z</time>
      </trkpt>
      <trkpt lat="49.85356" lon="2.46149">
        <ele>111.3</ele>
        <time>2024-01-24T15:05:50Z</time>
      </trkpt>
      <trkpt lat="49.85355" lon="2.46149">
        <ele>111.3</ele>
        <time>2024-01-24T15:05:51Z</time>
      </trkpt>
      <trkpt lat="49.85354" lon="2.46149">
        <ele>111.3</ele>
        <time>2024-01-24T15:05:52Z</time>
      </trkpt>
      <trkpt lat="49.85353" lon="2.4615">
        <ele>111.3</ele>
        <time>2024-01-24T15:05:53Z</time>
      </trkpt>
      <trkpt lat="49.85351" lon="2.4615">
        <ele>111.4</ele>
        <time>2024-01-24T15:05:55Z</time>
      </trkpt>
      <trkpt lat="49.8535" lon="2.4615">
        <ele>111.4</ele>
        <time>2024-01-24T15:05:56Z</time>
      </trkpt>
      <trkpt lat="49.85348" lon="2.4615">
        <ele>111.4</ele>
        <time>2024-01-24T15:05:57Z</time>
      </trkpt>
      <trkpt lat="49.85347" lon="2.4615">
        <ele>111.4</ele>
        <time>2024-01-24T15:05:58Z</time>
      </trkpt>
      <trkpt lat="49.85346" lon="2.46151">
        <ele>111.5</ele>
        <time>2024-01-24T15:05:59Z</time>
      </trkpt>
      <trkpt lat="49.85344" lon="2.46151">
        <ele>111.5</ele>
        <time>2024-01-24T15:06:00Z</time>
      </trkpt>
      <trkpt lat="49.85343" lon="2.46151">
        <ele>111.5</ele>
        <time>2024-01-24T15:06:01Z</time>
      </trkpt>
      <trkpt lat="49.85342" lon="2.46151">
        <ele>111.5</ele>
        <time>2024-01-24T15:06:02Z</time>
      </trkpt>
      <trkpt lat="49.85341" lon="2.46151">
        <ele>111.5</ele>
        <time>2024-01-24T15:06:03Z</time>
      </trkpt>
      <trkpt lat="49.8534" lon="2.46151">
        <ele>111.6</ele>
        <time>2024-01-24T15:06:04Z</time>
      </trkpt>
      <trkpt lat="49.85338" lon="2.46152">
        <ele>111.6</ele>
        <time>2024-01-24T15:06:05Z</time>
      </trkpt>
      <trkpt lat="49.85337" lon="2.46152">
        <ele>111.6</ele>
        <time>2024-01-24T15:06:06Z</time>
      </trkpt>
      <trkpt lat="49.85336" lon="2.46152">
        <ele>111.6</ele>
        <time>2024-01-24T15:06:08Z</time>
      </trkpt>
      <trkpt lat="49.85334" lon="2.46152">
        <ele>111.6</ele>
        <time>2024-01-24T15:06:09Z</time>
      </trkpt>
      <trkpt lat="49.85332" lon="2.46152">
        <ele>111.7</ele>
        <time>2024-01-24T15:06:10Z</time>
      </trkpt>
      <trkpt lat="49.85331" lon="2.46152">
        <ele>111.7</ele>
        <time>2024-01-24T15:06:11Z</time>
      </trkpt>
      <trkpt lat="49.8533" lon="2.46152">
        <ele>111.7</ele>
        <time>2024-01-24T15:06:12Z</time>
      </trkpt>
      <trkpt lat="49.85328" lon="2.46153">
        <ele>111.7</ele>
        <time>2024-01-24T15:06:13Z</time>
      </trkpt>
      <trkpt lat="49.85327" lon="2.46153">
        <ele>111.8</ele>
        <time>2024-01-24T15:06:15Z</time>
      </trkpt>
      <trkpt lat="49.85326" lon="2.46153">
        <ele>111.8</ele>
        <time>2024-01-24T15:06:16Z</time>
      </trkpt>
      <trkpt lat="49.85325" lon="2.46153">
        <ele>111.8</ele>
        <time>2024-01-24T15:06:17Z</time>
      </trkpt>
      <trkpt lat="49.85324" lon="2.46153">
        <ele>111.8</ele>
        <time>2024-01-24T15:06:18Z</time>
      </trkpt>
      <trkpt lat="49.85322" lon="2.46154">
        <ele>111.8</ele>
        <time>2024-01-24T15:06:19Z</time>
      </trkpt>
      <trkpt lat="49.85321" lon="2.46154">
        <ele>111.8</ele>
        <time>2024-01-24T15:06:20Z</time>
      </trkpt>
      <trkpt lat="49.8532" lon="2.46154">
        <ele>111.8</ele>
        <time>2024-01-24T15:06:21Z</time>
      </trkpt>
      <trkpt lat="49.85319" lon="2.46154">
        <ele>111.9</ele>
        <time>2024-01-24T15:06:22Z</time>
      </trkpt>
      <trkpt lat="49.85317" lon="2.46154">
        <ele>111.9</ele>
        <time>2024-01-24T15:06:23Z</time>
      </trkpt>
      <trkpt lat="49.85316" lon="2.46154">
        <ele>111.9</ele>
        <time>2024-01-24T15:06:25Z</time>
      </trkpt>
      <trkpt lat="49.85314" lon="2.46154">
        <ele>111.9</ele>
        <time>2024-01-24T15:06:26Z</time>
      </trkpt>
      <trkpt lat="49.85313" lon="2.46154">
        <ele>111.9</ele>
        <time>2024-01-24T15:06:27Z</time>
      </trkpt>
      <trkpt lat="49.85311" lon="2.46154">
        <ele>112</ele>
        <time>2024-01-24T15:06:28Z</time>
      </trkpt>
      <trkpt lat="49.8531" lon="2.46153">
        <ele>112</ele>
        <time>2024-01-24T15:06:29Z</time>
      </trkpt>
      <trkpt lat="49.85308" lon="2.46153">
        <ele>112</ele>
        <time>2024-01-24T15:06:30Z</time>
      </trkpt>
      <trkpt lat="49.85307" lon="2.46153">
        <ele>112</ele>
        <time>2024-01-24T15:06:31Z</time>
      </trkpt>
      <trkpt lat="49.85306" lon="2.46153">
        <ele>112</ele>
        <time>2024-01-24T15:06:32Z</time>
      </trkpt>
      <trkpt lat="49.85305" lon="2.46153">
        <ele>112.1</ele>
        <time>2024-01-24T15:06:33Z</time>
      </trkpt>
      <trkpt lat="49.85304" lon="2.46153">
        <ele>112.1</ele>
        <time>2024-01-24T15:06:34Z</time>
      </trkpt>
      <trkpt lat="49.85302" lon="2.46153">
        <ele>112.1</ele>
        <time>2024-01-24T15:06:35Z</time>
      </trkpt>
      <trkpt lat="49.85301" lon="2.46153">
        <ele>112.1</ele>
        <time>2024-01-24T15:06:37Z</time>
      </trkpt>
      <trkpt lat="49.85299" lon="2.46153">
        <ele>112.1</ele>
        <time>2024-01-24T15:06:38Z</time>
      </trkpt>
      <trkpt lat="49.85298" lon="2.46153">
        <ele>112.1</ele>
        <time>2024-01-24T15:06:39Z</time>
      </trkpt>
      <trkpt lat="49.85297" lon="2.46153">
        <ele>112.1</ele>
        <time>2024-01-24T15:06:40Z</time>
      </trkpt>
      <trkpt lat="49.85295" lon="2.46153">
        <ele>112.2</ele>
        <time>2024-01-24T15:06:42Z</time>
      </trkpt>
      <trkpt lat="49.85293" lon="2.46153">
        <ele>112.2</ele>
        <time>2024-01-24T15:06:43Z</time>
      </trkpt>
      <trkpt lat="49.85292" lon="2.46153">
        <ele>112.2</ele>
        <time>2024-01-24T15:06:44Z</time>
      </trkpt>
      <trkpt lat="49.85291" lon="2.46154">
        <ele>112.2</ele>
        <time>2024-01-24T15:06:45Z</time>
      </trkpt>
      <trkpt lat="49.85288" lon="2.46154">
        <ele>112.2</ele>
        <time>2024-01-24T15:06:46Z</time>
      </trkpt>
      <trkpt lat="49.85287" lon="2.46155">
        <ele>112.2</ele>
        <time>2024-01-24T15:06:48Z</time>
      </trkpt>
      <trkpt lat="49.85286" lon="2.46155">
        <ele>112.2</ele>
        <time>2024-01-24T15:06:49Z</time>
      </trkpt>
      <trkpt lat="49.85285" lon="2.46155">
        <ele>112.2</ele>
        <time>2024-01-24T15:06:50Z</time>
      </trkpt>
      <trkpt lat="49.85284" lon="2.46155">
        <ele>112.2</ele>
        <time>2024-01-24T15:06:51Z</time>
      </trkpt>
      <trkpt lat="49.85283" lon="2.46156">
        <ele>112.3</ele>
        <time>2024-01-24T15:06:52Z</time>
      </trkpt>
      <trkpt lat="49.85281" lon="2.46156">
        <ele>112.3</ele>
        <time>2024-01-24T15:06:53Z</time>
      </trkpt>
      <trkpt lat="49.8528" lon="2.46156">
        <ele>112.3</ele>
        <time>2024-01-24T15:06:55Z</time>
      </trkpt>
      <trkpt lat="49.85278" lon="2.46156">
        <ele>112.3</ele>
        <time>2024-01-24T15:06:56Z</time>
      </trkpt>
      <trkpt lat="49.85277" lon="2.46156">
        <ele>112.3</ele>
        <time>2024-01-24T15:06:57Z</time>
      </trkpt>
      <trkpt lat="49.85276" lon="2.46156">
        <ele>112.3</ele>
        <time>2024-01-24T15:06:58Z</time>
      </trkpt>
      <trkpt lat="49.85273" lon="2.46156">
        <ele>112.3</ele>
        <time>2024-01-24T15:06:59Z</time>
      </trkpt>
      <trkpt lat="49.85273" lon="2.46156">
        <ele>112.3</ele>
        <time>2024-01-24T15:07:00Z</time>
      </trkpt>
      <trkpt lat="49.85272" lon="2.46156">
        <ele>112.3</ele>
        <time>2024-01-24T15:07:01Z</time>
      </trkpt>
      <trkpt lat="49.8527" lon="2.46156">
        <ele>112.3</ele>
        <time>2024-01-24T15:07:03Z</time>
      </trkpt>
      <trkpt lat="49.85269" lon="2.46156">
        <ele>112.4</ele>
        <time>2024-01-24T15:07:04Z</time>
      </trkpt>
      <trkpt lat="49.85267" lon="2.46155">
        <ele>112.4</ele>
        <time>2024-01-24T15:07:05Z</time>
      </trkpt>
      <trkpt lat="49.85266" lon="2.46155">
        <ele>112.4</ele>
        <time>2024-01-24T15:07:06Z</time>
      </trkpt>
      <trkpt lat="49.85265" lon="2.46155">
        <ele>112.4</ele>
        <time>2024-01-24T15:07:07Z</time>
      </trkpt>
      <trkpt lat="49.85263" lon="2.46154">
        <ele>112.4</ele>
        <time>2024-01-24T15:07:08Z</time>
      </trkpt>
      <trkpt lat="49.85263" lon="2.46154">
        <ele>112.4</ele>
        <time>2024-01-24T15:07:09Z</time>
      </trkpt>
      <trkpt lat="49.85262" lon="2.46154">
        <ele>112.4</ele>
        <time>2024-01-24T15:07:10Z</time>
      </trkpt>
      <trkpt lat="49.8526" lon="2.46154">
        <ele>112.4</ele>
        <time>2024-01-24T15:07:11Z</time>
      </trkpt>
      <trkpt lat="49.85259" lon="2.46153">
        <ele>112.4</ele>
        <time>2024-01-24T15:07:12Z</time>
      </trkpt>
      <trkpt lat="49.85258" lon="2.46153">
        <ele>112.5</ele>
        <time>2024-01-24T15:07:13Z</time>
      </trkpt>
      <trkpt lat="49.85257" lon="2.46153">
        <ele>112.5</ele>
        <time>2024-01-24T15:07:14Z</time>
      </trkpt>
      <trkpt lat="49.85255" lon="2.46153">
        <ele>112.5</ele>
        <time>2024-01-24T15:07:16Z</time>
      </trkpt>
      <trkpt lat="49.85254" lon="2.46152">
        <ele>112.5</ele>
        <time>2024-01-24T15:07:17Z</time>
      </trkpt>
      <trkpt lat="49.85253" lon="2.46152">
        <ele>112.5</ele>
        <time>2024-01-24T15:07:18Z</time>
      </trkpt>
      <trkpt lat="49.85252" lon="2.46152">
        <ele>112.5</ele>
        <time>2024-01-24T15:07:19Z</time>
      </trkpt>
      <trkpt lat="49.85249" lon="2.46152">
        <ele>112.5</ele>
        <time>2024-01-24T15:07:20Z</time>
      </trkpt>
      <trkpt lat="49.85249" lon="2.46151">
        <ele>112.5</ele>
        <time>2024-01-24T15:07:21Z</time>
      </trkpt>
      <trkpt lat="49.85248" lon="2.46151">
        <ele>112.5</ele>
        <time>2024-01-24T15:07:22Z</time>
      </trkpt>
      <trkpt lat="49.85246" lon="2.46151">
        <ele>112.6</ele>
        <time>2024-01-24T15:07:23Z</time>
      </trkpt>
      <trkpt lat="49.85245" lon="2.46151">
        <ele>112.6</ele>
        <time>2024-01-24T15:07:24Z</time>
      </trkpt>
      <trkpt lat="49.85243" lon="2.4615">
        <ele>112.6</ele>
        <time>2024-01-24T15:07:26Z</time>
      </trkpt>
      <trkpt lat="49.85242" lon="2.4615">
        <ele>112.6</ele>
        <time>2024-01-24T15:07:27Z</time>
      </trkpt>
      <trkpt lat="49.8524" lon="2.4615">
        <ele>112.6</ele>
        <time>2024-01-24T15:07:28Z</time>
      </trkpt>
      <trkpt lat="49.85239" lon="2.4615">
        <ele>112.6</ele>
        <time>2024-01-24T15:07:29Z</time>
      </trkpt>
      <trkpt lat="49.85238" lon="2.46149">
        <ele>112.6</ele>
        <time>2024-01-24T15:07:30Z</time>
      </trkpt>
      <trkpt lat="49.85236" lon="2.46149">
        <ele>112.6</ele>
        <time>2024-01-24T15:07:31Z</time>
      </trkpt>
      <trkpt lat="49.85235" lon="2.46149">
        <ele>112.6</ele>
        <time>2024-01-24T15:07:32Z</time>
      </trkpt>
      <trkpt lat="49.85232" lon="2.46148">
        <ele>112.7</ele>
        <time>2024-01-24T15:07:33Z</time>
      </trkpt>
      <trkpt lat="49.85231" lon="2.46148">
        <ele>112.7</ele>
        <time>2024-01-24T15:07:35Z</time>
      </trkpt>
      <trkpt lat="49.8523" lon="2.46147">
        <ele>112.7</ele>
        <time>2024-01-24T15:07:36Z</time>
      </trkpt>
      <trkpt lat="49.85229" lon="2.46147">
        <ele>112.7</ele>
        <time>2024-01-24T15:07:37Z</time>
      </trkpt>
      <trkpt lat="49.85228" lon="2.46147">
        <ele>112.7</ele>
        <time>2024-01-24T15:07:38Z</time>
      </trkpt>
      <trkpt lat="49.85226" lon="2.46145">
        <ele>112.7</ele>
        <time>2024-01-24T15:07:40Z</time>
      </trkpt>
      <trkpt lat="49.85225" lon="2.46145">
        <ele>112.7</ele>
        <time>2024-01-24T15:07:41Z</time>
      </trkpt>
      <trkpt lat="49.85224" lon="2.46144">
        <ele>112.7</ele>
        <time>2024-01-24T15:07:42Z</time>
      </trkpt>
      <trkpt lat="49.85223" lon="2.46144">
        <ele>112.7</ele>
        <time>2024-01-24T15:07:43Z</time>
      </trkpt>
      <trkpt lat="49.85221" lon="2.46143">
        <ele>112.7</ele>
        <time>2024-01-24T15:07:44Z</time>
      </trkpt>
      <trkpt lat="49.8522" lon="2.46142">
        <ele>112.6</ele>
        <time>2024-01-24T15:07:46Z</time>
      </trkpt>
      <trkpt lat="49.85218" lon="2.46142">
        <ele>112.6</ele>
        <time>2024-01-24T15:07:47Z</time>
      </trkpt>
      <trkpt lat="49.85217" lon="2.46141">
        <ele>112.6</ele>
        <time>2024-01-24T15:07:48Z</time>
      </trkpt>
      <trkpt lat="49.85216" lon="2.46141">
        <ele>112.6</ele>
        <time>2024-01-24T15:07:49Z</time>
      </trkpt>
      <trkpt lat="49.85214" lon="2.4614">
        <ele>112.6</ele>
        <time>2024-01-24T15:07:50Z</time>
      </trkpt>
      <trkpt lat="49.85213" lon="2.46139">
        <ele>112.6</ele>
        <time>2024-01-24T15:07:51Z</time>
      </trkpt>
      <trkpt lat="49.85211" lon="2.46139">
        <ele>112.6</ele>
        <time>2024-01-24T15:07:52Z</time>
      </trkpt>
      <trkpt lat="49.8521" lon="2.46138">
        <ele>112.6</ele>
        <time>2024-01-24T15:07:53Z</time>
      </trkpt>
      <trkpt lat="49.85209" lon="2.46137">
        <ele>112.6</ele>
        <time>2024-01-24T15:07:54Z</time>
      </trkpt>
      <trkpt lat="49.85207" lon="2.46137">
        <ele>112.6</ele>
        <time>2024-01-24T15:07:56Z</time>
      </trkpt>
      <trkpt lat="49.85205" lon="2.46136">
        <ele>112.6</ele>
        <time>2024-01-24T15:07:57Z</time>
      </trkpt>
      <trkpt lat="49.85204" lon="2.46135">
        <ele>112.6</ele>
        <time>2024-01-24T15:07:58Z</time>
      </trkpt>
      <trkpt lat="49.85202" lon="2.46134">
        <ele>112.6</ele>
        <time>2024-01-24T15:07:59Z</time>
      </trkpt>
      <trkpt lat="49.85202" lon="2.46134">
        <ele>112.5</ele>
        <time>2024-01-24T15:08:00Z</time>
      </trkpt>
      <trkpt lat="49.85201" lon="2.46133">
        <ele>112.5</ele>
        <time>2024-01-24T15:08:01Z</time>
      </trkpt>
      <trkpt lat="49.85199" lon="2.46133">
        <ele>112.5</ele>
        <time>2024-01-24T15:08:02Z</time>
      </trkpt>
      <trkpt lat="49.85198" lon="2.46132">
        <ele>112.5</ele>
        <time>2024-01-24T15:08:03Z</time>
      </trkpt>
      <trkpt lat="49.85197" lon="2.46132">
        <ele>112.5</ele>
        <time>2024-01-24T15:08:04Z</time>
      </trkpt>
      <trkpt lat="49.85195" lon="2.46131">
        <ele>112.5</ele>
        <time>2024-01-24T15:08:06Z</time>
      </trkpt>
      <trkpt lat="49.85194" lon="2.46131">
        <ele>112.5</ele>
        <time>2024-01-24T15:08:07Z</time>
      </trkpt>
      <trkpt lat="49.85193" lon="2.4613">
        <ele>112.5</ele>
        <time>2024-01-24T15:08:08Z</time>
      </trkpt>
      <trkpt lat="49.85191" lon="2.4613">
        <ele>112.5</ele>
        <time>2024-01-24T15:08:09Z</time>
      </trkpt>
      <trkpt lat="49.8519" lon="2.4613">
        <ele>112.5</ele>
        <time>2024-01-24T15:08:10Z</time>
      </trkpt>
      <trkpt lat="49.85189" lon="2.46129">
        <ele>112.5</ele>
        <time>2024-01-24T15:08:11Z</time>
      </trkpt>
      <trkpt lat="49.85187" lon="2.46129">
        <ele>112.5</ele>
        <time>2024-01-24T15:08:12Z</time>
      </trkpt>
      <trkpt lat="49.85186" lon="2.46129">
        <ele>112.5</ele>
        <time>2024-01-24T15:08:13Z</time>
      </trkpt>
      <trkpt lat="49.85185" lon="2.46129">
        <ele>112.5</ele>
        <time>2024-01-24T15:08:14Z</time>
      </trkpt>
      <trkpt lat="49.85183" lon="2.46128">
        <ele>112.5</ele>
        <time>2024-01-24T15:08:16Z</time>
      </trkpt>
      <trkpt lat="49.85182" lon="2.46128">
        <ele>112.5</ele>
        <time>2024-01-24T15:08:17Z</time>
      </trkpt>
      <trkpt lat="49.85181" lon="2.46127">
        <ele>112.5</ele>
        <time>2024-01-24T15:08:18Z</time>
      </trkpt>
      <trkpt lat="49.8518" lon="2.46127">
        <ele>112.5</ele>
        <time>2024-01-24T15:08:19Z</time>
      </trkpt>
      <trkpt lat="49.85179" lon="2.46127">
        <ele>112.5</ele>
        <time>2024-01-24T15:08:20Z</time>
      </trkpt>
      <trkpt lat="49.85177" lon="2.46126">
        <ele>112.5</ele>
        <time>2024-01-24T15:08:21Z</time>
      </trkpt>
      <trkpt lat="49.85175" lon="2.46126">
        <ele>112.5</ele>
        <time>2024-01-24T15:08:22Z</time>
      </trkpt>
      <trkpt lat="49.85174" lon="2.46125">
        <ele>112.5</ele>
        <time>2024-01-24T15:08:24Z</time>
      </trkpt>
      <trkpt lat="49.85173" lon="2.46125">
        <ele>112.5</ele>
        <time>2024-01-24T15:08:25Z</time>
      </trkpt>
      <trkpt lat="49.85172" lon="2.46125">
        <ele>112.5</ele>
        <time>2024-01-24T15:08:26Z</time>
      </trkpt>
      <trkpt lat="49.85171" lon="2.46124">
        <ele>112.5</ele>
        <time>2024-01-24T15:08:27Z</time>
      </trkpt>
      <trkpt lat="49.85169" lon="2.46124">
        <ele>112.5</ele>
        <time>2024-01-24T15:08:29Z</time>
      </trkpt>
      <trkpt lat="49.85167" lon="2.46123">
        <ele>112.4</ele>
        <time>2024-01-24T15:08:30Z</time>
      </trkpt>
      <trkpt lat="49.85166" lon="2.46123">
        <ele>112.4</ele>
        <time>2024-01-24T15:08:31Z</time>
      </trkpt>
      <trkpt lat="49.85165" lon="2.46122">
        <ele>112.4</ele>
        <time>2024-01-24T15:08:32Z</time>
      </trkpt>
      <trkpt lat="49.85163" lon="2.46122">
        <ele>112.4</ele>
        <time>2024-01-24T15:08:33Z</time>
      </trkpt>
      <trkpt lat="49.85162" lon="2.46121">
        <ele>112.3</ele>
        <time>2024-01-24T15:08:34Z</time>
      </trkpt>
      <trkpt lat="49.8516" lon="2.46121">
        <ele>112.3</ele>
        <time>2024-01-24T15:08:35Z</time>
      </trkpt>
      <trkpt lat="49.85159" lon="2.46121">
        <ele>112.3</ele>
        <time>2024-01-24T15:08:36Z</time>
      </trkpt>
      <trkpt lat="49.85157" lon="2.46121">
        <ele>112.3</ele>
        <time>2024-01-24T15:08:38Z</time>
      </trkpt>
      <trkpt lat="49.85156" lon="2.46121">
        <ele>112.2</ele>
        <time>2024-01-24T15:08:39Z</time>
      </trkpt>
      <trkpt lat="49.85155" lon="2.46121">
        <ele>112.2</ele>
        <time>2024-01-24T15:08:40Z</time>
      </trkpt>
      <trkpt lat="49.85154" lon="2.46121">
        <ele>112.2</ele>
        <time>2024-01-24T15:08:41Z</time>
      </trkpt>
      <trkpt lat="49.85153" lon="2.46121">
        <ele>112.2</ele>
        <time>2024-01-24T15:08:42Z</time>
      </trkpt>
      <trkpt lat="49.85151" lon="2.46121">
        <ele>112.2</ele>
        <time>2024-01-24T15:08:43Z</time>
      </trkpt>
      <trkpt lat="49.8515" lon="2.46121">
        <ele>112.1</ele>
        <time>2024-01-24T15:08:45Z</time>
      </trkpt>
      <trkpt lat="49.85149" lon="2.46121">
        <ele>112.1</ele>
        <time>2024-01-24T15:08:46Z</time>
      </trkpt>
      <trkpt lat="49.85148" lon="2.4612">
        <ele>112.1</ele>
        <time>2024-01-24T15:08:47Z</time>
      </trkpt>
      <trkpt lat="49.85146" lon="2.4612">
        <ele>112.1</ele>
        <time>2024-01-24T15:08:48Z</time>
      </trkpt>
      <trkpt lat="49.85144" lon="2.46119">
        <ele>112</ele>
        <time>2024-01-24T15:08:49Z</time>
      </trkpt>
      <trkpt lat="49.85143" lon="2.46119">
        <ele>112</ele>
        <time>2024-01-24T15:08:50Z</time>
      </trkpt>
      <trkpt lat="49.85142" lon="2.46119">
        <ele>112</ele>
        <time>2024-01-24T15:08:51Z</time>
      </trkpt>
      <trkpt lat="49.85141" lon="2.46119">
        <ele>112</ele>
        <time>2024-01-24T15:08:52Z</time>
      </trkpt>
      <trkpt lat="49.8514" lon="2.46118">
        <ele>112</ele>
        <time>2024-01-24T15:08:53Z</time>
      </trkpt>
      <trkpt lat="49.85138" lon="2.46118">
        <ele>111.9</ele>
        <time>2024-01-24T15:08:55Z</time>
      </trkpt>
      <trkpt lat="49.85136" lon="2.46118">
        <ele>111.9</ele>
        <time>2024-01-24T15:08:56Z</time>
      </trkpt>
      <trkpt lat="49.85135" lon="2.46118">
        <ele>111.9</ele>
        <time>2024-01-24T15:08:57Z</time>
      </trkpt>
      <trkpt lat="49.85133" lon="2.46118">
        <ele>111.9</ele>
        <time>2024-01-24T15:08:58Z</time>
      </trkpt>
      <trkpt lat="49.85132" lon="2.46118">
        <ele>111.8</ele>
        <time>2024-01-24T15:08:59Z</time>
      </trkpt>
      <trkpt lat="49.8513" lon="2.46118">
        <ele>111.8</ele>
        <time>2024-01-24T15:09:00Z</time>
      </trkpt>
      <trkpt lat="49.85128" lon="2.46118">
        <ele>111.8</ele>
        <time>2024-01-24T15:09:01Z</time>
      </trkpt>
      <trkpt lat="49.85127" lon="2.46119">
        <ele>111.8</ele>
        <time>2024-01-24T15:09:03Z</time>
      </trkpt>
      <trkpt lat="49.85125" lon="2.46119">
        <ele>111.7</ele>
        <time>2024-01-24T15:09:04Z</time>
      </trkpt>
      <trkpt lat="49.85124" lon="2.46119">
        <ele>111.7</ele>
        <time>2024-01-24T15:09:05Z</time>
      </trkpt>
      <trkpt lat="49.85123" lon="2.46119">
        <ele>111.7</ele>
        <time>2024-01-24T15:09:06Z</time>
      </trkpt>
      <trkpt lat="49.85121" lon="2.46119">
        <ele>111.7</ele>
        <time>2024-01-24T15:09:07Z</time>
      </trkpt>
      <trkpt lat="49.8512" lon="2.46119">
        <ele>111.7</ele>
        <time>2024-01-24T15:09:08Z</time>
      </trkpt>
      <trkpt lat="49.85118" lon="2.46119">
        <ele>111.7</ele>
        <time>2024-01-24T15:09:10Z</time>
      </trkpt>
      <trkpt lat="49.85117" lon="2.46119">
        <ele>111.6</ele>
        <time>2024-01-24T15:09:11Z</time>
      </trkpt>
      <trkpt lat="49.85115" lon="2.46119">
        <ele>111.6</ele>
        <time>2024-01-24T15:09:12Z</time>
      </trkpt>
      <trkpt lat="49.85113" lon="2.46119">
        <ele>111.6</ele>
        <time>2024-01-24T15:09:13Z</time>
      </trkpt>
      <trkpt lat="49.85112" lon="2.46119">
        <ele>111.6</ele>
        <time>2024-01-24T15:09:14Z</time>
      </trkpt>
      <trkpt lat="49.85111" lon="2.46119">
        <ele>111.6</ele>
        <time>2024-01-24T15:09:15Z</time>
      </trkpt>
      <trkpt lat="49.85109" lon="2.46119">
        <ele>111.5</ele>
        <time>2024-01-24T15:09:16Z</time>
      </trkpt>
      <trkpt lat="49.85108" lon="2.46119">
        <ele>111.5</ele>
        <time>2024-01-24T15:09:17Z</time>
      </trkpt>
      <trkpt lat="49.85107" lon="2.46119">
        <ele>111.5</ele>
        <time>2024-01-24T15:09:19Z</time>
      </trkpt>
      <trkpt lat="49.85105" lon="2.46119">
        <ele>111.5</ele>
        <time>2024-01-24T15:09:20Z</time>
      </trkpt>
      <trkpt lat="49.85103" lon="2.46119">
        <ele>111.5</ele>
        <time>2024-01-24T15:09:21Z</time>
      </trkpt>
      <trkpt lat="49.85102" lon="2.46119">
        <ele>111.5</ele>
        <time>2024-01-24T15:09:22Z</time>
      </trkpt>
      <trkpt lat="49.851" lon="2.46119">
        <ele>111.4</ele>
        <time>2024-01-24T15:09:23Z</time>
      </trkpt>
      <trkpt lat="49.85098" lon="2.46119">
        <ele>111.4</ele>
        <time>2024-01-24T15:09:25Z</time>
      </trkpt>
      <trkpt lat="49.85097" lon="2.46119">
        <ele>111.4</ele>
        <time>2024-01-24T15:09:26Z</time>
      </trkpt>
      <trkpt lat="49.85095" lon="2.46119">
        <ele>111.4</ele>
        <time>2024-01-24T15:09:27Z</time>
      </trkpt>
      <trkpt lat="49.85094" lon="2.46119">
        <ele>111.4</ele>
        <time>2024-01-24T15:09:28Z</time>
      </trkpt>
      <trkpt lat="49.85092" lon="2.46119">
        <ele>111.3</ele>
        <time>2024-01-24T15:09:29Z</time>
      </trkpt>
      <trkpt lat="49.85091" lon="2.46119">
        <ele>111.3</ele>
        <time>2024-01-24T15:09:30Z</time>
      </trkpt>
      <trkpt lat="49.8509" lon="2.4612">
        <ele>111.3</ele>
        <time>2024-01-24T15:09:31Z</time>
      </trkpt>
      <trkpt lat="49.85089" lon="2.46119">
        <ele>111.3</ele>
        <time>2024-01-24T15:09:33Z</time>
      </trkpt>
      <trkpt lat="49.85087" lon="2.46119">
        <ele>111.3</ele>
        <time>2024-01-24T15:09:34Z</time>
      </trkpt>
      <trkpt lat="49.85086" lon="2.46119">
        <ele>111.3</ele>
        <time>2024-01-24T15:09:35Z</time>
      </trkpt>
      <trkpt lat="49.85085" lon="2.46119">
        <ele>111.2</ele>
        <time>2024-01-24T15:09:36Z</time>
      </trkpt>
      <trkpt lat="49.85084" lon="2.4612">
        <ele>111.2</ele>
        <time>2024-01-24T15:09:37Z</time>
      </trkpt>
      <trkpt lat="49.85082" lon="2.4612">
        <ele>111.2</ele>
        <time>2024-01-24T15:09:38Z</time>
      </trkpt>
      <trkpt lat="49.8508" lon="2.4612">
        <ele>111.2</ele>
        <time>2024-01-24T15:09:40Z</time>
      </trkpt>
      <trkpt lat="49.85079" lon="2.4612">
        <ele>111.2</ele>
        <time>2024-01-24T15:09:41Z</time>
      </trkpt>
      <trkpt lat="49.85077" lon="2.4612">
        <ele>111.2</ele>
        <time>2024-01-24T15:09:42Z</time>
      </trkpt>
      <trkpt lat="49.85075" lon="2.4612">
        <ele>111.1</ele>
        <time>2024-01-24T15:09:43Z</time>
      </trkpt>
      <trkpt lat="49.85074" lon="2.4612">
        <ele>111.1</ele>
        <time>2024-01-24T15:09:44Z</time>
      </trkpt>
      <trkpt lat="49.85071" lon="2.4612">
        <ele>111.1</ele>
        <time>2024-01-24T15:09:45Z</time>
      </trkpt>
      <trkpt lat="49.85071" lon="2.4612">
        <ele>111.1</ele>
        <time>2024-01-24T15:09:46Z</time>
      </trkpt>
      <trkpt lat="49.8507" lon="2.4612">
        <ele>111.1</ele>
        <time>2024-01-24T15:09:47Z</time>
      </trkpt>
      <trkpt lat="49.85069" lon="2.46119">
        <ele>111.1</ele>
        <time>2024-01-24T15:09:49Z</time>
      </trkpt>
      <trkpt lat="49.85067" lon="2.46119">
        <ele>111</ele>
        <time>2024-01-24T15:09:50Z</time>
      </trkpt>
      <trkpt lat="49.85066" lon="2.46119">
        <ele>111</ele>
        <time>2024-01-24T15:09:51Z</time>
      </trkpt>
      <trkpt lat="49.85064" lon="2.46119">
        <ele>111</ele>
        <time>2024-01-24T15:09:52Z</time>
      </trkpt>
      <trkpt lat="49.85062" lon="2.46119">
        <ele>111</ele>
        <time>2024-01-24T15:09:53Z</time>
      </trkpt>
      <trkpt lat="49.85061" lon="2.46119">
        <ele>111</ele>
        <time>2024-01-24T15:09:54Z</time>
      </trkpt>
      <trkpt lat="49.85059" lon="2.46119">
        <ele>110.9</ele>
        <time>2024-01-24T15:09:55Z</time>
      </trkpt>
      <trkpt lat="49.85058" lon="2.46119">
        <ele>110.9</ele>
        <time>2024-01-24T15:09:56Z</time>
      </trkpt>
      <trkpt lat="49.85056" lon="2.46119">
        <ele>110.9</ele>
        <time>2024-01-24T15:09:57Z</time>
      </trkpt>
      <trkpt lat="49.85055" lon="2.46119">
        <ele>110.9</ele>
        <time>2024-01-24T15:09:58Z</time>
      </trkpt>
      <trkpt lat="49.85054" lon="2.4612">
        <ele>110.9</ele>
        <time>2024-01-24T15:10:00Z</time>
      </trkpt>
      <trkpt lat="49.85053" lon="2.4612">
        <ele>110.9</ele>
        <time>2024-01-24T15:10:01Z</time>
      </trkpt>
      <trkpt lat="49.85052" lon="2.4612">
        <ele>110.9</ele>
        <time>2024-01-24T15:10:02Z</time>
      </trkpt>
      <trkpt lat="49.8505" lon="2.46121">
        <ele>110.9</ele>
        <time>2024-01-24T15:10:03Z</time>
      </trkpt>
      <trkpt lat="49.85048" lon="2.46123">
        <ele>110.9</ele>
        <time>2024-01-24T15:10:04Z</time>
      </trkpt>
      <trkpt lat="49.85048" lon="2.46123">
        <ele>110.9</ele>
        <time>2024-01-24T15:10:05Z</time>
      </trkpt>
      <trkpt lat="49.85047" lon="2.46124">
        <ele>110.9</ele>
        <time>2024-01-24T15:10:06Z</time>
      </trkpt>
      <trkpt lat="49.85045" lon="2.46123">
        <ele>110.8</ele>
        <time>2024-01-24T15:10:08Z</time>
      </trkpt>
      <trkpt lat="49.85044" lon="2.46123">
        <ele>110.8</ele>
        <time>2024-01-24T15:10:09Z</time>
      </trkpt>
      <trkpt lat="49.85043" lon="2.46123">
        <ele>110.8</ele>
        <time>2024-01-24T15:10:10Z</time>
      </trkpt>
      <trkpt lat="49.85041" lon="2.46123">
        <ele>110.8</ele>
        <time>2024-01-24T15:10:11Z</time>
      </trkpt>
      <trkpt lat="49.8504" lon="2.46123">
        <ele>110.8</ele>
        <time>2024-01-24T15:10:13Z</time>
      </trkpt>
      <trkpt lat="49.85038" lon="2.46123">
        <ele>110.8</ele>
        <time>2024-01-24T15:10:14Z</time>
      </trkpt>
      <trkpt lat="49.85037" lon="2.46122">
        <ele>110.8</ele>
        <time>2024-01-24T15:10:15Z</time>
      </trkpt>
      <trkpt lat="49.85035" lon="2.46122">
        <ele>110.8</ele>
        <time>2024-01-24T15:10:16Z</time>
      </trkpt>
      <trkpt lat="49.85034" lon="2.46122">
        <ele>110.8</ele>
        <time>2024-01-24T15:10:17Z</time>
      </trkpt>
      <trkpt lat="49.85032" lon="2.46122">
        <ele>110.8</ele>
        <time>2024-01-24T15:10:18Z</time>
      </trkpt>
      <trkpt lat="49.85031" lon="2.46122">
        <ele>110.8</ele>
        <time>2024-01-24T15:10:19Z</time>
      </trkpt>
      <trkpt lat="49.8503" lon="2.46122">
        <ele>110.7</ele>
        <time>2024-01-24T15:10:21Z</time>
      </trkpt>
      <trkpt lat="49.85027" lon="2.46122">
        <ele>110.7</ele>
        <time>2024-01-24T15:10:22Z</time>
      </trkpt>
      <trkpt lat="49.85026" lon="2.46123">
        <ele>110.7</ele>
        <time>2024-01-24T15:10:23Z</time>
      </trkpt>
      <trkpt lat="49.85025" lon="2.46123">
        <ele>110.7</ele>
        <time>2024-01-24T15:10:24Z</time>
      </trkpt>
      <trkpt lat="49.85024" lon="2.46123">
        <ele>110.7</ele>
        <time>2024-01-24T15:10:25Z</time>
      </trkpt>
      <trkpt lat="49.85023" lon="2.46123">
        <ele>110.7</ele>
        <time>2024-01-24T15:10:26Z</time>
      </trkpt>
      <trkpt lat="49.85022" lon="2.46123">
        <ele>110.7</ele>
        <time>2024-01-24T15:10:27Z</time>
      </trkpt>
      <trkpt lat="49.8502" lon="2.46123">
        <ele>110.7</ele>
        <time>2024-01-24T15:10:28Z</time>
      </trkpt>
      <trkpt lat="49.85019" lon="2.46124">
        <ele>110.7</ele>
        <time>2024-01-24T15:10:30Z</time>
      </trkpt>
      <trkpt lat="49.85018" lon="2.46124">
        <ele>110.7</ele>
        <time>2024-01-24T15:10:31Z</time>
      </trkpt>
      <trkpt lat="49.85016" lon="2.46124">
        <ele>110.7</ele>
        <time>2024-01-24T15:10:32Z</time>
      </trkpt>
      <trkpt lat="49.85014" lon="2.46124">
        <ele>110.7</ele>
        <time>2024-01-24T15:10:33Z</time>
      </trkpt>
      <trkpt lat="49.85013" lon="2.46124">
        <ele>110.6</ele>
        <time>2024-01-24T15:10:34Z</time>
      </trkpt>
      <trkpt lat="49.85012" lon="2.46124">
        <ele>110.6</ele>
        <time>2024-01-24T15:10:35Z</time>
      </trkpt>
      <trkpt lat="49.8501" lon="2.46124">
        <ele>110.6</ele>
        <time>2024-01-24T15:10:36Z</time>
      </trkpt>
      <trkpt lat="49.85008" lon="2.46124">
        <ele>110.6</ele>
        <time>2024-01-24T15:10:38Z</time>
      </trkpt>
      <trkpt lat="49.85007" lon="2.46125">
        <ele>110.6</ele>
        <time>2024-01-24T15:10:39Z</time>
      </trkpt>
      <trkpt lat="49.85006" lon="2.46125">
        <ele>110.6</ele>
        <time>2024-01-24T15:10:40Z</time>
      </trkpt>
      <trkpt lat="49.85005" lon="2.46125">
        <ele>110.6</ele>
        <time>2024-01-24T15:10:41Z</time>
      </trkpt>
      <trkpt lat="49.85004" lon="2.46125">
        <ele>110.6</ele>
        <time>2024-01-24T15:10:42Z</time>
      </trkpt>
      <trkpt lat="49.85003" lon="2.46125">
        <ele>110.6</ele>
        <time>2024-01-24T15:10:43Z</time>
      </trkpt>
      <trkpt lat="49.85001" lon="2.46125">
        <ele>110.6</ele>
        <time>2024-01-24T15:10:45Z</time>
      </trkpt>
      <trkpt lat="49.85" lon="2.46126">
        <ele>110.6</ele>
        <time>2024-01-24T15:10:46Z</time>
      </trkpt>
      <trkpt lat="49.84998" lon="2.46126">
        <ele>110.5</ele>
        <time>2024-01-24T15:10:47Z</time>
      </trkpt>
      <trkpt lat="49.84996" lon="2.46126">
        <ele>110.5</ele>
        <time>2024-01-24T15:10:48Z</time>
      </trkpt>
      <trkpt lat="49.84995" lon="2.46127">
        <ele>110.5</ele>
        <time>2024-01-24T15:10:49Z</time>
      </trkpt>
      <trkpt lat="49.84993" lon="2.46127">
        <ele>110.5</ele>
        <time>2024-01-24T15:10:50Z</time>
      </trkpt>
      <trkpt lat="49.84991" lon="2.46127">
        <ele>110.5</ele>
        <time>2024-01-24T15:10:51Z</time>
      </trkpt>
      <trkpt lat="49.84989" lon="2.46127">
        <ele>110.4</ele>
        <time>2024-01-24T15:10:53Z</time>
      </trkpt>
      <trkpt lat="49.84988" lon="2.46127">
        <ele>110.4</ele>
        <time>2024-01-24T15:10:54Z</time>
      </trkpt>
      <trkpt lat="49.84986" lon="2.46127">
        <ele>110.4</ele>
        <time>2024-01-24T15:10:55Z</time>
      </trkpt>
      <trkpt lat="49.84985" lon="2.46127">
        <ele>110.4</ele>
        <time>2024-01-24T15:10:56Z</time>
      </trkpt>
      <trkpt lat="49.84983" lon="2.46127">
        <ele>110.3</ele>
        <time>2024-01-24T15:10:58Z</time>
      </trkpt>
      <trkpt lat="49.84982" lon="2.46127">
        <ele>110.3</ele>
        <time>2024-01-24T15:10:59Z</time>
      </trkpt>
      <trkpt lat="49.8498" lon="2.46128">
        <ele>110.3</ele>
        <time>2024-01-24T15:11:00Z</time>
      </trkpt>
      <trkpt lat="49.84979" lon="2.46128">
        <ele>110.3</ele>
        <time>2024-01-24T15:11:01Z</time>
      </trkpt>
      <trkpt lat="49.84978" lon="2.46128">
        <ele>110.3</ele>
        <time>2024-01-24T15:11:02Z</time>
      </trkpt>
      <trkpt lat="49.84976" lon="2.46128">
        <ele>110.3</ele>
        <time>2024-01-24T15:11:03Z</time>
      </trkpt>
      <trkpt lat="49.84975" lon="2.46128">
        <ele>110.2</ele>
        <time>2024-01-24T15:11:04Z</time>
      </trkpt>
      <trkpt lat="49.84974" lon="2.46128">
        <ele>110.2</ele>
        <time>2024-01-24T15:11:05Z</time>
      </trkpt>
      <trkpt lat="49.84972" lon="2.46128">
        <ele>110.2</ele>
        <time>2024-01-24T15:11:07Z</time>
      </trkpt>
      <trkpt lat="49.84971" lon="2.46129">
        <ele>110.2</ele>
        <time>2024-01-24T15:11:08Z</time>
      </trkpt>
      <trkpt lat="49.8497" lon="2.46128">
        <ele>110.2</ele>
        <time>2024-01-24T15:11:09Z</time>
      </trkpt>
      <trkpt lat="49.84968" lon="2.46128">
        <ele>110.2</ele>
        <time>2024-01-24T15:11:10Z</time>
      </trkpt>
      <trkpt lat="49.84967" lon="2.46128">
        <ele>110.2</ele>
        <time>2024-01-24T15:11:11Z</time>
      </trkpt>
      <trkpt lat="49.84965" lon="2.46129">
        <ele>110.1</ele>
        <time>2024-01-24T15:11:13Z</time>
      </trkpt>
      <trkpt lat="49.84963" lon="2.46129">
        <ele>110.1</ele>
        <time>2024-01-24T15:11:14Z</time>
      </trkpt>
      <trkpt lat="49.84962" lon="2.46129">
        <ele>110.1</ele>
        <time>2024-01-24T15:11:15Z</time>
      </trkpt>
      <trkpt lat="49.8496" lon="2.46129">
        <ele>110.1</ele>
        <time>2024-01-24T15:11:16Z</time>
      </trkpt>
      <trkpt lat="49.84959" lon="2.46129">
        <ele>110.1</ele>
        <time>2024-01-24T15:11:17Z</time>
      </trkpt>
      <trkpt lat="49.84957" lon="2.4613">
        <ele>110.1</ele>
        <time>2024-01-24T15:11:19Z</time>
      </trkpt>
      <trkpt lat="49.84956" lon="2.4613">
        <ele>110.1</ele>
        <time>2024-01-24T15:11:20Z</time>
      </trkpt>
      <trkpt lat="49.84955" lon="2.4613">
        <ele>110.1</ele>
        <time>2024-01-24T15:11:21Z</time>
      </trkpt>
      <trkpt lat="49.84953" lon="2.46131">
        <ele>110</ele>
        <time>2024-01-24T15:11:22Z</time>
      </trkpt>
      <trkpt lat="49.84952" lon="2.46131">
        <ele>110</ele>
        <time>2024-01-24T15:11:23Z</time>
      </trkpt>
      <trkpt lat="49.84951" lon="2.46131">
        <ele>110</ele>
        <time>2024-01-24T15:11:24Z</time>
      </trkpt>
      <trkpt lat="49.84949" lon="2.46132">
        <ele>110</ele>
        <time>2024-01-24T15:11:26Z</time>
      </trkpt>
      <trkpt lat="49.84948" lon="2.46132">
        <ele>110</ele>
        <time>2024-01-24T15:11:27Z</time>
      </trkpt>
      <trkpt lat="49.84947" lon="2.46132">
        <ele>110</ele>
        <time>2024-01-24T15:11:28Z</time>
      </trkpt>
      <trkpt lat="49.84945" lon="2.46132">
        <ele>110</ele>
        <time>2024-01-24T15:11:29Z</time>
      </trkpt>
      <trkpt lat="49.84944" lon="2.46132">
        <ele>109.9</ele>
        <time>2024-01-24T15:11:30Z</time>
      </trkpt>
      <trkpt lat="49.84943" lon="2.46132">
        <ele>109.9</ele>
        <time>2024-01-24T15:11:31Z</time>
      </trkpt>
      <trkpt lat="49.84941" lon="2.46132">
        <ele>109.9</ele>
        <time>2024-01-24T15:11:33Z</time>
      </trkpt>
      <trkpt lat="49.84939" lon="2.46132">
        <ele>109.9</ele>
        <time>2024-01-24T15:11:34Z</time>
      </trkpt>
      <trkpt lat="49.84938" lon="2.46132">
        <ele>109.9</ele>
        <time>2024-01-24T15:11:35Z</time>
      </trkpt>
      <trkpt lat="49.84937" lon="2.46132">
        <ele>109.9</ele>
        <time>2024-01-24T15:11:36Z</time>
      </trkpt>
      <trkpt lat="49.84935" lon="2.46132">
        <ele>109.8</ele>
        <time>2024-01-24T15:11:37Z</time>
      </trkpt>
      <trkpt lat="49.84934" lon="2.46132">
        <ele>109.8</ele>
        <time>2024-01-24T15:11:39Z</time>
      </trkpt>
      <trkpt lat="49.84932" lon="2.46132">
        <ele>109.8</ele>
        <time>2024-01-24T15:11:40Z</time>
      </trkpt>
      <trkpt lat="49.84931" lon="2.46133">
        <ele>109.8</ele>
        <time>2024-01-24T15:11:41Z</time>
      </trkpt>
      <trkpt lat="49.84929" lon="2.46133">
        <ele>109.8</ele>
        <time>2024-01-24T15:11:42Z</time>
      </trkpt>
      <trkpt lat="49.84928" lon="2.46134">
        <ele>109.7</ele>
        <time>2024-01-24T15:11:43Z</time>
      </trkpt>
      <trkpt lat="49.84927" lon="2.46134">
        <ele>109.7</ele>
        <time>2024-01-24T15:11:44Z</time>
      </trkpt>
      <trkpt lat="49.84926" lon="2.46135">
        <ele>109.7</ele>
        <time>2024-01-24T15:11:45Z</time>
      </trkpt>
      <trkpt lat="49.84924" lon="2.46135">
        <ele>109.7</ele>
        <time>2024-01-24T15:11:47Z</time>
      </trkpt>
      <trkpt lat="49.84923" lon="2.46135">
        <ele>109.7</ele>
        <time>2024-01-24T15:11:48Z</time>
      </trkpt>
      <trkpt lat="49.84921" lon="2.46136">
        <ele>109.6</ele>
        <time>2024-01-24T15:11:49Z</time>
      </trkpt>
      <trkpt lat="49.8492" lon="2.46136">
        <ele>109.6</ele>
        <time>2024-01-24T15:11:50Z</time>
      </trkpt>
      <trkpt lat="49.84918" lon="2.46136">
        <ele>109.6</ele>
        <time>2024-01-24T15:11:51Z</time>
      </trkpt>
      <trkpt lat="49.84916" lon="2.46136">
        <ele>109.6</ele>
        <time>2024-01-24T15:11:52Z</time>
      </trkpt>
      <trkpt lat="49.84915" lon="2.46136">
        <ele>109.6</ele>
        <time>2024-01-24T15:11:53Z</time>
      </trkpt>
      <trkpt lat="49.84913" lon="2.46136">
        <ele>109.5</ele>
        <time>2024-01-24T15:11:55Z</time>
      </trkpt>
      <trkpt lat="49.84912" lon="2.46135">
        <ele>109.5</ele>
        <time>2024-01-24T15:11:56Z</time>
      </trkpt>
      <trkpt lat="49.8491" lon="2.46134">
        <ele>109.5</ele>
        <time>2024-01-24T15:11:57Z</time>
      </trkpt>
      <trkpt lat="49.84909" lon="2.46134">
        <ele>109.5</ele>
        <time>2024-01-24T15:11:58Z</time>
      </trkpt>
      <trkpt lat="49.84906" lon="2.46133">
        <ele>109.4</ele>
        <time>2024-01-24T15:12:00Z</time>
      </trkpt>
      <trkpt lat="49.84905" lon="2.46132">
        <ele>109.4</ele>
        <time>2024-01-24T15:12:01Z</time>
      </trkpt>
      <trkpt lat="49.84903" lon="2.46132">
        <ele>109.4</ele>
        <time>2024-01-24T15:12:02Z</time>
      </trkpt>
      <trkpt lat="49.84902" lon="2.46132">
        <ele>109.4</ele>
        <time>2024-01-24T15:12:03Z</time>
      </trkpt>
      <trkpt lat="49.84899" lon="2.46131">
        <ele>109.4</ele>
        <time>2024-01-24T15:12:05Z</time>
      </trkpt>
      <trkpt lat="49.84898" lon="2.46131">
        <ele>109.4</ele>
        <time>2024-01-24T15:12:06Z</time>
      </trkpt>
      <trkpt lat="49.84896" lon="2.4613">
        <ele>109.3</ele>
        <time>2024-01-24T15:12:07Z</time>
      </trkpt>
      <trkpt lat="49.84895" lon="2.4613">
        <ele>109.3</ele>
        <time>2024-01-24T15:12:08Z</time>
      </trkpt>
      <trkpt lat="49.84894" lon="2.4613">
        <ele>109.3</ele>
        <time>2024-01-24T15:12:09Z</time>
      </trkpt>
      <trkpt lat="49.84893" lon="2.46129">
        <ele>109.3</ele>
        <time>2024-01-24T15:12:10Z</time>
      </trkpt>
      <trkpt lat="49.84892" lon="2.46129">
        <ele>109.3</ele>
        <time>2024-01-24T15:12:12Z</time>
      </trkpt>
      <trkpt lat="49.8489" lon="2.46128">
        <ele>109.3</ele>
        <time>2024-01-24T15:12:13Z</time>
      </trkpt>
      <trkpt lat="49.84889" lon="2.46128">
        <ele>109.3</ele>
        <time>2024-01-24T15:12:14Z</time>
      </trkpt>
      <trkpt lat="49.84887" lon="2.46127">
        <ele>109.3</ele>
        <time>2024-01-24T15:12:15Z</time>
      </trkpt>
      <trkpt lat="49.84886" lon="2.46127">
        <ele>109.3</ele>
        <time>2024-01-24T15:12:16Z</time>
      </trkpt>
      <trkpt lat="49.84884" lon="2.46126">
        <ele>109.3</ele>
        <time>2024-01-24T15:12:17Z</time>
      </trkpt>
      <trkpt lat="49.84883" lon="2.46126">
        <ele>109.3</ele>
        <time>2024-01-24T15:12:18Z</time>
      </trkpt>
      <trkpt lat="49.84882" lon="2.46126">
        <ele>109.3</ele>
        <time>2024-01-24T15:12:19Z</time>
      </trkpt>
      <trkpt lat="49.84881" lon="2.46125">
        <ele>109.2</ele>
        <time>2024-01-24T15:12:20Z</time>
      </trkpt>
      <trkpt lat="49.84879" lon="2.46125">
        <ele>109.2</ele>
        <time>2024-01-24T15:12:22Z</time>
      </trkpt>
      <trkpt lat="49.84878" lon="2.46125">
        <ele>109.2</ele>
        <time>2024-01-24T15:12:23Z</time>
      </trkpt>
      <trkpt lat="49.84876" lon="2.46125">
        <ele>109.2</ele>
        <time>2024-01-24T15:12:24Z</time>
      </trkpt>
      <trkpt lat="49.84874" lon="2.46125">
        <ele>109.2</ele>
        <time>2024-01-24T15:12:25Z</time>
      </trkpt>
      <trkpt lat="49.84873" lon="2.46125">
        <ele>109.2</ele>
        <time>2024-01-24T15:12:26Z</time>
      </trkpt>
      <trkpt lat="49.84872" lon="2.46125">
        <ele>109.2</ele>
        <time>2024-01-24T15:12:27Z</time>
      </trkpt>
      <trkpt lat="49.8487" lon="2.46125">
        <ele>109.2</ele>
        <time>2024-01-24T15:12:29Z</time>
      </trkpt>
      <trkpt lat="49.84869" lon="2.46125">
        <ele>109.1</ele>
        <time>2024-01-24T15:12:30Z</time>
      </trkpt>
      <trkpt lat="49.84867" lon="2.46124">
        <ele>109.1</ele>
        <time>2024-01-24T15:12:31Z</time>
      </trkpt>
      <trkpt lat="49.84866" lon="2.46124">
        <ele>109.1</ele>
        <time>2024-01-24T15:12:32Z</time>
      </trkpt>
      <trkpt lat="49.84864" lon="2.46124">
        <ele>109.1</ele>
        <time>2024-01-24T15:12:33Z</time>
      </trkpt>
      <trkpt lat="49.84863" lon="2.46124">
        <ele>109.1</ele>
        <time>2024-01-24T15:12:34Z</time>
      </trkpt>
      <trkpt lat="49.8486" lon="2.46123">
        <ele>109</ele>
        <time>2024-01-24T15:12:35Z</time>
      </trkpt>
      <trkpt lat="49.84859" lon="2.46123">
        <ele>109</ele>
        <time>2024-01-24T15:12:37Z</time>
      </trkpt>
      <trkpt lat="49.84858" lon="2.46122">
        <ele>109</ele>
        <time>2024-01-24T15:12:38Z</time>
      </trkpt>
      <trkpt lat="49.84857" lon="2.46122">
        <ele>109</ele>
        <time>2024-01-24T15:12:39Z</time>
      </trkpt>
      <trkpt lat="49.84856" lon="2.46122">
        <ele>109</ele>
        <time>2024-01-24T15:12:40Z</time>
      </trkpt>
      <trkpt lat="49.84854" lon="2.46122">
        <ele>109</ele>
        <time>2024-01-24T15:12:41Z</time>
      </trkpt>
      <trkpt lat="49.84853" lon="2.46121">
        <ele>108.9</ele>
        <time>2024-01-24T15:12:42Z</time>
      </trkpt>
      <trkpt lat="49.84852" lon="2.46121">
        <ele>108.9</ele>
        <time>2024-01-24T15:12:44Z</time>
      </trkpt>
      <trkpt lat="49.8485" lon="2.4612">
        <ele>108.9</ele>
        <time>2024-01-24T15:12:45Z</time>
      </trkpt>
      <trkpt lat="49.84849" lon="2.46119">
        <ele>108.9</ele>
        <time>2024-01-24T15:12:46Z</time>
      </trkpt>
      <trkpt lat="49.84848" lon="2.46119">
        <ele>108.9</ele>
        <time>2024-01-24T15:12:47Z</time>
      </trkpt>
      <trkpt lat="49.84846" lon="2.46118">
        <ele>108.8</ele>
        <time>2024-01-24T15:12:48Z</time>
      </trkpt>
      <trkpt lat="49.84845" lon="2.46118">
        <ele>108.8</ele>
        <time>2024-01-24T15:12:49Z</time>
      </trkpt>
      <trkpt lat="49.84844" lon="2.46118">
        <ele>108.8</ele>
        <time>2024-01-24T15:12:50Z</time>
      </trkpt>
      <trkpt lat="49.84842" lon="2.46117">
        <ele>108.8</ele>
        <time>2024-01-24T15:12:52Z</time>
      </trkpt>
      <trkpt lat="49.84841" lon="2.46117">
        <ele>108.8</ele>
        <time>2024-01-24T15:12:53Z</time>
      </trkpt>
      <trkpt lat="49.84839" lon="2.46117">
        <ele>108.7</ele>
        <time>2024-01-24T15:12:54Z</time>
      </trkpt>
      <trkpt lat="49.84838" lon="2.46117">
        <ele>108.7</ele>
        <time>2024-01-24T15:12:55Z</time>
      </trkpt>
      <trkpt lat="49.84837" lon="2.46116">
        <ele>108.7</ele>
        <time>2024-01-24T15:12:56Z</time>
      </trkpt>
      <trkpt lat="49.84835" lon="2.46115">
        <ele>108.7</ele>
        <time>2024-01-24T15:12:57Z</time>
      </trkpt>
      <trkpt lat="49.84833" lon="2.46114">
        <ele>108.7</ele>
        <time>2024-01-24T15:12:58Z</time>
      </trkpt>
      <trkpt lat="49.84832" lon="2.46114">
        <ele>108.6</ele>
        <time>2024-01-24T15:13:00Z</time>
      </trkpt>
      <trkpt lat="49.8483" lon="2.46113">
        <ele>108.6</ele>
        <time>2024-01-24T15:13:01Z</time>
      </trkpt>
      <trkpt lat="49.84829" lon="2.46113">
        <ele>108.6</ele>
        <time>2024-01-24T15:13:02Z</time>
      </trkpt>
      <trkpt lat="49.84828" lon="2.46113">
        <ele>108.6</ele>
        <time>2024-01-24T15:13:03Z</time>
      </trkpt>
      <trkpt lat="49.84827" lon="2.46112">
        <ele>108.6</ele>
        <time>2024-01-24T15:13:05Z</time>
      </trkpt>
      <trkpt lat="49.84825" lon="2.46111">
        <ele>108.6</ele>
        <time>2024-01-24T15:13:06Z</time>
      </trkpt>
      <trkpt lat="49.84824" lon="2.46111">
        <ele>108.5</ele>
        <time>2024-01-24T15:13:07Z</time>
      </trkpt>
      <trkpt lat="49.84822" lon="2.46111">
        <ele>108.5</ele>
        <time>2024-01-24T15:13:08Z</time>
      </trkpt>
      <trkpt lat="49.84821" lon="2.46111">
        <ele>108.5</ele>
        <time>2024-01-24T15:13:09Z</time>
      </trkpt>
      <trkpt lat="49.84819" lon="2.46111">
        <ele>108.5</ele>
        <time>2024-01-24T15:13:10Z</time>
      </trkpt>
      <trkpt lat="49.84817" lon="2.46111">
        <ele>108.5</ele>
        <time>2024-01-24T15:13:11Z</time>
      </trkpt>
      <trkpt lat="49.84816" lon="2.46111">
        <ele>108.4</ele>
        <time>2024-01-24T15:13:12Z</time>
      </trkpt>
      <trkpt lat="49.84814" lon="2.46111">
        <ele>108.4</ele>
        <time>2024-01-24T15:13:14Z</time>
      </trkpt>
      <trkpt lat="49.84813" lon="2.4611">
        <ele>108.4</ele>
        <time>2024-01-24T15:13:15Z</time>
      </trkpt>
      <trkpt lat="49.84811" lon="2.4611">
        <ele>108.4</ele>
        <time>2024-01-24T15:13:16Z</time>
      </trkpt>
      <trkpt lat="49.8481" lon="2.4611">
        <ele>108.4</ele>
        <time>2024-01-24T15:13:17Z</time>
      </trkpt>
      <trkpt lat="49.84809" lon="2.4611">
        <ele>108.4</ele>
        <time>2024-01-24T15:13:18Z</time>
      </trkpt>
      <trkpt lat="49.84807" lon="2.46109">
        <ele>108.3</ele>
        <time>2024-01-24T15:13:20Z</time>
      </trkpt>
      <trkpt lat="49.84806" lon="2.46109">
        <ele>108.3</ele>
        <time>2024-01-24T15:13:21Z</time>
      </trkpt>
      <trkpt lat="49.84804" lon="2.46108">
        <ele>108.3</ele>
        <time>2024-01-24T15:13:22Z</time>
      </trkpt>
      <trkpt lat="49.84803" lon="2.46108">
        <ele>108.3</ele>
        <time>2024-01-24T15:13:23Z</time>
      </trkpt>
      <trkpt lat="49.84801" lon="2.46108">
        <ele>108.3</ele>
        <time>2024-01-24T15:13:24Z</time>
      </trkpt>
      <trkpt lat="49.848" lon="2.46107">
        <ele>108.3</ele>
        <time>2024-01-24T15:13:25Z</time>
      </trkpt>
      <trkpt lat="49.84799" lon="2.46107">
        <ele>108.3</ele>
        <time>2024-01-24T15:13:27Z</time>
      </trkpt>
      <trkpt lat="49.84797" lon="2.46107">
        <ele>108.2</ele>
        <time>2024-01-24T15:13:28Z</time>
      </trkpt>
      <trkpt lat="49.84796" lon="2.46107">
        <ele>108.2</ele>
        <time>2024-01-24T15:13:29Z</time>
      </trkpt>
      <trkpt lat="49.84795" lon="2.46106">
        <ele>108.2</ele>
        <time>2024-01-24T15:13:30Z</time>
      </trkpt>
      <trkpt lat="49.84794" lon="2.46106">
        <ele>108.2</ele>
        <time>2024-01-24T15:13:31Z</time>
      </trkpt>
      <trkpt lat="49.84792" lon="2.46106">
        <ele>108.2</ele>
        <time>2024-01-24T15:13:32Z</time>
      </trkpt>
      <trkpt lat="49.84791" lon="2.46106">
        <ele>108.2</ele>
        <time>2024-01-24T15:13:33Z</time>
      </trkpt>
      <trkpt lat="49.8479" lon="2.46106">
        <ele>108.2</ele>
        <time>2024-01-24T15:13:34Z</time>
      </trkpt>
      <trkpt lat="49.84788" lon="2.46106">
        <ele>108.1</ele>
        <time>2024-01-24T15:13:36Z</time>
      </trkpt>
      <trkpt lat="49.84787" lon="2.46105">
        <ele>108.1</ele>
        <time>2024-01-24T15:13:37Z</time>
      </trkpt>
      <trkpt lat="49.84786" lon="2.46105">
        <ele>108.1</ele>
        <time>2024-01-24T15:13:38Z</time>
      </trkpt>
      <trkpt lat="49.84784" lon="2.46104">
        <ele>108.1</ele>
        <time>2024-01-24T15:13:39Z</time>
      </trkpt>
      <trkpt lat="49.84783" lon="2.46104">
        <ele>108.1</ele>
        <time>2024-01-24T15:13:40Z</time>
      </trkpt>
      <trkpt lat="49.84781" lon="2.46103">
        <ele>108.1</ele>
        <time>2024-01-24T15:13:41Z</time>
      </trkpt>
      <trkpt lat="49.8478" lon="2.46103">
        <ele>108.1</ele>
        <time>2024-01-24T15:13:42Z</time>
      </trkpt>
      <trkpt lat="49.84778" lon="2.46103">
        <ele>108.1</ele>
        <time>2024-01-24T15:13:43Z</time>
      </trkpt>
      <trkpt lat="49.84777" lon="2.46103">
        <ele>108.1</ele>
        <time>2024-01-24T15:13:44Z</time>
      </trkpt>
      <trkpt lat="49.84775" lon="2.46103">
        <ele>108</ele>
        <time>2024-01-24T15:13:46Z</time>
      </trkpt>
      <trkpt lat="49.84774" lon="2.46103">
        <ele>108</ele>
        <time>2024-01-24T15:13:47Z</time>
      </trkpt>
      <trkpt lat="49.84773" lon="2.46103">
        <ele>108</ele>
        <time>2024-01-24T15:13:48Z</time>
      </trkpt>
      <trkpt lat="49.84772" lon="2.46102">
        <ele>108</ele>
        <time>2024-01-24T15:13:49Z</time>
      </trkpt>
      <trkpt lat="49.8477" lon="2.46102">
        <ele>108</ele>
        <time>2024-01-24T15:13:51Z</time>
      </trkpt>
      <trkpt lat="49.84769" lon="2.46102">
        <ele>108</ele>
        <time>2024-01-24T15:13:52Z</time>
      </trkpt>
      <trkpt lat="49.84767" lon="2.46102">
        <ele>108</ele>
        <time>2024-01-24T15:13:53Z</time>
      </trkpt>
      <trkpt lat="49.84766" lon="2.46102">
        <ele>108</ele>
        <time>2024-01-24T15:13:54Z</time>
      </trkpt>
      <trkpt lat="49.84764" lon="2.46101">
        <ele>108</ele>
        <time>2024-01-24T15:13:55Z</time>
      </trkpt>
      <trkpt lat="49.84763" lon="2.46101">
        <ele>108</ele>
        <time>2024-01-24T15:13:56Z</time>
      </trkpt>
      <trkpt lat="49.84761" lon="2.46101">
        <ele>108</ele>
        <time>2024-01-24T15:13:57Z</time>
      </trkpt>
      <trkpt lat="49.8476" lon="2.46101">
        <ele>107.9</ele>
        <time>2024-01-24T15:13:58Z</time>
      </trkpt>
      <trkpt lat="49.84759" lon="2.461">
        <ele>107.9</ele>
        <time>2024-01-24T15:14:00Z</time>
      </trkpt>
      <trkpt lat="49.84757" lon="2.461">
        <ele>107.9</ele>
        <time>2024-01-24T15:14:01Z</time>
      </trkpt>
      <trkpt lat="49.84756" lon="2.461">
        <ele>107.9</ele>
        <time>2024-01-24T15:14:02Z</time>
      </trkpt>
      <trkpt lat="49.84754" lon="2.461">
        <ele>107.9</ele>
        <time>2024-01-24T15:14:03Z</time>
      </trkpt>
      <trkpt lat="49.84753" lon="2.461">
        <ele>107.9</ele>
        <time>2024-01-24T15:14:04Z</time>
      </trkpt>
      <trkpt lat="49.84752" lon="2.461">
        <ele>107.9</ele>
        <time>2024-01-24T15:14:05Z</time>
      </trkpt>
      <trkpt lat="49.84751" lon="2.461">
        <ele>107.9</ele>
        <time>2024-01-24T15:14:06Z</time>
      </trkpt>
      <trkpt lat="49.8475" lon="2.461">
        <ele>107.9</ele>
        <time>2024-01-24T15:14:07Z</time>
      </trkpt>
      <trkpt lat="49.84748" lon="2.461">
        <ele>107.9</ele>
        <time>2024-01-24T15:14:09Z</time>
      </trkpt>
      <trkpt lat="49.84746" lon="2.461">
        <ele>107.9</ele>
        <time>2024-01-24T15:14:10Z</time>
      </trkpt>
      <trkpt lat="49.84745" lon="2.46099">
        <ele>107.9</ele>
        <time>2024-01-24T15:14:11Z</time>
      </trkpt>
      <trkpt lat="49.84744" lon="2.46099">
        <ele>107.9</ele>
        <time>2024-01-24T15:14:12Z</time>
      </trkpt>
      <trkpt lat="49.84743" lon="2.46099">
        <ele>107.9</ele>
        <time>2024-01-24T15:14:13Z</time>
      </trkpt>
      <trkpt lat="49.84741" lon="2.46099">
        <ele>107.9</ele>
        <time>2024-01-24T15:14:14Z</time>
      </trkpt>
      <trkpt lat="49.8474" lon="2.46099">
        <ele>107.8</ele>
        <time>2024-01-24T15:14:15Z</time>
      </trkpt>
      <trkpt lat="49.84738" lon="2.46098">
        <ele>107.8</ele>
        <time>2024-01-24T15:14:17Z</time>
      </trkpt>
      <trkpt lat="49.84737" lon="2.46098">
        <ele>107.8</ele>
        <time>2024-01-24T15:14:18Z</time>
      </trkpt>
      <trkpt lat="49.84735" lon="2.46098">
        <ele>107.8</ele>
        <time>2024-01-24T15:14:19Z</time>
      </trkpt>
      <trkpt lat="49.84734" lon="2.46098">
        <ele>107.8</ele>
        <time>2024-01-24T15:14:20Z</time>
      </trkpt>
      <trkpt lat="49.84733" lon="2.46099">
        <ele>107.8</ele>
        <time>2024-01-24T15:14:21Z</time>
      </trkpt>
      <trkpt lat="49.84731" lon="2.46099">
        <ele>107.8</ele>
        <time>2024-01-24T15:14:22Z</time>
      </trkpt>
      <trkpt lat="49.8473" lon="2.46099">
        <ele>107.8</ele>
        <time>2024-01-24T15:14:23Z</time>
      </trkpt>
      <trkpt lat="49.84729" lon="2.461">
        <ele>107.8</ele>
        <time>2024-01-24T15:14:24Z</time>
      </trkpt>
      <trkpt lat="49.84727" lon="2.461">
        <ele>107.8</ele>
        <time>2024-01-24T15:14:25Z</time>
      </trkpt>
      <trkpt lat="49.84725" lon="2.46101">
        <ele>107.8</ele>
        <time>2024-01-24T15:14:26Z</time>
      </trkpt>
      <trkpt lat="49.84724" lon="2.46101">
        <ele>107.8</ele>
        <time>2024-01-24T15:14:28Z</time>
      </trkpt>
      <trkpt lat="49.84723" lon="2.46101">
        <ele>107.8</ele>
        <time>2024-01-24T15:14:29Z</time>
      </trkpt>
      <trkpt lat="49.84722" lon="2.46102">
        <ele>107.8</ele>
        <time>2024-01-24T15:14:30Z</time>
      </trkpt>
      <trkpt lat="49.84721" lon="2.46102">
        <ele>107.8</ele>
        <time>2024-01-24T15:14:31Z</time>
      </trkpt>
      <trkpt lat="49.8472" lon="2.46103">
        <ele>107.8</ele>
        <time>2024-01-24T15:14:32Z</time>
      </trkpt>
      <trkpt lat="49.84718" lon="2.46103">
        <ele>107.8</ele>
        <time>2024-01-24T15:14:33Z</time>
      </trkpt>
      <trkpt lat="49.84716" lon="2.46104">
        <ele>107.8</ele>
        <time>2024-01-24T15:14:34Z</time>
      </trkpt>
      <trkpt lat="49.84714" lon="2.46104">
        <ele>107.8</ele>
        <time>2024-01-24T15:14:36Z</time>
      </trkpt>
      <trkpt lat="49.84713" lon="2.46105">
        <ele>107.8</ele>
        <time>2024-01-24T15:14:37Z</time>
      </trkpt>
      <trkpt lat="49.84712" lon="2.46105">
        <ele>107.8</ele>
        <time>2024-01-24T15:14:38Z</time>
      </trkpt>
      <trkpt lat="49.84711" lon="2.46105">
        <ele>107.8</ele>
        <time>2024-01-24T15:14:39Z</time>
      </trkpt>
      <trkpt lat="49.8471" lon="2.46106">
        <ele>107.8</ele>
        <time>2024-01-24T15:14:40Z</time>
      </trkpt>
      <trkpt lat="49.84709" lon="2.46106">
        <ele>107.8</ele>
        <time>2024-01-24T15:14:41Z</time>
      </trkpt>
      <trkpt lat="49.84708" lon="2.46107">
        <ele>107.8</ele>
        <time>2024-01-24T15:14:42Z</time>
      </trkpt>
      <trkpt lat="49.84707" lon="2.46109">
        <ele>107.8</ele>
        <time>2024-01-24T15:14:44Z</time>
      </trkpt>
      <trkpt lat="49.84707" lon="2.4611">
        <ele>107.8</ele>
        <time>2024-01-24T15:14:45Z</time>
      </trkpt>
      <trkpt lat="49.84708" lon="2.46111">
        <ele>107.8</ele>
        <time>2024-01-24T15:14:47Z</time>
      </trkpt>
      <trkpt lat="49.84708" lon="2.46111">
        <ele>107.8</ele>
        <time>2024-01-24T15:14:48Z</time>
      </trkpt>
      <trkpt lat="49.84708" lon="2.46111">
        <ele>107.8</ele>
        <time>2024-01-24T15:14:49Z</time>
      </trkpt>
      <trkpt lat="49.84709" lon="2.46111">
        <ele>107.7</ele>
        <time>2024-01-24T15:14:51Z</time>
      </trkpt>
      <trkpt lat="49.84709" lon="2.46111">
        <ele>107.7</ele>
        <time>2024-01-24T15:14:52Z</time>
      </trkpt>
      <trkpt lat="49.84709" lon="2.46111">
        <ele>107.7</ele>
        <time>2024-01-24T15:14:54Z</time>
      </trkpt>
      <trkpt lat="49.84709" lon="2.46111">
        <ele>107.7</ele>
        <time>2024-01-24T15:14:55Z</time>
      </trkpt>
      <trkpt lat="49.84709" lon="2.46111">
        <ele>107.7</ele>
        <time>2024-01-24T15:14:56Z</time>
      </trkpt>
      <trkpt lat="49.84709" lon="2.46111">
        <ele>107.7</ele>
        <time>2024-01-24T15:14:58Z</time>
      </trkpt>
      <trkpt lat="49.84709" lon="2.46111">
        <ele>107.7</ele>
        <time>2024-01-24T15:14:59Z</time>
      </trkpt>
      <trkpt lat="49.84709" lon="2.46111">
        <ele>107.7</ele>
        <time>2024-01-24T15:15:01Z</time>
      </trkpt>
      <trkpt lat="49.84709" lon="2.46111">
        <ele>107.7</ele>
        <time>2024-01-24T15:15:02Z</time>
      </trkpt>
      <trkpt lat="49.84709" lon="2.46105">
        <ele>107.7</ele>
        <time>2024-01-24T15:16:39Z</time>
      </trkpt>
      <trkpt lat="49.84708" lon="2.46105">
        <ele>107.7</ele>
        <time>2024-01-24T15:16:40Z</time>
      </trkpt>
      <trkpt lat="49.84707" lon="2.46105">
        <ele>107.7</ele>
        <time>2024-01-24T15:16:41Z</time>
      </trkpt>
      <trkpt lat="49.84706" lon="2.46104">
        <ele>107.7</ele>
        <time>2024-01-24T15:16:43Z</time>
      </trkpt>
      <trkpt lat="49.84705" lon="2.46104">
        <ele>107.7</ele>
        <time>2024-01-24T15:16:44Z</time>
      </trkpt>
      <trkpt lat="49.84703" lon="2.46104">
        <ele>107.7</ele>
        <time>2024-01-24T15:16:45Z</time>
      </trkpt>
      <trkpt lat="49.84701" lon="2.46104">
        <ele>107.7</ele>
        <time>2024-01-24T15:16:46Z</time>
      </trkpt>
      <trkpt lat="49.847" lon="2.46104">
        <ele>107.7</ele>
        <time>2024-01-24T15:16:47Z</time>
      </trkpt>
      <trkpt lat="49.84697" lon="2.46104">
        <ele>107.6</ele>
        <time>2024-01-24T15:16:48Z</time>
      </trkpt>
      <trkpt lat="49.84696" lon="2.46104">
        <ele>107.6</ele>
        <time>2024-01-24T15:16:49Z</time>
      </trkpt>
      <trkpt lat="49.84694" lon="2.46103">
        <ele>107.6</ele>
        <time>2024-01-24T15:16:51Z</time>
      </trkpt>
      <trkpt lat="49.84693" lon="2.46103">
        <ele>107.6</ele>
        <time>2024-01-24T15:16:52Z</time>
      </trkpt>
      <trkpt lat="49.84691" lon="2.46102">
        <ele>107.6</ele>
        <time>2024-01-24T15:16:53Z</time>
      </trkpt>
      <trkpt lat="49.8469" lon="2.46102">
        <ele>107.5</ele>
        <time>2024-01-24T15:16:54Z</time>
      </trkpt>
      <trkpt lat="49.84688" lon="2.46102">
        <ele>107.5</ele>
        <time>2024-01-24T15:16:55Z</time>
      </trkpt>
      <trkpt lat="49.84687" lon="2.46102">
        <ele>107.5</ele>
        <time>2024-01-24T15:16:56Z</time>
      </trkpt>
      <trkpt lat="49.84685" lon="2.46102">
        <ele>107.5</ele>
        <time>2024-01-24T15:16:58Z</time>
      </trkpt>
      <trkpt lat="49.84684" lon="2.46101">
        <ele>107.5</ele>
        <time>2024-01-24T15:16:59Z</time>
      </trkpt>
      <trkpt lat="49.84682" lon="2.461">
        <ele>107.4</ele>
        <time>2024-01-24T15:17:00Z</time>
      </trkpt>
      <trkpt lat="49.84681" lon="2.46099">
        <ele>107.4</ele>
        <time>2024-01-24T15:17:01Z</time>
      </trkpt>
      <trkpt lat="49.8468" lon="2.46099">
        <ele>107.4</ele>
        <time>2024-01-24T15:17:02Z</time>
      </trkpt>
      <trkpt lat="49.84678" lon="2.46099">
        <ele>107.4</ele>
        <time>2024-01-24T15:17:03Z</time>
      </trkpt>
      <trkpt lat="49.84677" lon="2.46099">
        <ele>107.4</ele>
        <time>2024-01-24T15:17:04Z</time>
      </trkpt>
      <trkpt lat="49.84675" lon="2.46098">
        <ele>107.3</ele>
        <time>2024-01-24T15:17:06Z</time>
      </trkpt>
      <trkpt lat="49.84674" lon="2.46098">
        <ele>107.3</ele>
        <time>2024-01-24T15:17:07Z</time>
      </trkpt>
      <trkpt lat="49.84673" lon="2.46098">
        <ele>107.3</ele>
        <time>2024-01-24T15:17:08Z</time>
      </trkpt>
      <trkpt lat="49.84672" lon="2.46098">
        <ele>107.3</ele>
        <time>2024-01-24T15:17:09Z</time>
      </trkpt>
      <trkpt lat="49.8467" lon="2.46099">
        <ele>107.3</ele>
        <time>2024-01-24T15:17:10Z</time>
      </trkpt>
      <trkpt lat="49.84669" lon="2.461">
        <ele>107.2</ele>
        <time>2024-01-24T15:17:11Z</time>
      </trkpt>
      <trkpt lat="49.84668" lon="2.461">
        <ele>107.2</ele>
        <time>2024-01-24T15:17:12Z</time>
      </trkpt>
      <trkpt lat="49.84667" lon="2.46101">
        <ele>107.2</ele>
        <time>2024-01-24T15:17:13Z</time>
      </trkpt>
      <trkpt lat="49.84665" lon="2.46102">
        <ele>107.2</ele>
        <time>2024-01-24T15:17:14Z</time>
      </trkpt>
      <trkpt lat="49.84664" lon="2.46102">
        <ele>107.2</ele>
        <time>2024-01-24T15:17:16Z</time>
      </trkpt>
      <trkpt lat="49.84662" lon="2.46103">
        <ele>107.1</ele>
        <time>2024-01-24T15:17:17Z</time>
      </trkpt>
      <trkpt lat="49.84662" lon="2.46103">
        <ele>107.1</ele>
        <time>2024-01-24T15:17:18Z</time>
      </trkpt>
      <trkpt lat="49.84661" lon="2.46104">
        <ele>107.1</ele>
        <time>2024-01-24T15:17:19Z</time>
      </trkpt>
      <trkpt lat="49.84659" lon="2.46104">
        <ele>107.1</ele>
        <time>2024-01-24T15:17:20Z</time>
      </trkpt>
      <trkpt lat="49.84658" lon="2.46104">
        <ele>107.1</ele>
        <time>2024-01-24T15:17:21Z</time>
      </trkpt>
      <trkpt lat="49.84656" lon="2.46104">
        <ele>107.1</ele>
        <time>2024-01-24T15:17:23Z</time>
      </trkpt>
      <trkpt lat="49.84655" lon="2.46105">
        <ele>107</ele>
        <time>2024-01-24T15:17:24Z</time>
      </trkpt>
      <trkpt lat="49.84653" lon="2.46105">
        <ele>107</ele>
        <time>2024-01-24T15:17:25Z</time>
      </trkpt>
      <trkpt lat="49.84652" lon="2.46105">
        <ele>107</ele>
        <time>2024-01-24T15:17:26Z</time>
      </trkpt>
      <trkpt lat="49.8465" lon="2.46105">
        <ele>107</ele>
        <time>2024-01-24T15:17:27Z</time>
      </trkpt>
      <trkpt lat="49.84649" lon="2.46104">
        <ele>107</ele>
        <time>2024-01-24T15:17:28Z</time>
      </trkpt>
      <trkpt lat="49.84648" lon="2.46104">
        <ele>106.9</ele>
        <time>2024-01-24T15:17:29Z</time>
      </trkpt>
      <trkpt lat="49.84647" lon="2.46104">
        <ele>106.9</ele>
        <time>2024-01-24T15:17:30Z</time>
      </trkpt>
      <trkpt lat="49.84646" lon="2.46104">
        <ele>106.9</ele>
        <time>2024-01-24T15:17:31Z</time>
      </trkpt>
      <trkpt lat="49.84645" lon="2.46103">
        <ele>106.9</ele>
        <time>2024-01-24T15:17:32Z</time>
      </trkpt>
      <trkpt lat="49.84644" lon="2.46103">
        <ele>106.9</ele>
        <time>2024-01-24T15:17:33Z</time>
      </trkpt>
      <trkpt lat="49.84642" lon="2.46103">
        <ele>106.9</ele>
        <time>2024-01-24T15:17:34Z</time>
      </trkpt>
      <trkpt lat="49.84641" lon="2.46103">
        <ele>106.8</ele>
        <time>2024-01-24T15:17:36Z</time>
      </trkpt>
      <trkpt lat="49.84639" lon="2.46102">
        <ele>106.8</ele>
        <time>2024-01-24T15:17:37Z</time>
      </trkpt>
      <trkpt lat="49.84638" lon="2.46102">
        <ele>106.8</ele>
        <time>2024-01-24T15:17:38Z</time>
      </trkpt>
      <trkpt lat="49.84637" lon="2.46102">
        <ele>106.8</ele>
        <time>2024-01-24T15:17:39Z</time>
      </trkpt>
      <trkpt lat="49.84636" lon="2.46101">
        <ele>106.8</ele>
        <time>2024-01-24T15:17:40Z</time>
      </trkpt>
      <trkpt lat="49.84634" lon="2.46101">
        <ele>106.7</ele>
        <time>2024-01-24T15:17:41Z</time>
      </trkpt>
      <trkpt lat="49.84632" lon="2.461">
        <ele>106.7</ele>
        <time>2024-01-24T15:17:43Z</time>
      </trkpt>
      <trkpt lat="49.84631" lon="2.461">
        <ele>106.7</ele>
        <time>2024-01-24T15:17:45Z</time>
      </trkpt>
      <trkpt lat="49.84629" lon="2.461">
        <ele>106.7</ele>
        <time>2024-01-24T15:17:47Z</time>
      </trkpt>
      <trkpt lat="49.84628" lon="2.461">
        <ele>106.7</ele>
        <time>2024-01-24T15:17:48Z</time>
      </trkpt>
      <trkpt lat="49.84626" lon="2.461">
        <ele>106.6</ele>
        <time>2024-01-24T15:17:49Z</time>
      </trkpt>
      <trkpt lat="49.84625" lon="2.461">
        <ele>106.6</ele>
        <time>2024-01-24T15:17:50Z</time>
      </trkpt>
      <trkpt lat="49.84623" lon="2.461">
        <ele>106.6</ele>
        <time>2024-01-24T15:17:51Z</time>
      </trkpt>
      <trkpt lat="49.84622" lon="2.461">
        <ele>106.6</ele>
        <time>2024-01-24T15:17:52Z</time>
      </trkpt>
      <trkpt lat="49.8462" lon="2.461">
        <ele>106.6</ele>
        <time>2024-01-24T15:17:54Z</time>
      </trkpt>
      <trkpt lat="49.84619" lon="2.46101">
        <ele>106.5</ele>
        <time>2024-01-24T15:17:55Z</time>
      </trkpt>
      <trkpt lat="49.84617" lon="2.46101">
        <ele>106.5</ele>
        <time>2024-01-24T15:17:56Z</time>
      </trkpt>
      <trkpt lat="49.84616" lon="2.46101">
        <ele>106.5</ele>
        <time>2024-01-24T15:17:57Z</time>
      </trkpt>
      <trkpt lat="49.84614" lon="2.46101">
        <ele>106.5</ele>
        <time>2024-01-24T15:17:58Z</time>
      </trkpt>
      <trkpt lat="49.84612" lon="2.46101">
        <ele>106.4</ele>
        <time>2024-01-24T15:17:59Z</time>
      </trkpt>
      <trkpt lat="49.84611" lon="2.46101">
        <ele>106.4</ele>
        <time>2024-01-24T15:18:00Z</time>
      </trkpt>
      <trkpt lat="49.84611" lon="2.46101">
        <ele>106.4</ele>
        <time>2024-01-24T15:18:01Z</time>
      </trkpt>
      <trkpt lat="49.84609" lon="2.461">
        <ele>106.4</ele>
        <time>2024-01-24T15:18:02Z</time>
      </trkpt>
      <trkpt lat="49.84608" lon="2.461">
        <ele>106.4</ele>
        <time>2024-01-24T15:18:03Z</time>
      </trkpt>
      <trkpt lat="49.84607" lon="2.461">
        <ele>106.4</ele>
        <time>2024-01-24T15:18:05Z</time>
      </trkpt>
      <trkpt lat="49.84605" lon="2.461">
        <ele>106.3</ele>
        <time>2024-01-24T15:18:06Z</time>
      </trkpt>
      <trkpt lat="49.84604" lon="2.46099">
        <ele>106.3</ele>
        <time>2024-01-24T15:18:07Z</time>
      </trkpt>
      <trkpt lat="49.84603" lon="2.46099">
        <ele>106.3</ele>
        <time>2024-01-24T15:18:08Z</time>
      </trkpt>
      <trkpt lat="49.84601" lon="2.46099">
        <ele>106.3</ele>
        <time>2024-01-24T15:18:09Z</time>
      </trkpt>
      <trkpt lat="49.846" lon="2.46099">
        <ele>106.3</ele>
        <time>2024-01-24T15:18:11Z</time>
      </trkpt>
      <trkpt lat="49.84598" lon="2.46099">
        <ele>106.2</ele>
        <time>2024-01-24T15:18:12Z</time>
      </trkpt>
      <trkpt lat="49.84596" lon="2.46098">
        <ele>106.2</ele>
        <time>2024-01-24T15:18:13Z</time>
      </trkpt>
      <trkpt lat="49.84595" lon="2.46098">
        <ele>106.2</ele>
        <time>2024-01-24T15:18:14Z</time>
      </trkpt>
      <trkpt lat="49.84594" lon="2.46098">
        <ele>106.2</ele>
        <time>2024-01-24T15:18:15Z</time>
      </trkpt>
      <trkpt lat="49.84593" lon="2.46098">
        <ele>106.2</ele>
        <time>2024-01-24T15:18:16Z</time>
      </trkpt>
      <trkpt lat="49.84592" lon="2.46097">
        <ele>106.1</ele>
        <time>2024-01-24T15:18:17Z</time>
      </trkpt>
      <trkpt lat="49.84591" lon="2.46097">
        <ele>106.1</ele>
        <time>2024-01-24T15:18:19Z</time>
      </trkpt>
      <trkpt lat="49.84588" lon="2.46097">
        <ele>106.1</ele>
        <time>2024-01-24T15:18:20Z</time>
      </trkpt>
      <trkpt lat="49.84588" lon="2.46097">
        <ele>106</ele>
        <time>2024-01-24T15:18:21Z</time>
      </trkpt>
      <trkpt lat="49.84587" lon="2.46097">
        <ele>106</ele>
        <time>2024-01-24T15:18:22Z</time>
      </trkpt>
      <trkpt lat="49.84585" lon="2.46096">
        <ele>106</ele>
        <time>2024-01-24T15:18:23Z</time>
      </trkpt>
      <trkpt lat="49.84584" lon="2.46096">
        <ele>106</ele>
        <time>2024-01-24T15:18:24Z</time>
      </trkpt>
      <trkpt lat="49.84582" lon="2.46096">
        <ele>105.9</ele>
        <time>2024-01-24T15:18:25Z</time>
      </trkpt>
      <trkpt lat="49.84581" lon="2.46096">
        <ele>105.9</ele>
        <time>2024-01-24T15:18:26Z</time>
      </trkpt>
      <trkpt lat="49.8458" lon="2.46096">
        <ele>105.9</ele>
        <time>2024-01-24T15:18:27Z</time>
      </trkpt>
      <trkpt lat="49.84578" lon="2.46096">
        <ele>105.9</ele>
        <time>2024-01-24T15:18:29Z</time>
      </trkpt>
      <trkpt lat="49.84577" lon="2.46097">
        <ele>105.8</ele>
        <time>2024-01-24T15:18:30Z</time>
      </trkpt>
      <trkpt lat="49.84575" lon="2.46097">
        <ele>105.8</ele>
        <time>2024-01-24T15:18:31Z</time>
      </trkpt>
      <trkpt lat="49.84574" lon="2.46097">
        <ele>105.8</ele>
        <time>2024-01-24T15:18:32Z</time>
      </trkpt>
      <trkpt lat="49.84573" lon="2.46097">
        <ele>105.7</ele>
        <time>2024-01-24T15:18:33Z</time>
      </trkpt>
      <trkpt lat="49.84572" lon="2.46097">
        <ele>105.7</ele>
        <time>2024-01-24T15:18:34Z</time>
      </trkpt>
      <trkpt lat="49.84571" lon="2.46098">
        <ele>105.7</ele>
        <time>2024-01-24T15:18:35Z</time>
      </trkpt>
      <trkpt lat="49.84568" lon="2.46099">
        <ele>105.6</ele>
        <time>2024-01-24T15:18:37Z</time>
      </trkpt>
      <trkpt lat="49.84568" lon="2.46099">
        <ele>105.6</ele>
        <time>2024-01-24T15:18:38Z</time>
      </trkpt>
      <trkpt lat="49.84567" lon="2.46099">
        <ele>105.6</ele>
        <time>2024-01-24T15:18:39Z</time>
      </trkpt>
      <trkpt lat="49.84566" lon="2.461">
        <ele>105.6</ele>
        <time>2024-01-24T15:18:40Z</time>
      </trkpt>
      <trkpt lat="49.84565" lon="2.46101">
        <ele>105.6</ele>
        <time>2024-01-24T15:18:41Z</time>
      </trkpt>
      <trkpt lat="49.84564" lon="2.46101">
        <ele>105.5</ele>
        <time>2024-01-24T15:18:42Z</time>
      </trkpt>
      <trkpt lat="49.84563" lon="2.46102">
        <ele>105.5</ele>
        <time>2024-01-24T15:18:43Z</time>
      </trkpt>
      <trkpt lat="49.84561" lon="2.46103">
        <ele>105.5</ele>
        <time>2024-01-24T15:18:44Z</time>
      </trkpt>
      <trkpt lat="49.84561" lon="2.46103">
        <ele>105.5</ele>
        <time>2024-01-24T15:18:45Z</time>
      </trkpt>
      <trkpt lat="49.84558" lon="2.46104">
        <ele>105.5</ele>
        <time>2024-01-24T15:18:47Z</time>
      </trkpt>
      <trkpt lat="49.84558" lon="2.46104">
        <ele>105.5</ele>
        <time>2024-01-24T15:18:48Z</time>
      </trkpt>
      <trkpt lat="49.84557" lon="2.46104">
        <ele>105.5</ele>
        <time>2024-01-24T15:18:49Z</time>
      </trkpt>
      <trkpt lat="49.84556" lon="2.46104">
        <ele>105.5</ele>
        <time>2024-01-24T15:18:50Z</time>
      </trkpt>
      <trkpt lat="49.84555" lon="2.46104">
        <ele>105.4</ele>
        <time>2024-01-24T15:18:51Z</time>
      </trkpt>
      <trkpt lat="49.84554" lon="2.46104">
        <ele>105.4</ele>
        <time>2024-01-24T15:18:52Z</time>
      </trkpt>
      <trkpt lat="49.84553" lon="2.46103">
        <ele>105.4</ele>
        <time>2024-01-24T15:18:53Z</time>
      </trkpt>
      <trkpt lat="49.84552" lon="2.46103">
        <ele>105.4</ele>
        <time>2024-01-24T15:18:54Z</time>
      </trkpt>
      <trkpt lat="49.8455" lon="2.46103">
        <ele>105.4</ele>
        <time>2024-01-24T15:18:56Z</time>
      </trkpt>
      <trkpt lat="49.84549" lon="2.46103">
        <ele>105.3</ele>
        <time>2024-01-24T15:18:57Z</time>
      </trkpt>
      <trkpt lat="49.84548" lon="2.46102">
        <ele>105.3</ele>
        <time>2024-01-24T15:18:58Z</time>
      </trkpt>
      <trkpt lat="49.84546" lon="2.46102">
        <ele>105.2</ele>
        <time>2024-01-24T15:18:59Z</time>
      </trkpt>
      <trkpt lat="49.84545" lon="2.46101">
        <ele>105.2</ele>
        <time>2024-01-24T15:19:00Z</time>
      </trkpt>
      <trkpt lat="49.84543" lon="2.46101">
        <ele>105.2</ele>
        <time>2024-01-24T15:19:02Z</time>
      </trkpt>
      <trkpt lat="49.84542" lon="2.46101">
        <ele>105.1</ele>
        <time>2024-01-24T15:19:03Z</time>
      </trkpt>
      <trkpt lat="49.84541" lon="2.46101">
        <ele>105.1</ele>
        <time>2024-01-24T15:19:04Z</time>
      </trkpt>
      <trkpt lat="49.84539" lon="2.46101">
        <ele>105</ele>
        <time>2024-01-24T15:19:05Z</time>
      </trkpt>
      <trkpt lat="49.84537" lon="2.46101">
        <ele>105</ele>
        <time>2024-01-24T15:19:06Z</time>
      </trkpt>
      <trkpt lat="49.84536" lon="2.46101">
        <ele>105</ele>
        <time>2024-01-24T15:19:08Z</time>
      </trkpt>
      <trkpt lat="49.84534" lon="2.46101">
        <ele>104.9</ele>
        <time>2024-01-24T15:19:09Z</time>
      </trkpt>
      <trkpt lat="49.84533" lon="2.461">
        <ele>104.9</ele>
        <time>2024-01-24T15:19:10Z</time>
      </trkpt>
      <trkpt lat="49.84532" lon="2.46099">
        <ele>104.9</ele>
        <time>2024-01-24T15:19:11Z</time>
      </trkpt>
      <trkpt lat="49.84531" lon="2.46099">
        <ele>104.9</ele>
        <time>2024-01-24T15:19:12Z</time>
      </trkpt>
      <trkpt lat="49.8453" lon="2.46098">
        <ele>104.8</ele>
        <time>2024-01-24T15:19:13Z</time>
      </trkpt>
      <trkpt lat="49.84529" lon="2.46097">
        <ele>104.8</ele>
        <time>2024-01-24T15:19:14Z</time>
      </trkpt>
      <trkpt lat="49.84528" lon="2.46097">
        <ele>104.8</ele>
        <time>2024-01-24T15:19:15Z</time>
      </trkpt>
      <trkpt lat="49.84527" lon="2.46097">
        <ele>104.8</ele>
        <time>2024-01-24T15:19:16Z</time>
      </trkpt>
      <trkpt lat="49.84525" lon="2.46096">
        <ele>104.7</ele>
        <time>2024-01-24T15:19:18Z</time>
      </trkpt>
      <trkpt lat="49.84523" lon="2.46095">
        <ele>104.7</ele>
        <time>2024-01-24T15:19:19Z</time>
      </trkpt>
      <trkpt lat="49.84522" lon="2.46094">
        <ele>104.7</ele>
        <time>2024-01-24T15:19:20Z</time>
      </trkpt>
      <trkpt lat="49.84521" lon="2.46094">
        <ele>104.6</ele>
        <time>2024-01-24T15:19:21Z</time>
      </trkpt>
      <trkpt lat="49.8452" lon="2.46093">
        <ele>104.6</ele>
        <time>2024-01-24T15:19:22Z</time>
      </trkpt>
      <trkpt lat="49.84518" lon="2.46092">
        <ele>104.6</ele>
        <time>2024-01-24T15:19:23Z</time>
      </trkpt>
      <trkpt lat="49.84517" lon="2.46091">
        <ele>104.6</ele>
        <time>2024-01-24T15:19:25Z</time>
      </trkpt>
      <trkpt lat="49.84515" lon="2.4609">
        <ele>104.5</ele>
        <time>2024-01-24T15:19:26Z</time>
      </trkpt>
      <trkpt lat="49.84514" lon="2.46089">
        <ele>104.5</ele>
        <time>2024-01-24T15:19:27Z</time>
      </trkpt>
      <trkpt lat="49.84513" lon="2.46087">
        <ele>104.5</ele>
        <time>2024-01-24T15:19:28Z</time>
      </trkpt>
      <trkpt lat="49.84512" lon="2.46086">
        <ele>104.5</ele>
        <time>2024-01-24T15:19:29Z</time>
      </trkpt>
      <trkpt lat="49.8451" lon="2.46084">
        <ele>104.5</ele>
        <time>2024-01-24T15:19:31Z</time>
      </trkpt>
      <trkpt lat="49.84509" lon="2.46083">
        <ele>104.4</ele>
        <time>2024-01-24T15:19:32Z</time>
      </trkpt>
      <trkpt lat="49.84508" lon="2.46081">
        <ele>104.4</ele>
        <time>2024-01-24T15:19:33Z</time>
      </trkpt>
      <trkpt lat="49.84507" lon="2.4608">
        <ele>104.4</ele>
        <time>2024-01-24T15:19:34Z</time>
      </trkpt>
      <trkpt lat="49.84506" lon="2.46078">
        <ele>104.4</ele>
        <time>2024-01-24T15:19:35Z</time>
      </trkpt>
      <trkpt lat="49.84505" lon="2.46076">
        <ele>104.4</ele>
        <time>2024-01-24T15:19:36Z</time>
      </trkpt>
      <trkpt lat="49.84505" lon="2.46074">
        <ele>104.4</ele>
        <time>2024-01-24T15:19:37Z</time>
      </trkpt>
      <trkpt lat="49.84504" lon="2.46072">
        <ele>104.4</ele>
        <time>2024-01-24T15:19:38Z</time>
      </trkpt>
      <trkpt lat="49.84503" lon="2.4607">
        <ele>104.4</ele>
        <time>2024-01-24T15:19:39Z</time>
      </trkpt>
      <trkpt lat="49.84502" lon="2.46068">
        <ele>104.3</ele>
        <time>2024-01-24T15:19:41Z</time>
      </trkpt>
      <trkpt lat="49.84501" lon="2.46066">
        <ele>104.3</ele>
        <time>2024-01-24T15:19:42Z</time>
      </trkpt>
      <trkpt lat="49.845" lon="2.46064">
        <ele>104.3</ele>
        <time>2024-01-24T15:19:43Z</time>
      </trkpt>
      <trkpt lat="49.845" lon="2.46062">
        <ele>104.3</ele>
        <time>2024-01-24T15:19:44Z</time>
      </trkpt>
      <trkpt lat="49.84499" lon="2.4606">
        <ele>104.3</ele>
        <time>2024-01-24T15:19:45Z</time>
      </trkpt>
      <trkpt lat="49.84499" lon="2.46058">
        <ele>104.3</ele>
        <time>2024-01-24T15:19:46Z</time>
      </trkpt>
      <trkpt lat="49.84498" lon="2.46057">
        <ele>104.3</ele>
        <time>2024-01-24T15:19:47Z</time>
      </trkpt>
      <trkpt lat="49.84497" lon="2.46054">
        <ele>104.3</ele>
        <time>2024-01-24T15:19:48Z</time>
      </trkpt>
      <trkpt lat="49.84496" lon="2.46052">
        <ele>104.3</ele>
        <time>2024-01-24T15:19:50Z</time>
      </trkpt>
      <trkpt lat="49.84496" lon="2.46051">
        <ele>104.3</ele>
        <time>2024-01-24T15:19:51Z</time>
      </trkpt>
      <trkpt lat="49.84495" lon="2.46049">
        <ele>104.2</ele>
        <time>2024-01-24T15:19:52Z</time>
      </trkpt>
      <trkpt lat="49.84494" lon="2.46047">
        <ele>104.2</ele>
        <time>2024-01-24T15:19:53Z</time>
      </trkpt>
      <trkpt lat="49.84494" lon="2.46045">
        <ele>104.2</ele>
        <time>2024-01-24T15:19:54Z</time>
      </trkpt>
      <trkpt lat="49.84493" lon="2.46043">
        <ele>104.2</ele>
        <time>2024-01-24T15:19:55Z</time>
      </trkpt>
      <trkpt lat="49.84493" lon="2.46041">
        <ele>104.2</ele>
        <time>2024-01-24T15:19:57Z</time>
      </trkpt>
      <trkpt lat="49.84492" lon="2.46039">
        <ele>104.2</ele>
        <time>2024-01-24T15:19:58Z</time>
      </trkpt>
      <trkpt lat="49.84492" lon="2.46036">
        <ele>104.2</ele>
        <time>2024-01-24T15:19:59Z</time>
      </trkpt>
      <trkpt lat="49.84491" lon="2.46034">
        <ele>104.2</ele>
        <time>2024-01-24T15:20:00Z</time>
      </trkpt>
      <trkpt lat="49.84491" lon="2.46032">
        <ele>104.2</ele>
        <time>2024-01-24T15:20:01Z</time>
      </trkpt>
      <trkpt lat="49.8449" lon="2.4603">
        <ele>104.2</ele>
        <time>2024-01-24T15:20:02Z</time>
      </trkpt>
      <trkpt lat="49.84489" lon="2.46028">
        <ele>104.2</ele>
        <time>2024-01-24T15:20:03Z</time>
      </trkpt>
      <trkpt lat="49.84488" lon="2.46026">
        <ele>104.2</ele>
        <time>2024-01-24T15:20:05Z</time>
      </trkpt>
      <trkpt lat="49.84487" lon="2.46024">
        <ele>104.2</ele>
        <time>2024-01-24T15:20:06Z</time>
      </trkpt>
      <trkpt lat="49.84486" lon="2.46022">
        <ele>104.2</ele>
        <time>2024-01-24T15:20:07Z</time>
      </trkpt>
      <trkpt lat="49.84486" lon="2.4602">
        <ele>104.2</ele>
        <time>2024-01-24T15:20:08Z</time>
      </trkpt>
      <trkpt lat="49.84485" lon="2.46017">
        <ele>104.2</ele>
        <time>2024-01-24T15:20:09Z</time>
      </trkpt>
      <trkpt lat="49.84484" lon="2.46016">
        <ele>104.2</ele>
        <time>2024-01-24T15:20:11Z</time>
      </trkpt>
      <trkpt lat="49.84484" lon="2.46015">
        <ele>104.2</ele>
        <time>2024-01-24T15:20:12Z</time>
      </trkpt>
      <trkpt lat="49.84483" lon="2.46013">
        <ele>104.2</ele>
        <time>2024-01-24T15:20:13Z</time>
      </trkpt>
      <trkpt lat="49.84482" lon="2.4601">
        <ele>104.2</ele>
        <time>2024-01-24T15:20:14Z</time>
      </trkpt>
      <trkpt lat="49.84482" lon="2.46009">
        <ele>104.2</ele>
        <time>2024-01-24T15:20:15Z</time>
      </trkpt>
      <trkpt lat="49.84481" lon="2.46008">
        <ele>104.2</ele>
        <time>2024-01-24T15:20:16Z</time>
      </trkpt>
      <trkpt lat="49.8448" lon="2.46005">
        <ele>104.2</ele>
        <time>2024-01-24T15:20:17Z</time>
      </trkpt>
      <trkpt lat="49.8448" lon="2.46004">
        <ele>104.2</ele>
        <time>2024-01-24T15:20:18Z</time>
      </trkpt>
      <trkpt lat="49.8448" lon="2.46003">
        <ele>104.2</ele>
        <time>2024-01-24T15:20:19Z</time>
      </trkpt>
      <trkpt lat="49.84478" lon="2.46">
        <ele>104.2</ele>
        <time>2024-01-24T15:20:20Z</time>
      </trkpt>
      <trkpt lat="49.84478" lon="2.45998">
        <ele>104.2</ele>
        <time>2024-01-24T15:20:22Z</time>
      </trkpt>
      <trkpt lat="49.84477" lon="2.45997">
        <ele>104.2</ele>
        <time>2024-01-24T15:20:23Z</time>
      </trkpt>
      <trkpt lat="49.84476" lon="2.45995">
        <ele>104.2</ele>
        <time>2024-01-24T15:20:24Z</time>
      </trkpt>
      <trkpt lat="49.84476" lon="2.45994">
        <ele>104.2</ele>
        <time>2024-01-24T15:20:25Z</time>
      </trkpt>
      <trkpt lat="49.84475" lon="2.45992">
        <ele>104.2</ele>
        <time>2024-01-24T15:20:26Z</time>
      </trkpt>
      <trkpt lat="49.84474" lon="2.4599">
        <ele>104.1</ele>
        <time>2024-01-24T15:20:28Z</time>
      </trkpt>
      <trkpt lat="49.84473" lon="2.45988">
        <ele>104.1</ele>
        <time>2024-01-24T15:20:29Z</time>
      </trkpt>
      <trkpt lat="49.84472" lon="2.45986">
        <ele>104.1</ele>
        <time>2024-01-24T15:20:30Z</time>
      </trkpt>
      <trkpt lat="49.84471" lon="2.45983">
        <ele>104.1</ele>
        <time>2024-01-24T15:20:31Z</time>
      </trkpt>
      <trkpt lat="49.84471" lon="2.45982">
        <ele>104.1</ele>
        <time>2024-01-24T15:20:32Z</time>
      </trkpt>
      <trkpt lat="49.8447" lon="2.45981">
        <ele>104.1</ele>
        <time>2024-01-24T15:20:33Z</time>
      </trkpt>
      <trkpt lat="49.84469" lon="2.45979">
        <ele>104.1</ele>
        <time>2024-01-24T15:20:34Z</time>
      </trkpt>
      <trkpt lat="49.84469" lon="2.45978">
        <ele>104</ele>
        <time>2024-01-24T15:20:35Z</time>
      </trkpt>
      <trkpt lat="49.84468" lon="2.45975">
        <ele>104</ele>
        <time>2024-01-24T15:20:37Z</time>
      </trkpt>
      <trkpt lat="49.84468" lon="2.45974">
        <ele>104</ele>
        <time>2024-01-24T15:20:38Z</time>
      </trkpt>
      <trkpt lat="49.84468" lon="2.45972">
        <ele>104</ele>
        <time>2024-01-24T15:20:40Z</time>
      </trkpt>
      <trkpt lat="49.84467" lon="2.4597">
        <ele>104</ele>
        <time>2024-01-24T15:20:41Z</time>
      </trkpt>
      <trkpt lat="49.84466" lon="2.45967">
        <ele>104</ele>
        <time>2024-01-24T15:20:42Z</time>
      </trkpt>
      <trkpt lat="49.84466" lon="2.45966">
        <ele>104</ele>
        <time>2024-01-24T15:20:43Z</time>
      </trkpt>
      <trkpt lat="49.84466" lon="2.45965">
        <ele>103.9</ele>
        <time>2024-01-24T15:20:44Z</time>
      </trkpt>
      <trkpt lat="49.84466" lon="2.45963">
        <ele>103.9</ele>
        <time>2024-01-24T15:20:45Z</time>
      </trkpt>
      <trkpt lat="49.84465" lon="2.45961">
        <ele>103.9</ele>
        <time>2024-01-24T15:20:47Z</time>
      </trkpt>
      <trkpt lat="49.84465" lon="2.45959">
        <ele>103.9</ele>
        <time>2024-01-24T15:20:48Z</time>
      </trkpt>
      <trkpt lat="49.84464" lon="2.45957">
        <ele>103.9</ele>
        <time>2024-01-24T15:20:49Z</time>
      </trkpt>
      <trkpt lat="49.84463" lon="2.45956">
        <ele>103.9</ele>
        <time>2024-01-24T15:20:50Z</time>
      </trkpt>
      <trkpt lat="49.84463" lon="2.45955">
        <ele>103.9</ele>
        <time>2024-01-24T15:20:51Z</time>
      </trkpt>
      <trkpt lat="49.84462" lon="2.45953">
        <ele>103.9</ele>
        <time>2024-01-24T15:20:53Z</time>
      </trkpt>
      <trkpt lat="49.84462" lon="2.45951">
        <ele>103.8</ele>
        <time>2024-01-24T15:20:54Z</time>
      </trkpt>
      <trkpt lat="49.84461" lon="2.45948">
        <ele>103.8</ele>
        <time>2024-01-24T15:20:55Z</time>
      </trkpt>
      <trkpt lat="49.84461" lon="2.45947">
        <ele>103.8</ele>
        <time>2024-01-24T15:20:56Z</time>
      </trkpt>
      <trkpt lat="49.8446" lon="2.45946">
        <ele>103.8</ele>
        <time>2024-01-24T15:20:57Z</time>
      </trkpt>
      <trkpt lat="49.8446" lon="2.45944">
        <ele>103.8</ele>
        <time>2024-01-24T15:20:58Z</time>
      </trkpt>
      <trkpt lat="49.84459" lon="2.45941">
        <ele>103.8</ele>
        <time>2024-01-24T15:20:59Z</time>
      </trkpt>
      <trkpt lat="49.84458" lon="2.45938">
        <ele>103.7</ele>
        <time>2024-01-24T15:21:00Z</time>
      </trkpt>
      <trkpt lat="49.84458" lon="2.45937">
        <ele>103.7</ele>
        <time>2024-01-24T15:21:01Z</time>
      </trkpt>
      <trkpt lat="49.84458" lon="2.45935">
        <ele>103.7</ele>
        <time>2024-01-24T15:21:02Z</time>
      </trkpt>
      <trkpt lat="49.84457" lon="2.45932">
        <ele>103.7</ele>
        <time>2024-01-24T15:21:04Z</time>
      </trkpt>
      <trkpt lat="49.84457" lon="2.4593">
        <ele>103.7</ele>
        <time>2024-01-24T15:21:05Z</time>
      </trkpt>
      <trkpt lat="49.84456" lon="2.45929">
        <ele>103.7</ele>
        <time>2024-01-24T15:21:06Z</time>
      </trkpt>
      <trkpt lat="49.84456" lon="2.45927">
        <ele>103.7</ele>
        <time>2024-01-24T15:21:07Z</time>
      </trkpt>
      <trkpt lat="49.84456" lon="2.45925">
        <ele>103.7</ele>
        <time>2024-01-24T15:21:08Z</time>
      </trkpt>
      <trkpt lat="49.84456" lon="2.45922">
        <ele>103.7</ele>
        <time>2024-01-24T15:21:09Z</time>
      </trkpt>
      <trkpt lat="49.84456" lon="2.45921">
        <ele>103.6</ele>
        <time>2024-01-24T15:21:10Z</time>
      </trkpt>
      <trkpt lat="49.84456" lon="2.45919">
        <ele>103.6</ele>
        <time>2024-01-24T15:21:11Z</time>
      </trkpt>
      <trkpt lat="49.84456" lon="2.45917">
        <ele>103.6</ele>
        <time>2024-01-24T15:21:13Z</time>
      </trkpt>
      <trkpt lat="49.84456" lon="2.45915">
        <ele>103.6</ele>
        <time>2024-01-24T15:21:14Z</time>
      </trkpt>
      <trkpt lat="49.84456" lon="2.45913">
        <ele>103.6</ele>
        <time>2024-01-24T15:21:15Z</time>
      </trkpt>
      <trkpt lat="49.84456" lon="2.4591">
        <ele>103.6</ele>
        <time>2024-01-24T15:21:16Z</time>
      </trkpt>
      <trkpt lat="49.84456" lon="2.45908">
        <ele>103.6</ele>
        <time>2024-01-24T15:21:17Z</time>
      </trkpt>
      <trkpt lat="49.84456" lon="2.45906">
        <ele>103.6</ele>
        <time>2024-01-24T15:21:18Z</time>
      </trkpt>
      <trkpt lat="49.84456" lon="2.45902">
        <ele>103.6</ele>
        <time>2024-01-24T15:21:19Z</time>
      </trkpt>
      <trkpt lat="49.84455" lon="2.45901">
        <ele>103.6</ele>
        <time>2024-01-24T15:21:20Z</time>
      </trkpt>
      <trkpt lat="49.84455" lon="2.459">
        <ele>103.6</ele>
        <time>2024-01-24T15:21:21Z</time>
      </trkpt>
      <trkpt lat="49.84455" lon="2.45896">
        <ele>103.6</ele>
        <time>2024-01-24T15:21:22Z</time>
      </trkpt>
      <trkpt lat="49.84455" lon="2.45895">
        <ele>103.6</ele>
        <time>2024-01-24T15:21:24Z</time>
      </trkpt>
      <trkpt lat="49.84455" lon="2.45893">
        <ele>103.6</ele>
        <time>2024-01-24T15:21:25Z</time>
      </trkpt>
      <trkpt lat="49.84455" lon="2.4589">
        <ele>103.6</ele>
        <time>2024-01-24T15:21:26Z</time>
      </trkpt>
      <trkpt lat="49.84455" lon="2.45889">
        <ele>103.7</ele>
        <time>2024-01-24T15:21:27Z</time>
      </trkpt>
      <trkpt lat="49.84455" lon="2.45887">
        <ele>103.7</ele>
        <time>2024-01-24T15:21:29Z</time>
      </trkpt>
      <trkpt lat="49.84455" lon="2.45886">
        <ele>103.7</ele>
        <time>2024-01-24T15:21:30Z</time>
      </trkpt>
      <trkpt lat="49.84455" lon="2.45884">
        <ele>103.7</ele>
        <time>2024-01-24T15:21:31Z</time>
      </trkpt>
      <trkpt lat="49.84456" lon="2.45883">
        <ele>103.7</ele>
        <time>2024-01-24T15:21:32Z</time>
      </trkpt>
      <trkpt lat="49.84456" lon="2.4588">
        <ele>103.7</ele>
        <time>2024-01-24T15:21:34Z</time>
      </trkpt>
      <trkpt lat="49.84456" lon="2.45878">
        <ele>103.7</ele>
        <time>2024-01-24T15:21:35Z</time>
      </trkpt>
      <trkpt lat="49.84457" lon="2.45877">
        <ele>103.7</ele>
        <time>2024-01-24T15:21:36Z</time>
      </trkpt>
      <trkpt lat="49.84457" lon="2.45875">
        <ele>103.7</ele>
        <time>2024-01-24T15:21:37Z</time>
      </trkpt>
      <trkpt lat="49.84457" lon="2.45873">
        <ele>103.7</ele>
        <time>2024-01-24T15:21:38Z</time>
      </trkpt>
      <trkpt lat="49.84457" lon="2.4587">
        <ele>103.7</ele>
        <time>2024-01-24T15:21:39Z</time>
      </trkpt>
      <trkpt lat="49.84458" lon="2.45869">
        <ele>103.7</ele>
        <time>2024-01-24T15:21:41Z</time>
      </trkpt>
      <trkpt lat="49.84458" lon="2.45867">
        <ele>103.7</ele>
        <time>2024-01-24T15:21:42Z</time>
      </trkpt>
      <trkpt lat="49.84458" lon="2.45865">
        <ele>103.8</ele>
        <time>2024-01-24T15:21:43Z</time>
      </trkpt>
      <trkpt lat="49.84458" lon="2.45863">
        <ele>103.8</ele>
        <time>2024-01-24T15:21:44Z</time>
      </trkpt>
      <trkpt lat="49.84459" lon="2.45861">
        <ele>103.8</ele>
        <time>2024-01-24T15:21:45Z</time>
      </trkpt>
      <trkpt lat="49.84459" lon="2.45859">
        <ele>103.8</ele>
        <time>2024-01-24T15:21:46Z</time>
      </trkpt>
      <trkpt lat="49.84459" lon="2.45856">
        <ele>103.8</ele>
        <time>2024-01-24T15:21:47Z</time>
      </trkpt>
      <trkpt lat="49.84459" lon="2.45855">
        <ele>103.8</ele>
        <time>2024-01-24T15:21:48Z</time>
      </trkpt>
      <trkpt lat="49.8446" lon="2.45851">
        <ele>103.8</ele>
        <time>2024-01-24T15:21:50Z</time>
      </trkpt>
      <trkpt lat="49.8446" lon="2.45849">
        <ele>103.9</ele>
        <time>2024-01-24T15:21:51Z</time>
      </trkpt>
      <trkpt lat="49.8446" lon="2.45847">
        <ele>103.9</ele>
        <time>2024-01-24T15:21:52Z</time>
      </trkpt>
      <trkpt lat="49.84461" lon="2.45845">
        <ele>103.9</ele>
        <time>2024-01-24T15:21:54Z</time>
      </trkpt>
      <trkpt lat="49.84461" lon="2.45843">
        <ele>103.9</ele>
        <time>2024-01-24T15:21:55Z</time>
      </trkpt>
      <trkpt lat="49.84462" lon="2.4584">
        <ele>104</ele>
        <time>2024-01-24T15:21:56Z</time>
      </trkpt>
      <trkpt lat="49.84462" lon="2.45838">
        <ele>104</ele>
        <time>2024-01-24T15:21:57Z</time>
      </trkpt>
      <trkpt lat="49.84462" lon="2.45837">
        <ele>104</ele>
        <time>2024-01-24T15:21:58Z</time>
      </trkpt>
      <trkpt lat="49.84462" lon="2.45835">
        <ele>104</ele>
        <time>2024-01-24T15:21:59Z</time>
      </trkpt>
      <trkpt lat="49.84462" lon="2.45833">
        <ele>104</ele>
        <time>2024-01-24T15:22:00Z</time>
      </trkpt>
      <trkpt lat="49.84462" lon="2.4583">
        <ele>104.1</ele>
        <time>2024-01-24T15:22:01Z</time>
      </trkpt>
      <trkpt lat="49.84462" lon="2.45828">
        <ele>104.1</ele>
        <time>2024-01-24T15:22:03Z</time>
      </trkpt>
      <trkpt lat="49.84462" lon="2.45827">
        <ele>104.1</ele>
        <time>2024-01-24T15:22:04Z</time>
      </trkpt>
      <trkpt lat="49.84462" lon="2.45825">
        <ele>104.1</ele>
        <time>2024-01-24T15:22:05Z</time>
      </trkpt>
      <trkpt lat="49.84462" lon="2.45824">
        <ele>104.1</ele>
        <time>2024-01-24T15:22:06Z</time>
      </trkpt>
      <trkpt lat="49.84462" lon="2.45822">
        <ele>104.2</ele>
        <time>2024-01-24T15:22:07Z</time>
      </trkpt>
      <trkpt lat="49.84462" lon="2.4582">
        <ele>104.2</ele>
        <time>2024-01-24T15:22:08Z</time>
      </trkpt>
      <trkpt lat="49.84462" lon="2.45818">
        <ele>104.2</ele>
        <time>2024-01-24T15:22:09Z</time>
      </trkpt>
      <trkpt lat="49.84462" lon="2.45816">
        <ele>104.2</ele>
        <time>2024-01-24T15:22:10Z</time>
      </trkpt>
      <trkpt lat="49.84462" lon="2.45813">
        <ele>104.3</ele>
        <time>2024-01-24T15:22:11Z</time>
      </trkpt>
      <trkpt lat="49.84462" lon="2.45812">
        <ele>104.3</ele>
        <time>2024-01-24T15:22:13Z</time>
      </trkpt>
      <trkpt lat="49.84462" lon="2.45811">
        <ele>104.3</ele>
        <time>2024-01-24T15:22:14Z</time>
      </trkpt>
      <trkpt lat="49.84461" lon="2.45808">
        <ele>104.4</ele>
        <time>2024-01-24T15:22:15Z</time>
      </trkpt>
      <trkpt lat="49.84461" lon="2.45806">
        <ele>104.4</ele>
        <time>2024-01-24T15:22:16Z</time>
      </trkpt>
      <trkpt lat="49.84461" lon="2.45805">
        <ele>104.4</ele>
        <time>2024-01-24T15:22:17Z</time>
      </trkpt>
      <trkpt lat="49.84461" lon="2.45802">
        <ele>104.4</ele>
        <time>2024-01-24T15:22:18Z</time>
      </trkpt>
      <trkpt lat="49.8446" lon="2.45801">
        <ele>104.5</ele>
        <time>2024-01-24T15:22:20Z</time>
      </trkpt>
      <trkpt lat="49.8446" lon="2.45799">
        <ele>104.5</ele>
        <time>2024-01-24T15:22:21Z</time>
      </trkpt>
      <trkpt lat="49.84459" lon="2.45796">
        <ele>104.5</ele>
        <time>2024-01-24T15:22:22Z</time>
      </trkpt>
      <trkpt lat="49.84459" lon="2.45795">
        <ele>104.5</ele>
        <time>2024-01-24T15:22:23Z</time>
      </trkpt>
      <trkpt lat="49.84458" lon="2.45794">
        <ele>104.6</ele>
        <time>2024-01-24T15:22:24Z</time>
      </trkpt>
      <trkpt lat="49.84458" lon="2.45792">
        <ele>104.6</ele>
        <time>2024-01-24T15:22:25Z</time>
      </trkpt>
      <trkpt lat="49.84458" lon="2.4579">
        <ele>104.6</ele>
        <time>2024-01-24T15:22:26Z</time>
      </trkpt>
      <trkpt lat="49.84457" lon="2.45788">
        <ele>104.6</ele>
        <time>2024-01-24T15:22:28Z</time>
      </trkpt>
      <trkpt lat="49.84457" lon="2.45787">
        <ele>104.7</ele>
        <time>2024-01-24T15:22:29Z</time>
      </trkpt>
      <trkpt lat="49.84456" lon="2.45785">
        <ele>104.7</ele>
        <time>2024-01-24T15:22:30Z</time>
      </trkpt>
      <trkpt lat="49.84456" lon="2.45783">
        <ele>104.7</ele>
        <time>2024-01-24T15:22:31Z</time>
      </trkpt>
      <trkpt lat="49.84456" lon="2.45782">
        <ele>104.7</ele>
        <time>2024-01-24T15:22:33Z</time>
      </trkpt>
      <trkpt lat="49.84456" lon="2.4578">
        <ele>104.8</ele>
        <time>2024-01-24T15:22:34Z</time>
      </trkpt>
      <trkpt lat="49.84456" lon="2.45779">
        <ele>104.8</ele>
        <time>2024-01-24T15:22:35Z</time>
      </trkpt>
      <trkpt lat="49.84457" lon="2.45778">
        <ele>104.8</ele>
        <time>2024-01-24T15:22:37Z</time>
      </trkpt>
      <trkpt lat="49.84457" lon="2.45777">
        <ele>104.8</ele>
        <time>2024-01-24T15:22:38Z</time>
      </trkpt>
      <trkpt lat="49.84458" lon="2.45777">
        <ele>104.8</ele>
        <time>2024-01-24T15:22:40Z</time>
      </trkpt>
      <trkpt lat="49.84458" lon="2.45777">
        <ele>104.8</ele>
        <time>2024-01-24T15:22:41Z</time>
      </trkpt>
      <trkpt lat="49.84458" lon="2.45777">
        <ele>104.8</ele>
        <time>2024-01-24T15:22:43Z</time>
      </trkpt>
      <trkpt lat="49.84459" lon="2.45778">
        <ele>104.8</ele>
        <time>2024-01-24T15:22:44Z</time>
      </trkpt>
      <trkpt lat="49.84459" lon="2.45778">
        <ele>104.9</ele>
        <time>2024-01-24T15:22:45Z</time>
      </trkpt>
      <trkpt lat="49.84459" lon="2.45779">
        <ele>104.9</ele>
        <time>2024-01-24T15:22:46Z</time>
      </trkpt>
      <trkpt lat="49.84459" lon="2.4578">
        <ele>104.9</ele>
        <time>2024-01-24T15:22:47Z</time>
      </trkpt>
      <trkpt lat="49.84459" lon="2.4578">
        <ele>104.9</ele>
        <time>2024-01-24T15:22:48Z</time>
      </trkpt>
      <trkpt lat="49.84459" lon="2.45781">
        <ele>104.9</ele>
        <time>2024-01-24T15:22:50Z</time>
      </trkpt>
      <trkpt lat="49.84459" lon="2.45782">
        <ele>104.9</ele>
        <time>2024-01-24T15:22:51Z</time>
      </trkpt>
      <trkpt lat="49.84458" lon="2.45782">
        <ele>104.9</ele>
        <time>2024-01-24T15:22:53Z</time>
      </trkpt>
      <trkpt lat="49.84458" lon="2.45782">
        <ele>104.9</ele>
        <time>2024-01-24T15:22:54Z</time>
      </trkpt>
    </trkseg>
  </trk>
</gpx>